<?xml version="1.0" encoding="UTF-8" standalone="no" ?>
<gpx xmlns="http://www.topografix.com/GPX/1/1" xmlns:xsi="http://www.w3.org/2001/XMLSchema-instance" xsi:schemaLocation="http://www.topografix.com/GPX/1/1 http://www.topografix.com/GPX/1/1/gpx.xsd" version="1.1" creator="VisuGPX - https://www.visugpx.com">
  <metadata>
    <name>HRP2023-J02</name>
  </metadata>
  <trk>
    <name><![CDATA[HRP2023-J02]]></name>
    <extensions>
      <line xmlns="http://www.topografix.com/GPX/gpx_style/0/2">
        <color>0000FF</color>
        <width>4</width>
      </line>
    </extensions>
    <trkseg>
      <trkpt lat="42.46576" lon="2.8641">
        <ele>299</ele>
        <time>2023-07-13T03:51:10.000Z</time>
      </trkpt>
      <trkpt lat="42.46567" lon="2.8641">
        <ele>298.60000610352</ele>
        <time>2023-07-13T03:51:21.000Z</time>
      </trkpt>
      <trkpt lat="42.46552" lon="2.86406">
        <ele>299</ele>
        <time>2023-07-13T03:51:29.000Z</time>
      </trkpt>
      <trkpt lat="42.46548" lon="2.86403">
        <ele>297.79998779297</ele>
        <time>2023-07-13T03:51:37.000Z</time>
      </trkpt>
      <trkpt lat="42.46546" lon="2.86399">
        <ele>297</ele>
        <time>2023-07-13T03:51:40.000Z</time>
      </trkpt>
      <trkpt lat="42.46541" lon="2.86396">
        <ele>296.39999389648</ele>
        <time>2023-07-13T03:51:44.000Z</time>
      </trkpt>
      <trkpt lat="42.46534" lon="2.86392">
        <ele>295.79998779297</ele>
        <time>2023-07-13T03:51:48.000Z</time>
      </trkpt>
      <trkpt lat="42.46532" lon="2.86391">
        <ele>295.39999389648</ele>
        <time>2023-07-13T03:51:49.000Z</time>
      </trkpt>
      <trkpt lat="42.46531" lon="2.8639">
        <ele>294.60000610352</ele>
        <time>2023-07-13T03:51:51.000Z</time>
      </trkpt>
      <trkpt lat="42.46521" lon="2.8638">
        <ele>293.79998779297</ele>
        <time>2023-07-13T03:51:58.000Z</time>
      </trkpt>
      <trkpt lat="42.46521" lon="2.86378">
        <ele>293.39999389648</ele>
        <time>2023-07-13T03:52:00.000Z</time>
      </trkpt>
      <trkpt lat="42.46521" lon="2.86376">
        <ele>292.39999389648</ele>
        <time>2023-07-13T03:52:03.000Z</time>
      </trkpt>
      <trkpt lat="42.46521" lon="2.86373">
        <ele>292</ele>
        <time>2023-07-13T03:52:05.000Z</time>
      </trkpt>
      <trkpt lat="42.46521" lon="2.86371">
        <ele>291.20001220703</ele>
        <time>2023-07-13T03:52:08.000Z</time>
      </trkpt>
      <trkpt lat="42.4652" lon="2.86369">
        <ele>291</ele>
        <time>2023-07-13T03:52:12.000Z</time>
      </trkpt>
      <trkpt lat="42.46515" lon="2.86366">
        <ele>291.20001220703</ele>
        <time>2023-07-13T03:52:18.000Z</time>
      </trkpt>
      <trkpt lat="42.46513" lon="2.86363">
        <ele>291</ele>
        <time>2023-07-13T03:52:24.000Z</time>
      </trkpt>
      <trkpt lat="42.46511" lon="2.86359">
        <ele>290</ele>
        <time>2023-07-13T03:52:30.000Z</time>
      </trkpt>
      <trkpt lat="42.46511" lon="2.86358">
        <ele>289.60000610352</ele>
        <time>2023-07-13T03:52:31.000Z</time>
      </trkpt>
      <trkpt lat="42.46512" lon="2.86351">
        <ele>288.79998779297</ele>
        <time>2023-07-13T03:52:36.000Z</time>
      </trkpt>
      <trkpt lat="42.46511" lon="2.86348">
        <ele>287.60000610352</ele>
        <time>2023-07-13T03:52:39.000Z</time>
      </trkpt>
      <trkpt lat="42.46511" lon="2.86345">
        <ele>286.20001220703</ele>
        <time>2023-07-13T03:52:44.000Z</time>
      </trkpt>
      <trkpt lat="42.46511" lon="2.86345">
        <ele>286</ele>
        <time>2023-07-13T03:52:45.000Z</time>
      </trkpt>
      <trkpt lat="42.4651" lon="2.86345">
        <ele>285.79998779297</ele>
        <time>2023-07-13T03:52:46.000Z</time>
      </trkpt>
      <trkpt lat="42.46508" lon="2.86336">
        <ele>285.60000610352</ele>
        <time>2023-07-13T03:52:52.000Z</time>
      </trkpt>
      <trkpt lat="42.4651" lon="2.86331">
        <ele>285.20001220703</ele>
        <time>2023-07-13T03:52:54.000Z</time>
      </trkpt>
      <trkpt lat="42.46513" lon="2.86323">
        <ele>284.20001220703</ele>
        <time>2023-07-13T03:52:58.000Z</time>
      </trkpt>
      <trkpt lat="42.46514" lon="2.86321">
        <ele>283.79998779297</ele>
        <time>2023-07-13T03:52:59.000Z</time>
      </trkpt>
      <trkpt lat="42.46519" lon="2.86313">
        <ele>283.39999389648</ele>
        <time>2023-07-13T03:53:07.000Z</time>
      </trkpt>
      <trkpt lat="42.4652" lon="2.86312">
        <ele>283.20001220703</ele>
        <time>2023-07-13T03:53:11.000Z</time>
      </trkpt>
      <trkpt lat="42.46519" lon="2.86311">
        <ele>282.60000610352</ele>
        <time>2023-07-13T03:53:21.000Z</time>
      </trkpt>
      <trkpt lat="42.46532" lon="2.86307">
        <ele>283.20001220703</ele>
        <time>2023-07-13T03:53:32.000Z</time>
      </trkpt>
      <trkpt lat="42.46532" lon="2.86298">
        <ele>284</ele>
        <time>2023-07-13T03:53:38.000Z</time>
      </trkpt>
      <trkpt lat="42.46533" lon="2.86294">
        <ele>284.20001220703</ele>
        <time>2023-07-13T03:53:41.000Z</time>
      </trkpt>
      <trkpt lat="42.46532" lon="2.86291">
        <ele>284.39999389648</ele>
        <time>2023-07-13T03:53:44.000Z</time>
      </trkpt>
      <trkpt lat="42.46532" lon="2.86289">
        <ele>284.60000610352</ele>
        <time>2023-07-13T03:53:52.000Z</time>
      </trkpt>
      <trkpt lat="42.46532" lon="2.86287">
        <ele>285.39999389648</ele>
        <time>2023-07-13T03:53:55.000Z</time>
      </trkpt>
      <trkpt lat="42.46532" lon="2.86282">
        <ele>286</ele>
        <time>2023-07-13T03:53:58.000Z</time>
      </trkpt>
      <trkpt lat="42.46533" lon="2.8627">
        <ele>286.39999389648</ele>
        <time>2023-07-13T03:54:05.000Z</time>
      </trkpt>
      <trkpt lat="42.46533" lon="2.86269">
        <ele>286.39999389648</ele>
        <time>2023-07-13T03:54:06.000Z</time>
      </trkpt>
      <trkpt lat="42.46533" lon="2.86262">
        <ele>287.60000610352</ele>
        <time>2023-07-13T03:54:11.000Z</time>
      </trkpt>
      <trkpt lat="42.46531" lon="2.86256">
        <ele>287.79998779297</ele>
        <time>2023-07-13T03:54:18.000Z</time>
      </trkpt>
      <trkpt lat="42.46532" lon="2.86251">
        <ele>288.20001220703</ele>
        <time>2023-07-13T03:54:23.000Z</time>
      </trkpt>
      <trkpt lat="42.46537" lon="2.86245">
        <ele>288.20001220703</ele>
        <time>2023-07-13T03:54:34.000Z</time>
      </trkpt>
      <trkpt lat="42.46538" lon="2.86248">
        <ele>288.20001220703</ele>
        <time>2023-07-13T03:54:41.000Z</time>
      </trkpt>
      <trkpt lat="42.46533" lon="2.86256">
        <ele>288.20001220703</ele>
        <time>2023-07-13T03:54:50.000Z</time>
      </trkpt>
      <trkpt lat="42.46534" lon="2.86255">
        <ele>288.60000610352</ele>
        <time>2023-07-13T03:54:53.000Z</time>
      </trkpt>
      <trkpt lat="42.46525" lon="2.8626">
        <ele>288.20001220703</ele>
        <time>2023-07-13T03:54:58.000Z</time>
      </trkpt>
      <trkpt lat="42.46525" lon="2.86259">
        <ele>288.20001220703</ele>
        <time>2023-07-13T03:54:59.000Z</time>
      </trkpt>
      <trkpt lat="42.46524" lon="2.86254">
        <ele>288.39999389648</ele>
        <time>2023-07-13T03:55:04.000Z</time>
      </trkpt>
      <trkpt lat="42.46526" lon="2.86248">
        <ele>289</ele>
        <time>2023-07-13T03:55:09.000Z</time>
      </trkpt>
      <trkpt lat="42.46525" lon="2.86242">
        <ele>289.60000610352</ele>
        <time>2023-07-13T03:55:13.000Z</time>
      </trkpt>
      <trkpt lat="42.46525" lon="2.86241">
        <ele>290</ele>
        <time>2023-07-13T03:55:14.000Z</time>
      </trkpt>
      <trkpt lat="42.46524" lon="2.8624">
        <ele>290.79998779297</ele>
        <time>2023-07-13T03:55:16.000Z</time>
      </trkpt>
      <trkpt lat="42.46523" lon="2.86237">
        <ele>291</ele>
        <time>2023-07-13T03:55:18.000Z</time>
      </trkpt>
      <trkpt lat="42.46519" lon="2.86236">
        <ele>291.79998779297</ele>
        <time>2023-07-13T03:55:23.000Z</time>
      </trkpt>
      <trkpt lat="42.46518" lon="2.86235">
        <ele>291.79998779297</ele>
        <time>2023-07-13T03:55:24.000Z</time>
      </trkpt>
      <trkpt lat="42.4651" lon="2.86234">
        <ele>292.39999389648</ele>
        <time>2023-07-13T03:55:30.000Z</time>
      </trkpt>
      <trkpt lat="42.46509" lon="2.86232">
        <ele>293</ele>
        <time>2023-07-13T03:55:33.000Z</time>
      </trkpt>
      <trkpt lat="42.46506" lon="2.86232">
        <ele>293.60000610352</ele>
        <time>2023-07-13T03:55:39.000Z</time>
      </trkpt>
      <trkpt lat="42.46498" lon="2.86235">
        <ele>293.60000610352</ele>
        <time>2023-07-13T03:55:54.000Z</time>
      </trkpt>
      <trkpt lat="42.46489" lon="2.86241">
        <ele>294</ele>
        <time>2023-07-13T03:56:14.000Z</time>
      </trkpt>
      <trkpt lat="42.46487" lon="2.86241">
        <ele>295.39999389648</ele>
        <time>2023-07-13T03:56:18.000Z</time>
      </trkpt>
      <trkpt lat="42.46484" lon="2.8624">
        <ele>295.79998779297</ele>
        <time>2023-07-13T03:56:21.000Z</time>
      </trkpt>
      <trkpt lat="42.4648" lon="2.86237">
        <ele>296</ele>
        <time>2023-07-13T03:56:28.000Z</time>
      </trkpt>
      <trkpt lat="42.46471" lon="2.86233">
        <ele>297.39999389648</ele>
        <time>2023-07-13T03:56:43.000Z</time>
      </trkpt>
      <trkpt lat="42.4647" lon="2.86233">
        <ele>297.60000610352</ele>
        <time>2023-07-13T03:56:44.000Z</time>
      </trkpt>
      <trkpt lat="42.46459" lon="2.8623">
        <ele>298.79998779297</ele>
        <time>2023-07-13T03:56:53.000Z</time>
      </trkpt>
      <trkpt lat="42.46457" lon="2.86229">
        <ele>299</ele>
        <time>2023-07-13T03:56:55.000Z</time>
      </trkpt>
      <trkpt lat="42.46455" lon="2.86223">
        <ele>299.60000610352</ele>
        <time>2023-07-13T03:57:01.000Z</time>
      </trkpt>
      <trkpt lat="42.46454" lon="2.86222">
        <ele>299.60000610352</ele>
        <time>2023-07-13T03:57:02.000Z</time>
      </trkpt>
      <trkpt lat="42.46447" lon="2.86211">
        <ele>300.20001220703</ele>
        <time>2023-07-13T03:57:09.000Z</time>
      </trkpt>
      <trkpt lat="42.46445" lon="2.86204">
        <ele>300.79998779297</ele>
        <time>2023-07-13T03:57:13.000Z</time>
      </trkpt>
      <trkpt lat="42.46445" lon="2.86196">
        <ele>300.79998779297</ele>
        <time>2023-07-13T03:57:18.000Z</time>
      </trkpt>
      <trkpt lat="42.46446" lon="2.86189">
        <ele>301</ele>
        <time>2023-07-13T03:57:24.000Z</time>
      </trkpt>
      <trkpt lat="42.46444" lon="2.8618">
        <ele>301</ele>
        <time>2023-07-13T03:57:32.000Z</time>
      </trkpt>
      <trkpt lat="42.46441" lon="2.86169">
        <ele>301.20001220703</ele>
        <time>2023-07-13T03:57:38.000Z</time>
      </trkpt>
      <trkpt lat="42.46438" lon="2.86161">
        <ele>301.60000610352</ele>
        <time>2023-07-13T03:57:43.000Z</time>
      </trkpt>
      <trkpt lat="42.46437" lon="2.86159">
        <ele>301.79998779297</ele>
        <time>2023-07-13T03:57:44.000Z</time>
      </trkpt>
      <trkpt lat="42.46436" lon="2.86149">
        <ele>302</ele>
        <time>2023-07-13T03:57:50.000Z</time>
      </trkpt>
      <trkpt lat="42.46434" lon="2.86137">
        <ele>303</ele>
        <time>2023-07-13T03:57:55.000Z</time>
      </trkpt>
      <trkpt lat="42.46433" lon="2.8613">
        <ele>303</ele>
        <time>2023-07-13T03:57:59.000Z</time>
      </trkpt>
      <trkpt lat="42.46432" lon="2.86116">
        <ele>303</ele>
        <time>2023-07-13T03:58:07.000Z</time>
      </trkpt>
      <trkpt lat="42.46428" lon="2.86099">
        <ele>302.60000610352</ele>
        <time>2023-07-13T03:58:16.000Z</time>
      </trkpt>
      <trkpt lat="42.4642" lon="2.86088">
        <ele>302.60000610352</ele>
        <time>2023-07-13T03:58:26.000Z</time>
      </trkpt>
      <trkpt lat="42.46415" lon="2.86071">
        <ele>303</ele>
        <time>2023-07-13T03:58:36.000Z</time>
      </trkpt>
      <trkpt lat="42.46411" lon="2.86063">
        <ele>303</ele>
        <time>2023-07-13T03:58:43.000Z</time>
      </trkpt>
      <trkpt lat="42.46405" lon="2.86045">
        <ele>303</ele>
        <time>2023-07-13T03:58:53.000Z</time>
      </trkpt>
      <trkpt lat="42.46399" lon="2.86029">
        <ele>302.79998779297</ele>
        <time>2023-07-13T03:59:02.000Z</time>
      </trkpt>
      <trkpt lat="42.4639" lon="2.86015">
        <ele>302.39999389648</ele>
        <time>2023-07-13T03:59:11.000Z</time>
      </trkpt>
      <trkpt lat="42.46383" lon="2.86007">
        <ele>303.60000610352</ele>
        <time>2023-07-13T03:59:18.000Z</time>
      </trkpt>
      <trkpt lat="42.46383" lon="2.86007">
        <ele>303.79998779297</ele>
        <time>2023-07-13T03:59:19.000Z</time>
      </trkpt>
      <trkpt lat="42.46383" lon="2.86009">
        <ele>304.60000610352</ele>
        <time>2023-07-13T03:59:20.000Z</time>
      </trkpt>
      <trkpt lat="42.46382" lon="2.86012">
        <ele>305</ele>
        <time>2023-07-13T03:59:24.000Z</time>
      </trkpt>
      <trkpt lat="42.46381" lon="2.86012">
        <ele>303.79998779297</ele>
        <time>2023-07-13T03:59:32.000Z</time>
      </trkpt>
      <trkpt lat="42.46381" lon="2.86013">
        <ele>304.39999389648</ele>
        <time>2023-07-13T03:59:41.000Z</time>
      </trkpt>
      <trkpt lat="42.4639" lon="2.86">
        <ele>303.79998779297</ele>
        <time>2023-07-13T03:59:49.000Z</time>
      </trkpt>
      <trkpt lat="42.46392" lon="2.85997">
        <ele>303.39999389648</ele>
        <time>2023-07-13T03:59:51.000Z</time>
      </trkpt>
      <trkpt lat="42.46394" lon="2.85991">
        <ele>302.79998779297</ele>
        <time>2023-07-13T03:59:56.000Z</time>
      </trkpt>
      <trkpt lat="42.46391" lon="2.85986">
        <ele>302.60000610352</ele>
        <time>2023-07-13T04:00:02.000Z</time>
      </trkpt>
      <trkpt lat="42.4639" lon="2.85985">
        <ele>302.79998779297</ele>
        <time>2023-07-13T04:00:03.000Z</time>
      </trkpt>
      <trkpt lat="42.46385" lon="2.85982">
        <ele>303.20001220703</ele>
        <time>2023-07-13T04:00:09.000Z</time>
      </trkpt>
      <trkpt lat="42.46385" lon="2.85981">
        <ele>303.20001220703</ele>
        <time>2023-07-13T04:00:17.000Z</time>
      </trkpt>
      <trkpt lat="42.46385" lon="2.85982">
        <ele>303</ele>
        <time>2023-07-13T04:00:25.000Z</time>
      </trkpt>
      <trkpt lat="42.46386" lon="2.85985">
        <ele>303</ele>
        <time>2023-07-13T04:00:33.000Z</time>
      </trkpt>
      <trkpt lat="42.46385" lon="2.85985">
        <ele>303.20001220703</ele>
        <time>2023-07-13T04:00:39.000Z</time>
      </trkpt>
      <trkpt lat="42.46386" lon="2.85982">
        <ele>303</ele>
        <time>2023-07-13T04:00:47.000Z</time>
      </trkpt>
      <trkpt lat="42.46387" lon="2.85981">
        <ele>303.20001220703</ele>
        <time>2023-07-13T04:00:55.000Z</time>
      </trkpt>
      <trkpt lat="42.4639" lon="2.85981">
        <ele>303.39999389648</ele>
        <time>2023-07-13T04:01:03.000Z</time>
      </trkpt>
      <trkpt lat="42.4639" lon="2.85978">
        <ele>303.39999389648</ele>
        <time>2023-07-13T04:01:11.000Z</time>
      </trkpt>
      <trkpt lat="42.46388" lon="2.85974">
        <ele>303.79998779297</ele>
        <time>2023-07-13T04:01:18.000Z</time>
      </trkpt>
      <trkpt lat="42.46387" lon="2.85974">
        <ele>303.79998779297</ele>
        <time>2023-07-13T04:01:19.000Z</time>
      </trkpt>
      <trkpt lat="42.46383" lon="2.85979">
        <ele>304.79998779297</ele>
        <time>2023-07-13T04:01:25.000Z</time>
      </trkpt>
      <trkpt lat="42.46382" lon="2.85982">
        <ele>305</ele>
        <time>2023-07-13T04:01:27.000Z</time>
      </trkpt>
      <trkpt lat="42.46381" lon="2.85984">
        <ele>306</ele>
        <time>2023-07-13T04:01:32.000Z</time>
      </trkpt>
      <trkpt lat="42.46381" lon="2.85985">
        <ele>306.20001220703</ele>
        <time>2023-07-13T04:01:33.000Z</time>
      </trkpt>
      <trkpt lat="42.46379" lon="2.8599">
        <ele>307.39999389648</ele>
        <time>2023-07-13T04:01:39.000Z</time>
      </trkpt>
      <trkpt lat="42.4638" lon="2.85995">
        <ele>308.20001220703</ele>
        <time>2023-07-13T04:01:44.000Z</time>
      </trkpt>
      <trkpt lat="42.4638" lon="2.85996">
        <ele>308.39999389648</ele>
        <time>2023-07-13T04:01:45.000Z</time>
      </trkpt>
      <trkpt lat="42.46378" lon="2.85999">
        <ele>309.39999389648</ele>
        <time>2023-07-13T04:01:51.000Z</time>
      </trkpt>
      <trkpt lat="42.46376" lon="2.86001">
        <ele>310.20001220703</ele>
        <time>2023-07-13T04:01:57.000Z</time>
      </trkpt>
      <trkpt lat="42.46374" lon="2.86">
        <ele>310</ele>
        <time>2023-07-13T04:02:05.000Z</time>
      </trkpt>
      <trkpt lat="42.46372" lon="2.86002">
        <ele>310.20001220703</ele>
        <time>2023-07-13T04:02:12.000Z</time>
      </trkpt>
      <trkpt lat="42.46369" lon="2.86005">
        <ele>310.20001220703</ele>
        <time>2023-07-13T04:02:20.000Z</time>
      </trkpt>
      <trkpt lat="42.46366" lon="2.86006">
        <ele>310.60000610352</ele>
        <time>2023-07-13T04:02:26.000Z</time>
      </trkpt>
      <trkpt lat="42.46354" lon="2.86007">
        <ele>314</ele>
        <time>2023-07-13T04:02:42.000Z</time>
      </trkpt>
      <trkpt lat="42.46352" lon="2.86009">
        <ele>315.20001220703</ele>
        <time>2023-07-13T04:02:47.000Z</time>
      </trkpt>
      <trkpt lat="42.46347" lon="2.86013">
        <ele>316</ele>
        <time>2023-07-13T04:02:53.000Z</time>
      </trkpt>
      <trkpt lat="42.46346" lon="2.86015">
        <ele>316.20001220703</ele>
        <time>2023-07-13T04:02:54.000Z</time>
      </trkpt>
      <trkpt lat="42.46343" lon="2.86023">
        <ele>316.60000610352</ele>
        <time>2023-07-13T04:03:00.000Z</time>
      </trkpt>
      <trkpt lat="42.46343" lon="2.86028">
        <ele>317.20001220703</ele>
        <time>2023-07-13T04:03:08.000Z</time>
      </trkpt>
      <trkpt lat="42.4634" lon="2.86036">
        <ele>318.20001220703</ele>
        <time>2023-07-13T04:03:16.000Z</time>
      </trkpt>
      <trkpt lat="42.4634" lon="2.86037">
        <ele>318.39999389648</ele>
        <time>2023-07-13T04:03:17.000Z</time>
      </trkpt>
      <trkpt lat="42.46338" lon="2.8604">
        <ele>319.60000610352</ele>
        <time>2023-07-13T04:03:21.000Z</time>
      </trkpt>
      <trkpt lat="42.46338" lon="2.86043">
        <ele>320</ele>
        <time>2023-07-13T04:03:24.000Z</time>
      </trkpt>
      <trkpt lat="42.46336" lon="2.8605">
        <ele>320.60000610352</ele>
        <time>2023-07-13T04:03:32.000Z</time>
      </trkpt>
      <trkpt lat="42.46333" lon="2.86056">
        <ele>321.79998779297</ele>
        <time>2023-07-13T04:03:39.000Z</time>
      </trkpt>
      <trkpt lat="42.4633" lon="2.86063">
        <ele>323</ele>
        <time>2023-07-13T04:03:47.000Z</time>
      </trkpt>
      <trkpt lat="42.46329" lon="2.86064">
        <ele>323.20001220703</ele>
        <time>2023-07-13T04:03:48.000Z</time>
      </trkpt>
      <trkpt lat="42.46328" lon="2.86066">
        <ele>324</ele>
        <time>2023-07-13T04:03:51.000Z</time>
      </trkpt>
      <trkpt lat="42.46325" lon="2.8607">
        <ele>325.20001220703</ele>
        <time>2023-07-13T04:03:55.000Z</time>
      </trkpt>
      <trkpt lat="42.46324" lon="2.86072">
        <ele>325.39999389648</ele>
        <time>2023-07-13T04:03:57.000Z</time>
      </trkpt>
      <trkpt lat="42.46318" lon="2.86079">
        <ele>326</ele>
        <time>2023-07-13T04:04:05.000Z</time>
      </trkpt>
      <trkpt lat="42.46318" lon="2.8608">
        <ele>326.20001220703</ele>
        <time>2023-07-13T04:04:06.000Z</time>
      </trkpt>
      <trkpt lat="42.46314" lon="2.86087">
        <ele>327.39999389648</ele>
        <time>2023-07-13T04:04:13.000Z</time>
      </trkpt>
      <trkpt lat="42.46313" lon="2.86092">
        <ele>328.60000610352</ele>
        <time>2023-07-13T04:04:19.000Z</time>
      </trkpt>
      <trkpt lat="42.46312" lon="2.86093">
        <ele>328.60000610352</ele>
        <time>2023-07-13T04:04:20.000Z</time>
      </trkpt>
      <trkpt lat="42.46309" lon="2.86098">
        <ele>329.60000610352</ele>
        <time>2023-07-13T04:04:26.000Z</time>
      </trkpt>
      <trkpt lat="42.46308" lon="2.861">
        <ele>329.79998779297</ele>
        <time>2023-07-13T04:04:28.000Z</time>
      </trkpt>
      <trkpt lat="42.46304" lon="2.86104">
        <ele>330.60000610352</ele>
        <time>2023-07-13T04:04:36.000Z</time>
      </trkpt>
      <trkpt lat="42.46303" lon="2.86105">
        <ele>330.79998779297</ele>
        <time>2023-07-13T04:04:37.000Z</time>
      </trkpt>
      <trkpt lat="42.46299" lon="2.86111">
        <ele>331.79998779297</ele>
        <time>2023-07-13T04:04:45.000Z</time>
      </trkpt>
      <trkpt lat="42.46295" lon="2.86117">
        <ele>332.79998779297</ele>
        <time>2023-07-13T04:04:52.000Z</time>
      </trkpt>
      <trkpt lat="42.46294" lon="2.86117">
        <ele>333.20001220703</ele>
        <time>2023-07-13T04:04:53.000Z</time>
      </trkpt>
      <trkpt lat="42.46291" lon="2.86119">
        <ele>334</ele>
        <time>2023-07-13T04:04:59.000Z</time>
      </trkpt>
      <trkpt lat="42.46283" lon="2.86116">
        <ele>335</ele>
        <time>2023-07-13T04:05:04.000Z</time>
      </trkpt>
      <trkpt lat="42.46282" lon="2.86116">
        <ele>335</ele>
        <time>2023-07-13T04:05:05.000Z</time>
      </trkpt>
      <trkpt lat="42.46276" lon="2.86117">
        <ele>336</ele>
        <time>2023-07-13T04:05:11.000Z</time>
      </trkpt>
      <trkpt lat="42.46275" lon="2.86118">
        <ele>336</ele>
        <time>2023-07-13T04:05:12.000Z</time>
      </trkpt>
      <trkpt lat="42.46269" lon="2.86119">
        <ele>337</ele>
        <time>2023-07-13T04:05:19.000Z</time>
      </trkpt>
      <trkpt lat="42.46268" lon="2.8612">
        <ele>337.20001220703</ele>
        <time>2023-07-13T04:05:20.000Z</time>
      </trkpt>
      <trkpt lat="42.46266" lon="2.86122">
        <ele>338</ele>
        <time>2023-07-13T04:05:27.000Z</time>
      </trkpt>
      <trkpt lat="42.46265" lon="2.86123">
        <ele>338.20001220703</ele>
        <time>2023-07-13T04:05:29.000Z</time>
      </trkpt>
      <trkpt lat="42.46261" lon="2.86124">
        <ele>339.39999389648</ele>
        <time>2023-07-13T04:05:34.000Z</time>
      </trkpt>
      <trkpt lat="42.46258" lon="2.86125">
        <ele>339.79998779297</ele>
        <time>2023-07-13T04:05:37.000Z</time>
      </trkpt>
      <trkpt lat="42.46253" lon="2.86129">
        <ele>340.39999389648</ele>
        <time>2023-07-13T04:05:42.000Z</time>
      </trkpt>
      <trkpt lat="42.46249" lon="2.86131">
        <ele>340.79998779297</ele>
        <time>2023-07-13T04:05:46.000Z</time>
      </trkpt>
      <trkpt lat="42.46243" lon="2.86134">
        <ele>341.39999389648</ele>
        <time>2023-07-13T04:05:52.000Z</time>
      </trkpt>
      <trkpt lat="42.46239" lon="2.86134">
        <ele>341.79998779297</ele>
        <time>2023-07-13T04:05:56.000Z</time>
      </trkpt>
      <trkpt lat="42.46233" lon="2.86134">
        <ele>342.60000610352</ele>
        <time>2023-07-13T04:06:03.000Z</time>
      </trkpt>
      <trkpt lat="42.46225" lon="2.86135">
        <ele>343.39999389648</ele>
        <time>2023-07-13T04:06:07.000Z</time>
      </trkpt>
      <trkpt lat="42.46217" lon="2.86133">
        <ele>343.60000610352</ele>
        <time>2023-07-13T04:06:14.000Z</time>
      </trkpt>
      <trkpt lat="42.46216" lon="2.86132">
        <ele>343.79998779297</ele>
        <time>2023-07-13T04:06:15.000Z</time>
      </trkpt>
      <trkpt lat="42.46209" lon="2.8613">
        <ele>344.20001220703</ele>
        <time>2023-07-13T04:06:23.000Z</time>
      </trkpt>
      <trkpt lat="42.46203" lon="2.86129">
        <ele>344.39999389648</ele>
        <time>2023-07-13T04:06:31.000Z</time>
      </trkpt>
      <trkpt lat="42.46198" lon="2.86126">
        <ele>345</ele>
        <time>2023-07-13T04:06:35.000Z</time>
      </trkpt>
      <trkpt lat="42.46196" lon="2.86124">
        <ele>345</ele>
        <time>2023-07-13T04:06:37.000Z</time>
      </trkpt>
      <trkpt lat="42.46189" lon="2.86115">
        <ele>343.79998779297</ele>
        <time>2023-07-13T04:06:47.000Z</time>
      </trkpt>
      <trkpt lat="42.46185" lon="2.86106">
        <ele>343</ele>
        <time>2023-07-13T04:06:56.000Z</time>
      </trkpt>
      <trkpt lat="42.46184" lon="2.86105">
        <ele>342.60000610352</ele>
        <time>2023-07-13T04:06:57.000Z</time>
      </trkpt>
      <trkpt lat="42.46178" lon="2.86097">
        <ele>341.60000610352</ele>
        <time>2023-07-13T04:07:05.000Z</time>
      </trkpt>
      <trkpt lat="42.46173" lon="2.86085">
        <ele>341</ele>
        <time>2023-07-13T04:07:13.000Z</time>
      </trkpt>
      <trkpt lat="42.4617" lon="2.86081">
        <ele>340.39999389648</ele>
        <time>2023-07-13T04:07:17.000Z</time>
      </trkpt>
      <trkpt lat="42.46163" lon="2.8608">
        <ele>339.60000610352</ele>
        <time>2023-07-13T04:07:22.000Z</time>
      </trkpt>
      <trkpt lat="42.46162" lon="2.86079">
        <ele>339.39999389648</ele>
        <time>2023-07-13T04:07:23.000Z</time>
      </trkpt>
      <trkpt lat="42.46153" lon="2.86071">
        <ele>340</ele>
        <time>2023-07-13T04:07:31.000Z</time>
      </trkpt>
      <trkpt lat="42.46151" lon="2.86069">
        <ele>340.39999389648</ele>
        <time>2023-07-13T04:07:38.000Z</time>
      </trkpt>
      <trkpt lat="42.4615" lon="2.86061">
        <ele>340.60000610352</ele>
        <time>2023-07-13T04:07:45.000Z</time>
      </trkpt>
      <trkpt lat="42.46148" lon="2.86049">
        <ele>341.39999389648</ele>
        <time>2023-07-13T04:07:54.000Z</time>
      </trkpt>
      <trkpt lat="42.46147" lon="2.86048">
        <ele>341.60000610352</ele>
        <time>2023-07-13T04:07:55.000Z</time>
      </trkpt>
      <trkpt lat="42.46147" lon="2.86049">
        <ele>341.60000610352</ele>
        <time>2023-07-13T04:08:01.000Z</time>
      </trkpt>
      <trkpt lat="42.46147" lon="2.86049">
        <ele>341.60000610352</ele>
        <time>2023-07-13T04:08:10.000Z</time>
      </trkpt>
      <trkpt lat="42.46144" lon="2.86044">
        <ele>342.20001220703</ele>
        <time>2023-07-13T04:08:19.000Z</time>
      </trkpt>
      <trkpt lat="42.46141" lon="2.8604">
        <ele>342.60000610352</ele>
        <time>2023-07-13T04:08:23.000Z</time>
      </trkpt>
      <trkpt lat="42.46137" lon="2.86038">
        <ele>343.39999389648</ele>
        <time>2023-07-13T04:08:28.000Z</time>
      </trkpt>
      <trkpt lat="42.46135" lon="2.86038">
        <ele>343.79998779297</ele>
        <time>2023-07-13T04:08:30.000Z</time>
      </trkpt>
      <trkpt lat="42.46132" lon="2.86038">
        <ele>344</ele>
        <time>2023-07-13T04:08:35.000Z</time>
      </trkpt>
      <trkpt lat="42.46126" lon="2.86034">
        <ele>344.79998779297</ele>
        <time>2023-07-13T04:08:43.000Z</time>
      </trkpt>
      <trkpt lat="42.46125" lon="2.86033">
        <ele>345</ele>
        <time>2023-07-13T04:08:44.000Z</time>
      </trkpt>
      <trkpt lat="42.46122" lon="2.8603">
        <ele>346</ele>
        <time>2023-07-13T04:08:50.000Z</time>
      </trkpt>
      <trkpt lat="42.46121" lon="2.86029">
        <ele>346</ele>
        <time>2023-07-13T04:08:51.000Z</time>
      </trkpt>
      <trkpt lat="42.46121" lon="2.86033">
        <ele>346.39999389648</ele>
        <time>2023-07-13T04:08:57.000Z</time>
      </trkpt>
      <trkpt lat="42.4612" lon="2.86034">
        <ele>346.60000610352</ele>
        <time>2023-07-13T04:09:04.000Z</time>
      </trkpt>
      <trkpt lat="42.46118" lon="2.8603">
        <ele>346.60000610352</ele>
        <time>2023-07-13T04:09:12.000Z</time>
      </trkpt>
      <trkpt lat="42.46114" lon="2.86024">
        <ele>347.20001220703</ele>
        <time>2023-07-13T04:09:20.000Z</time>
      </trkpt>
      <trkpt lat="42.46113" lon="2.86023">
        <ele>347.39999389648</ele>
        <time>2023-07-13T04:09:21.000Z</time>
      </trkpt>
      <trkpt lat="42.4611" lon="2.86018">
        <ele>348</ele>
        <time>2023-07-13T04:09:29.000Z</time>
      </trkpt>
      <trkpt lat="42.46105" lon="2.86009">
        <ele>348.20001220703</ele>
        <time>2023-07-13T04:09:36.000Z</time>
      </trkpt>
      <trkpt lat="42.46105" lon="2.86007">
        <ele>348.20001220703</ele>
        <time>2023-07-13T04:09:38.000Z</time>
      </trkpt>
      <trkpt lat="42.46103" lon="2.86004">
        <ele>348.60000610352</ele>
        <time>2023-07-13T04:09:44.000Z</time>
      </trkpt>
      <trkpt lat="42.46101" lon="2.86001">
        <ele>349.39999389648</ele>
        <time>2023-07-13T04:09:49.000Z</time>
      </trkpt>
      <trkpt lat="42.46098" lon="2.85995">
        <ele>349.60000610352</ele>
        <time>2023-07-13T04:09:54.000Z</time>
      </trkpt>
      <trkpt lat="42.46097" lon="2.85993">
        <ele>350.39999389648</ele>
        <time>2023-07-13T04:09:56.000Z</time>
      </trkpt>
      <trkpt lat="42.46094" lon="2.85986">
        <ele>350.79998779297</ele>
        <time>2023-07-13T04:10:01.000Z</time>
      </trkpt>
      <trkpt lat="42.46095" lon="2.85977">
        <ele>351.20001220703</ele>
        <time>2023-07-13T04:10:09.000Z</time>
      </trkpt>
      <trkpt lat="42.46095" lon="2.85975">
        <ele>351.60000610352</ele>
        <time>2023-07-13T04:10:11.000Z</time>
      </trkpt>
      <trkpt lat="42.46095" lon="2.85969">
        <ele>352.60000610352</ele>
        <time>2023-07-13T04:10:18.000Z</time>
      </trkpt>
      <trkpt lat="42.46095" lon="2.85961">
        <ele>353.60000610352</ele>
        <time>2023-07-13T04:10:25.000Z</time>
      </trkpt>
      <trkpt lat="42.46094" lon="2.8596">
        <ele>354</ele>
        <time>2023-07-13T04:10:27.000Z</time>
      </trkpt>
      <trkpt lat="42.46094" lon="2.85958">
        <ele>354.79998779297</ele>
        <time>2023-07-13T04:10:31.000Z</time>
      </trkpt>
      <trkpt lat="42.46094" lon="2.85952">
        <ele>355.60000610352</ele>
        <time>2023-07-13T04:10:37.000Z</time>
      </trkpt>
      <trkpt lat="42.46094" lon="2.8595">
        <ele>355.79998779297</ele>
        <time>2023-07-13T04:10:39.000Z</time>
      </trkpt>
      <trkpt lat="42.46097" lon="2.85941">
        <ele>356.20001220703</ele>
        <time>2023-07-13T04:10:47.000Z</time>
      </trkpt>
      <trkpt lat="42.46099" lon="2.85938">
        <ele>357</ele>
        <time>2023-07-13T04:10:51.000Z</time>
      </trkpt>
      <trkpt lat="42.461" lon="2.85935">
        <ele>357.39999389648</ele>
        <time>2023-07-13T04:10:54.000Z</time>
      </trkpt>
      <trkpt lat="42.46097" lon="2.85927">
        <ele>358</ele>
        <time>2023-07-13T04:11:00.000Z</time>
      </trkpt>
      <trkpt lat="42.46095" lon="2.85922">
        <ele>359</ele>
        <time>2023-07-13T04:11:04.000Z</time>
      </trkpt>
      <trkpt lat="42.46094" lon="2.85921">
        <ele>359.20001220703</ele>
        <time>2023-07-13T04:11:05.000Z</time>
      </trkpt>
      <trkpt lat="42.46091" lon="2.85917">
        <ele>360.20001220703</ele>
        <time>2023-07-13T04:11:09.000Z</time>
      </trkpt>
      <trkpt lat="42.4609" lon="2.85915">
        <ele>360.60000610352</ele>
        <time>2023-07-13T04:11:11.000Z</time>
      </trkpt>
      <trkpt lat="42.46088" lon="2.8591">
        <ele>361.60000610352</ele>
        <time>2023-07-13T04:11:15.000Z</time>
      </trkpt>
      <trkpt lat="42.46086" lon="2.85902">
        <ele>362.60000610352</ele>
        <time>2023-07-13T04:11:21.000Z</time>
      </trkpt>
      <trkpt lat="42.46083" lon="2.85895">
        <ele>363</ele>
        <time>2023-07-13T04:11:28.000Z</time>
      </trkpt>
      <trkpt lat="42.46082" lon="2.85893">
        <ele>363.60000610352</ele>
        <time>2023-07-13T04:11:30.000Z</time>
      </trkpt>
      <trkpt lat="42.46076" lon="2.85891">
        <ele>363.60000610352</ele>
        <time>2023-07-13T04:11:38.000Z</time>
      </trkpt>
      <trkpt lat="42.46073" lon="2.85887">
        <ele>364.60000610352</ele>
        <time>2023-07-13T04:11:42.000Z</time>
      </trkpt>
      <trkpt lat="42.46073" lon="2.85886">
        <ele>364.79998779297</ele>
        <time>2023-07-13T04:11:45.000Z</time>
      </trkpt>
      <trkpt lat="42.46074" lon="2.85881">
        <ele>364.79998779297</ele>
        <time>2023-07-13T04:11:54.000Z</time>
      </trkpt>
      <trkpt lat="42.46071" lon="2.85878">
        <ele>365.60000610352</ele>
        <time>2023-07-13T04:12:01.000Z</time>
      </trkpt>
      <trkpt lat="42.4607" lon="2.85877">
        <ele>365.79998779297</ele>
        <time>2023-07-13T04:12:02.000Z</time>
      </trkpt>
      <trkpt lat="42.46068" lon="2.85876">
        <ele>367</ele>
        <time>2023-07-13T04:12:05.000Z</time>
      </trkpt>
      <trkpt lat="42.46063" lon="2.8587">
        <ele>367.20001220703</ele>
        <time>2023-07-13T04:12:10.000Z</time>
      </trkpt>
      <trkpt lat="42.46058" lon="2.85866">
        <ele>368</ele>
        <time>2023-07-13T04:12:17.000Z</time>
      </trkpt>
      <trkpt lat="42.46057" lon="2.85865">
        <ele>368.20001220703</ele>
        <time>2023-07-13T04:12:18.000Z</time>
      </trkpt>
      <trkpt lat="42.46053" lon="2.85864">
        <ele>369.20001220703</ele>
        <time>2023-07-13T04:12:24.000Z</time>
      </trkpt>
      <trkpt lat="42.46051" lon="2.85864">
        <ele>369.60000610352</ele>
        <time>2023-07-13T04:12:27.000Z</time>
      </trkpt>
      <trkpt lat="42.46049" lon="2.85861">
        <ele>370.20001220703</ele>
        <time>2023-07-13T04:12:31.000Z</time>
      </trkpt>
      <trkpt lat="42.46048" lon="2.85858">
        <ele>370.39999389648</ele>
        <time>2023-07-13T04:12:34.000Z</time>
      </trkpt>
      <trkpt lat="42.46042" lon="2.85853">
        <ele>371.20001220703</ele>
        <time>2023-07-13T04:12:41.000Z</time>
      </trkpt>
      <trkpt lat="42.4604" lon="2.85851">
        <ele>371.20001220703</ele>
        <time>2023-07-13T04:12:44.000Z</time>
      </trkpt>
      <trkpt lat="42.46038" lon="2.85846">
        <ele>372.20001220703</ele>
        <time>2023-07-13T04:12:50.000Z</time>
      </trkpt>
      <trkpt lat="42.46036" lon="2.85844">
        <ele>372.79998779297</ele>
        <time>2023-07-13T04:12:53.000Z</time>
      </trkpt>
      <trkpt lat="42.46035" lon="2.85842">
        <ele>373.20001220703</ele>
        <time>2023-07-13T04:12:56.000Z</time>
      </trkpt>
      <trkpt lat="42.46031" lon="2.85839">
        <ele>373.79998779297</ele>
        <time>2023-07-13T04:13:01.000Z</time>
      </trkpt>
      <trkpt lat="42.46027" lon="2.85836">
        <ele>374.39999389648</ele>
        <time>2023-07-13T04:13:06.000Z</time>
      </trkpt>
      <trkpt lat="42.46023" lon="2.85834">
        <ele>375</ele>
        <time>2023-07-13T04:13:11.000Z</time>
      </trkpt>
      <trkpt lat="42.4602" lon="2.85832">
        <ele>375.39999389648</ele>
        <time>2023-07-13T04:13:14.000Z</time>
      </trkpt>
      <trkpt lat="42.46016" lon="2.85829">
        <ele>376.39999389648</ele>
        <time>2023-07-13T04:13:20.000Z</time>
      </trkpt>
      <trkpt lat="42.46016" lon="2.85828">
        <ele>376.60000610352</ele>
        <time>2023-07-13T04:13:21.000Z</time>
      </trkpt>
      <trkpt lat="42.46014" lon="2.85823">
        <ele>377.79998779297</ele>
        <time>2023-07-13T04:13:27.000Z</time>
      </trkpt>
      <trkpt lat="42.4601" lon="2.85816">
        <ele>378.79998779297</ele>
        <time>2023-07-13T04:13:36.000Z</time>
      </trkpt>
      <trkpt lat="42.4601" lon="2.85815">
        <ele>379</ele>
        <time>2023-07-13T04:13:37.000Z</time>
      </trkpt>
      <trkpt lat="42.46006" lon="2.85814">
        <ele>379.79998779297</ele>
        <time>2023-07-13T04:13:44.000Z</time>
      </trkpt>
      <trkpt lat="42.46005" lon="2.85813">
        <ele>380</ele>
        <time>2023-07-13T04:13:45.000Z</time>
      </trkpt>
      <trkpt lat="42.46" lon="2.85809">
        <ele>381</ele>
        <time>2023-07-13T04:13:50.000Z</time>
      </trkpt>
      <trkpt lat="42.45999" lon="2.85809">
        <ele>381.39999389648</ele>
        <time>2023-07-13T04:13:52.000Z</time>
      </trkpt>
      <trkpt lat="42.45997" lon="2.85808">
        <ele>382.20001220703</ele>
        <time>2023-07-13T04:13:55.000Z</time>
      </trkpt>
      <trkpt lat="42.45994" lon="2.85807">
        <ele>382.39999389648</ele>
        <time>2023-07-13T04:14:00.000Z</time>
      </trkpt>
      <trkpt lat="42.45987" lon="2.85805">
        <ele>383</ele>
        <time>2023-07-13T04:14:08.000Z</time>
      </trkpt>
      <trkpt lat="42.4598" lon="2.85802">
        <ele>383.20001220703</ele>
        <time>2023-07-13T04:14:17.000Z</time>
      </trkpt>
      <trkpt lat="42.45979" lon="2.85803">
        <ele>383.20001220703</ele>
        <time>2023-07-13T04:14:19.000Z</time>
      </trkpt>
      <trkpt lat="42.45967" lon="2.85805">
        <ele>385</ele>
        <time>2023-07-13T04:14:32.000Z</time>
      </trkpt>
      <trkpt lat="42.45959" lon="2.858">
        <ele>385.39999389648</ele>
        <time>2023-07-13T04:14:39.000Z</time>
      </trkpt>
      <trkpt lat="42.45958" lon="2.85799">
        <ele>386.20001220703</ele>
        <time>2023-07-13T04:14:41.000Z</time>
      </trkpt>
      <trkpt lat="42.45958" lon="2.85799">
        <ele>386.60000610352</ele>
        <time>2023-07-13T04:14:42.000Z</time>
      </trkpt>
      <trkpt lat="42.45957" lon="2.85797">
        <ele>387.60000610352</ele>
        <time>2023-07-13T04:14:45.000Z</time>
      </trkpt>
      <trkpt lat="42.45955" lon="2.85796">
        <ele>388.20001220703</ele>
        <time>2023-07-13T04:14:49.000Z</time>
      </trkpt>
      <trkpt lat="42.45955" lon="2.85793">
        <ele>388.79998779297</ele>
        <time>2023-07-13T04:14:58.000Z</time>
      </trkpt>
      <trkpt lat="42.45955" lon="2.85793">
        <ele>388.79998779297</ele>
        <time>2023-07-13T04:14:59.000Z</time>
      </trkpt>
      <trkpt lat="42.45951" lon="2.85784">
        <ele>389.60000610352</ele>
        <time>2023-07-13T04:15:07.000Z</time>
      </trkpt>
      <trkpt lat="42.45951" lon="2.85783">
        <ele>389.79998779297</ele>
        <time>2023-07-13T04:15:08.000Z</time>
      </trkpt>
      <trkpt lat="42.45948" lon="2.85773">
        <ele>390.79998779297</ele>
        <time>2023-07-13T04:15:15.000Z</time>
      </trkpt>
      <trkpt lat="42.45947" lon="2.85769">
        <ele>391.20001220703</ele>
        <time>2023-07-13T04:15:17.000Z</time>
      </trkpt>
      <trkpt lat="42.45942" lon="2.85759">
        <ele>391.79998779297</ele>
        <time>2023-07-13T04:15:25.000Z</time>
      </trkpt>
      <trkpt lat="42.4594" lon="2.85757">
        <ele>391.79998779297</ele>
        <time>2023-07-13T04:15:27.000Z</time>
      </trkpt>
      <trkpt lat="42.45937" lon="2.85753">
        <ele>392.39999389648</ele>
        <time>2023-07-13T04:15:33.000Z</time>
      </trkpt>
      <trkpt lat="42.45939" lon="2.85754">
        <ele>392.79998779297</ele>
        <time>2023-07-13T04:15:45.000Z</time>
      </trkpt>
      <trkpt lat="42.45936" lon="2.85756">
        <ele>392.60000610352</ele>
        <time>2023-07-13T04:15:54.000Z</time>
      </trkpt>
      <trkpt lat="42.45935" lon="2.85757">
        <ele>392.20001220703</ele>
        <time>2023-07-13T04:16:01.000Z</time>
      </trkpt>
      <trkpt lat="42.45934" lon="2.85748">
        <ele>392</ele>
        <time>2023-07-13T04:16:06.000Z</time>
      </trkpt>
      <trkpt lat="42.4593" lon="2.85738">
        <ele>391.20001220703</ele>
        <time>2023-07-13T04:16:14.000Z</time>
      </trkpt>
      <trkpt lat="42.45926" lon="2.85735">
        <ele>390.79998779297</ele>
        <time>2023-07-13T04:16:17.000Z</time>
      </trkpt>
      <trkpt lat="42.45923" lon="2.85734">
        <ele>390.79998779297</ele>
        <time>2023-07-13T04:16:20.000Z</time>
      </trkpt>
      <trkpt lat="42.45916" lon="2.85735">
        <ele>391.39999389648</ele>
        <time>2023-07-13T04:16:27.000Z</time>
      </trkpt>
      <trkpt lat="42.45915" lon="2.85734">
        <ele>391.39999389648</ele>
        <time>2023-07-13T04:16:33.000Z</time>
      </trkpt>
      <trkpt lat="42.4591" lon="2.85727">
        <ele>390.20001220703</ele>
        <time>2023-07-13T04:16:41.000Z</time>
      </trkpt>
      <trkpt lat="42.45909" lon="2.85726">
        <ele>389.79998779297</ele>
        <time>2023-07-13T04:16:42.000Z</time>
      </trkpt>
      <trkpt lat="42.45906" lon="2.85722">
        <ele>388.79998779297</ele>
        <time>2023-07-13T04:16:46.000Z</time>
      </trkpt>
      <trkpt lat="42.45898" lon="2.85714">
        <ele>388.79998779297</ele>
        <time>2023-07-13T04:16:52.000Z</time>
      </trkpt>
      <trkpt lat="42.45888" lon="2.85707">
        <ele>388.79998779297</ele>
        <time>2023-07-13T04:17:01.000Z</time>
      </trkpt>
      <trkpt lat="42.45881" lon="2.85704">
        <ele>389</ele>
        <time>2023-07-13T04:17:09.000Z</time>
      </trkpt>
      <trkpt lat="42.45881" lon="2.85705">
        <ele>388.79998779297</ele>
        <time>2023-07-13T04:17:20.000Z</time>
      </trkpt>
      <trkpt lat="42.45881" lon="2.85705">
        <ele>388.79998779297</ele>
        <time>2023-07-13T04:17:30.000Z</time>
      </trkpt>
      <trkpt lat="42.45883" lon="2.85704">
        <ele>388.39999389648</ele>
        <time>2023-07-13T04:17:37.000Z</time>
      </trkpt>
      <trkpt lat="42.4589" lon="2.85706">
        <ele>388.20001220703</ele>
        <time>2023-07-13T04:17:44.000Z</time>
      </trkpt>
      <trkpt lat="42.45898" lon="2.85712">
        <ele>388.20001220703</ele>
        <time>2023-07-13T04:17:51.000Z</time>
      </trkpt>
      <trkpt lat="42.45908" lon="2.85723">
        <ele>388.79998779297</ele>
        <time>2023-07-13T04:18:00.000Z</time>
      </trkpt>
      <trkpt lat="42.45911" lon="2.85728">
        <ele>389.39999389648</ele>
        <time>2023-07-13T04:18:06.000Z</time>
      </trkpt>
      <trkpt lat="42.45912" lon="2.8573">
        <ele>389.79998779297</ele>
        <time>2023-07-13T04:18:08.000Z</time>
      </trkpt>
      <trkpt lat="42.45914" lon="2.85736">
        <ele>391.20001220703</ele>
        <time>2023-07-13T04:18:14.000Z</time>
      </trkpt>
      <trkpt lat="42.45917" lon="2.85736">
        <ele>391.20001220703</ele>
        <time>2023-07-13T04:18:19.000Z</time>
      </trkpt>
      <trkpt lat="42.45915" lon="2.85737">
        <ele>391.20001220703</ele>
        <time>2023-07-13T04:18:29.000Z</time>
      </trkpt>
      <trkpt lat="42.45918" lon="2.85737">
        <ele>391.20001220703</ele>
        <time>2023-07-13T04:18:36.000Z</time>
      </trkpt>
      <trkpt lat="42.45925" lon="2.8573">
        <ele>391.39999389648</ele>
        <time>2023-07-13T04:18:44.000Z</time>
      </trkpt>
      <trkpt lat="42.45934" lon="2.85722">
        <ele>390.39999389648</ele>
        <time>2023-07-13T04:18:53.000Z</time>
      </trkpt>
      <trkpt lat="42.45937" lon="2.85719">
        <ele>390.20001220703</ele>
        <time>2023-07-13T04:18:56.000Z</time>
      </trkpt>
      <trkpt lat="42.45944" lon="2.85713">
        <ele>389.60000610352</ele>
        <time>2023-07-13T04:19:02.000Z</time>
      </trkpt>
      <trkpt lat="42.45946" lon="2.85712">
        <ele>389</ele>
        <time>2023-07-13T04:19:04.000Z</time>
      </trkpt>
      <trkpt lat="42.4595" lon="2.85711">
        <ele>388</ele>
        <time>2023-07-13T04:19:07.000Z</time>
      </trkpt>
      <trkpt lat="42.45952" lon="2.85711">
        <ele>387.79998779297</ele>
        <time>2023-07-13T04:19:10.000Z</time>
      </trkpt>
      <trkpt lat="42.45962" lon="2.85712">
        <ele>386.39999389648</ele>
        <time>2023-07-13T04:19:18.000Z</time>
      </trkpt>
      <trkpt lat="42.45967" lon="2.85721">
        <ele>385.79998779297</ele>
        <time>2023-07-13T04:19:25.000Z</time>
      </trkpt>
      <trkpt lat="42.45971" lon="2.85731">
        <ele>385.20001220703</ele>
        <time>2023-07-13T04:19:31.000Z</time>
      </trkpt>
      <trkpt lat="42.45971" lon="2.85734">
        <ele>385</ele>
        <time>2023-07-13T04:19:33.000Z</time>
      </trkpt>
      <trkpt lat="42.45971" lon="2.85741">
        <ele>384.20001220703</ele>
        <time>2023-07-13T04:19:37.000Z</time>
      </trkpt>
      <trkpt lat="42.45973" lon="2.85749">
        <ele>383.39999389648</ele>
        <time>2023-07-13T04:19:43.000Z</time>
      </trkpt>
      <trkpt lat="42.45973" lon="2.85749">
        <ele>383.20001220703</ele>
        <time>2023-07-13T04:19:44.000Z</time>
      </trkpt>
      <trkpt lat="42.45974" lon="2.85748">
        <ele>383.20001220703</ele>
        <time>2023-07-13T04:19:45.000Z</time>
      </trkpt>
      <trkpt lat="42.45978" lon="2.85751">
        <ele>383</ele>
        <time>2023-07-13T04:19:50.000Z</time>
      </trkpt>
      <trkpt lat="42.45981" lon="2.85754">
        <ele>382.79998779297</ele>
        <time>2023-07-13T04:19:56.000Z</time>
      </trkpt>
      <trkpt lat="42.45981" lon="2.85753">
        <ele>382.79998779297</ele>
        <time>2023-07-13T04:19:57.000Z</time>
      </trkpt>
      <trkpt lat="42.45982" lon="2.85754">
        <ele>383.39999389648</ele>
        <time>2023-07-13T04:20:08.000Z</time>
      </trkpt>
      <trkpt lat="42.45984" lon="2.85754">
        <ele>383</ele>
        <time>2023-07-13T04:20:16.000Z</time>
      </trkpt>
      <trkpt lat="42.45979" lon="2.85743">
        <ele>382.60000610352</ele>
        <time>2023-07-13T04:20:23.000Z</time>
      </trkpt>
      <trkpt lat="42.45978" lon="2.85738">
        <ele>382.39999389648</ele>
        <time>2023-07-13T04:20:28.000Z</time>
      </trkpt>
      <trkpt lat="42.45976" lon="2.85721">
        <ele>382.60000610352</ele>
        <time>2023-07-13T04:20:39.000Z</time>
      </trkpt>
      <trkpt lat="42.45975" lon="2.85711">
        <ele>382.20001220703</ele>
        <time>2023-07-13T04:20:44.000Z</time>
      </trkpt>
      <trkpt lat="42.45974" lon="2.85706">
        <ele>382</ele>
        <time>2023-07-13T04:20:47.000Z</time>
      </trkpt>
      <trkpt lat="42.45971" lon="2.85697">
        <ele>381.79998779297</ele>
        <time>2023-07-13T04:20:54.000Z</time>
      </trkpt>
      <trkpt lat="42.45966" lon="2.85689">
        <ele>381</ele>
        <time>2023-07-13T04:20:59.000Z</time>
      </trkpt>
      <trkpt lat="42.45958" lon="2.85682">
        <ele>380</ele>
        <time>2023-07-13T04:21:05.000Z</time>
      </trkpt>
      <trkpt lat="42.45946" lon="2.85678">
        <ele>379</ele>
        <time>2023-07-13T04:21:14.000Z</time>
      </trkpt>
      <trkpt lat="42.45936" lon="2.85678">
        <ele>378.39999389648</ele>
        <time>2023-07-13T04:21:21.000Z</time>
      </trkpt>
      <trkpt lat="42.45931" lon="2.8568">
        <ele>377.79998779297</ele>
        <time>2023-07-13T04:21:24.000Z</time>
      </trkpt>
      <trkpt lat="42.45929" lon="2.85682">
        <ele>377.20001220703</ele>
        <time>2023-07-13T04:21:28.000Z</time>
      </trkpt>
      <trkpt lat="42.45929" lon="2.85682">
        <ele>376.79998779297</ele>
        <time>2023-07-13T04:21:30.000Z</time>
      </trkpt>
      <trkpt lat="42.45923" lon="2.85684">
        <ele>376.60000610352</ele>
        <time>2023-07-13T04:21:36.000Z</time>
      </trkpt>
      <trkpt lat="42.45918" lon="2.85679">
        <ele>375.79998779297</ele>
        <time>2023-07-13T04:21:41.000Z</time>
      </trkpt>
      <trkpt lat="42.45918" lon="2.85678">
        <ele>375.60000610352</ele>
        <time>2023-07-13T04:21:42.000Z</time>
      </trkpt>
      <trkpt lat="42.45909" lon="2.85671">
        <ele>374.60000610352</ele>
        <time>2023-07-13T04:21:50.000Z</time>
      </trkpt>
      <trkpt lat="42.45907" lon="2.85669">
        <ele>374.39999389648</ele>
        <time>2023-07-13T04:21:52.000Z</time>
      </trkpt>
      <trkpt lat="42.45898" lon="2.85663">
        <ele>373.60000610352</ele>
        <time>2023-07-13T04:21:59.000Z</time>
      </trkpt>
      <trkpt lat="42.45895" lon="2.85661">
        <ele>373.20001220703</ele>
        <time>2023-07-13T04:22:02.000Z</time>
      </trkpt>
      <trkpt lat="42.45886" lon="2.85653">
        <ele>372.60000610352</ele>
        <time>2023-07-13T04:22:08.000Z</time>
      </trkpt>
      <trkpt lat="42.45882" lon="2.85651">
        <ele>372</ele>
        <time>2023-07-13T04:22:11.000Z</time>
      </trkpt>
      <trkpt lat="42.45878" lon="2.8565">
        <ele>371.60000610352</ele>
        <time>2023-07-13T04:22:14.000Z</time>
      </trkpt>
      <trkpt lat="42.45874" lon="2.85651">
        <ele>370.79998779297</ele>
        <time>2023-07-13T04:22:19.000Z</time>
      </trkpt>
      <trkpt lat="42.45873" lon="2.8565">
        <ele>370.60000610352</ele>
        <time>2023-07-13T04:22:20.000Z</time>
      </trkpt>
      <trkpt lat="42.45862" lon="2.85642">
        <ele>369.39999389648</ele>
        <time>2023-07-13T04:22:26.000Z</time>
      </trkpt>
      <trkpt lat="42.4585" lon="2.85633">
        <ele>368.20001220703</ele>
        <time>2023-07-13T04:22:35.000Z</time>
      </trkpt>
      <trkpt lat="42.4584" lon="2.85627">
        <ele>367.60000610352</ele>
        <time>2023-07-13T04:22:43.000Z</time>
      </trkpt>
      <trkpt lat="42.45836" lon="2.85624">
        <ele>367.20001220703</ele>
        <time>2023-07-13T04:22:46.000Z</time>
      </trkpt>
      <trkpt lat="42.4583" lon="2.85622">
        <ele>366.79998779297</ele>
        <time>2023-07-13T04:22:51.000Z</time>
      </trkpt>
      <trkpt lat="42.45825" lon="2.85621">
        <ele>366.20001220703</ele>
        <time>2023-07-13T04:22:55.000Z</time>
      </trkpt>
      <trkpt lat="42.45824" lon="2.85622">
        <ele>365.79998779297</ele>
        <time>2023-07-13T04:22:57.000Z</time>
      </trkpt>
      <trkpt lat="42.45818" lon="2.85619">
        <ele>365</ele>
        <time>2023-07-13T04:23:03.000Z</time>
      </trkpt>
      <trkpt lat="42.45815" lon="2.85618">
        <ele>364.60000610352</ele>
        <time>2023-07-13T04:23:05.000Z</time>
      </trkpt>
      <trkpt lat="42.45808" lon="2.85619">
        <ele>364</ele>
        <time>2023-07-13T04:23:09.000Z</time>
      </trkpt>
      <trkpt lat="42.458" lon="2.85621">
        <ele>363.20001220703</ele>
        <time>2023-07-13T04:23:14.000Z</time>
      </trkpt>
      <trkpt lat="42.45796" lon="2.85623">
        <ele>362.79998779297</ele>
        <time>2023-07-13T04:23:17.000Z</time>
      </trkpt>
      <trkpt lat="42.45791" lon="2.85626">
        <ele>362.20001220703</ele>
        <time>2023-07-13T04:23:21.000Z</time>
      </trkpt>
      <trkpt lat="42.45785" lon="2.85631">
        <ele>361.79998779297</ele>
        <time>2023-07-13T04:23:26.000Z</time>
      </trkpt>
      <trkpt lat="42.45784" lon="2.85633">
        <ele>361.39999389648</ele>
        <time>2023-07-13T04:23:28.000Z</time>
      </trkpt>
      <trkpt lat="42.45781" lon="2.85639">
        <ele>360.79998779297</ele>
        <time>2023-07-13T04:23:32.000Z</time>
      </trkpt>
      <trkpt lat="42.45779" lon="2.85644">
        <ele>360.39999389648</ele>
        <time>2023-07-13T04:23:35.000Z</time>
      </trkpt>
      <trkpt lat="42.45777" lon="2.8565">
        <ele>359.79998779297</ele>
        <time>2023-07-13T04:23:38.000Z</time>
      </trkpt>
      <trkpt lat="42.45774" lon="2.85658">
        <ele>359.39999389648</ele>
        <time>2023-07-13T04:23:43.000Z</time>
      </trkpt>
      <trkpt lat="42.4577" lon="2.85664">
        <ele>358.60000610352</ele>
        <time>2023-07-13T04:23:47.000Z</time>
      </trkpt>
      <trkpt lat="42.45764" lon="2.85669">
        <ele>358.20001220703</ele>
        <time>2023-07-13T04:23:52.000Z</time>
      </trkpt>
      <trkpt lat="42.45761" lon="2.85673">
        <ele>357.60000610352</ele>
        <time>2023-07-13T04:23:55.000Z</time>
      </trkpt>
      <trkpt lat="42.45756" lon="2.8568">
        <ele>357.39999389648</ele>
        <time>2023-07-13T04:23:59.000Z</time>
      </trkpt>
      <trkpt lat="42.45752" lon="2.85687">
        <ele>356.60000610352</ele>
        <time>2023-07-13T04:24:04.000Z</time>
      </trkpt>
      <trkpt lat="42.45749" lon="2.85691">
        <ele>356.39999389648</ele>
        <time>2023-07-13T04:24:07.000Z</time>
      </trkpt>
      <trkpt lat="42.45739" lon="2.85699">
        <ele>355.60000610352</ele>
        <time>2023-07-13T04:24:14.000Z</time>
      </trkpt>
      <trkpt lat="42.4573" lon="2.85694">
        <ele>354.60000610352</ele>
        <time>2023-07-13T04:24:21.000Z</time>
      </trkpt>
      <trkpt lat="42.45728" lon="2.85693">
        <ele>354.39999389648</ele>
        <time>2023-07-13T04:24:22.000Z</time>
      </trkpt>
      <trkpt lat="42.45719" lon="2.85688">
        <ele>353.39999389648</ele>
        <time>2023-07-13T04:24:27.000Z</time>
      </trkpt>
      <trkpt lat="42.45714" lon="2.85687">
        <ele>352.79998779297</ele>
        <time>2023-07-13T04:24:31.000Z</time>
      </trkpt>
      <trkpt lat="42.45712" lon="2.85686">
        <ele>352.39999389648</ele>
        <time>2023-07-13T04:24:33.000Z</time>
      </trkpt>
      <trkpt lat="42.45705" lon="2.85683">
        <ele>351.39999389648</ele>
        <time>2023-07-13T04:24:38.000Z</time>
      </trkpt>
      <trkpt lat="42.45704" lon="2.85683">
        <ele>351.39999389648</ele>
        <time>2023-07-13T04:24:39.000Z</time>
      </trkpt>
      <trkpt lat="42.45693" lon="2.85684">
        <ele>350.20001220703</ele>
        <time>2023-07-13T04:24:46.000Z</time>
      </trkpt>
      <trkpt lat="42.45683" lon="2.85684">
        <ele>349.39999389648</ele>
        <time>2023-07-13T04:24:53.000Z</time>
      </trkpt>
      <trkpt lat="42.45681" lon="2.85684">
        <ele>349.20001220703</ele>
        <time>2023-07-13T04:24:54.000Z</time>
      </trkpt>
      <trkpt lat="42.45672" lon="2.85686">
        <ele>348.20001220703</ele>
        <time>2023-07-13T04:25:01.000Z</time>
      </trkpt>
      <trkpt lat="42.4567" lon="2.85687">
        <ele>348</ele>
        <time>2023-07-13T04:25:02.000Z</time>
      </trkpt>
      <trkpt lat="42.45663" lon="2.85692">
        <ele>347.79998779297</ele>
        <time>2023-07-13T04:25:08.000Z</time>
      </trkpt>
      <trkpt lat="42.45654" lon="2.85702">
        <ele>347.39999389648</ele>
        <time>2023-07-13T04:25:15.000Z</time>
      </trkpt>
      <trkpt lat="42.45652" lon="2.85704">
        <ele>347</ele>
        <time>2023-07-13T04:25:17.000Z</time>
      </trkpt>
      <trkpt lat="42.45646" lon="2.85711">
        <ele>346.60000610352</ele>
        <time>2023-07-13T04:25:23.000Z</time>
      </trkpt>
      <trkpt lat="42.4564" lon="2.85718">
        <ele>346</ele>
        <time>2023-07-13T04:25:28.000Z</time>
      </trkpt>
      <trkpt lat="42.45639" lon="2.8572">
        <ele>345.79998779297</ele>
        <time>2023-07-13T04:25:29.000Z</time>
      </trkpt>
      <trkpt lat="42.45631" lon="2.85733">
        <ele>345</ele>
        <time>2023-07-13T04:25:37.000Z</time>
      </trkpt>
      <trkpt lat="42.45626" lon="2.85747">
        <ele>343.79998779297</ele>
        <time>2023-07-13T04:25:45.000Z</time>
      </trkpt>
      <trkpt lat="42.45626" lon="2.85748">
        <ele>343.60000610352</ele>
        <time>2023-07-13T04:25:46.000Z</time>
      </trkpt>
      <trkpt lat="42.45622" lon="2.8576">
        <ele>342.79998779297</ele>
        <time>2023-07-13T04:25:53.000Z</time>
      </trkpt>
      <trkpt lat="42.45622" lon="2.85762">
        <ele>342.60000610352</ele>
        <time>2023-07-13T04:25:54.000Z</time>
      </trkpt>
      <trkpt lat="42.45615" lon="2.85775">
        <ele>341.79998779297</ele>
        <time>2023-07-13T04:26:02.000Z</time>
      </trkpt>
      <trkpt lat="42.45614" lon="2.85776">
        <ele>341.79998779297</ele>
        <time>2023-07-13T04:26:03.000Z</time>
      </trkpt>
      <trkpt lat="42.45605" lon="2.85778">
        <ele>341</ele>
        <time>2023-07-13T04:26:10.000Z</time>
      </trkpt>
      <trkpt lat="42.45602" lon="2.85778">
        <ele>340.60000610352</ele>
        <time>2023-07-13T04:26:12.000Z</time>
      </trkpt>
      <trkpt lat="42.45592" lon="2.85778">
        <ele>339.60000610352</ele>
        <time>2023-07-13T04:26:19.000Z</time>
      </trkpt>
      <trkpt lat="42.45591" lon="2.85778">
        <ele>339.39999389648</ele>
        <time>2023-07-13T04:26:20.000Z</time>
      </trkpt>
      <trkpt lat="42.45586" lon="2.85787">
        <ele>338.20001220703</ele>
        <time>2023-07-13T04:26:26.000Z</time>
      </trkpt>
      <trkpt lat="42.45585" lon="2.85788">
        <ele>338</ele>
        <time>2023-07-13T04:26:27.000Z</time>
      </trkpt>
      <trkpt lat="42.45582" lon="2.85798">
        <ele>337.20001220703</ele>
        <time>2023-07-13T04:26:32.000Z</time>
      </trkpt>
      <trkpt lat="42.4558" lon="2.85806">
        <ele>336.79998779297</ele>
        <time>2023-07-13T04:26:37.000Z</time>
      </trkpt>
      <trkpt lat="42.45573" lon="2.85814">
        <ele>336.20001220703</ele>
        <time>2023-07-13T04:26:45.000Z</time>
      </trkpt>
      <trkpt lat="42.4557" lon="2.85815">
        <ele>336</ele>
        <time>2023-07-13T04:26:47.000Z</time>
      </trkpt>
      <trkpt lat="42.45561" lon="2.85813">
        <ele>335.20001220703</ele>
        <time>2023-07-13T04:26:54.000Z</time>
      </trkpt>
      <trkpt lat="42.45548" lon="2.85806">
        <ele>334.20001220703</ele>
        <time>2023-07-13T04:27:03.000Z</time>
      </trkpt>
      <trkpt lat="42.45542" lon="2.85796">
        <ele>333</ele>
        <time>2023-07-13T04:27:12.000Z</time>
      </trkpt>
      <trkpt lat="42.45539" lon="2.85795">
        <ele>332.60000610352</ele>
        <time>2023-07-13T04:27:19.000Z</time>
      </trkpt>
      <trkpt lat="42.45539" lon="2.85797">
        <ele>332.60000610352</ele>
        <time>2023-07-13T04:27:21.000Z</time>
      </trkpt>
      <trkpt lat="42.45538" lon="2.85798">
        <ele>332.79998779297</ele>
        <time>2023-07-13T04:27:23.000Z</time>
      </trkpt>
      <trkpt lat="42.4554" lon="2.85795">
        <ele>332.60000610352</ele>
        <time>2023-07-13T04:27:28.000Z</time>
      </trkpt>
      <trkpt lat="42.45535" lon="2.85787">
        <ele>332.60000610352</ele>
        <time>2023-07-13T04:27:34.000Z</time>
      </trkpt>
      <trkpt lat="42.45528" lon="2.85775">
        <ele>331.79998779297</ele>
        <time>2023-07-13T04:27:41.000Z</time>
      </trkpt>
      <trkpt lat="42.45525" lon="2.85773">
        <ele>331.20001220703</ele>
        <time>2023-07-13T04:27:43.000Z</time>
      </trkpt>
      <trkpt lat="42.45523" lon="2.85772">
        <ele>330.79998779297</ele>
        <time>2023-07-13T04:27:44.000Z</time>
      </trkpt>
      <trkpt lat="42.45515" lon="2.85773">
        <ele>330</ele>
        <time>2023-07-13T04:27:50.000Z</time>
      </trkpt>
      <trkpt lat="42.45512" lon="2.85774">
        <ele>329.79998779297</ele>
        <time>2023-07-13T04:27:52.000Z</time>
      </trkpt>
      <trkpt lat="42.45507" lon="2.8578">
        <ele>328.79998779297</ele>
        <time>2023-07-13T04:27:57.000Z</time>
      </trkpt>
      <trkpt lat="42.45505" lon="2.85782">
        <ele>328.60000610352</ele>
        <time>2023-07-13T04:27:58.000Z</time>
      </trkpt>
      <trkpt lat="42.45498" lon="2.85792">
        <ele>328</ele>
        <time>2023-07-13T04:28:05.000Z</time>
      </trkpt>
      <trkpt lat="42.45493" lon="2.85795">
        <ele>327.60000610352</ele>
        <time>2023-07-13T04:28:09.000Z</time>
      </trkpt>
      <trkpt lat="42.45487" lon="2.85796">
        <ele>327.20001220703</ele>
        <time>2023-07-13T04:28:13.000Z</time>
      </trkpt>
      <trkpt lat="42.45477" lon="2.85794">
        <ele>326.60000610352</ele>
        <time>2023-07-13T04:28:19.000Z</time>
      </trkpt>
      <trkpt lat="42.45475" lon="2.85792">
        <ele>326.20001220703</ele>
        <time>2023-07-13T04:28:21.000Z</time>
      </trkpt>
      <trkpt lat="42.45466" lon="2.85784">
        <ele>326.20001220703</ele>
        <time>2023-07-13T04:28:29.000Z</time>
      </trkpt>
      <trkpt lat="42.45464" lon="2.85782">
        <ele>325.39999389648</ele>
        <time>2023-07-13T04:28:31.000Z</time>
      </trkpt>
      <trkpt lat="42.45456" lon="2.85771">
        <ele>325.20001220703</ele>
        <time>2023-07-13T04:28:38.000Z</time>
      </trkpt>
      <trkpt lat="42.45449" lon="2.85759">
        <ele>325.39999389648</ele>
        <time>2023-07-13T04:28:48.000Z</time>
      </trkpt>
      <trkpt lat="42.45448" lon="2.85749">
        <ele>326</ele>
        <time>2023-07-13T04:28:55.000Z</time>
      </trkpt>
      <trkpt lat="42.45447" lon="2.85744">
        <ele>326</ele>
        <time>2023-07-13T04:29:05.000Z</time>
      </trkpt>
      <trkpt lat="42.45447" lon="2.85745">
        <ele>326</ele>
        <time>2023-07-13T04:29:07.000Z</time>
      </trkpt>
      <trkpt lat="42.45446" lon="2.85748">
        <ele>326</ele>
        <time>2023-07-13T04:29:12.000Z</time>
      </trkpt>
      <trkpt lat="42.45443" lon="2.8575">
        <ele>326</ele>
        <time>2023-07-13T04:29:18.000Z</time>
      </trkpt>
      <trkpt lat="42.45439" lon="2.85744">
        <ele>326.20001220703</ele>
        <time>2023-07-13T04:29:24.000Z</time>
      </trkpt>
      <trkpt lat="42.45437" lon="2.85742">
        <ele>326.60000610352</ele>
        <time>2023-07-13T04:29:26.000Z</time>
      </trkpt>
      <trkpt lat="42.45436" lon="2.85739">
        <ele>327.79998779297</ele>
        <time>2023-07-13T04:29:31.000Z</time>
      </trkpt>
      <trkpt lat="42.45436" lon="2.85738">
        <ele>328</ele>
        <time>2023-07-13T04:29:32.000Z</time>
      </trkpt>
      <trkpt lat="42.45438" lon="2.85732">
        <ele>329</ele>
        <time>2023-07-13T04:29:39.000Z</time>
      </trkpt>
      <trkpt lat="42.45437" lon="2.85722">
        <ele>330</ele>
        <time>2023-07-13T04:29:47.000Z</time>
      </trkpt>
      <trkpt lat="42.45438" lon="2.85719">
        <ele>331.20001220703</ele>
        <time>2023-07-13T04:29:52.000Z</time>
      </trkpt>
      <trkpt lat="42.45437" lon="2.85714">
        <ele>331.60000610352</ele>
        <time>2023-07-13T04:29:57.000Z</time>
      </trkpt>
      <trkpt lat="42.45438" lon="2.8571">
        <ele>332.39999389648</ele>
        <time>2023-07-13T04:30:01.000Z</time>
      </trkpt>
      <trkpt lat="42.45438" lon="2.85704">
        <ele>333.20001220703</ele>
        <time>2023-07-13T04:30:06.000Z</time>
      </trkpt>
      <trkpt lat="42.45437" lon="2.85701">
        <ele>333.79998779297</ele>
        <time>2023-07-13T04:30:10.000Z</time>
      </trkpt>
      <trkpt lat="42.45435" lon="2.85696">
        <ele>333.39999389648</ele>
        <time>2023-07-13T04:30:15.000Z</time>
      </trkpt>
      <trkpt lat="42.45434" lon="2.85694">
        <ele>332.60000610352</ele>
        <time>2023-07-13T04:30:17.000Z</time>
      </trkpt>
      <trkpt lat="42.45432" lon="2.85687">
        <ele>332.39999389648</ele>
        <time>2023-07-13T04:30:24.000Z</time>
      </trkpt>
      <trkpt lat="42.45434" lon="2.85683">
        <ele>333.79998779297</ele>
        <time>2023-07-13T04:30:30.000Z</time>
      </trkpt>
      <trkpt lat="42.45436" lon="2.85682">
        <ele>334.20001220703</ele>
        <time>2023-07-13T04:30:33.000Z</time>
      </trkpt>
      <trkpt lat="42.45439" lon="2.85683">
        <ele>334.60000610352</ele>
        <time>2023-07-13T04:30:35.000Z</time>
      </trkpt>
      <trkpt lat="42.45441" lon="2.85682">
        <ele>335</ele>
        <time>2023-07-13T04:30:37.000Z</time>
      </trkpt>
      <trkpt lat="42.45444" lon="2.85683">
        <ele>335.20001220703</ele>
        <time>2023-07-13T04:30:40.000Z</time>
      </trkpt>
      <trkpt lat="42.45443" lon="2.85679">
        <ele>334.60000610352</ele>
        <time>2023-07-13T04:30:46.000Z</time>
      </trkpt>
      <trkpt lat="42.45443" lon="2.85678">
        <ele>334.60000610352</ele>
        <time>2023-07-13T04:30:47.000Z</time>
      </trkpt>
      <trkpt lat="42.45444" lon="2.85677">
        <ele>334.60000610352</ele>
        <time>2023-07-13T04:30:48.000Z</time>
      </trkpt>
      <trkpt lat="42.45445" lon="2.85669">
        <ele>334.60000610352</ele>
        <time>2023-07-13T04:30:52.000Z</time>
      </trkpt>
      <trkpt lat="42.45447" lon="2.85659">
        <ele>336</ele>
        <time>2023-07-13T04:30:59.000Z</time>
      </trkpt>
      <trkpt lat="42.45447" lon="2.85658">
        <ele>336.20001220703</ele>
        <time>2023-07-13T04:31:00.000Z</time>
      </trkpt>
      <trkpt lat="42.4545" lon="2.85648">
        <ele>335</ele>
        <time>2023-07-13T04:31:08.000Z</time>
      </trkpt>
      <trkpt lat="42.4545" lon="2.85647">
        <ele>334.60000610352</ele>
        <time>2023-07-13T04:31:09.000Z</time>
      </trkpt>
      <trkpt lat="42.45453" lon="2.85635">
        <ele>333.79998779297</ele>
        <time>2023-07-13T04:31:17.000Z</time>
      </trkpt>
      <trkpt lat="42.45459" lon="2.85616">
        <ele>334</ele>
        <time>2023-07-13T04:31:27.000Z</time>
      </trkpt>
      <trkpt lat="42.45461" lon="2.85601">
        <ele>333.60000610352</ele>
        <time>2023-07-13T04:31:35.000Z</time>
      </trkpt>
      <trkpt lat="42.45462" lon="2.856">
        <ele>333.60000610352</ele>
        <time>2023-07-13T04:31:36.000Z</time>
      </trkpt>
      <trkpt lat="42.45465" lon="2.85587">
        <ele>333.60000610352</ele>
        <time>2023-07-13T04:31:44.000Z</time>
      </trkpt>
      <trkpt lat="42.45466" lon="2.85578">
        <ele>334.60000610352</ele>
        <time>2023-07-13T04:31:52.000Z</time>
      </trkpt>
      <trkpt lat="42.45469" lon="2.85571">
        <ele>336</ele>
        <time>2023-07-13T04:31:57.000Z</time>
      </trkpt>
      <trkpt lat="42.4547" lon="2.85568">
        <ele>336.20001220703</ele>
        <time>2023-07-13T04:31:59.000Z</time>
      </trkpt>
      <trkpt lat="42.45474" lon="2.85561">
        <ele>337.20001220703</ele>
        <time>2023-07-13T04:32:07.000Z</time>
      </trkpt>
      <trkpt lat="42.45477" lon="2.85546">
        <ele>337.39999389648</ele>
        <time>2023-07-13T04:32:16.000Z</time>
      </trkpt>
      <trkpt lat="42.4548" lon="2.85539">
        <ele>336</ele>
        <time>2023-07-13T04:32:23.000Z</time>
      </trkpt>
      <trkpt lat="42.4548" lon="2.85537">
        <ele>336</ele>
        <time>2023-07-13T04:32:24.000Z</time>
      </trkpt>
      <trkpt lat="42.45483" lon="2.85526">
        <ele>336.60000610352</ele>
        <time>2023-07-13T04:32:32.000Z</time>
      </trkpt>
      <trkpt lat="42.45488" lon="2.85513">
        <ele>336.39999389648</ele>
        <time>2023-07-13T04:32:41.000Z</time>
      </trkpt>
      <trkpt lat="42.45489" lon="2.85506">
        <ele>336.20001220703</ele>
        <time>2023-07-13T04:32:47.000Z</time>
      </trkpt>
      <trkpt lat="42.45489" lon="2.85498">
        <ele>334.79998779297</ele>
        <time>2023-07-13T04:32:53.000Z</time>
      </trkpt>
      <trkpt lat="42.4549" lon="2.85494">
        <ele>334.39999389648</ele>
        <time>2023-07-13T04:32:55.000Z</time>
      </trkpt>
      <trkpt lat="42.4549" lon="2.85485">
        <ele>333.79998779297</ele>
        <time>2023-07-13T04:33:00.000Z</time>
      </trkpt>
      <trkpt lat="42.45492" lon="2.85478">
        <ele>333.20001220703</ele>
        <time>2023-07-13T04:33:05.000Z</time>
      </trkpt>
      <trkpt lat="42.45493" lon="2.85473">
        <ele>332.79998779297</ele>
        <time>2023-07-13T04:33:10.000Z</time>
      </trkpt>
      <trkpt lat="42.45493" lon="2.85471">
        <ele>332.20001220703</ele>
        <time>2023-07-13T04:33:13.000Z</time>
      </trkpt>
      <trkpt lat="42.45492" lon="2.85467">
        <ele>331.39999389648</ele>
        <time>2023-07-13T04:33:17.000Z</time>
      </trkpt>
      <trkpt lat="42.4549" lon="2.85461">
        <ele>330.39999389648</ele>
        <time>2023-07-13T04:33:21.000Z</time>
      </trkpt>
      <trkpt lat="42.45489" lon="2.85459">
        <ele>330.39999389648</ele>
        <time>2023-07-13T04:33:23.000Z</time>
      </trkpt>
      <trkpt lat="42.45485" lon="2.85442">
        <ele>329.20001220703</ele>
        <time>2023-07-13T04:33:34.000Z</time>
      </trkpt>
      <trkpt lat="42.45484" lon="2.8544">
        <ele>328.79998779297</ele>
        <time>2023-07-13T04:33:35.000Z</time>
      </trkpt>
      <trkpt lat="42.45484" lon="2.85436">
        <ele>328.20001220703</ele>
        <time>2023-07-13T04:33:38.000Z</time>
      </trkpt>
      <trkpt lat="42.45483" lon="2.8543">
        <ele>328.20001220703</ele>
        <time>2023-07-13T04:33:43.000Z</time>
      </trkpt>
      <trkpt lat="42.45482" lon="2.85419">
        <ele>328.79998779297</ele>
        <time>2023-07-13T04:33:51.000Z</time>
      </trkpt>
      <trkpt lat="42.45483" lon="2.85416">
        <ele>329.20001220703</ele>
        <time>2023-07-13T04:33:54.000Z</time>
      </trkpt>
      <trkpt lat="42.45483" lon="2.85412">
        <ele>330</ele>
        <time>2023-07-13T04:33:57.000Z</time>
      </trkpt>
      <trkpt lat="42.45485" lon="2.85406">
        <ele>330</ele>
        <time>2023-07-13T04:34:04.000Z</time>
      </trkpt>
      <trkpt lat="42.45485" lon="2.85401">
        <ele>330.20001220703</ele>
        <time>2023-07-13T04:34:11.000Z</time>
      </trkpt>
      <trkpt lat="42.45485" lon="2.85397">
        <ele>330.39999389648</ele>
        <time>2023-07-13T04:34:14.000Z</time>
      </trkpt>
      <trkpt lat="42.45488" lon="2.85397">
        <ele>330.79998779297</ele>
        <time>2023-07-13T04:34:19.000Z</time>
      </trkpt>
      <trkpt lat="42.45489" lon="2.85398">
        <ele>331.60000610352</ele>
        <time>2023-07-13T04:34:21.000Z</time>
      </trkpt>
      <trkpt lat="42.45491" lon="2.854">
        <ele>332.20001220703</ele>
        <time>2023-07-13T04:34:26.000Z</time>
      </trkpt>
      <trkpt lat="42.45492" lon="2.854">
        <ele>331.79998779297</ele>
        <time>2023-07-13T04:34:34.000Z</time>
      </trkpt>
      <trkpt lat="42.45494" lon="2.854">
        <ele>331.79998779297</ele>
        <time>2023-07-13T04:34:43.000Z</time>
      </trkpt>
      <trkpt lat="42.45494" lon="2.85401">
        <ele>332</ele>
        <time>2023-07-13T04:34:52.000Z</time>
      </trkpt>
      <trkpt lat="42.45488" lon="2.85397">
        <ele>331.60000610352</ele>
        <time>2023-07-13T04:35:00.000Z</time>
      </trkpt>
      <trkpt lat="42.45486" lon="2.85387">
        <ele>331</ele>
        <time>2023-07-13T04:35:07.000Z</time>
      </trkpt>
      <trkpt lat="42.45487" lon="2.85375">
        <ele>331.79998779297</ele>
        <time>2023-07-13T04:35:15.000Z</time>
      </trkpt>
      <trkpt lat="42.45488" lon="2.85366">
        <ele>332.39999389648</ele>
        <time>2023-07-13T04:35:23.000Z</time>
      </trkpt>
      <trkpt lat="42.45489" lon="2.85362">
        <ele>332.60000610352</ele>
        <time>2023-07-13T04:35:26.000Z</time>
      </trkpt>
      <trkpt lat="42.45491" lon="2.85356">
        <ele>333.20001220703</ele>
        <time>2023-07-13T04:35:30.000Z</time>
      </trkpt>
      <trkpt lat="42.45496" lon="2.85345">
        <ele>333.79998779297</ele>
        <time>2023-07-13T04:35:38.000Z</time>
      </trkpt>
      <trkpt lat="42.45496" lon="2.85344">
        <ele>333.79998779297</ele>
        <time>2023-07-13T04:35:39.000Z</time>
      </trkpt>
      <trkpt lat="42.45499" lon="2.85336">
        <ele>334.39999389648</ele>
        <time>2023-07-13T04:35:46.000Z</time>
      </trkpt>
      <trkpt lat="42.45499" lon="2.85334">
        <ele>334.79998779297</ele>
        <time>2023-07-13T04:35:48.000Z</time>
      </trkpt>
      <trkpt lat="42.45502" lon="2.85327">
        <ele>335.39999389648</ele>
        <time>2023-07-13T04:35:53.000Z</time>
      </trkpt>
      <trkpt lat="42.45502" lon="2.85322">
        <ele>335.79998779297</ele>
        <time>2023-07-13T04:35:57.000Z</time>
      </trkpt>
      <trkpt lat="42.45502" lon="2.85315">
        <ele>336.60000610352</ele>
        <time>2023-07-13T04:36:02.000Z</time>
      </trkpt>
      <trkpt lat="42.45503" lon="2.85311">
        <ele>336.79998779297</ele>
        <time>2023-07-13T04:36:05.000Z</time>
      </trkpt>
      <trkpt lat="42.45503" lon="2.85308">
        <ele>337</ele>
        <time>2023-07-13T04:36:08.000Z</time>
      </trkpt>
      <trkpt lat="42.45504" lon="2.85302">
        <ele>337.79998779297</ele>
        <time>2023-07-13T04:36:13.000Z</time>
      </trkpt>
      <trkpt lat="42.45505" lon="2.85298">
        <ele>338.39999389648</ele>
        <time>2023-07-13T04:36:17.000Z</time>
      </trkpt>
      <trkpt lat="42.45506" lon="2.85295">
        <ele>339</ele>
        <time>2023-07-13T04:36:20.000Z</time>
      </trkpt>
      <trkpt lat="42.45508" lon="2.8529">
        <ele>339.60000610352</ele>
        <time>2023-07-13T04:36:24.000Z</time>
      </trkpt>
      <trkpt lat="42.45508" lon="2.85289">
        <ele>340</ele>
        <time>2023-07-13T04:36:26.000Z</time>
      </trkpt>
      <trkpt lat="42.45508" lon="2.85283">
        <ele>341</ele>
        <time>2023-07-13T04:36:32.000Z</time>
      </trkpt>
      <trkpt lat="42.45506" lon="2.85281">
        <ele>341.39999389648</ele>
        <time>2023-07-13T04:36:34.000Z</time>
      </trkpt>
      <trkpt lat="42.45505" lon="2.8528">
        <ele>342.20001220703</ele>
        <time>2023-07-13T04:36:38.000Z</time>
      </trkpt>
      <trkpt lat="42.45505" lon="2.85276">
        <ele>343</ele>
        <time>2023-07-13T04:36:43.000Z</time>
      </trkpt>
      <trkpt lat="42.45505" lon="2.85274">
        <ele>343.39999389648</ele>
        <time>2023-07-13T04:36:45.000Z</time>
      </trkpt>
      <trkpt lat="42.45506" lon="2.85271">
        <ele>344.39999389648</ele>
        <time>2023-07-13T04:36:50.000Z</time>
      </trkpt>
      <trkpt lat="42.45508" lon="2.85265">
        <ele>345.39999389648</ele>
        <time>2023-07-13T04:36:55.000Z</time>
      </trkpt>
      <trkpt lat="42.45508" lon="2.85264">
        <ele>345.60000610352</ele>
        <time>2023-07-13T04:36:56.000Z</time>
      </trkpt>
      <trkpt lat="42.45511" lon="2.85257">
        <ele>346.60000610352</ele>
        <time>2023-07-13T04:37:03.000Z</time>
      </trkpt>
      <trkpt lat="42.45512" lon="2.85257">
        <ele>346.60000610352</ele>
        <time>2023-07-13T04:37:04.000Z</time>
      </trkpt>
      <trkpt lat="42.45512" lon="2.85255">
        <ele>347.20001220703</ele>
        <time>2023-07-13T04:37:10.000Z</time>
      </trkpt>
      <trkpt lat="42.45514" lon="2.8525">
        <ele>347.39999389648</ele>
        <time>2023-07-13T04:37:17.000Z</time>
      </trkpt>
      <trkpt lat="42.45521" lon="2.85239">
        <ele>347.20001220703</ele>
        <time>2023-07-13T04:37:26.000Z</time>
      </trkpt>
      <trkpt lat="42.45524" lon="2.8523">
        <ele>347.20001220703</ele>
        <time>2023-07-13T04:37:33.000Z</time>
      </trkpt>
      <trkpt lat="42.45526" lon="2.85225">
        <ele>347.60000610352</ele>
        <time>2023-07-13T04:37:38.000Z</time>
      </trkpt>
      <trkpt lat="42.45527" lon="2.85224">
        <ele>347.79998779297</ele>
        <time>2023-07-13T04:37:40.000Z</time>
      </trkpt>
      <trkpt lat="42.45531" lon="2.85214">
        <ele>349</ele>
        <time>2023-07-13T04:37:49.000Z</time>
      </trkpt>
      <trkpt lat="42.45534" lon="2.85208">
        <ele>350.20001220703</ele>
        <time>2023-07-13T04:37:55.000Z</time>
      </trkpt>
      <trkpt lat="42.45536" lon="2.85206">
        <ele>351.20001220703</ele>
        <time>2023-07-13T04:38:00.000Z</time>
      </trkpt>
      <trkpt lat="42.45538" lon="2.85205">
        <ele>351.60000610352</ele>
        <time>2023-07-13T04:38:02.000Z</time>
      </trkpt>
      <trkpt lat="42.45539" lon="2.85201">
        <ele>352.20001220703</ele>
        <time>2023-07-13T04:38:06.000Z</time>
      </trkpt>
      <trkpt lat="42.45541" lon="2.85196">
        <ele>353</ele>
        <time>2023-07-13T04:38:10.000Z</time>
      </trkpt>
      <trkpt lat="42.45543" lon="2.85192">
        <ele>353.20001220703</ele>
        <time>2023-07-13T04:38:15.000Z</time>
      </trkpt>
      <trkpt lat="42.45545" lon="2.85188">
        <ele>353.79998779297</ele>
        <time>2023-07-13T04:38:18.000Z</time>
      </trkpt>
      <trkpt lat="42.45547" lon="2.85182">
        <ele>354.60000610352</ele>
        <time>2023-07-13T04:38:23.000Z</time>
      </trkpt>
      <trkpt lat="42.45548" lon="2.85176">
        <ele>355</ele>
        <time>2023-07-13T04:38:29.000Z</time>
      </trkpt>
      <trkpt lat="42.45549" lon="2.85173">
        <ele>355.60000610352</ele>
        <time>2023-07-13T04:38:31.000Z</time>
      </trkpt>
      <trkpt lat="42.45551" lon="2.85169">
        <ele>355.60000610352</ele>
        <time>2023-07-13T04:38:34.000Z</time>
      </trkpt>
      <trkpt lat="42.45556" lon="2.85159">
        <ele>356.60000610352</ele>
        <time>2023-07-13T04:38:43.000Z</time>
      </trkpt>
      <trkpt lat="42.45557" lon="2.85149">
        <ele>357.79998779297</ele>
        <time>2023-07-13T04:38:51.000Z</time>
      </trkpt>
      <trkpt lat="42.45557" lon="2.85148">
        <ele>358</ele>
        <time>2023-07-13T04:38:52.000Z</time>
      </trkpt>
      <trkpt lat="42.45558" lon="2.85138">
        <ele>358.79998779297</ele>
        <time>2023-07-13T04:39:00.000Z</time>
      </trkpt>
      <trkpt lat="42.45564" lon="2.85129">
        <ele>358.60000610352</ele>
        <time>2023-07-13T04:39:07.000Z</time>
      </trkpt>
      <trkpt lat="42.45569" lon="2.85121">
        <ele>358.60000610352</ele>
        <time>2023-07-13T04:39:15.000Z</time>
      </trkpt>
      <trkpt lat="42.45571" lon="2.85112">
        <ele>358.60000610352</ele>
        <time>2023-07-13T04:39:22.000Z</time>
      </trkpt>
      <trkpt lat="42.45573" lon="2.85099">
        <ele>359.39999389648</ele>
        <time>2023-07-13T04:39:31.000Z</time>
      </trkpt>
      <trkpt lat="42.45573" lon="2.85096">
        <ele>359.79998779297</ele>
        <time>2023-07-13T04:39:33.000Z</time>
      </trkpt>
      <trkpt lat="42.45573" lon="2.85089">
        <ele>360.20001220703</ele>
        <time>2023-07-13T04:39:38.000Z</time>
      </trkpt>
      <trkpt lat="42.45573" lon="2.85086">
        <ele>360.79998779297</ele>
        <time>2023-07-13T04:39:43.000Z</time>
      </trkpt>
      <trkpt lat="42.45574" lon="2.85085">
        <ele>361.20001220703</ele>
        <time>2023-07-13T04:39:45.000Z</time>
      </trkpt>
      <trkpt lat="42.45577" lon="2.85082">
        <ele>362</ele>
        <time>2023-07-13T04:39:49.000Z</time>
      </trkpt>
      <trkpt lat="42.4558" lon="2.85081">
        <ele>362.79998779297</ele>
        <time>2023-07-13T04:39:53.000Z</time>
      </trkpt>
      <trkpt lat="42.45582" lon="2.8508">
        <ele>363</ele>
        <time>2023-07-13T04:39:55.000Z</time>
      </trkpt>
      <trkpt lat="42.45585" lon="2.85078">
        <ele>364</ele>
        <time>2023-07-13T04:39:59.000Z</time>
      </trkpt>
      <trkpt lat="42.45585" lon="2.85076">
        <ele>364.39999389648</ele>
        <time>2023-07-13T04:40:01.000Z</time>
      </trkpt>
      <trkpt lat="42.4559" lon="2.85064">
        <ele>364.60000610352</ele>
        <time>2023-07-13T04:40:08.000Z</time>
      </trkpt>
      <trkpt lat="42.45592" lon="2.85056">
        <ele>364.60000610352</ele>
        <time>2023-07-13T04:40:14.000Z</time>
      </trkpt>
      <trkpt lat="42.45594" lon="2.8505">
        <ele>365</ele>
        <time>2023-07-13T04:40:21.000Z</time>
      </trkpt>
      <trkpt lat="42.45594" lon="2.85048">
        <ele>365.20001220703</ele>
        <time>2023-07-13T04:40:22.000Z</time>
      </trkpt>
      <trkpt lat="42.45596" lon="2.85042">
        <ele>366.20001220703</ele>
        <time>2023-07-13T04:40:27.000Z</time>
      </trkpt>
      <trkpt lat="42.45598" lon="2.85039">
        <ele>366.60000610352</ele>
        <time>2023-07-13T04:40:30.000Z</time>
      </trkpt>
      <trkpt lat="42.45601" lon="2.85037">
        <ele>367.39999389648</ele>
        <time>2023-07-13T04:40:34.000Z</time>
      </trkpt>
      <trkpt lat="42.45603" lon="2.85034">
        <ele>368.79998779297</ele>
        <time>2023-07-13T04:40:38.000Z</time>
      </trkpt>
      <trkpt lat="42.45606" lon="2.85029">
        <ele>369.79998779297</ele>
        <time>2023-07-13T04:40:44.000Z</time>
      </trkpt>
      <trkpt lat="42.45608" lon="2.85027">
        <ele>370</ele>
        <time>2023-07-13T04:40:46.000Z</time>
      </trkpt>
      <trkpt lat="42.45609" lon="2.85025">
        <ele>370.79998779297</ele>
        <time>2023-07-13T04:40:49.000Z</time>
      </trkpt>
      <trkpt lat="42.45611" lon="2.85016">
        <ele>371.79998779297</ele>
        <time>2023-07-13T04:40:55.000Z</time>
      </trkpt>
      <trkpt lat="42.45615" lon="2.85007">
        <ele>371.60000610352</ele>
        <time>2023-07-13T04:41:03.000Z</time>
      </trkpt>
      <trkpt lat="42.45618" lon="2.84998">
        <ele>370.20001220703</ele>
        <time>2023-07-13T04:41:11.000Z</time>
      </trkpt>
      <trkpt lat="42.45619" lon="2.84994">
        <ele>369.79998779297</ele>
        <time>2023-07-13T04:41:13.000Z</time>
      </trkpt>
      <trkpt lat="42.45622" lon="2.84987">
        <ele>369.79998779297</ele>
        <time>2023-07-13T04:41:20.000Z</time>
      </trkpt>
      <trkpt lat="42.45628" lon="2.84979">
        <ele>370.39999389648</ele>
        <time>2023-07-13T04:41:27.000Z</time>
      </trkpt>
      <trkpt lat="42.45635" lon="2.84968">
        <ele>370.79998779297</ele>
        <time>2023-07-13T04:41:35.000Z</time>
      </trkpt>
      <trkpt lat="42.45635" lon="2.84967">
        <ele>370.79998779297</ele>
        <time>2023-07-13T04:41:36.000Z</time>
      </trkpt>
      <trkpt lat="42.45639" lon="2.84961">
        <ele>371.79998779297</ele>
        <time>2023-07-13T04:41:43.000Z</time>
      </trkpt>
      <trkpt lat="42.4564" lon="2.8496">
        <ele>372</ele>
        <time>2023-07-13T04:41:44.000Z</time>
      </trkpt>
      <trkpt lat="42.45642" lon="2.84952">
        <ele>373</ele>
        <time>2023-07-13T04:41:52.000Z</time>
      </trkpt>
      <trkpt lat="42.45642" lon="2.84949">
        <ele>373</ele>
        <time>2023-07-13T04:41:54.000Z</time>
      </trkpt>
      <trkpt lat="42.45643" lon="2.84945">
        <ele>374.20001220703</ele>
        <time>2023-07-13T04:41:58.000Z</time>
      </trkpt>
      <trkpt lat="42.45643" lon="2.84941">
        <ele>374.79998779297</ele>
        <time>2023-07-13T04:42:01.000Z</time>
      </trkpt>
      <trkpt lat="42.45644" lon="2.84937">
        <ele>375.20001220703</ele>
        <time>2023-07-13T04:42:06.000Z</time>
      </trkpt>
      <trkpt lat="42.45645" lon="2.84934">
        <ele>375.60000610352</ele>
        <time>2023-07-13T04:42:08.000Z</time>
      </trkpt>
      <trkpt lat="42.45645" lon="2.84932">
        <ele>376.20001220703</ele>
        <time>2023-07-13T04:42:12.000Z</time>
      </trkpt>
      <trkpt lat="42.45646" lon="2.8493">
        <ele>377.20001220703</ele>
        <time>2023-07-13T04:42:15.000Z</time>
      </trkpt>
      <trkpt lat="42.45646" lon="2.8493">
        <ele>377.60000610352</ele>
        <time>2023-07-13T04:42:16.000Z</time>
      </trkpt>
      <trkpt lat="42.45653" lon="2.84922">
        <ele>377.20001220703</ele>
        <time>2023-07-13T04:42:24.000Z</time>
      </trkpt>
      <trkpt lat="42.45661" lon="2.84915">
        <ele>376.60000610352</ele>
        <time>2023-07-13T04:42:32.000Z</time>
      </trkpt>
      <trkpt lat="42.45669" lon="2.84907">
        <ele>376.79998779297</ele>
        <time>2023-07-13T04:42:41.000Z</time>
      </trkpt>
      <trkpt lat="42.45671" lon="2.849">
        <ele>377.79998779297</ele>
        <time>2023-07-13T04:42:48.000Z</time>
      </trkpt>
      <trkpt lat="42.45677" lon="2.84892">
        <ele>378.39999389648</ele>
        <time>2023-07-13T04:42:56.000Z</time>
      </trkpt>
      <trkpt lat="42.45678" lon="2.8489">
        <ele>378.60000610352</ele>
        <time>2023-07-13T04:42:58.000Z</time>
      </trkpt>
      <trkpt lat="42.45679" lon="2.84884">
        <ele>379.60000610352</ele>
        <time>2023-07-13T04:43:04.000Z</time>
      </trkpt>
      <trkpt lat="42.45679" lon="2.84883">
        <ele>379.79998779297</ele>
        <time>2023-07-13T04:43:05.000Z</time>
      </trkpt>
      <trkpt lat="42.45678" lon="2.84884">
        <ele>380.20001220703</ele>
        <time>2023-07-13T04:43:08.000Z</time>
      </trkpt>
      <trkpt lat="42.45679" lon="2.84883">
        <ele>380.39999389648</ele>
        <time>2023-07-13T04:43:12.000Z</time>
      </trkpt>
      <trkpt lat="42.45681" lon="2.84882">
        <ele>380.39999389648</ele>
        <time>2023-07-13T04:43:14.000Z</time>
      </trkpt>
      <trkpt lat="42.45684" lon="2.84879">
        <ele>379.60000610352</ele>
        <time>2023-07-13T04:43:20.000Z</time>
      </trkpt>
      <trkpt lat="42.45683" lon="2.8488">
        <ele>379</ele>
        <time>2023-07-13T04:43:30.000Z</time>
      </trkpt>
      <trkpt lat="42.45687" lon="2.84874">
        <ele>378.79998779297</ele>
        <time>2023-07-13T04:43:37.000Z</time>
      </trkpt>
      <trkpt lat="42.45692" lon="2.84867">
        <ele>379.60000610352</ele>
        <time>2023-07-13T04:43:45.000Z</time>
      </trkpt>
      <trkpt lat="42.45694" lon="2.84862">
        <ele>380.79998779297</ele>
        <time>2023-07-13T04:43:53.000Z</time>
      </trkpt>
      <trkpt lat="42.45695" lon="2.84862">
        <ele>381</ele>
        <time>2023-07-13T04:43:54.000Z</time>
      </trkpt>
      <trkpt lat="42.45697" lon="2.84859">
        <ele>381.79998779297</ele>
        <time>2023-07-13T04:43:57.000Z</time>
      </trkpt>
      <trkpt lat="42.45699" lon="2.84853">
        <ele>383.20001220703</ele>
        <time>2023-07-13T04:44:02.000Z</time>
      </trkpt>
      <trkpt lat="42.45699" lon="2.84845">
        <ele>384</ele>
        <time>2023-07-13T04:44:10.000Z</time>
      </trkpt>
      <trkpt lat="42.45698" lon="2.84844">
        <ele>384.20001220703</ele>
        <time>2023-07-13T04:44:11.000Z</time>
      </trkpt>
      <trkpt lat="42.45697" lon="2.84844">
        <ele>385.79998779297</ele>
        <time>2023-07-13T04:44:16.000Z</time>
      </trkpt>
      <trkpt lat="42.45696" lon="2.84842">
        <ele>385.79998779297</ele>
        <time>2023-07-13T04:44:18.000Z</time>
      </trkpt>
      <trkpt lat="42.45695" lon="2.84838">
        <ele>387.20001220703</ele>
        <time>2023-07-13T04:44:22.000Z</time>
      </trkpt>
      <trkpt lat="42.45693" lon="2.84834">
        <ele>388.20001220703</ele>
        <time>2023-07-13T04:44:27.000Z</time>
      </trkpt>
      <trkpt lat="42.45692" lon="2.84831">
        <ele>389.20001220703</ele>
        <time>2023-07-13T04:44:33.000Z</time>
      </trkpt>
      <trkpt lat="42.45693" lon="2.84831">
        <ele>389.79998779297</ele>
        <time>2023-07-13T04:44:36.000Z</time>
      </trkpt>
      <trkpt lat="42.45694" lon="2.84829">
        <ele>390.79998779297</ele>
        <time>2023-07-13T04:44:40.000Z</time>
      </trkpt>
      <trkpt lat="42.45697" lon="2.84826">
        <ele>391.60000610352</ele>
        <time>2023-07-13T04:44:45.000Z</time>
      </trkpt>
      <trkpt lat="42.45698" lon="2.84826">
        <ele>392</ele>
        <time>2023-07-13T04:44:47.000Z</time>
      </trkpt>
      <trkpt lat="42.45701" lon="2.84823">
        <ele>393</ele>
        <time>2023-07-13T04:44:52.000Z</time>
      </trkpt>
      <trkpt lat="42.45703" lon="2.84816">
        <ele>393.39999389648</ele>
        <time>2023-07-13T04:45:00.000Z</time>
      </trkpt>
      <trkpt lat="42.45703" lon="2.84814">
        <ele>394</ele>
        <time>2023-07-13T04:45:03.000Z</time>
      </trkpt>
      <trkpt lat="42.45707" lon="2.84807">
        <ele>395.20001220703</ele>
        <time>2023-07-13T04:45:10.000Z</time>
      </trkpt>
      <trkpt lat="42.45707" lon="2.84805">
        <ele>396.20001220703</ele>
        <time>2023-07-13T04:45:15.000Z</time>
      </trkpt>
      <trkpt lat="42.45707" lon="2.84804">
        <ele>396.39999389648</ele>
        <time>2023-07-13T04:45:17.000Z</time>
      </trkpt>
      <trkpt lat="42.45706" lon="2.84798">
        <ele>397.39999389648</ele>
        <time>2023-07-13T04:45:23.000Z</time>
      </trkpt>
      <trkpt lat="42.45705" lon="2.84795">
        <ele>397.39999389648</ele>
        <time>2023-07-13T04:45:25.000Z</time>
      </trkpt>
      <trkpt lat="42.45703" lon="2.84794">
        <ele>398.60000610352</ele>
        <time>2023-07-13T04:45:30.000Z</time>
      </trkpt>
      <trkpt lat="42.45703" lon="2.84792">
        <ele>398.79998779297</ele>
        <time>2023-07-13T04:45:33.000Z</time>
      </trkpt>
      <trkpt lat="42.45704" lon="2.84786">
        <ele>399.60000610352</ele>
        <time>2023-07-13T04:45:38.000Z</time>
      </trkpt>
      <trkpt lat="42.45706" lon="2.84781">
        <ele>399.79998779297</ele>
        <time>2023-07-13T04:45:42.000Z</time>
      </trkpt>
      <trkpt lat="42.45712" lon="2.84769">
        <ele>400</ele>
        <time>2023-07-13T04:45:51.000Z</time>
      </trkpt>
      <trkpt lat="42.45709" lon="2.84759">
        <ele>399.60000610352</ele>
        <time>2023-07-13T04:45:58.000Z</time>
      </trkpt>
      <trkpt lat="42.45703" lon="2.8475">
        <ele>399.39999389648</ele>
        <time>2023-07-13T04:46:05.000Z</time>
      </trkpt>
      <trkpt lat="42.457" lon="2.84742">
        <ele>399.60000610352</ele>
        <time>2023-07-13T04:46:12.000Z</time>
      </trkpt>
      <trkpt lat="42.45695" lon="2.84731">
        <ele>398.39999389648</ele>
        <time>2023-07-13T04:46:20.000Z</time>
      </trkpt>
      <trkpt lat="42.45694" lon="2.84719">
        <ele>397.39999389648</ele>
        <time>2023-07-13T04:46:27.000Z</time>
      </trkpt>
      <trkpt lat="42.45694" lon="2.84717">
        <ele>397.39999389648</ele>
        <time>2023-07-13T04:46:28.000Z</time>
      </trkpt>
      <trkpt lat="42.45696" lon="2.84708">
        <ele>397.20001220703</ele>
        <time>2023-07-13T04:46:35.000Z</time>
      </trkpt>
      <trkpt lat="42.45698" lon="2.84692">
        <ele>396.79998779297</ele>
        <time>2023-07-13T04:46:43.000Z</time>
      </trkpt>
      <trkpt lat="42.45698" lon="2.84689">
        <ele>396.39999389648</ele>
        <time>2023-07-13T04:46:45.000Z</time>
      </trkpt>
      <trkpt lat="42.457" lon="2.84684">
        <ele>396.39999389648</ele>
        <time>2023-07-13T04:46:49.000Z</time>
      </trkpt>
      <trkpt lat="42.45702" lon="2.84674">
        <ele>396.39999389648</ele>
        <time>2023-07-13T04:46:55.000Z</time>
      </trkpt>
      <trkpt lat="42.45703" lon="2.84666">
        <ele>396.79998779297</ele>
        <time>2023-07-13T04:47:01.000Z</time>
      </trkpt>
      <trkpt lat="42.45704" lon="2.8466">
        <ele>397.39999389648</ele>
        <time>2023-07-13T04:47:06.000Z</time>
      </trkpt>
      <trkpt lat="42.45706" lon="2.84655">
        <ele>398.20001220703</ele>
        <time>2023-07-13T04:47:12.000Z</time>
      </trkpt>
      <trkpt lat="42.45706" lon="2.84652">
        <ele>398.60000610352</ele>
        <time>2023-07-13T04:47:14.000Z</time>
      </trkpt>
      <trkpt lat="42.45706" lon="2.84648">
        <ele>399.39999389648</ele>
        <time>2023-07-13T04:47:18.000Z</time>
      </trkpt>
      <trkpt lat="42.45706" lon="2.84647">
        <ele>399.79998779297</ele>
        <time>2023-07-13T04:47:20.000Z</time>
      </trkpt>
      <trkpt lat="42.45706" lon="2.84644">
        <ele>400.20001220703</ele>
        <time>2023-07-13T04:47:23.000Z</time>
      </trkpt>
      <trkpt lat="42.45705" lon="2.84638">
        <ele>400.79998779297</ele>
        <time>2023-07-13T04:47:28.000Z</time>
      </trkpt>
      <trkpt lat="42.45704" lon="2.84631">
        <ele>402</ele>
        <time>2023-07-13T04:47:33.000Z</time>
      </trkpt>
      <trkpt lat="42.45704" lon="2.84631">
        <ele>402.20001220703</ele>
        <time>2023-07-13T04:47:34.000Z</time>
      </trkpt>
      <trkpt lat="42.45705" lon="2.84631">
        <ele>403.20001220703</ele>
        <time>2023-07-13T04:47:39.000Z</time>
      </trkpt>
      <trkpt lat="42.45705" lon="2.8463">
        <ele>403.79998779297</ele>
        <time>2023-07-13T04:47:41.000Z</time>
      </trkpt>
      <trkpt lat="42.45706" lon="2.84627">
        <ele>404.20001220703</ele>
        <time>2023-07-13T04:47:45.000Z</time>
      </trkpt>
      <trkpt lat="42.45706" lon="2.84623">
        <ele>405.39999389648</ele>
        <time>2023-07-13T04:47:50.000Z</time>
      </trkpt>
      <trkpt lat="42.45706" lon="2.84622">
        <ele>405.60000610352</ele>
        <time>2023-07-13T04:47:51.000Z</time>
      </trkpt>
      <trkpt lat="42.45707" lon="2.84616">
        <ele>406.39999389648</ele>
        <time>2023-07-13T04:47:56.000Z</time>
      </trkpt>
      <trkpt lat="42.45707" lon="2.8461">
        <ele>407</ele>
        <time>2023-07-13T04:47:59.000Z</time>
      </trkpt>
      <trkpt lat="42.45707" lon="2.84608">
        <ele>407.60000610352</ele>
        <time>2023-07-13T04:48:02.000Z</time>
      </trkpt>
      <trkpt lat="42.45708" lon="2.84607">
        <ele>408.20001220703</ele>
        <time>2023-07-13T04:48:06.000Z</time>
      </trkpt>
      <trkpt lat="42.45709" lon="2.84608">
        <ele>408.60000610352</ele>
        <time>2023-07-13T04:48:08.000Z</time>
      </trkpt>
      <trkpt lat="42.45713" lon="2.84604">
        <ele>409.20001220703</ele>
        <time>2023-07-13T04:48:13.000Z</time>
      </trkpt>
      <trkpt lat="42.45714" lon="2.84603">
        <ele>409.60000610352</ele>
        <time>2023-07-13T04:48:17.000Z</time>
      </trkpt>
      <trkpt lat="42.45714" lon="2.84602">
        <ele>410.20001220703</ele>
        <time>2023-07-13T04:48:20.000Z</time>
      </trkpt>
      <trkpt lat="42.45715" lon="2.84601">
        <ele>410.79998779297</ele>
        <time>2023-07-13T04:48:24.000Z</time>
      </trkpt>
      <trkpt lat="42.45716" lon="2.84601">
        <ele>411.39999389648</ele>
        <time>2023-07-13T04:48:28.000Z</time>
      </trkpt>
      <trkpt lat="42.45717" lon="2.84601">
        <ele>411.79998779297</ele>
        <time>2023-07-13T04:48:31.000Z</time>
      </trkpt>
      <trkpt lat="42.45719" lon="2.84599">
        <ele>412.39999389648</ele>
        <time>2023-07-13T04:48:35.000Z</time>
      </trkpt>
      <trkpt lat="42.4572" lon="2.84597">
        <ele>413</ele>
        <time>2023-07-13T04:48:38.000Z</time>
      </trkpt>
      <trkpt lat="42.45722" lon="2.84594">
        <ele>413.60000610352</ele>
        <time>2023-07-13T04:48:43.000Z</time>
      </trkpt>
      <trkpt lat="42.45722" lon="2.84593">
        <ele>414.20001220703</ele>
        <time>2023-07-13T04:48:45.000Z</time>
      </trkpt>
      <trkpt lat="42.45725" lon="2.84586">
        <ele>415</ele>
        <time>2023-07-13T04:48:52.000Z</time>
      </trkpt>
      <trkpt lat="42.45725" lon="2.84585">
        <ele>415.39999389648</ele>
        <time>2023-07-13T04:48:53.000Z</time>
      </trkpt>
      <trkpt lat="42.45725" lon="2.84583">
        <ele>416.60000610352</ele>
        <time>2023-07-13T04:48:56.000Z</time>
      </trkpt>
      <trkpt lat="42.45726" lon="2.84579">
        <ele>417.20001220703</ele>
        <time>2023-07-13T04:49:01.000Z</time>
      </trkpt>
      <trkpt lat="42.45726" lon="2.84576">
        <ele>417.60000610352</ele>
        <time>2023-07-13T04:49:05.000Z</time>
      </trkpt>
      <trkpt lat="42.45727" lon="2.84574">
        <ele>418.20001220703</ele>
        <time>2023-07-13T04:49:09.000Z</time>
      </trkpt>
      <trkpt lat="42.45729" lon="2.84571">
        <ele>418.60000610352</ele>
        <time>2023-07-13T04:49:11.000Z</time>
      </trkpt>
      <trkpt lat="42.4573" lon="2.84569">
        <ele>419.39999389648</ele>
        <time>2023-07-13T04:49:16.000Z</time>
      </trkpt>
      <trkpt lat="42.4573" lon="2.84568">
        <ele>419.79998779297</ele>
        <time>2023-07-13T04:49:18.000Z</time>
      </trkpt>
      <trkpt lat="42.45731" lon="2.84568">
        <ele>421</ele>
        <time>2023-07-13T04:49:21.000Z</time>
      </trkpt>
      <trkpt lat="42.45733" lon="2.84564">
        <ele>421.60000610352</ele>
        <time>2023-07-13T04:49:25.000Z</time>
      </trkpt>
      <trkpt lat="42.45735" lon="2.84561">
        <ele>422</ele>
        <time>2023-07-13T04:49:28.000Z</time>
      </trkpt>
      <trkpt lat="42.45736" lon="2.84559">
        <ele>422.79998779297</ele>
        <time>2023-07-13T04:49:33.000Z</time>
      </trkpt>
      <trkpt lat="42.45737" lon="2.84558">
        <ele>423</ele>
        <time>2023-07-13T04:49:34.000Z</time>
      </trkpt>
      <trkpt lat="42.45738" lon="2.84555">
        <ele>423.79998779297</ele>
        <time>2023-07-13T04:49:40.000Z</time>
      </trkpt>
      <trkpt lat="42.45738" lon="2.84554">
        <ele>424</ele>
        <time>2023-07-13T04:49:42.000Z</time>
      </trkpt>
      <trkpt lat="42.45741" lon="2.8455">
        <ele>425</ele>
        <time>2023-07-13T04:49:47.000Z</time>
      </trkpt>
      <trkpt lat="42.45741" lon="2.84549">
        <ele>425.20001220703</ele>
        <time>2023-07-13T04:49:48.000Z</time>
      </trkpt>
      <trkpt lat="42.45741" lon="2.84546">
        <ele>426.39999389648</ele>
        <time>2023-07-13T04:49:54.000Z</time>
      </trkpt>
      <trkpt lat="42.45742" lon="2.84545">
        <ele>427.60000610352</ele>
        <time>2023-07-13T04:49:59.000Z</time>
      </trkpt>
      <trkpt lat="42.45746" lon="2.84543">
        <ele>428.79998779297</ele>
        <time>2023-07-13T04:50:05.000Z</time>
      </trkpt>
      <trkpt lat="42.45746" lon="2.84542">
        <ele>429</ele>
        <time>2023-07-13T04:50:06.000Z</time>
      </trkpt>
      <trkpt lat="42.45747" lon="2.84542">
        <ele>429.79998779297</ele>
        <time>2023-07-13T04:50:09.000Z</time>
      </trkpt>
      <trkpt lat="42.4575" lon="2.84538">
        <ele>430.60000610352</ele>
        <time>2023-07-13T04:50:15.000Z</time>
      </trkpt>
      <trkpt lat="42.45751" lon="2.84537">
        <ele>430.79998779297</ele>
        <time>2023-07-13T04:50:16.000Z</time>
      </trkpt>
      <trkpt lat="42.45749" lon="2.84532">
        <ele>431.60000610352</ele>
        <time>2023-07-13T04:50:22.000Z</time>
      </trkpt>
      <trkpt lat="42.45749" lon="2.84531">
        <ele>431.79998779297</ele>
        <time>2023-07-13T04:50:23.000Z</time>
      </trkpt>
      <trkpt lat="42.45749" lon="2.84526">
        <ele>433</ele>
        <time>2023-07-13T04:50:32.000Z</time>
      </trkpt>
      <trkpt lat="42.45752" lon="2.84521">
        <ele>434.20001220703</ele>
        <time>2023-07-13T04:50:39.000Z</time>
      </trkpt>
      <trkpt lat="42.45759" lon="2.84514">
        <ele>435.39999389648</ele>
        <time>2023-07-13T04:50:48.000Z</time>
      </trkpt>
      <trkpt lat="42.45762" lon="2.84509">
        <ele>435.79998779297</ele>
        <time>2023-07-13T04:50:54.000Z</time>
      </trkpt>
      <trkpt lat="42.45764" lon="2.84502">
        <ele>436.39999389648</ele>
        <time>2023-07-13T04:50:59.000Z</time>
      </trkpt>
      <trkpt lat="42.45766" lon="2.84497">
        <ele>437</ele>
        <time>2023-07-13T04:51:02.000Z</time>
      </trkpt>
      <trkpt lat="42.45767" lon="2.84495">
        <ele>437.39999389648</ele>
        <time>2023-07-13T04:51:08.000Z</time>
      </trkpt>
      <trkpt lat="42.45768" lon="2.84495">
        <ele>437.79998779297</ele>
        <time>2023-07-13T04:51:10.000Z</time>
      </trkpt>
      <trkpt lat="42.45768" lon="2.84495">
        <ele>438</ele>
        <time>2023-07-13T04:51:11.000Z</time>
      </trkpt>
      <trkpt lat="42.4577" lon="2.84494">
        <ele>438.60000610352</ele>
        <time>2023-07-13T04:51:14.000Z</time>
      </trkpt>
      <trkpt lat="42.45774" lon="2.84492">
        <ele>439.20001220703</ele>
        <time>2023-07-13T04:51:17.000Z</time>
      </trkpt>
      <trkpt lat="42.45778" lon="2.84491">
        <ele>439.79998779297</ele>
        <time>2023-07-13T04:51:21.000Z</time>
      </trkpt>
      <trkpt lat="42.45811" lon="2.84494">
        <ele>441.60000610352</ele>
        <time>2023-07-13T04:51:49.000Z</time>
      </trkpt>
      <trkpt lat="42.45812" lon="2.84491">
        <ele>442</ele>
        <time>2023-07-13T04:51:51.000Z</time>
      </trkpt>
      <trkpt lat="42.45811" lon="2.84486">
        <ele>442.20001220703</ele>
        <time>2023-07-13T04:51:55.000Z</time>
      </trkpt>
      <trkpt lat="42.45813" lon="2.8448">
        <ele>443.20001220703</ele>
        <time>2023-07-13T04:52:00.000Z</time>
      </trkpt>
      <trkpt lat="42.45814" lon="2.84478">
        <ele>443.60000610352</ele>
        <time>2023-07-13T04:52:02.000Z</time>
      </trkpt>
      <trkpt lat="42.45813" lon="2.84472">
        <ele>444.39999389648</ele>
        <time>2023-07-13T04:52:08.000Z</time>
      </trkpt>
      <trkpt lat="42.45813" lon="2.84471">
        <ele>444.60000610352</ele>
        <time>2023-07-13T04:52:09.000Z</time>
      </trkpt>
      <trkpt lat="42.45814" lon="2.84466">
        <ele>445.39999389648</ele>
        <time>2023-07-13T04:52:15.000Z</time>
      </trkpt>
      <trkpt lat="42.45814" lon="2.84461">
        <ele>446.60000610352</ele>
        <time>2023-07-13T04:52:19.000Z</time>
      </trkpt>
      <trkpt lat="42.45814" lon="2.84461">
        <ele>446.60000610352</ele>
        <time>2023-07-13T04:52:20.000Z</time>
      </trkpt>
      <trkpt lat="42.45817" lon="2.84451">
        <ele>447.60000610352</ele>
        <time>2023-07-13T04:52:27.000Z</time>
      </trkpt>
      <trkpt lat="42.45817" lon="2.84449">
        <ele>447.79998779297</ele>
        <time>2023-07-13T04:52:28.000Z</time>
      </trkpt>
      <trkpt lat="42.45819" lon="2.84446">
        <ele>448.79998779297</ele>
        <time>2023-07-13T04:52:35.000Z</time>
      </trkpt>
      <trkpt lat="42.45819" lon="2.84445">
        <ele>449</ele>
        <time>2023-07-13T04:52:36.000Z</time>
      </trkpt>
      <trkpt lat="42.4582" lon="2.84441">
        <ele>450</ele>
        <time>2023-07-13T04:52:42.000Z</time>
      </trkpt>
      <trkpt lat="42.45821" lon="2.8444">
        <ele>450.39999389648</ele>
        <time>2023-07-13T04:52:43.000Z</time>
      </trkpt>
      <trkpt lat="42.45825" lon="2.8443">
        <ele>450.60000610352</ele>
        <time>2023-07-13T04:52:52.000Z</time>
      </trkpt>
      <trkpt lat="42.45826" lon="2.84423">
        <ele>451.20001220703</ele>
        <time>2023-07-13T04:52:59.000Z</time>
      </trkpt>
      <trkpt lat="42.45825" lon="2.84419">
        <ele>452.39999389648</ele>
        <time>2023-07-13T04:53:03.000Z</time>
      </trkpt>
      <trkpt lat="42.45824" lon="2.84417">
        <ele>453</ele>
        <time>2023-07-13T04:53:06.000Z</time>
      </trkpt>
      <trkpt lat="42.45824" lon="2.84416">
        <ele>453.60000610352</ele>
        <time>2023-07-13T04:53:07.000Z</time>
      </trkpt>
      <trkpt lat="42.45821" lon="2.84406">
        <ele>454.20001220703</ele>
        <time>2023-07-13T04:53:14.000Z</time>
      </trkpt>
      <trkpt lat="42.4582" lon="2.84397">
        <ele>454.79998779297</ele>
        <time>2023-07-13T04:53:21.000Z</time>
      </trkpt>
      <trkpt lat="42.4582" lon="2.84391">
        <ele>455.79998779297</ele>
        <time>2023-07-13T04:53:28.000Z</time>
      </trkpt>
      <trkpt lat="42.4582" lon="2.84388">
        <ele>456.79998779297</ele>
        <time>2023-07-13T04:53:31.000Z</time>
      </trkpt>
      <trkpt lat="42.45821" lon="2.84383">
        <ele>457.39999389648</ele>
        <time>2023-07-13T04:53:37.000Z</time>
      </trkpt>
      <trkpt lat="42.45822" lon="2.84379">
        <ele>458</ele>
        <time>2023-07-13T04:53:40.000Z</time>
      </trkpt>
      <trkpt lat="42.45824" lon="2.84373">
        <ele>459</ele>
        <time>2023-07-13T04:53:46.000Z</time>
      </trkpt>
      <trkpt lat="42.45826" lon="2.84364">
        <ele>460</ele>
        <time>2023-07-13T04:53:54.000Z</time>
      </trkpt>
      <trkpt lat="42.45827" lon="2.84356">
        <ele>461.20001220703</ele>
        <time>2023-07-13T04:54:03.000Z</time>
      </trkpt>
      <trkpt lat="42.45829" lon="2.84353">
        <ele>462.39999389648</ele>
        <time>2023-07-13T04:54:08.000Z</time>
      </trkpt>
      <trkpt lat="42.45832" lon="2.84348">
        <ele>463</ele>
        <time>2023-07-13T04:54:13.000Z</time>
      </trkpt>
      <trkpt lat="42.45832" lon="2.84333">
        <ele>463.20001220703</ele>
        <time>2023-07-13T04:54:22.000Z</time>
      </trkpt>
      <trkpt lat="42.45834" lon="2.84323">
        <ele>463.20001220703</ele>
        <time>2023-07-13T04:54:30.000Z</time>
      </trkpt>
      <trkpt lat="42.45834" lon="2.84322">
        <ele>463.39999389648</ele>
        <time>2023-07-13T04:54:31.000Z</time>
      </trkpt>
      <trkpt lat="42.45834" lon="2.84311">
        <ele>464</ele>
        <time>2023-07-13T04:54:38.000Z</time>
      </trkpt>
      <trkpt lat="42.45834" lon="2.84309">
        <ele>464.39999389648</ele>
        <time>2023-07-13T04:54:40.000Z</time>
      </trkpt>
      <trkpt lat="42.45833" lon="2.84305">
        <ele>464.39999389648</ele>
        <time>2023-07-13T04:54:46.000Z</time>
      </trkpt>
      <trkpt lat="42.45833" lon="2.843">
        <ele>465.39999389648</ele>
        <time>2023-07-13T04:54:52.000Z</time>
      </trkpt>
      <trkpt lat="42.45833" lon="2.84299">
        <ele>465.39999389648</ele>
        <time>2023-07-13T04:55:00.000Z</time>
      </trkpt>
      <trkpt lat="42.45833" lon="2.843">
        <ele>465.39999389648</ele>
        <time>2023-07-13T04:55:07.000Z</time>
      </trkpt>
      <trkpt lat="42.45833" lon="2.84302">
        <ele>465.20001220703</ele>
        <time>2023-07-13T04:55:14.000Z</time>
      </trkpt>
      <trkpt lat="42.45834" lon="2.84302">
        <ele>465.39999389648</ele>
        <time>2023-07-13T04:55:21.000Z</time>
      </trkpt>
      <trkpt lat="42.45834" lon="2.84302">
        <ele>465.39999389648</ele>
        <time>2023-07-13T04:55:22.000Z</time>
      </trkpt>
      <trkpt lat="42.45831" lon="2.84296">
        <ele>465.39999389648</ele>
        <time>2023-07-13T04:55:29.000Z</time>
      </trkpt>
      <trkpt lat="42.45829" lon="2.84288">
        <ele>465.20001220703</ele>
        <time>2023-07-13T04:55:36.000Z</time>
      </trkpt>
      <trkpt lat="42.45831" lon="2.84284">
        <ele>464.60000610352</ele>
        <time>2023-07-13T04:55:42.000Z</time>
      </trkpt>
      <trkpt lat="42.45832" lon="2.84282">
        <ele>464.39999389648</ele>
        <time>2023-07-13T04:55:44.000Z</time>
      </trkpt>
      <trkpt lat="42.45834" lon="2.84276">
        <ele>463.60000610352</ele>
        <time>2023-07-13T04:55:49.000Z</time>
      </trkpt>
      <trkpt lat="42.45834" lon="2.84274">
        <ele>463.39999389648</ele>
        <time>2023-07-13T04:55:50.000Z</time>
      </trkpt>
      <trkpt lat="42.45838" lon="2.84261">
        <ele>462.20001220703</ele>
        <time>2023-07-13T04:55:57.000Z</time>
      </trkpt>
      <trkpt lat="42.45843" lon="2.84248">
        <ele>461.39999389648</ele>
        <time>2023-07-13T04:56:07.000Z</time>
      </trkpt>
      <trkpt lat="42.4585" lon="2.84238">
        <ele>462</ele>
        <time>2023-07-13T04:56:15.000Z</time>
      </trkpt>
      <trkpt lat="42.45853" lon="2.84231">
        <ele>462.79998779297</ele>
        <time>2023-07-13T04:56:23.000Z</time>
      </trkpt>
      <trkpt lat="42.45854" lon="2.84229">
        <ele>463.60000610352</ele>
        <time>2023-07-13T04:56:26.000Z</time>
      </trkpt>
      <trkpt lat="42.45859" lon="2.84223">
        <ele>464.60000610352</ele>
        <time>2023-07-13T04:56:32.000Z</time>
      </trkpt>
      <trkpt lat="42.45861" lon="2.84222">
        <ele>464.79998779297</ele>
        <time>2023-07-13T04:56:35.000Z</time>
      </trkpt>
      <trkpt lat="42.45862" lon="2.84218">
        <ele>465</ele>
        <time>2023-07-13T04:56:40.000Z</time>
      </trkpt>
      <trkpt lat="42.45862" lon="2.84216">
        <ele>466</ele>
        <time>2023-07-13T04:56:43.000Z</time>
      </trkpt>
      <trkpt lat="42.45863" lon="2.84212">
        <ele>467</ele>
        <time>2023-07-13T04:56:49.000Z</time>
      </trkpt>
      <trkpt lat="42.45864" lon="2.84211">
        <ele>467</ele>
        <time>2023-07-13T04:56:50.000Z</time>
      </trkpt>
      <trkpt lat="42.45867" lon="2.84201">
        <ele>468</ele>
        <time>2023-07-13T04:57:00.000Z</time>
      </trkpt>
      <trkpt lat="42.45866" lon="2.84196">
        <ele>469.20001220703</ele>
        <time>2023-07-13T04:57:07.000Z</time>
      </trkpt>
      <trkpt lat="42.45866" lon="2.84194">
        <ele>469.20001220703</ele>
        <time>2023-07-13T04:57:08.000Z</time>
      </trkpt>
      <trkpt lat="42.45866" lon="2.84182">
        <ele>470.20001220703</ele>
        <time>2023-07-13T04:57:18.000Z</time>
      </trkpt>
      <trkpt lat="42.45866" lon="2.84181">
        <ele>470.20001220703</ele>
        <time>2023-07-13T04:57:19.000Z</time>
      </trkpt>
      <trkpt lat="42.45864" lon="2.84172">
        <ele>471.39999389648</ele>
        <time>2023-07-13T04:57:27.000Z</time>
      </trkpt>
      <trkpt lat="42.45866" lon="2.84157">
        <ele>471.39999389648</ele>
        <time>2023-07-13T04:57:37.000Z</time>
      </trkpt>
      <trkpt lat="42.4587" lon="2.84143">
        <ele>471.60000610352</ele>
        <time>2023-07-13T04:57:45.000Z</time>
      </trkpt>
      <trkpt lat="42.45874" lon="2.84137">
        <ele>472</ele>
        <time>2023-07-13T04:57:51.000Z</time>
      </trkpt>
      <trkpt lat="42.45877" lon="2.84129">
        <ele>472.39999389648</ele>
        <time>2023-07-13T04:57:58.000Z</time>
      </trkpt>
      <trkpt lat="42.45877" lon="2.84125">
        <ele>472.60000610352</ele>
        <time>2023-07-13T04:58:00.000Z</time>
      </trkpt>
      <trkpt lat="42.45881" lon="2.84113">
        <ele>473.39999389648</ele>
        <time>2023-07-13T04:58:08.000Z</time>
      </trkpt>
      <trkpt lat="42.45884" lon="2.84102">
        <ele>474.20001220703</ele>
        <time>2023-07-13T04:58:16.000Z</time>
      </trkpt>
      <trkpt lat="42.45885" lon="2.84091">
        <ele>474.20001220703</ele>
        <time>2023-07-13T04:58:22.000Z</time>
      </trkpt>
      <trkpt lat="42.45885" lon="2.84089">
        <ele>474.39999389648</ele>
        <time>2023-07-13T04:58:23.000Z</time>
      </trkpt>
      <trkpt lat="42.45886" lon="2.84083">
        <ele>475.60000610352</ele>
        <time>2023-07-13T04:58:29.000Z</time>
      </trkpt>
      <trkpt lat="42.45886" lon="2.84082">
        <ele>475.79998779297</ele>
        <time>2023-07-13T04:58:30.000Z</time>
      </trkpt>
      <trkpt lat="42.45887" lon="2.84075">
        <ele>476.79998779297</ele>
        <time>2023-07-13T04:58:37.000Z</time>
      </trkpt>
      <trkpt lat="42.45887" lon="2.84072">
        <ele>477.20001220703</ele>
        <time>2023-07-13T04:58:40.000Z</time>
      </trkpt>
      <trkpt lat="42.45887" lon="2.84068">
        <ele>478</ele>
        <time>2023-07-13T04:58:44.000Z</time>
      </trkpt>
      <trkpt lat="42.45888" lon="2.84063">
        <ele>479</ele>
        <time>2023-07-13T04:58:49.000Z</time>
      </trkpt>
      <trkpt lat="42.45888" lon="2.84057">
        <ele>480.20001220703</ele>
        <time>2023-07-13T04:58:56.000Z</time>
      </trkpt>
      <trkpt lat="42.45888" lon="2.84056">
        <ele>480.39999389648</ele>
        <time>2023-07-13T04:58:57.000Z</time>
      </trkpt>
      <trkpt lat="42.45889" lon="2.84052">
        <ele>481.20001220703</ele>
        <time>2023-07-13T04:59:01.000Z</time>
      </trkpt>
      <trkpt lat="42.45889" lon="2.84048">
        <ele>481.39999389648</ele>
        <time>2023-07-13T04:59:04.000Z</time>
      </trkpt>
      <trkpt lat="42.4589" lon="2.84041">
        <ele>482</ele>
        <time>2023-07-13T04:59:14.000Z</time>
      </trkpt>
      <trkpt lat="42.45891" lon="2.84028">
        <ele>481.60000610352</ele>
        <time>2023-07-13T04:59:21.000Z</time>
      </trkpt>
      <trkpt lat="42.45893" lon="2.84023">
        <ele>481.60000610352</ele>
        <time>2023-07-13T04:59:28.000Z</time>
      </trkpt>
      <trkpt lat="42.45898" lon="2.84022">
        <ele>481.60000610352</ele>
        <time>2023-07-13T04:59:48.000Z</time>
      </trkpt>
      <trkpt lat="42.45898" lon="2.84026">
        <ele>481.60000610352</ele>
        <time>2023-07-13T04:59:56.000Z</time>
      </trkpt>
      <trkpt lat="42.45899" lon="2.84029">
        <ele>481.79998779297</ele>
        <time>2023-07-13T05:00:04.000Z</time>
      </trkpt>
      <trkpt lat="42.45899" lon="2.84026">
        <ele>481.79998779297</ele>
        <time>2023-07-13T05:00:14.000Z</time>
      </trkpt>
      <trkpt lat="42.45896" lon="2.84025">
        <ele>481.60000610352</ele>
        <time>2023-07-13T05:00:22.000Z</time>
      </trkpt>
      <trkpt lat="42.45895" lon="2.84025">
        <ele>482</ele>
        <time>2023-07-13T05:00:29.000Z</time>
      </trkpt>
      <trkpt lat="42.45893" lon="2.84023">
        <ele>482</ele>
        <time>2023-07-13T05:00:37.000Z</time>
      </trkpt>
      <trkpt lat="42.45909" lon="2.84014">
        <ele>482.39999389648</ele>
        <time>2023-07-13T05:01:02.000Z</time>
      </trkpt>
      <trkpt lat="42.45908" lon="2.84012">
        <ele>482.60000610352</ele>
        <time>2023-07-13T05:01:04.000Z</time>
      </trkpt>
      <trkpt lat="42.4591" lon="2.84009">
        <ele>483.20001220703</ele>
        <time>2023-07-13T05:01:09.000Z</time>
      </trkpt>
      <trkpt lat="42.45912" lon="2.84007">
        <ele>483.39999389648</ele>
        <time>2023-07-13T05:01:11.000Z</time>
      </trkpt>
      <trkpt lat="42.45915" lon="2.84002">
        <ele>484.39999389648</ele>
        <time>2023-07-13T05:01:17.000Z</time>
      </trkpt>
      <trkpt lat="42.45918" lon="2.83998">
        <ele>485</ele>
        <time>2023-07-13T05:01:20.000Z</time>
      </trkpt>
      <trkpt lat="42.4592" lon="2.83994">
        <ele>485.39999389648</ele>
        <time>2023-07-13T05:01:23.000Z</time>
      </trkpt>
      <trkpt lat="42.4592" lon="2.83989">
        <ele>486.20001220703</ele>
        <time>2023-07-13T05:01:27.000Z</time>
      </trkpt>
      <trkpt lat="42.4592" lon="2.83988">
        <ele>486.39999389648</ele>
        <time>2023-07-13T05:01:28.000Z</time>
      </trkpt>
      <trkpt lat="42.45921" lon="2.83985">
        <ele>487.60000610352</ele>
        <time>2023-07-13T05:01:34.000Z</time>
      </trkpt>
      <trkpt lat="42.45921" lon="2.83984">
        <ele>487.79998779297</ele>
        <time>2023-07-13T05:01:35.000Z</time>
      </trkpt>
      <trkpt lat="42.45921" lon="2.8398">
        <ele>488.20001220703</ele>
        <time>2023-07-13T05:01:43.000Z</time>
      </trkpt>
      <trkpt lat="42.45918" lon="2.83981">
        <ele>488.20001220703</ele>
        <time>2023-07-13T05:01:51.000Z</time>
      </trkpt>
      <trkpt lat="42.45916" lon="2.8398">
        <ele>487.60000610352</ele>
        <time>2023-07-13T05:01:56.000Z</time>
      </trkpt>
      <trkpt lat="42.45914" lon="2.83978">
        <ele>487.39999389648</ele>
        <time>2023-07-13T05:02:04.000Z</time>
      </trkpt>
      <trkpt lat="42.45912" lon="2.83976">
        <ele>486.60000610352</ele>
        <time>2023-07-13T05:02:08.000Z</time>
      </trkpt>
      <trkpt lat="42.45911" lon="2.83976">
        <ele>486.79998779297</ele>
        <time>2023-07-13T05:02:15.000Z</time>
      </trkpt>
      <trkpt lat="42.4591" lon="2.83976">
        <ele>487</ele>
        <time>2023-07-13T05:02:23.000Z</time>
      </trkpt>
      <trkpt lat="42.45909" lon="2.83976">
        <ele>487</ele>
        <time>2023-07-13T05:02:32.000Z</time>
      </trkpt>
      <trkpt lat="42.45909" lon="2.83973">
        <ele>487</ele>
        <time>2023-07-13T05:02:41.000Z</time>
      </trkpt>
      <trkpt lat="42.45911" lon="2.83974">
        <ele>486.79998779297</ele>
        <time>2023-07-13T05:02:48.000Z</time>
      </trkpt>
      <trkpt lat="42.45915" lon="2.83978">
        <ele>487</ele>
        <time>2023-07-13T05:02:58.000Z</time>
      </trkpt>
      <trkpt lat="42.45915" lon="2.83978">
        <ele>486.79998779297</ele>
        <time>2023-07-13T05:03:04.000Z</time>
      </trkpt>
      <trkpt lat="42.45912" lon="2.83975">
        <ele>485.79998779297</ele>
        <time>2023-07-13T05:03:12.000Z</time>
      </trkpt>
      <trkpt lat="42.45908" lon="2.83971">
        <ele>485.60000610352</ele>
        <time>2023-07-13T05:03:19.000Z</time>
      </trkpt>
      <trkpt lat="42.45906" lon="2.83969">
        <ele>485.60000610352</ele>
        <time>2023-07-13T05:03:22.000Z</time>
      </trkpt>
      <trkpt lat="42.45904" lon="2.83967">
        <ele>485.20001220703</ele>
        <time>2023-07-13T05:03:26.000Z</time>
      </trkpt>
      <trkpt lat="42.45901" lon="2.83965">
        <ele>484.60000610352</ele>
        <time>2023-07-13T05:03:29.000Z</time>
      </trkpt>
      <trkpt lat="42.459" lon="2.83963">
        <ele>483.79998779297</ele>
        <time>2023-07-13T05:03:33.000Z</time>
      </trkpt>
      <trkpt lat="42.45897" lon="2.8396">
        <ele>483.60000610352</ele>
        <time>2023-07-13T05:03:37.000Z</time>
      </trkpt>
      <trkpt lat="42.45894" lon="2.83958">
        <ele>483</ele>
        <time>2023-07-13T05:03:40.000Z</time>
      </trkpt>
      <trkpt lat="42.45891" lon="2.83957">
        <ele>482.39999389648</ele>
        <time>2023-07-13T05:03:43.000Z</time>
      </trkpt>
      <trkpt lat="42.45884" lon="2.83951">
        <ele>481.79998779297</ele>
        <time>2023-07-13T05:03:49.000Z</time>
      </trkpt>
      <trkpt lat="42.45881" lon="2.83949">
        <ele>481.20001220703</ele>
        <time>2023-07-13T05:03:52.000Z</time>
      </trkpt>
      <trkpt lat="42.45879" lon="2.83946">
        <ele>480.60000610352</ele>
        <time>2023-07-13T05:03:56.000Z</time>
      </trkpt>
      <trkpt lat="42.45877" lon="2.83944">
        <ele>480.20001220703</ele>
        <time>2023-07-13T05:03:59.000Z</time>
      </trkpt>
      <trkpt lat="42.45875" lon="2.8394">
        <ele>479.20001220703</ele>
        <time>2023-07-13T05:04:02.000Z</time>
      </trkpt>
      <trkpt lat="42.45874" lon="2.83937">
        <ele>478.60000610352</ele>
        <time>2023-07-13T05:04:05.000Z</time>
      </trkpt>
      <trkpt lat="42.45873" lon="2.83934">
        <ele>478</ele>
        <time>2023-07-13T05:04:09.000Z</time>
      </trkpt>
      <trkpt lat="42.45872" lon="2.83932">
        <ele>477.79998779297</ele>
        <time>2023-07-13T05:04:12.000Z</time>
      </trkpt>
      <trkpt lat="42.45869" lon="2.83926">
        <ele>476.79998779297</ele>
        <time>2023-07-13T05:04:17.000Z</time>
      </trkpt>
      <trkpt lat="42.45867" lon="2.83922">
        <ele>476</ele>
        <time>2023-07-13T05:04:20.000Z</time>
      </trkpt>
      <trkpt lat="42.45866" lon="2.83921">
        <ele>475.79998779297</ele>
        <time>2023-07-13T05:04:22.000Z</time>
      </trkpt>
      <trkpt lat="42.45863" lon="2.83915">
        <ele>474.60000610352</ele>
        <time>2023-07-13T05:04:27.000Z</time>
      </trkpt>
      <trkpt lat="42.45863" lon="2.83912">
        <ele>473.79998779297</ele>
        <time>2023-07-13T05:04:32.000Z</time>
      </trkpt>
      <trkpt lat="42.45862" lon="2.8391">
        <ele>473.60000610352</ele>
        <time>2023-07-13T05:04:34.000Z</time>
      </trkpt>
      <trkpt lat="42.45861" lon="2.83906">
        <ele>473.39999389648</ele>
        <time>2023-07-13T05:04:38.000Z</time>
      </trkpt>
      <trkpt lat="42.45859" lon="2.839">
        <ele>472.60000610352</ele>
        <time>2023-07-13T05:04:45.000Z</time>
      </trkpt>
      <trkpt lat="42.45859" lon="2.83893">
        <ele>471.60000610352</ele>
        <time>2023-07-13T05:04:51.000Z</time>
      </trkpt>
      <trkpt lat="42.45859" lon="2.83892">
        <ele>471.39999389648</ele>
        <time>2023-07-13T05:04:52.000Z</time>
      </trkpt>
      <trkpt lat="42.45859" lon="2.83888">
        <ele>470.60000610352</ele>
        <time>2023-07-13T05:04:55.000Z</time>
      </trkpt>
      <trkpt lat="42.4586" lon="2.83884">
        <ele>470</ele>
        <time>2023-07-13T05:04:59.000Z</time>
      </trkpt>
      <trkpt lat="42.45864" lon="2.83874">
        <ele>469.79998779297</ele>
        <time>2023-07-13T05:05:08.000Z</time>
      </trkpt>
      <trkpt lat="42.45865" lon="2.8387">
        <ele>469.39999389648</ele>
        <time>2023-07-13T05:05:13.000Z</time>
      </trkpt>
      <trkpt lat="42.45867" lon="2.83865">
        <ele>468.20001220703</ele>
        <time>2023-07-13T05:05:18.000Z</time>
      </trkpt>
      <trkpt lat="42.45866" lon="2.83863">
        <ele>468</ele>
        <time>2023-07-13T05:05:20.000Z</time>
      </trkpt>
      <trkpt lat="42.45864" lon="2.83859">
        <ele>467.20001220703</ele>
        <time>2023-07-13T05:05:23.000Z</time>
      </trkpt>
      <trkpt lat="42.45861" lon="2.83855">
        <ele>466.60000610352</ele>
        <time>2023-07-13T05:05:26.000Z</time>
      </trkpt>
      <trkpt lat="42.45859" lon="2.83853">
        <ele>466</ele>
        <time>2023-07-13T05:05:28.000Z</time>
      </trkpt>
      <trkpt lat="42.45856" lon="2.83848">
        <ele>465</ele>
        <time>2023-07-13T05:05:31.000Z</time>
      </trkpt>
      <trkpt lat="42.45856" lon="2.83847">
        <ele>464.79998779297</ele>
        <time>2023-07-13T05:05:32.000Z</time>
      </trkpt>
      <trkpt lat="42.45855" lon="2.83844">
        <ele>464.60000610352</ele>
        <time>2023-07-13T05:05:34.000Z</time>
      </trkpt>
      <trkpt lat="42.45852" lon="2.83835">
        <ele>464</ele>
        <time>2023-07-13T05:05:39.000Z</time>
      </trkpt>
      <trkpt lat="42.45851" lon="2.83833">
        <ele>463.79998779297</ele>
        <time>2023-07-13T05:05:40.000Z</time>
      </trkpt>
      <trkpt lat="42.45851" lon="2.83826">
        <ele>462.79998779297</ele>
        <time>2023-07-13T05:05:47.000Z</time>
      </trkpt>
      <trkpt lat="42.45852" lon="2.83825">
        <ele>462.60000610352</ele>
        <time>2023-07-13T05:05:48.000Z</time>
      </trkpt>
      <trkpt lat="42.45851" lon="2.83822">
        <ele>462.20001220703</ele>
        <time>2023-07-13T05:05:53.000Z</time>
      </trkpt>
      <trkpt lat="42.45848" lon="2.83819">
        <ele>461.39999389648</ele>
        <time>2023-07-13T05:05:56.000Z</time>
      </trkpt>
      <trkpt lat="42.45847" lon="2.83818">
        <ele>461.20001220703</ele>
        <time>2023-07-13T05:05:57.000Z</time>
      </trkpt>
      <trkpt lat="42.45846" lon="2.83815">
        <ele>460.60000610352</ele>
        <time>2023-07-13T05:05:59.000Z</time>
      </trkpt>
      <trkpt lat="42.45845" lon="2.83815">
        <ele>460.39999389648</ele>
        <time>2023-07-13T05:06:00.000Z</time>
      </trkpt>
      <trkpt lat="42.45833" lon="2.83805">
        <ele>456.39999389648</ele>
        <time>2023-07-13T05:06:17.000Z</time>
      </trkpt>
      <trkpt lat="42.45831" lon="2.83801">
        <ele>456.20001220703</ele>
        <time>2023-07-13T05:06:19.000Z</time>
      </trkpt>
      <trkpt lat="42.45831" lon="2.83798">
        <ele>455.20001220703</ele>
        <time>2023-07-13T05:06:23.000Z</time>
      </trkpt>
      <trkpt lat="42.45831" lon="2.83797">
        <ele>455</ele>
        <time>2023-07-13T05:06:25.000Z</time>
      </trkpt>
      <trkpt lat="42.45831" lon="2.83796">
        <ele>455</ele>
        <time>2023-07-13T05:06:32.000Z</time>
      </trkpt>
      <trkpt lat="42.45831" lon="2.83797">
        <ele>455.20001220703</ele>
        <time>2023-07-13T05:06:42.000Z</time>
      </trkpt>
      <trkpt lat="42.45833" lon="2.83795">
        <ele>455.39999389648</ele>
        <time>2023-07-13T05:06:53.000Z</time>
      </trkpt>
      <trkpt lat="42.45833" lon="2.83795">
        <ele>455.39999389648</ele>
        <time>2023-07-13T05:06:59.000Z</time>
      </trkpt>
      <trkpt lat="42.45828" lon="2.83796">
        <ele>455.20001220703</ele>
        <time>2023-07-13T05:07:04.000Z</time>
      </trkpt>
      <trkpt lat="42.45824" lon="2.83791">
        <ele>454.79998779297</ele>
        <time>2023-07-13T05:07:11.000Z</time>
      </trkpt>
      <trkpt lat="42.45812" lon="2.83784">
        <ele>455</ele>
        <time>2023-07-13T05:07:21.000Z</time>
      </trkpt>
      <trkpt lat="42.4581" lon="2.83777">
        <ele>455</ele>
        <time>2023-07-13T05:07:26.000Z</time>
      </trkpt>
      <trkpt lat="42.45806" lon="2.83759">
        <ele>455.60000610352</ele>
        <time>2023-07-13T05:07:35.000Z</time>
      </trkpt>
      <trkpt lat="42.45804" lon="2.83742">
        <ele>456.20001220703</ele>
        <time>2023-07-13T05:07:45.000Z</time>
      </trkpt>
      <trkpt lat="42.45803" lon="2.8374">
        <ele>456.20001220703</ele>
        <time>2023-07-13T05:07:46.000Z</time>
      </trkpt>
      <trkpt lat="42.45802" lon="2.83729">
        <ele>457.20001220703</ele>
        <time>2023-07-13T05:07:53.000Z</time>
      </trkpt>
      <trkpt lat="42.458" lon="2.83722">
        <ele>457.79998779297</ele>
        <time>2023-07-13T05:07:58.000Z</time>
      </trkpt>
      <trkpt lat="42.45798" lon="2.83718">
        <ele>458.39999389648</ele>
        <time>2023-07-13T05:08:02.000Z</time>
      </trkpt>
      <trkpt lat="42.45794" lon="2.83713">
        <ele>458.79998779297</ele>
        <time>2023-07-13T05:08:07.000Z</time>
      </trkpt>
      <trkpt lat="42.4579" lon="2.8371">
        <ele>459.39999389648</ele>
        <time>2023-07-13T05:08:11.000Z</time>
      </trkpt>
      <trkpt lat="42.45789" lon="2.83703">
        <ele>459.79998779297</ele>
        <time>2023-07-13T05:08:17.000Z</time>
      </trkpt>
      <trkpt lat="42.4579" lon="2.83698">
        <ele>460.39999389648</ele>
        <time>2023-07-13T05:08:21.000Z</time>
      </trkpt>
      <trkpt lat="42.4579" lon="2.83694">
        <ele>460.79998779297</ele>
        <time>2023-07-13T05:08:24.000Z</time>
      </trkpt>
      <trkpt lat="42.45795" lon="2.83689">
        <ele>461.39999389648</ele>
        <time>2023-07-13T05:08:30.000Z</time>
      </trkpt>
      <trkpt lat="42.45799" lon="2.83684">
        <ele>462.39999389648</ele>
        <time>2023-07-13T05:08:36.000Z</time>
      </trkpt>
      <trkpt lat="42.45802" lon="2.83682">
        <ele>462.60000610352</ele>
        <time>2023-07-13T05:08:40.000Z</time>
      </trkpt>
      <trkpt lat="42.45803" lon="2.83681">
        <ele>462.79998779297</ele>
        <time>2023-07-13T05:08:41.000Z</time>
      </trkpt>
      <trkpt lat="42.45808" lon="2.83673">
        <ele>463.60000610352</ele>
        <time>2023-07-13T05:08:48.000Z</time>
      </trkpt>
      <trkpt lat="42.45809" lon="2.83672">
        <ele>464</ele>
        <time>2023-07-13T05:08:50.000Z</time>
      </trkpt>
      <trkpt lat="42.45811" lon="2.8366">
        <ele>464.79998779297</ele>
        <time>2023-07-13T05:09:00.000Z</time>
      </trkpt>
      <trkpt lat="42.45814" lon="2.83654">
        <ele>465.20001220703</ele>
        <time>2023-07-13T05:09:04.000Z</time>
      </trkpt>
      <trkpt lat="42.45814" lon="2.83649">
        <ele>466</ele>
        <time>2023-07-13T05:09:08.000Z</time>
      </trkpt>
      <trkpt lat="42.45814" lon="2.83639">
        <ele>466.79998779297</ele>
        <time>2023-07-13T05:09:15.000Z</time>
      </trkpt>
      <trkpt lat="42.45813" lon="2.83623">
        <ele>467.39999389648</ele>
        <time>2023-07-13T05:09:23.000Z</time>
      </trkpt>
      <trkpt lat="42.45811" lon="2.83617">
        <ele>467.39999389648</ele>
        <time>2023-07-13T05:09:25.000Z</time>
      </trkpt>
      <trkpt lat="42.4581" lon="2.83603">
        <ele>468</ele>
        <time>2023-07-13T05:09:30.000Z</time>
      </trkpt>
      <trkpt lat="42.4581" lon="2.83598">
        <ele>468.39999389648</ele>
        <time>2023-07-13T05:09:33.000Z</time>
      </trkpt>
      <trkpt lat="42.4581" lon="2.8359">
        <ele>469</ele>
        <time>2023-07-13T05:09:39.000Z</time>
      </trkpt>
      <trkpt lat="42.4581" lon="2.83587">
        <ele>469.20001220703</ele>
        <time>2023-07-13T05:09:41.000Z</time>
      </trkpt>
      <trkpt lat="42.45807" lon="2.83578">
        <ele>470</ele>
        <time>2023-07-13T05:09:48.000Z</time>
      </trkpt>
      <trkpt lat="42.45807" lon="2.83569">
        <ele>471</ele>
        <time>2023-07-13T05:09:55.000Z</time>
      </trkpt>
      <trkpt lat="42.45807" lon="2.83566">
        <ele>471.20001220703</ele>
        <time>2023-07-13T05:09:57.000Z</time>
      </trkpt>
      <trkpt lat="42.45803" lon="2.83555">
        <ele>471.79998779297</ele>
        <time>2023-07-13T05:10:03.000Z</time>
      </trkpt>
      <trkpt lat="42.45803" lon="2.8355">
        <ele>472.20001220703</ele>
        <time>2023-07-13T05:10:06.000Z</time>
      </trkpt>
      <trkpt lat="42.45802" lon="2.83546">
        <ele>472.39999389648</ele>
        <time>2023-07-13T05:10:09.000Z</time>
      </trkpt>
      <trkpt lat="42.45801" lon="2.83539">
        <ele>473.39999389648</ele>
        <time>2023-07-13T05:10:15.000Z</time>
      </trkpt>
      <trkpt lat="42.45801" lon="2.83532">
        <ele>474.39999389648</ele>
        <time>2023-07-13T05:10:22.000Z</time>
      </trkpt>
      <trkpt lat="42.45801" lon="2.83531">
        <ele>474.60000610352</ele>
        <time>2023-07-13T05:10:23.000Z</time>
      </trkpt>
      <trkpt lat="42.45802" lon="2.83523">
        <ele>475.20001220703</ele>
        <time>2023-07-13T05:10:29.000Z</time>
      </trkpt>
      <trkpt lat="42.45802" lon="2.83517">
        <ele>475.60000610352</ele>
        <time>2023-07-13T05:10:32.000Z</time>
      </trkpt>
      <trkpt lat="42.45803" lon="2.83509">
        <ele>476.20001220703</ele>
        <time>2023-07-13T05:10:37.000Z</time>
      </trkpt>
      <trkpt lat="42.45805" lon="2.83504">
        <ele>476.60000610352</ele>
        <time>2023-07-13T05:10:41.000Z</time>
      </trkpt>
      <trkpt lat="42.45805" lon="2.83499">
        <ele>477</ele>
        <time>2023-07-13T05:10:45.000Z</time>
      </trkpt>
      <trkpt lat="42.45806" lon="2.83494">
        <ele>477.60000610352</ele>
        <time>2023-07-13T05:10:49.000Z</time>
      </trkpt>
      <trkpt lat="42.45807" lon="2.83488">
        <ele>478</ele>
        <time>2023-07-13T05:10:54.000Z</time>
      </trkpt>
      <trkpt lat="42.45808" lon="2.83481">
        <ele>478.79998779297</ele>
        <time>2023-07-13T05:11:00.000Z</time>
      </trkpt>
      <trkpt lat="42.45809" lon="2.83479">
        <ele>479</ele>
        <time>2023-07-13T05:11:02.000Z</time>
      </trkpt>
      <trkpt lat="42.45811" lon="2.83471">
        <ele>479.60000610352</ele>
        <time>2023-07-13T05:11:10.000Z</time>
      </trkpt>
      <trkpt lat="42.45812" lon="2.83469">
        <ele>479.79998779297</ele>
        <time>2023-07-13T05:11:11.000Z</time>
      </trkpt>
      <trkpt lat="42.45814" lon="2.83461">
        <ele>480.39999389648</ele>
        <time>2023-07-13T05:11:17.000Z</time>
      </trkpt>
      <trkpt lat="42.45814" lon="2.83458">
        <ele>480.79998779297</ele>
        <time>2023-07-13T05:11:20.000Z</time>
      </trkpt>
      <trkpt lat="42.45817" lon="2.83453">
        <ele>481.39999389648</ele>
        <time>2023-07-13T05:11:25.000Z</time>
      </trkpt>
      <trkpt lat="42.45819" lon="2.83448">
        <ele>481.79998779297</ele>
        <time>2023-07-13T05:11:29.000Z</time>
      </trkpt>
      <trkpt lat="42.45817" lon="2.83436">
        <ele>482.20001220703</ele>
        <time>2023-07-13T05:11:35.000Z</time>
      </trkpt>
      <trkpt lat="42.45818" lon="2.83427">
        <ele>482.79998779297</ele>
        <time>2023-07-13T05:11:40.000Z</time>
      </trkpt>
      <trkpt lat="42.45817" lon="2.83425">
        <ele>483</ele>
        <time>2023-07-13T05:11:41.000Z</time>
      </trkpt>
      <trkpt lat="42.45819" lon="2.83419">
        <ele>483.79998779297</ele>
        <time>2023-07-13T05:11:47.000Z</time>
      </trkpt>
      <trkpt lat="42.45819" lon="2.83418">
        <ele>484</ele>
        <time>2023-07-13T05:11:48.000Z</time>
      </trkpt>
      <trkpt lat="42.45816" lon="2.83396">
        <ele>485</ele>
        <time>2023-07-13T05:12:03.000Z</time>
      </trkpt>
      <trkpt lat="42.4582" lon="2.83383">
        <ele>485.79998779297</ele>
        <time>2023-07-13T05:12:12.000Z</time>
      </trkpt>
      <trkpt lat="42.4582" lon="2.83382">
        <ele>486</ele>
        <time>2023-07-13T05:12:13.000Z</time>
      </trkpt>
      <trkpt lat="42.45825" lon="2.83372">
        <ele>487.20001220703</ele>
        <time>2023-07-13T05:12:22.000Z</time>
      </trkpt>
      <trkpt lat="42.45823" lon="2.83359">
        <ele>488.60000610352</ele>
        <time>2023-07-13T05:12:33.000Z</time>
      </trkpt>
      <trkpt lat="42.45825" lon="2.83355">
        <ele>489.20001220703</ele>
        <time>2023-07-13T05:12:37.000Z</time>
      </trkpt>
      <trkpt lat="42.45824" lon="2.83347">
        <ele>490</ele>
        <time>2023-07-13T05:12:41.000Z</time>
      </trkpt>
      <trkpt lat="42.45822" lon="2.83337">
        <ele>490.20001220703</ele>
        <time>2023-07-13T05:12:46.000Z</time>
      </trkpt>
      <trkpt lat="42.45822" lon="2.83334">
        <ele>490.20001220703</ele>
        <time>2023-07-13T05:12:47.000Z</time>
      </trkpt>
      <trkpt lat="42.45822" lon="2.83332">
        <ele>490.39999389648</ele>
        <time>2023-07-13T05:12:48.000Z</time>
      </trkpt>
      <trkpt lat="42.45819" lon="2.83318">
        <ele>491.39999389648</ele>
        <time>2023-07-13T05:12:55.000Z</time>
      </trkpt>
      <trkpt lat="42.45819" lon="2.83315">
        <ele>491.60000610352</ele>
        <time>2023-07-13T05:12:57.000Z</time>
      </trkpt>
      <trkpt lat="42.45814" lon="2.8331">
        <ele>492.20001220703</ele>
        <time>2023-07-13T05:13:03.000Z</time>
      </trkpt>
      <trkpt lat="42.45812" lon="2.83307">
        <ele>492.39999389648</ele>
        <time>2023-07-13T05:13:06.000Z</time>
      </trkpt>
      <trkpt lat="42.4581" lon="2.83302">
        <ele>493</ele>
        <time>2023-07-13T05:13:11.000Z</time>
      </trkpt>
      <trkpt lat="42.45806" lon="2.83298">
        <ele>493.39999389648</ele>
        <time>2023-07-13T05:13:16.000Z</time>
      </trkpt>
      <trkpt lat="42.45803" lon="2.83297">
        <ele>493.79998779297</ele>
        <time>2023-07-13T05:13:19.000Z</time>
      </trkpt>
      <trkpt lat="42.45801" lon="2.83295">
        <ele>493.79998779297</ele>
        <time>2023-07-13T05:13:20.000Z</time>
      </trkpt>
      <trkpt lat="42.45791" lon="2.83286">
        <ele>494.60000610352</ele>
        <time>2023-07-13T05:13:27.000Z</time>
      </trkpt>
      <trkpt lat="42.45788" lon="2.83284">
        <ele>494.60000610352</ele>
        <time>2023-07-13T05:13:29.000Z</time>
      </trkpt>
      <trkpt lat="42.45776" lon="2.83279">
        <ele>494.79998779297</ele>
        <time>2023-07-13T05:13:39.000Z</time>
      </trkpt>
      <trkpt lat="42.45734" lon="2.83303">
        <ele>496.60000610352</ele>
        <time>2023-07-13T05:14:16.000Z</time>
      </trkpt>
      <trkpt lat="42.45734" lon="2.83304">
        <ele>496.60000610352</ele>
        <time>2023-07-13T05:14:18.000Z</time>
      </trkpt>
      <trkpt lat="42.45712" lon="2.8333">
        <ele>498.20001220703</ele>
        <time>2023-07-13T05:14:41.000Z</time>
      </trkpt>
      <trkpt lat="42.45686" lon="2.83378">
        <ele>503</ele>
        <time>2023-07-13T05:15:19.000Z</time>
      </trkpt>
      <trkpt lat="42.45685" lon="2.8338">
        <ele>503.20001220703</ele>
        <time>2023-07-13T05:15:21.000Z</time>
      </trkpt>
      <trkpt lat="42.45679" lon="2.83381">
        <ele>503.39999389648</ele>
        <time>2023-07-13T05:15:25.000Z</time>
      </trkpt>
      <trkpt lat="42.45668" lon="2.83399">
        <ele>504.39999389648</ele>
        <time>2023-07-13T05:15:37.000Z</time>
      </trkpt>
      <trkpt lat="42.4566" lon="2.83404">
        <ele>505.79998779297</ele>
        <time>2023-07-13T05:15:48.000Z</time>
      </trkpt>
      <trkpt lat="42.45656" lon="2.83406">
        <ele>506.20001220703</ele>
        <time>2023-07-13T05:15:51.000Z</time>
      </trkpt>
      <trkpt lat="42.45644" lon="2.83412">
        <ele>507.79998779297</ele>
        <time>2023-07-13T05:16:04.000Z</time>
      </trkpt>
      <trkpt lat="42.4562" lon="2.83429">
        <ele>510.60000610352</ele>
        <time>2023-07-13T05:16:28.000Z</time>
      </trkpt>
      <trkpt lat="42.45616" lon="2.83431">
        <ele>511</ele>
        <time>2023-07-13T05:16:31.000Z</time>
      </trkpt>
      <trkpt lat="42.45608" lon="2.83431">
        <ele>512</ele>
        <time>2023-07-13T05:16:37.000Z</time>
      </trkpt>
      <trkpt lat="42.45607" lon="2.8343">
        <ele>512</ele>
        <time>2023-07-13T05:16:38.000Z</time>
      </trkpt>
      <trkpt lat="42.45592" lon="2.83431">
        <ele>513.20001220703</ele>
        <time>2023-07-13T05:16:52.000Z</time>
      </trkpt>
      <trkpt lat="42.45583" lon="2.83427">
        <ele>514</ele>
        <time>2023-07-13T05:16:59.000Z</time>
      </trkpt>
      <trkpt lat="42.45559" lon="2.83434">
        <ele>517.20001220703</ele>
        <time>2023-07-13T05:17:23.000Z</time>
      </trkpt>
      <trkpt lat="42.45547" lon="2.8344">
        <ele>518.40002441406</ele>
        <time>2023-07-13T05:17:35.000Z</time>
      </trkpt>
      <trkpt lat="42.45537" lon="2.83443">
        <ele>519.79998779297</ele>
        <time>2023-07-13T05:17:47.000Z</time>
      </trkpt>
      <trkpt lat="42.45532" lon="2.83441">
        <ele>520.40002441406</ele>
        <time>2023-07-13T05:17:51.000Z</time>
      </trkpt>
      <trkpt lat="42.45529" lon="2.83438">
        <ele>521</ele>
        <time>2023-07-13T05:17:54.000Z</time>
      </trkpt>
      <trkpt lat="42.45523" lon="2.83432">
        <ele>521.20001220703</ele>
        <time>2023-07-13T05:18:02.000Z</time>
      </trkpt>
      <trkpt lat="42.4552" lon="2.83429">
        <ele>521.79998779297</ele>
        <time>2023-07-13T05:18:05.000Z</time>
      </trkpt>
      <trkpt lat="42.45515" lon="2.83425">
        <ele>522.40002441406</ele>
        <time>2023-07-13T05:18:10.000Z</time>
      </trkpt>
      <trkpt lat="42.45512" lon="2.83422">
        <ele>522.79998779297</ele>
        <time>2023-07-13T05:18:13.000Z</time>
      </trkpt>
      <trkpt lat="42.45508" lon="2.83417">
        <ele>523.40002441406</ele>
        <time>2023-07-13T05:18:17.000Z</time>
      </trkpt>
      <trkpt lat="42.45502" lon="2.8341">
        <ele>523.79998779297</ele>
        <time>2023-07-13T05:18:23.000Z</time>
      </trkpt>
      <trkpt lat="42.455" lon="2.83407">
        <ele>524.40002441406</ele>
        <time>2023-07-13T05:18:26.000Z</time>
      </trkpt>
      <trkpt lat="42.45495" lon="2.83398">
        <ele>525</ele>
        <time>2023-07-13T05:18:34.000Z</time>
      </trkpt>
      <trkpt lat="42.45494" lon="2.83394">
        <ele>526</ele>
        <time>2023-07-13T05:18:42.000Z</time>
      </trkpt>
      <trkpt lat="42.45494" lon="2.83394">
        <ele>526</ele>
        <time>2023-07-13T05:18:43.000Z</time>
      </trkpt>
      <trkpt lat="42.45493" lon="2.83393">
        <ele>526.20001220703</ele>
        <time>2023-07-13T05:18:50.000Z</time>
      </trkpt>
      <trkpt lat="42.45489" lon="2.83386">
        <ele>526.79998779297</ele>
        <time>2023-07-13T05:18:58.000Z</time>
      </trkpt>
      <trkpt lat="42.45487" lon="2.83383">
        <ele>527.20001220703</ele>
        <time>2023-07-13T05:19:01.000Z</time>
      </trkpt>
      <trkpt lat="42.45485" lon="2.8338">
        <ele>527.59997558594</ele>
        <time>2023-07-13T05:19:05.000Z</time>
      </trkpt>
      <trkpt lat="42.45486" lon="2.83376">
        <ele>527.79998779297</ele>
        <time>2023-07-13T05:19:19.000Z</time>
      </trkpt>
      <trkpt lat="42.45481" lon="2.83371">
        <ele>528</ele>
        <time>2023-07-13T05:19:25.000Z</time>
      </trkpt>
      <trkpt lat="42.4548" lon="2.8337">
        <ele>528.20001220703</ele>
        <time>2023-07-13T05:19:27.000Z</time>
      </trkpt>
      <trkpt lat="42.45475" lon="2.83365">
        <ele>528.59997558594</ele>
        <time>2023-07-13T05:19:31.000Z</time>
      </trkpt>
      <trkpt lat="42.45472" lon="2.83361">
        <ele>529.40002441406</ele>
        <time>2023-07-13T05:19:35.000Z</time>
      </trkpt>
      <trkpt lat="42.45468" lon="2.83354">
        <ele>530</ele>
        <time>2023-07-13T05:19:42.000Z</time>
      </trkpt>
      <trkpt lat="42.45467" lon="2.83351">
        <ele>530.40002441406</ele>
        <time>2023-07-13T05:19:45.000Z</time>
      </trkpt>
      <trkpt lat="42.45467" lon="2.83345">
        <ele>531.20001220703</ele>
        <time>2023-07-13T05:19:50.000Z</time>
      </trkpt>
      <trkpt lat="42.45465" lon="2.83339">
        <ele>531.59997558594</ele>
        <time>2023-07-13T05:19:53.000Z</time>
      </trkpt>
      <trkpt lat="42.45461" lon="2.83329">
        <ele>532.40002441406</ele>
        <time>2023-07-13T05:19:59.000Z</time>
      </trkpt>
      <trkpt lat="42.45459" lon="2.83327">
        <ele>532.59997558594</ele>
        <time>2023-07-13T05:20:00.000Z</time>
      </trkpt>
      <trkpt lat="42.45452" lon="2.83321">
        <ele>533.40002441406</ele>
        <time>2023-07-13T05:20:08.000Z</time>
      </trkpt>
      <trkpt lat="42.4545" lon="2.8332">
        <ele>533.59997558594</ele>
        <time>2023-07-13T05:20:10.000Z</time>
      </trkpt>
      <trkpt lat="42.45445" lon="2.83311">
        <ele>534.20001220703</ele>
        <time>2023-07-13T05:20:17.000Z</time>
      </trkpt>
      <trkpt lat="42.45444" lon="2.83306">
        <ele>534.59997558594</ele>
        <time>2023-07-13T05:20:19.000Z</time>
      </trkpt>
      <trkpt lat="42.45444" lon="2.83294">
        <ele>535.40002441406</ele>
        <time>2023-07-13T05:20:25.000Z</time>
      </trkpt>
      <trkpt lat="42.45444" lon="2.83289">
        <ele>535.59997558594</ele>
        <time>2023-07-13T05:20:28.000Z</time>
      </trkpt>
      <trkpt lat="42.45446" lon="2.83281">
        <ele>536.40002441406</ele>
        <time>2023-07-13T05:20:34.000Z</time>
      </trkpt>
      <trkpt lat="42.45446" lon="2.83278">
        <ele>536.59997558594</ele>
        <time>2023-07-13T05:20:36.000Z</time>
      </trkpt>
      <trkpt lat="42.45446" lon="2.83269">
        <ele>537.40002441406</ele>
        <time>2023-07-13T05:20:42.000Z</time>
      </trkpt>
      <trkpt lat="42.45444" lon="2.83263">
        <ele>537.79998779297</ele>
        <time>2023-07-13T05:20:47.000Z</time>
      </trkpt>
      <trkpt lat="42.45444" lon="2.8326">
        <ele>538.20001220703</ele>
        <time>2023-07-13T05:20:50.000Z</time>
      </trkpt>
      <trkpt lat="42.45442" lon="2.83257">
        <ele>538.79998779297</ele>
        <time>2023-07-13T05:20:53.000Z</time>
      </trkpt>
      <trkpt lat="42.45441" lon="2.83255">
        <ele>538.79998779297</ele>
        <time>2023-07-13T05:20:57.000Z</time>
      </trkpt>
      <trkpt lat="42.45438" lon="2.83254">
        <ele>538.79998779297</ele>
        <time>2023-07-13T05:20:59.000Z</time>
      </trkpt>
      <trkpt lat="42.45436" lon="2.83252">
        <ele>539</ele>
        <time>2023-07-13T05:21:01.000Z</time>
      </trkpt>
      <trkpt lat="42.45436" lon="2.8325">
        <ele>539.20001220703</ele>
        <time>2023-07-13T05:21:03.000Z</time>
      </trkpt>
      <trkpt lat="42.45432" lon="2.83239">
        <ele>539.59997558594</ele>
        <time>2023-07-13T05:21:10.000Z</time>
      </trkpt>
      <trkpt lat="42.4543" lon="2.83237">
        <ele>539.79998779297</ele>
        <time>2023-07-13T05:21:12.000Z</time>
      </trkpt>
      <trkpt lat="42.45426" lon="2.8323">
        <ele>541</ele>
        <time>2023-07-13T05:21:19.000Z</time>
      </trkpt>
      <trkpt lat="42.45424" lon="2.83229">
        <ele>541</ele>
        <time>2023-07-13T05:21:20.000Z</time>
      </trkpt>
      <trkpt lat="42.45423" lon="2.8322">
        <ele>542.20001220703</ele>
        <time>2023-07-13T05:21:27.000Z</time>
      </trkpt>
      <trkpt lat="42.45419" lon="2.83213">
        <ele>543.20001220703</ele>
        <time>2023-07-13T05:21:34.000Z</time>
      </trkpt>
      <trkpt lat="42.45419" lon="2.83208">
        <ele>543.40002441406</ele>
        <time>2023-07-13T05:21:36.000Z</time>
      </trkpt>
      <trkpt lat="42.45417" lon="2.83195">
        <ele>544.40002441406</ele>
        <time>2023-07-13T05:21:44.000Z</time>
      </trkpt>
      <trkpt lat="42.45416" lon="2.8319">
        <ele>544.40002441406</ele>
        <time>2023-07-13T05:21:46.000Z</time>
      </trkpt>
      <trkpt lat="42.45413" lon="2.83181">
        <ele>545.40002441406</ele>
        <time>2023-07-13T05:21:53.000Z</time>
      </trkpt>
      <trkpt lat="42.45413" lon="2.83178">
        <ele>545.59997558594</ele>
        <time>2023-07-13T05:21:55.000Z</time>
      </trkpt>
      <trkpt lat="42.4541" lon="2.83169">
        <ele>546.40002441406</ele>
        <time>2023-07-13T05:22:02.000Z</time>
      </trkpt>
      <trkpt lat="42.4541" lon="2.83167">
        <ele>546.40002441406</ele>
        <time>2023-07-13T05:22:03.000Z</time>
      </trkpt>
      <trkpt lat="42.45406" lon="2.83158">
        <ele>547.59997558594</ele>
        <time>2023-07-13T05:22:12.000Z</time>
      </trkpt>
      <trkpt lat="42.45406" lon="2.83156">
        <ele>547.59997558594</ele>
        <time>2023-07-13T05:22:13.000Z</time>
      </trkpt>
      <trkpt lat="42.45399" lon="2.83152">
        <ele>548.59997558594</ele>
        <time>2023-07-13T05:22:19.000Z</time>
      </trkpt>
      <trkpt lat="42.45398" lon="2.8315">
        <ele>548.59997558594</ele>
        <time>2023-07-13T05:22:20.000Z</time>
      </trkpt>
      <trkpt lat="42.45392" lon="2.83147">
        <ele>549.59997558594</ele>
        <time>2023-07-13T05:22:27.000Z</time>
      </trkpt>
      <trkpt lat="42.45383" lon="2.83138">
        <ele>550.20001220703</ele>
        <time>2023-07-13T05:22:44.000Z</time>
      </trkpt>
      <trkpt lat="42.45379" lon="2.83135">
        <ele>550.59997558594</ele>
        <time>2023-07-13T05:22:47.000Z</time>
      </trkpt>
      <trkpt lat="42.45373" lon="2.8313">
        <ele>551.20001220703</ele>
        <time>2023-07-13T05:22:52.000Z</time>
      </trkpt>
      <trkpt lat="42.4537" lon="2.83127">
        <ele>551.59997558594</ele>
        <time>2023-07-13T05:22:55.000Z</time>
      </trkpt>
      <trkpt lat="42.45359" lon="2.83116">
        <ele>553</ele>
        <time>2023-07-13T05:23:07.000Z</time>
      </trkpt>
      <trkpt lat="42.45355" lon="2.83112">
        <ele>553.79998779297</ele>
        <time>2023-07-13T05:23:12.000Z</time>
      </trkpt>
      <trkpt lat="42.4535" lon="2.83109">
        <ele>554.40002441406</ele>
        <time>2023-07-13T05:23:16.000Z</time>
      </trkpt>
      <trkpt lat="42.45347" lon="2.83107">
        <ele>554.79998779297</ele>
        <time>2023-07-13T05:23:19.000Z</time>
      </trkpt>
      <trkpt lat="42.45345" lon="2.83103">
        <ele>555.40002441406</ele>
        <time>2023-07-13T05:23:23.000Z</time>
      </trkpt>
      <trkpt lat="42.45343" lon="2.83098">
        <ele>556</ele>
        <time>2023-07-13T05:23:27.000Z</time>
      </trkpt>
      <trkpt lat="42.45341" lon="2.83096">
        <ele>556.20001220703</ele>
        <time>2023-07-13T05:23:30.000Z</time>
      </trkpt>
      <trkpt lat="42.45332" lon="2.83089">
        <ele>557</ele>
        <time>2023-07-13T05:23:36.000Z</time>
      </trkpt>
      <trkpt lat="42.45331" lon="2.83088">
        <ele>557.20001220703</ele>
        <time>2023-07-13T05:23:37.000Z</time>
      </trkpt>
      <trkpt lat="42.45329" lon="2.83084">
        <ele>557.40002441406</ele>
        <time>2023-07-13T05:23:40.000Z</time>
      </trkpt>
      <trkpt lat="42.45328" lon="2.83079">
        <ele>558</ele>
        <time>2023-07-13T05:23:43.000Z</time>
      </trkpt>
      <trkpt lat="42.45328" lon="2.83077">
        <ele>558</ele>
        <time>2023-07-13T05:23:44.000Z</time>
      </trkpt>
      <trkpt lat="42.45326" lon="2.83067">
        <ele>559</ele>
        <time>2023-07-13T05:23:51.000Z</time>
      </trkpt>
      <trkpt lat="42.45325" lon="2.83065">
        <ele>559.20001220703</ele>
        <time>2023-07-13T05:23:52.000Z</time>
      </trkpt>
      <trkpt lat="42.45322" lon="2.83053">
        <ele>560</ele>
        <time>2023-07-13T05:23:59.000Z</time>
      </trkpt>
      <trkpt lat="42.4532" lon="2.83051">
        <ele>560.20001220703</ele>
        <time>2023-07-13T05:24:01.000Z</time>
      </trkpt>
      <trkpt lat="42.45316" lon="2.83043">
        <ele>561</ele>
        <time>2023-07-13T05:24:08.000Z</time>
      </trkpt>
      <trkpt lat="42.45312" lon="2.8304">
        <ele>561.20001220703</ele>
        <time>2023-07-13T05:24:12.000Z</time>
      </trkpt>
      <trkpt lat="42.45311" lon="2.83038">
        <ele>561.20001220703</ele>
        <time>2023-07-13T05:24:14.000Z</time>
      </trkpt>
      <trkpt lat="42.4531" lon="2.83036">
        <ele>561.40002441406</ele>
        <time>2023-07-13T05:24:15.000Z</time>
      </trkpt>
      <trkpt lat="42.45304" lon="2.8303">
        <ele>562</ele>
        <time>2023-07-13T05:24:21.000Z</time>
      </trkpt>
      <trkpt lat="42.45301" lon="2.83027">
        <ele>562</ele>
        <time>2023-07-13T05:24:23.000Z</time>
      </trkpt>
      <trkpt lat="42.45296" lon="2.83023">
        <ele>562.40002441406</ele>
        <time>2023-07-13T05:24:26.000Z</time>
      </trkpt>
      <trkpt lat="42.45288" lon="2.83016">
        <ele>563</ele>
        <time>2023-07-13T05:24:31.000Z</time>
      </trkpt>
      <trkpt lat="42.45278" lon="2.83011">
        <ele>563.40002441406</ele>
        <time>2023-07-13T05:24:38.000Z</time>
      </trkpt>
      <trkpt lat="42.45277" lon="2.8301">
        <ele>563.40002441406</ele>
        <time>2023-07-13T05:24:39.000Z</time>
      </trkpt>
      <trkpt lat="42.45247" lon="2.83026">
        <ele>566.40002441406</ele>
        <time>2023-07-13T05:25:13.000Z</time>
      </trkpt>
      <trkpt lat="42.45197" lon="2.83054">
        <ele>571.40002441406</ele>
        <time>2023-07-13T05:26:04.000Z</time>
      </trkpt>
      <trkpt lat="42.45196" lon="2.83055">
        <ele>571.59997558594</ele>
        <time>2023-07-13T05:26:05.000Z</time>
      </trkpt>
      <trkpt lat="42.45195" lon="2.83056">
        <ele>571.79998779297</ele>
        <time>2023-07-13T05:26:06.000Z</time>
      </trkpt>
      <trkpt lat="42.45191" lon="2.83058">
        <ele>572.40002441406</ele>
        <time>2023-07-13T05:26:11.000Z</time>
      </trkpt>
      <trkpt lat="42.45173" lon="2.83081">
        <ele>574.79998779297</ele>
        <time>2023-07-13T05:26:32.000Z</time>
      </trkpt>
      <trkpt lat="42.45172" lon="2.83082">
        <ele>575</ele>
        <time>2023-07-13T05:26:33.000Z</time>
      </trkpt>
      <trkpt lat="42.4517" lon="2.83083">
        <ele>575.20001220703</ele>
        <time>2023-07-13T05:26:35.000Z</time>
      </trkpt>
      <trkpt lat="42.45163" lon="2.83095">
        <ele>576</ele>
        <time>2023-07-13T05:26:43.000Z</time>
      </trkpt>
      <trkpt lat="42.4516" lon="2.83096">
        <ele>576.40002441406</ele>
        <time>2023-07-13T05:26:47.000Z</time>
      </trkpt>
      <trkpt lat="42.45159" lon="2.83102">
        <ele>576.40002441406</ele>
        <time>2023-07-13T05:26:53.000Z</time>
      </trkpt>
      <trkpt lat="42.45163" lon="2.83112">
        <ele>576.40002441406</ele>
        <time>2023-07-13T05:27:00.000Z</time>
      </trkpt>
      <trkpt lat="42.45163" lon="2.83114">
        <ele>576.59997558594</ele>
        <time>2023-07-13T05:27:07.000Z</time>
      </trkpt>
      <trkpt lat="42.4516" lon="2.83111">
        <ele>576.79998779297</ele>
        <time>2023-07-13T05:27:27.000Z</time>
      </trkpt>
      <trkpt lat="42.45159" lon="2.83113">
        <ele>577</ele>
        <time>2023-07-13T05:27:39.000Z</time>
      </trkpt>
      <trkpt lat="42.45158" lon="2.83113">
        <ele>577.59997558594</ele>
        <time>2023-07-13T05:27:47.000Z</time>
      </trkpt>
      <trkpt lat="42.45155" lon="2.83117">
        <ele>577.79998779297</ele>
        <time>2023-07-13T05:27:56.000Z</time>
      </trkpt>
      <trkpt lat="42.45152" lon="2.83119">
        <ele>578</ele>
        <time>2023-07-13T05:27:58.000Z</time>
      </trkpt>
      <trkpt lat="42.45146" lon="2.83123">
        <ele>578.79998779297</ele>
        <time>2023-07-13T05:28:04.000Z</time>
      </trkpt>
      <trkpt lat="42.45142" lon="2.83124">
        <ele>579.20001220703</ele>
        <time>2023-07-13T05:28:07.000Z</time>
      </trkpt>
      <trkpt lat="42.45134" lon="2.83127">
        <ele>579.79998779297</ele>
        <time>2023-07-13T05:28:13.000Z</time>
      </trkpt>
      <trkpt lat="42.45131" lon="2.83127">
        <ele>580.20001220703</ele>
        <time>2023-07-13T05:28:16.000Z</time>
      </trkpt>
      <trkpt lat="42.45125" lon="2.83128">
        <ele>581.20001220703</ele>
        <time>2023-07-13T05:28:22.000Z</time>
      </trkpt>
      <trkpt lat="42.45091" lon="2.83175">
        <ele>586.20001220703</ele>
        <time>2023-07-13T05:29:06.000Z</time>
      </trkpt>
      <trkpt lat="42.45089" lon="2.83177">
        <ele>586.79998779297</ele>
        <time>2023-07-13T05:29:10.000Z</time>
      </trkpt>
      <trkpt lat="42.45088" lon="2.83178">
        <ele>587</ele>
        <time>2023-07-13T05:29:11.000Z</time>
      </trkpt>
      <trkpt lat="42.45078" lon="2.83184">
        <ele>588.40002441406</ele>
        <time>2023-07-13T05:29:20.000Z</time>
      </trkpt>
      <trkpt lat="42.45067" lon="2.83189">
        <ele>589.79998779297</ele>
        <time>2023-07-13T05:29:31.000Z</time>
      </trkpt>
      <trkpt lat="42.45062" lon="2.83191">
        <ele>590</ele>
        <time>2023-07-13T05:29:34.000Z</time>
      </trkpt>
      <trkpt lat="42.45058" lon="2.83191">
        <ele>590.59997558594</ele>
        <time>2023-07-13T05:29:37.000Z</time>
      </trkpt>
      <trkpt lat="42.4505" lon="2.83189">
        <ele>591.20001220703</ele>
        <time>2023-07-13T05:29:43.000Z</time>
      </trkpt>
      <trkpt lat="42.45049" lon="2.83189">
        <ele>591.40002441406</ele>
        <time>2023-07-13T05:29:44.000Z</time>
      </trkpt>
      <trkpt lat="42.45046" lon="2.83189">
        <ele>592.20001220703</ele>
        <time>2023-07-13T05:29:51.000Z</time>
      </trkpt>
      <trkpt lat="42.45044" lon="2.83188">
        <ele>592.20001220703</ele>
        <time>2023-07-13T05:29:54.000Z</time>
      </trkpt>
      <trkpt lat="42.45043" lon="2.83191">
        <ele>592.20001220703</ele>
        <time>2023-07-13T05:29:59.000Z</time>
      </trkpt>
      <trkpt lat="42.45037" lon="2.83189">
        <ele>592.59997558594</ele>
        <time>2023-07-13T05:30:09.000Z</time>
      </trkpt>
      <trkpt lat="42.44957" lon="2.83242">
        <ele>602.20001220703</ele>
        <time>2023-07-13T05:31:29.000Z</time>
      </trkpt>
      <trkpt lat="42.44951" lon="2.83248">
        <ele>603</ele>
        <time>2023-07-13T05:31:35.000Z</time>
      </trkpt>
      <trkpt lat="42.44945" lon="2.83253">
        <ele>603.79998779297</ele>
        <time>2023-07-13T05:31:40.000Z</time>
      </trkpt>
      <trkpt lat="42.44944" lon="2.83254">
        <ele>604</ele>
        <time>2023-07-13T05:31:41.000Z</time>
      </trkpt>
      <trkpt lat="42.44936" lon="2.8326">
        <ele>605</ele>
        <time>2023-07-13T05:31:48.000Z</time>
      </trkpt>
      <trkpt lat="42.44934" lon="2.83262">
        <ele>605.20001220703</ele>
        <time>2023-07-13T05:31:50.000Z</time>
      </trkpt>
      <trkpt lat="42.44931" lon="2.83264">
        <ele>605.79998779297</ele>
        <time>2023-07-13T05:31:55.000Z</time>
      </trkpt>
      <trkpt lat="42.44832" lon="2.83305">
        <ele>616.59997558594</ele>
        <time>2023-07-13T05:33:28.000Z</time>
      </trkpt>
      <trkpt lat="42.44807" lon="2.83294">
        <ele>617.59997558594</ele>
        <time>2023-07-13T05:33:52.000Z</time>
      </trkpt>
      <trkpt lat="42.44804" lon="2.83287">
        <ele>617.79998779297</ele>
        <time>2023-07-13T05:33:56.000Z</time>
      </trkpt>
      <trkpt lat="42.44805" lon="2.83284">
        <ele>618</ele>
        <time>2023-07-13T05:33:58.000Z</time>
      </trkpt>
      <trkpt lat="42.44803" lon="2.83273">
        <ele>618.20001220703</ele>
        <time>2023-07-13T05:34:04.000Z</time>
      </trkpt>
      <trkpt lat="42.44804" lon="2.83261">
        <ele>618.79998779297</ele>
        <time>2023-07-13T05:34:12.000Z</time>
      </trkpt>
      <trkpt lat="42.44805" lon="2.83259">
        <ele>618.79998779297</ele>
        <time>2023-07-13T05:34:13.000Z</time>
      </trkpt>
      <trkpt lat="42.44808" lon="2.83253">
        <ele>619.20001220703</ele>
        <time>2023-07-13T05:34:18.000Z</time>
      </trkpt>
      <trkpt lat="42.44813" lon="2.83247">
        <ele>619.59997558594</ele>
        <time>2023-07-13T05:34:24.000Z</time>
      </trkpt>
      <trkpt lat="42.44814" lon="2.83246">
        <ele>620.20001220703</ele>
        <time>2023-07-13T05:34:27.000Z</time>
      </trkpt>
      <trkpt lat="42.44816" lon="2.83245">
        <ele>620.79998779297</ele>
        <time>2023-07-13T05:34:31.000Z</time>
      </trkpt>
      <trkpt lat="42.44818" lon="2.8324">
        <ele>620.59997558594</ele>
        <time>2023-07-13T05:34:36.000Z</time>
      </trkpt>
      <trkpt lat="42.44824" lon="2.83229">
        <ele>621.40002441406</ele>
        <time>2023-07-13T05:34:46.000Z</time>
      </trkpt>
      <trkpt lat="42.44831" lon="2.83217">
        <ele>622.20001220703</ele>
        <time>2023-07-13T05:34:54.000Z</time>
      </trkpt>
      <trkpt lat="42.44832" lon="2.83215">
        <ele>622.40002441406</ele>
        <time>2023-07-13T05:34:55.000Z</time>
      </trkpt>
      <trkpt lat="42.44835" lon="2.83206">
        <ele>623.20001220703</ele>
        <time>2023-07-13T05:35:02.000Z</time>
      </trkpt>
      <trkpt lat="42.44836" lon="2.83202">
        <ele>623.40002441406</ele>
        <time>2023-07-13T05:35:05.000Z</time>
      </trkpt>
      <trkpt lat="42.44839" lon="2.83192">
        <ele>624</ele>
        <time>2023-07-13T05:35:11.000Z</time>
      </trkpt>
      <trkpt lat="42.44841" lon="2.83187">
        <ele>624.40002441406</ele>
        <time>2023-07-13T05:35:15.000Z</time>
      </trkpt>
      <trkpt lat="42.44845" lon="2.83178">
        <ele>624.79998779297</ele>
        <time>2023-07-13T05:35:21.000Z</time>
      </trkpt>
      <trkpt lat="42.44849" lon="2.83165">
        <ele>625.59997558594</ele>
        <time>2023-07-13T05:35:29.000Z</time>
      </trkpt>
      <trkpt lat="42.4485" lon="2.83162">
        <ele>626</ele>
        <time>2023-07-13T05:35:31.000Z</time>
      </trkpt>
      <trkpt lat="42.44852" lon="2.83155">
        <ele>626.79998779297</ele>
        <time>2023-07-13T05:35:36.000Z</time>
      </trkpt>
      <trkpt lat="42.44854" lon="2.83151">
        <ele>627</ele>
        <time>2023-07-13T05:35:39.000Z</time>
      </trkpt>
      <trkpt lat="42.44855" lon="2.83141">
        <ele>627.79998779297</ele>
        <time>2023-07-13T05:35:45.000Z</time>
      </trkpt>
      <trkpt lat="42.44855" lon="2.83136">
        <ele>628.20001220703</ele>
        <time>2023-07-13T05:35:48.000Z</time>
      </trkpt>
      <trkpt lat="42.44856" lon="2.83129">
        <ele>628.79998779297</ele>
        <time>2023-07-13T05:35:53.000Z</time>
      </trkpt>
      <trkpt lat="42.44857" lon="2.83119">
        <ele>629.20001220703</ele>
        <time>2023-07-13T05:35:58.000Z</time>
      </trkpt>
      <trkpt lat="42.44862" lon="2.83109">
        <ele>630</ele>
        <time>2023-07-13T05:36:04.000Z</time>
      </trkpt>
      <trkpt lat="42.44864" lon="2.83105">
        <ele>630.20001220703</ele>
        <time>2023-07-13T05:36:07.000Z</time>
      </trkpt>
      <trkpt lat="42.44869" lon="2.83093">
        <ele>630.79998779297</ele>
        <time>2023-07-13T05:36:16.000Z</time>
      </trkpt>
      <trkpt lat="42.44869" lon="2.83091">
        <ele>631</ele>
        <time>2023-07-13T05:36:17.000Z</time>
      </trkpt>
      <trkpt lat="42.44871" lon="2.83078">
        <ele>631.59997558594</ele>
        <time>2023-07-13T05:36:25.000Z</time>
      </trkpt>
      <trkpt lat="42.44871" lon="2.83076">
        <ele>632</ele>
        <time>2023-07-13T05:36:27.000Z</time>
      </trkpt>
      <trkpt lat="42.44874" lon="2.83066">
        <ele>633</ele>
        <time>2023-07-13T05:36:33.000Z</time>
      </trkpt>
      <trkpt lat="42.44874" lon="2.83064">
        <ele>633</ele>
        <time>2023-07-13T05:36:34.000Z</time>
      </trkpt>
      <trkpt lat="42.44879" lon="2.83049">
        <ele>634</ele>
        <time>2023-07-13T05:36:45.000Z</time>
      </trkpt>
      <trkpt lat="42.4488" lon="2.83048">
        <ele>634.20001220703</ele>
        <time>2023-07-13T05:36:46.000Z</time>
      </trkpt>
      <trkpt lat="42.44885" lon="2.83039">
        <ele>635.20001220703</ele>
        <time>2023-07-13T05:36:51.000Z</time>
      </trkpt>
      <trkpt lat="42.44887" lon="2.83036">
        <ele>635.40002441406</ele>
        <time>2023-07-13T05:36:54.000Z</time>
      </trkpt>
      <trkpt lat="42.44896" lon="2.83027">
        <ele>636.20001220703</ele>
        <time>2023-07-13T05:37:03.000Z</time>
      </trkpt>
      <trkpt lat="42.44899" lon="2.83018">
        <ele>637</ele>
        <time>2023-07-13T05:37:10.000Z</time>
      </trkpt>
      <trkpt lat="42.44901" lon="2.83015">
        <ele>637.20001220703</ele>
        <time>2023-07-13T05:37:12.000Z</time>
      </trkpt>
      <trkpt lat="42.44905" lon="2.83007">
        <ele>637.59997558594</ele>
        <time>2023-07-13T05:37:18.000Z</time>
      </trkpt>
      <trkpt lat="42.44908" lon="2.83003">
        <ele>638.40002441406</ele>
        <time>2023-07-13T05:37:21.000Z</time>
      </trkpt>
      <trkpt lat="42.44911" lon="2.82996">
        <ele>638.79998779297</ele>
        <time>2023-07-13T05:37:26.000Z</time>
      </trkpt>
      <trkpt lat="42.44915" lon="2.82987">
        <ele>639.59997558594</ele>
        <time>2023-07-13T05:37:31.000Z</time>
      </trkpt>
      <trkpt lat="42.44917" lon="2.82981">
        <ele>639.79998779297</ele>
        <time>2023-07-13T05:37:35.000Z</time>
      </trkpt>
      <trkpt lat="42.44917" lon="2.82971">
        <ele>640.59997558594</ele>
        <time>2023-07-13T05:37:42.000Z</time>
      </trkpt>
      <trkpt lat="42.44917" lon="2.8297">
        <ele>640.79998779297</ele>
        <time>2023-07-13T05:37:43.000Z</time>
      </trkpt>
      <trkpt lat="42.44917" lon="2.8297">
        <ele>641.20001220703</ele>
        <time>2023-07-13T05:37:49.000Z</time>
      </trkpt>
      <trkpt lat="42.44917" lon="2.82969">
        <ele>641.20001220703</ele>
        <time>2023-07-13T05:37:50.000Z</time>
      </trkpt>
      <trkpt lat="42.44919" lon="2.82972">
        <ele>641</ele>
        <time>2023-07-13T05:37:59.000Z</time>
      </trkpt>
      <trkpt lat="42.44921" lon="2.82973">
        <ele>641.20001220703</ele>
        <time>2023-07-13T05:38:06.000Z</time>
      </trkpt>
      <trkpt lat="42.44923" lon="2.82971">
        <ele>641</ele>
        <time>2023-07-13T05:38:13.000Z</time>
      </trkpt>
      <trkpt lat="42.44924" lon="2.82968">
        <ele>641.40002441406</ele>
        <time>2023-07-13T05:38:22.000Z</time>
      </trkpt>
      <trkpt lat="42.44925" lon="2.82965">
        <ele>641.59997558594</ele>
        <time>2023-07-13T05:38:25.000Z</time>
      </trkpt>
      <trkpt lat="42.44928" lon="2.82964">
        <ele>642.20001220703</ele>
        <time>2023-07-13T05:38:28.000Z</time>
      </trkpt>
      <trkpt lat="42.44932" lon="2.82957">
        <ele>642.20001220703</ele>
        <time>2023-07-13T05:38:36.000Z</time>
      </trkpt>
      <trkpt lat="42.44929" lon="2.82948">
        <ele>642.79998779297</ele>
        <time>2023-07-13T05:38:43.000Z</time>
      </trkpt>
      <trkpt lat="42.44923" lon="2.82952">
        <ele>643.79998779297</ele>
        <time>2023-07-13T05:38:48.000Z</time>
      </trkpt>
      <trkpt lat="42.4492" lon="2.82954">
        <ele>644.40002441406</ele>
        <time>2023-07-13T05:38:51.000Z</time>
      </trkpt>
      <trkpt lat="42.44917" lon="2.82959">
        <ele>644.79998779297</ele>
        <time>2023-07-13T05:38:55.000Z</time>
      </trkpt>
      <trkpt lat="42.44913" lon="2.82966">
        <ele>645.40002441406</ele>
        <time>2023-07-13T05:39:00.000Z</time>
      </trkpt>
      <trkpt lat="42.44901" lon="2.82981">
        <ele>645.79998779297</ele>
        <time>2023-07-13T05:39:09.000Z</time>
      </trkpt>
      <trkpt lat="42.449" lon="2.82983">
        <ele>646</ele>
        <time>2023-07-13T05:39:11.000Z</time>
      </trkpt>
      <trkpt lat="42.44891" lon="2.82994">
        <ele>647</ele>
        <time>2023-07-13T05:39:20.000Z</time>
      </trkpt>
      <trkpt lat="42.44881" lon="2.83001">
        <ele>647.59997558594</ele>
        <time>2023-07-13T05:39:29.000Z</time>
      </trkpt>
      <trkpt lat="42.44876" lon="2.83006">
        <ele>648.20001220703</ele>
        <time>2023-07-13T05:39:34.000Z</time>
      </trkpt>
      <trkpt lat="42.44872" lon="2.83009">
        <ele>648.59997558594</ele>
        <time>2023-07-13T05:39:37.000Z</time>
      </trkpt>
      <trkpt lat="42.44871" lon="2.8301">
        <ele>649.20001220703</ele>
        <time>2023-07-13T05:39:39.000Z</time>
      </trkpt>
      <trkpt lat="42.44865" lon="2.83015">
        <ele>650.40002441406</ele>
        <time>2023-07-13T05:39:44.000Z</time>
      </trkpt>
      <trkpt lat="42.44857" lon="2.83022">
        <ele>651.20001220703</ele>
        <time>2023-07-13T05:39:53.000Z</time>
      </trkpt>
      <trkpt lat="42.44854" lon="2.83023">
        <ele>651.40002441406</ele>
        <time>2023-07-13T05:39:56.000Z</time>
      </trkpt>
      <trkpt lat="42.44843" lon="2.83021">
        <ele>652.40002441406</ele>
        <time>2023-07-13T05:40:15.000Z</time>
      </trkpt>
      <trkpt lat="42.44841" lon="2.83021">
        <ele>652.59997558594</ele>
        <time>2023-07-13T05:40:22.000Z</time>
      </trkpt>
      <trkpt lat="42.44837" lon="2.83033">
        <ele>653</ele>
        <time>2023-07-13T05:40:31.000Z</time>
      </trkpt>
      <trkpt lat="42.44835" lon="2.8304">
        <ele>653.59997558594</ele>
        <time>2023-07-13T05:40:34.000Z</time>
      </trkpt>
      <trkpt lat="42.4483" lon="2.83048">
        <ele>654.20001220703</ele>
        <time>2023-07-13T05:40:39.000Z</time>
      </trkpt>
      <trkpt lat="42.44828" lon="2.83049">
        <ele>654.59997558594</ele>
        <time>2023-07-13T05:40:41.000Z</time>
      </trkpt>
      <trkpt lat="42.4482" lon="2.8306">
        <ele>655.79998779297</ele>
        <time>2023-07-13T05:40:49.000Z</time>
      </trkpt>
      <trkpt lat="42.44811" lon="2.83066">
        <ele>656.59997558594</ele>
        <time>2023-07-13T05:40:56.000Z</time>
      </trkpt>
      <trkpt lat="42.44809" lon="2.83069">
        <ele>656.79998779297</ele>
        <time>2023-07-13T05:40:58.000Z</time>
      </trkpt>
      <trkpt lat="42.44802" lon="2.83075">
        <ele>657.79998779297</ele>
        <time>2023-07-13T05:41:05.000Z</time>
      </trkpt>
      <trkpt lat="42.44796" lon="2.83082">
        <ele>658.79998779297</ele>
        <time>2023-07-13T05:41:12.000Z</time>
      </trkpt>
      <trkpt lat="42.44796" lon="2.83083">
        <ele>659</ele>
        <time>2023-07-13T05:41:13.000Z</time>
      </trkpt>
      <trkpt lat="42.44787" lon="2.83091">
        <ele>659.59997558594</ele>
        <time>2023-07-13T05:41:22.000Z</time>
      </trkpt>
      <trkpt lat="42.44781" lon="2.83094">
        <ele>660</ele>
        <time>2023-07-13T05:41:27.000Z</time>
      </trkpt>
      <trkpt lat="42.44777" lon="2.83097">
        <ele>660.20001220703</ele>
        <time>2023-07-13T05:41:30.000Z</time>
      </trkpt>
      <trkpt lat="42.44772" lon="2.83104">
        <ele>661.20001220703</ele>
        <time>2023-07-13T05:41:36.000Z</time>
      </trkpt>
      <trkpt lat="42.44769" lon="2.83105">
        <ele>661.59997558594</ele>
        <time>2023-07-13T05:41:39.000Z</time>
      </trkpt>
      <trkpt lat="42.4476" lon="2.8311">
        <ele>662.20001220703</ele>
        <time>2023-07-13T05:41:45.000Z</time>
      </trkpt>
      <trkpt lat="42.44758" lon="2.83111">
        <ele>662.40002441406</ele>
        <time>2023-07-13T05:41:47.000Z</time>
      </trkpt>
      <trkpt lat="42.4475" lon="2.83116">
        <ele>663.20001220703</ele>
        <time>2023-07-13T05:41:54.000Z</time>
      </trkpt>
      <trkpt lat="42.44749" lon="2.83117">
        <ele>663.20001220703</ele>
        <time>2023-07-13T05:41:55.000Z</time>
      </trkpt>
      <trkpt lat="42.44743" lon="2.83121">
        <ele>663.79998779297</ele>
        <time>2023-07-13T05:42:01.000Z</time>
      </trkpt>
      <trkpt lat="42.44737" lon="2.83128">
        <ele>664.40002441406</ele>
        <time>2023-07-13T05:42:07.000Z</time>
      </trkpt>
      <trkpt lat="42.44729" lon="2.83134">
        <ele>665</ele>
        <time>2023-07-13T05:42:15.000Z</time>
      </trkpt>
      <trkpt lat="42.44725" lon="2.83136">
        <ele>665.40002441406</ele>
        <time>2023-07-13T05:42:19.000Z</time>
      </trkpt>
      <trkpt lat="42.44721" lon="2.83138">
        <ele>665.79998779297</ele>
        <time>2023-07-13T05:42:22.000Z</time>
      </trkpt>
      <trkpt lat="42.44716" lon="2.83141">
        <ele>666.59997558594</ele>
        <time>2023-07-13T05:42:27.000Z</time>
      </trkpt>
      <trkpt lat="42.44712" lon="2.83145">
        <ele>667.20001220703</ele>
        <time>2023-07-13T05:42:32.000Z</time>
      </trkpt>
      <trkpt lat="42.44706" lon="2.8315">
        <ele>667.59997558594</ele>
        <time>2023-07-13T05:42:39.000Z</time>
      </trkpt>
      <trkpt lat="42.44705" lon="2.8315">
        <ele>667.79998779297</ele>
        <time>2023-07-13T05:42:40.000Z</time>
      </trkpt>
      <trkpt lat="42.44693" lon="2.83157">
        <ele>668.59997558594</ele>
        <time>2023-07-13T05:42:48.000Z</time>
      </trkpt>
      <trkpt lat="42.44692" lon="2.83158">
        <ele>668.79998779297</ele>
        <time>2023-07-13T05:42:49.000Z</time>
      </trkpt>
      <trkpt lat="42.44682" lon="2.83162">
        <ele>669.59997558594</ele>
        <time>2023-07-13T05:42:56.000Z</time>
      </trkpt>
      <trkpt lat="42.44681" lon="2.83162">
        <ele>669.79998779297</ele>
        <time>2023-07-13T05:42:57.000Z</time>
      </trkpt>
      <trkpt lat="42.44672" lon="2.83162">
        <ele>670.40002441406</ele>
        <time>2023-07-13T05:43:05.000Z</time>
      </trkpt>
      <trkpt lat="42.44665" lon="2.83164">
        <ele>670.79998779297</ele>
        <time>2023-07-13T05:43:10.000Z</time>
      </trkpt>
      <trkpt lat="42.44658" lon="2.83167">
        <ele>671.40002441406</ele>
        <time>2023-07-13T05:43:14.000Z</time>
      </trkpt>
      <trkpt lat="42.44642" lon="2.83169">
        <ele>673</ele>
        <time>2023-07-13T05:43:28.000Z</time>
      </trkpt>
      <trkpt lat="42.44638" lon="2.83168">
        <ele>673</ele>
        <time>2023-07-13T05:43:31.000Z</time>
      </trkpt>
      <trkpt lat="42.44632" lon="2.83165">
        <ele>673.79998779297</ele>
        <time>2023-07-13T05:43:36.000Z</time>
      </trkpt>
      <trkpt lat="42.44629" lon="2.83162">
        <ele>674.20001220703</ele>
        <time>2023-07-13T05:43:39.000Z</time>
      </trkpt>
      <trkpt lat="42.44625" lon="2.83158">
        <ele>674.40002441406</ele>
        <time>2023-07-13T05:43:44.000Z</time>
      </trkpt>
      <trkpt lat="42.44602" lon="2.83147">
        <ele>674.20001220703</ele>
        <time>2023-07-13T05:44:02.000Z</time>
      </trkpt>
      <trkpt lat="42.44565" lon="2.83139">
        <ele>673.59997558594</ele>
        <time>2023-07-13T05:44:28.000Z</time>
      </trkpt>
      <trkpt lat="42.44493" lon="2.83131">
        <ele>672</ele>
        <time>2023-07-13T05:45:16.000Z</time>
      </trkpt>
      <trkpt lat="42.44487" lon="2.8312">
        <ele>672.59997558594</ele>
        <time>2023-07-13T05:45:23.000Z</time>
      </trkpt>
      <trkpt lat="42.44486" lon="2.83117">
        <ele>672.79998779297</ele>
        <time>2023-07-13T05:45:28.000Z</time>
      </trkpt>
      <trkpt lat="42.44485" lon="2.83111">
        <ele>672.59997558594</ele>
        <time>2023-07-13T05:45:35.000Z</time>
      </trkpt>
      <trkpt lat="42.44484" lon="2.83105">
        <ele>672.59997558594</ele>
        <time>2023-07-13T05:45:41.000Z</time>
      </trkpt>
      <trkpt lat="42.44483" lon="2.83102">
        <ele>673.20001220703</ele>
        <time>2023-07-13T05:45:47.000Z</time>
      </trkpt>
      <trkpt lat="42.44483" lon="2.831">
        <ele>673.20001220703</ele>
        <time>2023-07-13T05:45:49.000Z</time>
      </trkpt>
      <trkpt lat="42.44479" lon="2.83089">
        <ele>673.59997558594</ele>
        <time>2023-07-13T05:45:56.000Z</time>
      </trkpt>
      <trkpt lat="42.44477" lon="2.83081">
        <ele>674.20001220703</ele>
        <time>2023-07-13T05:46:01.000Z</time>
      </trkpt>
      <trkpt lat="42.44475" lon="2.83075">
        <ele>674.40002441406</ele>
        <time>2023-07-13T05:46:04.000Z</time>
      </trkpt>
      <trkpt lat="42.44476" lon="2.83068">
        <ele>674.59997558594</ele>
        <time>2023-07-13T05:46:10.000Z</time>
      </trkpt>
      <trkpt lat="42.44477" lon="2.83059">
        <ele>674.59997558594</ele>
        <time>2023-07-13T05:46:15.000Z</time>
      </trkpt>
      <trkpt lat="42.44481" lon="2.83045">
        <ele>675.20001220703</ele>
        <time>2023-07-13T05:46:21.000Z</time>
      </trkpt>
      <trkpt lat="42.44483" lon="2.83041">
        <ele>675.40002441406</ele>
        <time>2023-07-13T05:46:24.000Z</time>
      </trkpt>
      <trkpt lat="42.44489" lon="2.83032">
        <ele>676.20001220703</ele>
        <time>2023-07-13T05:46:30.000Z</time>
      </trkpt>
      <trkpt lat="42.44491" lon="2.83026">
        <ele>676.40002441406</ele>
        <time>2023-07-13T05:46:33.000Z</time>
      </trkpt>
      <trkpt lat="42.44491" lon="2.83017">
        <ele>676.79998779297</ele>
        <time>2023-07-13T05:46:40.000Z</time>
      </trkpt>
      <trkpt lat="42.4449" lon="2.83013">
        <ele>677.40002441406</ele>
        <time>2023-07-13T05:46:43.000Z</time>
      </trkpt>
      <trkpt lat="42.44487" lon="2.83005">
        <ele>677.79998779297</ele>
        <time>2023-07-13T05:46:48.000Z</time>
      </trkpt>
      <trkpt lat="42.44484" lon="2.82999">
        <ele>678.40002441406</ele>
        <time>2023-07-13T05:46:53.000Z</time>
      </trkpt>
      <trkpt lat="42.44481" lon="2.82995">
        <ele>679</ele>
        <time>2023-07-13T05:46:56.000Z</time>
      </trkpt>
      <trkpt lat="42.44477" lon="2.82991">
        <ele>679.40002441406</ele>
        <time>2023-07-13T05:47:00.000Z</time>
      </trkpt>
      <trkpt lat="42.44475" lon="2.82986">
        <ele>679.59997558594</ele>
        <time>2023-07-13T05:47:03.000Z</time>
      </trkpt>
      <trkpt lat="42.44468" lon="2.82977">
        <ele>680.40002441406</ele>
        <time>2023-07-13T05:47:11.000Z</time>
      </trkpt>
      <trkpt lat="42.44466" lon="2.82975">
        <ele>681</ele>
        <time>2023-07-13T05:47:13.000Z</time>
      </trkpt>
      <trkpt lat="42.44457" lon="2.82969">
        <ele>681.40002441406</ele>
        <time>2023-07-13T05:47:22.000Z</time>
      </trkpt>
      <trkpt lat="42.44452" lon="2.82966">
        <ele>681.40002441406</ele>
        <time>2023-07-13T05:47:26.000Z</time>
      </trkpt>
      <trkpt lat="42.44446" lon="2.82963">
        <ele>682</ele>
        <time>2023-07-13T05:47:32.000Z</time>
      </trkpt>
      <trkpt lat="42.44433" lon="2.82961">
        <ele>683.20001220703</ele>
        <time>2023-07-13T05:47:42.000Z</time>
      </trkpt>
      <trkpt lat="42.44428" lon="2.8296">
        <ele>683.59997558594</ele>
        <time>2023-07-13T05:47:46.000Z</time>
      </trkpt>
      <trkpt lat="42.44425" lon="2.82959">
        <ele>684.40002441406</ele>
        <time>2023-07-13T05:47:51.000Z</time>
      </trkpt>
      <trkpt lat="42.44424" lon="2.82959">
        <ele>684.79998779297</ele>
        <time>2023-07-13T05:47:52.000Z</time>
      </trkpt>
      <trkpt lat="42.44416" lon="2.82956">
        <ele>685.20001220703</ele>
        <time>2023-07-13T05:47:59.000Z</time>
      </trkpt>
      <trkpt lat="42.44411" lon="2.82954">
        <ele>685.79998779297</ele>
        <time>2023-07-13T05:48:02.000Z</time>
      </trkpt>
      <trkpt lat="42.44402" lon="2.8295">
        <ele>686.59997558594</ele>
        <time>2023-07-13T05:48:09.000Z</time>
      </trkpt>
      <trkpt lat="42.444" lon="2.8295">
        <ele>687.20001220703</ele>
        <time>2023-07-13T05:48:11.000Z</time>
      </trkpt>
      <trkpt lat="42.44396" lon="2.82947">
        <ele>687.40002441406</ele>
        <time>2023-07-13T05:48:15.000Z</time>
      </trkpt>
      <trkpt lat="42.44388" lon="2.82943">
        <ele>688.20001220703</ele>
        <time>2023-07-13T05:48:23.000Z</time>
      </trkpt>
      <trkpt lat="42.44378" lon="2.82941">
        <ele>688.79998779297</ele>
        <time>2023-07-13T05:48:32.000Z</time>
      </trkpt>
      <trkpt lat="42.44371" lon="2.82939">
        <ele>689.20001220703</ele>
        <time>2023-07-13T05:48:36.000Z</time>
      </trkpt>
      <trkpt lat="42.44365" lon="2.82937">
        <ele>690.20001220703</ele>
        <time>2023-07-13T05:48:41.000Z</time>
      </trkpt>
      <trkpt lat="42.44363" lon="2.82937">
        <ele>690.40002441406</ele>
        <time>2023-07-13T05:48:43.000Z</time>
      </trkpt>
      <trkpt lat="42.44353" lon="2.82935">
        <ele>691</ele>
        <time>2023-07-13T05:48:51.000Z</time>
      </trkpt>
      <trkpt lat="42.44349" lon="2.82934">
        <ele>691.40002441406</ele>
        <time>2023-07-13T05:48:57.000Z</time>
      </trkpt>
      <trkpt lat="42.44322" lon="2.8294">
        <ele>694</ele>
        <time>2023-07-13T05:49:18.000Z</time>
      </trkpt>
      <trkpt lat="42.44318" lon="2.8294">
        <ele>694.59997558594</ele>
        <time>2023-07-13T05:49:22.000Z</time>
      </trkpt>
      <trkpt lat="42.44315" lon="2.8294">
        <ele>694.59997558594</ele>
        <time>2023-07-13T05:49:24.000Z</time>
      </trkpt>
      <trkpt lat="42.44308" lon="2.82941">
        <ele>695.20001220703</ele>
        <time>2023-07-13T05:49:29.000Z</time>
      </trkpt>
      <trkpt lat="42.44303" lon="2.82941">
        <ele>695.59997558594</ele>
        <time>2023-07-13T05:49:34.000Z</time>
      </trkpt>
      <trkpt lat="42.443" lon="2.82941">
        <ele>696.20001220703</ele>
        <time>2023-07-13T05:49:36.000Z</time>
      </trkpt>
      <trkpt lat="42.44295" lon="2.82939">
        <ele>696.59997558594</ele>
        <time>2023-07-13T05:49:40.000Z</time>
      </trkpt>
      <trkpt lat="42.44292" lon="2.82938">
        <ele>697</ele>
        <time>2023-07-13T05:49:42.000Z</time>
      </trkpt>
      <trkpt lat="42.44283" lon="2.82933">
        <ele>697.79998779297</ele>
        <time>2023-07-13T05:49:50.000Z</time>
      </trkpt>
      <trkpt lat="42.44275" lon="2.82924">
        <ele>698.79998779297</ele>
        <time>2023-07-13T05:49:58.000Z</time>
      </trkpt>
      <trkpt lat="42.4427" lon="2.82907">
        <ele>699.59997558594</ele>
        <time>2023-07-13T05:50:08.000Z</time>
      </trkpt>
      <trkpt lat="42.44269" lon="2.82904">
        <ele>700</ele>
        <time>2023-07-13T05:50:10.000Z</time>
      </trkpt>
      <trkpt lat="42.44266" lon="2.82894">
        <ele>700.40002441406</ele>
        <time>2023-07-13T05:50:18.000Z</time>
      </trkpt>
      <trkpt lat="42.44263" lon="2.82886">
        <ele>701</ele>
        <time>2023-07-13T05:50:24.000Z</time>
      </trkpt>
      <trkpt lat="42.4426" lon="2.8288">
        <ele>701.20001220703</ele>
        <time>2023-07-13T05:50:28.000Z</time>
      </trkpt>
      <trkpt lat="42.44256" lon="2.82872">
        <ele>702</ele>
        <time>2023-07-13T05:50:33.000Z</time>
      </trkpt>
      <trkpt lat="42.44254" lon="2.82866">
        <ele>702.59997558594</ele>
        <time>2023-07-13T05:50:37.000Z</time>
      </trkpt>
      <trkpt lat="42.4425" lon="2.8286">
        <ele>703.20001220703</ele>
        <time>2023-07-13T05:50:43.000Z</time>
      </trkpt>
      <trkpt lat="42.44248" lon="2.82857">
        <ele>703.40002441406</ele>
        <time>2023-07-13T05:50:45.000Z</time>
      </trkpt>
      <trkpt lat="42.44239" lon="2.82845">
        <ele>704.20001220703</ele>
        <time>2023-07-13T05:50:54.000Z</time>
      </trkpt>
      <trkpt lat="42.44238" lon="2.82843">
        <ele>704.20001220703</ele>
        <time>2023-07-13T05:50:55.000Z</time>
      </trkpt>
      <trkpt lat="42.44228" lon="2.82836">
        <ele>705.20001220703</ele>
        <time>2023-07-13T05:51:04.000Z</time>
      </trkpt>
      <trkpt lat="42.44226" lon="2.82835">
        <ele>705.40002441406</ele>
        <time>2023-07-13T05:51:05.000Z</time>
      </trkpt>
      <trkpt lat="42.44217" lon="2.82831">
        <ele>705.59997558594</ele>
        <time>2023-07-13T05:51:13.000Z</time>
      </trkpt>
      <trkpt lat="42.4421" lon="2.82828">
        <ele>706.20001220703</ele>
        <time>2023-07-13T05:51:19.000Z</time>
      </trkpt>
      <trkpt lat="42.44209" lon="2.82827">
        <ele>706.40002441406</ele>
        <time>2023-07-13T05:51:20.000Z</time>
      </trkpt>
      <trkpt lat="42.44204" lon="2.82825">
        <ele>707.20001220703</ele>
        <time>2023-07-13T05:51:24.000Z</time>
      </trkpt>
      <trkpt lat="42.44199" lon="2.82824">
        <ele>707.20001220703</ele>
        <time>2023-07-13T05:51:27.000Z</time>
      </trkpt>
      <trkpt lat="42.44189" lon="2.82819">
        <ele>707.20001220703</ele>
        <time>2023-07-13T05:51:34.000Z</time>
      </trkpt>
      <trkpt lat="42.44184" lon="2.82816">
        <ele>708.59997558594</ele>
        <time>2023-07-13T05:51:39.000Z</time>
      </trkpt>
      <trkpt lat="42.4418" lon="2.82812">
        <ele>708.79998779297</ele>
        <time>2023-07-13T05:51:44.000Z</time>
      </trkpt>
      <trkpt lat="42.44175" lon="2.82807">
        <ele>709.59997558594</ele>
        <time>2023-07-13T05:51:50.000Z</time>
      </trkpt>
      <trkpt lat="42.44174" lon="2.82807">
        <ele>709.59997558594</ele>
        <time>2023-07-13T05:51:51.000Z</time>
      </trkpt>
      <trkpt lat="42.44167" lon="2.82802">
        <ele>709.59997558594</ele>
        <time>2023-07-13T05:51:58.000Z</time>
      </trkpt>
      <trkpt lat="42.44159" lon="2.82798">
        <ele>710</ele>
        <time>2023-07-13T05:52:04.000Z</time>
      </trkpt>
      <trkpt lat="42.44151" lon="2.82793">
        <ele>710.40002441406</ele>
        <time>2023-07-13T05:52:11.000Z</time>
      </trkpt>
      <trkpt lat="42.4415" lon="2.82794">
        <ele>710.79998779297</ele>
        <time>2023-07-13T05:52:16.000Z</time>
      </trkpt>
      <trkpt lat="42.4414" lon="2.82791">
        <ele>711.20001220703</ele>
        <time>2023-07-13T05:52:24.000Z</time>
      </trkpt>
      <trkpt lat="42.44122" lon="2.82777">
        <ele>712.20001220703</ele>
        <time>2023-07-13T05:52:41.000Z</time>
      </trkpt>
      <trkpt lat="42.44115" lon="2.82771">
        <ele>712.79998779297</ele>
        <time>2023-07-13T05:52:49.000Z</time>
      </trkpt>
      <trkpt lat="42.44113" lon="2.8277">
        <ele>712.79998779297</ele>
        <time>2023-07-13T05:52:50.000Z</time>
      </trkpt>
      <trkpt lat="42.44102" lon="2.82762">
        <ele>713.40002441406</ele>
        <time>2023-07-13T05:52:58.000Z</time>
      </trkpt>
      <trkpt lat="42.44094" lon="2.82756">
        <ele>713.79998779297</ele>
        <time>2023-07-13T05:53:06.000Z</time>
      </trkpt>
      <trkpt lat="42.44093" lon="2.82756">
        <ele>713.79998779297</ele>
        <time>2023-07-13T05:53:07.000Z</time>
      </trkpt>
      <trkpt lat="42.44089" lon="2.82753">
        <ele>714.20001220703</ele>
        <time>2023-07-13T05:53:13.000Z</time>
      </trkpt>
      <trkpt lat="42.44082" lon="2.8275">
        <ele>714.59997558594</ele>
        <time>2023-07-13T05:53:19.000Z</time>
      </trkpt>
      <trkpt lat="42.44073" lon="2.82744">
        <ele>714.79998779297</ele>
        <time>2023-07-13T05:53:27.000Z</time>
      </trkpt>
      <trkpt lat="42.44067" lon="2.82737">
        <ele>715</ele>
        <time>2023-07-13T05:53:31.000Z</time>
      </trkpt>
      <trkpt lat="42.44066" lon="2.82736">
        <ele>715.20001220703</ele>
        <time>2023-07-13T05:53:32.000Z</time>
      </trkpt>
      <trkpt lat="42.4406" lon="2.8273">
        <ele>716</ele>
        <time>2023-07-13T05:53:38.000Z</time>
      </trkpt>
      <trkpt lat="42.44059" lon="2.82729">
        <ele>716</ele>
        <time>2023-07-13T05:53:40.000Z</time>
      </trkpt>
      <trkpt lat="42.44053" lon="2.82727">
        <ele>716.40002441406</ele>
        <time>2023-07-13T05:53:46.000Z</time>
      </trkpt>
      <trkpt lat="42.44045" lon="2.82724">
        <ele>716.79998779297</ele>
        <time>2023-07-13T05:53:52.000Z</time>
      </trkpt>
      <trkpt lat="42.44043" lon="2.82723">
        <ele>716.79998779297</ele>
        <time>2023-07-13T05:53:53.000Z</time>
      </trkpt>
      <trkpt lat="42.44035" lon="2.82718">
        <ele>717.20001220703</ele>
        <time>2023-07-13T05:53:57.000Z</time>
      </trkpt>
      <trkpt lat="42.4403" lon="2.82715">
        <ele>717.20001220703</ele>
        <time>2023-07-13T05:53:59.000Z</time>
      </trkpt>
      <trkpt lat="42.44021" lon="2.82709">
        <ele>717.59997558594</ele>
        <time>2023-07-13T05:54:05.000Z</time>
      </trkpt>
      <trkpt lat="42.4401" lon="2.82703">
        <ele>718</ele>
        <time>2023-07-13T05:54:13.000Z</time>
      </trkpt>
      <trkpt lat="42.44005" lon="2.82701">
        <ele>718.20001220703</ele>
        <time>2023-07-13T05:54:16.000Z</time>
      </trkpt>
      <trkpt lat="42.43998" lon="2.82697">
        <ele>718.40002441406</ele>
        <time>2023-07-13T05:54:20.000Z</time>
      </trkpt>
      <trkpt lat="42.43994" lon="2.82694">
        <ele>718.59997558594</ele>
        <time>2023-07-13T05:54:27.000Z</time>
      </trkpt>
      <trkpt lat="42.43985" lon="2.8269">
        <ele>719</ele>
        <time>2023-07-13T05:54:34.000Z</time>
      </trkpt>
      <trkpt lat="42.43982" lon="2.82689">
        <ele>719.20001220703</ele>
        <time>2023-07-13T05:54:35.000Z</time>
      </trkpt>
      <trkpt lat="42.43976" lon="2.82688">
        <ele>719.20001220703</ele>
        <time>2023-07-13T05:54:39.000Z</time>
      </trkpt>
      <trkpt lat="42.43963" lon="2.82687">
        <ele>718.79998779297</ele>
        <time>2023-07-13T05:54:49.000Z</time>
      </trkpt>
      <trkpt lat="42.43952" lon="2.82688">
        <ele>718.79998779297</ele>
        <time>2023-07-13T05:54:59.000Z</time>
      </trkpt>
      <trkpt lat="42.43939" lon="2.82681">
        <ele>718.40002441406</ele>
        <time>2023-07-13T05:55:08.000Z</time>
      </trkpt>
      <trkpt lat="42.43932" lon="2.82672">
        <ele>719.20001220703</ele>
        <time>2023-07-13T05:55:18.000Z</time>
      </trkpt>
      <trkpt lat="42.43932" lon="2.82672">
        <ele>719.20001220703</ele>
        <time>2023-07-13T05:55:19.000Z</time>
      </trkpt>
      <trkpt lat="42.43932" lon="2.82669">
        <ele>719</ele>
        <time>2023-07-13T05:55:27.000Z</time>
      </trkpt>
      <trkpt lat="42.4393" lon="2.82653">
        <ele>718.20001220703</ele>
        <time>2023-07-13T05:55:35.000Z</time>
      </trkpt>
      <trkpt lat="42.4393" lon="2.82649">
        <ele>718.20001220703</ele>
        <time>2023-07-13T05:55:37.000Z</time>
      </trkpt>
      <trkpt lat="42.43929" lon="2.8263">
        <ele>719.20001220703</ele>
        <time>2023-07-13T05:55:48.000Z</time>
      </trkpt>
      <trkpt lat="42.43926" lon="2.82617">
        <ele>720.40002441406</ele>
        <time>2023-07-13T05:55:56.000Z</time>
      </trkpt>
      <trkpt lat="42.43926" lon="2.82616">
        <ele>720.59997558594</ele>
        <time>2023-07-13T05:55:57.000Z</time>
      </trkpt>
      <trkpt lat="42.43924" lon="2.82606">
        <ele>721.40002441406</ele>
        <time>2023-07-13T05:56:02.000Z</time>
      </trkpt>
      <trkpt lat="42.43923" lon="2.82601">
        <ele>721.59997558594</ele>
        <time>2023-07-13T05:56:05.000Z</time>
      </trkpt>
      <trkpt lat="42.43922" lon="2.82597">
        <ele>722.40002441406</ele>
        <time>2023-07-13T05:56:07.000Z</time>
      </trkpt>
      <trkpt lat="42.43919" lon="2.82584">
        <ele>722.59997558594</ele>
        <time>2023-07-13T05:56:14.000Z</time>
      </trkpt>
      <trkpt lat="42.43915" lon="2.82563">
        <ele>723.20001220703</ele>
        <time>2023-07-13T05:56:25.000Z</time>
      </trkpt>
      <trkpt lat="42.43915" lon="2.82554">
        <ele>723.59997558594</ele>
        <time>2023-07-13T05:56:30.000Z</time>
      </trkpt>
      <trkpt lat="42.43916" lon="2.82552">
        <ele>724.20001220703</ele>
        <time>2023-07-13T05:56:32.000Z</time>
      </trkpt>
      <trkpt lat="42.43916" lon="2.82543">
        <ele>724.59997558594</ele>
        <time>2023-07-13T05:56:38.000Z</time>
      </trkpt>
      <trkpt lat="42.43916" lon="2.82542">
        <ele>724.79998779297</ele>
        <time>2023-07-13T05:56:39.000Z</time>
      </trkpt>
      <trkpt lat="42.43918" lon="2.82528">
        <ele>725.59997558594</ele>
        <time>2023-07-13T05:56:48.000Z</time>
      </trkpt>
      <trkpt lat="42.43925" lon="2.82504">
        <ele>726</ele>
        <time>2023-07-13T05:57:01.000Z</time>
      </trkpt>
      <trkpt lat="42.4393" lon="2.82487">
        <ele>726.20001220703</ele>
        <time>2023-07-13T05:57:10.000Z</time>
      </trkpt>
      <trkpt lat="42.43929" lon="2.82474">
        <ele>726.20001220703</ele>
        <time>2023-07-13T05:57:17.000Z</time>
      </trkpt>
      <trkpt lat="42.43929" lon="2.82457">
        <ele>726.20001220703</ele>
        <time>2023-07-13T05:57:26.000Z</time>
      </trkpt>
      <trkpt lat="42.43932" lon="2.82438">
        <ele>725.79998779297</ele>
        <time>2023-07-13T05:57:36.000Z</time>
      </trkpt>
      <trkpt lat="42.43936" lon="2.82419">
        <ele>725.20001220703</ele>
        <time>2023-07-13T05:57:45.000Z</time>
      </trkpt>
      <trkpt lat="42.43936" lon="2.8241">
        <ele>724.59997558594</ele>
        <time>2023-07-13T05:57:51.000Z</time>
      </trkpt>
      <trkpt lat="42.43936" lon="2.82408">
        <ele>724.40002441406</ele>
        <time>2023-07-13T05:57:52.000Z</time>
      </trkpt>
      <trkpt lat="42.43941" lon="2.82391">
        <ele>724.59997558594</ele>
        <time>2023-07-13T05:58:01.000Z</time>
      </trkpt>
      <trkpt lat="42.43944" lon="2.82378">
        <ele>724.40002441406</ele>
        <time>2023-07-13T05:58:09.000Z</time>
      </trkpt>
      <trkpt lat="42.43952" lon="2.82361">
        <ele>724.40002441406</ele>
        <time>2023-07-13T05:58:19.000Z</time>
      </trkpt>
      <trkpt lat="42.43955" lon="2.82355">
        <ele>723.40002441406</ele>
        <time>2023-07-13T05:58:23.000Z</time>
      </trkpt>
      <trkpt lat="42.43959" lon="2.8235">
        <ele>723</ele>
        <time>2023-07-13T05:58:27.000Z</time>
      </trkpt>
      <trkpt lat="42.43968" lon="2.82335">
        <ele>722.79998779297</ele>
        <time>2023-07-13T05:58:38.000Z</time>
      </trkpt>
      <trkpt lat="42.43971" lon="2.82327">
        <ele>722.20001220703</ele>
        <time>2023-07-13T05:58:43.000Z</time>
      </trkpt>
      <trkpt lat="42.4397" lon="2.82326">
        <ele>722.20001220703</ele>
        <time>2023-07-13T05:58:44.000Z</time>
      </trkpt>
      <trkpt lat="42.43973" lon="2.82315">
        <ele>721.20001220703</ele>
        <time>2023-07-13T05:58:50.000Z</time>
      </trkpt>
      <trkpt lat="42.43976" lon="2.82309">
        <ele>721</ele>
        <time>2023-07-13T05:58:53.000Z</time>
      </trkpt>
      <trkpt lat="42.4398" lon="2.82298">
        <ele>720.20001220703</ele>
        <time>2023-07-13T05:58:59.000Z</time>
      </trkpt>
      <trkpt lat="42.43983" lon="2.82291">
        <ele>719.79998779297</ele>
        <time>2023-07-13T05:59:03.000Z</time>
      </trkpt>
      <trkpt lat="42.43986" lon="2.82284">
        <ele>719.20001220703</ele>
        <time>2023-07-13T05:59:08.000Z</time>
      </trkpt>
      <trkpt lat="42.43988" lon="2.82278">
        <ele>718.59997558594</ele>
        <time>2023-07-13T05:59:11.000Z</time>
      </trkpt>
      <trkpt lat="42.43991" lon="2.82266">
        <ele>718.20001220703</ele>
        <time>2023-07-13T05:59:18.000Z</time>
      </trkpt>
      <trkpt lat="42.43993" lon="2.82263">
        <ele>717.79998779297</ele>
        <time>2023-07-13T05:59:20.000Z</time>
      </trkpt>
      <trkpt lat="42.43995" lon="2.82257">
        <ele>716.79998779297</ele>
        <time>2023-07-13T05:59:24.000Z</time>
      </trkpt>
      <trkpt lat="42.44001" lon="2.82246">
        <ele>716.40002441406</ele>
        <time>2023-07-13T05:59:31.000Z</time>
      </trkpt>
      <trkpt lat="42.44011" lon="2.82231">
        <ele>715.40002441406</ele>
        <time>2023-07-13T05:59:40.000Z</time>
      </trkpt>
      <trkpt lat="42.44018" lon="2.82218">
        <ele>714.20001220703</ele>
        <time>2023-07-13T05:59:49.000Z</time>
      </trkpt>
      <trkpt lat="42.44023" lon="2.82206">
        <ele>713</ele>
        <time>2023-07-13T05:59:55.000Z</time>
      </trkpt>
      <trkpt lat="42.44026" lon="2.82196">
        <ele>712.79998779297</ele>
        <time>2023-07-13T06:00:00.000Z</time>
      </trkpt>
      <trkpt lat="42.44028" lon="2.82187">
        <ele>712</ele>
        <time>2023-07-13T06:00:05.000Z</time>
      </trkpt>
      <trkpt lat="42.44029" lon="2.82183">
        <ele>711.59997558594</ele>
        <time>2023-07-13T06:00:07.000Z</time>
      </trkpt>
      <trkpt lat="42.44032" lon="2.82167">
        <ele>711</ele>
        <time>2023-07-13T06:00:15.000Z</time>
      </trkpt>
      <trkpt lat="42.44033" lon="2.82165">
        <ele>710.79998779297</ele>
        <time>2023-07-13T06:00:16.000Z</time>
      </trkpt>
      <trkpt lat="42.44035" lon="2.82155">
        <ele>709.59997558594</ele>
        <time>2023-07-13T06:00:21.000Z</time>
      </trkpt>
      <trkpt lat="42.44036" lon="2.82151">
        <ele>709.40002441406</ele>
        <time>2023-07-13T06:00:23.000Z</time>
      </trkpt>
      <trkpt lat="42.44038" lon="2.82134">
        <ele>708.59997558594</ele>
        <time>2023-07-13T06:00:32.000Z</time>
      </trkpt>
      <trkpt lat="42.44039" lon="2.8213">
        <ele>708.40002441406</ele>
        <time>2023-07-13T06:00:34.000Z</time>
      </trkpt>
      <trkpt lat="42.4404" lon="2.82122">
        <ele>707.59997558594</ele>
        <time>2023-07-13T06:00:38.000Z</time>
      </trkpt>
      <trkpt lat="42.44043" lon="2.82115">
        <ele>707.20001220703</ele>
        <time>2023-07-13T06:00:42.000Z</time>
      </trkpt>
      <trkpt lat="42.44045" lon="2.82111">
        <ele>706.40002441406</ele>
        <time>2023-07-13T06:00:44.000Z</time>
      </trkpt>
      <trkpt lat="42.44048" lon="2.82104">
        <ele>705.40002441406</ele>
        <time>2023-07-13T06:00:49.000Z</time>
      </trkpt>
      <trkpt lat="42.4405" lon="2.82098">
        <ele>704.79998779297</ele>
        <time>2023-07-13T06:00:52.000Z</time>
      </trkpt>
      <trkpt lat="42.44053" lon="2.82092">
        <ele>704.40002441406</ele>
        <time>2023-07-13T06:00:56.000Z</time>
      </trkpt>
      <trkpt lat="42.44055" lon="2.82083">
        <ele>703.40002441406</ele>
        <time>2023-07-13T06:01:01.000Z</time>
      </trkpt>
      <trkpt lat="42.44055" lon="2.82081">
        <ele>703.20001220703</ele>
        <time>2023-07-13T06:01:02.000Z</time>
      </trkpt>
      <trkpt lat="42.44057" lon="2.82069">
        <ele>702.40002441406</ele>
        <time>2023-07-13T06:01:08.000Z</time>
      </trkpt>
      <trkpt lat="42.44057" lon="2.82065">
        <ele>702</ele>
        <time>2023-07-13T06:01:10.000Z</time>
      </trkpt>
      <trkpt lat="42.44061" lon="2.82047">
        <ele>701.40002441406</ele>
        <time>2023-07-13T06:01:19.000Z</time>
      </trkpt>
      <trkpt lat="42.44063" lon="2.82032">
        <ele>701.40002441406</ele>
        <time>2023-07-13T06:01:28.000Z</time>
      </trkpt>
      <trkpt lat="42.44064" lon="2.8203">
        <ele>701.20001220703</ele>
        <time>2023-07-13T06:01:29.000Z</time>
      </trkpt>
      <trkpt lat="42.4406" lon="2.82013">
        <ele>700.40002441406</ele>
        <time>2023-07-13T06:01:38.000Z</time>
      </trkpt>
      <trkpt lat="42.4406" lon="2.82011">
        <ele>700.20001220703</ele>
        <time>2023-07-13T06:01:39.000Z</time>
      </trkpt>
      <trkpt lat="42.44056" lon="2.82">
        <ele>699.20001220703</ele>
        <time>2023-07-13T06:01:45.000Z</time>
      </trkpt>
      <trkpt lat="42.44056" lon="2.81993">
        <ele>698.40002441406</ele>
        <time>2023-07-13T06:01:48.000Z</time>
      </trkpt>
      <trkpt lat="42.44056" lon="2.8199">
        <ele>698.20001220703</ele>
        <time>2023-07-13T06:01:49.000Z</time>
      </trkpt>
      <trkpt lat="42.44057" lon="2.8198">
        <ele>698</ele>
        <time>2023-07-13T06:01:55.000Z</time>
      </trkpt>
      <trkpt lat="42.44058" lon="2.81973">
        <ele>698.40002441406</ele>
        <time>2023-07-13T06:02:02.000Z</time>
      </trkpt>
      <trkpt lat="42.44058" lon="2.81973">
        <ele>698</ele>
        <time>2023-07-13T06:02:12.000Z</time>
      </trkpt>
      <trkpt lat="42.44059" lon="2.81974">
        <ele>697.79998779297</ele>
        <time>2023-07-13T06:02:21.000Z</time>
      </trkpt>
      <trkpt lat="42.44067" lon="2.81967">
        <ele>698.40002441406</ele>
        <time>2023-07-13T06:02:28.000Z</time>
      </trkpt>
      <trkpt lat="42.44072" lon="2.81959">
        <ele>697.59997558594</ele>
        <time>2023-07-13T06:02:35.000Z</time>
      </trkpt>
      <trkpt lat="42.4408" lon="2.81951">
        <ele>697.40002441406</ele>
        <time>2023-07-13T06:02:44.000Z</time>
      </trkpt>
      <trkpt lat="42.44083" lon="2.81949">
        <ele>697</ele>
        <time>2023-07-13T06:02:46.000Z</time>
      </trkpt>
      <trkpt lat="42.44089" lon="2.81943">
        <ele>696.20001220703</ele>
        <time>2023-07-13T06:02:52.000Z</time>
      </trkpt>
      <trkpt lat="42.44092" lon="2.81942">
        <ele>695.79998779297</ele>
        <time>2023-07-13T06:02:54.000Z</time>
      </trkpt>
      <trkpt lat="42.441" lon="2.81938">
        <ele>695.40002441406</ele>
        <time>2023-07-13T06:03:00.000Z</time>
      </trkpt>
      <trkpt lat="42.4411" lon="2.81931">
        <ele>695.40002441406</ele>
        <time>2023-07-13T06:03:08.000Z</time>
      </trkpt>
      <trkpt lat="42.44115" lon="2.81926">
        <ele>694.79998779297</ele>
        <time>2023-07-13T06:03:11.000Z</time>
      </trkpt>
      <trkpt lat="42.44119" lon="2.81919">
        <ele>694.20001220703</ele>
        <time>2023-07-13T06:03:16.000Z</time>
      </trkpt>
      <trkpt lat="42.44121" lon="2.81916">
        <ele>693.59997558594</ele>
        <time>2023-07-13T06:03:18.000Z</time>
      </trkpt>
      <trkpt lat="42.44124" lon="2.81907">
        <ele>692.20001220703</ele>
        <time>2023-07-13T06:03:22.000Z</time>
      </trkpt>
      <trkpt lat="42.44125" lon="2.81903">
        <ele>692</ele>
        <time>2023-07-13T06:03:24.000Z</time>
      </trkpt>
      <trkpt lat="42.44129" lon="2.8189">
        <ele>691.20001220703</ele>
        <time>2023-07-13T06:03:30.000Z</time>
      </trkpt>
      <trkpt lat="42.44133" lon="2.8188">
        <ele>690.40002441406</ele>
        <time>2023-07-13T06:03:35.000Z</time>
      </trkpt>
      <trkpt lat="42.44136" lon="2.81878">
        <ele>689.79998779297</ele>
        <time>2023-07-13T06:03:37.000Z</time>
      </trkpt>
      <trkpt lat="42.44143" lon="2.81871">
        <ele>688.79998779297</ele>
        <time>2023-07-13T06:03:43.000Z</time>
      </trkpt>
      <trkpt lat="42.44144" lon="2.8187">
        <ele>688.59997558594</ele>
        <time>2023-07-13T06:03:44.000Z</time>
      </trkpt>
      <trkpt lat="42.4415" lon="2.81861">
        <ele>687.40002441406</ele>
        <time>2023-07-13T06:03:51.000Z</time>
      </trkpt>
      <trkpt lat="42.44151" lon="2.81857">
        <ele>686.59997558594</ele>
        <time>2023-07-13T06:03:54.000Z</time>
      </trkpt>
      <trkpt lat="42.44152" lon="2.81855">
        <ele>686.40002441406</ele>
        <time>2023-07-13T06:03:55.000Z</time>
      </trkpt>
      <trkpt lat="42.44155" lon="2.81852">
        <ele>685.40002441406</ele>
        <time>2023-07-13T06:03:58.000Z</time>
      </trkpt>
      <trkpt lat="42.44158" lon="2.81845">
        <ele>685</ele>
        <time>2023-07-13T06:04:02.000Z</time>
      </trkpt>
      <trkpt lat="42.44163" lon="2.81832">
        <ele>684.20001220703</ele>
        <time>2023-07-13T06:04:09.000Z</time>
      </trkpt>
      <trkpt lat="42.44164" lon="2.8183">
        <ele>684</ele>
        <time>2023-07-13T06:04:10.000Z</time>
      </trkpt>
      <trkpt lat="42.44168" lon="2.8182">
        <ele>683.20001220703</ele>
        <time>2023-07-13T06:04:16.000Z</time>
      </trkpt>
      <trkpt lat="42.44173" lon="2.81811">
        <ele>682.59997558594</ele>
        <time>2023-07-13T06:04:20.000Z</time>
      </trkpt>
      <trkpt lat="42.44175" lon="2.81807">
        <ele>682</ele>
        <time>2023-07-13T06:04:22.000Z</time>
      </trkpt>
      <trkpt lat="42.4418" lon="2.81794">
        <ele>681</ele>
        <time>2023-07-13T06:04:29.000Z</time>
      </trkpt>
      <trkpt lat="42.44182" lon="2.81785">
        <ele>679.79998779297</ele>
        <time>2023-07-13T06:04:35.000Z</time>
      </trkpt>
      <trkpt lat="42.44183" lon="2.81781">
        <ele>679.40002441406</ele>
        <time>2023-07-13T06:04:37.000Z</time>
      </trkpt>
      <trkpt lat="42.44184" lon="2.81773">
        <ele>678.79998779297</ele>
        <time>2023-07-13T06:04:42.000Z</time>
      </trkpt>
      <trkpt lat="42.44185" lon="2.8177">
        <ele>678.59997558594</ele>
        <time>2023-07-13T06:04:44.000Z</time>
      </trkpt>
      <trkpt lat="42.44192" lon="2.81753">
        <ele>678</ele>
        <time>2023-07-13T06:04:54.000Z</time>
      </trkpt>
      <trkpt lat="42.44193" lon="2.8175">
        <ele>677.79998779297</ele>
        <time>2023-07-13T06:04:56.000Z</time>
      </trkpt>
      <trkpt lat="42.44194" lon="2.81739">
        <ele>677</ele>
        <time>2023-07-13T06:05:04.000Z</time>
      </trkpt>
      <trkpt lat="42.44191" lon="2.81731">
        <ele>677</ele>
        <time>2023-07-13T06:05:11.000Z</time>
      </trkpt>
      <trkpt lat="42.4419" lon="2.81731">
        <ele>677</ele>
        <time>2023-07-13T06:05:14.000Z</time>
      </trkpt>
      <trkpt lat="42.44186" lon="2.81727">
        <ele>677.20001220703</ele>
        <time>2023-07-13T06:05:27.000Z</time>
      </trkpt>
      <trkpt lat="42.44187" lon="2.81729">
        <ele>677.40002441406</ele>
        <time>2023-07-13T06:05:33.000Z</time>
      </trkpt>
      <trkpt lat="42.44178" lon="2.8172">
        <ele>677.20001220703</ele>
        <time>2023-07-13T06:05:41.000Z</time>
      </trkpt>
      <trkpt lat="42.44168" lon="2.81711">
        <ele>677</ele>
        <time>2023-07-13T06:05:49.000Z</time>
      </trkpt>
      <trkpt lat="42.44165" lon="2.81709">
        <ele>676.59997558594</ele>
        <time>2023-07-13T06:05:53.000Z</time>
      </trkpt>
      <trkpt lat="42.44161" lon="2.81707">
        <ele>676</ele>
        <time>2023-07-13T06:05:57.000Z</time>
      </trkpt>
      <trkpt lat="42.44155" lon="2.81704">
        <ele>675.59997558594</ele>
        <time>2023-07-13T06:06:01.000Z</time>
      </trkpt>
      <trkpt lat="42.44149" lon="2.817">
        <ele>675</ele>
        <time>2023-07-13T06:06:06.000Z</time>
      </trkpt>
      <trkpt lat="42.44144" lon="2.81695">
        <ele>674.40002441406</ele>
        <time>2023-07-13T06:06:11.000Z</time>
      </trkpt>
      <trkpt lat="42.44143" lon="2.81692">
        <ele>674.20001220703</ele>
        <time>2023-07-13T06:06:13.000Z</time>
      </trkpt>
      <trkpt lat="42.44136" lon="2.8168">
        <ele>673.40002441406</ele>
        <time>2023-07-13T06:06:21.000Z</time>
      </trkpt>
      <trkpt lat="42.44134" lon="2.81677">
        <ele>673.20001220703</ele>
        <time>2023-07-13T06:06:23.000Z</time>
      </trkpt>
      <trkpt lat="42.44126" lon="2.81658">
        <ele>672.40002441406</ele>
        <time>2023-07-13T06:06:32.000Z</time>
      </trkpt>
      <trkpt lat="42.44125" lon="2.81656">
        <ele>672.20001220703</ele>
        <time>2023-07-13T06:06:33.000Z</time>
      </trkpt>
      <trkpt lat="42.44122" lon="2.81638">
        <ele>671.79998779297</ele>
        <time>2023-07-13T06:06:43.000Z</time>
      </trkpt>
      <trkpt lat="42.44123" lon="2.81625">
        <ele>672.59997558594</ele>
        <time>2023-07-13T06:06:50.000Z</time>
      </trkpt>
      <trkpt lat="42.44125" lon="2.81609">
        <ele>672.40002441406</ele>
        <time>2023-07-13T06:06:59.000Z</time>
      </trkpt>
      <trkpt lat="42.44127" lon="2.81598">
        <ele>672.59997558594</ele>
        <time>2023-07-13T06:07:07.000Z</time>
      </trkpt>
      <trkpt lat="42.44129" lon="2.81584">
        <ele>673.40002441406</ele>
        <time>2023-07-13T06:07:14.000Z</time>
      </trkpt>
      <trkpt lat="42.4413" lon="2.81582">
        <ele>673.40002441406</ele>
        <time>2023-07-13T06:07:15.000Z</time>
      </trkpt>
      <trkpt lat="42.44135" lon="2.81563">
        <ele>672.59997558594</ele>
        <time>2023-07-13T06:07:25.000Z</time>
      </trkpt>
      <trkpt lat="42.44136" lon="2.81558">
        <ele>672.20001220703</ele>
        <time>2023-07-13T06:07:28.000Z</time>
      </trkpt>
      <trkpt lat="42.4414" lon="2.81547">
        <ele>672.20001220703</ele>
        <time>2023-07-13T06:07:34.000Z</time>
      </trkpt>
      <trkpt lat="42.44144" lon="2.81533">
        <ele>672</ele>
        <time>2023-07-13T06:07:43.000Z</time>
      </trkpt>
      <trkpt lat="42.44146" lon="2.81522">
        <ele>672.20001220703</ele>
        <time>2023-07-13T06:07:52.000Z</time>
      </trkpt>
      <trkpt lat="42.44145" lon="2.81506">
        <ele>672.59997558594</ele>
        <time>2023-07-13T06:08:00.000Z</time>
      </trkpt>
      <trkpt lat="42.44143" lon="2.81487">
        <ele>673</ele>
        <time>2023-07-13T06:08:10.000Z</time>
      </trkpt>
      <trkpt lat="42.4414" lon="2.81474">
        <ele>673.20001220703</ele>
        <time>2023-07-13T06:08:18.000Z</time>
      </trkpt>
      <trkpt lat="42.4414" lon="2.81472">
        <ele>673.40002441406</ele>
        <time>2023-07-13T06:08:19.000Z</time>
      </trkpt>
      <trkpt lat="42.44135" lon="2.81455">
        <ele>673.59997558594</ele>
        <time>2023-07-13T06:08:28.000Z</time>
      </trkpt>
      <trkpt lat="42.44129" lon="2.81442">
        <ele>674.20001220703</ele>
        <time>2023-07-13T06:08:36.000Z</time>
      </trkpt>
      <trkpt lat="42.44126" lon="2.81433">
        <ele>674.40002441406</ele>
        <time>2023-07-13T06:08:41.000Z</time>
      </trkpt>
      <trkpt lat="42.44125" lon="2.81432">
        <ele>674.40002441406</ele>
        <time>2023-07-13T06:08:42.000Z</time>
      </trkpt>
      <trkpt lat="42.4412" lon="2.81419">
        <ele>674</ele>
        <time>2023-07-13T06:08:50.000Z</time>
      </trkpt>
      <trkpt lat="42.44112" lon="2.81405">
        <ele>674.40002441406</ele>
        <time>2023-07-13T06:09:01.000Z</time>
      </trkpt>
      <trkpt lat="42.44106" lon="2.81396">
        <ele>675</ele>
        <time>2023-07-13T06:09:08.000Z</time>
      </trkpt>
      <trkpt lat="42.44101" lon="2.81383">
        <ele>675.40002441406</ele>
        <time>2023-07-13T06:09:15.000Z</time>
      </trkpt>
      <trkpt lat="42.44099" lon="2.81379">
        <ele>675.59997558594</ele>
        <time>2023-07-13T06:09:18.000Z</time>
      </trkpt>
      <trkpt lat="42.44094" lon="2.81364">
        <ele>675.79998779297</ele>
        <time>2023-07-13T06:09:25.000Z</time>
      </trkpt>
      <trkpt lat="42.44085" lon="2.81353">
        <ele>676</ele>
        <time>2023-07-13T06:09:34.000Z</time>
      </trkpt>
      <trkpt lat="42.4408" lon="2.81343">
        <ele>676.20001220703</ele>
        <time>2023-07-13T06:09:42.000Z</time>
      </trkpt>
      <trkpt lat="42.44079" lon="2.81332">
        <ele>676.20001220703</ele>
        <time>2023-07-13T06:09:48.000Z</time>
      </trkpt>
      <trkpt lat="42.44079" lon="2.81313">
        <ele>676</ele>
        <time>2023-07-13T06:09:58.000Z</time>
      </trkpt>
      <trkpt lat="42.44081" lon="2.81301">
        <ele>675.79998779297</ele>
        <time>2023-07-13T06:10:05.000Z</time>
      </trkpt>
      <trkpt lat="42.44085" lon="2.81291">
        <ele>676.40002441406</ele>
        <time>2023-07-13T06:10:12.000Z</time>
      </trkpt>
      <trkpt lat="42.4409" lon="2.81285">
        <ele>676.59997558594</ele>
        <time>2023-07-13T06:10:16.000Z</time>
      </trkpt>
      <trkpt lat="42.441" lon="2.81273">
        <ele>677</ele>
        <time>2023-07-13T06:10:24.000Z</time>
      </trkpt>
      <trkpt lat="42.44106" lon="2.81263">
        <ele>676.79998779297</ele>
        <time>2023-07-13T06:10:31.000Z</time>
      </trkpt>
      <trkpt lat="42.44107" lon="2.81244">
        <ele>676.79998779297</ele>
        <time>2023-07-13T06:10:39.000Z</time>
      </trkpt>
      <trkpt lat="42.44106" lon="2.81237">
        <ele>676.40002441406</ele>
        <time>2023-07-13T06:10:46.000Z</time>
      </trkpt>
      <trkpt lat="42.44106" lon="2.8124">
        <ele>676</ele>
        <time>2023-07-13T06:10:55.000Z</time>
      </trkpt>
      <trkpt lat="42.44103" lon="2.81232">
        <ele>675.79998779297</ele>
        <time>2023-07-13T06:11:02.000Z</time>
      </trkpt>
      <trkpt lat="42.44097" lon="2.81216">
        <ele>675.59997558594</ele>
        <time>2023-07-13T06:11:11.000Z</time>
      </trkpt>
      <trkpt lat="42.44095" lon="2.81213">
        <ele>675.20001220703</ele>
        <time>2023-07-13T06:11:13.000Z</time>
      </trkpt>
      <trkpt lat="42.44091" lon="2.81205">
        <ele>674.40002441406</ele>
        <time>2023-07-13T06:11:18.000Z</time>
      </trkpt>
      <trkpt lat="42.44088" lon="2.81199">
        <ele>674</ele>
        <time>2023-07-13T06:11:21.000Z</time>
      </trkpt>
      <trkpt lat="42.44082" lon="2.81192">
        <ele>674.20001220703</ele>
        <time>2023-07-13T06:11:27.000Z</time>
      </trkpt>
      <trkpt lat="42.44069" lon="2.8118">
        <ele>673.79998779297</ele>
        <time>2023-07-13T06:11:36.000Z</time>
      </trkpt>
      <trkpt lat="42.4406" lon="2.81167">
        <ele>673.20001220703</ele>
        <time>2023-07-13T06:11:45.000Z</time>
      </trkpt>
      <trkpt lat="42.44057" lon="2.81161">
        <ele>673</ele>
        <time>2023-07-13T06:11:48.000Z</time>
      </trkpt>
      <trkpt lat="42.44055" lon="2.81155">
        <ele>672.59997558594</ele>
        <time>2023-07-13T06:11:52.000Z</time>
      </trkpt>
      <trkpt lat="42.44049" lon="2.81144">
        <ele>672.79998779297</ele>
        <time>2023-07-13T06:12:00.000Z</time>
      </trkpt>
      <trkpt lat="42.44042" lon="2.81127">
        <ele>673</ele>
        <time>2023-07-13T06:12:10.000Z</time>
      </trkpt>
      <trkpt lat="42.44033" lon="2.81111">
        <ele>673.40002441406</ele>
        <time>2023-07-13T06:12:19.000Z</time>
      </trkpt>
      <trkpt lat="42.44021" lon="2.81108">
        <ele>673.20001220703</ele>
        <time>2023-07-13T06:12:28.000Z</time>
      </trkpt>
      <trkpt lat="42.44007" lon="2.81109">
        <ele>672.20001220703</ele>
        <time>2023-07-13T06:12:38.000Z</time>
      </trkpt>
      <trkpt lat="42.44003" lon="2.81109">
        <ele>672</ele>
        <time>2023-07-13T06:12:41.000Z</time>
      </trkpt>
      <trkpt lat="42.43996" lon="2.81107">
        <ele>671.40002441406</ele>
        <time>2023-07-13T06:12:45.000Z</time>
      </trkpt>
      <trkpt lat="42.43988" lon="2.81107">
        <ele>671.20001220703</ele>
        <time>2023-07-13T06:12:52.000Z</time>
      </trkpt>
      <trkpt lat="42.43984" lon="2.81108">
        <ele>671.20001220703</ele>
        <time>2023-07-13T06:13:00.000Z</time>
      </trkpt>
      <trkpt lat="42.43968" lon="2.81114">
        <ele>671.40002441406</ele>
        <time>2023-07-13T06:13:11.000Z</time>
      </trkpt>
      <trkpt lat="42.43958" lon="2.81113">
        <ele>671.79998779297</ele>
        <time>2023-07-13T06:13:19.000Z</time>
      </trkpt>
      <trkpt lat="42.43947" lon="2.81106">
        <ele>672</ele>
        <time>2023-07-13T06:13:27.000Z</time>
      </trkpt>
      <trkpt lat="42.43937" lon="2.81102">
        <ele>672</ele>
        <time>2023-07-13T06:13:35.000Z</time>
      </trkpt>
      <trkpt lat="42.43925" lon="2.81095">
        <ele>672.20001220703</ele>
        <time>2023-07-13T06:13:43.000Z</time>
      </trkpt>
      <trkpt lat="42.43914" lon="2.81081">
        <ele>672.40002441406</ele>
        <time>2023-07-13T06:13:53.000Z</time>
      </trkpt>
      <trkpt lat="42.43906" lon="2.81074">
        <ele>672.40002441406</ele>
        <time>2023-07-13T06:14:00.000Z</time>
      </trkpt>
      <trkpt lat="42.43899" lon="2.81066">
        <ele>672.20001220703</ele>
        <time>2023-07-13T06:14:08.000Z</time>
      </trkpt>
      <trkpt lat="42.43892" lon="2.81059">
        <ele>672</ele>
        <time>2023-07-13T06:14:16.000Z</time>
      </trkpt>
      <trkpt lat="42.43883" lon="2.8105">
        <ele>672.20001220703</ele>
        <time>2023-07-13T06:14:24.000Z</time>
      </trkpt>
      <trkpt lat="42.4387" lon="2.81037">
        <ele>672</ele>
        <time>2023-07-13T06:14:33.000Z</time>
      </trkpt>
      <trkpt lat="42.43868" lon="2.81029">
        <ele>671.79998779297</ele>
        <time>2023-07-13T06:14:40.000Z</time>
      </trkpt>
      <trkpt lat="42.43866" lon="2.81028">
        <ele>672</ele>
        <time>2023-07-13T06:14:45.000Z</time>
      </trkpt>
      <trkpt lat="42.43865" lon="2.81029">
        <ele>672</ele>
        <time>2023-07-13T06:14:47.000Z</time>
      </trkpt>
      <trkpt lat="42.43865" lon="2.81028">
        <ele>672</ele>
        <time>2023-07-13T06:14:48.000Z</time>
      </trkpt>
      <trkpt lat="42.4386" lon="2.81028">
        <ele>672</ele>
        <time>2023-07-13T06:14:56.000Z</time>
      </trkpt>
      <trkpt lat="42.43852" lon="2.81019">
        <ele>671.79998779297</ele>
        <time>2023-07-13T06:15:04.000Z</time>
      </trkpt>
      <trkpt lat="42.43844" lon="2.81008">
        <ele>671.40002441406</ele>
        <time>2023-07-13T06:15:10.000Z</time>
      </trkpt>
      <trkpt lat="42.43841" lon="2.80999">
        <ele>670.79998779297</ele>
        <time>2023-07-13T06:15:15.000Z</time>
      </trkpt>
      <trkpt lat="42.43843" lon="2.80992">
        <ele>670.79998779297</ele>
        <time>2023-07-13T06:15:19.000Z</time>
      </trkpt>
      <trkpt lat="42.43847" lon="2.80984">
        <ele>671.20001220703</ele>
        <time>2023-07-13T06:15:24.000Z</time>
      </trkpt>
      <trkpt lat="42.4385" lon="2.80975">
        <ele>671.40002441406</ele>
        <time>2023-07-13T06:15:30.000Z</time>
      </trkpt>
      <trkpt lat="42.43857" lon="2.80956">
        <ele>670.59997558594</ele>
        <time>2023-07-13T06:15:43.000Z</time>
      </trkpt>
      <trkpt lat="42.43857" lon="2.80944">
        <ele>670.20001220703</ele>
        <time>2023-07-13T06:15:49.000Z</time>
      </trkpt>
      <trkpt lat="42.43856" lon="2.80934">
        <ele>670</ele>
        <time>2023-07-13T06:15:53.000Z</time>
      </trkpt>
      <trkpt lat="42.43856" lon="2.80918">
        <ele>669.79998779297</ele>
        <time>2023-07-13T06:16:02.000Z</time>
      </trkpt>
      <trkpt lat="42.43859" lon="2.809">
        <ele>669.79998779297</ele>
        <time>2023-07-13T06:16:10.000Z</time>
      </trkpt>
      <trkpt lat="42.43859" lon="2.80884">
        <ele>670.20001220703</ele>
        <time>2023-07-13T06:16:18.000Z</time>
      </trkpt>
      <trkpt lat="42.43859" lon="2.80873">
        <ele>670.59997558594</ele>
        <time>2023-07-13T06:16:25.000Z</time>
      </trkpt>
      <trkpt lat="42.43858" lon="2.80846">
        <ele>671.40002441406</ele>
        <time>2023-07-13T06:16:39.000Z</time>
      </trkpt>
      <trkpt lat="42.43857" lon="2.8084">
        <ele>671.79998779297</ele>
        <time>2023-07-13T06:16:43.000Z</time>
      </trkpt>
      <trkpt lat="42.43856" lon="2.80831">
        <ele>672.20001220703</ele>
        <time>2023-07-13T06:16:47.000Z</time>
      </trkpt>
      <trkpt lat="42.43853" lon="2.8082">
        <ele>672.79998779297</ele>
        <time>2023-07-13T06:16:53.000Z</time>
      </trkpt>
      <trkpt lat="42.43852" lon="2.80816">
        <ele>672.79998779297</ele>
        <time>2023-07-13T06:16:55.000Z</time>
      </trkpt>
      <trkpt lat="42.43851" lon="2.80803">
        <ele>673.40002441406</ele>
        <time>2023-07-13T06:17:02.000Z</time>
      </trkpt>
      <trkpt lat="42.43849" lon="2.80795">
        <ele>674</ele>
        <time>2023-07-13T06:17:07.000Z</time>
      </trkpt>
      <trkpt lat="42.43848" lon="2.80787">
        <ele>674.40002441406</ele>
        <time>2023-07-13T06:17:12.000Z</time>
      </trkpt>
      <trkpt lat="42.43849" lon="2.80778">
        <ele>675</ele>
        <time>2023-07-13T06:17:18.000Z</time>
      </trkpt>
      <trkpt lat="42.43848" lon="2.80774">
        <ele>675.20001220703</ele>
        <time>2023-07-13T06:17:20.000Z</time>
      </trkpt>
      <trkpt lat="42.43843" lon="2.8076">
        <ele>676</ele>
        <time>2023-07-13T06:17:29.000Z</time>
      </trkpt>
      <trkpt lat="42.43842" lon="2.80759">
        <ele>676</ele>
        <time>2023-07-13T06:17:30.000Z</time>
      </trkpt>
      <trkpt lat="42.43841" lon="2.80751">
        <ele>676.59997558594</ele>
        <time>2023-07-13T06:17:35.000Z</time>
      </trkpt>
      <trkpt lat="42.43838" lon="2.80743">
        <ele>677.20001220703</ele>
        <time>2023-07-13T06:17:41.000Z</time>
      </trkpt>
      <trkpt lat="42.43836" lon="2.80737">
        <ele>677.79998779297</ele>
        <time>2023-07-13T06:17:44.000Z</time>
      </trkpt>
      <trkpt lat="42.43836" lon="2.8073">
        <ele>678.59997558594</ele>
        <time>2023-07-13T06:17:47.000Z</time>
      </trkpt>
      <trkpt lat="42.43835" lon="2.80724">
        <ele>679.59997558594</ele>
        <time>2023-07-13T06:17:52.000Z</time>
      </trkpt>
      <trkpt lat="42.43835" lon="2.80722">
        <ele>679.79998779297</ele>
        <time>2023-07-13T06:17:53.000Z</time>
      </trkpt>
      <trkpt lat="42.43831" lon="2.80715">
        <ele>680.59997558594</ele>
        <time>2023-07-13T06:17:59.000Z</time>
      </trkpt>
      <trkpt lat="42.43831" lon="2.80713">
        <ele>680.79998779297</ele>
        <time>2023-07-13T06:18:00.000Z</time>
      </trkpt>
      <trkpt lat="42.43829" lon="2.80706">
        <ele>680.79998779297</ele>
        <time>2023-07-13T06:18:05.000Z</time>
      </trkpt>
      <trkpt lat="42.43824" lon="2.80698">
        <ele>681.79998779297</ele>
        <time>2023-07-13T06:18:13.000Z</time>
      </trkpt>
      <trkpt lat="42.43823" lon="2.80698">
        <ele>682</ele>
        <time>2023-07-13T06:18:15.000Z</time>
      </trkpt>
      <trkpt lat="42.4382" lon="2.80699">
        <ele>682.40002441406</ele>
        <time>2023-07-13T06:18:25.000Z</time>
      </trkpt>
      <trkpt lat="42.43817" lon="2.80702">
        <ele>682.59997558594</ele>
        <time>2023-07-13T06:18:33.000Z</time>
      </trkpt>
      <trkpt lat="42.43821" lon="2.80703">
        <ele>682.20001220703</ele>
        <time>2023-07-13T06:18:45.000Z</time>
      </trkpt>
      <trkpt lat="42.43821" lon="2.80705">
        <ele>682.20001220703</ele>
        <time>2023-07-13T06:18:53.000Z</time>
      </trkpt>
      <trkpt lat="42.43824" lon="2.80701">
        <ele>682.40002441406</ele>
        <time>2023-07-13T06:19:09.000Z</time>
      </trkpt>
      <trkpt lat="42.43817" lon="2.80694">
        <ele>682.79998779297</ele>
        <time>2023-07-13T06:19:19.000Z</time>
      </trkpt>
      <trkpt lat="42.43811" lon="2.80692">
        <ele>683.79998779297</ele>
        <time>2023-07-13T06:19:25.000Z</time>
      </trkpt>
      <trkpt lat="42.43799" lon="2.80685">
        <ele>685</ele>
        <time>2023-07-13T06:19:33.000Z</time>
      </trkpt>
      <trkpt lat="42.43791" lon="2.80679">
        <ele>685.59997558594</ele>
        <time>2023-07-13T06:19:39.000Z</time>
      </trkpt>
      <trkpt lat="42.43788" lon="2.80677">
        <ele>686</ele>
        <time>2023-07-13T06:19:42.000Z</time>
      </trkpt>
      <trkpt lat="42.43779" lon="2.80673">
        <ele>686.59997558594</ele>
        <time>2023-07-13T06:19:49.000Z</time>
      </trkpt>
      <trkpt lat="42.43776" lon="2.80672">
        <ele>687</ele>
        <time>2023-07-13T06:19:53.000Z</time>
      </trkpt>
      <trkpt lat="42.4377" lon="2.8066">
        <ele>688.59997558594</ele>
        <time>2023-07-13T06:20:07.000Z</time>
      </trkpt>
      <trkpt lat="42.43769" lon="2.80657">
        <ele>689</ele>
        <time>2023-07-13T06:20:09.000Z</time>
      </trkpt>
      <trkpt lat="42.43768" lon="2.80656">
        <ele>689</ele>
        <time>2023-07-13T06:20:10.000Z</time>
      </trkpt>
      <trkpt lat="42.43759" lon="2.80641">
        <ele>690</ele>
        <time>2023-07-13T06:20:19.000Z</time>
      </trkpt>
      <trkpt lat="42.43752" lon="2.80635">
        <ele>688.79998779297</ele>
        <time>2023-07-13T06:20:27.000Z</time>
      </trkpt>
      <trkpt lat="42.43743" lon="2.80628">
        <ele>688.20001220703</ele>
        <time>2023-07-13T06:20:35.000Z</time>
      </trkpt>
      <trkpt lat="42.43742" lon="2.80628">
        <ele>688</ele>
        <time>2023-07-13T06:20:36.000Z</time>
      </trkpt>
      <trkpt lat="42.43736" lon="2.80623">
        <ele>688.40002441406</ele>
        <time>2023-07-13T06:20:43.000Z</time>
      </trkpt>
      <trkpt lat="42.43728" lon="2.80615">
        <ele>689</ele>
        <time>2023-07-13T06:20:50.000Z</time>
      </trkpt>
      <trkpt lat="42.43726" lon="2.80612">
        <ele>689.20001220703</ele>
        <time>2023-07-13T06:20:52.000Z</time>
      </trkpt>
      <trkpt lat="42.43722" lon="2.80606">
        <ele>689.79998779297</ele>
        <time>2023-07-13T06:20:59.000Z</time>
      </trkpt>
      <trkpt lat="42.43718" lon="2.80603">
        <ele>690.20001220703</ele>
        <time>2023-07-13T06:21:04.000Z</time>
      </trkpt>
      <trkpt lat="42.43714" lon="2.80603">
        <ele>690.40002441406</ele>
        <time>2023-07-13T06:21:06.000Z</time>
      </trkpt>
      <trkpt lat="42.43708" lon="2.80602">
        <ele>691.20001220703</ele>
        <time>2023-07-13T06:21:11.000Z</time>
      </trkpt>
      <trkpt lat="42.43707" lon="2.80602">
        <ele>691.40002441406</ele>
        <time>2023-07-13T06:21:12.000Z</time>
      </trkpt>
      <trkpt lat="42.43705" lon="2.80601">
        <ele>691.59997558594</ele>
        <time>2023-07-13T06:21:13.000Z</time>
      </trkpt>
      <trkpt lat="42.43701" lon="2.80597">
        <ele>692.40002441406</ele>
        <time>2023-07-13T06:21:17.000Z</time>
      </trkpt>
      <trkpt lat="42.43699" lon="2.80597">
        <ele>692.79998779297</ele>
        <time>2023-07-13T06:21:19.000Z</time>
      </trkpt>
      <trkpt lat="42.43693" lon="2.80595">
        <ele>693.40002441406</ele>
        <time>2023-07-13T06:21:23.000Z</time>
      </trkpt>
      <trkpt lat="42.43688" lon="2.80593">
        <ele>693.79998779297</ele>
        <time>2023-07-13T06:21:26.000Z</time>
      </trkpt>
      <trkpt lat="42.43682" lon="2.80586">
        <ele>694.59997558594</ele>
        <time>2023-07-13T06:21:32.000Z</time>
      </trkpt>
      <trkpt lat="42.43682" lon="2.80585">
        <ele>694.59997558594</ele>
        <time>2023-07-13T06:21:33.000Z</time>
      </trkpt>
      <trkpt lat="42.43678" lon="2.80588">
        <ele>695</ele>
        <time>2023-07-13T06:21:39.000Z</time>
      </trkpt>
      <trkpt lat="42.43664" lon="2.8058">
        <ele>695.40002441406</ele>
        <time>2023-07-13T06:21:51.000Z</time>
      </trkpt>
      <trkpt lat="42.43662" lon="2.80573">
        <ele>695.59997558594</ele>
        <time>2023-07-13T06:21:56.000Z</time>
      </trkpt>
      <trkpt lat="42.43663" lon="2.80572">
        <ele>695.79998779297</ele>
        <time>2023-07-13T06:21:58.000Z</time>
      </trkpt>
      <trkpt lat="42.43661" lon="2.80573">
        <ele>696.20001220703</ele>
        <time>2023-07-13T06:22:02.000Z</time>
      </trkpt>
      <trkpt lat="42.43657" lon="2.80575">
        <ele>696.40002441406</ele>
        <time>2023-07-13T06:22:07.000Z</time>
      </trkpt>
      <trkpt lat="42.43655" lon="2.80574">
        <ele>696.59997558594</ele>
        <time>2023-07-13T06:22:09.000Z</time>
      </trkpt>
      <trkpt lat="42.43651" lon="2.80573">
        <ele>696.59997558594</ele>
        <time>2023-07-13T06:22:11.000Z</time>
      </trkpt>
      <trkpt lat="42.4365" lon="2.80572">
        <ele>696.59997558594</ele>
        <time>2023-07-13T06:22:12.000Z</time>
      </trkpt>
      <trkpt lat="42.43649" lon="2.80572">
        <ele>696.79998779297</ele>
        <time>2023-07-13T06:22:13.000Z</time>
      </trkpt>
      <trkpt lat="42.43649" lon="2.80572">
        <ele>696.79998779297</ele>
        <time>2023-07-13T06:22:14.000Z</time>
      </trkpt>
      <trkpt lat="42.43647" lon="2.80572">
        <ele>697</ele>
        <time>2023-07-13T06:22:17.000Z</time>
      </trkpt>
      <trkpt lat="42.43647" lon="2.80572">
        <ele>697.20001220703</ele>
        <time>2023-07-13T06:22:18.000Z</time>
      </trkpt>
      <trkpt lat="42.43644" lon="2.8057">
        <ele>697.79998779297</ele>
        <time>2023-07-13T06:22:21.000Z</time>
      </trkpt>
      <trkpt lat="42.4364" lon="2.80567">
        <ele>698.79998779297</ele>
        <time>2023-07-13T06:22:28.000Z</time>
      </trkpt>
      <trkpt lat="42.43637" lon="2.80567">
        <ele>699.20001220703</ele>
        <time>2023-07-13T06:22:32.000Z</time>
      </trkpt>
      <trkpt lat="42.43634" lon="2.80569">
        <ele>699.20001220703</ele>
        <time>2023-07-13T06:22:35.000Z</time>
      </trkpt>
      <trkpt lat="42.43543" lon="2.80592">
        <ele>700.79998779297</ele>
        <time>2023-07-13T06:24:10.000Z</time>
      </trkpt>
      <trkpt lat="42.43541" lon="2.80588">
        <ele>700.79998779297</ele>
        <time>2023-07-13T06:24:13.000Z</time>
      </trkpt>
      <trkpt lat="42.43538" lon="2.80574">
        <ele>701.20001220703</ele>
        <time>2023-07-13T06:24:22.000Z</time>
      </trkpt>
      <trkpt lat="42.43538" lon="2.80565">
        <ele>701.20001220703</ele>
        <time>2023-07-13T06:24:29.000Z</time>
      </trkpt>
      <trkpt lat="42.4354" lon="2.80551">
        <ele>701.59997558594</ele>
        <time>2023-07-13T06:24:39.000Z</time>
      </trkpt>
      <trkpt lat="42.43541" lon="2.80549">
        <ele>701.79998779297</ele>
        <time>2023-07-13T06:24:40.000Z</time>
      </trkpt>
      <trkpt lat="42.43542" lon="2.80543">
        <ele>702.20001220703</ele>
        <time>2023-07-13T06:24:44.000Z</time>
      </trkpt>
      <trkpt lat="42.43545" lon="2.80534">
        <ele>703</ele>
        <time>2023-07-13T06:24:50.000Z</time>
      </trkpt>
      <trkpt lat="42.43546" lon="2.80531">
        <ele>703</ele>
        <time>2023-07-13T06:24:51.000Z</time>
      </trkpt>
      <trkpt lat="42.43549" lon="2.80513">
        <ele>703.59997558594</ele>
        <time>2023-07-13T06:24:59.000Z</time>
      </trkpt>
      <trkpt lat="42.43552" lon="2.80507">
        <ele>704</ele>
        <time>2023-07-13T06:25:03.000Z</time>
      </trkpt>
      <trkpt lat="42.43555" lon="2.80498">
        <ele>704.20001220703</ele>
        <time>2023-07-13T06:25:09.000Z</time>
      </trkpt>
      <trkpt lat="42.43558" lon="2.80489">
        <ele>705.20001220703</ele>
        <time>2023-07-13T06:25:15.000Z</time>
      </trkpt>
      <trkpt lat="42.4356" lon="2.80483">
        <ele>705.59997558594</ele>
        <time>2023-07-13T06:25:19.000Z</time>
      </trkpt>
      <trkpt lat="42.43561" lon="2.80474">
        <ele>706.20001220703</ele>
        <time>2023-07-13T06:25:25.000Z</time>
      </trkpt>
      <trkpt lat="42.4356" lon="2.8047">
        <ele>706.79998779297</ele>
        <time>2023-07-13T06:25:29.000Z</time>
      </trkpt>
      <trkpt lat="42.4356" lon="2.80467">
        <ele>707.20001220703</ele>
        <time>2023-07-13T06:25:31.000Z</time>
      </trkpt>
      <trkpt lat="42.43561" lon="2.80458">
        <ele>708.20001220703</ele>
        <time>2023-07-13T06:25:37.000Z</time>
      </trkpt>
      <trkpt lat="42.43561" lon="2.80457">
        <ele>708.40002441406</ele>
        <time>2023-07-13T06:25:38.000Z</time>
      </trkpt>
      <trkpt lat="42.43559" lon="2.80449">
        <ele>709.59997558594</ele>
        <time>2023-07-13T06:25:44.000Z</time>
      </trkpt>
      <trkpt lat="42.43558" lon="2.8044">
        <ele>710.59997558594</ele>
        <time>2023-07-13T06:25:49.000Z</time>
      </trkpt>
      <trkpt lat="42.43558" lon="2.80438">
        <ele>711</ele>
        <time>2023-07-13T06:25:51.000Z</time>
      </trkpt>
      <trkpt lat="42.43558" lon="2.80435">
        <ele>711.59997558594</ele>
        <time>2023-07-13T06:25:55.000Z</time>
      </trkpt>
      <trkpt lat="42.43561" lon="2.80426">
        <ele>712.40002441406</ele>
        <time>2023-07-13T06:25:59.000Z</time>
      </trkpt>
      <trkpt lat="42.43563" lon="2.80421">
        <ele>712.79998779297</ele>
        <time>2023-07-13T06:26:01.000Z</time>
      </trkpt>
      <trkpt lat="42.43567" lon="2.80411">
        <ele>713.79998779297</ele>
        <time>2023-07-13T06:26:07.000Z</time>
      </trkpt>
      <trkpt lat="42.43567" lon="2.80404">
        <ele>715</ele>
        <time>2023-07-13T06:26:13.000Z</time>
      </trkpt>
      <trkpt lat="42.43565" lon="2.80398">
        <ele>715.20001220703</ele>
        <time>2023-07-13T06:26:16.000Z</time>
      </trkpt>
      <trkpt lat="42.43561" lon="2.80389">
        <ele>716</ele>
        <time>2023-07-13T06:26:22.000Z</time>
      </trkpt>
      <trkpt lat="42.43559" lon="2.80386">
        <ele>716.40002441406</ele>
        <time>2023-07-13T06:26:25.000Z</time>
      </trkpt>
      <trkpt lat="42.43557" lon="2.80382">
        <ele>717</ele>
        <time>2023-07-13T06:26:28.000Z</time>
      </trkpt>
      <trkpt lat="42.43558" lon="2.80378">
        <ele>717.79998779297</ele>
        <time>2023-07-13T06:26:32.000Z</time>
      </trkpt>
      <trkpt lat="42.43557" lon="2.80374">
        <ele>718.20001220703</ele>
        <time>2023-07-13T06:26:36.000Z</time>
      </trkpt>
      <trkpt lat="42.43557" lon="2.80372">
        <ele>718.20001220703</ele>
        <time>2023-07-13T06:26:38.000Z</time>
      </trkpt>
      <trkpt lat="42.43554" lon="2.80368">
        <ele>719</ele>
        <time>2023-07-13T06:26:44.000Z</time>
      </trkpt>
      <trkpt lat="42.43554" lon="2.80368">
        <ele>719.20001220703</ele>
        <time>2023-07-13T06:26:45.000Z</time>
      </trkpt>
      <trkpt lat="42.43548" lon="2.80362">
        <ele>719.59997558594</ele>
        <time>2023-07-13T06:26:51.000Z</time>
      </trkpt>
      <trkpt lat="42.43546" lon="2.80353">
        <ele>720.40002441406</ele>
        <time>2023-07-13T06:26:58.000Z</time>
      </trkpt>
      <trkpt lat="42.43544" lon="2.80351">
        <ele>720.59997558594</ele>
        <time>2023-07-13T06:27:00.000Z</time>
      </trkpt>
      <trkpt lat="42.43545" lon="2.80342">
        <ele>721.20001220703</ele>
        <time>2023-07-13T06:27:08.000Z</time>
      </trkpt>
      <trkpt lat="42.43545" lon="2.80342">
        <ele>721.40002441406</ele>
        <time>2023-07-13T06:27:10.000Z</time>
      </trkpt>
      <trkpt lat="42.43542" lon="2.80339">
        <ele>721.59997558594</ele>
        <time>2023-07-13T06:27:16.000Z</time>
      </trkpt>
      <trkpt lat="42.43541" lon="2.80335">
        <ele>721.59997558594</ele>
        <time>2023-07-13T06:27:23.000Z</time>
      </trkpt>
      <trkpt lat="42.43531" lon="2.80331">
        <ele>721.40002441406</ele>
        <time>2023-07-13T06:27:47.000Z</time>
      </trkpt>
      <trkpt lat="42.43525" lon="2.80324">
        <ele>722.40002441406</ele>
        <time>2023-07-13T06:27:54.000Z</time>
      </trkpt>
      <trkpt lat="42.43523" lon="2.80321">
        <ele>723.20001220703</ele>
        <time>2023-07-13T06:27:57.000Z</time>
      </trkpt>
      <trkpt lat="42.43521" lon="2.80319">
        <ele>723.59997558594</ele>
        <time>2023-07-13T06:27:59.000Z</time>
      </trkpt>
      <trkpt lat="42.43517" lon="2.80308">
        <ele>724.59997558594</ele>
        <time>2023-07-13T06:28:07.000Z</time>
      </trkpt>
      <trkpt lat="42.43514" lon="2.80301">
        <ele>725.59997558594</ele>
        <time>2023-07-13T06:28:14.000Z</time>
      </trkpt>
      <trkpt lat="42.43513" lon="2.803">
        <ele>725.79998779297</ele>
        <time>2023-07-13T06:28:15.000Z</time>
      </trkpt>
      <trkpt lat="42.43512" lon="2.80294">
        <ele>726.79998779297</ele>
        <time>2023-07-13T06:28:21.000Z</time>
      </trkpt>
      <trkpt lat="42.43511" lon="2.80292">
        <ele>727.20001220703</ele>
        <time>2023-07-13T06:28:24.000Z</time>
      </trkpt>
      <trkpt lat="42.43508" lon="2.80289">
        <ele>727.79998779297</ele>
        <time>2023-07-13T06:28:28.000Z</time>
      </trkpt>
      <trkpt lat="42.43506" lon="2.80284">
        <ele>728.40002441406</ele>
        <time>2023-07-13T06:28:31.000Z</time>
      </trkpt>
      <trkpt lat="42.43506" lon="2.80279">
        <ele>729</ele>
        <time>2023-07-13T06:28:34.000Z</time>
      </trkpt>
      <trkpt lat="42.43503" lon="2.8027">
        <ele>730</ele>
        <time>2023-07-13T06:28:40.000Z</time>
      </trkpt>
      <trkpt lat="42.43503" lon="2.80269">
        <ele>730.20001220703</ele>
        <time>2023-07-13T06:28:41.000Z</time>
      </trkpt>
      <trkpt lat="42.435" lon="2.80266">
        <ele>731.20001220703</ele>
        <time>2023-07-13T06:28:45.000Z</time>
      </trkpt>
      <trkpt lat="42.43498" lon="2.80261">
        <ele>731.79998779297</ele>
        <time>2023-07-13T06:28:49.000Z</time>
      </trkpt>
      <trkpt lat="42.43496" lon="2.80259">
        <ele>732.20001220703</ele>
        <time>2023-07-13T06:28:52.000Z</time>
      </trkpt>
      <trkpt lat="42.43494" lon="2.80252">
        <ele>733</ele>
        <time>2023-07-13T06:28:56.000Z</time>
      </trkpt>
      <trkpt lat="42.43493" lon="2.8025">
        <ele>733.40002441406</ele>
        <time>2023-07-13T06:28:58.000Z</time>
      </trkpt>
      <trkpt lat="42.4349" lon="2.80243">
        <ele>734.20001220703</ele>
        <time>2023-07-13T06:29:04.000Z</time>
      </trkpt>
      <trkpt lat="42.43488" lon="2.80242">
        <ele>734.40002441406</ele>
        <time>2023-07-13T06:29:06.000Z</time>
      </trkpt>
      <trkpt lat="42.43485" lon="2.80236">
        <ele>735.20001220703</ele>
        <time>2023-07-13T06:29:11.000Z</time>
      </trkpt>
      <trkpt lat="42.43484" lon="2.80233">
        <ele>735.59997558594</ele>
        <time>2023-07-13T06:29:13.000Z</time>
      </trkpt>
      <trkpt lat="42.4348" lon="2.80225">
        <ele>736</ele>
        <time>2023-07-13T06:29:18.000Z</time>
      </trkpt>
      <trkpt lat="42.4348" lon="2.80221">
        <ele>736.59997558594</ele>
        <time>2023-07-13T06:29:21.000Z</time>
      </trkpt>
      <trkpt lat="42.43477" lon="2.80214">
        <ele>737.40002441406</ele>
        <time>2023-07-13T06:29:25.000Z</time>
      </trkpt>
      <trkpt lat="42.43477" lon="2.80212">
        <ele>737.59997558594</ele>
        <time>2023-07-13T06:29:26.000Z</time>
      </trkpt>
      <trkpt lat="42.43472" lon="2.80208">
        <ele>738.40002441406</ele>
        <time>2023-07-13T06:29:31.000Z</time>
      </trkpt>
      <trkpt lat="42.43471" lon="2.80205">
        <ele>738.79998779297</ele>
        <time>2023-07-13T06:29:33.000Z</time>
      </trkpt>
      <trkpt lat="42.4347" lon="2.80197">
        <ele>739.40002441406</ele>
        <time>2023-07-13T06:29:38.000Z</time>
      </trkpt>
      <trkpt lat="42.4347" lon="2.8019">
        <ele>739.79998779297</ele>
        <time>2023-07-13T06:29:41.000Z</time>
      </trkpt>
      <trkpt lat="42.4347" lon="2.80181">
        <ele>740.59997558594</ele>
        <time>2023-07-13T06:29:46.000Z</time>
      </trkpt>
      <trkpt lat="42.4347" lon="2.80175">
        <ele>741</ele>
        <time>2023-07-13T06:29:49.000Z</time>
      </trkpt>
      <trkpt lat="42.43468" lon="2.80172">
        <ele>741.40002441406</ele>
        <time>2023-07-13T06:29:52.000Z</time>
      </trkpt>
      <trkpt lat="42.43467" lon="2.80167">
        <ele>742</ele>
        <time>2023-07-13T06:29:56.000Z</time>
      </trkpt>
      <trkpt lat="42.43467" lon="2.80157">
        <ele>742.59997558594</ele>
        <time>2023-07-13T06:30:00.000Z</time>
      </trkpt>
      <trkpt lat="42.43464" lon="2.80146">
        <ele>743.20001220703</ele>
        <time>2023-07-13T06:30:08.000Z</time>
      </trkpt>
      <trkpt lat="42.43463" lon="2.80138">
        <ele>743.59997558594</ele>
        <time>2023-07-13T06:30:15.000Z</time>
      </trkpt>
      <trkpt lat="42.43458" lon="2.80125">
        <ele>742.20001220703</ele>
        <time>2023-07-13T06:30:24.000Z</time>
      </trkpt>
      <trkpt lat="42.43458" lon="2.80123">
        <ele>742</ele>
        <time>2023-07-13T06:30:25.000Z</time>
      </trkpt>
      <trkpt lat="42.43454" lon="2.80114">
        <ele>741.20001220703</ele>
        <time>2023-07-13T06:30:31.000Z</time>
      </trkpt>
      <trkpt lat="42.43454" lon="2.80114">
        <ele>741</ele>
        <time>2023-07-13T06:30:32.000Z</time>
      </trkpt>
      <trkpt lat="42.43449" lon="2.80114">
        <ele>740.20001220703</ele>
        <time>2023-07-13T06:30:37.000Z</time>
      </trkpt>
      <trkpt lat="42.43448" lon="2.80113">
        <ele>739.79998779297</ele>
        <time>2023-07-13T06:30:38.000Z</time>
      </trkpt>
      <trkpt lat="42.43445" lon="2.80108">
        <ele>739</ele>
        <time>2023-07-13T06:30:44.000Z</time>
      </trkpt>
      <trkpt lat="42.43444" lon="2.80108">
        <ele>738.79998779297</ele>
        <time>2023-07-13T06:30:45.000Z</time>
      </trkpt>
      <trkpt lat="42.43435" lon="2.80107">
        <ele>738.20001220703</ele>
        <time>2023-07-13T06:30:51.000Z</time>
      </trkpt>
      <trkpt lat="42.43443" lon="2.80106">
        <ele>738</ele>
        <time>2023-07-13T06:30:52.000Z</time>
      </trkpt>
      <trkpt lat="42.43422" lon="2.80105">
        <ele>737</ele>
        <time>2023-07-13T06:30:58.000Z</time>
      </trkpt>
      <trkpt lat="42.43421" lon="2.80107">
        <ele>736.79998779297</ele>
        <time>2023-07-13T06:31:00.000Z</time>
      </trkpt>
      <trkpt lat="42.43429" lon="2.80106">
        <ele>736.59997558594</ele>
        <time>2023-07-13T06:31:01.000Z</time>
      </trkpt>
      <trkpt lat="42.43417" lon="2.80108">
        <ele>736.40002441406</ele>
        <time>2023-07-13T06:31:02.000Z</time>
      </trkpt>
      <trkpt lat="42.43405" lon="2.80109">
        <ele>735.79998779297</ele>
        <time>2023-07-13T06:31:08.000Z</time>
      </trkpt>
      <trkpt lat="42.43404" lon="2.80109">
        <ele>735.59997558594</ele>
        <time>2023-07-13T06:31:09.000Z</time>
      </trkpt>
      <trkpt lat="42.43398" lon="2.80107">
        <ele>735</ele>
        <time>2023-07-13T06:31:14.000Z</time>
      </trkpt>
      <trkpt lat="42.43372" lon="2.80099">
        <ele>733.40002441406</ele>
        <time>2023-07-13T06:31:30.000Z</time>
      </trkpt>
      <trkpt lat="42.43368" lon="2.80097">
        <ele>733.20001220703</ele>
        <time>2023-07-13T06:31:33.000Z</time>
      </trkpt>
      <trkpt lat="42.43359" lon="2.80092">
        <ele>732.20001220703</ele>
        <time>2023-07-13T06:31:40.000Z</time>
      </trkpt>
      <trkpt lat="42.43352" lon="2.8009">
        <ele>731.79998779297</ele>
        <time>2023-07-13T06:31:45.000Z</time>
      </trkpt>
      <trkpt lat="42.43335" lon="2.80084">
        <ele>731.20001220703</ele>
        <time>2023-07-13T06:31:57.000Z</time>
      </trkpt>
      <trkpt lat="42.43329" lon="2.80082">
        <ele>731</ele>
        <time>2023-07-13T06:32:01.000Z</time>
      </trkpt>
      <trkpt lat="42.43311" lon="2.80072">
        <ele>730.40002441406</ele>
        <time>2023-07-13T06:32:15.000Z</time>
      </trkpt>
      <trkpt lat="42.43304" lon="2.80067">
        <ele>730.20001220703</ele>
        <time>2023-07-13T06:32:20.000Z</time>
      </trkpt>
      <trkpt lat="42.43302" lon="2.80065">
        <ele>730.20001220703</ele>
        <time>2023-07-13T06:32:21.000Z</time>
      </trkpt>
      <trkpt lat="42.43285" lon="2.80053">
        <ele>729.20001220703</ele>
        <time>2023-07-13T06:32:33.000Z</time>
      </trkpt>
      <trkpt lat="42.43272" lon="2.80047">
        <ele>728.20001220703</ele>
        <time>2023-07-13T06:32:46.000Z</time>
      </trkpt>
      <trkpt lat="42.4327" lon="2.80047">
        <ele>728</ele>
        <time>2023-07-13T06:32:47.000Z</time>
      </trkpt>
      <trkpt lat="42.43264" lon="2.80046">
        <ele>727.20001220703</ele>
        <time>2023-07-13T06:32:52.000Z</time>
      </trkpt>
      <trkpt lat="42.43258" lon="2.80044">
        <ele>726</ele>
        <time>2023-07-13T06:32:57.000Z</time>
      </trkpt>
      <trkpt lat="42.4325" lon="2.80047">
        <ele>725</ele>
        <time>2023-07-13T06:33:03.000Z</time>
      </trkpt>
      <trkpt lat="42.43249" lon="2.80048">
        <ele>724.79998779297</ele>
        <time>2023-07-13T06:33:04.000Z</time>
      </trkpt>
      <trkpt lat="42.43242" lon="2.80052">
        <ele>724</ele>
        <time>2023-07-13T06:33:10.000Z</time>
      </trkpt>
      <trkpt lat="42.43233" lon="2.8005">
        <ele>722.79998779297</ele>
        <time>2023-07-13T06:33:17.000Z</time>
      </trkpt>
      <trkpt lat="42.43229" lon="2.80049">
        <ele>722.59997558594</ele>
        <time>2023-07-13T06:33:19.000Z</time>
      </trkpt>
      <trkpt lat="42.43217" lon="2.80046">
        <ele>721.79998779297</ele>
        <time>2023-07-13T06:33:26.000Z</time>
      </trkpt>
      <trkpt lat="42.43209" lon="2.80043">
        <ele>720.59997558594</ele>
        <time>2023-07-13T06:33:33.000Z</time>
      </trkpt>
      <trkpt lat="42.43191" lon="2.80033">
        <ele>720.40002441406</ele>
        <time>2023-07-13T06:33:43.000Z</time>
      </trkpt>
      <trkpt lat="42.43189" lon="2.80033">
        <ele>720.40002441406</ele>
        <time>2023-07-13T06:33:44.000Z</time>
      </trkpt>
      <trkpt lat="42.43175" lon="2.80022">
        <ele>720.40002441406</ele>
        <time>2023-07-13T06:33:57.000Z</time>
      </trkpt>
      <trkpt lat="42.43177" lon="2.80014">
        <ele>720.40002441406</ele>
        <time>2023-07-13T06:34:00.000Z</time>
      </trkpt>
      <trkpt lat="42.43176" lon="2.80008">
        <ele>720.59997558594</ele>
        <time>2023-07-13T06:34:02.000Z</time>
      </trkpt>
      <trkpt lat="42.43174" lon="2.79995">
        <ele>720.79998779297</ele>
        <time>2023-07-13T06:34:08.000Z</time>
      </trkpt>
      <trkpt lat="42.4317" lon="2.79978">
        <ele>721</ele>
        <time>2023-07-13T06:34:17.000Z</time>
      </trkpt>
      <trkpt lat="42.43168" lon="2.79965">
        <ele>720.79998779297</ele>
        <time>2023-07-13T06:34:22.000Z</time>
      </trkpt>
      <trkpt lat="42.43168" lon="2.79958">
        <ele>720</ele>
        <time>2023-07-13T06:34:28.000Z</time>
      </trkpt>
      <trkpt lat="42.43167" lon="2.79953">
        <ele>719.59997558594</ele>
        <time>2023-07-13T06:34:31.000Z</time>
      </trkpt>
      <trkpt lat="42.43166" lon="2.79943">
        <ele>719.59997558594</ele>
        <time>2023-07-13T06:34:36.000Z</time>
      </trkpt>
      <trkpt lat="42.43166" lon="2.79929">
        <ele>719.79998779297</ele>
        <time>2023-07-13T06:34:44.000Z</time>
      </trkpt>
      <trkpt lat="42.43167" lon="2.79918">
        <ele>719.79998779297</ele>
        <time>2023-07-13T06:34:50.000Z</time>
      </trkpt>
      <trkpt lat="42.43166" lon="2.79906">
        <ele>720</ele>
        <time>2023-07-13T06:34:57.000Z</time>
      </trkpt>
      <trkpt lat="42.43167" lon="2.79903">
        <ele>720.20001220703</ele>
        <time>2023-07-13T06:35:00.000Z</time>
      </trkpt>
      <trkpt lat="42.43168" lon="2.79901">
        <ele>720.40002441406</ele>
        <time>2023-07-13T06:35:02.000Z</time>
      </trkpt>
      <trkpt lat="42.4317" lon="2.79893">
        <ele>720.79998779297</ele>
        <time>2023-07-13T06:35:06.000Z</time>
      </trkpt>
      <trkpt lat="42.43173" lon="2.79886">
        <ele>721.20001220703</ele>
        <time>2023-07-13T06:35:09.000Z</time>
      </trkpt>
      <trkpt lat="42.43176" lon="2.79879">
        <ele>721.79998779297</ele>
        <time>2023-07-13T06:35:13.000Z</time>
      </trkpt>
      <trkpt lat="42.43178" lon="2.79871">
        <ele>722</ele>
        <time>2023-07-13T06:35:16.000Z</time>
      </trkpt>
      <trkpt lat="42.43178" lon="2.79859">
        <ele>722.59997558594</ele>
        <time>2023-07-13T06:35:23.000Z</time>
      </trkpt>
      <trkpt lat="42.43178" lon="2.79856">
        <ele>723</ele>
        <time>2023-07-13T06:35:25.000Z</time>
      </trkpt>
      <trkpt lat="42.43177" lon="2.79847">
        <ele>723.79998779297</ele>
        <time>2023-07-13T06:35:31.000Z</time>
      </trkpt>
      <trkpt lat="42.43177" lon="2.79846">
        <ele>724</ele>
        <time>2023-07-13T06:35:32.000Z</time>
      </trkpt>
      <trkpt lat="42.43176" lon="2.79837">
        <ele>724.79998779297</ele>
        <time>2023-07-13T06:35:37.000Z</time>
      </trkpt>
      <trkpt lat="42.43174" lon="2.79837">
        <ele>725</ele>
        <time>2023-07-13T06:35:40.000Z</time>
      </trkpt>
      <trkpt lat="42.43174" lon="2.79837">
        <ele>725</ele>
        <time>2023-07-13T06:35:41.000Z</time>
      </trkpt>
      <trkpt lat="42.43173" lon="2.79835">
        <ele>725</ele>
        <time>2023-07-13T06:35:43.000Z</time>
      </trkpt>
      <trkpt lat="42.43172" lon="2.79831">
        <ele>725.20001220703</ele>
        <time>2023-07-13T06:35:48.000Z</time>
      </trkpt>
      <trkpt lat="42.43171" lon="2.79825">
        <ele>725</ele>
        <time>2023-07-13T06:35:54.000Z</time>
      </trkpt>
      <trkpt lat="42.43172" lon="2.79805">
        <ele>723.79998779297</ele>
        <time>2023-07-13T06:36:04.000Z</time>
      </trkpt>
      <trkpt lat="42.43174" lon="2.79795">
        <ele>722.79998779297</ele>
        <time>2023-07-13T06:36:09.000Z</time>
      </trkpt>
      <trkpt lat="42.43175" lon="2.79785">
        <ele>722</ele>
        <time>2023-07-13T06:36:14.000Z</time>
      </trkpt>
      <trkpt lat="42.43176" lon="2.79782">
        <ele>721.79998779297</ele>
        <time>2023-07-13T06:36:16.000Z</time>
      </trkpt>
      <trkpt lat="42.4318" lon="2.79769">
        <ele>720.79998779297</ele>
        <time>2023-07-13T06:36:23.000Z</time>
      </trkpt>
      <trkpt lat="42.43181" lon="2.79767">
        <ele>720.59997558594</ele>
        <time>2023-07-13T06:36:24.000Z</time>
      </trkpt>
      <trkpt lat="42.43184" lon="2.79757">
        <ele>719.59997558594</ele>
        <time>2023-07-13T06:36:29.000Z</time>
      </trkpt>
      <trkpt lat="42.43184" lon="2.79755">
        <ele>719.40002441406</ele>
        <time>2023-07-13T06:36:31.000Z</time>
      </trkpt>
      <trkpt lat="42.43186" lon="2.79747">
        <ele>718.59997558594</ele>
        <time>2023-07-13T06:36:35.000Z</time>
      </trkpt>
      <trkpt lat="42.43188" lon="2.79737">
        <ele>717.79998779297</ele>
        <time>2023-07-13T06:36:40.000Z</time>
      </trkpt>
      <trkpt lat="42.43189" lon="2.79731">
        <ele>717.40002441406</ele>
        <time>2023-07-13T06:36:43.000Z</time>
      </trkpt>
      <trkpt lat="42.43192" lon="2.79724">
        <ele>716.40002441406</ele>
        <time>2023-07-13T06:36:49.000Z</time>
      </trkpt>
      <trkpt lat="42.43192" lon="2.79722">
        <ele>716.20001220703</ele>
        <time>2023-07-13T06:36:50.000Z</time>
      </trkpt>
      <trkpt lat="42.43192" lon="2.79713">
        <ele>715.79998779297</ele>
        <time>2023-07-13T06:36:55.000Z</time>
      </trkpt>
      <trkpt lat="42.43189" lon="2.79702">
        <ele>715.20001220703</ele>
        <time>2023-07-13T06:37:02.000Z</time>
      </trkpt>
      <trkpt lat="42.43188" lon="2.797">
        <ele>715</ele>
        <time>2023-07-13T06:37:03.000Z</time>
      </trkpt>
      <trkpt lat="42.43186" lon="2.79694">
        <ele>714</ele>
        <time>2023-07-13T06:37:08.000Z</time>
      </trkpt>
      <trkpt lat="42.43182" lon="2.79687">
        <ele>713</ele>
        <time>2023-07-13T06:37:13.000Z</time>
      </trkpt>
      <trkpt lat="42.43177" lon="2.79683">
        <ele>711.79998779297</ele>
        <time>2023-07-13T06:37:17.000Z</time>
      </trkpt>
      <trkpt lat="42.43174" lon="2.79678">
        <ele>710.59997558594</ele>
        <time>2023-07-13T06:37:21.000Z</time>
      </trkpt>
      <trkpt lat="42.43171" lon="2.79675">
        <ele>710.20001220703</ele>
        <time>2023-07-13T06:37:23.000Z</time>
      </trkpt>
      <trkpt lat="42.43167" lon="2.79672">
        <ele>709.59997558594</ele>
        <time>2023-07-13T06:37:26.000Z</time>
      </trkpt>
      <trkpt lat="42.43162" lon="2.7967">
        <ele>708.59997558594</ele>
        <time>2023-07-13T06:37:31.000Z</time>
      </trkpt>
      <trkpt lat="42.43161" lon="2.79669">
        <ele>708.40002441406</ele>
        <time>2023-07-13T06:37:32.000Z</time>
      </trkpt>
      <trkpt lat="42.43158" lon="2.79667">
        <ele>707.40002441406</ele>
        <time>2023-07-13T06:37:37.000Z</time>
      </trkpt>
      <trkpt lat="42.43155" lon="2.79667">
        <ele>707</ele>
        <time>2023-07-13T06:37:39.000Z</time>
      </trkpt>
      <trkpt lat="42.43153" lon="2.79667">
        <ele>707</ele>
        <time>2023-07-13T06:37:40.000Z</time>
      </trkpt>
      <trkpt lat="42.43124" lon="2.79663">
        <ele>704.79998779297</ele>
        <time>2023-07-13T06:37:52.000Z</time>
      </trkpt>
      <trkpt lat="42.43112" lon="2.79658">
        <ele>704</ele>
        <time>2023-07-13T06:37:59.000Z</time>
      </trkpt>
      <trkpt lat="42.43103" lon="2.79655">
        <ele>703.20001220703</ele>
        <time>2023-07-13T06:38:06.000Z</time>
      </trkpt>
      <trkpt lat="42.43102" lon="2.79654">
        <ele>703</ele>
        <time>2023-07-13T06:38:07.000Z</time>
      </trkpt>
      <trkpt lat="42.43097" lon="2.79652">
        <ele>702</ele>
        <time>2023-07-13T06:38:13.000Z</time>
      </trkpt>
      <trkpt lat="42.43091" lon="2.79647">
        <ele>701</ele>
        <time>2023-07-13T06:38:18.000Z</time>
      </trkpt>
      <trkpt lat="42.43085" lon="2.79647">
        <ele>700.40002441406</ele>
        <time>2023-07-13T06:38:24.000Z</time>
      </trkpt>
      <trkpt lat="42.43081" lon="2.79645">
        <ele>700</ele>
        <time>2023-07-13T06:38:28.000Z</time>
      </trkpt>
      <trkpt lat="42.43078" lon="2.7964">
        <ele>699.79998779297</ele>
        <time>2023-07-13T06:38:32.000Z</time>
      </trkpt>
      <trkpt lat="42.43066" lon="2.79629">
        <ele>699.79998779297</ele>
        <time>2023-07-13T06:38:37.000Z</time>
      </trkpt>
      <trkpt lat="42.4306" lon="2.79624">
        <ele>699.79998779297</ele>
        <time>2023-07-13T06:38:40.000Z</time>
      </trkpt>
      <trkpt lat="42.43051" lon="2.79611">
        <ele>699.20001220703</ele>
        <time>2023-07-13T06:38:49.000Z</time>
      </trkpt>
      <trkpt lat="42.43045" lon="2.79603">
        <ele>698.79998779297</ele>
        <time>2023-07-13T06:38:54.000Z</time>
      </trkpt>
      <trkpt lat="42.43044" lon="2.796">
        <ele>698.59997558594</ele>
        <time>2023-07-13T06:38:56.000Z</time>
      </trkpt>
      <trkpt lat="42.4304" lon="2.79592">
        <ele>697.79998779297</ele>
        <time>2023-07-13T06:39:01.000Z</time>
      </trkpt>
      <trkpt lat="42.43039" lon="2.79588">
        <ele>697.59997558594</ele>
        <time>2023-07-13T06:39:03.000Z</time>
      </trkpt>
      <trkpt lat="42.43033" lon="2.79579">
        <ele>697</ele>
        <time>2023-07-13T06:39:09.000Z</time>
      </trkpt>
      <trkpt lat="42.43027" lon="2.79573">
        <ele>696.79998779297</ele>
        <time>2023-07-13T06:39:14.000Z</time>
      </trkpt>
      <trkpt lat="42.43021" lon="2.79567">
        <ele>696.59997558594</ele>
        <time>2023-07-13T06:39:18.000Z</time>
      </trkpt>
      <trkpt lat="42.43013" lon="2.79557">
        <ele>696.59997558594</ele>
        <time>2023-07-13T06:39:27.000Z</time>
      </trkpt>
      <trkpt lat="42.43006" lon="2.79543">
        <ele>696.20001220703</ele>
        <time>2023-07-13T06:39:36.000Z</time>
      </trkpt>
      <trkpt lat="42.42999" lon="2.79531">
        <ele>695.79998779297</ele>
        <time>2023-07-13T06:39:44.000Z</time>
      </trkpt>
      <trkpt lat="42.42999" lon="2.79529">
        <ele>695.79998779297</ele>
        <time>2023-07-13T06:39:45.000Z</time>
      </trkpt>
      <trkpt lat="42.42994" lon="2.79522">
        <ele>694.79998779297</ele>
        <time>2023-07-13T06:39:51.000Z</time>
      </trkpt>
      <trkpt lat="42.42994" lon="2.7952">
        <ele>694.59997558594</ele>
        <time>2023-07-13T06:39:52.000Z</time>
      </trkpt>
      <trkpt lat="42.42993" lon="2.79517">
        <ele>693.59997558594</ele>
        <time>2023-07-13T06:39:56.000Z</time>
      </trkpt>
      <trkpt lat="42.42993" lon="2.79516">
        <ele>693.40002441406</ele>
        <time>2023-07-13T06:39:58.000Z</time>
      </trkpt>
      <trkpt lat="42.42993" lon="2.79516">
        <ele>693.40002441406</ele>
        <time>2023-07-13T06:39:59.000Z</time>
      </trkpt>
      <trkpt lat="42.42993" lon="2.79515">
        <ele>693.20001220703</ele>
        <time>2023-07-13T06:40:01.000Z</time>
      </trkpt>
      <trkpt lat="42.42988" lon="2.79515">
        <ele>693.40002441406</ele>
        <time>2023-07-13T06:40:12.000Z</time>
      </trkpt>
      <trkpt lat="42.42986" lon="2.79514">
        <ele>693</ele>
        <time>2023-07-13T06:40:14.000Z</time>
      </trkpt>
      <trkpt lat="42.42984" lon="2.79512">
        <ele>692.59997558594</ele>
        <time>2023-07-13T06:40:17.000Z</time>
      </trkpt>
      <trkpt lat="42.4298" lon="2.79508">
        <ele>692.20001220703</ele>
        <time>2023-07-13T06:40:21.000Z</time>
      </trkpt>
      <trkpt lat="42.42975" lon="2.79504">
        <ele>691.40002441406</ele>
        <time>2023-07-13T06:40:26.000Z</time>
      </trkpt>
      <trkpt lat="42.42973" lon="2.79502">
        <ele>690.79998779297</ele>
        <time>2023-07-13T06:40:28.000Z</time>
      </trkpt>
      <trkpt lat="42.42968" lon="2.79497">
        <ele>690.20001220703</ele>
        <time>2023-07-13T06:40:32.000Z</time>
      </trkpt>
      <trkpt lat="42.42966" lon="2.79492">
        <ele>689.79998779297</ele>
        <time>2023-07-13T06:40:35.000Z</time>
      </trkpt>
      <trkpt lat="42.42963" lon="2.79488">
        <ele>689.59997558594</ele>
        <time>2023-07-13T06:40:39.000Z</time>
      </trkpt>
      <trkpt lat="42.42962" lon="2.79482">
        <ele>689.59997558594</ele>
        <time>2023-07-13T06:40:43.000Z</time>
      </trkpt>
      <trkpt lat="42.42962" lon="2.79479">
        <ele>689.40002441406</ele>
        <time>2023-07-13T06:40:45.000Z</time>
      </trkpt>
      <trkpt lat="42.42966" lon="2.79472">
        <ele>689.20001220703</ele>
        <time>2023-07-13T06:40:50.000Z</time>
      </trkpt>
      <trkpt lat="42.42969" lon="2.79469">
        <ele>688.79998779297</ele>
        <time>2023-07-13T06:40:53.000Z</time>
      </trkpt>
      <trkpt lat="42.42974" lon="2.79456">
        <ele>689</ele>
        <time>2023-07-13T06:41:01.000Z</time>
      </trkpt>
      <trkpt lat="42.42978" lon="2.79441">
        <ele>688.79998779297</ele>
        <time>2023-07-13T06:41:08.000Z</time>
      </trkpt>
      <trkpt lat="42.42979" lon="2.79427">
        <ele>689.40002441406</ele>
        <time>2023-07-13T06:41:15.000Z</time>
      </trkpt>
      <trkpt lat="42.42982" lon="2.79407">
        <ele>689.40002441406</ele>
        <time>2023-07-13T06:41:25.000Z</time>
      </trkpt>
      <trkpt lat="42.42983" lon="2.79392">
        <ele>689</ele>
        <time>2023-07-13T06:41:34.000Z</time>
      </trkpt>
      <trkpt lat="42.42988" lon="2.79378">
        <ele>688.79998779297</ele>
        <time>2023-07-13T06:41:42.000Z</time>
      </trkpt>
      <trkpt lat="42.42995" lon="2.79365">
        <ele>688.79998779297</ele>
        <time>2023-07-13T06:41:50.000Z</time>
      </trkpt>
      <trkpt lat="42.43001" lon="2.79359">
        <ele>689</ele>
        <time>2023-07-13T06:41:59.000Z</time>
      </trkpt>
      <trkpt lat="42.43007" lon="2.79346">
        <ele>688.59997558594</ele>
        <time>2023-07-13T06:42:08.000Z</time>
      </trkpt>
      <trkpt lat="42.4301" lon="2.79333">
        <ele>688.20001220703</ele>
        <time>2023-07-13T06:42:15.000Z</time>
      </trkpt>
      <trkpt lat="42.4301" lon="2.79331">
        <ele>688.20001220703</ele>
        <time>2023-07-13T06:42:16.000Z</time>
      </trkpt>
      <trkpt lat="42.43013" lon="2.79314">
        <ele>687.79998779297</ele>
        <time>2023-07-13T06:42:24.000Z</time>
      </trkpt>
      <trkpt lat="42.43013" lon="2.79295">
        <ele>688</ele>
        <time>2023-07-13T06:42:33.000Z</time>
      </trkpt>
      <trkpt lat="42.43015" lon="2.79277">
        <ele>687.79998779297</ele>
        <time>2023-07-13T06:42:41.000Z</time>
      </trkpt>
      <trkpt lat="42.43014" lon="2.79267">
        <ele>687.79998779297</ele>
        <time>2023-07-13T06:42:48.000Z</time>
      </trkpt>
      <trkpt lat="42.43014" lon="2.79255">
        <ele>687.40002441406</ele>
        <time>2023-07-13T06:42:55.000Z</time>
      </trkpt>
      <trkpt lat="42.43014" lon="2.79251">
        <ele>687</ele>
        <time>2023-07-13T06:42:58.000Z</time>
      </trkpt>
      <trkpt lat="42.43015" lon="2.79234">
        <ele>686</ele>
        <time>2023-07-13T06:43:06.000Z</time>
      </trkpt>
      <trkpt lat="42.43014" lon="2.7922">
        <ele>685.79998779297</ele>
        <time>2023-07-13T06:43:12.000Z</time>
      </trkpt>
      <trkpt lat="42.43012" lon="2.7921">
        <ele>685.40002441406</ele>
        <time>2023-07-13T06:43:19.000Z</time>
      </trkpt>
      <trkpt lat="42.43012" lon="2.79209">
        <ele>685</ele>
        <time>2023-07-13T06:43:20.000Z</time>
      </trkpt>
      <trkpt lat="42.43013" lon="2.79198">
        <ele>684.59997558594</ele>
        <time>2023-07-13T06:43:26.000Z</time>
      </trkpt>
      <trkpt lat="42.43011" lon="2.79183">
        <ele>684.40002441406</ele>
        <time>2023-07-13T06:43:33.000Z</time>
      </trkpt>
      <trkpt lat="42.4301" lon="2.79173">
        <ele>684</ele>
        <time>2023-07-13T06:43:39.000Z</time>
      </trkpt>
      <trkpt lat="42.4301" lon="2.79171">
        <ele>684</ele>
        <time>2023-07-13T06:43:40.000Z</time>
      </trkpt>
      <trkpt lat="42.43002" lon="2.79157">
        <ele>683.20001220703</ele>
        <time>2023-07-13T06:43:48.000Z</time>
      </trkpt>
      <trkpt lat="42.42999" lon="2.79154">
        <ele>683</ele>
        <time>2023-07-13T06:43:51.000Z</time>
      </trkpt>
      <trkpt lat="42.42992" lon="2.79148">
        <ele>683</ele>
        <time>2023-07-13T06:43:56.000Z</time>
      </trkpt>
      <trkpt lat="42.42984" lon="2.79141">
        <ele>682</ele>
        <time>2023-07-13T06:44:03.000Z</time>
      </trkpt>
      <trkpt lat="42.42978" lon="2.79137">
        <ele>682</ele>
        <time>2023-07-13T06:44:09.000Z</time>
      </trkpt>
      <trkpt lat="42.42974" lon="2.79135">
        <ele>681.59997558594</ele>
        <time>2023-07-13T06:44:12.000Z</time>
      </trkpt>
      <trkpt lat="42.42964" lon="2.79126">
        <ele>681.59997558594</ele>
        <time>2023-07-13T06:44:18.000Z</time>
      </trkpt>
      <trkpt lat="42.42955" lon="2.79121">
        <ele>681</ele>
        <time>2023-07-13T06:44:24.000Z</time>
      </trkpt>
      <trkpt lat="42.42949" lon="2.79117">
        <ele>679.79998779297</ele>
        <time>2023-07-13T06:44:29.000Z</time>
      </trkpt>
      <trkpt lat="42.42948" lon="2.79116">
        <ele>679.40002441406</ele>
        <time>2023-07-13T06:44:31.000Z</time>
      </trkpt>
      <trkpt lat="42.42943" lon="2.79114">
        <ele>679.20001220703</ele>
        <time>2023-07-13T06:44:35.000Z</time>
      </trkpt>
      <trkpt lat="42.42939" lon="2.79114">
        <ele>678.79998779297</ele>
        <time>2023-07-13T06:44:38.000Z</time>
      </trkpt>
      <trkpt lat="42.42933" lon="2.79115">
        <ele>678.59997558594</ele>
        <time>2023-07-13T06:44:42.000Z</time>
      </trkpt>
      <trkpt lat="42.42922" lon="2.79122">
        <ele>678.79998779297</ele>
        <time>2023-07-13T06:44:49.000Z</time>
      </trkpt>
      <trkpt lat="42.42914" lon="2.79129">
        <ele>678</ele>
        <time>2023-07-13T06:44:55.000Z</time>
      </trkpt>
      <trkpt lat="42.42911" lon="2.79132">
        <ele>677.79998779297</ele>
        <time>2023-07-13T06:44:58.000Z</time>
      </trkpt>
      <trkpt lat="42.42906" lon="2.79139">
        <ele>677.59997558594</ele>
        <time>2023-07-13T06:45:02.000Z</time>
      </trkpt>
      <trkpt lat="42.42897" lon="2.79152">
        <ele>676.79998779297</ele>
        <time>2023-07-13T06:45:08.000Z</time>
      </trkpt>
      <trkpt lat="42.42896" lon="2.79154">
        <ele>676.59997558594</ele>
        <time>2023-07-13T06:45:09.000Z</time>
      </trkpt>
      <trkpt lat="42.42893" lon="2.79163">
        <ele>676</ele>
        <time>2023-07-13T06:45:15.000Z</time>
      </trkpt>
      <trkpt lat="42.42892" lon="2.79169">
        <ele>675.59997558594</ele>
        <time>2023-07-13T06:45:19.000Z</time>
      </trkpt>
      <trkpt lat="42.4289" lon="2.79176">
        <ele>675.20001220703</ele>
        <time>2023-07-13T06:45:23.000Z</time>
      </trkpt>
      <trkpt lat="42.42884" lon="2.79186">
        <ele>674.59997558594</ele>
        <time>2023-07-13T06:45:30.000Z</time>
      </trkpt>
      <trkpt lat="42.42883" lon="2.79188">
        <ele>674.40002441406</ele>
        <time>2023-07-13T06:45:31.000Z</time>
      </trkpt>
      <trkpt lat="42.42874" lon="2.79202">
        <ele>673.79998779297</ele>
        <time>2023-07-13T06:45:40.000Z</time>
      </trkpt>
      <trkpt lat="42.42872" lon="2.79208">
        <ele>673.40002441406</ele>
        <time>2023-07-13T06:45:43.000Z</time>
      </trkpt>
      <trkpt lat="42.42868" lon="2.79214">
        <ele>673.20001220703</ele>
        <time>2023-07-13T06:45:46.000Z</time>
      </trkpt>
      <trkpt lat="42.42862" lon="2.79226">
        <ele>672.40002441406</ele>
        <time>2023-07-13T06:45:53.000Z</time>
      </trkpt>
      <trkpt lat="42.42854" lon="2.79244">
        <ele>671.40002441406</ele>
        <time>2023-07-13T06:46:02.000Z</time>
      </trkpt>
      <trkpt lat="42.42851" lon="2.79256">
        <ele>670.59997558594</ele>
        <time>2023-07-13T06:46:09.000Z</time>
      </trkpt>
      <trkpt lat="42.42849" lon="2.7926">
        <ele>670.20001220703</ele>
        <time>2023-07-13T06:46:11.000Z</time>
      </trkpt>
      <trkpt lat="42.42844" lon="2.7927">
        <ele>669.40002441406</ele>
        <time>2023-07-13T06:46:18.000Z</time>
      </trkpt>
      <trkpt lat="42.42841" lon="2.79275">
        <ele>669.20001220703</ele>
        <time>2023-07-13T06:46:22.000Z</time>
      </trkpt>
      <trkpt lat="42.42837" lon="2.7928">
        <ele>668.79998779297</ele>
        <time>2023-07-13T06:46:27.000Z</time>
      </trkpt>
      <trkpt lat="42.42833" lon="2.79294">
        <ele>668</ele>
        <time>2023-07-13T06:46:33.000Z</time>
      </trkpt>
      <trkpt lat="42.42832" lon="2.79297">
        <ele>668</ele>
        <time>2023-07-13T06:46:34.000Z</time>
      </trkpt>
      <trkpt lat="42.42829" lon="2.79309">
        <ele>667.59997558594</ele>
        <time>2023-07-13T06:46:40.000Z</time>
      </trkpt>
      <trkpt lat="42.42824" lon="2.79324">
        <ele>667</ele>
        <time>2023-07-13T06:46:50.000Z</time>
      </trkpt>
      <trkpt lat="42.4282" lon="2.7934">
        <ele>666.40002441406</ele>
        <time>2023-07-13T06:46:57.000Z</time>
      </trkpt>
      <trkpt lat="42.42814" lon="2.79355">
        <ele>665.79998779297</ele>
        <time>2023-07-13T06:47:05.000Z</time>
      </trkpt>
      <trkpt lat="42.42812" lon="2.79357">
        <ele>665.59997558594</ele>
        <time>2023-07-13T06:47:07.000Z</time>
      </trkpt>
      <trkpt lat="42.42802" lon="2.79366">
        <ele>665</ele>
        <time>2023-07-13T06:47:15.000Z</time>
      </trkpt>
      <trkpt lat="42.42799" lon="2.79365">
        <ele>664.79998779297</ele>
        <time>2023-07-13T06:47:17.000Z</time>
      </trkpt>
      <trkpt lat="42.42795" lon="2.7936">
        <ele>664.20001220703</ele>
        <time>2023-07-13T06:47:20.000Z</time>
      </trkpt>
      <trkpt lat="42.42795" lon="2.79358">
        <ele>663.79998779297</ele>
        <time>2023-07-13T06:47:21.000Z</time>
      </trkpt>
      <trkpt lat="42.42795" lon="2.79356">
        <ele>663.79998779297</ele>
        <time>2023-07-13T06:47:22.000Z</time>
      </trkpt>
      <trkpt lat="42.42799" lon="2.79347">
        <ele>662.59997558594</ele>
        <time>2023-07-13T06:47:27.000Z</time>
      </trkpt>
      <trkpt lat="42.42803" lon="2.7934">
        <ele>661.59997558594</ele>
        <time>2023-07-13T06:47:32.000Z</time>
      </trkpt>
      <trkpt lat="42.42805" lon="2.79337">
        <ele>661.20001220703</ele>
        <time>2023-07-13T06:47:34.000Z</time>
      </trkpt>
      <trkpt lat="42.42808" lon="2.79331">
        <ele>660.40002441406</ele>
        <time>2023-07-13T06:47:37.000Z</time>
      </trkpt>
      <trkpt lat="42.42812" lon="2.79318">
        <ele>659.40002441406</ele>
        <time>2023-07-13T06:47:44.000Z</time>
      </trkpt>
      <trkpt lat="42.42812" lon="2.79305">
        <ele>658.79998779297</ele>
        <time>2023-07-13T06:47:50.000Z</time>
      </trkpt>
      <trkpt lat="42.42813" lon="2.79297">
        <ele>658.40002441406</ele>
        <time>2023-07-13T06:47:55.000Z</time>
      </trkpt>
      <trkpt lat="42.42814" lon="2.79288">
        <ele>658.20001220703</ele>
        <time>2023-07-13T06:47:59.000Z</time>
      </trkpt>
      <trkpt lat="42.42818" lon="2.79274">
        <ele>657.40002441406</ele>
        <time>2023-07-13T06:48:07.000Z</time>
      </trkpt>
      <trkpt lat="42.42818" lon="2.79272">
        <ele>657.20001220703</ele>
        <time>2023-07-13T06:48:08.000Z</time>
      </trkpt>
      <trkpt lat="42.4282" lon="2.79256">
        <ele>657</ele>
        <time>2023-07-13T06:48:17.000Z</time>
      </trkpt>
      <trkpt lat="42.42824" lon="2.79239">
        <ele>656.79998779297</ele>
        <time>2023-07-13T06:48:26.000Z</time>
      </trkpt>
      <trkpt lat="42.42828" lon="2.79227">
        <ele>656.40002441406</ele>
        <time>2023-07-13T06:48:33.000Z</time>
      </trkpt>
      <trkpt lat="42.42834" lon="2.7921">
        <ele>656</ele>
        <time>2023-07-13T06:48:42.000Z</time>
      </trkpt>
      <trkpt lat="42.42837" lon="2.79199">
        <ele>655.79998779297</ele>
        <time>2023-07-13T06:48:48.000Z</time>
      </trkpt>
      <trkpt lat="42.42841" lon="2.79191">
        <ele>655.20001220703</ele>
        <time>2023-07-13T06:48:52.000Z</time>
      </trkpt>
      <trkpt lat="42.42844" lon="2.79182">
        <ele>655</ele>
        <time>2023-07-13T06:48:57.000Z</time>
      </trkpt>
      <trkpt lat="42.4285" lon="2.79167">
        <ele>654.59997558594</ele>
        <time>2023-07-13T06:49:06.000Z</time>
      </trkpt>
      <trkpt lat="42.42852" lon="2.7916">
        <ele>654.20001220703</ele>
        <time>2023-07-13T06:49:10.000Z</time>
      </trkpt>
      <trkpt lat="42.42855" lon="2.79154">
        <ele>654</ele>
        <time>2023-07-13T06:49:15.000Z</time>
      </trkpt>
      <trkpt lat="42.42861" lon="2.79136">
        <ele>653.59997558594</ele>
        <time>2023-07-13T06:49:25.000Z</time>
      </trkpt>
      <trkpt lat="42.42865" lon="2.7912">
        <ele>653.20001220703</ele>
        <time>2023-07-13T06:49:32.000Z</time>
      </trkpt>
      <trkpt lat="42.42865" lon="2.79118">
        <ele>653.20001220703</ele>
        <time>2023-07-13T06:49:33.000Z</time>
      </trkpt>
      <trkpt lat="42.42868" lon="2.79107">
        <ele>653</ele>
        <time>2023-07-13T06:49:38.000Z</time>
      </trkpt>
      <trkpt lat="42.42869" lon="2.7908">
        <ele>652.40002441406</ele>
        <time>2023-07-13T06:49:51.000Z</time>
      </trkpt>
      <trkpt lat="42.4287" lon="2.79073">
        <ele>652.20001220703</ele>
        <time>2023-07-13T06:49:54.000Z</time>
      </trkpt>
      <trkpt lat="42.42871" lon="2.79065">
        <ele>651.79998779297</ele>
        <time>2023-07-13T06:49:58.000Z</time>
      </trkpt>
      <trkpt lat="42.42875" lon="2.79051">
        <ele>651.20001220703</ele>
        <time>2023-07-13T06:50:05.000Z</time>
      </trkpt>
      <trkpt lat="42.42876" lon="2.79043">
        <ele>651.20001220703</ele>
        <time>2023-07-13T06:50:09.000Z</time>
      </trkpt>
      <trkpt lat="42.42877" lon="2.79038">
        <ele>650.59997558594</ele>
        <time>2023-07-13T06:50:12.000Z</time>
      </trkpt>
      <trkpt lat="42.4288" lon="2.79029">
        <ele>650.20001220703</ele>
        <time>2023-07-13T06:50:17.000Z</time>
      </trkpt>
      <trkpt lat="42.42881" lon="2.79025">
        <ele>649.59997558594</ele>
        <time>2023-07-13T06:50:19.000Z</time>
      </trkpt>
      <trkpt lat="42.42883" lon="2.79019">
        <ele>649</ele>
        <time>2023-07-13T06:50:23.000Z</time>
      </trkpt>
      <trkpt lat="42.42885" lon="2.79015">
        <ele>648.79998779297</ele>
        <time>2023-07-13T06:50:26.000Z</time>
      </trkpt>
      <trkpt lat="42.42898" lon="2.79001">
        <ele>648.20001220703</ele>
        <time>2023-07-13T06:50:36.000Z</time>
      </trkpt>
      <trkpt lat="42.42901" lon="2.78998">
        <ele>647.79998779297</ele>
        <time>2023-07-13T06:50:38.000Z</time>
      </trkpt>
      <trkpt lat="42.42909" lon="2.78987">
        <ele>647</ele>
        <time>2023-07-13T06:50:45.000Z</time>
      </trkpt>
      <trkpt lat="42.42909" lon="2.78985">
        <ele>646.79998779297</ele>
        <time>2023-07-13T06:50:46.000Z</time>
      </trkpt>
      <trkpt lat="42.42906" lon="2.7898">
        <ele>645.59997558594</ele>
        <time>2023-07-13T06:50:51.000Z</time>
      </trkpt>
      <trkpt lat="42.42905" lon="2.78981">
        <ele>645.40002441406</ele>
        <time>2023-07-13T06:50:52.000Z</time>
      </trkpt>
      <trkpt lat="42.42898" lon="2.7898">
        <ele>644.40002441406</ele>
        <time>2023-07-13T06:50:57.000Z</time>
      </trkpt>
      <trkpt lat="42.42893" lon="2.78983">
        <ele>643</ele>
        <time>2023-07-13T06:51:03.000Z</time>
      </trkpt>
      <trkpt lat="42.42884" lon="2.78991">
        <ele>642.40002441406</ele>
        <time>2023-07-13T06:51:08.000Z</time>
      </trkpt>
      <trkpt lat="42.42881" lon="2.78994">
        <ele>642</ele>
        <time>2023-07-13T06:51:10.000Z</time>
      </trkpt>
      <trkpt lat="42.42871" lon="2.79006">
        <ele>641.40002441406</ele>
        <time>2023-07-13T06:51:17.000Z</time>
      </trkpt>
      <trkpt lat="42.42863" lon="2.79023">
        <ele>640.40002441406</ele>
        <time>2023-07-13T06:51:26.000Z</time>
      </trkpt>
      <trkpt lat="42.42862" lon="2.79026">
        <ele>640.20001220703</ele>
        <time>2023-07-13T06:51:28.000Z</time>
      </trkpt>
      <trkpt lat="42.42857" lon="2.79035">
        <ele>639.79998779297</ele>
        <time>2023-07-13T06:51:34.000Z</time>
      </trkpt>
      <trkpt lat="42.42851" lon="2.79049">
        <ele>639.20001220703</ele>
        <time>2023-07-13T06:51:42.000Z</time>
      </trkpt>
      <trkpt lat="42.42849" lon="2.79055">
        <ele>639</ele>
        <time>2023-07-13T06:51:45.000Z</time>
      </trkpt>
      <trkpt lat="42.42844" lon="2.7907">
        <ele>638.20001220703</ele>
        <time>2023-07-13T06:51:52.000Z</time>
      </trkpt>
      <trkpt lat="42.42844" lon="2.79074">
        <ele>637.79998779297</ele>
        <time>2023-07-13T06:51:54.000Z</time>
      </trkpt>
      <trkpt lat="42.42842" lon="2.79089">
        <ele>637.20001220703</ele>
        <time>2023-07-13T06:52:01.000Z</time>
      </trkpt>
      <trkpt lat="42.42841" lon="2.79092">
        <ele>637</ele>
        <time>2023-07-13T06:52:02.000Z</time>
      </trkpt>
      <trkpt lat="42.42841" lon="2.791">
        <ele>636.59997558594</ele>
        <time>2023-07-13T06:52:08.000Z</time>
      </trkpt>
      <trkpt lat="42.4284" lon="2.79112">
        <ele>636.20001220703</ele>
        <time>2023-07-13T06:52:14.000Z</time>
      </trkpt>
      <trkpt lat="42.42839" lon="2.79118">
        <ele>636</ele>
        <time>2023-07-13T06:52:17.000Z</time>
      </trkpt>
      <trkpt lat="42.42835" lon="2.79127">
        <ele>635.79998779297</ele>
        <time>2023-07-13T06:52:22.000Z</time>
      </trkpt>
      <trkpt lat="42.42824" lon="2.79139">
        <ele>635.20001220703</ele>
        <time>2023-07-13T06:52:31.000Z</time>
      </trkpt>
      <trkpt lat="42.42822" lon="2.79143">
        <ele>634.79998779297</ele>
        <time>2023-07-13T06:52:33.000Z</time>
      </trkpt>
      <trkpt lat="42.42813" lon="2.79149">
        <ele>634.20001220703</ele>
        <time>2023-07-13T06:52:38.000Z</time>
      </trkpt>
      <trkpt lat="42.42809" lon="2.79155">
        <ele>633.79998779297</ele>
        <time>2023-07-13T06:52:42.000Z</time>
      </trkpt>
      <trkpt lat="42.42804" lon="2.7916">
        <ele>633.20001220703</ele>
        <time>2023-07-13T06:52:46.000Z</time>
      </trkpt>
      <trkpt lat="42.428" lon="2.79165">
        <ele>632.79998779297</ele>
        <time>2023-07-13T06:52:49.000Z</time>
      </trkpt>
      <trkpt lat="42.42794" lon="2.79174">
        <ele>632</ele>
        <time>2023-07-13T06:52:55.000Z</time>
      </trkpt>
      <trkpt lat="42.42791" lon="2.79177">
        <ele>631.59997558594</ele>
        <time>2023-07-13T06:52:57.000Z</time>
      </trkpt>
      <trkpt lat="42.42788" lon="2.79185">
        <ele>631</ele>
        <time>2023-07-13T06:53:02.000Z</time>
      </trkpt>
      <trkpt lat="42.42784" lon="2.79189">
        <ele>630.59997558594</ele>
        <time>2023-07-13T06:53:05.000Z</time>
      </trkpt>
      <trkpt lat="42.42777" lon="2.792">
        <ele>630</ele>
        <time>2023-07-13T06:53:11.000Z</time>
      </trkpt>
      <trkpt lat="42.42775" lon="2.79207">
        <ele>629.59997558594</ele>
        <time>2023-07-13T06:53:15.000Z</time>
      </trkpt>
      <trkpt lat="42.42772" lon="2.79215">
        <ele>628.79998779297</ele>
        <time>2023-07-13T06:53:20.000Z</time>
      </trkpt>
      <trkpt lat="42.42772" lon="2.79218">
        <ele>628.40002441406</ele>
        <time>2023-07-13T06:53:22.000Z</time>
      </trkpt>
      <trkpt lat="42.4277" lon="2.79227">
        <ele>628</ele>
        <time>2023-07-13T06:53:27.000Z</time>
      </trkpt>
      <trkpt lat="42.42768" lon="2.79233">
        <ele>627.20001220703</ele>
        <time>2023-07-13T06:53:31.000Z</time>
      </trkpt>
      <trkpt lat="42.42765" lon="2.7924">
        <ele>627</ele>
        <time>2023-07-13T06:53:35.000Z</time>
      </trkpt>
      <trkpt lat="42.4276" lon="2.7925">
        <ele>626.40002441406</ele>
        <time>2023-07-13T06:53:42.000Z</time>
      </trkpt>
      <trkpt lat="42.42759" lon="2.79248">
        <ele>626.40002441406</ele>
        <time>2023-07-13T06:53:43.000Z</time>
      </trkpt>
      <trkpt lat="42.42758" lon="2.79244">
        <ele>626</ele>
        <time>2023-07-13T06:53:45.000Z</time>
      </trkpt>
      <trkpt lat="42.42756" lon="2.7924">
        <ele>625.79998779297</ele>
        <time>2023-07-13T06:53:47.000Z</time>
      </trkpt>
      <trkpt lat="42.42753" lon="2.79234">
        <ele>624.79998779297</ele>
        <time>2023-07-13T06:53:51.000Z</time>
      </trkpt>
      <trkpt lat="42.42753" lon="2.79232">
        <ele>624</ele>
        <time>2023-07-13T06:53:54.000Z</time>
      </trkpt>
      <trkpt lat="42.42753" lon="2.79231">
        <ele>623.79998779297</ele>
        <time>2023-07-13T06:53:55.000Z</time>
      </trkpt>
      <trkpt lat="42.42753" lon="2.79222">
        <ele>622.59997558594</ele>
        <time>2023-07-13T06:54:00.000Z</time>
      </trkpt>
      <trkpt lat="42.42754" lon="2.7922">
        <ele>622.40002441406</ele>
        <time>2023-07-13T06:54:01.000Z</time>
      </trkpt>
      <trkpt lat="42.42754" lon="2.79207">
        <ele>621.59997558594</ele>
        <time>2023-07-13T06:54:07.000Z</time>
      </trkpt>
      <trkpt lat="42.42755" lon="2.79202">
        <ele>621</ele>
        <time>2023-07-13T06:54:10.000Z</time>
      </trkpt>
      <trkpt lat="42.42758" lon="2.79187">
        <ele>620.40002441406</ele>
        <time>2023-07-13T06:54:17.000Z</time>
      </trkpt>
      <trkpt lat="42.42763" lon="2.7917">
        <ele>619.40002441406</ele>
        <time>2023-07-13T06:54:26.000Z</time>
      </trkpt>
      <trkpt lat="42.42763" lon="2.79168">
        <ele>619.20001220703</ele>
        <time>2023-07-13T06:54:27.000Z</time>
      </trkpt>
      <trkpt lat="42.42768" lon="2.79159">
        <ele>618.40002441406</ele>
        <time>2023-07-13T06:54:35.000Z</time>
      </trkpt>
      <trkpt lat="42.42769" lon="2.79157">
        <ele>618.20001220703</ele>
        <time>2023-07-13T06:54:36.000Z</time>
      </trkpt>
      <trkpt lat="42.42769" lon="2.79143">
        <ele>617.40002441406</ele>
        <time>2023-07-13T06:54:46.000Z</time>
      </trkpt>
      <trkpt lat="42.42769" lon="2.79142">
        <ele>617.20001220703</ele>
        <time>2023-07-13T06:54:47.000Z</time>
      </trkpt>
      <trkpt lat="42.42774" lon="2.79137">
        <ele>616.79998779297</ele>
        <time>2023-07-13T06:54:52.000Z</time>
      </trkpt>
      <trkpt lat="42.42779" lon="2.79123">
        <ele>616.20001220703</ele>
        <time>2023-07-13T06:54:58.000Z</time>
      </trkpt>
      <trkpt lat="42.4278" lon="2.79121">
        <ele>616.20001220703</ele>
        <time>2023-07-13T06:54:59.000Z</time>
      </trkpt>
      <trkpt lat="42.42783" lon="2.79114">
        <ele>615.59997558594</ele>
        <time>2023-07-13T06:55:03.000Z</time>
      </trkpt>
      <trkpt lat="42.42787" lon="2.79103">
        <ele>615</ele>
        <time>2023-07-13T06:55:08.000Z</time>
      </trkpt>
      <trkpt lat="42.42789" lon="2.79092">
        <ele>614.20001220703</ele>
        <time>2023-07-13T06:55:13.000Z</time>
      </trkpt>
      <trkpt lat="42.4279" lon="2.79089">
        <ele>614</ele>
        <time>2023-07-13T06:55:15.000Z</time>
      </trkpt>
      <trkpt lat="42.42792" lon="2.79072">
        <ele>613</ele>
        <time>2023-07-13T06:55:23.000Z</time>
      </trkpt>
      <trkpt lat="42.42792" lon="2.79069">
        <ele>612.79998779297</ele>
        <time>2023-07-13T06:55:24.000Z</time>
      </trkpt>
      <trkpt lat="42.42792" lon="2.79058">
        <ele>611.79998779297</ele>
        <time>2023-07-13T06:55:31.000Z</time>
      </trkpt>
      <trkpt lat="42.42795" lon="2.79046">
        <ele>611</ele>
        <time>2023-07-13T06:55:37.000Z</time>
      </trkpt>
      <trkpt lat="42.42796" lon="2.79041">
        <ele>610.79998779297</ele>
        <time>2023-07-13T06:55:40.000Z</time>
      </trkpt>
      <trkpt lat="42.428" lon="2.79024">
        <ele>609.59997558594</ele>
        <time>2023-07-13T06:55:49.000Z</time>
      </trkpt>
      <trkpt lat="42.428" lon="2.7902">
        <ele>609.20001220703</ele>
        <time>2023-07-13T06:55:51.000Z</time>
      </trkpt>
      <trkpt lat="42.428" lon="2.79012">
        <ele>608.59997558594</ele>
        <time>2023-07-13T06:55:56.000Z</time>
      </trkpt>
      <trkpt lat="42.42801" lon="2.78997">
        <ele>607.40002441406</ele>
        <time>2023-07-13T06:56:04.000Z</time>
      </trkpt>
      <trkpt lat="42.42801" lon="2.78993">
        <ele>607.20001220703</ele>
        <time>2023-07-13T06:56:06.000Z</time>
      </trkpt>
      <trkpt lat="42.42804" lon="2.78978">
        <ele>606.40002441406</ele>
        <time>2023-07-13T06:56:13.000Z</time>
      </trkpt>
      <trkpt lat="42.42803" lon="2.7897">
        <ele>606.20001220703</ele>
        <time>2023-07-13T06:56:17.000Z</time>
      </trkpt>
      <trkpt lat="42.42805" lon="2.78948">
        <ele>605.40002441406</ele>
        <time>2023-07-13T06:56:27.000Z</time>
      </trkpt>
      <trkpt lat="42.42806" lon="2.7894">
        <ele>604.59997558594</ele>
        <time>2023-07-13T06:56:31.000Z</time>
      </trkpt>
      <trkpt lat="42.42806" lon="2.78934">
        <ele>604.40002441406</ele>
        <time>2023-07-13T06:56:34.000Z</time>
      </trkpt>
      <trkpt lat="42.42808" lon="2.78914">
        <ele>603.40002441406</ele>
        <time>2023-07-13T06:56:42.000Z</time>
      </trkpt>
      <trkpt lat="42.42809" lon="2.7891">
        <ele>603</ele>
        <time>2023-07-13T06:56:44.000Z</time>
      </trkpt>
      <trkpt lat="42.4281" lon="2.78896">
        <ele>602.20001220703</ele>
        <time>2023-07-13T06:56:51.000Z</time>
      </trkpt>
      <trkpt lat="42.42813" lon="2.78884">
        <ele>601.40002441406</ele>
        <time>2023-07-13T06:56:57.000Z</time>
      </trkpt>
      <trkpt lat="42.42814" lon="2.7888">
        <ele>601</ele>
        <time>2023-07-13T06:56:59.000Z</time>
      </trkpt>
      <trkpt lat="42.42826" lon="2.78858">
        <ele>600</ele>
        <time>2023-07-13T06:57:11.000Z</time>
      </trkpt>
      <trkpt lat="42.42827" lon="2.78854">
        <ele>599.59997558594</ele>
        <time>2023-07-13T06:57:13.000Z</time>
      </trkpt>
      <trkpt lat="42.4283" lon="2.78849">
        <ele>599</ele>
        <time>2023-07-13T06:57:16.000Z</time>
      </trkpt>
      <trkpt lat="42.42831" lon="2.78844">
        <ele>597.79998779297</ele>
        <time>2023-07-13T06:57:20.000Z</time>
      </trkpt>
      <trkpt lat="42.42833" lon="2.7884">
        <ele>596.59997558594</ele>
        <time>2023-07-13T06:57:24.000Z</time>
      </trkpt>
      <trkpt lat="42.42829" lon="2.78841">
        <ele>595.40002441406</ele>
        <time>2023-07-13T06:57:31.000Z</time>
      </trkpt>
      <trkpt lat="42.42826" lon="2.78843">
        <ele>594.20001220703</ele>
        <time>2023-07-13T06:57:35.000Z</time>
      </trkpt>
      <trkpt lat="42.42825" lon="2.78843">
        <ele>593.79998779297</ele>
        <time>2023-07-13T06:57:36.000Z</time>
      </trkpt>
      <trkpt lat="42.4282" lon="2.78845">
        <ele>593.20001220703</ele>
        <time>2023-07-13T06:57:40.000Z</time>
      </trkpt>
      <trkpt lat="42.42812" lon="2.78849">
        <ele>592</ele>
        <time>2023-07-13T06:57:46.000Z</time>
      </trkpt>
      <trkpt lat="42.4281" lon="2.78852">
        <ele>591.79998779297</ele>
        <time>2023-07-13T06:57:49.000Z</time>
      </trkpt>
      <trkpt lat="42.42806" lon="2.78868">
        <ele>591.40002441406</ele>
        <time>2023-07-13T06:57:59.000Z</time>
      </trkpt>
      <trkpt lat="42.42806" lon="2.78872">
        <ele>591.40002441406</ele>
        <time>2023-07-13T06:58:00.000Z</time>
      </trkpt>
      <trkpt lat="42.42802" lon="2.78886">
        <ele>591</ele>
        <time>2023-07-13T06:58:06.000Z</time>
      </trkpt>
      <trkpt lat="42.42801" lon="2.78888">
        <ele>591</ele>
        <time>2023-07-13T06:58:07.000Z</time>
      </trkpt>
      <trkpt lat="42.42796" lon="2.78905">
        <ele>590.59997558594</ele>
        <time>2023-07-13T06:58:15.000Z</time>
      </trkpt>
      <trkpt lat="42.42792" lon="2.78921">
        <ele>590</ele>
        <time>2023-07-13T06:58:23.000Z</time>
      </trkpt>
      <trkpt lat="42.42791" lon="2.78924">
        <ele>590</ele>
        <time>2023-07-13T06:58:24.000Z</time>
      </trkpt>
      <trkpt lat="42.42787" lon="2.78936">
        <ele>589.59997558594</ele>
        <time>2023-07-13T06:58:30.000Z</time>
      </trkpt>
      <trkpt lat="42.4278" lon="2.7895">
        <ele>588.79998779297</ele>
        <time>2023-07-13T06:58:39.000Z</time>
      </trkpt>
      <trkpt lat="42.42774" lon="2.78952">
        <ele>588.79998779297</ele>
        <time>2023-07-13T06:58:42.000Z</time>
      </trkpt>
      <trkpt lat="42.42768" lon="2.78964">
        <ele>588.20001220703</ele>
        <time>2023-07-13T06:58:52.000Z</time>
      </trkpt>
      <trkpt lat="42.42765" lon="2.78972">
        <ele>587.79998779297</ele>
        <time>2023-07-13T06:58:56.000Z</time>
      </trkpt>
      <trkpt lat="42.42765" lon="2.78976">
        <ele>587.59997558594</ele>
        <time>2023-07-13T06:58:58.000Z</time>
      </trkpt>
      <trkpt lat="42.42758" lon="2.78988">
        <ele>587</ele>
        <time>2023-07-13T06:59:06.000Z</time>
      </trkpt>
      <trkpt lat="42.42755" lon="2.78981">
        <ele>586.79998779297</ele>
        <time>2023-07-13T06:59:07.000Z</time>
      </trkpt>
      <trkpt lat="42.42759" lon="2.79005">
        <ele>585.79998779297</ele>
        <time>2023-07-13T06:59:16.000Z</time>
      </trkpt>
      <trkpt lat="42.42755" lon="2.78996">
        <ele>585.59997558594</ele>
        <time>2023-07-13T06:59:17.000Z</time>
      </trkpt>
      <trkpt lat="42.4276" lon="2.79016">
        <ele>585.40002441406</ele>
        <time>2023-07-13T06:59:20.000Z</time>
      </trkpt>
      <trkpt lat="42.42759" lon="2.79024">
        <ele>585.20001220703</ele>
        <time>2023-07-13T06:59:24.000Z</time>
      </trkpt>
      <trkpt lat="42.42756" lon="2.79025">
        <ele>584.59997558594</ele>
        <time>2023-07-13T06:59:27.000Z</time>
      </trkpt>
      <trkpt lat="42.42754" lon="2.79026">
        <ele>584.20001220703</ele>
        <time>2023-07-13T06:59:30.000Z</time>
      </trkpt>
      <trkpt lat="42.42755" lon="2.79028">
        <ele>584</ele>
        <time>2023-07-13T06:59:33.000Z</time>
      </trkpt>
      <trkpt lat="42.42757" lon="2.79031">
        <ele>584.20001220703</ele>
        <time>2023-07-13T06:59:37.000Z</time>
      </trkpt>
      <trkpt lat="42.42757" lon="2.79031">
        <ele>584.20001220703</ele>
        <time>2023-07-13T06:59:39.000Z</time>
      </trkpt>
      <trkpt lat="42.42754" lon="2.79031">
        <ele>584.20001220703</ele>
        <time>2023-07-13T06:59:42.000Z</time>
      </trkpt>
      <trkpt lat="42.42744" lon="2.79022">
        <ele>584.20001220703</ele>
        <time>2023-07-13T06:59:50.000Z</time>
      </trkpt>
      <trkpt lat="42.42733" lon="2.79008">
        <ele>584.79998779297</ele>
        <time>2023-07-13T07:00:01.000Z</time>
      </trkpt>
      <trkpt lat="42.42728" lon="2.79005">
        <ele>584.40002441406</ele>
        <time>2023-07-13T07:00:06.000Z</time>
      </trkpt>
      <trkpt lat="42.42723" lon="2.79002">
        <ele>583.59997558594</ele>
        <time>2023-07-13T07:00:10.000Z</time>
      </trkpt>
      <trkpt lat="42.42717" lon="2.78998">
        <ele>583.20001220703</ele>
        <time>2023-07-13T07:00:16.000Z</time>
      </trkpt>
      <trkpt lat="42.42704" lon="2.78994">
        <ele>583.20001220703</ele>
        <time>2023-07-13T07:00:24.000Z</time>
      </trkpt>
      <trkpt lat="42.42701" lon="2.78992">
        <ele>582.59997558594</ele>
        <time>2023-07-13T07:00:26.000Z</time>
      </trkpt>
      <trkpt lat="42.42693" lon="2.78982">
        <ele>581.40002441406</ele>
        <time>2023-07-13T07:00:37.000Z</time>
      </trkpt>
      <trkpt lat="42.42698" lon="2.78952">
        <ele>581.20001220703</ele>
        <time>2023-07-13T07:00:51.000Z</time>
      </trkpt>
      <trkpt lat="42.42703" lon="2.78927">
        <ele>580.40002441406</ele>
        <time>2023-07-13T07:01:03.000Z</time>
      </trkpt>
      <trkpt lat="42.42704" lon="2.78924">
        <ele>580</ele>
        <time>2023-07-13T07:01:05.000Z</time>
      </trkpt>
      <trkpt lat="42.42701" lon="2.78919">
        <ele>579</ele>
        <time>2023-07-13T07:01:11.000Z</time>
      </trkpt>
      <trkpt lat="42.42696" lon="2.78908">
        <ele>578.59997558594</ele>
        <time>2023-07-13T07:01:18.000Z</time>
      </trkpt>
      <trkpt lat="42.42693" lon="2.78895">
        <ele>577.59997558594</ele>
        <time>2023-07-13T07:01:23.000Z</time>
      </trkpt>
      <trkpt lat="42.42692" lon="2.78893">
        <ele>576.79998779297</ele>
        <time>2023-07-13T07:01:25.000Z</time>
      </trkpt>
      <trkpt lat="42.42687" lon="2.78882">
        <ele>576.59997558594</ele>
        <time>2023-07-13T07:01:30.000Z</time>
      </trkpt>
      <trkpt lat="42.42684" lon="2.78875">
        <ele>576</ele>
        <time>2023-07-13T07:01:34.000Z</time>
      </trkpt>
      <trkpt lat="42.42682" lon="2.7887">
        <ele>575.40002441406</ele>
        <time>2023-07-13T07:01:37.000Z</time>
      </trkpt>
      <trkpt lat="42.42679" lon="2.78861">
        <ele>574.20001220703</ele>
        <time>2023-07-13T07:01:42.000Z</time>
      </trkpt>
      <trkpt lat="42.42678" lon="2.78859">
        <ele>574</ele>
        <time>2023-07-13T07:01:43.000Z</time>
      </trkpt>
      <trkpt lat="42.42674" lon="2.7885">
        <ele>573.40002441406</ele>
        <time>2023-07-13T07:01:49.000Z</time>
      </trkpt>
      <trkpt lat="42.42672" lon="2.78847">
        <ele>573</ele>
        <time>2023-07-13T07:01:51.000Z</time>
      </trkpt>
      <trkpt lat="42.42667" lon="2.78839">
        <ele>572</ele>
        <time>2023-07-13T07:01:57.000Z</time>
      </trkpt>
      <trkpt lat="42.42663" lon="2.7883">
        <ele>571</ele>
        <time>2023-07-13T07:02:03.000Z</time>
      </trkpt>
      <trkpt lat="42.42661" lon="2.78827">
        <ele>570.59997558594</ele>
        <time>2023-07-13T07:02:05.000Z</time>
      </trkpt>
      <trkpt lat="42.42657" lon="2.78821">
        <ele>569.79998779297</ele>
        <time>2023-07-13T07:02:09.000Z</time>
      </trkpt>
      <trkpt lat="42.42653" lon="2.78815">
        <ele>569</ele>
        <time>2023-07-13T07:02:13.000Z</time>
      </trkpt>
      <trkpt lat="42.4265" lon="2.7881">
        <ele>568.79998779297</ele>
        <time>2023-07-13T07:02:17.000Z</time>
      </trkpt>
      <trkpt lat="42.42645" lon="2.788">
        <ele>568.20001220703</ele>
        <time>2023-07-13T07:02:23.000Z</time>
      </trkpt>
      <trkpt lat="42.42641" lon="2.78796">
        <ele>567.40002441406</ele>
        <time>2023-07-13T07:02:26.000Z</time>
      </trkpt>
      <trkpt lat="42.42638" lon="2.78791">
        <ele>566.59997558594</ele>
        <time>2023-07-13T07:02:30.000Z</time>
      </trkpt>
      <trkpt lat="42.42638" lon="2.7879">
        <ele>566.40002441406</ele>
        <time>2023-07-13T07:02:31.000Z</time>
      </trkpt>
      <trkpt lat="42.42634" lon="2.78779">
        <ele>566</ele>
        <time>2023-07-13T07:02:36.000Z</time>
      </trkpt>
      <trkpt lat="42.42628" lon="2.78768">
        <ele>565</ele>
        <time>2023-07-13T07:02:43.000Z</time>
      </trkpt>
      <trkpt lat="42.42624" lon="2.78757">
        <ele>564</ele>
        <time>2023-07-13T07:02:49.000Z</time>
      </trkpt>
      <trkpt lat="42.42624" lon="2.78755">
        <ele>563.79998779297</ele>
        <time>2023-07-13T07:02:50.000Z</time>
      </trkpt>
      <trkpt lat="42.4262" lon="2.78749">
        <ele>562.59997558594</ele>
        <time>2023-07-13T07:02:54.000Z</time>
      </trkpt>
      <trkpt lat="42.42612" lon="2.78734">
        <ele>561.79998779297</ele>
        <time>2023-07-13T07:03:03.000Z</time>
      </trkpt>
      <trkpt lat="42.4261" lon="2.78731">
        <ele>561.40002441406</ele>
        <time>2023-07-13T07:03:05.000Z</time>
      </trkpt>
      <trkpt lat="42.42604" lon="2.78725">
        <ele>560.20001220703</ele>
        <time>2023-07-13T07:03:10.000Z</time>
      </trkpt>
      <trkpt lat="42.42595" lon="2.78717">
        <ele>559.40002441406</ele>
        <time>2023-07-13T07:03:17.000Z</time>
      </trkpt>
      <trkpt lat="42.42594" lon="2.78717">
        <ele>559.20001220703</ele>
        <time>2023-07-13T07:03:18.000Z</time>
      </trkpt>
      <trkpt lat="42.42585" lon="2.78711">
        <ele>558</ele>
        <time>2023-07-13T07:03:25.000Z</time>
      </trkpt>
      <trkpt lat="42.42582" lon="2.78709">
        <ele>557.59997558594</ele>
        <time>2023-07-13T07:03:27.000Z</time>
      </trkpt>
      <trkpt lat="42.42577" lon="2.78696">
        <ele>556.79998779297</ele>
        <time>2023-07-13T07:03:32.000Z</time>
      </trkpt>
      <trkpt lat="42.42575" lon="2.78691">
        <ele>556.40002441406</ele>
        <time>2023-07-13T07:03:34.000Z</time>
      </trkpt>
      <trkpt lat="42.42571" lon="2.7868">
        <ele>555.79998779297</ele>
        <time>2023-07-13T07:03:39.000Z</time>
      </trkpt>
      <trkpt lat="42.4257" lon="2.78678">
        <ele>555.79998779297</ele>
        <time>2023-07-13T07:03:40.000Z</time>
      </trkpt>
      <trkpt lat="42.42564" lon="2.7867">
        <ele>554.59997558594</ele>
        <time>2023-07-13T07:03:46.000Z</time>
      </trkpt>
      <trkpt lat="42.4256" lon="2.78662">
        <ele>553.40002441406</ele>
        <time>2023-07-13T07:03:51.000Z</time>
      </trkpt>
      <trkpt lat="42.4256" lon="2.78657">
        <ele>553</ele>
        <time>2023-07-13T07:03:53.000Z</time>
      </trkpt>
      <trkpt lat="42.4257" lon="2.78653">
        <ele>553</ele>
        <time>2023-07-13T07:04:00.000Z</time>
      </trkpt>
      <trkpt lat="42.42575" lon="2.78654">
        <ele>552.20001220703</ele>
        <time>2023-07-13T07:04:03.000Z</time>
      </trkpt>
      <trkpt lat="42.4258" lon="2.78653">
        <ele>551.40002441406</ele>
        <time>2023-07-13T07:04:07.000Z</time>
      </trkpt>
      <trkpt lat="42.42581" lon="2.78651">
        <ele>551</ele>
        <time>2023-07-13T07:04:08.000Z</time>
      </trkpt>
      <trkpt lat="42.42583" lon="2.78648">
        <ele>550.40002441406</ele>
        <time>2023-07-13T07:04:11.000Z</time>
      </trkpt>
      <trkpt lat="42.42583" lon="2.78646">
        <ele>550</ele>
        <time>2023-07-13T07:04:12.000Z</time>
      </trkpt>
      <trkpt lat="42.42581" lon="2.7864">
        <ele>549.20001220703</ele>
        <time>2023-07-13T07:04:15.000Z</time>
      </trkpt>
      <trkpt lat="42.4258" lon="2.78639">
        <ele>549</ele>
        <time>2023-07-13T07:04:16.000Z</time>
      </trkpt>
      <trkpt lat="42.42575" lon="2.78636">
        <ele>548</ele>
        <time>2023-07-13T07:04:21.000Z</time>
      </trkpt>
      <trkpt lat="42.42574" lon="2.78634">
        <ele>548</ele>
        <time>2023-07-13T07:04:22.000Z</time>
      </trkpt>
      <trkpt lat="42.42575" lon="2.78622">
        <ele>546.59997558594</ele>
        <time>2023-07-13T07:04:28.000Z</time>
      </trkpt>
      <trkpt lat="42.42576" lon="2.78621">
        <ele>546.59997558594</ele>
        <time>2023-07-13T07:04:29.000Z</time>
      </trkpt>
      <trkpt lat="42.42575" lon="2.7862">
        <ele>546.20001220703</ele>
        <time>2023-07-13T07:04:33.000Z</time>
      </trkpt>
      <trkpt lat="42.42576" lon="2.78618">
        <ele>546.20001220703</ele>
        <time>2023-07-13T07:04:40.000Z</time>
      </trkpt>
      <trkpt lat="42.42578" lon="2.78616">
        <ele>545.59997558594</ele>
        <time>2023-07-13T07:04:42.000Z</time>
      </trkpt>
      <trkpt lat="42.42581" lon="2.78616">
        <ele>544.79998779297</ele>
        <time>2023-07-13T07:04:45.000Z</time>
      </trkpt>
      <trkpt lat="42.42582" lon="2.78616">
        <ele>544.40002441406</ele>
        <time>2023-07-13T07:04:46.000Z</time>
      </trkpt>
      <trkpt lat="42.42582" lon="2.78617">
        <ele>544.40002441406</ele>
        <time>2023-07-13T07:04:47.000Z</time>
      </trkpt>
      <trkpt lat="42.42592" lon="2.78618">
        <ele>545.20001220703</ele>
        <time>2023-07-13T07:04:54.000Z</time>
      </trkpt>
      <trkpt lat="42.426" lon="2.7862">
        <ele>544.59997558594</ele>
        <time>2023-07-13T07:05:00.000Z</time>
      </trkpt>
      <trkpt lat="42.42603" lon="2.78617">
        <ele>544.40002441406</ele>
        <time>2023-07-13T07:05:06.000Z</time>
      </trkpt>
      <trkpt lat="42.426" lon="2.78612">
        <ele>544.40002441406</ele>
        <time>2023-07-13T07:05:15.000Z</time>
      </trkpt>
      <trkpt lat="42.42595" lon="2.78614">
        <ele>544.79998779297</ele>
        <time>2023-07-13T07:05:22.000Z</time>
      </trkpt>
      <trkpt lat="42.42588" lon="2.78616">
        <ele>544.79998779297</ele>
        <time>2023-07-13T07:05:31.000Z</time>
      </trkpt>
      <trkpt lat="42.42578" lon="2.78617">
        <ele>545</ele>
        <time>2023-07-13T07:05:39.000Z</time>
      </trkpt>
      <trkpt lat="42.42575" lon="2.78618">
        <ele>545.40002441406</ele>
        <time>2023-07-13T07:05:43.000Z</time>
      </trkpt>
      <trkpt lat="42.42565" lon="2.78615">
        <ele>546.40002441406</ele>
        <time>2023-07-13T07:05:53.000Z</time>
      </trkpt>
      <trkpt lat="42.42561" lon="2.78611">
        <ele>546.59997558594</ele>
        <time>2023-07-13T07:05:55.000Z</time>
      </trkpt>
      <trkpt lat="42.42557" lon="2.78609">
        <ele>546.79998779297</ele>
        <time>2023-07-13T07:05:59.000Z</time>
      </trkpt>
      <trkpt lat="42.42559" lon="2.7861">
        <ele>547</ele>
        <time>2023-07-13T07:06:04.000Z</time>
      </trkpt>
      <trkpt lat="42.42562" lon="2.78612">
        <ele>547</ele>
        <time>2023-07-13T07:06:07.000Z</time>
      </trkpt>
      <trkpt lat="42.42569" lon="2.78616">
        <ele>546.20001220703</ele>
        <time>2023-07-13T07:06:15.000Z</time>
      </trkpt>
      <trkpt lat="42.42575" lon="2.78614">
        <ele>546</ele>
        <time>2023-07-13T07:06:21.000Z</time>
      </trkpt>
      <trkpt lat="42.42596" lon="2.78619">
        <ele>544.59997558594</ele>
        <time>2023-07-13T07:06:39.000Z</time>
      </trkpt>
      <trkpt lat="42.42607" lon="2.78615">
        <ele>544.40002441406</ele>
        <time>2023-07-13T07:06:52.000Z</time>
      </trkpt>
      <trkpt lat="42.42608" lon="2.78612">
        <ele>544.20001220703</ele>
        <time>2023-07-13T07:07:01.000Z</time>
      </trkpt>
      <trkpt lat="42.42609" lon="2.78615">
        <ele>543.79998779297</ele>
        <time>2023-07-13T07:07:11.000Z</time>
      </trkpt>
      <trkpt lat="42.42614" lon="2.78614">
        <ele>543.59997558594</ele>
        <time>2023-07-13T07:07:18.000Z</time>
      </trkpt>
      <trkpt lat="42.42614" lon="2.78614">
        <ele>543.40002441406</ele>
        <time>2023-07-13T07:07:19.000Z</time>
      </trkpt>
      <trkpt lat="42.42625" lon="2.78613">
        <ele>542.40002441406</ele>
        <time>2023-07-13T07:07:31.000Z</time>
      </trkpt>
      <trkpt lat="42.42633" lon="2.78607">
        <ele>541.79998779297</ele>
        <time>2023-07-13T07:07:38.000Z</time>
      </trkpt>
      <trkpt lat="42.42633" lon="2.78604">
        <ele>541.79998779297</ele>
        <time>2023-07-13T07:07:42.000Z</time>
      </trkpt>
      <trkpt lat="42.42632" lon="2.78604">
        <ele>542</ele>
        <time>2023-07-13T07:07:43.000Z</time>
      </trkpt>
      <trkpt lat="42.42624" lon="2.786">
        <ele>542.79998779297</ele>
        <time>2023-07-13T07:07:48.000Z</time>
      </trkpt>
      <trkpt lat="42.42617" lon="2.78596">
        <ele>543.40002441406</ele>
        <time>2023-07-13T07:07:53.000Z</time>
      </trkpt>
      <trkpt lat="42.42615" lon="2.78596">
        <ele>543.40002441406</ele>
        <time>2023-07-13T07:07:54.000Z</time>
      </trkpt>
      <trkpt lat="42.42607" lon="2.78587">
        <ele>543.59997558594</ele>
        <time>2023-07-13T07:08:02.000Z</time>
      </trkpt>
      <trkpt lat="42.42603" lon="2.78569">
        <ele>544</ele>
        <time>2023-07-13T07:08:11.000Z</time>
      </trkpt>
      <trkpt lat="42.42601" lon="2.78564">
        <ele>544.40002441406</ele>
        <time>2023-07-13T07:08:15.000Z</time>
      </trkpt>
      <trkpt lat="42.42595" lon="2.78548">
        <ele>545</ele>
        <time>2023-07-13T07:08:25.000Z</time>
      </trkpt>
      <trkpt lat="42.42593" lon="2.7854">
        <ele>545.40002441406</ele>
        <time>2023-07-13T07:08:29.000Z</time>
      </trkpt>
      <trkpt lat="42.42589" lon="2.7853">
        <ele>545.59997558594</ele>
        <time>2023-07-13T07:08:34.000Z</time>
      </trkpt>
      <trkpt lat="42.42579" lon="2.78519">
        <ele>546.59997558594</ele>
        <time>2023-07-13T07:08:43.000Z</time>
      </trkpt>
      <trkpt lat="42.42574" lon="2.78515">
        <ele>547.20001220703</ele>
        <time>2023-07-13T07:08:47.000Z</time>
      </trkpt>
      <trkpt lat="42.42571" lon="2.78512">
        <ele>548</ele>
        <time>2023-07-13T07:08:50.000Z</time>
      </trkpt>
      <trkpt lat="42.4256" lon="2.78503">
        <ele>548.40002441406</ele>
        <time>2023-07-13T07:08:59.000Z</time>
      </trkpt>
      <trkpt lat="42.42542" lon="2.78489">
        <ele>548.79998779297</ele>
        <time>2023-07-13T07:09:14.000Z</time>
      </trkpt>
      <trkpt lat="42.42541" lon="2.78488">
        <ele>549</ele>
        <time>2023-07-13T07:09:15.000Z</time>
      </trkpt>
      <trkpt lat="42.42536" lon="2.78482">
        <ele>549.79998779297</ele>
        <time>2023-07-13T07:09:23.000Z</time>
      </trkpt>
      <trkpt lat="42.42541" lon="2.78477">
        <ele>549.79998779297</ele>
        <time>2023-07-13T07:09:30.000Z</time>
      </trkpt>
      <trkpt lat="42.42545" lon="2.78472">
        <ele>549.20001220703</ele>
        <time>2023-07-13T07:09:35.000Z</time>
      </trkpt>
      <trkpt lat="42.42549" lon="2.78469">
        <ele>549.20001220703</ele>
        <time>2023-07-13T07:09:40.000Z</time>
      </trkpt>
      <trkpt lat="42.42549" lon="2.78468">
        <ele>549.20001220703</ele>
        <time>2023-07-13T07:09:42.000Z</time>
      </trkpt>
      <trkpt lat="42.42547" lon="2.78471">
        <ele>549.20001220703</ele>
        <time>2023-07-13T07:09:45.000Z</time>
      </trkpt>
      <trkpt lat="42.42537" lon="2.78478">
        <ele>549.79998779297</ele>
        <time>2023-07-13T07:09:54.000Z</time>
      </trkpt>
      <trkpt lat="42.42532" lon="2.78478">
        <ele>550</ele>
        <time>2023-07-13T07:09:58.000Z</time>
      </trkpt>
      <trkpt lat="42.42529" lon="2.78478">
        <ele>550.20001220703</ele>
        <time>2023-07-13T07:10:00.000Z</time>
      </trkpt>
      <trkpt lat="42.42515" lon="2.78467">
        <ele>551</ele>
        <time>2023-07-13T07:10:09.000Z</time>
      </trkpt>
      <trkpt lat="42.42506" lon="2.78456">
        <ele>551.79998779297</ele>
        <time>2023-07-13T07:10:17.000Z</time>
      </trkpt>
      <trkpt lat="42.42501" lon="2.78452">
        <ele>552.20001220703</ele>
        <time>2023-07-13T07:10:21.000Z</time>
      </trkpt>
      <trkpt lat="42.42497" lon="2.78448">
        <ele>552.40002441406</ele>
        <time>2023-07-13T07:10:25.000Z</time>
      </trkpt>
      <trkpt lat="42.42486" lon="2.78443">
        <ele>553.20001220703</ele>
        <time>2023-07-13T07:10:32.000Z</time>
      </trkpt>
      <trkpt lat="42.42483" lon="2.78442">
        <ele>553.59997558594</ele>
        <time>2023-07-13T07:10:34.000Z</time>
      </trkpt>
      <trkpt lat="42.42474" lon="2.78441">
        <ele>554.20001220703</ele>
        <time>2023-07-13T07:10:41.000Z</time>
      </trkpt>
      <trkpt lat="42.4247" lon="2.78439">
        <ele>554.40002441406</ele>
        <time>2023-07-13T07:10:45.000Z</time>
      </trkpt>
      <trkpt lat="42.42468" lon="2.78434">
        <ele>554.40002441406</ele>
        <time>2023-07-13T07:10:48.000Z</time>
      </trkpt>
      <trkpt lat="42.42463" lon="2.78432">
        <ele>554.79998779297</ele>
        <time>2023-07-13T07:10:55.000Z</time>
      </trkpt>
      <trkpt lat="42.42387" lon="2.78351">
        <ele>555.79998779297</ele>
        <time>2023-07-13T07:42:51.000Z</time>
      </trkpt>
      <trkpt lat="42.42378" lon="2.7833">
        <ele>557</ele>
        <time>2023-07-13T07:43:04.000Z</time>
      </trkpt>
      <trkpt lat="42.42378" lon="2.7833">
        <ele>557</ele>
        <time>2023-07-13T07:43:05.000Z</time>
      </trkpt>
      <trkpt lat="42.42361" lon="2.78312">
        <ele>559.59997558594</ele>
        <time>2023-07-13T07:43:26.000Z</time>
      </trkpt>
      <trkpt lat="42.4236" lon="2.78307">
        <ele>560.40002441406</ele>
        <time>2023-07-13T07:43:31.000Z</time>
      </trkpt>
      <trkpt lat="42.42359" lon="2.78306">
        <ele>560.79998779297</ele>
        <time>2023-07-13T07:43:33.000Z</time>
      </trkpt>
      <trkpt lat="42.42357" lon="2.78304">
        <ele>561.40002441406</ele>
        <time>2023-07-13T07:43:38.000Z</time>
      </trkpt>
      <trkpt lat="42.42357" lon="2.78304">
        <ele>561.79998779297</ele>
        <time>2023-07-13T07:43:40.000Z</time>
      </trkpt>
      <trkpt lat="42.42334" lon="2.7829">
        <ele>566.40002441406</ele>
        <time>2023-07-13T07:44:13.000Z</time>
      </trkpt>
      <trkpt lat="42.42333" lon="2.78287">
        <ele>567.20001220703</ele>
        <time>2023-07-13T07:44:17.000Z</time>
      </trkpt>
      <trkpt lat="42.42332" lon="2.78285">
        <ele>567.20001220703</ele>
        <time>2023-07-13T07:44:18.000Z</time>
      </trkpt>
      <trkpt lat="42.42329" lon="2.78279">
        <ele>568.20001220703</ele>
        <time>2023-07-13T07:44:24.000Z</time>
      </trkpt>
      <trkpt lat="42.42327" lon="2.78274">
        <ele>569.20001220703</ele>
        <time>2023-07-13T07:44:30.000Z</time>
      </trkpt>
      <trkpt lat="42.42326" lon="2.78274">
        <ele>569.59997558594</ele>
        <time>2023-07-13T07:44:32.000Z</time>
      </trkpt>
      <trkpt lat="42.42323" lon="2.7827">
        <ele>570.40002441406</ele>
        <time>2023-07-13T07:44:37.000Z</time>
      </trkpt>
      <trkpt lat="42.42322" lon="2.78268">
        <ele>570.79998779297</ele>
        <time>2023-07-13T07:44:40.000Z</time>
      </trkpt>
      <trkpt lat="42.4232" lon="2.78263">
        <ele>571.40002441406</ele>
        <time>2023-07-13T07:44:44.000Z</time>
      </trkpt>
      <trkpt lat="42.42321" lon="2.78259">
        <ele>572.20001220703</ele>
        <time>2023-07-13T07:44:49.000Z</time>
      </trkpt>
      <trkpt lat="42.42322" lon="2.78257">
        <ele>572.59997558594</ele>
        <time>2023-07-13T07:44:51.000Z</time>
      </trkpt>
      <trkpt lat="42.42323" lon="2.78251">
        <ele>573.59997558594</ele>
        <time>2023-07-13T07:44:56.000Z</time>
      </trkpt>
      <trkpt lat="42.42323" lon="2.78251">
        <ele>573.79998779297</ele>
        <time>2023-07-13T07:44:57.000Z</time>
      </trkpt>
      <trkpt lat="42.42321" lon="2.78245">
        <ele>574.40002441406</ele>
        <time>2023-07-13T07:45:03.000Z</time>
      </trkpt>
      <trkpt lat="42.42319" lon="2.78243">
        <ele>575</ele>
        <time>2023-07-13T07:45:07.000Z</time>
      </trkpt>
      <trkpt lat="42.42316" lon="2.78236">
        <ele>575.40002441406</ele>
        <time>2023-07-13T07:45:12.000Z</time>
      </trkpt>
      <trkpt lat="42.42314" lon="2.78231">
        <ele>576</ele>
        <time>2023-07-13T07:45:16.000Z</time>
      </trkpt>
      <trkpt lat="42.42314" lon="2.78225">
        <ele>576.40002441406</ele>
        <time>2023-07-13T07:45:21.000Z</time>
      </trkpt>
      <trkpt lat="42.42313" lon="2.78222">
        <ele>577</ele>
        <time>2023-07-13T07:45:24.000Z</time>
      </trkpt>
      <trkpt lat="42.42314" lon="2.78217">
        <ele>577.59997558594</ele>
        <time>2023-07-13T07:45:28.000Z</time>
      </trkpt>
      <trkpt lat="42.42314" lon="2.78215">
        <ele>578</ele>
        <time>2023-07-13T07:45:30.000Z</time>
      </trkpt>
      <trkpt lat="42.42315" lon="2.78209">
        <ele>579</ele>
        <time>2023-07-13T07:45:35.000Z</time>
      </trkpt>
      <trkpt lat="42.42314" lon="2.78207">
        <ele>579.59997558594</ele>
        <time>2023-07-13T07:45:37.000Z</time>
      </trkpt>
      <trkpt lat="42.42315" lon="2.78204">
        <ele>580.20001220703</ele>
        <time>2023-07-13T07:45:40.000Z</time>
      </trkpt>
      <trkpt lat="42.42317" lon="2.78199">
        <ele>581.20001220703</ele>
        <time>2023-07-13T07:45:45.000Z</time>
      </trkpt>
      <trkpt lat="42.42317" lon="2.782">
        <ele>582.40002441406</ele>
        <time>2023-07-13T07:45:50.000Z</time>
      </trkpt>
      <trkpt lat="42.42318" lon="2.782">
        <ele>582.79998779297</ele>
        <time>2023-07-13T07:45:52.000Z</time>
      </trkpt>
      <trkpt lat="42.42313" lon="2.78194">
        <ele>584.20001220703</ele>
        <time>2023-07-13T07:46:02.000Z</time>
      </trkpt>
      <trkpt lat="42.42312" lon="2.78193">
        <ele>584.59997558594</ele>
        <time>2023-07-13T07:46:04.000Z</time>
      </trkpt>
      <trkpt lat="42.4231" lon="2.7819">
        <ele>585.59997558594</ele>
        <time>2023-07-13T07:46:08.000Z</time>
      </trkpt>
      <trkpt lat="42.42308" lon="2.78186">
        <ele>586.79998779297</ele>
        <time>2023-07-13T07:46:13.000Z</time>
      </trkpt>
      <trkpt lat="42.42305" lon="2.78181">
        <ele>587.79998779297</ele>
        <time>2023-07-13T07:46:20.000Z</time>
      </trkpt>
      <trkpt lat="42.42304" lon="2.78181">
        <ele>587.79998779297</ele>
        <time>2023-07-13T07:46:21.000Z</time>
      </trkpt>
      <trkpt lat="42.42302" lon="2.78179">
        <ele>588.59997558594</ele>
        <time>2023-07-13T07:46:27.000Z</time>
      </trkpt>
      <trkpt lat="42.42301" lon="2.78179">
        <ele>589</ele>
        <time>2023-07-13T07:46:29.000Z</time>
      </trkpt>
      <trkpt lat="42.42297" lon="2.78176">
        <ele>589.79998779297</ele>
        <time>2023-07-13T07:46:34.000Z</time>
      </trkpt>
      <trkpt lat="42.42296" lon="2.78176">
        <ele>590</ele>
        <time>2023-07-13T07:46:36.000Z</time>
      </trkpt>
      <trkpt lat="42.42293" lon="2.78174">
        <ele>591.20001220703</ele>
        <time>2023-07-13T07:46:41.000Z</time>
      </trkpt>
      <trkpt lat="42.42291" lon="2.78172">
        <ele>592.40002441406</ele>
        <time>2023-07-13T07:46:47.000Z</time>
      </trkpt>
      <trkpt lat="42.4228" lon="2.78169">
        <ele>594.79998779297</ele>
        <time>2023-07-13T07:47:04.000Z</time>
      </trkpt>
      <trkpt lat="42.42274" lon="2.78164">
        <ele>596.59997558594</ele>
        <time>2023-07-13T07:47:16.000Z</time>
      </trkpt>
      <trkpt lat="42.42274" lon="2.78163">
        <ele>596.79998779297</ele>
        <time>2023-07-13T07:47:17.000Z</time>
      </trkpt>
      <trkpt lat="42.4227" lon="2.78162">
        <ele>598</ele>
        <time>2023-07-13T07:47:26.000Z</time>
      </trkpt>
      <trkpt lat="42.42269" lon="2.78162">
        <ele>598.20001220703</ele>
        <time>2023-07-13T07:47:28.000Z</time>
      </trkpt>
      <trkpt lat="42.42266" lon="2.78161">
        <ele>599</ele>
        <time>2023-07-13T07:47:32.000Z</time>
      </trkpt>
      <trkpt lat="42.42261" lon="2.78162">
        <ele>600.20001220703</ele>
        <time>2023-07-13T07:47:41.000Z</time>
      </trkpt>
      <trkpt lat="42.42258" lon="2.7816">
        <ele>601.20001220703</ele>
        <time>2023-07-13T07:47:48.000Z</time>
      </trkpt>
      <trkpt lat="42.42255" lon="2.78161">
        <ele>602.40002441406</ele>
        <time>2023-07-13T07:47:55.000Z</time>
      </trkpt>
      <trkpt lat="42.42253" lon="2.7816">
        <ele>603.40002441406</ele>
        <time>2023-07-13T07:48:01.000Z</time>
      </trkpt>
      <trkpt lat="42.42252" lon="2.78161">
        <ele>603.59997558594</ele>
        <time>2023-07-13T07:48:02.000Z</time>
      </trkpt>
      <trkpt lat="42.42248" lon="2.78164">
        <ele>604.40002441406</ele>
        <time>2023-07-13T07:48:09.000Z</time>
      </trkpt>
      <trkpt lat="42.42247" lon="2.78165">
        <ele>604.59997558594</ele>
        <time>2023-07-13T07:48:10.000Z</time>
      </trkpt>
      <trkpt lat="42.42244" lon="2.7817">
        <ele>605.59997558594</ele>
        <time>2023-07-13T07:48:17.000Z</time>
      </trkpt>
      <trkpt lat="42.42241" lon="2.78174">
        <ele>606.59997558594</ele>
        <time>2023-07-13T07:48:23.000Z</time>
      </trkpt>
      <trkpt lat="42.4224" lon="2.78175">
        <ele>607</ele>
        <time>2023-07-13T07:48:26.000Z</time>
      </trkpt>
      <trkpt lat="42.42238" lon="2.78176">
        <ele>607.59997558594</ele>
        <time>2023-07-13T07:48:29.000Z</time>
      </trkpt>
      <trkpt lat="42.42234" lon="2.78177">
        <ele>608.20001220703</ele>
        <time>2023-07-13T07:48:34.000Z</time>
      </trkpt>
      <trkpt lat="42.42233" lon="2.78177">
        <ele>608.79998779297</ele>
        <time>2023-07-13T07:48:37.000Z</time>
      </trkpt>
      <trkpt lat="42.42229" lon="2.78169">
        <ele>609.79998779297</ele>
        <time>2023-07-13T07:48:46.000Z</time>
      </trkpt>
      <trkpt lat="42.42228" lon="2.78168">
        <ele>609.79998779297</ele>
        <time>2023-07-13T07:48:47.000Z</time>
      </trkpt>
      <trkpt lat="42.42228" lon="2.78172">
        <ele>609.79998779297</ele>
        <time>2023-07-13T07:48:55.000Z</time>
      </trkpt>
      <trkpt lat="42.42229" lon="2.78175">
        <ele>610</ele>
        <time>2023-07-13T07:49:04.000Z</time>
      </trkpt>
      <trkpt lat="42.42224" lon="2.78172">
        <ele>609.59997558594</ele>
        <time>2023-07-13T07:49:12.000Z</time>
      </trkpt>
      <trkpt lat="42.4222" lon="2.78175">
        <ele>610.40002441406</ele>
        <time>2023-07-13T07:49:21.000Z</time>
      </trkpt>
      <trkpt lat="42.42218" lon="2.78176">
        <ele>610.79998779297</ele>
        <time>2023-07-13T07:49:24.000Z</time>
      </trkpt>
      <trkpt lat="42.42214" lon="2.78178">
        <ele>611.79998779297</ele>
        <time>2023-07-13T07:49:30.000Z</time>
      </trkpt>
      <trkpt lat="42.42212" lon="2.78182">
        <ele>613</ele>
        <time>2023-07-13T07:49:37.000Z</time>
      </trkpt>
      <trkpt lat="42.42212" lon="2.78183">
        <ele>613.40002441406</ele>
        <time>2023-07-13T07:49:39.000Z</time>
      </trkpt>
      <trkpt lat="42.4221" lon="2.78184">
        <ele>614</ele>
        <time>2023-07-13T07:49:43.000Z</time>
      </trkpt>
      <trkpt lat="42.42207" lon="2.78186">
        <ele>614.40002441406</ele>
        <time>2023-07-13T07:49:48.000Z</time>
      </trkpt>
      <trkpt lat="42.42203" lon="2.78188">
        <ele>615</ele>
        <time>2023-07-13T07:49:53.000Z</time>
      </trkpt>
      <trkpt lat="42.42202" lon="2.7819">
        <ele>615.40002441406</ele>
        <time>2023-07-13T07:49:56.000Z</time>
      </trkpt>
      <trkpt lat="42.42194" lon="2.78192">
        <ele>616</ele>
        <time>2023-07-13T07:50:05.000Z</time>
      </trkpt>
      <trkpt lat="42.42192" lon="2.78191">
        <ele>616.20001220703</ele>
        <time>2023-07-13T07:50:07.000Z</time>
      </trkpt>
      <trkpt lat="42.42165" lon="2.78188">
        <ele>617.59997558594</ele>
        <time>2023-07-13T07:50:35.000Z</time>
      </trkpt>
      <trkpt lat="42.42162" lon="2.78188">
        <ele>618.40002441406</ele>
        <time>2023-07-13T07:50:39.000Z</time>
      </trkpt>
      <trkpt lat="42.42143" lon="2.78177">
        <ele>622.40002441406</ele>
        <time>2023-07-13T07:51:07.000Z</time>
      </trkpt>
      <trkpt lat="42.4214" lon="2.78174">
        <ele>622.59997558594</ele>
        <time>2023-07-13T07:51:10.000Z</time>
      </trkpt>
      <trkpt lat="42.42124" lon="2.78167">
        <ele>625.79998779297</ele>
        <time>2023-07-13T07:51:34.000Z</time>
      </trkpt>
      <trkpt lat="42.42123" lon="2.78165">
        <ele>626.40002441406</ele>
        <time>2023-07-13T07:51:37.000Z</time>
      </trkpt>
      <trkpt lat="42.42122" lon="2.78164">
        <ele>627</ele>
        <time>2023-07-13T07:51:41.000Z</time>
      </trkpt>
      <trkpt lat="42.42119" lon="2.78164">
        <ele>627.59997558594</ele>
        <time>2023-07-13T07:51:45.000Z</time>
      </trkpt>
      <trkpt lat="42.42117" lon="2.78163">
        <ele>628.20001220703</ele>
        <time>2023-07-13T07:51:48.000Z</time>
      </trkpt>
      <trkpt lat="42.42114" lon="2.78162">
        <ele>629.20001220703</ele>
        <time>2023-07-13T07:51:53.000Z</time>
      </trkpt>
      <trkpt lat="42.42113" lon="2.78162">
        <ele>629.40002441406</ele>
        <time>2023-07-13T07:51:54.000Z</time>
      </trkpt>
      <trkpt lat="42.42105" lon="2.78161">
        <ele>631.59997558594</ele>
        <time>2023-07-13T07:52:06.000Z</time>
      </trkpt>
      <trkpt lat="42.42097" lon="2.78152">
        <ele>632.40002441406</ele>
        <time>2023-07-13T07:52:14.000Z</time>
      </trkpt>
      <trkpt lat="42.42097" lon="2.78151">
        <ele>632.59997558594</ele>
        <time>2023-07-13T07:52:15.000Z</time>
      </trkpt>
      <trkpt lat="42.42092" lon="2.78144">
        <ele>633.59997558594</ele>
        <time>2023-07-13T07:52:22.000Z</time>
      </trkpt>
      <trkpt lat="42.42086" lon="2.78139">
        <ele>634.59997558594</ele>
        <time>2023-07-13T07:52:29.000Z</time>
      </trkpt>
      <trkpt lat="42.42087" lon="2.78137">
        <ele>635.59997558594</ele>
        <time>2023-07-13T07:52:36.000Z</time>
      </trkpt>
      <trkpt lat="42.42086" lon="2.78137">
        <ele>635.59997558594</ele>
        <time>2023-07-13T07:52:41.000Z</time>
      </trkpt>
      <trkpt lat="42.42085" lon="2.78137">
        <ele>635.79998779297</ele>
        <time>2023-07-13T07:52:43.000Z</time>
      </trkpt>
      <trkpt lat="42.42081" lon="2.78139">
        <ele>636.79998779297</ele>
        <time>2023-07-13T07:52:50.000Z</time>
      </trkpt>
      <trkpt lat="42.42077" lon="2.78141">
        <ele>638</ele>
        <time>2023-07-13T07:52:56.000Z</time>
      </trkpt>
      <trkpt lat="42.42074" lon="2.7814">
        <ele>639.20001220703</ele>
        <time>2023-07-13T07:53:01.000Z</time>
      </trkpt>
      <trkpt lat="42.42069" lon="2.78137">
        <ele>640.20001220703</ele>
        <time>2023-07-13T07:53:06.000Z</time>
      </trkpt>
      <trkpt lat="42.42066" lon="2.78133">
        <ele>641</ele>
        <time>2023-07-13T07:53:12.000Z</time>
      </trkpt>
      <trkpt lat="42.42064" lon="2.78132">
        <ele>641.20001220703</ele>
        <time>2023-07-13T07:53:14.000Z</time>
      </trkpt>
      <trkpt lat="42.42057" lon="2.78131">
        <ele>642.40002441406</ele>
        <time>2023-07-13T07:53:22.000Z</time>
      </trkpt>
      <trkpt lat="42.42056" lon="2.7813">
        <ele>642.59997558594</ele>
        <time>2023-07-13T07:53:23.000Z</time>
      </trkpt>
      <trkpt lat="42.4205" lon="2.78128">
        <ele>643.59997558594</ele>
        <time>2023-07-13T07:53:29.000Z</time>
      </trkpt>
      <trkpt lat="42.42049" lon="2.78127">
        <ele>644</ele>
        <time>2023-07-13T07:53:31.000Z</time>
      </trkpt>
      <trkpt lat="42.42047" lon="2.78126">
        <ele>644.59997558594</ele>
        <time>2023-07-13T07:53:34.000Z</time>
      </trkpt>
      <trkpt lat="42.42045" lon="2.78124">
        <ele>645.40002441406</ele>
        <time>2023-07-13T07:53:38.000Z</time>
      </trkpt>
      <trkpt lat="42.42044" lon="2.78122">
        <ele>645.59997558594</ele>
        <time>2023-07-13T07:53:41.000Z</time>
      </trkpt>
      <trkpt lat="42.42041" lon="2.78117">
        <ele>646.59997558594</ele>
        <time>2023-07-13T07:53:48.000Z</time>
      </trkpt>
      <trkpt lat="42.4204" lon="2.78117">
        <ele>646.79998779297</ele>
        <time>2023-07-13T07:53:51.000Z</time>
      </trkpt>
      <trkpt lat="42.42038" lon="2.78113">
        <ele>647.40002441406</ele>
        <time>2023-07-13T07:53:59.000Z</time>
      </trkpt>
      <trkpt lat="42.42037" lon="2.78113">
        <ele>647.40002441406</ele>
        <time>2023-07-13T07:54:06.000Z</time>
      </trkpt>
      <trkpt lat="42.42038" lon="2.78115">
        <ele>647.20001220703</ele>
        <time>2023-07-13T07:54:15.000Z</time>
      </trkpt>
      <trkpt lat="42.42039" lon="2.78117">
        <ele>647.40002441406</ele>
        <time>2023-07-13T07:54:24.000Z</time>
      </trkpt>
      <trkpt lat="42.4204" lon="2.78117">
        <ele>647.40002441406</ele>
        <time>2023-07-13T07:54:33.000Z</time>
      </trkpt>
      <trkpt lat="42.42036" lon="2.78122">
        <ele>647.59997558594</ele>
        <time>2023-07-13T07:54:57.000Z</time>
      </trkpt>
      <trkpt lat="42.42033" lon="2.78124">
        <ele>647.59997558594</ele>
        <time>2023-07-13T07:55:09.000Z</time>
      </trkpt>
      <trkpt lat="42.42034" lon="2.78117">
        <ele>647.40002441406</ele>
        <time>2023-07-13T07:55:18.000Z</time>
      </trkpt>
      <trkpt lat="42.42035" lon="2.78113">
        <ele>647.20001220703</ele>
        <time>2023-07-13T07:55:25.000Z</time>
      </trkpt>
      <trkpt lat="42.42036" lon="2.78111">
        <ele>647.20001220703</ele>
        <time>2023-07-13T07:55:33.000Z</time>
      </trkpt>
      <trkpt lat="42.42035" lon="2.78114">
        <ele>647.40002441406</ele>
        <time>2023-07-13T07:55:44.000Z</time>
      </trkpt>
      <trkpt lat="42.42037" lon="2.78112">
        <ele>647.20001220703</ele>
        <time>2023-07-13T07:55:55.000Z</time>
      </trkpt>
      <trkpt lat="42.4204" lon="2.78111">
        <ele>647</ele>
        <time>2023-07-13T07:56:02.000Z</time>
      </trkpt>
      <trkpt lat="42.42039" lon="2.78109">
        <ele>647</ele>
        <time>2023-07-13T07:56:09.000Z</time>
      </trkpt>
      <trkpt lat="42.42041" lon="2.78116">
        <ele>647</ele>
        <time>2023-07-13T07:56:14.000Z</time>
      </trkpt>
      <trkpt lat="42.42041" lon="2.78117">
        <ele>647.20001220703</ele>
        <time>2023-07-13T07:56:20.000Z</time>
      </trkpt>
      <trkpt lat="42.4204" lon="2.78115">
        <ele>647.20001220703</ele>
        <time>2023-07-13T07:56:28.000Z</time>
      </trkpt>
      <trkpt lat="42.42038" lon="2.78114">
        <ele>647.20001220703</ele>
        <time>2023-07-13T07:56:37.000Z</time>
      </trkpt>
      <trkpt lat="42.42034" lon="2.78117">
        <ele>647.20001220703</ele>
        <time>2023-07-13T07:56:50.000Z</time>
      </trkpt>
      <trkpt lat="42.42036" lon="2.78118">
        <ele>647.20001220703</ele>
        <time>2023-07-13T07:56:58.000Z</time>
      </trkpt>
      <trkpt lat="42.42038" lon="2.78117">
        <ele>647.40002441406</ele>
        <time>2023-07-13T07:57:07.000Z</time>
      </trkpt>
      <trkpt lat="42.42039" lon="2.78118">
        <ele>647.40002441406</ele>
        <time>2023-07-13T07:57:13.000Z</time>
      </trkpt>
      <trkpt lat="42.42041" lon="2.78116">
        <ele>647.40002441406</ele>
        <time>2023-07-13T07:57:21.000Z</time>
      </trkpt>
      <trkpt lat="42.42037" lon="2.78118">
        <ele>647.59997558594</ele>
        <time>2023-07-13T07:57:29.000Z</time>
      </trkpt>
      <trkpt lat="42.42037" lon="2.78119">
        <ele>647.59997558594</ele>
        <time>2023-07-13T07:57:35.000Z</time>
      </trkpt>
      <trkpt lat="42.42038" lon="2.78119">
        <ele>647.40002441406</ele>
        <time>2023-07-13T07:57:43.000Z</time>
      </trkpt>
      <trkpt lat="42.42038" lon="2.78122">
        <ele>647.59997558594</ele>
        <time>2023-07-13T07:57:51.000Z</time>
      </trkpt>
      <trkpt lat="42.42037" lon="2.78119">
        <ele>647.40002441406</ele>
        <time>2023-07-13T07:58:01.000Z</time>
      </trkpt>
      <trkpt lat="42.42036" lon="2.78118">
        <ele>647.59997558594</ele>
        <time>2023-07-13T07:58:09.000Z</time>
      </trkpt>
      <trkpt lat="42.42035" lon="2.78118">
        <ele>647.79998779297</ele>
        <time>2023-07-13T07:58:17.000Z</time>
      </trkpt>
      <trkpt lat="42.42037" lon="2.78118">
        <ele>647.40002441406</ele>
        <time>2023-07-13T07:58:25.000Z</time>
      </trkpt>
      <trkpt lat="42.42036" lon="2.78119">
        <ele>647.40002441406</ele>
        <time>2023-07-13T07:58:34.000Z</time>
      </trkpt>
      <trkpt lat="42.42035" lon="2.78121">
        <ele>647.20001220703</ele>
        <time>2023-07-13T07:58:42.000Z</time>
      </trkpt>
      <trkpt lat="42.42034" lon="2.78123">
        <ele>647</ele>
        <time>2023-07-13T07:58:49.000Z</time>
      </trkpt>
      <trkpt lat="42.42035" lon="2.7812">
        <ele>647.59997558594</ele>
        <time>2023-07-13T07:58:55.000Z</time>
      </trkpt>
      <trkpt lat="42.42035" lon="2.78118">
        <ele>647.79998779297</ele>
        <time>2023-07-13T07:59:01.000Z</time>
      </trkpt>
      <trkpt lat="42.42035" lon="2.78118">
        <ele>648</ele>
        <time>2023-07-13T07:59:02.000Z</time>
      </trkpt>
      <trkpt lat="42.42035" lon="2.78114">
        <ele>648.40002441406</ele>
        <time>2023-07-13T07:59:09.000Z</time>
      </trkpt>
      <trkpt lat="42.42034" lon="2.7811">
        <ele>648.40002441406</ele>
        <time>2023-07-13T07:59:17.000Z</time>
      </trkpt>
      <trkpt lat="42.42029" lon="2.7811">
        <ele>648.79998779297</ele>
        <time>2023-07-13T07:59:24.000Z</time>
      </trkpt>
      <trkpt lat="42.42019" lon="2.7811">
        <ele>650</ele>
        <time>2023-07-13T07:59:33.000Z</time>
      </trkpt>
      <trkpt lat="42.42011" lon="2.78107">
        <ele>650.79998779297</ele>
        <time>2023-07-13T07:59:41.000Z</time>
      </trkpt>
      <trkpt lat="42.42009" lon="2.78106">
        <ele>651.20001220703</ele>
        <time>2023-07-13T07:59:43.000Z</time>
      </trkpt>
      <trkpt lat="42.42002" lon="2.78102">
        <ele>651.79998779297</ele>
        <time>2023-07-13T07:59:49.000Z</time>
      </trkpt>
      <trkpt lat="42.41999" lon="2.78101">
        <ele>652.20001220703</ele>
        <time>2023-07-13T07:59:52.000Z</time>
      </trkpt>
      <trkpt lat="42.41995" lon="2.781">
        <ele>652.79998779297</ele>
        <time>2023-07-13T07:59:56.000Z</time>
      </trkpt>
      <trkpt lat="42.41993" lon="2.78098">
        <ele>653.20001220703</ele>
        <time>2023-07-13T07:59:59.000Z</time>
      </trkpt>
      <trkpt lat="42.41989" lon="2.78095">
        <ele>653.59997558594</ele>
        <time>2023-07-13T08:00:03.000Z</time>
      </trkpt>
      <trkpt lat="42.41985" lon="2.7809">
        <ele>654.20001220703</ele>
        <time>2023-07-13T08:00:08.000Z</time>
      </trkpt>
      <trkpt lat="42.41982" lon="2.78088">
        <ele>654.59997558594</ele>
        <time>2023-07-13T08:00:10.000Z</time>
      </trkpt>
      <trkpt lat="42.41976" lon="2.78082">
        <ele>655.20001220703</ele>
        <time>2023-07-13T08:00:17.000Z</time>
      </trkpt>
      <trkpt lat="42.41974" lon="2.78081">
        <ele>655.40002441406</ele>
        <time>2023-07-13T08:00:18.000Z</time>
      </trkpt>
      <trkpt lat="42.41965" lon="2.78077">
        <ele>656.40002441406</ele>
        <time>2023-07-13T08:00:26.000Z</time>
      </trkpt>
      <trkpt lat="42.4196" lon="2.78072">
        <ele>657.40002441406</ele>
        <time>2023-07-13T08:00:32.000Z</time>
      </trkpt>
      <trkpt lat="42.41959" lon="2.78071">
        <ele>657.59997558594</ele>
        <time>2023-07-13T08:00:34.000Z</time>
      </trkpt>
      <trkpt lat="42.41956" lon="2.78068">
        <ele>658.40002441406</ele>
        <time>2023-07-13T08:00:38.000Z</time>
      </trkpt>
      <trkpt lat="42.41954" lon="2.78067">
        <ele>659</ele>
        <time>2023-07-13T08:00:41.000Z</time>
      </trkpt>
      <trkpt lat="42.41951" lon="2.78065">
        <ele>659.59997558594</ele>
        <time>2023-07-13T08:00:45.000Z</time>
      </trkpt>
      <trkpt lat="42.4195" lon="2.78064">
        <ele>660</ele>
        <time>2023-07-13T08:00:47.000Z</time>
      </trkpt>
      <trkpt lat="42.41946" lon="2.78061">
        <ele>660.79998779297</ele>
        <time>2023-07-13T08:00:51.000Z</time>
      </trkpt>
      <trkpt lat="42.41941" lon="2.78059">
        <ele>661</ele>
        <time>2023-07-13T08:00:55.000Z</time>
      </trkpt>
      <trkpt lat="42.41936" lon="2.7806">
        <ele>662</ele>
        <time>2023-07-13T08:01:01.000Z</time>
      </trkpt>
      <trkpt lat="42.41935" lon="2.7806">
        <ele>662.40002441406</ele>
        <time>2023-07-13T08:01:03.000Z</time>
      </trkpt>
      <trkpt lat="42.41929" lon="2.78058">
        <ele>663</ele>
        <time>2023-07-13T08:01:09.000Z</time>
      </trkpt>
      <trkpt lat="42.41927" lon="2.78057">
        <ele>663.59997558594</ele>
        <time>2023-07-13T08:01:12.000Z</time>
      </trkpt>
      <trkpt lat="42.41924" lon="2.78055">
        <ele>664.20001220703</ele>
        <time>2023-07-13T08:01:16.000Z</time>
      </trkpt>
      <trkpt lat="42.4192" lon="2.78054">
        <ele>665</ele>
        <time>2023-07-13T08:01:20.000Z</time>
      </trkpt>
      <trkpt lat="42.41919" lon="2.78054">
        <ele>665.40002441406</ele>
        <time>2023-07-13T08:01:21.000Z</time>
      </trkpt>
      <trkpt lat="42.41915" lon="2.78054">
        <ele>666.40002441406</ele>
        <time>2023-07-13T08:01:27.000Z</time>
      </trkpt>
      <trkpt lat="42.4191" lon="2.78054">
        <ele>667.59997558594</ele>
        <time>2023-07-13T08:01:33.000Z</time>
      </trkpt>
      <trkpt lat="42.41909" lon="2.78054">
        <ele>667.59997558594</ele>
        <time>2023-07-13T08:01:34.000Z</time>
      </trkpt>
      <trkpt lat="42.41903" lon="2.78055">
        <ele>668.59997558594</ele>
        <time>2023-07-13T08:01:41.000Z</time>
      </trkpt>
      <trkpt lat="42.41902" lon="2.78055">
        <ele>668.59997558594</ele>
        <time>2023-07-13T08:01:42.000Z</time>
      </trkpt>
      <trkpt lat="42.41897" lon="2.78054">
        <ele>669.79998779297</ele>
        <time>2023-07-13T08:01:49.000Z</time>
      </trkpt>
      <trkpt lat="42.41896" lon="2.78054">
        <ele>670</ele>
        <time>2023-07-13T08:01:50.000Z</time>
      </trkpt>
      <trkpt lat="42.41892" lon="2.78052">
        <ele>670.79998779297</ele>
        <time>2023-07-13T08:01:55.000Z</time>
      </trkpt>
      <trkpt lat="42.41889" lon="2.78051">
        <ele>671</ele>
        <time>2023-07-13T08:01:59.000Z</time>
      </trkpt>
      <trkpt lat="42.41888" lon="2.78051">
        <ele>672</ele>
        <time>2023-07-13T08:02:02.000Z</time>
      </trkpt>
      <trkpt lat="42.41885" lon="2.78052">
        <ele>673</ele>
        <time>2023-07-13T08:02:05.000Z</time>
      </trkpt>
      <trkpt lat="42.41884" lon="2.78052">
        <ele>673.20001220703</ele>
        <time>2023-07-13T08:02:07.000Z</time>
      </trkpt>
      <trkpt lat="42.41878" lon="2.78052">
        <ele>673.20001220703</ele>
        <time>2023-07-13T08:02:14.000Z</time>
      </trkpt>
      <trkpt lat="42.41875" lon="2.78051">
        <ele>674.20001220703</ele>
        <time>2023-07-13T08:02:19.000Z</time>
      </trkpt>
      <trkpt lat="42.41872" lon="2.78051">
        <ele>675</ele>
        <time>2023-07-13T08:02:22.000Z</time>
      </trkpt>
      <trkpt lat="42.41872" lon="2.78052">
        <ele>675.20001220703</ele>
        <time>2023-07-13T08:02:23.000Z</time>
      </trkpt>
      <trkpt lat="42.41866" lon="2.78054">
        <ele>675.59997558594</ele>
        <time>2023-07-13T08:02:30.000Z</time>
      </trkpt>
      <trkpt lat="42.41862" lon="2.78055">
        <ele>676.40002441406</ele>
        <time>2023-07-13T08:02:35.000Z</time>
      </trkpt>
      <trkpt lat="42.4186" lon="2.78055">
        <ele>676.79998779297</ele>
        <time>2023-07-13T08:02:38.000Z</time>
      </trkpt>
      <trkpt lat="42.4186" lon="2.78055">
        <ele>677.59997558594</ele>
        <time>2023-07-13T08:02:42.000Z</time>
      </trkpt>
      <trkpt lat="42.41856" lon="2.78054">
        <ele>678.40002441406</ele>
        <time>2023-07-13T08:02:46.000Z</time>
      </trkpt>
      <trkpt lat="42.41855" lon="2.78054">
        <ele>678.59997558594</ele>
        <time>2023-07-13T08:02:48.000Z</time>
      </trkpt>
      <trkpt lat="42.41848" lon="2.78052">
        <ele>679.59997558594</ele>
        <time>2023-07-13T08:02:56.000Z</time>
      </trkpt>
      <trkpt lat="42.41848" lon="2.78052">
        <ele>679.59997558594</ele>
        <time>2023-07-13T08:02:57.000Z</time>
      </trkpt>
      <trkpt lat="42.41842" lon="2.78054">
        <ele>680.79998779297</ele>
        <time>2023-07-13T08:03:05.000Z</time>
      </trkpt>
      <trkpt lat="42.41837" lon="2.78053">
        <ele>682</ele>
        <time>2023-07-13T08:03:12.000Z</time>
      </trkpt>
      <trkpt lat="42.41836" lon="2.78054">
        <ele>682.20001220703</ele>
        <time>2023-07-13T08:03:13.000Z</time>
      </trkpt>
      <trkpt lat="42.41833" lon="2.78053">
        <ele>683</ele>
        <time>2023-07-13T08:03:18.000Z</time>
      </trkpt>
      <trkpt lat="42.4183" lon="2.78053">
        <ele>683.40002441406</ele>
        <time>2023-07-13T08:03:22.000Z</time>
      </trkpt>
      <trkpt lat="42.41824" lon="2.78052">
        <ele>684.20001220703</ele>
        <time>2023-07-13T08:03:29.000Z</time>
      </trkpt>
      <trkpt lat="42.41823" lon="2.78052">
        <ele>684.20001220703</ele>
        <time>2023-07-13T08:03:30.000Z</time>
      </trkpt>
      <trkpt lat="42.41818" lon="2.78052">
        <ele>685.20001220703</ele>
        <time>2023-07-13T08:03:39.000Z</time>
      </trkpt>
      <trkpt lat="42.41814" lon="2.78051">
        <ele>686.20001220703</ele>
        <time>2023-07-13T08:03:44.000Z</time>
      </trkpt>
      <trkpt lat="42.41813" lon="2.78051">
        <ele>686.59997558594</ele>
        <time>2023-07-13T08:03:45.000Z</time>
      </trkpt>
      <trkpt lat="42.4181" lon="2.78053">
        <ele>687.40002441406</ele>
        <time>2023-07-13T08:03:51.000Z</time>
      </trkpt>
      <trkpt lat="42.4181" lon="2.78053">
        <ele>687.59997558594</ele>
        <time>2023-07-13T08:03:52.000Z</time>
      </trkpt>
      <trkpt lat="42.41804" lon="2.78053">
        <ele>688.40002441406</ele>
        <time>2023-07-13T08:03:58.000Z</time>
      </trkpt>
      <trkpt lat="42.41802" lon="2.78053">
        <ele>688.79998779297</ele>
        <time>2023-07-13T08:04:00.000Z</time>
      </trkpt>
      <trkpt lat="42.418" lon="2.78053">
        <ele>689.59997558594</ele>
        <time>2023-07-13T08:04:02.000Z</time>
      </trkpt>
      <trkpt lat="42.41798" lon="2.78054">
        <ele>689.59997558594</ele>
        <time>2023-07-13T08:04:06.000Z</time>
      </trkpt>
      <trkpt lat="42.41792" lon="2.78054">
        <ele>690.59997558594</ele>
        <time>2023-07-13T08:04:13.000Z</time>
      </trkpt>
      <trkpt lat="42.41789" lon="2.78055">
        <ele>691.79998779297</ele>
        <time>2023-07-13T08:04:20.000Z</time>
      </trkpt>
      <trkpt lat="42.41786" lon="2.78056">
        <ele>693</ele>
        <time>2023-07-13T08:04:26.000Z</time>
      </trkpt>
      <trkpt lat="42.41785" lon="2.78056">
        <ele>693.20001220703</ele>
        <time>2023-07-13T08:04:28.000Z</time>
      </trkpt>
      <trkpt lat="42.4178" lon="2.78053">
        <ele>694</ele>
        <time>2023-07-13T08:04:35.000Z</time>
      </trkpt>
      <trkpt lat="42.41779" lon="2.78052">
        <ele>694.20001220703</ele>
        <time>2023-07-13T08:04:36.000Z</time>
      </trkpt>
      <trkpt lat="42.41776" lon="2.7805">
        <ele>695.40002441406</ele>
        <time>2023-07-13T08:04:43.000Z</time>
      </trkpt>
      <trkpt lat="42.41774" lon="2.78049">
        <ele>695.59997558594</ele>
        <time>2023-07-13T08:04:45.000Z</time>
      </trkpt>
      <trkpt lat="42.4177" lon="2.7805">
        <ele>696.40002441406</ele>
        <time>2023-07-13T08:04:49.000Z</time>
      </trkpt>
      <trkpt lat="42.41768" lon="2.7805">
        <ele>697.59997558594</ele>
        <time>2023-07-13T08:04:53.000Z</time>
      </trkpt>
      <trkpt lat="42.41764" lon="2.78052">
        <ele>698.59997558594</ele>
        <time>2023-07-13T08:04:59.000Z</time>
      </trkpt>
      <trkpt lat="42.41764" lon="2.78052">
        <ele>698.79998779297</ele>
        <time>2023-07-13T08:05:00.000Z</time>
      </trkpt>
      <trkpt lat="42.4176" lon="2.78053">
        <ele>699.79998779297</ele>
        <time>2023-07-13T08:05:07.000Z</time>
      </trkpt>
      <trkpt lat="42.41758" lon="2.78053">
        <ele>700.79998779297</ele>
        <time>2023-07-13T08:05:14.000Z</time>
      </trkpt>
      <trkpt lat="42.41755" lon="2.78055">
        <ele>701.40002441406</ele>
        <time>2023-07-13T08:05:17.000Z</time>
      </trkpt>
      <trkpt lat="42.41751" lon="2.78056">
        <ele>701.79998779297</ele>
        <time>2023-07-13T08:05:20.000Z</time>
      </trkpt>
      <trkpt lat="42.41744" lon="2.78057">
        <ele>702.79998779297</ele>
        <time>2023-07-13T08:05:25.000Z</time>
      </trkpt>
      <trkpt lat="42.41738" lon="2.78059">
        <ele>703.79998779297</ele>
        <time>2023-07-13T08:05:33.000Z</time>
      </trkpt>
      <trkpt lat="42.41737" lon="2.78059">
        <ele>704</ele>
        <time>2023-07-13T08:05:34.000Z</time>
      </trkpt>
      <trkpt lat="42.41732" lon="2.78063">
        <ele>704.79998779297</ele>
        <time>2023-07-13T08:05:41.000Z</time>
      </trkpt>
      <trkpt lat="42.4173" lon="2.78063">
        <ele>705</ele>
        <time>2023-07-13T08:05:43.000Z</time>
      </trkpt>
      <trkpt lat="42.41726" lon="2.78066">
        <ele>705.40002441406</ele>
        <time>2023-07-13T08:05:48.000Z</time>
      </trkpt>
      <trkpt lat="42.41723" lon="2.7807">
        <ele>706</ele>
        <time>2023-07-13T08:05:53.000Z</time>
      </trkpt>
      <trkpt lat="42.41721" lon="2.78073">
        <ele>706.20001220703</ele>
        <time>2023-07-13T08:05:55.000Z</time>
      </trkpt>
      <trkpt lat="42.41718" lon="2.78077">
        <ele>707</ele>
        <time>2023-07-13T08:06:00.000Z</time>
      </trkpt>
      <trkpt lat="42.41715" lon="2.7808">
        <ele>707.40002441406</ele>
        <time>2023-07-13T08:06:03.000Z</time>
      </trkpt>
      <trkpt lat="42.41711" lon="2.78083">
        <ele>708.20001220703</ele>
        <time>2023-07-13T08:06:08.000Z</time>
      </trkpt>
      <trkpt lat="42.41708" lon="2.78085">
        <ele>708.79998779297</ele>
        <time>2023-07-13T08:06:12.000Z</time>
      </trkpt>
      <trkpt lat="42.41707" lon="2.78085">
        <ele>709.20001220703</ele>
        <time>2023-07-13T08:06:14.000Z</time>
      </trkpt>
      <trkpt lat="42.41704" lon="2.78088">
        <ele>709.59997558594</ele>
        <time>2023-07-13T08:06:21.000Z</time>
      </trkpt>
      <trkpt lat="42.41697" lon="2.78092">
        <ele>710.20001220703</ele>
        <time>2023-07-13T08:06:27.000Z</time>
      </trkpt>
      <trkpt lat="42.41695" lon="2.78093">
        <ele>710.40002441406</ele>
        <time>2023-07-13T08:06:29.000Z</time>
      </trkpt>
      <trkpt lat="42.41689" lon="2.78096">
        <ele>710.79998779297</ele>
        <time>2023-07-13T08:06:35.000Z</time>
      </trkpt>
      <trkpt lat="42.41683" lon="2.78099">
        <ele>711.40002441406</ele>
        <time>2023-07-13T08:06:41.000Z</time>
      </trkpt>
      <trkpt lat="42.41682" lon="2.78099">
        <ele>711.59997558594</ele>
        <time>2023-07-13T08:06:42.000Z</time>
      </trkpt>
      <trkpt lat="42.41676" lon="2.78101">
        <ele>712.40002441406</ele>
        <time>2023-07-13T08:06:47.000Z</time>
      </trkpt>
      <trkpt lat="42.41673" lon="2.78102">
        <ele>713.40002441406</ele>
        <time>2023-07-13T08:06:51.000Z</time>
      </trkpt>
      <trkpt lat="42.41672" lon="2.78102">
        <ele>713.59997558594</ele>
        <time>2023-07-13T08:06:52.000Z</time>
      </trkpt>
      <trkpt lat="42.41667" lon="2.78102">
        <ele>714.40002441406</ele>
        <time>2023-07-13T08:06:57.000Z</time>
      </trkpt>
      <trkpt lat="42.41665" lon="2.78103">
        <ele>714.79998779297</ele>
        <time>2023-07-13T08:07:00.000Z</time>
      </trkpt>
      <trkpt lat="42.41659" lon="2.78105">
        <ele>715.40002441406</ele>
        <time>2023-07-13T08:07:06.000Z</time>
      </trkpt>
      <trkpt lat="42.41658" lon="2.78106">
        <ele>715.79998779297</ele>
        <time>2023-07-13T08:07:08.000Z</time>
      </trkpt>
      <trkpt lat="42.4165" lon="2.78109">
        <ele>716.40002441406</ele>
        <time>2023-07-13T08:07:14.000Z</time>
      </trkpt>
      <trkpt lat="42.41642" lon="2.7811">
        <ele>716.79998779297</ele>
        <time>2023-07-13T08:07:21.000Z</time>
      </trkpt>
      <trkpt lat="42.41641" lon="2.7811">
        <ele>716.79998779297</ele>
        <time>2023-07-13T08:07:22.000Z</time>
      </trkpt>
      <trkpt lat="42.41636" lon="2.78112">
        <ele>717.20001220703</ele>
        <time>2023-07-13T08:07:28.000Z</time>
      </trkpt>
      <trkpt lat="42.41629" lon="2.78114">
        <ele>717.79998779297</ele>
        <time>2023-07-13T08:07:35.000Z</time>
      </trkpt>
      <trkpt lat="42.41619" lon="2.78117">
        <ele>718.59997558594</ele>
        <time>2023-07-13T08:07:44.000Z</time>
      </trkpt>
      <trkpt lat="42.41615" lon="2.7812">
        <ele>718.79998779297</ele>
        <time>2023-07-13T08:07:48.000Z</time>
      </trkpt>
      <trkpt lat="42.41612" lon="2.78121">
        <ele>719.20001220703</ele>
        <time>2023-07-13T08:07:51.000Z</time>
      </trkpt>
      <trkpt lat="42.41605" lon="2.78123">
        <ele>720</ele>
        <time>2023-07-13T08:07:57.000Z</time>
      </trkpt>
      <trkpt lat="42.41604" lon="2.78123">
        <ele>720</ele>
        <time>2023-07-13T08:07:58.000Z</time>
      </trkpt>
      <trkpt lat="42.41601" lon="2.78124">
        <ele>720.20001220703</ele>
        <time>2023-07-13T08:08:04.000Z</time>
      </trkpt>
      <trkpt lat="42.41596" lon="2.78126">
        <ele>720.40002441406</ele>
        <time>2023-07-13T08:08:11.000Z</time>
      </trkpt>
      <trkpt lat="42.41584" lon="2.78128">
        <ele>720.40002441406</ele>
        <time>2023-07-13T08:08:19.000Z</time>
      </trkpt>
      <trkpt lat="42.41574" lon="2.78128">
        <ele>720.79998779297</ele>
        <time>2023-07-13T08:08:28.000Z</time>
      </trkpt>
      <trkpt lat="42.41567" lon="2.78129">
        <ele>721</ele>
        <time>2023-07-13T08:08:35.000Z</time>
      </trkpt>
      <trkpt lat="42.41566" lon="2.78129">
        <ele>721</ele>
        <time>2023-07-13T08:08:36.000Z</time>
      </trkpt>
      <trkpt lat="42.4156" lon="2.78129">
        <ele>721.40002441406</ele>
        <time>2023-07-13T08:08:42.000Z</time>
      </trkpt>
      <trkpt lat="42.41548" lon="2.78127">
        <ele>721.59997558594</ele>
        <time>2023-07-13T08:08:51.000Z</time>
      </trkpt>
      <trkpt lat="42.41538" lon="2.78129">
        <ele>722</ele>
        <time>2023-07-13T08:08:58.000Z</time>
      </trkpt>
      <trkpt lat="42.41536" lon="2.78132">
        <ele>722</ele>
        <time>2023-07-13T08:09:00.000Z</time>
      </trkpt>
      <trkpt lat="42.41533" lon="2.78134">
        <ele>722</ele>
        <time>2023-07-13T08:09:05.000Z</time>
      </trkpt>
      <trkpt lat="42.41529" lon="2.78139">
        <ele>721.79998779297</ele>
        <time>2023-07-13T08:09:12.000Z</time>
      </trkpt>
      <trkpt lat="42.41526" lon="2.7814">
        <ele>722</ele>
        <time>2023-07-13T08:09:20.000Z</time>
      </trkpt>
      <trkpt lat="42.41528" lon="2.78142">
        <ele>722</ele>
        <time>2023-07-13T08:09:28.000Z</time>
      </trkpt>
      <trkpt lat="42.41529" lon="2.78142">
        <ele>721.59997558594</ele>
        <time>2023-07-13T08:09:37.000Z</time>
      </trkpt>
      <trkpt lat="42.41524" lon="2.78144">
        <ele>721.40002441406</ele>
        <time>2023-07-13T08:09:43.000Z</time>
      </trkpt>
      <trkpt lat="42.41519" lon="2.78144">
        <ele>721.40002441406</ele>
        <time>2023-07-13T08:09:49.000Z</time>
      </trkpt>
      <trkpt lat="42.41518" lon="2.78143">
        <ele>721</ele>
        <time>2023-07-13T08:09:58.000Z</time>
      </trkpt>
      <trkpt lat="42.41518" lon="2.78143">
        <ele>720.79998779297</ele>
        <time>2023-07-13T08:10:00.000Z</time>
      </trkpt>
      <trkpt lat="42.41516" lon="2.78149">
        <ele>720.20001220703</ele>
        <time>2023-07-13T08:10:10.000Z</time>
      </trkpt>
      <trkpt lat="42.41515" lon="2.78153">
        <ele>720.40002441406</ele>
        <time>2023-07-13T08:10:18.000Z</time>
      </trkpt>
      <trkpt lat="42.41508" lon="2.78154">
        <ele>720.20001220703</ele>
        <time>2023-07-13T08:10:26.000Z</time>
      </trkpt>
      <trkpt lat="42.41504" lon="2.78157">
        <ele>719.79998779297</ele>
        <time>2023-07-13T08:10:32.000Z</time>
      </trkpt>
      <trkpt lat="42.41503" lon="2.7816">
        <ele>719.59997558594</ele>
        <time>2023-07-13T08:10:35.000Z</time>
      </trkpt>
      <trkpt lat="42.41501" lon="2.78163">
        <ele>718.79998779297</ele>
        <time>2023-07-13T08:10:40.000Z</time>
      </trkpt>
      <trkpt lat="42.415" lon="2.78166">
        <ele>718.59997558594</ele>
        <time>2023-07-13T08:10:42.000Z</time>
      </trkpt>
      <trkpt lat="42.41497" lon="2.78176">
        <ele>717.59997558594</ele>
        <time>2023-07-13T08:10:50.000Z</time>
      </trkpt>
      <trkpt lat="42.41497" lon="2.78177">
        <ele>717.59997558594</ele>
        <time>2023-07-13T08:10:51.000Z</time>
      </trkpt>
      <trkpt lat="42.41496" lon="2.78189">
        <ele>716.59997558594</ele>
        <time>2023-07-13T08:10:58.000Z</time>
      </trkpt>
      <trkpt lat="42.41493" lon="2.78193">
        <ele>715.59997558594</ele>
        <time>2023-07-13T08:11:06.000Z</time>
      </trkpt>
      <trkpt lat="42.41492" lon="2.78192">
        <ele>715.59997558594</ele>
        <time>2023-07-13T08:11:07.000Z</time>
      </trkpt>
      <trkpt lat="42.41489" lon="2.78186">
        <ele>715.20001220703</ele>
        <time>2023-07-13T08:11:12.000Z</time>
      </trkpt>
      <trkpt lat="42.4149" lon="2.78174">
        <ele>715.40002441406</ele>
        <time>2023-07-13T08:11:19.000Z</time>
      </trkpt>
      <trkpt lat="42.41489" lon="2.78168">
        <ele>715.79998779297</ele>
        <time>2023-07-13T08:11:25.000Z</time>
      </trkpt>
      <trkpt lat="42.41489" lon="2.78165">
        <ele>716.40002441406</ele>
        <time>2023-07-13T08:11:38.000Z</time>
      </trkpt>
      <trkpt lat="42.41488" lon="2.78158">
        <ele>716.59997558594</ele>
        <time>2023-07-13T08:11:43.000Z</time>
      </trkpt>
      <trkpt lat="42.41488" lon="2.78154">
        <ele>717.20001220703</ele>
        <time>2023-07-13T08:11:46.000Z</time>
      </trkpt>
      <trkpt lat="42.41488" lon="2.78148">
        <ele>717.59997558594</ele>
        <time>2023-07-13T08:11:52.000Z</time>
      </trkpt>
      <trkpt lat="42.41487" lon="2.78144">
        <ele>718.20001220703</ele>
        <time>2023-07-13T08:11:56.000Z</time>
      </trkpt>
      <trkpt lat="42.41486" lon="2.78141">
        <ele>718.79998779297</ele>
        <time>2023-07-13T08:11:59.000Z</time>
      </trkpt>
      <trkpt lat="42.41483" lon="2.78136">
        <ele>719.40002441406</ele>
        <time>2023-07-13T08:12:05.000Z</time>
      </trkpt>
      <trkpt lat="42.41481" lon="2.78131">
        <ele>719.79998779297</ele>
        <time>2023-07-13T08:12:08.000Z</time>
      </trkpt>
      <trkpt lat="42.41477" lon="2.78121">
        <ele>720.40002441406</ele>
        <time>2023-07-13T08:12:14.000Z</time>
      </trkpt>
      <trkpt lat="42.41471" lon="2.78116">
        <ele>720.59997558594</ele>
        <time>2023-07-13T08:12:21.000Z</time>
      </trkpt>
      <trkpt lat="42.41469" lon="2.78114">
        <ele>720.79998779297</ele>
        <time>2023-07-13T08:12:23.000Z</time>
      </trkpt>
      <trkpt lat="42.41465" lon="2.78109">
        <ele>721.40002441406</ele>
        <time>2023-07-13T08:12:29.000Z</time>
      </trkpt>
      <trkpt lat="42.41463" lon="2.7811">
        <ele>722</ele>
        <time>2023-07-13T08:12:33.000Z</time>
      </trkpt>
      <trkpt lat="42.41461" lon="2.78107">
        <ele>722.40002441406</ele>
        <time>2023-07-13T08:12:36.000Z</time>
      </trkpt>
      <trkpt lat="42.41458" lon="2.78102">
        <ele>723</ele>
        <time>2023-07-13T08:12:40.000Z</time>
      </trkpt>
      <trkpt lat="42.41456" lon="2.78099">
        <ele>723.20001220703</ele>
        <time>2023-07-13T08:12:43.000Z</time>
      </trkpt>
      <trkpt lat="42.4145" lon="2.7809">
        <ele>724</ele>
        <time>2023-07-13T08:12:50.000Z</time>
      </trkpt>
      <trkpt lat="42.41448" lon="2.78088">
        <ele>724.20001220703</ele>
        <time>2023-07-13T08:12:53.000Z</time>
      </trkpt>
      <trkpt lat="42.41444" lon="2.78081">
        <ele>725</ele>
        <time>2023-07-13T08:13:02.000Z</time>
      </trkpt>
      <trkpt lat="42.41442" lon="2.7808">
        <ele>725.20001220703</ele>
        <time>2023-07-13T08:13:03.000Z</time>
      </trkpt>
      <trkpt lat="42.41437" lon="2.78075">
        <ele>726.20001220703</ele>
        <time>2023-07-13T08:13:10.000Z</time>
      </trkpt>
      <trkpt lat="42.41436" lon="2.78074">
        <ele>726.40002441406</ele>
        <time>2023-07-13T08:13:11.000Z</time>
      </trkpt>
      <trkpt lat="42.41431" lon="2.78071">
        <ele>727</ele>
        <time>2023-07-13T08:13:17.000Z</time>
      </trkpt>
      <trkpt lat="42.4143" lon="2.7807">
        <ele>727.20001220703</ele>
        <time>2023-07-13T08:13:18.000Z</time>
      </trkpt>
      <trkpt lat="42.41424" lon="2.78062">
        <ele>728</ele>
        <time>2023-07-13T08:13:30.000Z</time>
      </trkpt>
      <trkpt lat="42.41421" lon="2.78061">
        <ele>728.20001220703</ele>
        <time>2023-07-13T08:13:34.000Z</time>
      </trkpt>
      <trkpt lat="42.41415" lon="2.7806">
        <ele>728.59997558594</ele>
        <time>2023-07-13T08:13:39.000Z</time>
      </trkpt>
      <trkpt lat="42.41408" lon="2.78061">
        <ele>729.40002441406</ele>
        <time>2023-07-13T08:13:46.000Z</time>
      </trkpt>
      <trkpt lat="42.41407" lon="2.78062">
        <ele>729.40002441406</ele>
        <time>2023-07-13T08:13:47.000Z</time>
      </trkpt>
      <trkpt lat="42.41402" lon="2.78061">
        <ele>730.40002441406</ele>
        <time>2023-07-13T08:13:52.000Z</time>
      </trkpt>
      <trkpt lat="42.41402" lon="2.78061">
        <ele>730.59997558594</ele>
        <time>2023-07-13T08:13:53.000Z</time>
      </trkpt>
      <trkpt lat="42.41397" lon="2.7806">
        <ele>731.40002441406</ele>
        <time>2023-07-13T08:14:00.000Z</time>
      </trkpt>
      <trkpt lat="42.41396" lon="2.7806">
        <ele>731.59997558594</ele>
        <time>2023-07-13T08:14:02.000Z</time>
      </trkpt>
      <trkpt lat="42.41387" lon="2.78058">
        <ele>732.59997558594</ele>
        <time>2023-07-13T08:14:10.000Z</time>
      </trkpt>
      <trkpt lat="42.41381" lon="2.78058">
        <ele>733.40002441406</ele>
        <time>2023-07-13T08:14:18.000Z</time>
      </trkpt>
      <trkpt lat="42.41379" lon="2.78059">
        <ele>733.59997558594</ele>
        <time>2023-07-13T08:14:20.000Z</time>
      </trkpt>
      <trkpt lat="42.41374" lon="2.78061">
        <ele>734.20001220703</ele>
        <time>2023-07-13T08:14:26.000Z</time>
      </trkpt>
      <trkpt lat="42.41364" lon="2.78065">
        <ele>734.59997558594</ele>
        <time>2023-07-13T08:14:33.000Z</time>
      </trkpt>
      <trkpt lat="42.41363" lon="2.78065">
        <ele>734.79998779297</ele>
        <time>2023-07-13T08:14:34.000Z</time>
      </trkpt>
      <trkpt lat="42.41354" lon="2.78069">
        <ele>735.40002441406</ele>
        <time>2023-07-13T08:14:42.000Z</time>
      </trkpt>
      <trkpt lat="42.41349" lon="2.78071">
        <ele>735.79998779297</ele>
        <time>2023-07-13T08:14:47.000Z</time>
      </trkpt>
      <trkpt lat="42.41346" lon="2.78073">
        <ele>736</ele>
        <time>2023-07-13T08:14:50.000Z</time>
      </trkpt>
      <trkpt lat="42.41336" lon="2.78079">
        <ele>736.79998779297</ele>
        <time>2023-07-13T08:14:58.000Z</time>
      </trkpt>
      <trkpt lat="42.41329" lon="2.78083">
        <ele>737.79998779297</ele>
        <time>2023-07-13T08:15:04.000Z</time>
      </trkpt>
      <trkpt lat="42.41325" lon="2.78085">
        <ele>738.20001220703</ele>
        <time>2023-07-13T08:15:07.000Z</time>
      </trkpt>
      <trkpt lat="42.41319" lon="2.78088">
        <ele>738.79998779297</ele>
        <time>2023-07-13T08:15:13.000Z</time>
      </trkpt>
      <trkpt lat="42.41309" lon="2.78093">
        <ele>739.40002441406</ele>
        <time>2023-07-13T08:15:23.000Z</time>
      </trkpt>
      <trkpt lat="42.41307" lon="2.78094">
        <ele>740</ele>
        <time>2023-07-13T08:15:26.000Z</time>
      </trkpt>
      <trkpt lat="42.41304" lon="2.78095">
        <ele>740.59997558594</ele>
        <time>2023-07-13T08:15:30.000Z</time>
      </trkpt>
      <trkpt lat="42.41302" lon="2.78095">
        <ele>741</ele>
        <time>2023-07-13T08:15:33.000Z</time>
      </trkpt>
      <trkpt lat="42.41297" lon="2.78097">
        <ele>741.79998779297</ele>
        <time>2023-07-13T08:15:38.000Z</time>
      </trkpt>
      <trkpt lat="42.41296" lon="2.78098">
        <ele>742</ele>
        <time>2023-07-13T08:15:39.000Z</time>
      </trkpt>
      <trkpt lat="42.41291" lon="2.78103">
        <ele>743.20001220703</ele>
        <time>2023-07-13T08:15:45.000Z</time>
      </trkpt>
      <trkpt lat="42.4129" lon="2.78103">
        <ele>743.40002441406</ele>
        <time>2023-07-13T08:15:46.000Z</time>
      </trkpt>
      <trkpt lat="42.41286" lon="2.78104">
        <ele>744.40002441406</ele>
        <time>2023-07-13T08:15:51.000Z</time>
      </trkpt>
      <trkpt lat="42.41283" lon="2.78104">
        <ele>744.59997558594</ele>
        <time>2023-07-13T08:15:54.000Z</time>
      </trkpt>
      <trkpt lat="42.41276" lon="2.78104">
        <ele>745.59997558594</ele>
        <time>2023-07-13T08:16:00.000Z</time>
      </trkpt>
      <trkpt lat="42.41274" lon="2.78104">
        <ele>746</ele>
        <time>2023-07-13T08:16:02.000Z</time>
      </trkpt>
      <trkpt lat="42.4127" lon="2.78103">
        <ele>746.59997558594</ele>
        <time>2023-07-13T08:16:05.000Z</time>
      </trkpt>
      <trkpt lat="42.41263" lon="2.78101">
        <ele>747.59997558594</ele>
        <time>2023-07-13T08:16:13.000Z</time>
      </trkpt>
      <trkpt lat="42.41263" lon="2.78101">
        <ele>747.59997558594</ele>
        <time>2023-07-13T08:16:14.000Z</time>
      </trkpt>
      <trkpt lat="42.41255" lon="2.78099">
        <ele>748.59997558594</ele>
        <time>2023-07-13T08:16:23.000Z</time>
      </trkpt>
      <trkpt lat="42.41254" lon="2.78099">
        <ele>748.59997558594</ele>
        <time>2023-07-13T08:16:24.000Z</time>
      </trkpt>
      <trkpt lat="42.41249" lon="2.78096">
        <ele>750</ele>
        <time>2023-07-13T08:16:31.000Z</time>
      </trkpt>
      <trkpt lat="42.41248" lon="2.78095">
        <ele>750.20001220703</ele>
        <time>2023-07-13T08:16:32.000Z</time>
      </trkpt>
      <trkpt lat="42.41242" lon="2.78091">
        <ele>751</ele>
        <time>2023-07-13T08:16:39.000Z</time>
      </trkpt>
      <trkpt lat="42.4124" lon="2.7809">
        <ele>751</ele>
        <time>2023-07-13T08:16:42.000Z</time>
      </trkpt>
      <trkpt lat="42.41236" lon="2.78087">
        <ele>751.59997558594</ele>
        <time>2023-07-13T08:16:47.000Z</time>
      </trkpt>
      <trkpt lat="42.41233" lon="2.78083">
        <ele>752.20001220703</ele>
        <time>2023-07-13T08:16:51.000Z</time>
      </trkpt>
      <trkpt lat="42.41232" lon="2.78082">
        <ele>752.40002441406</ele>
        <time>2023-07-13T08:16:54.000Z</time>
      </trkpt>
      <trkpt lat="42.41227" lon="2.78075">
        <ele>752.59997558594</ele>
        <time>2023-07-13T08:17:02.000Z</time>
      </trkpt>
      <trkpt lat="42.41224" lon="2.78068">
        <ele>753.40002441406</ele>
        <time>2023-07-13T08:17:07.000Z</time>
      </trkpt>
      <trkpt lat="42.41222" lon="2.78064">
        <ele>753.59997558594</ele>
        <time>2023-07-13T08:17:09.000Z</time>
      </trkpt>
      <trkpt lat="42.4122" lon="2.78056">
        <ele>754</ele>
        <time>2023-07-13T08:17:16.000Z</time>
      </trkpt>
      <trkpt lat="42.41219" lon="2.78055">
        <ele>754.40002441406</ele>
        <time>2023-07-13T08:17:20.000Z</time>
      </trkpt>
      <trkpt lat="42.41217" lon="2.78052">
        <ele>755.20001220703</ele>
        <time>2023-07-13T08:17:25.000Z</time>
      </trkpt>
      <trkpt lat="42.41216" lon="2.78049">
        <ele>755.40002441406</ele>
        <time>2023-07-13T08:17:27.000Z</time>
      </trkpt>
      <trkpt lat="42.41214" lon="2.78041">
        <ele>755.79998779297</ele>
        <time>2023-07-13T08:17:32.000Z</time>
      </trkpt>
      <trkpt lat="42.41211" lon="2.78032">
        <ele>756.40002441406</ele>
        <time>2023-07-13T08:17:40.000Z</time>
      </trkpt>
      <trkpt lat="42.41208" lon="2.78022">
        <ele>757.59997558594</ele>
        <time>2023-07-13T08:17:48.000Z</time>
      </trkpt>
      <trkpt lat="42.41204" lon="2.78014">
        <ele>758.40002441406</ele>
        <time>2023-07-13T08:17:55.000Z</time>
      </trkpt>
      <trkpt lat="42.41205" lon="2.78014">
        <ele>758.59997558594</ele>
        <time>2023-07-13T08:17:56.000Z</time>
      </trkpt>
      <trkpt lat="42.41205" lon="2.78011">
        <ele>759.40002441406</ele>
        <time>2023-07-13T08:18:03.000Z</time>
      </trkpt>
      <trkpt lat="42.41204" lon="2.78011">
        <ele>759.59997558594</ele>
        <time>2023-07-13T08:18:05.000Z</time>
      </trkpt>
      <trkpt lat="42.41204" lon="2.78001">
        <ele>760.59997558594</ele>
        <time>2023-07-13T08:18:11.000Z</time>
      </trkpt>
      <trkpt lat="42.41204" lon="2.77999">
        <ele>760.59997558594</ele>
        <time>2023-07-13T08:18:12.000Z</time>
      </trkpt>
      <trkpt lat="42.41204" lon="2.77993">
        <ele>761.59997558594</ele>
        <time>2023-07-13T08:18:18.000Z</time>
      </trkpt>
      <trkpt lat="42.41203" lon="2.77991">
        <ele>761.79998779297</ele>
        <time>2023-07-13T08:18:19.000Z</time>
      </trkpt>
      <trkpt lat="42.41202" lon="2.77987">
        <ele>763</ele>
        <time>2023-07-13T08:18:25.000Z</time>
      </trkpt>
      <trkpt lat="42.41201" lon="2.77978">
        <ele>763.79998779297</ele>
        <time>2023-07-13T08:18:34.000Z</time>
      </trkpt>
      <trkpt lat="42.41201" lon="2.77976">
        <ele>764</ele>
        <time>2023-07-13T08:18:36.000Z</time>
      </trkpt>
      <trkpt lat="42.41201" lon="2.77973">
        <ele>765</ele>
        <time>2023-07-13T08:18:42.000Z</time>
      </trkpt>
      <trkpt lat="42.41201" lon="2.7797">
        <ele>766.20001220703</ele>
        <time>2023-07-13T08:18:52.000Z</time>
      </trkpt>
      <trkpt lat="42.41202" lon="2.77961">
        <ele>767.20001220703</ele>
        <time>2023-07-13T08:18:58.000Z</time>
      </trkpt>
      <trkpt lat="42.41202" lon="2.77959">
        <ele>767.40002441406</ele>
        <time>2023-07-13T08:18:59.000Z</time>
      </trkpt>
      <trkpt lat="42.41201" lon="2.77948">
        <ele>768.40002441406</ele>
        <time>2023-07-13T08:19:07.000Z</time>
      </trkpt>
      <trkpt lat="42.41201" lon="2.77947">
        <ele>768.59997558594</ele>
        <time>2023-07-13T08:19:08.000Z</time>
      </trkpt>
      <trkpt lat="42.41193" lon="2.77928">
        <ele>771</ele>
        <time>2023-07-13T08:19:27.000Z</time>
      </trkpt>
      <trkpt lat="42.41189" lon="2.77924">
        <ele>771.79998779297</ele>
        <time>2023-07-13T08:19:32.000Z</time>
      </trkpt>
      <trkpt lat="42.41186" lon="2.77922">
        <ele>772.20001220703</ele>
        <time>2023-07-13T08:19:35.000Z</time>
      </trkpt>
      <trkpt lat="42.41181" lon="2.77923">
        <ele>772.79998779297</ele>
        <time>2023-07-13T08:19:42.000Z</time>
      </trkpt>
      <trkpt lat="42.41175" lon="2.77927">
        <ele>773.40002441406</ele>
        <time>2023-07-13T08:19:50.000Z</time>
      </trkpt>
      <trkpt lat="42.41172" lon="2.77928">
        <ele>773.79998779297</ele>
        <time>2023-07-13T08:19:54.000Z</time>
      </trkpt>
      <trkpt lat="42.41167" lon="2.77929">
        <ele>774.59997558594</ele>
        <time>2023-07-13T08:19:59.000Z</time>
      </trkpt>
      <trkpt lat="42.41165" lon="2.77929">
        <ele>775</ele>
        <time>2023-07-13T08:20:02.000Z</time>
      </trkpt>
      <trkpt lat="42.4116" lon="2.77929">
        <ele>775.79998779297</ele>
        <time>2023-07-13T08:20:08.000Z</time>
      </trkpt>
      <trkpt lat="42.41159" lon="2.77929">
        <ele>776</ele>
        <time>2023-07-13T08:20:09.000Z</time>
      </trkpt>
      <trkpt lat="42.41151" lon="2.77927">
        <ele>776.40002441406</ele>
        <time>2023-07-13T08:20:15.000Z</time>
      </trkpt>
      <trkpt lat="42.41148" lon="2.77927">
        <ele>776.40002441406</ele>
        <time>2023-07-13T08:20:21.000Z</time>
      </trkpt>
      <trkpt lat="42.41143" lon="2.77926">
        <ele>777</ele>
        <time>2023-07-13T08:20:26.000Z</time>
      </trkpt>
      <trkpt lat="42.41139" lon="2.77925">
        <ele>777.40002441406</ele>
        <time>2023-07-13T08:20:30.000Z</time>
      </trkpt>
      <trkpt lat="42.41133" lon="2.77919">
        <ele>778.20001220703</ele>
        <time>2023-07-13T08:20:38.000Z</time>
      </trkpt>
      <trkpt lat="42.41133" lon="2.77918">
        <ele>778.20001220703</ele>
        <time>2023-07-13T08:20:39.000Z</time>
      </trkpt>
      <trkpt lat="42.41129" lon="2.77917">
        <ele>779.20001220703</ele>
        <time>2023-07-13T08:20:44.000Z</time>
      </trkpt>
      <trkpt lat="42.41126" lon="2.77916">
        <ele>779.59997558594</ele>
        <time>2023-07-13T08:20:48.000Z</time>
      </trkpt>
      <trkpt lat="42.41122" lon="2.77913">
        <ele>780.20001220703</ele>
        <time>2023-07-13T08:20:52.000Z</time>
      </trkpt>
      <trkpt lat="42.41118" lon="2.77909">
        <ele>780.79998779297</ele>
        <time>2023-07-13T08:20:56.000Z</time>
      </trkpt>
      <trkpt lat="42.41113" lon="2.77903">
        <ele>781.20001220703</ele>
        <time>2023-07-13T08:21:02.000Z</time>
      </trkpt>
      <trkpt lat="42.41112" lon="2.779">
        <ele>781.40002441406</ele>
        <time>2023-07-13T08:21:05.000Z</time>
      </trkpt>
      <trkpt lat="42.4111" lon="2.7789">
        <ele>781.59997558594</ele>
        <time>2023-07-13T08:21:13.000Z</time>
      </trkpt>
      <trkpt lat="42.41108" lon="2.7788">
        <ele>782.20001220703</ele>
        <time>2023-07-13T08:21:22.000Z</time>
      </trkpt>
      <trkpt lat="42.41109" lon="2.77867">
        <ele>783.20001220703</ele>
        <time>2023-07-13T08:21:32.000Z</time>
      </trkpt>
      <trkpt lat="42.4111" lon="2.77862">
        <ele>783.40002441406</ele>
        <time>2023-07-13T08:21:35.000Z</time>
      </trkpt>
      <trkpt lat="42.41109" lon="2.7786">
        <ele>783.79998779297</ele>
        <time>2023-07-13T08:21:38.000Z</time>
      </trkpt>
      <trkpt lat="42.41109" lon="2.77852">
        <ele>784.20001220703</ele>
        <time>2023-07-13T08:21:44.000Z</time>
      </trkpt>
      <trkpt lat="42.41109" lon="2.77852">
        <ele>784.40002441406</ele>
        <time>2023-07-13T08:21:47.000Z</time>
      </trkpt>
      <trkpt lat="42.41108" lon="2.77855">
        <ele>784.59997558594</ele>
        <time>2023-07-13T08:21:51.000Z</time>
      </trkpt>
      <trkpt lat="42.41109" lon="2.77857">
        <ele>784.59997558594</ele>
        <time>2023-07-13T08:21:59.000Z</time>
      </trkpt>
      <trkpt lat="42.41109" lon="2.77859">
        <ele>784.59997558594</ele>
        <time>2023-07-13T08:22:08.000Z</time>
      </trkpt>
      <trkpt lat="42.4111" lon="2.77861">
        <ele>784.40002441406</ele>
        <time>2023-07-13T08:22:17.000Z</time>
      </trkpt>
      <trkpt lat="42.41113" lon="2.77857">
        <ele>784.20001220703</ele>
        <time>2023-07-13T08:22:24.000Z</time>
      </trkpt>
      <trkpt lat="42.41118" lon="2.77849">
        <ele>785.40002441406</ele>
        <time>2023-07-13T08:22:32.000Z</time>
      </trkpt>
      <trkpt lat="42.41119" lon="2.77848">
        <ele>785.59997558594</ele>
        <time>2023-07-13T08:22:33.000Z</time>
      </trkpt>
      <trkpt lat="42.41122" lon="2.77839">
        <ele>786.40002441406</ele>
        <time>2023-07-13T08:22:39.000Z</time>
      </trkpt>
      <trkpt lat="42.41122" lon="2.77837">
        <ele>786.59997558594</ele>
        <time>2023-07-13T08:22:41.000Z</time>
      </trkpt>
      <trkpt lat="42.41126" lon="2.77827">
        <ele>787.79998779297</ele>
        <time>2023-07-13T08:22:48.000Z</time>
      </trkpt>
      <trkpt lat="42.41127" lon="2.77817">
        <ele>788.59997558594</ele>
        <time>2023-07-13T08:22:56.000Z</time>
      </trkpt>
      <trkpt lat="42.41127" lon="2.77815">
        <ele>788.79998779297</ele>
        <time>2023-07-13T08:22:57.000Z</time>
      </trkpt>
      <trkpt lat="42.4113" lon="2.77807">
        <ele>789.79998779297</ele>
        <time>2023-07-13T08:23:03.000Z</time>
      </trkpt>
      <trkpt lat="42.4113" lon="2.77804">
        <ele>790.20001220703</ele>
        <time>2023-07-13T08:23:05.000Z</time>
      </trkpt>
      <trkpt lat="42.4113" lon="2.77802">
        <ele>791</ele>
        <time>2023-07-13T08:23:10.000Z</time>
      </trkpt>
      <trkpt lat="42.4113" lon="2.77796">
        <ele>791.59997558594</ele>
        <time>2023-07-13T08:23:15.000Z</time>
      </trkpt>
      <trkpt lat="42.4113" lon="2.77791">
        <ele>792.20001220703</ele>
        <time>2023-07-13T08:23:22.000Z</time>
      </trkpt>
      <trkpt lat="42.41129" lon="2.77787">
        <ele>792.59997558594</ele>
        <time>2023-07-13T08:23:25.000Z</time>
      </trkpt>
      <trkpt lat="42.41129" lon="2.77785">
        <ele>793.20001220703</ele>
        <time>2023-07-13T08:23:27.000Z</time>
      </trkpt>
      <trkpt lat="42.41129" lon="2.77779">
        <ele>794.20001220703</ele>
        <time>2023-07-13T08:23:32.000Z</time>
      </trkpt>
      <trkpt lat="42.41129" lon="2.77775">
        <ele>795</ele>
        <time>2023-07-13T08:23:35.000Z</time>
      </trkpt>
      <trkpt lat="42.41129" lon="2.77772">
        <ele>795.20001220703</ele>
        <time>2023-07-13T08:23:37.000Z</time>
      </trkpt>
      <trkpt lat="42.41128" lon="2.77766">
        <ele>795.79998779297</ele>
        <time>2023-07-13T08:23:42.000Z</time>
      </trkpt>
      <trkpt lat="42.41129" lon="2.77763">
        <ele>796.40002441406</ele>
        <time>2023-07-13T08:23:46.000Z</time>
      </trkpt>
      <trkpt lat="42.4113" lon="2.77759">
        <ele>796.59997558594</ele>
        <time>2023-07-13T08:23:49.000Z</time>
      </trkpt>
      <trkpt lat="42.41129" lon="2.77754">
        <ele>797.40002441406</ele>
        <time>2023-07-13T08:23:55.000Z</time>
      </trkpt>
      <trkpt lat="42.41127" lon="2.77744">
        <ele>798.40002441406</ele>
        <time>2023-07-13T08:24:04.000Z</time>
      </trkpt>
      <trkpt lat="42.41127" lon="2.77743">
        <ele>798.40002441406</ele>
        <time>2023-07-13T08:24:05.000Z</time>
      </trkpt>
      <trkpt lat="42.41127" lon="2.77735">
        <ele>799.40002441406</ele>
        <time>2023-07-13T08:24:11.000Z</time>
      </trkpt>
      <trkpt lat="42.41127" lon="2.77734">
        <ele>799.40002441406</ele>
        <time>2023-07-13T08:24:12.000Z</time>
      </trkpt>
      <trkpt lat="42.41129" lon="2.77725">
        <ele>800</ele>
        <time>2023-07-13T08:24:19.000Z</time>
      </trkpt>
      <trkpt lat="42.41131" lon="2.77718">
        <ele>800.59997558594</ele>
        <time>2023-07-13T08:24:23.000Z</time>
      </trkpt>
      <trkpt lat="42.41131" lon="2.77713">
        <ele>801.20001220703</ele>
        <time>2023-07-13T08:24:27.000Z</time>
      </trkpt>
      <trkpt lat="42.41132" lon="2.77711">
        <ele>801.59997558594</ele>
        <time>2023-07-13T08:24:30.000Z</time>
      </trkpt>
      <trkpt lat="42.41137" lon="2.77706">
        <ele>802.59997558594</ele>
        <time>2023-07-13T08:24:36.000Z</time>
      </trkpt>
      <trkpt lat="42.41139" lon="2.77705">
        <ele>802.79998779297</ele>
        <time>2023-07-13T08:24:38.000Z</time>
      </trkpt>
      <trkpt lat="42.4114" lon="2.77703">
        <ele>803.59997558594</ele>
        <time>2023-07-13T08:24:44.000Z</time>
      </trkpt>
      <trkpt lat="42.41141" lon="2.77701">
        <ele>803.79998779297</ele>
        <time>2023-07-13T08:24:46.000Z</time>
      </trkpt>
      <trkpt lat="42.41145" lon="2.77694">
        <ele>804.20001220703</ele>
        <time>2023-07-13T08:24:51.000Z</time>
      </trkpt>
      <trkpt lat="42.41146" lon="2.77688">
        <ele>805</ele>
        <time>2023-07-13T08:24:57.000Z</time>
      </trkpt>
      <trkpt lat="42.41147" lon="2.77686">
        <ele>805</ele>
        <time>2023-07-13T08:24:58.000Z</time>
      </trkpt>
      <trkpt lat="42.4115" lon="2.77677">
        <ele>806</ele>
        <time>2023-07-13T08:25:05.000Z</time>
      </trkpt>
      <trkpt lat="42.41155" lon="2.77668">
        <ele>807.20001220703</ele>
        <time>2023-07-13T08:25:14.000Z</time>
      </trkpt>
      <trkpt lat="42.41156" lon="2.77667">
        <ele>807.20001220703</ele>
        <time>2023-07-13T08:25:16.000Z</time>
      </trkpt>
      <trkpt lat="42.41161" lon="2.7766">
        <ele>808</ele>
        <time>2023-07-13T08:25:25.000Z</time>
      </trkpt>
      <trkpt lat="42.41162" lon="2.77659">
        <ele>808.20001220703</ele>
        <time>2023-07-13T08:25:27.000Z</time>
      </trkpt>
      <trkpt lat="42.41164" lon="2.77655">
        <ele>809.40002441406</ele>
        <time>2023-07-13T08:25:33.000Z</time>
      </trkpt>
      <trkpt lat="42.41165" lon="2.77654">
        <ele>809.79998779297</ele>
        <time>2023-07-13T08:25:35.000Z</time>
      </trkpt>
      <trkpt lat="42.41165" lon="2.77652">
        <ele>810.40002441406</ele>
        <time>2023-07-13T08:25:39.000Z</time>
      </trkpt>
      <trkpt lat="42.41166" lon="2.77651">
        <ele>810.79998779297</ele>
        <time>2023-07-13T08:25:43.000Z</time>
      </trkpt>
      <trkpt lat="42.41165" lon="2.77647">
        <ele>811</ele>
        <time>2023-07-13T08:25:52.000Z</time>
      </trkpt>
      <trkpt lat="42.41164" lon="2.77642">
        <ele>811.20001220703</ele>
        <time>2023-07-13T08:26:00.000Z</time>
      </trkpt>
      <trkpt lat="42.41163" lon="2.77642">
        <ele>811</ele>
        <time>2023-07-13T08:26:07.000Z</time>
      </trkpt>
      <trkpt lat="42.41163" lon="2.77646">
        <ele>810.79998779297</ele>
        <time>2023-07-13T08:26:13.000Z</time>
      </trkpt>
      <trkpt lat="42.41165" lon="2.7765">
        <ele>810.59997558594</ele>
        <time>2023-07-13T08:26:21.000Z</time>
      </trkpt>
      <trkpt lat="42.41167" lon="2.77647">
        <ele>810.40002441406</ele>
        <time>2023-07-13T08:26:27.000Z</time>
      </trkpt>
      <trkpt lat="42.41174" lon="2.7764">
        <ele>811.20001220703</ele>
        <time>2023-07-13T08:26:35.000Z</time>
      </trkpt>
      <trkpt lat="42.41176" lon="2.77639">
        <ele>811.59997558594</ele>
        <time>2023-07-13T08:26:37.000Z</time>
      </trkpt>
      <trkpt lat="42.41181" lon="2.77637">
        <ele>812.59997558594</ele>
        <time>2023-07-13T08:26:43.000Z</time>
      </trkpt>
      <trkpt lat="42.41182" lon="2.77636">
        <ele>812.79998779297</ele>
        <time>2023-07-13T08:26:44.000Z</time>
      </trkpt>
      <trkpt lat="42.41183" lon="2.77631">
        <ele>813.59997558594</ele>
        <time>2023-07-13T08:26:49.000Z</time>
      </trkpt>
      <trkpt lat="42.41184" lon="2.7763">
        <ele>813.79998779297</ele>
        <time>2023-07-13T08:26:50.000Z</time>
      </trkpt>
      <trkpt lat="42.41187" lon="2.77625">
        <ele>814.59997558594</ele>
        <time>2023-07-13T08:26:58.000Z</time>
      </trkpt>
      <trkpt lat="42.4119" lon="2.77621">
        <ele>815.79998779297</ele>
        <time>2023-07-13T08:27:04.000Z</time>
      </trkpt>
      <trkpt lat="42.41192" lon="2.77619">
        <ele>816.20001220703</ele>
        <time>2023-07-13T08:27:06.000Z</time>
      </trkpt>
      <trkpt lat="42.41193" lon="2.77616">
        <ele>817</ele>
        <time>2023-07-13T08:27:09.000Z</time>
      </trkpt>
      <trkpt lat="42.41195" lon="2.77609">
        <ele>818</ele>
        <time>2023-07-13T08:27:15.000Z</time>
      </trkpt>
      <trkpt lat="42.41198" lon="2.77599">
        <ele>818.79998779297</ele>
        <time>2023-07-13T08:27:25.000Z</time>
      </trkpt>
      <trkpt lat="42.41198" lon="2.77599">
        <ele>819</ele>
        <time>2023-07-13T08:27:26.000Z</time>
      </trkpt>
      <trkpt lat="42.41199" lon="2.77602">
        <ele>819.20001220703</ele>
        <time>2023-07-13T08:27:36.000Z</time>
      </trkpt>
      <trkpt lat="42.41202" lon="2.77599">
        <ele>819.20001220703</ele>
        <time>2023-07-13T08:27:43.000Z</time>
      </trkpt>
      <trkpt lat="42.41202" lon="2.77592">
        <ele>820.20001220703</ele>
        <time>2023-07-13T08:27:49.000Z</time>
      </trkpt>
      <trkpt lat="42.41203" lon="2.7759">
        <ele>820.40002441406</ele>
        <time>2023-07-13T08:27:50.000Z</time>
      </trkpt>
      <trkpt lat="42.41204" lon="2.7758">
        <ele>821.20001220703</ele>
        <time>2023-07-13T08:27:56.000Z</time>
      </trkpt>
      <trkpt lat="42.41205" lon="2.77576">
        <ele>821.40002441406</ele>
        <time>2023-07-13T08:27:58.000Z</time>
      </trkpt>
      <trkpt lat="42.41208" lon="2.77566">
        <ele>822.40002441406</ele>
        <time>2023-07-13T08:28:06.000Z</time>
      </trkpt>
      <trkpt lat="42.41208" lon="2.77559">
        <ele>823.40002441406</ele>
        <time>2023-07-13T08:28:14.000Z</time>
      </trkpt>
      <trkpt lat="42.41207" lon="2.77556">
        <ele>823.59997558594</ele>
        <time>2023-07-13T08:28:16.000Z</time>
      </trkpt>
      <trkpt lat="42.41206" lon="2.77544">
        <ele>824.40002441406</ele>
        <time>2023-07-13T08:28:24.000Z</time>
      </trkpt>
      <trkpt lat="42.41205" lon="2.77542">
        <ele>824.40002441406</ele>
        <time>2023-07-13T08:28:25.000Z</time>
      </trkpt>
      <trkpt lat="42.41205" lon="2.77534">
        <ele>825</ele>
        <time>2023-07-13T08:28:31.000Z</time>
      </trkpt>
      <trkpt lat="42.41205" lon="2.77528">
        <ele>825.40002441406</ele>
        <time>2023-07-13T08:28:36.000Z</time>
      </trkpt>
      <trkpt lat="42.41206" lon="2.77522">
        <ele>826</ele>
        <time>2023-07-13T08:28:40.000Z</time>
      </trkpt>
      <trkpt lat="42.41207" lon="2.77514">
        <ele>826.59997558594</ele>
        <time>2023-07-13T08:28:45.000Z</time>
      </trkpt>
      <trkpt lat="42.41207" lon="2.77508">
        <ele>827.20001220703</ele>
        <time>2023-07-13T08:28:49.000Z</time>
      </trkpt>
      <trkpt lat="42.41206" lon="2.77501">
        <ele>827.79998779297</ele>
        <time>2023-07-13T08:28:55.000Z</time>
      </trkpt>
      <trkpt lat="42.41206" lon="2.77498">
        <ele>828</ele>
        <time>2023-07-13T08:28:57.000Z</time>
      </trkpt>
      <trkpt lat="42.41206" lon="2.77486">
        <ele>828.59997558594</ele>
        <time>2023-07-13T08:29:06.000Z</time>
      </trkpt>
      <trkpt lat="42.41206" lon="2.77483">
        <ele>828.79998779297</ele>
        <time>2023-07-13T08:29:08.000Z</time>
      </trkpt>
      <trkpt lat="42.41209" lon="2.77476">
        <ele>830</ele>
        <time>2023-07-13T08:29:15.000Z</time>
      </trkpt>
      <trkpt lat="42.41209" lon="2.77475">
        <ele>830.40002441406</ele>
        <time>2023-07-13T08:29:16.000Z</time>
      </trkpt>
      <trkpt lat="42.41211" lon="2.77468">
        <ele>831.20001220703</ele>
        <time>2023-07-13T08:29:24.000Z</time>
      </trkpt>
      <trkpt lat="42.41209" lon="2.77461">
        <ele>831.40002441406</ele>
        <time>2023-07-13T08:29:35.000Z</time>
      </trkpt>
      <trkpt lat="42.41211" lon="2.77464">
        <ele>831.59997558594</ele>
        <time>2023-07-13T08:29:45.000Z</time>
      </trkpt>
      <trkpt lat="42.41212" lon="2.77461">
        <ele>832.20001220703</ele>
        <time>2023-07-13T08:29:52.000Z</time>
      </trkpt>
      <trkpt lat="42.41213" lon="2.77459">
        <ele>832.20001220703</ele>
        <time>2023-07-13T08:29:53.000Z</time>
      </trkpt>
      <trkpt lat="42.41213" lon="2.77453">
        <ele>833</ele>
        <time>2023-07-13T08:29:58.000Z</time>
      </trkpt>
      <trkpt lat="42.41212" lon="2.77451">
        <ele>832.79998779297</ele>
        <time>2023-07-13T08:30:07.000Z</time>
      </trkpt>
      <trkpt lat="42.41209" lon="2.77448">
        <ele>832.79998779297</ele>
        <time>2023-07-13T08:30:17.000Z</time>
      </trkpt>
      <trkpt lat="42.41208" lon="2.77446">
        <ele>833.20001220703</ele>
        <time>2023-07-13T08:30:28.000Z</time>
      </trkpt>
      <trkpt lat="42.41208" lon="2.77446">
        <ele>833.40002441406</ele>
        <time>2023-07-13T08:30:29.000Z</time>
      </trkpt>
      <trkpt lat="42.41213" lon="2.7744">
        <ele>834.59997558594</ele>
        <time>2023-07-13T08:30:35.000Z</time>
      </trkpt>
      <trkpt lat="42.41215" lon="2.77438">
        <ele>834.79998779297</ele>
        <time>2023-07-13T08:30:37.000Z</time>
      </trkpt>
      <trkpt lat="42.41216" lon="2.77433">
        <ele>835.59997558594</ele>
        <time>2023-07-13T08:30:43.000Z</time>
      </trkpt>
      <trkpt lat="42.41217" lon="2.7743">
        <ele>836</ele>
        <time>2023-07-13T08:30:45.000Z</time>
      </trkpt>
      <trkpt lat="42.41216" lon="2.7742">
        <ele>836.79998779297</ele>
        <time>2023-07-13T08:30:52.000Z</time>
      </trkpt>
      <trkpt lat="42.41216" lon="2.77419">
        <ele>836.79998779297</ele>
        <time>2023-07-13T08:30:53.000Z</time>
      </trkpt>
      <trkpt lat="42.41214" lon="2.77414">
        <ele>837.40002441406</ele>
        <time>2023-07-13T08:30:57.000Z</time>
      </trkpt>
      <trkpt lat="42.41211" lon="2.77408">
        <ele>838</ele>
        <time>2023-07-13T08:31:01.000Z</time>
      </trkpt>
      <trkpt lat="42.41208" lon="2.77397">
        <ele>838.79998779297</ele>
        <time>2023-07-13T08:31:09.000Z</time>
      </trkpt>
      <trkpt lat="42.41208" lon="2.77395">
        <ele>839</ele>
        <time>2023-07-13T08:31:10.000Z</time>
      </trkpt>
      <trkpt lat="42.41208" lon="2.77385">
        <ele>840</ele>
        <time>2023-07-13T08:31:17.000Z</time>
      </trkpt>
      <trkpt lat="42.41207" lon="2.77384">
        <ele>840.20001220703</ele>
        <time>2023-07-13T08:31:18.000Z</time>
      </trkpt>
      <trkpt lat="42.41205" lon="2.77376">
        <ele>840.59997558594</ele>
        <time>2023-07-13T08:31:25.000Z</time>
      </trkpt>
      <trkpt lat="42.41204" lon="2.77372">
        <ele>841.20001220703</ele>
        <time>2023-07-13T08:31:29.000Z</time>
      </trkpt>
      <trkpt lat="42.41201" lon="2.77364">
        <ele>842</ele>
        <time>2023-07-13T08:31:34.000Z</time>
      </trkpt>
      <trkpt lat="42.412" lon="2.77361">
        <ele>842.40002441406</ele>
        <time>2023-07-13T08:31:36.000Z</time>
      </trkpt>
      <trkpt lat="42.41196" lon="2.77354">
        <ele>843.20001220703</ele>
        <time>2023-07-13T08:31:43.000Z</time>
      </trkpt>
      <trkpt lat="42.41194" lon="2.77351">
        <ele>843.40002441406</ele>
        <time>2023-07-13T08:31:46.000Z</time>
      </trkpt>
      <trkpt lat="42.41191" lon="2.77346">
        <ele>843.59997558594</ele>
        <time>2023-07-13T08:31:50.000Z</time>
      </trkpt>
      <trkpt lat="42.41187" lon="2.77342">
        <ele>844.20001220703</ele>
        <time>2023-07-13T08:31:56.000Z</time>
      </trkpt>
      <trkpt lat="42.41186" lon="2.7734">
        <ele>844.40002441406</ele>
        <time>2023-07-13T08:31:58.000Z</time>
      </trkpt>
      <trkpt lat="42.41182" lon="2.77335">
        <ele>845.20001220703</ele>
        <time>2023-07-13T08:32:05.000Z</time>
      </trkpt>
      <trkpt lat="42.41177" lon="2.77329">
        <ele>845.40002441406</ele>
        <time>2023-07-13T08:32:10.000Z</time>
      </trkpt>
      <trkpt lat="42.41174" lon="2.77327">
        <ele>845.59997558594</ele>
        <time>2023-07-13T08:32:12.000Z</time>
      </trkpt>
      <trkpt lat="42.41165" lon="2.77321">
        <ele>845.79998779297</ele>
        <time>2023-07-13T08:32:20.000Z</time>
      </trkpt>
      <trkpt lat="42.41162" lon="2.77317">
        <ele>846.59997558594</ele>
        <time>2023-07-13T08:32:25.000Z</time>
      </trkpt>
      <trkpt lat="42.41156" lon="2.77314">
        <ele>846.79998779297</ele>
        <time>2023-07-13T08:32:31.000Z</time>
      </trkpt>
      <trkpt lat="42.41147" lon="2.77308">
        <ele>847.40002441406</ele>
        <time>2023-07-13T08:32:41.000Z</time>
      </trkpt>
      <trkpt lat="42.41141" lon="2.77302">
        <ele>847.59997558594</ele>
        <time>2023-07-13T08:32:47.000Z</time>
      </trkpt>
      <trkpt lat="42.4114" lon="2.77301">
        <ele>847.79998779297</ele>
        <time>2023-07-13T08:32:49.000Z</time>
      </trkpt>
      <trkpt lat="42.41132" lon="2.77292">
        <ele>848.40002441406</ele>
        <time>2023-07-13T08:32:57.000Z</time>
      </trkpt>
      <trkpt lat="42.41126" lon="2.77287">
        <ele>848.59997558594</ele>
        <time>2023-07-13T08:33:03.000Z</time>
      </trkpt>
      <trkpt lat="42.41123" lon="2.77284">
        <ele>849</ele>
        <time>2023-07-13T08:33:07.000Z</time>
      </trkpt>
      <trkpt lat="42.41116" lon="2.77277">
        <ele>849.59997558594</ele>
        <time>2023-07-13T08:33:16.000Z</time>
      </trkpt>
      <trkpt lat="42.41115" lon="2.77277">
        <ele>849.79998779297</ele>
        <time>2023-07-13T08:33:17.000Z</time>
      </trkpt>
      <trkpt lat="42.41107" lon="2.77276">
        <ele>850.40002441406</ele>
        <time>2023-07-13T08:33:24.000Z</time>
      </trkpt>
      <trkpt lat="42.41105" lon="2.77276">
        <ele>850.79998779297</ele>
        <time>2023-07-13T08:33:26.000Z</time>
      </trkpt>
      <trkpt lat="42.41097" lon="2.77275">
        <ele>851.20001220703</ele>
        <time>2023-07-13T08:33:32.000Z</time>
      </trkpt>
      <trkpt lat="42.41088" lon="2.77272">
        <ele>851.79998779297</ele>
        <time>2023-07-13T08:33:40.000Z</time>
      </trkpt>
      <trkpt lat="42.4108" lon="2.77272">
        <ele>852.20001220703</ele>
        <time>2023-07-13T08:33:49.000Z</time>
      </trkpt>
      <trkpt lat="42.41076" lon="2.77272">
        <ele>853.20001220703</ele>
        <time>2023-07-13T08:33:53.000Z</time>
      </trkpt>
      <trkpt lat="42.41072" lon="2.77272">
        <ele>853.40002441406</ele>
        <time>2023-07-13T08:33:56.000Z</time>
      </trkpt>
      <trkpt lat="42.41064" lon="2.77273">
        <ele>853.40002441406</ele>
        <time>2023-07-13T08:34:04.000Z</time>
      </trkpt>
      <trkpt lat="42.41055" lon="2.77274">
        <ele>854</ele>
        <time>2023-07-13T08:34:12.000Z</time>
      </trkpt>
      <trkpt lat="42.41042" lon="2.77276">
        <ele>854.20001220703</ele>
        <time>2023-07-13T08:34:22.000Z</time>
      </trkpt>
      <trkpt lat="42.41033" lon="2.77276">
        <ele>854.79998779297</ele>
        <time>2023-07-13T08:34:30.000Z</time>
      </trkpt>
      <trkpt lat="42.41025" lon="2.77273">
        <ele>855.20001220703</ele>
        <time>2023-07-13T08:34:36.000Z</time>
      </trkpt>
      <trkpt lat="42.41024" lon="2.77273">
        <ele>855.59997558594</ele>
        <time>2023-07-13T08:34:38.000Z</time>
      </trkpt>
      <trkpt lat="42.41014" lon="2.77274">
        <ele>856</ele>
        <time>2023-07-13T08:34:47.000Z</time>
      </trkpt>
      <trkpt lat="42.41004" lon="2.77273">
        <ele>856.20001220703</ele>
        <time>2023-07-13T08:34:55.000Z</time>
      </trkpt>
      <trkpt lat="42.40993" lon="2.77268">
        <ele>856</ele>
        <time>2023-07-13T08:35:05.000Z</time>
      </trkpt>
      <trkpt lat="42.40982" lon="2.77267">
        <ele>856</ele>
        <time>2023-07-13T08:35:15.000Z</time>
      </trkpt>
      <trkpt lat="42.40971" lon="2.77262">
        <ele>856</ele>
        <time>2023-07-13T08:35:23.000Z</time>
      </trkpt>
      <trkpt lat="42.4096" lon="2.77257">
        <ele>856.20001220703</ele>
        <time>2023-07-13T08:35:31.000Z</time>
      </trkpt>
      <trkpt lat="42.40958" lon="2.77256">
        <ele>856.20001220703</ele>
        <time>2023-07-13T08:35:33.000Z</time>
      </trkpt>
      <trkpt lat="42.40952" lon="2.77253">
        <ele>856.79998779297</ele>
        <time>2023-07-13T08:35:38.000Z</time>
      </trkpt>
      <trkpt lat="42.40948" lon="2.77249">
        <ele>857.40002441406</ele>
        <time>2023-07-13T08:35:43.000Z</time>
      </trkpt>
      <trkpt lat="42.40942" lon="2.77246">
        <ele>857.79998779297</ele>
        <time>2023-07-13T08:35:47.000Z</time>
      </trkpt>
      <trkpt lat="42.40934" lon="2.77237">
        <ele>858.20001220703</ele>
        <time>2023-07-13T08:35:56.000Z</time>
      </trkpt>
      <trkpt lat="42.40931" lon="2.77235">
        <ele>858</ele>
        <time>2023-07-13T08:36:03.000Z</time>
      </trkpt>
      <trkpt lat="42.40931" lon="2.77229">
        <ele>858</ele>
        <time>2023-07-13T08:36:12.000Z</time>
      </trkpt>
      <trkpt lat="42.40931" lon="2.77222">
        <ele>858.20001220703</ele>
        <time>2023-07-13T08:36:20.000Z</time>
      </trkpt>
      <trkpt lat="42.40931" lon="2.77219">
        <ele>858</ele>
        <time>2023-07-13T08:36:29.000Z</time>
      </trkpt>
      <trkpt lat="42.40931" lon="2.77211">
        <ele>857.79998779297</ele>
        <time>2023-07-13T08:36:37.000Z</time>
      </trkpt>
      <trkpt lat="42.40932" lon="2.77204">
        <ele>858.59997558594</ele>
        <time>2023-07-13T08:36:43.000Z</time>
      </trkpt>
      <trkpt lat="42.40933" lon="2.77201">
        <ele>858.59997558594</ele>
        <time>2023-07-13T08:36:45.000Z</time>
      </trkpt>
      <trkpt lat="42.40938" lon="2.77191">
        <ele>858.59997558594</ele>
        <time>2023-07-13T08:36:55.000Z</time>
      </trkpt>
      <trkpt lat="42.40946" lon="2.77181">
        <ele>859</ele>
        <time>2023-07-13T08:37:04.000Z</time>
      </trkpt>
      <trkpt lat="42.40954" lon="2.77174">
        <ele>859.59997558594</ele>
        <time>2023-07-13T08:37:11.000Z</time>
      </trkpt>
      <trkpt lat="42.40955" lon="2.77173">
        <ele>859.79998779297</ele>
        <time>2023-07-13T08:37:12.000Z</time>
      </trkpt>
      <trkpt lat="42.40963" lon="2.77167">
        <ele>860.59997558594</ele>
        <time>2023-07-13T08:37:19.000Z</time>
      </trkpt>
      <trkpt lat="42.40964" lon="2.77166">
        <ele>860.59997558594</ele>
        <time>2023-07-13T08:37:20.000Z</time>
      </trkpt>
      <trkpt lat="42.40971" lon="2.77161">
        <ele>861.79998779297</ele>
        <time>2023-07-13T08:37:27.000Z</time>
      </trkpt>
      <trkpt lat="42.40972" lon="2.77158">
        <ele>862.59997558594</ele>
        <time>2023-07-13T08:37:30.000Z</time>
      </trkpt>
      <trkpt lat="42.40974" lon="2.77156">
        <ele>862.79998779297</ele>
        <time>2023-07-13T08:37:32.000Z</time>
      </trkpt>
      <trkpt lat="42.40978" lon="2.7715">
        <ele>864</ele>
        <time>2023-07-13T08:37:39.000Z</time>
      </trkpt>
      <trkpt lat="42.40984" lon="2.77147">
        <ele>865</ele>
        <time>2023-07-13T08:37:45.000Z</time>
      </trkpt>
      <trkpt lat="42.40989" lon="2.77148">
        <ele>865.79998779297</ele>
        <time>2023-07-13T08:37:48.000Z</time>
      </trkpt>
      <trkpt lat="42.40989" lon="2.77148">
        <ele>866</ele>
        <time>2023-07-13T08:37:49.000Z</time>
      </trkpt>
      <trkpt lat="42.40994" lon="2.77145">
        <ele>867</ele>
        <time>2023-07-13T08:37:55.000Z</time>
      </trkpt>
      <trkpt lat="42.40995" lon="2.77144">
        <ele>867.20001220703</ele>
        <time>2023-07-13T08:37:56.000Z</time>
      </trkpt>
      <trkpt lat="42.40997" lon="2.77136">
        <ele>868.40002441406</ele>
        <time>2023-07-13T08:38:03.000Z</time>
      </trkpt>
      <trkpt lat="42.40998" lon="2.77135">
        <ele>868.40002441406</ele>
        <time>2023-07-13T08:38:04.000Z</time>
      </trkpt>
      <trkpt lat="42.41" lon="2.77131">
        <ele>869.40002441406</ele>
        <time>2023-07-13T08:38:09.000Z</time>
      </trkpt>
      <trkpt lat="42.41002" lon="2.7713">
        <ele>870.20001220703</ele>
        <time>2023-07-13T08:38:12.000Z</time>
      </trkpt>
      <trkpt lat="42.41003" lon="2.77128">
        <ele>870.59997558594</ele>
        <time>2023-07-13T08:38:14.000Z</time>
      </trkpt>
      <trkpt lat="42.41006" lon="2.77122">
        <ele>871.59997558594</ele>
        <time>2023-07-13T08:38:19.000Z</time>
      </trkpt>
      <trkpt lat="42.41008" lon="2.77116">
        <ele>872.59997558594</ele>
        <time>2023-07-13T08:38:25.000Z</time>
      </trkpt>
      <trkpt lat="42.41009" lon="2.77115">
        <ele>872.79998779297</ele>
        <time>2023-07-13T08:38:26.000Z</time>
      </trkpt>
      <trkpt lat="42.41012" lon="2.77112">
        <ele>873.59997558594</ele>
        <time>2023-07-13T08:38:33.000Z</time>
      </trkpt>
      <trkpt lat="42.41013" lon="2.77112">
        <ele>873.79998779297</ele>
        <time>2023-07-13T08:38:34.000Z</time>
      </trkpt>
      <trkpt lat="42.41017" lon="2.77106">
        <ele>874.79998779297</ele>
        <time>2023-07-13T08:38:40.000Z</time>
      </trkpt>
      <trkpt lat="42.41018" lon="2.77104">
        <ele>875</ele>
        <time>2023-07-13T08:38:42.000Z</time>
      </trkpt>
      <trkpt lat="42.4102" lon="2.771">
        <ele>875.59997558594</ele>
        <time>2023-07-13T08:38:48.000Z</time>
      </trkpt>
      <trkpt lat="42.41021" lon="2.77098">
        <ele>876</ele>
        <time>2023-07-13T08:38:51.000Z</time>
      </trkpt>
      <trkpt lat="42.41025" lon="2.77093">
        <ele>877</ele>
        <time>2023-07-13T08:38:58.000Z</time>
      </trkpt>
      <trkpt lat="42.41029" lon="2.77084">
        <ele>878</ele>
        <time>2023-07-13T08:39:06.000Z</time>
      </trkpt>
      <trkpt lat="42.4103" lon="2.77084">
        <ele>878.20001220703</ele>
        <time>2023-07-13T08:39:07.000Z</time>
      </trkpt>
      <trkpt lat="42.41033" lon="2.77077">
        <ele>879</ele>
        <time>2023-07-13T08:39:13.000Z</time>
      </trkpt>
      <trkpt lat="42.41034" lon="2.77076">
        <ele>879.20001220703</ele>
        <time>2023-07-13T08:39:14.000Z</time>
      </trkpt>
      <trkpt lat="42.41034" lon="2.7707">
        <ele>880.40002441406</ele>
        <time>2023-07-13T08:39:21.000Z</time>
      </trkpt>
      <trkpt lat="42.41034" lon="2.77069">
        <ele>880.79998779297</ele>
        <time>2023-07-13T08:39:22.000Z</time>
      </trkpt>
      <trkpt lat="42.41035" lon="2.7706">
        <ele>881.59997558594</ele>
        <time>2023-07-13T08:39:28.000Z</time>
      </trkpt>
      <trkpt lat="42.41036" lon="2.77059">
        <ele>881.79998779297</ele>
        <time>2023-07-13T08:39:29.000Z</time>
      </trkpt>
      <trkpt lat="42.41041" lon="2.77052">
        <ele>881.20001220703</ele>
        <time>2023-07-13T08:39:37.000Z</time>
      </trkpt>
      <trkpt lat="42.41045" lon="2.77047">
        <ele>882.20001220703</ele>
        <time>2023-07-13T08:39:43.000Z</time>
      </trkpt>
      <trkpt lat="42.41046" lon="2.77045">
        <ele>882.79998779297</ele>
        <time>2023-07-13T08:39:45.000Z</time>
      </trkpt>
      <trkpt lat="42.4105" lon="2.7704">
        <ele>883</ele>
        <time>2023-07-13T08:39:49.000Z</time>
      </trkpt>
      <trkpt lat="42.41053" lon="2.77035">
        <ele>883.79998779297</ele>
        <time>2023-07-13T08:39:54.000Z</time>
      </trkpt>
      <trkpt lat="42.41053" lon="2.77032">
        <ele>884.40002441406</ele>
        <time>2023-07-13T08:39:57.000Z</time>
      </trkpt>
      <trkpt lat="42.41054" lon="2.77029">
        <ele>884.79998779297</ele>
        <time>2023-07-13T08:39:59.000Z</time>
      </trkpt>
      <trkpt lat="42.41055" lon="2.77026">
        <ele>885.20001220703</ele>
        <time>2023-07-13T08:40:04.000Z</time>
      </trkpt>
      <trkpt lat="42.41061" lon="2.77023">
        <ele>885.20001220703</ele>
        <time>2023-07-13T08:40:11.000Z</time>
      </trkpt>
      <trkpt lat="42.41071" lon="2.7702">
        <ele>885.20001220703</ele>
        <time>2023-07-13T08:40:20.000Z</time>
      </trkpt>
      <trkpt lat="42.41084" lon="2.77015">
        <ele>885.20001220703</ele>
        <time>2023-07-13T08:40:30.000Z</time>
      </trkpt>
      <trkpt lat="42.41092" lon="2.77007">
        <ele>885.59997558594</ele>
        <time>2023-07-13T08:40:37.000Z</time>
      </trkpt>
      <trkpt lat="42.41093" lon="2.77004">
        <ele>885.79998779297</ele>
        <time>2023-07-13T08:40:39.000Z</time>
      </trkpt>
      <trkpt lat="42.41099" lon="2.77">
        <ele>886</ele>
        <time>2023-07-13T08:40:46.000Z</time>
      </trkpt>
      <trkpt lat="42.41106" lon="2.76991">
        <ele>886</ele>
        <time>2023-07-13T08:40:54.000Z</time>
      </trkpt>
      <trkpt lat="42.41114" lon="2.76979">
        <ele>886</ele>
        <time>2023-07-13T08:41:03.000Z</time>
      </trkpt>
      <trkpt lat="42.41123" lon="2.76967">
        <ele>886</ele>
        <time>2023-07-13T08:41:13.000Z</time>
      </trkpt>
      <trkpt lat="42.41128" lon="2.7696">
        <ele>886.40002441406</ele>
        <time>2023-07-13T08:41:20.000Z</time>
      </trkpt>
      <trkpt lat="42.41131" lon="2.76956">
        <ele>886.79998779297</ele>
        <time>2023-07-13T08:41:23.000Z</time>
      </trkpt>
      <trkpt lat="42.41136" lon="2.76949">
        <ele>886.79998779297</ele>
        <time>2023-07-13T08:41:28.000Z</time>
      </trkpt>
      <trkpt lat="42.41141" lon="2.7694">
        <ele>887.20001220703</ele>
        <time>2023-07-13T08:41:35.000Z</time>
      </trkpt>
      <trkpt lat="42.41146" lon="2.7693">
        <ele>887.59997558594</ele>
        <time>2023-07-13T08:41:43.000Z</time>
      </trkpt>
      <trkpt lat="42.4115" lon="2.76915">
        <ele>886.79998779297</ele>
        <time>2023-07-13T08:41:52.000Z</time>
      </trkpt>
      <trkpt lat="42.41154" lon="2.76901">
        <ele>886.40002441406</ele>
        <time>2023-07-13T08:42:01.000Z</time>
      </trkpt>
      <trkpt lat="42.41157" lon="2.76891">
        <ele>885.79998779297</ele>
        <time>2023-07-13T08:42:07.000Z</time>
      </trkpt>
      <trkpt lat="42.41157" lon="2.76881">
        <ele>884.79998779297</ele>
        <time>2023-07-13T08:42:15.000Z</time>
      </trkpt>
      <trkpt lat="42.41157" lon="2.76871">
        <ele>884.79998779297</ele>
        <time>2023-07-13T08:42:23.000Z</time>
      </trkpt>
      <trkpt lat="42.41154" lon="2.76852">
        <ele>884.40002441406</ele>
        <time>2023-07-13T08:42:32.000Z</time>
      </trkpt>
      <trkpt lat="42.41151" lon="2.76844">
        <ele>884.20001220703</ele>
        <time>2023-07-13T08:42:39.000Z</time>
      </trkpt>
      <trkpt lat="42.41145" lon="2.76834">
        <ele>884.20001220703</ele>
        <time>2023-07-13T08:42:48.000Z</time>
      </trkpt>
      <trkpt lat="42.41145" lon="2.76831">
        <ele>884.20001220703</ele>
        <time>2023-07-13T08:42:57.000Z</time>
      </trkpt>
      <trkpt lat="42.41147" lon="2.76831">
        <ele>884.40002441406</ele>
        <time>2023-07-13T08:43:04.000Z</time>
      </trkpt>
      <trkpt lat="42.41148" lon="2.76827">
        <ele>884.20001220703</ele>
        <time>2023-07-13T08:43:13.000Z</time>
      </trkpt>
      <trkpt lat="42.41151" lon="2.7681">
        <ele>884.40002441406</ele>
        <time>2023-07-13T08:43:22.000Z</time>
      </trkpt>
      <trkpt lat="42.41152" lon="2.76799">
        <ele>885</ele>
        <time>2023-07-13T08:43:29.000Z</time>
      </trkpt>
      <trkpt lat="42.41151" lon="2.76788">
        <ele>885.40002441406</ele>
        <time>2023-07-13T08:43:37.000Z</time>
      </trkpt>
      <trkpt lat="42.41152" lon="2.7678">
        <ele>885.79998779297</ele>
        <time>2023-07-13T08:43:44.000Z</time>
      </trkpt>
      <trkpt lat="42.41152" lon="2.76779">
        <ele>886</ele>
        <time>2023-07-13T08:43:45.000Z</time>
      </trkpt>
      <trkpt lat="42.41153" lon="2.76767">
        <ele>887</ele>
        <time>2023-07-13T08:43:52.000Z</time>
      </trkpt>
      <trkpt lat="42.41154" lon="2.76764">
        <ele>887.20001220703</ele>
        <time>2023-07-13T08:43:54.000Z</time>
      </trkpt>
      <trkpt lat="42.41154" lon="2.76751">
        <ele>887.59997558594</ele>
        <time>2023-07-13T08:44:03.000Z</time>
      </trkpt>
      <trkpt lat="42.41154" lon="2.76748">
        <ele>888</ele>
        <time>2023-07-13T08:44:05.000Z</time>
      </trkpt>
      <trkpt lat="42.41154" lon="2.76738">
        <ele>888.59997558594</ele>
        <time>2023-07-13T08:44:14.000Z</time>
      </trkpt>
      <trkpt lat="42.41154" lon="2.76735">
        <ele>889.20001220703</ele>
        <time>2023-07-13T08:44:18.000Z</time>
      </trkpt>
      <trkpt lat="42.41155" lon="2.76728">
        <ele>889.79998779297</ele>
        <time>2023-07-13T08:44:23.000Z</time>
      </trkpt>
      <trkpt lat="42.41155" lon="2.76724">
        <ele>890.40002441406</ele>
        <time>2023-07-13T08:44:26.000Z</time>
      </trkpt>
      <trkpt lat="42.41157" lon="2.76717">
        <ele>891.59997558594</ele>
        <time>2023-07-13T08:44:32.000Z</time>
      </trkpt>
      <trkpt lat="42.4116" lon="2.76709">
        <ele>892</ele>
        <time>2023-07-13T08:44:39.000Z</time>
      </trkpt>
      <trkpt lat="42.4116" lon="2.76704">
        <ele>892.59997558594</ele>
        <time>2023-07-13T08:44:43.000Z</time>
      </trkpt>
      <trkpt lat="42.41161" lon="2.76698">
        <ele>893</ele>
        <time>2023-07-13T08:44:48.000Z</time>
      </trkpt>
      <trkpt lat="42.41163" lon="2.76688">
        <ele>893.79998779297</ele>
        <time>2023-07-13T08:44:53.000Z</time>
      </trkpt>
      <trkpt lat="42.41163" lon="2.76685">
        <ele>893.79998779297</ele>
        <time>2023-07-13T08:44:56.000Z</time>
      </trkpt>
      <trkpt lat="42.41162" lon="2.76674">
        <ele>893.79998779297</ele>
        <time>2023-07-13T08:45:04.000Z</time>
      </trkpt>
      <trkpt lat="42.41162" lon="2.76666">
        <ele>894.79998779297</ele>
        <time>2023-07-13T08:45:09.000Z</time>
      </trkpt>
      <trkpt lat="42.41162" lon="2.76661">
        <ele>895</ele>
        <time>2023-07-13T08:45:12.000Z</time>
      </trkpt>
      <trkpt lat="42.41161" lon="2.7665">
        <ele>896</ele>
        <time>2023-07-13T08:45:18.000Z</time>
      </trkpt>
      <trkpt lat="42.41161" lon="2.76648">
        <ele>896</ele>
        <time>2023-07-13T08:45:19.000Z</time>
      </trkpt>
      <trkpt lat="42.41163" lon="2.76639">
        <ele>896.79998779297</ele>
        <time>2023-07-13T08:45:28.000Z</time>
      </trkpt>
      <trkpt lat="42.41163" lon="2.76637">
        <ele>897</ele>
        <time>2023-07-13T08:45:30.000Z</time>
      </trkpt>
      <trkpt lat="42.41163" lon="2.76626">
        <ele>897.79998779297</ele>
        <time>2023-07-13T08:45:37.000Z</time>
      </trkpt>
      <trkpt lat="42.41162" lon="2.76623">
        <ele>898.20001220703</ele>
        <time>2023-07-13T08:45:39.000Z</time>
      </trkpt>
      <trkpt lat="42.41161" lon="2.7662">
        <ele>899.20001220703</ele>
        <time>2023-07-13T08:45:45.000Z</time>
      </trkpt>
      <trkpt lat="42.41161" lon="2.76619">
        <ele>899.20001220703</ele>
        <time>2023-07-13T08:45:46.000Z</time>
      </trkpt>
      <trkpt lat="42.41161" lon="2.76612">
        <ele>900.40002441406</ele>
        <time>2023-07-13T08:45:52.000Z</time>
      </trkpt>
      <trkpt lat="42.41162" lon="2.76608">
        <ele>900.79998779297</ele>
        <time>2023-07-13T08:45:54.000Z</time>
      </trkpt>
      <trkpt lat="42.41162" lon="2.76603">
        <ele>901.59997558594</ele>
        <time>2023-07-13T08:45:57.000Z</time>
      </trkpt>
      <trkpt lat="42.41162" lon="2.76596">
        <ele>902.59997558594</ele>
        <time>2023-07-13T08:46:03.000Z</time>
      </trkpt>
      <trkpt lat="42.41165" lon="2.76586">
        <ele>903.20001220703</ele>
        <time>2023-07-13T08:46:10.000Z</time>
      </trkpt>
      <trkpt lat="42.41168" lon="2.76579">
        <ele>903.79998779297</ele>
        <time>2023-07-13T08:46:16.000Z</time>
      </trkpt>
      <trkpt lat="42.41169" lon="2.76575">
        <ele>904.40002441406</ele>
        <time>2023-07-13T08:46:19.000Z</time>
      </trkpt>
      <trkpt lat="42.41171" lon="2.76569">
        <ele>904.79998779297</ele>
        <time>2023-07-13T08:46:23.000Z</time>
      </trkpt>
      <trkpt lat="42.41173" lon="2.76563">
        <ele>905.40002441406</ele>
        <time>2023-07-13T08:46:27.000Z</time>
      </trkpt>
      <trkpt lat="42.41179" lon="2.76551">
        <ele>905.59997558594</ele>
        <time>2023-07-13T08:46:36.000Z</time>
      </trkpt>
      <trkpt lat="42.41179" lon="2.76549">
        <ele>906</ele>
        <time>2023-07-13T08:46:38.000Z</time>
      </trkpt>
      <trkpt lat="42.41181" lon="2.7654">
        <ele>907</ele>
        <time>2023-07-13T08:46:45.000Z</time>
      </trkpt>
      <trkpt lat="42.41181" lon="2.76538">
        <ele>907.20001220703</ele>
        <time>2023-07-13T08:46:46.000Z</time>
      </trkpt>
      <trkpt lat="42.41188" lon="2.76521">
        <ele>907.59997558594</ele>
        <time>2023-07-13T08:46:56.000Z</time>
      </trkpt>
      <trkpt lat="42.41189" lon="2.76515">
        <ele>908.20001220703</ele>
        <time>2023-07-13T08:47:00.000Z</time>
      </trkpt>
      <trkpt lat="42.4119" lon="2.76511">
        <ele>908.40002441406</ele>
        <time>2023-07-13T08:47:04.000Z</time>
      </trkpt>
      <trkpt lat="42.41192" lon="2.76507">
        <ele>909.20001220703</ele>
        <time>2023-07-13T08:47:08.000Z</time>
      </trkpt>
      <trkpt lat="42.41195" lon="2.76501">
        <ele>910</ele>
        <time>2023-07-13T08:47:13.000Z</time>
      </trkpt>
      <trkpt lat="42.41197" lon="2.76498">
        <ele>910.40002441406</ele>
        <time>2023-07-13T08:47:16.000Z</time>
      </trkpt>
      <trkpt lat="42.41199" lon="2.76494">
        <ele>911</ele>
        <time>2023-07-13T08:47:21.000Z</time>
      </trkpt>
      <trkpt lat="42.41202" lon="2.76489">
        <ele>911.40002441406</ele>
        <time>2023-07-13T08:47:25.000Z</time>
      </trkpt>
      <trkpt lat="42.41203" lon="2.76484">
        <ele>912.20001220703</ele>
        <time>2023-07-13T08:47:31.000Z</time>
      </trkpt>
      <trkpt lat="42.41205" lon="2.76478">
        <ele>912.59997558594</ele>
        <time>2023-07-13T08:47:36.000Z</time>
      </trkpt>
      <trkpt lat="42.41206" lon="2.76474">
        <ele>913</ele>
        <time>2023-07-13T08:47:40.000Z</time>
      </trkpt>
      <trkpt lat="42.41207" lon="2.76462">
        <ele>913.20001220703</ele>
        <time>2023-07-13T08:47:49.000Z</time>
      </trkpt>
      <trkpt lat="42.41207" lon="2.76457">
        <ele>913.79998779297</ele>
        <time>2023-07-13T08:47:54.000Z</time>
      </trkpt>
      <trkpt lat="42.41208" lon="2.76448">
        <ele>914.20001220703</ele>
        <time>2023-07-13T08:48:00.000Z</time>
      </trkpt>
      <trkpt lat="42.41209" lon="2.76442">
        <ele>914.79998779297</ele>
        <time>2023-07-13T08:48:04.000Z</time>
      </trkpt>
      <trkpt lat="42.41209" lon="2.76437">
        <ele>915</ele>
        <time>2023-07-13T08:48:07.000Z</time>
      </trkpt>
      <trkpt lat="42.41209" lon="2.76427">
        <ele>916</ele>
        <time>2023-07-13T08:48:13.000Z</time>
      </trkpt>
      <trkpt lat="42.41209" lon="2.76424">
        <ele>916.20001220703</ele>
        <time>2023-07-13T08:48:15.000Z</time>
      </trkpt>
      <trkpt lat="42.4121" lon="2.76409">
        <ele>917</ele>
        <time>2023-07-13T08:48:22.000Z</time>
      </trkpt>
      <trkpt lat="42.4121" lon="2.76406">
        <ele>917.20001220703</ele>
        <time>2023-07-13T08:48:23.000Z</time>
      </trkpt>
      <trkpt lat="42.4121" lon="2.76399">
        <ele>918</ele>
        <time>2023-07-13T08:48:29.000Z</time>
      </trkpt>
      <trkpt lat="42.41213" lon="2.76392">
        <ele>918.40002441406</ele>
        <time>2023-07-13T08:48:32.000Z</time>
      </trkpt>
      <trkpt lat="42.41217" lon="2.76387">
        <ele>919</ele>
        <time>2023-07-13T08:48:38.000Z</time>
      </trkpt>
      <trkpt lat="42.41218" lon="2.76386">
        <ele>919</ele>
        <time>2023-07-13T08:48:40.000Z</time>
      </trkpt>
      <trkpt lat="42.41219" lon="2.7638">
        <ele>920.20001220703</ele>
        <time>2023-07-13T08:48:47.000Z</time>
      </trkpt>
      <trkpt lat="42.4122" lon="2.76376">
        <ele>921.20001220703</ele>
        <time>2023-07-13T08:48:51.000Z</time>
      </trkpt>
      <trkpt lat="42.4122" lon="2.76374">
        <ele>921.40002441406</ele>
        <time>2023-07-13T08:48:53.000Z</time>
      </trkpt>
      <trkpt lat="42.41221" lon="2.76368">
        <ele>922.40002441406</ele>
        <time>2023-07-13T08:48:58.000Z</time>
      </trkpt>
      <trkpt lat="42.41221" lon="2.76367">
        <ele>923</ele>
        <time>2023-07-13T08:49:00.000Z</time>
      </trkpt>
      <trkpt lat="42.41222" lon="2.76363">
        <ele>923.59997558594</ele>
        <time>2023-07-13T08:49:03.000Z</time>
      </trkpt>
      <trkpt lat="42.41222" lon="2.7636">
        <ele>923.79998779297</ele>
        <time>2023-07-13T08:49:05.000Z</time>
      </trkpt>
      <trkpt lat="42.41225" lon="2.76351">
        <ele>924.59997558594</ele>
        <time>2023-07-13T08:49:13.000Z</time>
      </trkpt>
      <trkpt lat="42.41226" lon="2.7635">
        <ele>924.79998779297</ele>
        <time>2023-07-13T08:49:14.000Z</time>
      </trkpt>
      <trkpt lat="42.41229" lon="2.76342">
        <ele>925.59997558594</ele>
        <time>2023-07-13T08:49:24.000Z</time>
      </trkpt>
      <trkpt lat="42.41229" lon="2.7634">
        <ele>926</ele>
        <time>2023-07-13T08:49:26.000Z</time>
      </trkpt>
      <trkpt lat="42.41232" lon="2.76335">
        <ele>927.20001220703</ele>
        <time>2023-07-13T08:49:31.000Z</time>
      </trkpt>
      <trkpt lat="42.41238" lon="2.76327">
        <ele>928</ele>
        <time>2023-07-13T08:49:39.000Z</time>
      </trkpt>
      <trkpt lat="42.4124" lon="2.76323">
        <ele>928.40002441406</ele>
        <time>2023-07-13T08:49:42.000Z</time>
      </trkpt>
      <trkpt lat="42.41242" lon="2.76315">
        <ele>929.20001220703</ele>
        <time>2023-07-13T08:49:48.000Z</time>
      </trkpt>
      <trkpt lat="42.41242" lon="2.76313">
        <ele>929.40002441406</ele>
        <time>2023-07-13T08:49:50.000Z</time>
      </trkpt>
      <trkpt lat="42.41242" lon="2.76308">
        <ele>930.40002441406</ele>
        <time>2023-07-13T08:49:55.000Z</time>
      </trkpt>
      <trkpt lat="42.41242" lon="2.76306">
        <ele>930.59997558594</ele>
        <time>2023-07-13T08:49:57.000Z</time>
      </trkpt>
      <trkpt lat="42.41243" lon="2.76297">
        <ele>931.59997558594</ele>
        <time>2023-07-13T08:50:04.000Z</time>
      </trkpt>
      <trkpt lat="42.41244" lon="2.76295">
        <ele>931.79998779297</ele>
        <time>2023-07-13T08:50:05.000Z</time>
      </trkpt>
      <trkpt lat="42.41247" lon="2.76287">
        <ele>933</ele>
        <time>2023-07-13T08:50:09.000Z</time>
      </trkpt>
      <trkpt lat="42.41249" lon="2.76283">
        <ele>933.59997558594</ele>
        <time>2023-07-13T08:50:13.000Z</time>
      </trkpt>
      <trkpt lat="42.41251" lon="2.76279">
        <ele>934.20001220703</ele>
        <time>2023-07-13T08:50:18.000Z</time>
      </trkpt>
      <trkpt lat="42.41251" lon="2.76277">
        <ele>934.59997558594</ele>
        <time>2023-07-13T08:50:20.000Z</time>
      </trkpt>
      <trkpt lat="42.41252" lon="2.76273">
        <ele>935.20001220703</ele>
        <time>2023-07-13T08:50:24.000Z</time>
      </trkpt>
      <trkpt lat="42.41253" lon="2.76269">
        <ele>936.20001220703</ele>
        <time>2023-07-13T08:50:31.000Z</time>
      </trkpt>
      <trkpt lat="42.41257" lon="2.76264">
        <ele>937.40002441406</ele>
        <time>2023-07-13T08:50:39.000Z</time>
      </trkpt>
      <trkpt lat="42.41257" lon="2.76263">
        <ele>937.59997558594</ele>
        <time>2023-07-13T08:50:40.000Z</time>
      </trkpt>
      <trkpt lat="42.41261" lon="2.76256">
        <ele>938.59997558594</ele>
        <time>2023-07-13T08:50:48.000Z</time>
      </trkpt>
      <trkpt lat="42.4126" lon="2.7625">
        <ele>939.59997558594</ele>
        <time>2023-07-13T08:50:55.000Z</time>
      </trkpt>
      <trkpt lat="42.4126" lon="2.76248">
        <ele>939.59997558594</ele>
        <time>2023-07-13T08:50:56.000Z</time>
      </trkpt>
      <trkpt lat="42.41264" lon="2.7624">
        <ele>940.59997558594</ele>
        <time>2023-07-13T08:51:04.000Z</time>
      </trkpt>
      <trkpt lat="42.41265" lon="2.76238">
        <ele>940.79998779297</ele>
        <time>2023-07-13T08:51:05.000Z</time>
      </trkpt>
      <trkpt lat="42.41269" lon="2.76229">
        <ele>941.79998779297</ele>
        <time>2023-07-13T08:51:13.000Z</time>
      </trkpt>
      <trkpt lat="42.4127" lon="2.76229">
        <ele>942</ele>
        <time>2023-07-13T08:51:14.000Z</time>
      </trkpt>
      <trkpt lat="42.41271" lon="2.76227">
        <ele>942.79998779297</ele>
        <time>2023-07-13T08:51:17.000Z</time>
      </trkpt>
      <trkpt lat="42.41271" lon="2.76226">
        <ele>943.20001220703</ele>
        <time>2023-07-13T08:51:22.000Z</time>
      </trkpt>
      <trkpt lat="42.41273" lon="2.76219">
        <ele>944</ele>
        <time>2023-07-13T08:51:28.000Z</time>
      </trkpt>
      <trkpt lat="42.41275" lon="2.76215">
        <ele>944.20001220703</ele>
        <time>2023-07-13T08:51:32.000Z</time>
      </trkpt>
      <trkpt lat="42.41277" lon="2.7621">
        <ele>945</ele>
        <time>2023-07-13T08:51:37.000Z</time>
      </trkpt>
      <trkpt lat="42.41278" lon="2.76206">
        <ele>945.40002441406</ele>
        <time>2023-07-13T08:51:40.000Z</time>
      </trkpt>
      <trkpt lat="42.41281" lon="2.76197">
        <ele>946.20001220703</ele>
        <time>2023-07-13T08:51:47.000Z</time>
      </trkpt>
      <trkpt lat="42.41282" lon="2.76196">
        <ele>946.40002441406</ele>
        <time>2023-07-13T08:51:48.000Z</time>
      </trkpt>
      <trkpt lat="42.41287" lon="2.7619">
        <ele>947.20001220703</ele>
        <time>2023-07-13T08:51:56.000Z</time>
      </trkpt>
      <trkpt lat="42.41287" lon="2.7619">
        <ele>947.20001220703</ele>
        <time>2023-07-13T08:51:57.000Z</time>
      </trkpt>
      <trkpt lat="42.41291" lon="2.76184">
        <ele>948.79998779297</ele>
        <time>2023-07-13T08:52:05.000Z</time>
      </trkpt>
      <trkpt lat="42.41295" lon="2.76177">
        <ele>949.79998779297</ele>
        <time>2023-07-13T08:52:13.000Z</time>
      </trkpt>
      <trkpt lat="42.41295" lon="2.76176">
        <ele>949.79998779297</ele>
        <time>2023-07-13T08:52:15.000Z</time>
      </trkpt>
      <trkpt lat="42.41298" lon="2.76172">
        <ele>950.40002441406</ele>
        <time>2023-07-13T08:52:21.000Z</time>
      </trkpt>
      <trkpt lat="42.41301" lon="2.7617">
        <ele>951</ele>
        <time>2023-07-13T08:52:25.000Z</time>
      </trkpt>
      <trkpt lat="42.41303" lon="2.76167">
        <ele>951.59997558594</ele>
        <time>2023-07-13T08:52:30.000Z</time>
      </trkpt>
      <trkpt lat="42.41305" lon="2.76164">
        <ele>952</ele>
        <time>2023-07-13T08:52:33.000Z</time>
      </trkpt>
      <trkpt lat="42.41305" lon="2.76163">
        <ele>953</ele>
        <time>2023-07-13T08:52:37.000Z</time>
      </trkpt>
      <trkpt lat="42.41306" lon="2.76162">
        <ele>953.40002441406</ele>
        <time>2023-07-13T08:52:39.000Z</time>
      </trkpt>
      <trkpt lat="42.41308" lon="2.76156">
        <ele>954.40002441406</ele>
        <time>2023-07-13T08:52:43.000Z</time>
      </trkpt>
      <trkpt lat="42.41308" lon="2.76152">
        <ele>955</ele>
        <time>2023-07-13T08:52:47.000Z</time>
      </trkpt>
      <trkpt lat="42.41307" lon="2.76151">
        <ele>955.40002441406</ele>
        <time>2023-07-13T08:52:50.000Z</time>
      </trkpt>
      <trkpt lat="42.41309" lon="2.76146">
        <ele>956.20001220703</ele>
        <time>2023-07-13T08:52:55.000Z</time>
      </trkpt>
      <trkpt lat="42.4131" lon="2.76142">
        <ele>956.59997558594</ele>
        <time>2023-07-13T08:52:58.000Z</time>
      </trkpt>
      <trkpt lat="42.41315" lon="2.76139">
        <ele>957.59997558594</ele>
        <time>2023-07-13T08:53:05.000Z</time>
      </trkpt>
      <trkpt lat="42.41322" lon="2.76136">
        <ele>958.79998779297</ele>
        <time>2023-07-13T08:53:12.000Z</time>
      </trkpt>
      <trkpt lat="42.41322" lon="2.76136">
        <ele>959</ele>
        <time>2023-07-13T08:53:13.000Z</time>
      </trkpt>
      <trkpt lat="42.41322" lon="2.76137">
        <ele>959</ele>
        <time>2023-07-13T08:53:20.000Z</time>
      </trkpt>
      <trkpt lat="42.41323" lon="2.76138">
        <ele>959</ele>
        <time>2023-07-13T08:53:21.000Z</time>
      </trkpt>
      <trkpt lat="42.41323" lon="2.76138">
        <ele>959</ele>
        <time>2023-07-13T08:53:23.000Z</time>
      </trkpt>
      <trkpt lat="42.41324" lon="2.7614">
        <ele>959.40002441406</ele>
        <time>2023-07-13T08:53:29.000Z</time>
      </trkpt>
      <trkpt lat="42.41325" lon="2.76133">
        <ele>959.59997558594</ele>
        <time>2023-07-13T08:53:38.000Z</time>
      </trkpt>
      <trkpt lat="42.41329" lon="2.76127">
        <ele>959.79998779297</ele>
        <time>2023-07-13T08:53:44.000Z</time>
      </trkpt>
      <trkpt lat="42.41331" lon="2.76125">
        <ele>960.20001220703</ele>
        <time>2023-07-13T08:53:47.000Z</time>
      </trkpt>
      <trkpt lat="42.41333" lon="2.76121">
        <ele>961</ele>
        <time>2023-07-13T08:53:52.000Z</time>
      </trkpt>
      <trkpt lat="42.41333" lon="2.76121">
        <ele>961.20001220703</ele>
        <time>2023-07-13T08:53:54.000Z</time>
      </trkpt>
      <trkpt lat="42.41333" lon="2.7612">
        <ele>961.20001220703</ele>
        <time>2023-07-13T08:54:03.000Z</time>
      </trkpt>
      <trkpt lat="42.41331" lon="2.76119">
        <ele>961.20001220703</ele>
        <time>2023-07-13T08:54:12.000Z</time>
      </trkpt>
      <trkpt lat="42.41339" lon="2.76118">
        <ele>961.40002441406</ele>
        <time>2023-07-13T08:54:20.000Z</time>
      </trkpt>
      <trkpt lat="42.41343" lon="2.76117">
        <ele>962.20001220703</ele>
        <time>2023-07-13T08:54:25.000Z</time>
      </trkpt>
      <trkpt lat="42.41344" lon="2.76117">
        <ele>962.40002441406</ele>
        <time>2023-07-13T08:54:27.000Z</time>
      </trkpt>
      <trkpt lat="42.41348" lon="2.76113">
        <ele>963.40002441406</ele>
        <time>2023-07-13T08:54:34.000Z</time>
      </trkpt>
      <trkpt lat="42.41349" lon="2.76112">
        <ele>963.59997558594</ele>
        <time>2023-07-13T08:54:35.000Z</time>
      </trkpt>
      <trkpt lat="42.41357" lon="2.76106">
        <ele>964.40002441406</ele>
        <time>2023-07-13T08:54:42.000Z</time>
      </trkpt>
      <trkpt lat="42.41357" lon="2.76105">
        <ele>964.40002441406</ele>
        <time>2023-07-13T08:54:43.000Z</time>
      </trkpt>
      <trkpt lat="42.4136" lon="2.76104">
        <ele>965.40002441406</ele>
        <time>2023-07-13T08:54:47.000Z</time>
      </trkpt>
      <trkpt lat="42.41363" lon="2.76101">
        <ele>965.79998779297</ele>
        <time>2023-07-13T08:54:51.000Z</time>
      </trkpt>
      <trkpt lat="42.41368" lon="2.76095">
        <ele>966.59997558594</ele>
        <time>2023-07-13T08:55:00.000Z</time>
      </trkpt>
      <trkpt lat="42.41371" lon="2.7609">
        <ele>967.59997558594</ele>
        <time>2023-07-13T08:55:07.000Z</time>
      </trkpt>
      <trkpt lat="42.41379" lon="2.76083">
        <ele>968.59997558594</ele>
        <time>2023-07-13T08:55:13.000Z</time>
      </trkpt>
      <trkpt lat="42.41381" lon="2.76081">
        <ele>969</ele>
        <time>2023-07-13T08:55:15.000Z</time>
      </trkpt>
      <trkpt lat="42.41387" lon="2.76077">
        <ele>969</ele>
        <time>2023-07-13T08:55:21.000Z</time>
      </trkpt>
      <trkpt lat="42.41395" lon="2.76069">
        <ele>969.59997558594</ele>
        <time>2023-07-13T08:55:29.000Z</time>
      </trkpt>
      <trkpt lat="42.41395" lon="2.76068">
        <ele>969.79998779297</ele>
        <time>2023-07-13T08:55:30.000Z</time>
      </trkpt>
      <trkpt lat="42.41397" lon="2.76063">
        <ele>970.79998779297</ele>
        <time>2023-07-13T08:55:36.000Z</time>
      </trkpt>
      <trkpt lat="42.41399" lon="2.76059">
        <ele>971.40002441406</ele>
        <time>2023-07-13T08:55:40.000Z</time>
      </trkpt>
      <trkpt lat="42.41401" lon="2.76055">
        <ele>972</ele>
        <time>2023-07-13T08:55:43.000Z</time>
      </trkpt>
      <trkpt lat="42.41403" lon="2.76052">
        <ele>972.79998779297</ele>
        <time>2023-07-13T08:55:48.000Z</time>
      </trkpt>
      <trkpt lat="42.41403" lon="2.76051">
        <ele>973</ele>
        <time>2023-07-13T08:55:49.000Z</time>
      </trkpt>
      <trkpt lat="42.41407" lon="2.76044">
        <ele>973.79998779297</ele>
        <time>2023-07-13T08:55:55.000Z</time>
      </trkpt>
      <trkpt lat="42.4141" lon="2.76037">
        <ele>974</ele>
        <time>2023-07-13T08:56:01.000Z</time>
      </trkpt>
      <trkpt lat="42.41411" lon="2.76033">
        <ele>974.20001220703</ele>
        <time>2023-07-13T08:56:03.000Z</time>
      </trkpt>
      <trkpt lat="42.41417" lon="2.76019">
        <ele>975</ele>
        <time>2023-07-13T08:56:13.000Z</time>
      </trkpt>
      <trkpt lat="42.41418" lon="2.76017">
        <ele>975.20001220703</ele>
        <time>2023-07-13T08:56:15.000Z</time>
      </trkpt>
      <trkpt lat="42.41423" lon="2.76009">
        <ele>976</ele>
        <time>2023-07-13T08:56:22.000Z</time>
      </trkpt>
      <trkpt lat="42.41423" lon="2.76008">
        <ele>976.20001220703</ele>
        <time>2023-07-13T08:56:25.000Z</time>
      </trkpt>
      <trkpt lat="42.41425" lon="2.76004">
        <ele>977.20001220703</ele>
        <time>2023-07-13T08:56:30.000Z</time>
      </trkpt>
      <trkpt lat="42.41428" lon="2.75996">
        <ele>978.40002441406</ele>
        <time>2023-07-13T08:56:37.000Z</time>
      </trkpt>
      <trkpt lat="42.41428" lon="2.75993">
        <ele>978.59997558594</ele>
        <time>2023-07-13T08:56:39.000Z</time>
      </trkpt>
      <trkpt lat="42.41429" lon="2.75987">
        <ele>979.59997558594</ele>
        <time>2023-07-13T08:56:44.000Z</time>
      </trkpt>
      <trkpt lat="42.41429" lon="2.75981">
        <ele>979.79998779297</ele>
        <time>2023-07-13T08:56:49.000Z</time>
      </trkpt>
      <trkpt lat="42.41426" lon="2.75967">
        <ele>980.20001220703</ele>
        <time>2023-07-13T08:56:57.000Z</time>
      </trkpt>
      <trkpt lat="42.41425" lon="2.75963">
        <ele>980.59997558594</ele>
        <time>2023-07-13T08:57:00.000Z</time>
      </trkpt>
      <trkpt lat="42.41423" lon="2.75959">
        <ele>981.40002441406</ele>
        <time>2023-07-13T08:57:05.000Z</time>
      </trkpt>
      <trkpt lat="42.4142" lon="2.75957">
        <ele>981.79998779297</ele>
        <time>2023-07-13T08:57:09.000Z</time>
      </trkpt>
      <trkpt lat="42.41415" lon="2.75952">
        <ele>982.59997558594</ele>
        <time>2023-07-13T08:57:15.000Z</time>
      </trkpt>
      <trkpt lat="42.41413" lon="2.7595">
        <ele>982.79998779297</ele>
        <time>2023-07-13T08:57:17.000Z</time>
      </trkpt>
      <trkpt lat="42.4141" lon="2.75943">
        <ele>983.79998779297</ele>
        <time>2023-07-13T08:57:23.000Z</time>
      </trkpt>
      <trkpt lat="42.4141" lon="2.75941">
        <ele>984</ele>
        <time>2023-07-13T08:57:24.000Z</time>
      </trkpt>
      <trkpt lat="42.41409" lon="2.7593">
        <ele>984.79998779297</ele>
        <time>2023-07-13T08:57:32.000Z</time>
      </trkpt>
      <trkpt lat="42.41409" lon="2.75923">
        <ele>985</ele>
        <time>2023-07-13T08:57:37.000Z</time>
      </trkpt>
      <trkpt lat="42.4141" lon="2.75921">
        <ele>985.40002441406</ele>
        <time>2023-07-13T08:57:39.000Z</time>
      </trkpt>
      <trkpt lat="42.41409" lon="2.75917">
        <ele>986</ele>
        <time>2023-07-13T08:57:42.000Z</time>
      </trkpt>
      <trkpt lat="42.41408" lon="2.75907">
        <ele>987</ele>
        <time>2023-07-13T08:57:49.000Z</time>
      </trkpt>
      <trkpt lat="42.41408" lon="2.75903">
        <ele>987.20001220703</ele>
        <time>2023-07-13T08:57:51.000Z</time>
      </trkpt>
      <trkpt lat="42.41408" lon="2.75895">
        <ele>988.20001220703</ele>
        <time>2023-07-13T08:57:57.000Z</time>
      </trkpt>
      <trkpt lat="42.4141" lon="2.75882">
        <ele>989</ele>
        <time>2023-07-13T08:58:06.000Z</time>
      </trkpt>
      <trkpt lat="42.41411" lon="2.75878">
        <ele>989.40002441406</ele>
        <time>2023-07-13T08:58:10.000Z</time>
      </trkpt>
      <trkpt lat="42.41412" lon="2.75875">
        <ele>989.79998779297</ele>
        <time>2023-07-13T08:58:13.000Z</time>
      </trkpt>
      <trkpt lat="42.41412" lon="2.75872">
        <ele>990.40002441406</ele>
        <time>2023-07-13T08:58:17.000Z</time>
      </trkpt>
      <trkpt lat="42.41413" lon="2.75868">
        <ele>991.20001220703</ele>
        <time>2023-07-13T08:58:21.000Z</time>
      </trkpt>
      <trkpt lat="42.41414" lon="2.75866">
        <ele>991.40002441406</ele>
        <time>2023-07-13T08:58:24.000Z</time>
      </trkpt>
      <trkpt lat="42.41416" lon="2.75862">
        <ele>992</ele>
        <time>2023-07-13T08:58:29.000Z</time>
      </trkpt>
      <trkpt lat="42.41417" lon="2.75859">
        <ele>992.59997558594</ele>
        <time>2023-07-13T08:58:32.000Z</time>
      </trkpt>
      <trkpt lat="42.4142" lon="2.75852">
        <ele>992.79998779297</ele>
        <time>2023-07-13T08:58:37.000Z</time>
      </trkpt>
      <trkpt lat="42.41424" lon="2.75842">
        <ele>993.59997558594</ele>
        <time>2023-07-13T08:58:43.000Z</time>
      </trkpt>
      <trkpt lat="42.41425" lon="2.75839">
        <ele>994</ele>
        <time>2023-07-13T08:58:46.000Z</time>
      </trkpt>
      <trkpt lat="42.41426" lon="2.75835">
        <ele>994.59997558594</ele>
        <time>2023-07-13T08:58:49.000Z</time>
      </trkpt>
      <trkpt lat="42.41429" lon="2.75829">
        <ele>995</ele>
        <time>2023-07-13T08:58:56.000Z</time>
      </trkpt>
      <trkpt lat="42.41433" lon="2.75817">
        <ele>995.79998779297</ele>
        <time>2023-07-13T08:59:05.000Z</time>
      </trkpt>
      <trkpt lat="42.41434" lon="2.75815">
        <ele>995.79998779297</ele>
        <time>2023-07-13T08:59:06.000Z</time>
      </trkpt>
      <trkpt lat="42.41436" lon="2.75809">
        <ele>996.79998779297</ele>
        <time>2023-07-13T08:59:11.000Z</time>
      </trkpt>
      <trkpt lat="42.41439" lon="2.75805">
        <ele>997.20001220703</ele>
        <time>2023-07-13T08:59:14.000Z</time>
      </trkpt>
      <trkpt lat="42.41446" lon="2.75793">
        <ele>997.40002441406</ele>
        <time>2023-07-13T08:59:23.000Z</time>
      </trkpt>
      <trkpt lat="42.41449" lon="2.75786">
        <ele>997.59997558594</ele>
        <time>2023-07-13T08:59:29.000Z</time>
      </trkpt>
      <trkpt lat="42.41452" lon="2.75781">
        <ele>997.79998779297</ele>
        <time>2023-07-13T08:59:33.000Z</time>
      </trkpt>
      <trkpt lat="42.41453" lon="2.75779">
        <ele>998</ele>
        <time>2023-07-13T08:59:36.000Z</time>
      </trkpt>
      <trkpt lat="42.41454" lon="2.75776">
        <ele>999</ele>
        <time>2023-07-13T08:59:40.000Z</time>
      </trkpt>
      <trkpt lat="42.41456" lon="2.75773">
        <ele>999.40002441406</ele>
        <time>2023-07-13T08:59:43.000Z</time>
      </trkpt>
      <trkpt lat="42.41457" lon="2.75771">
        <ele>1000</ele>
        <time>2023-07-13T08:59:45.000Z</time>
      </trkpt>
      <trkpt lat="42.41462" lon="2.75761">
        <ele>1000.4000244141</ele>
        <time>2023-07-13T08:59:52.000Z</time>
      </trkpt>
      <trkpt lat="42.41465" lon="2.75756">
        <ele>1001</ele>
        <time>2023-07-13T08:59:59.000Z</time>
      </trkpt>
      <trkpt lat="42.41465" lon="2.75755">
        <ele>1001.200012207</ele>
        <time>2023-07-13T09:00:00.000Z</time>
      </trkpt>
      <trkpt lat="42.41467" lon="2.75748">
        <ele>1002</ele>
        <time>2023-07-13T09:00:05.000Z</time>
      </trkpt>
      <trkpt lat="42.41468" lon="2.75745">
        <ele>1002.200012207</ele>
        <time>2023-07-13T09:00:07.000Z</time>
      </trkpt>
      <trkpt lat="42.41468" lon="2.75739">
        <ele>1003.200012207</ele>
        <time>2023-07-13T09:00:13.000Z</time>
      </trkpt>
      <trkpt lat="42.41469" lon="2.75736">
        <ele>1003.5999755859</ele>
        <time>2023-07-13T09:00:15.000Z</time>
      </trkpt>
      <trkpt lat="42.41473" lon="2.7573">
        <ele>1004</ele>
        <time>2023-07-13T09:00:23.000Z</time>
      </trkpt>
      <trkpt lat="42.41475" lon="2.75728">
        <ele>1004.4000244141</ele>
        <time>2023-07-13T09:00:25.000Z</time>
      </trkpt>
      <trkpt lat="42.41478" lon="2.7572">
        <ele>1004.799987793</ele>
        <time>2023-07-13T09:00:30.000Z</time>
      </trkpt>
      <trkpt lat="42.41479" lon="2.75711">
        <ele>1005.4000244141</ele>
        <time>2023-07-13T09:00:36.000Z</time>
      </trkpt>
      <trkpt lat="42.41479" lon="2.75705">
        <ele>1005.799987793</ele>
        <time>2023-07-13T09:00:40.000Z</time>
      </trkpt>
      <trkpt lat="42.41478" lon="2.75694">
        <ele>1005.799987793</ele>
        <time>2023-07-13T09:00:47.000Z</time>
      </trkpt>
      <trkpt lat="42.41478" lon="2.75682">
        <ele>1006.200012207</ele>
        <time>2023-07-13T09:00:54.000Z</time>
      </trkpt>
      <trkpt lat="42.41477" lon="2.75672">
        <ele>1006.4000244141</ele>
        <time>2023-07-13T09:01:01.000Z</time>
      </trkpt>
      <trkpt lat="42.41477" lon="2.75671">
        <ele>1006.4000244141</ele>
        <time>2023-07-13T09:01:02.000Z</time>
      </trkpt>
      <trkpt lat="42.41478" lon="2.75659">
        <ele>1007.5999755859</ele>
        <time>2023-07-13T09:01:10.000Z</time>
      </trkpt>
      <trkpt lat="42.41478" lon="2.75658">
        <ele>1007.5999755859</ele>
        <time>2023-07-13T09:01:11.000Z</time>
      </trkpt>
      <trkpt lat="42.41483" lon="2.75643">
        <ele>1008.4000244141</ele>
        <time>2023-07-13T09:01:20.000Z</time>
      </trkpt>
      <trkpt lat="42.41483" lon="2.75642">
        <ele>1008.5999755859</ele>
        <time>2023-07-13T09:01:21.000Z</time>
      </trkpt>
      <trkpt lat="42.41483" lon="2.75634">
        <ele>1009.799987793</ele>
        <time>2023-07-13T09:01:27.000Z</time>
      </trkpt>
      <trkpt lat="42.41485" lon="2.75629">
        <ele>1010.200012207</ele>
        <time>2023-07-13T09:01:30.000Z</time>
      </trkpt>
      <trkpt lat="42.41486" lon="2.75624">
        <ele>1010.799987793</ele>
        <time>2023-07-13T09:01:34.000Z</time>
      </trkpt>
      <trkpt lat="42.41485" lon="2.75618">
        <ele>1011.4000244141</ele>
        <time>2023-07-13T09:01:39.000Z</time>
      </trkpt>
      <trkpt lat="42.41485" lon="2.75613">
        <ele>1011.799987793</ele>
        <time>2023-07-13T09:01:44.000Z</time>
      </trkpt>
      <trkpt lat="42.41483" lon="2.75605">
        <ele>1012.4000244141</ele>
        <time>2023-07-13T09:01:50.000Z</time>
      </trkpt>
      <trkpt lat="42.41485" lon="2.75592">
        <ele>1012.4000244141</ele>
        <time>2023-07-13T09:01:57.000Z</time>
      </trkpt>
      <trkpt lat="42.41492" lon="2.75576">
        <ele>1012.5999755859</ele>
        <time>2023-07-13T09:02:05.000Z</time>
      </trkpt>
      <trkpt lat="42.41493" lon="2.75567">
        <ele>1013</ele>
        <time>2023-07-13T09:02:11.000Z</time>
      </trkpt>
      <trkpt lat="42.41494" lon="2.75562">
        <ele>1013.200012207</ele>
        <time>2023-07-13T09:02:14.000Z</time>
      </trkpt>
      <trkpt lat="42.41496" lon="2.7555">
        <ele>1013.5999755859</ele>
        <time>2023-07-13T09:02:23.000Z</time>
      </trkpt>
      <trkpt lat="42.41499" lon="2.75545">
        <ele>1013.799987793</ele>
        <time>2023-07-13T09:02:32.000Z</time>
      </trkpt>
      <trkpt lat="42.41498" lon="2.75544">
        <ele>1014</ele>
        <time>2023-07-13T09:02:36.000Z</time>
      </trkpt>
      <trkpt lat="42.41499" lon="2.75548">
        <ele>1014</ele>
        <time>2023-07-13T09:02:43.000Z</time>
      </trkpt>
      <trkpt lat="42.41498" lon="2.7555">
        <ele>1014</ele>
        <time>2023-07-13T09:02:50.000Z</time>
      </trkpt>
      <trkpt lat="42.41493" lon="2.75546">
        <ele>1014</ele>
        <time>2023-07-13T09:02:58.000Z</time>
      </trkpt>
      <trkpt lat="42.41493" lon="2.75547">
        <ele>1014.200012207</ele>
        <time>2023-07-13T09:03:06.000Z</time>
      </trkpt>
      <trkpt lat="42.41497" lon="2.7554">
        <ele>1014.4000244141</ele>
        <time>2023-07-13T09:03:14.000Z</time>
      </trkpt>
      <trkpt lat="42.41504" lon="2.75537">
        <ele>1014.5999755859</ele>
        <time>2023-07-13T09:03:19.000Z</time>
      </trkpt>
      <trkpt lat="42.41516" lon="2.75532">
        <ele>1013.5999755859</ele>
        <time>2023-07-13T09:03:30.000Z</time>
      </trkpt>
      <trkpt lat="42.41527" lon="2.75527">
        <ele>1013.200012207</ele>
        <time>2023-07-13T09:03:38.000Z</time>
      </trkpt>
      <trkpt lat="42.41531" lon="2.75525">
        <ele>1012.799987793</ele>
        <time>2023-07-13T09:03:43.000Z</time>
      </trkpt>
      <trkpt lat="42.41534" lon="2.75523">
        <ele>1012.799987793</ele>
        <time>2023-07-13T09:03:46.000Z</time>
      </trkpt>
      <trkpt lat="42.41546" lon="2.75506">
        <ele>1012.5999755859</ele>
        <time>2023-07-13T09:04:01.000Z</time>
      </trkpt>
      <trkpt lat="42.41553" lon="2.75498">
        <ele>1012.4000244141</ele>
        <time>2023-07-13T09:04:08.000Z</time>
      </trkpt>
      <trkpt lat="42.41571" lon="2.75489">
        <ele>1011.5999755859</ele>
        <time>2023-07-13T09:04:23.000Z</time>
      </trkpt>
      <trkpt lat="42.41579" lon="2.7548">
        <ele>1011.799987793</ele>
        <time>2023-07-13T09:04:31.000Z</time>
      </trkpt>
      <trkpt lat="42.41594" lon="2.75473">
        <ele>1013</ele>
        <time>2023-07-13T09:04:41.000Z</time>
      </trkpt>
      <trkpt lat="42.41594" lon="2.75472">
        <ele>1013</ele>
        <time>2023-07-13T09:04:42.000Z</time>
      </trkpt>
      <trkpt lat="42.41599" lon="2.75461">
        <ele>1013.799987793</ele>
        <time>2023-07-13T09:04:51.000Z</time>
      </trkpt>
      <trkpt lat="42.416" lon="2.75459">
        <ele>1014</ele>
        <time>2023-07-13T09:04:53.000Z</time>
      </trkpt>
      <trkpt lat="42.41605" lon="2.75457">
        <ele>1014.5999755859</ele>
        <time>2023-07-13T09:05:01.000Z</time>
      </trkpt>
      <trkpt lat="42.41611" lon="2.75452">
        <ele>1015</ele>
        <time>2023-07-13T09:05:07.000Z</time>
      </trkpt>
      <trkpt lat="42.41617" lon="2.75446">
        <ele>1015.799987793</ele>
        <time>2023-07-13T09:05:14.000Z</time>
      </trkpt>
      <trkpt lat="42.4162" lon="2.75444">
        <ele>1016</ele>
        <time>2023-07-13T09:05:16.000Z</time>
      </trkpt>
      <trkpt lat="42.41625" lon="2.75439">
        <ele>1017</ele>
        <time>2023-07-13T09:05:22.000Z</time>
      </trkpt>
      <trkpt lat="42.41625" lon="2.75439">
        <ele>1017.200012207</ele>
        <time>2023-07-13T09:05:23.000Z</time>
      </trkpt>
      <trkpt lat="42.41631" lon="2.75437">
        <ele>1017.799987793</ele>
        <time>2023-07-13T09:05:31.000Z</time>
      </trkpt>
      <trkpt lat="42.4164" lon="2.75434">
        <ele>1018.200012207</ele>
        <time>2023-07-13T09:05:39.000Z</time>
      </trkpt>
      <trkpt lat="42.41641" lon="2.75433">
        <ele>1018.200012207</ele>
        <time>2023-07-13T09:05:40.000Z</time>
      </trkpt>
      <trkpt lat="42.41646" lon="2.75427">
        <ele>1018.4000244141</ele>
        <time>2023-07-13T09:05:46.000Z</time>
      </trkpt>
      <trkpt lat="42.4165" lon="2.75423">
        <ele>1018.200012207</ele>
        <time>2023-07-13T09:05:50.000Z</time>
      </trkpt>
      <trkpt lat="42.41653" lon="2.75421">
        <ele>1018</ele>
        <time>2023-07-13T09:05:58.000Z</time>
      </trkpt>
      <trkpt lat="42.4166" lon="2.75418">
        <ele>1018</ele>
        <time>2023-07-13T09:06:09.000Z</time>
      </trkpt>
      <trkpt lat="42.41665" lon="2.75419">
        <ele>1018.4000244141</ele>
        <time>2023-07-13T09:06:15.000Z</time>
      </trkpt>
      <trkpt lat="42.4167" lon="2.75411">
        <ele>1018.799987793</ele>
        <time>2023-07-13T09:06:34.000Z</time>
      </trkpt>
      <trkpt lat="42.41672" lon="2.75409">
        <ele>1019</ele>
        <time>2023-07-13T09:06:42.000Z</time>
      </trkpt>
      <trkpt lat="42.41676" lon="2.75407">
        <ele>1019.200012207</ele>
        <time>2023-07-13T09:06:48.000Z</time>
      </trkpt>
      <trkpt lat="42.41678" lon="2.75406">
        <ele>1019.200012207</ele>
        <time>2023-07-13T09:06:50.000Z</time>
      </trkpt>
      <trkpt lat="42.41687" lon="2.75401">
        <ele>1020</ele>
        <time>2023-07-13T09:07:00.000Z</time>
      </trkpt>
      <trkpt lat="42.4169" lon="2.75399">
        <ele>1020.200012207</ele>
        <time>2023-07-13T09:07:03.000Z</time>
      </trkpt>
      <trkpt lat="42.41692" lon="2.75397">
        <ele>1020.4000244141</ele>
        <time>2023-07-13T09:07:06.000Z</time>
      </trkpt>
      <trkpt lat="42.417" lon="2.75388">
        <ele>1021</ele>
        <time>2023-07-13T09:07:16.000Z</time>
      </trkpt>
      <trkpt lat="42.41703" lon="2.75383">
        <ele>1021.4000244141</ele>
        <time>2023-07-13T09:07:22.000Z</time>
      </trkpt>
      <trkpt lat="42.41706" lon="2.75377">
        <ele>1022</ele>
        <time>2023-07-13T09:07:27.000Z</time>
      </trkpt>
      <trkpt lat="42.41709" lon="2.75374">
        <ele>1022</ele>
        <time>2023-07-13T09:07:32.000Z</time>
      </trkpt>
      <trkpt lat="42.41711" lon="2.75369">
        <ele>1022.200012207</ele>
        <time>2023-07-13T09:07:37.000Z</time>
      </trkpt>
      <trkpt lat="42.41725" lon="2.75353">
        <ele>1022.200012207</ele>
        <time>2023-07-13T09:07:48.000Z</time>
      </trkpt>
      <trkpt lat="42.41728" lon="2.75347">
        <ele>1022.5999755859</ele>
        <time>2023-07-13T09:07:50.000Z</time>
      </trkpt>
      <trkpt lat="42.41729" lon="2.75346">
        <ele>1022.5999755859</ele>
        <time>2023-07-13T09:07:51.000Z</time>
      </trkpt>
      <trkpt lat="42.41739" lon="2.75335">
        <ele>1023.200012207</ele>
        <time>2023-07-13T09:08:00.000Z</time>
      </trkpt>
      <trkpt lat="42.41745" lon="2.75328">
        <ele>1023.4000244141</ele>
        <time>2023-07-13T09:08:08.000Z</time>
      </trkpt>
      <trkpt lat="42.41746" lon="2.75328">
        <ele>1023.5999755859</ele>
        <time>2023-07-13T09:08:10.000Z</time>
      </trkpt>
      <trkpt lat="42.41757" lon="2.75319">
        <ele>1023.799987793</ele>
        <time>2023-07-13T09:08:22.000Z</time>
      </trkpt>
      <trkpt lat="42.41765" lon="2.75312">
        <ele>1024.8000488281</ele>
        <time>2023-07-13T09:08:31.000Z</time>
      </trkpt>
      <trkpt lat="42.41766" lon="2.75309">
        <ele>1025.1999511719</ele>
        <time>2023-07-13T09:08:34.000Z</time>
      </trkpt>
      <trkpt lat="42.41768" lon="2.75308">
        <ele>1025.8000488281</ele>
        <time>2023-07-13T09:08:36.000Z</time>
      </trkpt>
      <trkpt lat="42.41791" lon="2.75296">
        <ele>1026</ele>
        <time>2023-07-13T09:08:54.000Z</time>
      </trkpt>
      <trkpt lat="42.41803" lon="2.75286">
        <ele>1026.1999511719</ele>
        <time>2023-07-13T09:09:09.000Z</time>
      </trkpt>
      <trkpt lat="42.41807" lon="2.75281">
        <ele>1027</ele>
        <time>2023-07-13T09:09:16.000Z</time>
      </trkpt>
      <trkpt lat="42.41808" lon="2.75279">
        <ele>1027</ele>
        <time>2023-07-13T09:09:17.000Z</time>
      </trkpt>
      <trkpt lat="42.41816" lon="2.7527">
        <ele>1027.5999755859</ele>
        <time>2023-07-13T09:09:25.000Z</time>
      </trkpt>
      <trkpt lat="42.41827" lon="2.75257">
        <ele>1028.8000488281</ele>
        <time>2023-07-13T09:09:38.000Z</time>
      </trkpt>
      <trkpt lat="42.41828" lon="2.75254">
        <ele>1029</ele>
        <time>2023-07-13T09:09:41.000Z</time>
      </trkpt>
      <trkpt lat="42.41833" lon="2.75247">
        <ele>1029.8000488281</ele>
        <time>2023-07-13T09:09:49.000Z</time>
      </trkpt>
      <trkpt lat="42.41841" lon="2.7524">
        <ele>1029.5999755859</ele>
        <time>2023-07-13T09:09:56.000Z</time>
      </trkpt>
      <trkpt lat="42.41848" lon="2.7523">
        <ele>1030.1999511719</ele>
        <time>2023-07-13T09:10:08.000Z</time>
      </trkpt>
      <trkpt lat="42.41856" lon="2.7522">
        <ele>1030.1999511719</ele>
        <time>2023-07-13T09:10:16.000Z</time>
      </trkpt>
      <trkpt lat="42.41864" lon="2.7521">
        <ele>1030.5999755859</ele>
        <time>2023-07-13T09:10:25.000Z</time>
      </trkpt>
      <trkpt lat="42.41869" lon="2.75204">
        <ele>1031.1999511719</ele>
        <time>2023-07-13T09:10:31.000Z</time>
      </trkpt>
      <trkpt lat="42.41871" lon="2.75202">
        <ele>1031.4000244141</ele>
        <time>2023-07-13T09:10:33.000Z</time>
      </trkpt>
      <trkpt lat="42.41883" lon="2.75195">
        <ele>1032.1999511719</ele>
        <time>2023-07-13T09:10:46.000Z</time>
      </trkpt>
      <trkpt lat="42.41899" lon="2.75169">
        <ele>1034.4000244141</ele>
        <time>2023-07-13T09:11:14.000Z</time>
      </trkpt>
      <trkpt lat="42.419" lon="2.75165">
        <ele>1034.4000244141</ele>
        <time>2023-07-13T09:11:15.000Z</time>
      </trkpt>
      <trkpt lat="42.419" lon="2.75154">
        <ele>1034.4000244141</ele>
        <time>2023-07-13T09:11:21.000Z</time>
      </trkpt>
      <trkpt lat="42.41899" lon="2.75149">
        <ele>1034.1999511719</ele>
        <time>2023-07-13T09:11:26.000Z</time>
      </trkpt>
      <trkpt lat="42.41901" lon="2.75139">
        <ele>1034.4000244141</ele>
        <time>2023-07-13T09:11:32.000Z</time>
      </trkpt>
      <trkpt lat="42.41902" lon="2.75138">
        <ele>1034.4000244141</ele>
        <time>2023-07-13T09:11:34.000Z</time>
      </trkpt>
      <trkpt lat="42.41906" lon="2.75129">
        <ele>1034.4000244141</ele>
        <time>2023-07-13T09:11:46.000Z</time>
      </trkpt>
      <trkpt lat="42.41911" lon="2.75123">
        <ele>1034.1999511719</ele>
        <time>2023-07-13T09:11:53.000Z</time>
      </trkpt>
      <trkpt lat="42.41945" lon="2.75102">
        <ele>1035.5999755859</ele>
        <time>2023-07-13T09:12:25.000Z</time>
      </trkpt>
      <trkpt lat="42.41945" lon="2.75099">
        <ele>1035.5999755859</ele>
        <time>2023-07-13T09:12:27.000Z</time>
      </trkpt>
      <trkpt lat="42.41951" lon="2.75093">
        <ele>1036</ele>
        <time>2023-07-13T09:12:32.000Z</time>
      </trkpt>
      <trkpt lat="42.41952" lon="2.75087">
        <ele>1035.1999511719</ele>
        <time>2023-07-13T09:12:41.000Z</time>
      </trkpt>
      <trkpt lat="42.41952" lon="2.75084">
        <ele>1035.4000244141</ele>
        <time>2023-07-13T09:12:46.000Z</time>
      </trkpt>
      <trkpt lat="42.41953" lon="2.75083">
        <ele>1036</ele>
        <time>2023-07-13T09:12:49.000Z</time>
      </trkpt>
      <trkpt lat="42.41957" lon="2.75078">
        <ele>1035.4000244141</ele>
        <time>2023-07-13T09:13:24.000Z</time>
      </trkpt>
      <trkpt lat="42.41964" lon="2.7508">
        <ele>1035.5999755859</ele>
        <time>2023-07-13T09:13:31.000Z</time>
      </trkpt>
      <trkpt lat="42.41967" lon="2.75082">
        <ele>1036.4000244141</ele>
        <time>2023-07-13T09:13:36.000Z</time>
      </trkpt>
      <trkpt lat="42.41967" lon="2.75082">
        <ele>1037.1999511719</ele>
        <time>2023-07-13T09:13:41.000Z</time>
      </trkpt>
      <trkpt lat="42.41967" lon="2.75083">
        <ele>1037.5999755859</ele>
        <time>2023-07-13T09:13:44.000Z</time>
      </trkpt>
      <trkpt lat="42.41966" lon="2.75082">
        <ele>1038.8000488281</ele>
        <time>2023-07-13T09:13:49.000Z</time>
      </trkpt>
      <trkpt lat="42.41966" lon="2.75081">
        <ele>1039</ele>
        <time>2023-07-13T09:13:50.000Z</time>
      </trkpt>
      <trkpt lat="42.41967" lon="2.75075">
        <ele>1039.8000488281</ele>
        <time>2023-07-13T09:13:56.000Z</time>
      </trkpt>
      <trkpt lat="42.41968" lon="2.75073">
        <ele>1040</ele>
        <time>2023-07-13T09:13:58.000Z</time>
      </trkpt>
      <trkpt lat="42.41971" lon="2.75071">
        <ele>1041</ele>
        <time>2023-07-13T09:14:04.000Z</time>
      </trkpt>
      <trkpt lat="42.41972" lon="2.75069">
        <ele>1041.4000244141</ele>
        <time>2023-07-13T09:14:06.000Z</time>
      </trkpt>
      <trkpt lat="42.41974" lon="2.75067">
        <ele>1042</ele>
        <time>2023-07-13T09:14:09.000Z</time>
      </trkpt>
      <trkpt lat="42.41974" lon="2.75062">
        <ele>1043</ele>
        <time>2023-07-13T09:14:14.000Z</time>
      </trkpt>
      <trkpt lat="42.41977" lon="2.75064">
        <ele>1043.8000488281</ele>
        <time>2023-07-13T09:14:22.000Z</time>
      </trkpt>
      <trkpt lat="42.41977" lon="2.75066">
        <ele>1044</ele>
        <time>2023-07-13T09:14:24.000Z</time>
      </trkpt>
      <trkpt lat="42.41978" lon="2.75071">
        <ele>1045.1999511719</ele>
        <time>2023-07-13T09:14:30.000Z</time>
      </trkpt>
      <trkpt lat="42.41978" lon="2.75073">
        <ele>1045.4000244141</ele>
        <time>2023-07-13T09:14:32.000Z</time>
      </trkpt>
      <trkpt lat="42.41978" lon="2.75077">
        <ele>1046.1999511719</ele>
        <time>2023-07-13T09:14:39.000Z</time>
      </trkpt>
      <trkpt lat="42.41978" lon="2.75077">
        <ele>1046.4000244141</ele>
        <time>2023-07-13T09:14:40.000Z</time>
      </trkpt>
      <trkpt lat="42.41976" lon="2.75088">
        <ele>1047</ele>
        <time>2023-07-13T09:14:47.000Z</time>
      </trkpt>
      <trkpt lat="42.41978" lon="2.75098">
        <ele>1046.5999755859</ele>
        <time>2023-07-13T09:14:56.000Z</time>
      </trkpt>
      <trkpt lat="42.4198" lon="2.75097">
        <ele>1046.1999511719</ele>
        <time>2023-07-13T09:14:58.000Z</time>
      </trkpt>
      <trkpt lat="42.41984" lon="2.75093">
        <ele>1046.4000244141</ele>
        <time>2023-07-13T09:15:03.000Z</time>
      </trkpt>
      <trkpt lat="42.41984" lon="2.75092">
        <ele>1046.5999755859</ele>
        <time>2023-07-13T09:15:05.000Z</time>
      </trkpt>
      <trkpt lat="42.41984" lon="2.75091">
        <ele>1047.1999511719</ele>
        <time>2023-07-13T09:15:08.000Z</time>
      </trkpt>
      <trkpt lat="42.41983" lon="2.75091">
        <ele>1047.4000244141</ele>
        <time>2023-07-13T09:15:09.000Z</time>
      </trkpt>
      <trkpt lat="42.41984" lon="2.75087">
        <ele>1048.1999511719</ele>
        <time>2023-07-13T09:15:17.000Z</time>
      </trkpt>
      <trkpt lat="42.41984" lon="2.75087">
        <ele>1048.1999511719</ele>
        <time>2023-07-13T09:15:18.000Z</time>
      </trkpt>
      <trkpt lat="42.41987" lon="2.75085">
        <ele>1049</ele>
        <time>2023-07-13T09:15:26.000Z</time>
      </trkpt>
      <trkpt lat="42.41988" lon="2.75086">
        <ele>1049.5999755859</ele>
        <time>2023-07-13T09:15:29.000Z</time>
      </trkpt>
      <trkpt lat="42.4199" lon="2.75083">
        <ele>1050.4000244141</ele>
        <time>2023-07-13T09:15:34.000Z</time>
      </trkpt>
      <trkpt lat="42.41993" lon="2.75081">
        <ele>1050.5999755859</ele>
        <time>2023-07-13T09:15:41.000Z</time>
      </trkpt>
      <trkpt lat="42.41995" lon="2.75075">
        <ele>1051.5999755859</ele>
        <time>2023-07-13T09:15:49.000Z</time>
      </trkpt>
      <trkpt lat="42.41996" lon="2.75074">
        <ele>1051.8000488281</ele>
        <time>2023-07-13T09:15:50.000Z</time>
      </trkpt>
      <trkpt lat="42.42001" lon="2.75069">
        <ele>1052.8000488281</ele>
        <time>2023-07-13T09:15:57.000Z</time>
      </trkpt>
      <trkpt lat="42.42005" lon="2.75064">
        <ele>1053.8000488281</ele>
        <time>2023-07-13T09:16:06.000Z</time>
      </trkpt>
      <trkpt lat="42.42008" lon="2.7506">
        <ele>1054.5999755859</ele>
        <time>2023-07-13T09:16:14.000Z</time>
      </trkpt>
      <trkpt lat="42.42009" lon="2.75059">
        <ele>1054.8000488281</ele>
        <time>2023-07-13T09:16:15.000Z</time>
      </trkpt>
      <trkpt lat="42.42012" lon="2.75055">
        <ele>1055.5999755859</ele>
        <time>2023-07-13T09:16:23.000Z</time>
      </trkpt>
      <trkpt lat="42.42013" lon="2.75054">
        <ele>1056</ele>
        <time>2023-07-13T09:16:25.000Z</time>
      </trkpt>
      <trkpt lat="42.42016" lon="2.75049">
        <ele>1057</ele>
        <time>2023-07-13T09:16:31.000Z</time>
      </trkpt>
      <trkpt lat="42.42017" lon="2.75049">
        <ele>1057.4000244141</ele>
        <time>2023-07-13T09:16:33.000Z</time>
      </trkpt>
      <trkpt lat="42.42021" lon="2.75047">
        <ele>1058.1999511719</ele>
        <time>2023-07-13T09:16:39.000Z</time>
      </trkpt>
      <trkpt lat="42.42022" lon="2.75046">
        <ele>1058.4000244141</ele>
        <time>2023-07-13T09:16:40.000Z</time>
      </trkpt>
      <trkpt lat="42.42023" lon="2.75045">
        <ele>1059.4000244141</ele>
        <time>2023-07-13T09:16:44.000Z</time>
      </trkpt>
      <trkpt lat="42.42026" lon="2.75044">
        <ele>1059.8000488281</ele>
        <time>2023-07-13T09:16:48.000Z</time>
      </trkpt>
      <trkpt lat="42.42029" lon="2.75043">
        <ele>1060.4000244141</ele>
        <time>2023-07-13T09:16:52.000Z</time>
      </trkpt>
      <trkpt lat="42.42032" lon="2.7504">
        <ele>1061.4000244141</ele>
        <time>2023-07-13T09:16:57.000Z</time>
      </trkpt>
      <trkpt lat="42.42038" lon="2.75032">
        <ele>1062.5999755859</ele>
        <time>2023-07-13T09:17:04.000Z</time>
      </trkpt>
      <trkpt lat="42.42041" lon="2.75034">
        <ele>1063.5999755859</ele>
        <time>2023-07-13T09:17:11.000Z</time>
      </trkpt>
      <trkpt lat="42.42041" lon="2.75034">
        <ele>1063.5999755859</ele>
        <time>2023-07-13T09:17:12.000Z</time>
      </trkpt>
      <trkpt lat="42.42043" lon="2.75029">
        <ele>1064.4000244141</ele>
        <time>2023-07-13T09:17:20.000Z</time>
      </trkpt>
      <trkpt lat="42.42045" lon="2.75028">
        <ele>1064.5999755859</ele>
        <time>2023-07-13T09:17:23.000Z</time>
      </trkpt>
      <trkpt lat="42.42047" lon="2.75026">
        <ele>1065.4000244141</ele>
        <time>2023-07-13T09:17:29.000Z</time>
      </trkpt>
      <trkpt lat="42.42048" lon="2.75024">
        <ele>1065.8000488281</ele>
        <time>2023-07-13T09:17:31.000Z</time>
      </trkpt>
      <trkpt lat="42.42051" lon="2.7502">
        <ele>1066.5999755859</ele>
        <time>2023-07-13T09:17:37.000Z</time>
      </trkpt>
      <trkpt lat="42.42052" lon="2.75018">
        <ele>1066.8000488281</ele>
        <time>2023-07-13T09:17:40.000Z</time>
      </trkpt>
      <trkpt lat="42.42055" lon="2.75016">
        <ele>1067.8000488281</ele>
        <time>2023-07-13T09:17:46.000Z</time>
      </trkpt>
      <trkpt lat="42.42056" lon="2.75016">
        <ele>1068</ele>
        <time>2023-07-13T09:17:47.000Z</time>
      </trkpt>
      <trkpt lat="42.42062" lon="2.75013">
        <ele>1068.8000488281</ele>
        <time>2023-07-13T09:17:53.000Z</time>
      </trkpt>
      <trkpt lat="42.42063" lon="2.75013">
        <ele>1069</ele>
        <time>2023-07-13T09:17:54.000Z</time>
      </trkpt>
      <trkpt lat="42.42069" lon="2.75008">
        <ele>1069</ele>
        <time>2023-07-13T09:18:03.000Z</time>
      </trkpt>
      <trkpt lat="42.42077" lon="2.75007">
        <ele>1069.4000244141</ele>
        <time>2023-07-13T09:18:10.000Z</time>
      </trkpt>
      <trkpt lat="42.42081" lon="2.75014">
        <ele>1069.8000488281</ele>
        <time>2023-07-13T09:18:17.000Z</time>
      </trkpt>
      <trkpt lat="42.42081" lon="2.75018">
        <ele>1069.8000488281</ele>
        <time>2023-07-13T09:18:19.000Z</time>
      </trkpt>
      <trkpt lat="42.42077" lon="2.75028">
        <ele>1068.5999755859</ele>
        <time>2023-07-13T09:18:28.000Z</time>
      </trkpt>
      <trkpt lat="42.42077" lon="2.75032">
        <ele>1067.8000488281</ele>
        <time>2023-07-13T09:18:32.000Z</time>
      </trkpt>
      <trkpt lat="42.42077" lon="2.75038">
        <ele>1067.4000244141</ele>
        <time>2023-07-13T09:18:37.000Z</time>
      </trkpt>
      <trkpt lat="42.42078" lon="2.75041">
        <ele>1067.5999755859</ele>
        <time>2023-07-13T09:18:47.000Z</time>
      </trkpt>
      <trkpt lat="42.42078" lon="2.7504">
        <ele>1067.8000488281</ele>
        <time>2023-07-13T09:18:54.000Z</time>
      </trkpt>
      <trkpt lat="42.42076" lon="2.75043">
        <ele>1067.8000488281</ele>
        <time>2023-07-13T09:19:01.000Z</time>
      </trkpt>
      <trkpt lat="42.42074" lon="2.75048">
        <ele>1067.5999755859</ele>
        <time>2023-07-13T09:19:06.000Z</time>
      </trkpt>
      <trkpt lat="42.42075" lon="2.75052">
        <ele>1067.8000488281</ele>
        <time>2023-07-13T09:19:14.000Z</time>
      </trkpt>
      <trkpt lat="42.42075" lon="2.75052">
        <ele>1067.5999755859</ele>
        <time>2023-07-13T09:19:22.000Z</time>
      </trkpt>
      <trkpt lat="42.42074" lon="2.75046">
        <ele>1067.5999755859</ele>
        <time>2023-07-13T09:19:30.000Z</time>
      </trkpt>
      <trkpt lat="42.42075" lon="2.75041">
        <ele>1067.5999755859</ele>
        <time>2023-07-13T09:19:38.000Z</time>
      </trkpt>
      <trkpt lat="42.42074" lon="2.75042">
        <ele>1067.5999755859</ele>
        <time>2023-07-13T09:19:45.000Z</time>
      </trkpt>
      <trkpt lat="42.42072" lon="2.7504">
        <ele>1068</ele>
        <time>2023-07-13T09:19:55.000Z</time>
      </trkpt>
      <trkpt lat="42.42074" lon="2.75042">
        <ele>1068</ele>
        <time>2023-07-13T09:20:01.000Z</time>
      </trkpt>
      <trkpt lat="42.42074" lon="2.75044">
        <ele>1067.8000488281</ele>
        <time>2023-07-13T09:20:10.000Z</time>
      </trkpt>
      <trkpt lat="42.42076" lon="2.75044">
        <ele>1068</ele>
        <time>2023-07-13T09:20:16.000Z</time>
      </trkpt>
      <trkpt lat="42.42078" lon="2.75045">
        <ele>1068.1999511719</ele>
        <time>2023-07-13T09:20:26.000Z</time>
      </trkpt>
      <trkpt lat="42.42076" lon="2.75042">
        <ele>1068.1999511719</ele>
        <time>2023-07-13T09:20:35.000Z</time>
      </trkpt>
      <trkpt lat="42.42074" lon="2.75042">
        <ele>1068.1999511719</ele>
        <time>2023-07-13T09:20:42.000Z</time>
      </trkpt>
      <trkpt lat="42.42078" lon="2.75045">
        <ele>1068.4000244141</ele>
        <time>2023-07-13T09:20:49.000Z</time>
      </trkpt>
      <trkpt lat="42.42075" lon="2.75048">
        <ele>1068.4000244141</ele>
        <time>2023-07-13T09:20:59.000Z</time>
      </trkpt>
      <trkpt lat="42.42076" lon="2.75045">
        <ele>1068.4000244141</ele>
        <time>2023-07-13T09:21:09.000Z</time>
      </trkpt>
      <trkpt lat="42.42078" lon="2.75045">
        <ele>1068.4000244141</ele>
        <time>2023-07-13T09:21:16.000Z</time>
      </trkpt>
      <trkpt lat="42.42077" lon="2.75043">
        <ele>1068.5999755859</ele>
        <time>2023-07-13T09:21:26.000Z</time>
      </trkpt>
      <trkpt lat="42.42078" lon="2.75038">
        <ele>1068.5999755859</ele>
        <time>2023-07-13T09:21:32.000Z</time>
      </trkpt>
      <trkpt lat="42.42081" lon="2.7504">
        <ele>1068.5999755859</ele>
        <time>2023-07-13T09:21:43.000Z</time>
      </trkpt>
      <trkpt lat="42.42081" lon="2.75033">
        <ele>1068.5999755859</ele>
        <time>2023-07-13T09:21:51.000Z</time>
      </trkpt>
      <trkpt lat="42.42083" lon="2.75035">
        <ele>1068.5999755859</ele>
        <time>2023-07-13T09:22:00.000Z</time>
      </trkpt>
      <trkpt lat="42.42081" lon="2.75041">
        <ele>1068.8000488281</ele>
        <time>2023-07-13T09:22:06.000Z</time>
      </trkpt>
      <trkpt lat="42.42081" lon="2.75052">
        <ele>1068.8000488281</ele>
        <time>2023-07-13T09:22:14.000Z</time>
      </trkpt>
      <trkpt lat="42.4208" lon="2.75052">
        <ele>1068.8000488281</ele>
        <time>2023-07-13T09:22:17.000Z</time>
      </trkpt>
      <trkpt lat="42.42076" lon="2.75044">
        <ele>1068.8000488281</ele>
        <time>2023-07-13T09:22:22.000Z</time>
      </trkpt>
      <trkpt lat="42.42074" lon="2.75042">
        <ele>1068.8000488281</ele>
        <time>2023-07-13T09:22:29.000Z</time>
      </trkpt>
      <trkpt lat="42.42073" lon="2.7504">
        <ele>1068.8000488281</ele>
        <time>2023-07-13T09:22:36.000Z</time>
      </trkpt>
      <trkpt lat="42.42072" lon="2.75045">
        <ele>1068.8000488281</ele>
        <time>2023-07-13T09:22:45.000Z</time>
      </trkpt>
      <trkpt lat="42.42075" lon="2.75043">
        <ele>1068.5999755859</ele>
        <time>2023-07-13T09:22:54.000Z</time>
      </trkpt>
      <trkpt lat="42.42075" lon="2.75043">
        <ele>1068.5999755859</ele>
        <time>2023-07-13T09:23:05.000Z</time>
      </trkpt>
      <trkpt lat="42.42076" lon="2.75046">
        <ele>1068.8000488281</ele>
        <time>2023-07-13T09:23:11.000Z</time>
      </trkpt>
      <trkpt lat="42.42073" lon="2.75044">
        <ele>1068.8000488281</ele>
        <time>2023-07-13T09:23:19.000Z</time>
      </trkpt>
      <trkpt lat="42.42075" lon="2.75047">
        <ele>1068.5999755859</ele>
        <time>2023-07-13T09:23:28.000Z</time>
      </trkpt>
      <trkpt lat="42.42115" lon="2.74899">
        <ele>1089.5999755859</ele>
        <time>2023-07-13T09:59:29.000Z</time>
      </trkpt>
      <trkpt lat="42.42123" lon="2.74884">
        <ele>1089.4000244141</ele>
        <time>2023-07-13T09:59:35.000Z</time>
      </trkpt>
      <trkpt lat="42.42126" lon="2.74871">
        <ele>1089.4000244141</ele>
        <time>2023-07-13T09:59:43.000Z</time>
      </trkpt>
      <trkpt lat="42.42129" lon="2.7486">
        <ele>1089.8000488281</ele>
        <time>2023-07-13T09:59:49.000Z</time>
      </trkpt>
      <trkpt lat="42.42129" lon="2.74859">
        <ele>1090</ele>
        <time>2023-07-13T09:59:50.000Z</time>
      </trkpt>
      <trkpt lat="42.42134" lon="2.7485">
        <ele>1090.4000244141</ele>
        <time>2023-07-13T09:59:57.000Z</time>
      </trkpt>
      <trkpt lat="42.42144" lon="2.74838">
        <ele>1091</ele>
        <time>2023-07-13T10:00:06.000Z</time>
      </trkpt>
      <trkpt lat="42.4215" lon="2.74823">
        <ele>1090.8000488281</ele>
        <time>2023-07-13T10:00:15.000Z</time>
      </trkpt>
      <trkpt lat="42.42155" lon="2.74814">
        <ele>1091</ele>
        <time>2023-07-13T10:00:21.000Z</time>
      </trkpt>
      <trkpt lat="42.42157" lon="2.74811">
        <ele>1091</ele>
        <time>2023-07-13T10:00:24.000Z</time>
      </trkpt>
      <trkpt lat="42.42162" lon="2.748">
        <ele>1090.5999755859</ele>
        <time>2023-07-13T10:00:35.000Z</time>
      </trkpt>
      <trkpt lat="42.42167" lon="2.74788">
        <ele>1090.8000488281</ele>
        <time>2023-07-13T10:00:43.000Z</time>
      </trkpt>
      <trkpt lat="42.42173" lon="2.74776">
        <ele>1090.5999755859</ele>
        <time>2023-07-13T10:00:51.000Z</time>
      </trkpt>
      <trkpt lat="42.4218" lon="2.74762">
        <ele>1090.5999755859</ele>
        <time>2023-07-13T10:00:59.000Z</time>
      </trkpt>
      <trkpt lat="42.42185" lon="2.74755">
        <ele>1091.4000244141</ele>
        <time>2023-07-13T10:01:08.000Z</time>
      </trkpt>
      <trkpt lat="42.42185" lon="2.74755">
        <ele>1091.8000488281</ele>
        <time>2023-07-13T10:01:13.000Z</time>
      </trkpt>
      <trkpt lat="42.42184" lon="2.74756">
        <ele>1092</ele>
        <time>2023-07-13T10:01:17.000Z</time>
      </trkpt>
      <trkpt lat="42.42184" lon="2.74756">
        <ele>1092.1999511719</ele>
        <time>2023-07-13T10:01:19.000Z</time>
      </trkpt>
      <trkpt lat="42.42194" lon="2.7475">
        <ele>1092</ele>
        <time>2023-07-13T10:01:36.000Z</time>
      </trkpt>
      <trkpt lat="42.42196" lon="2.7475">
        <ele>1093.1999511719</ele>
        <time>2023-07-13T10:01:43.000Z</time>
      </trkpt>
      <trkpt lat="42.42196" lon="2.74749">
        <ele>1093.5999755859</ele>
        <time>2023-07-13T10:01:45.000Z</time>
      </trkpt>
      <trkpt lat="42.42196" lon="2.74749">
        <ele>1094.1999511719</ele>
        <time>2023-07-13T10:01:48.000Z</time>
      </trkpt>
      <trkpt lat="42.42198" lon="2.74746">
        <ele>1095.4000244141</ele>
        <time>2023-07-13T10:01:53.000Z</time>
      </trkpt>
      <trkpt lat="42.42198" lon="2.74746">
        <ele>1095.8000488281</ele>
        <time>2023-07-13T10:01:55.000Z</time>
      </trkpt>
      <trkpt lat="42.42198" lon="2.74744">
        <ele>1096.5999755859</ele>
        <time>2023-07-13T10:01:59.000Z</time>
      </trkpt>
      <trkpt lat="42.42198" lon="2.74739">
        <ele>1097.8000488281</ele>
        <time>2023-07-13T10:02:04.000Z</time>
      </trkpt>
      <trkpt lat="42.42199" lon="2.74737">
        <ele>1098</ele>
        <time>2023-07-13T10:02:05.000Z</time>
      </trkpt>
      <trkpt lat="42.42199" lon="2.74735">
        <ele>1098.8000488281</ele>
        <time>2023-07-13T10:02:09.000Z</time>
      </trkpt>
      <trkpt lat="42.42201" lon="2.74733">
        <ele>1099.8000488281</ele>
        <time>2023-07-13T10:02:13.000Z</time>
      </trkpt>
      <trkpt lat="42.42203" lon="2.7473">
        <ele>1101</ele>
        <time>2023-07-13T10:02:19.000Z</time>
      </trkpt>
      <trkpt lat="42.42204" lon="2.74729">
        <ele>1101.1999511719</ele>
        <time>2023-07-13T10:02:20.000Z</time>
      </trkpt>
      <trkpt lat="42.42206" lon="2.74726">
        <ele>1102</ele>
        <time>2023-07-13T10:02:24.000Z</time>
      </trkpt>
      <trkpt lat="42.42208" lon="2.74725">
        <ele>1102.8000488281</ele>
        <time>2023-07-13T10:02:28.000Z</time>
      </trkpt>
      <trkpt lat="42.42208" lon="2.74725">
        <ele>1103</ele>
        <time>2023-07-13T10:02:29.000Z</time>
      </trkpt>
      <trkpt lat="42.42208" lon="2.74724">
        <ele>1104.1999511719</ele>
        <time>2023-07-13T10:02:34.000Z</time>
      </trkpt>
      <trkpt lat="42.42208" lon="2.74723">
        <ele>1104.5999755859</ele>
        <time>2023-07-13T10:02:37.000Z</time>
      </trkpt>
      <trkpt lat="42.42207" lon="2.74722">
        <ele>1105.1999511719</ele>
        <time>2023-07-13T10:02:40.000Z</time>
      </trkpt>
      <trkpt lat="42.42206" lon="2.74722">
        <ele>1105.8000488281</ele>
        <time>2023-07-13T10:02:45.000Z</time>
      </trkpt>
      <trkpt lat="42.42207" lon="2.74722">
        <ele>1106.1999511719</ele>
        <time>2023-07-13T10:02:47.000Z</time>
      </trkpt>
      <trkpt lat="42.42208" lon="2.7472">
        <ele>1107.4000244141</ele>
        <time>2023-07-13T10:02:53.000Z</time>
      </trkpt>
      <trkpt lat="42.42208" lon="2.74718">
        <ele>1107.8000488281</ele>
        <time>2023-07-13T10:02:55.000Z</time>
      </trkpt>
      <trkpt lat="42.42209" lon="2.74715">
        <ele>1108.4000244141</ele>
        <time>2023-07-13T10:03:00.000Z</time>
      </trkpt>
      <trkpt lat="42.42211" lon="2.74711">
        <ele>1109.4000244141</ele>
        <time>2023-07-13T10:03:05.000Z</time>
      </trkpt>
      <trkpt lat="42.4221" lon="2.7471">
        <ele>1109.5999755859</ele>
        <time>2023-07-13T10:03:06.000Z</time>
      </trkpt>
      <trkpt lat="42.42209" lon="2.74707">
        <ele>1110.5999755859</ele>
        <time>2023-07-13T10:03:11.000Z</time>
      </trkpt>
      <trkpt lat="42.4221" lon="2.74704">
        <ele>1111.1999511719</ele>
        <time>2023-07-13T10:03:15.000Z</time>
      </trkpt>
      <trkpt lat="42.42209" lon="2.74703">
        <ele>1111.5999755859</ele>
        <time>2023-07-13T10:03:17.000Z</time>
      </trkpt>
      <trkpt lat="42.4221" lon="2.747">
        <ele>1112.5999755859</ele>
        <time>2023-07-13T10:03:22.000Z</time>
      </trkpt>
      <trkpt lat="42.4221" lon="2.74699">
        <ele>1113</ele>
        <time>2023-07-13T10:03:23.000Z</time>
      </trkpt>
      <trkpt lat="42.42211" lon="2.74694">
        <ele>1113.8000488281</ele>
        <time>2023-07-13T10:03:28.000Z</time>
      </trkpt>
      <trkpt lat="42.42211" lon="2.74691">
        <ele>1114.1999511719</ele>
        <time>2023-07-13T10:03:31.000Z</time>
      </trkpt>
      <trkpt lat="42.42211" lon="2.74686">
        <ele>1115</ele>
        <time>2023-07-13T10:03:35.000Z</time>
      </trkpt>
      <trkpt lat="42.42211" lon="2.74684">
        <ele>1115.4000244141</ele>
        <time>2023-07-13T10:03:37.000Z</time>
      </trkpt>
      <trkpt lat="42.4221" lon="2.7468">
        <ele>1116.1999511719</ele>
        <time>2023-07-13T10:03:42.000Z</time>
      </trkpt>
      <trkpt lat="42.4221" lon="2.74678">
        <ele>1116.8000488281</ele>
        <time>2023-07-13T10:03:46.000Z</time>
      </trkpt>
      <trkpt lat="42.42211" lon="2.74676">
        <ele>1117.1999511719</ele>
        <time>2023-07-13T10:03:49.000Z</time>
      </trkpt>
      <trkpt lat="42.42212" lon="2.74675">
        <ele>1117.8000488281</ele>
        <time>2023-07-13T10:03:52.000Z</time>
      </trkpt>
      <trkpt lat="42.42214" lon="2.7467">
        <ele>1118.1999511719</ele>
        <time>2023-07-13T10:03:56.000Z</time>
      </trkpt>
      <trkpt lat="42.42215" lon="2.74667">
        <ele>1118.8000488281</ele>
        <time>2023-07-13T10:03:59.000Z</time>
      </trkpt>
      <trkpt lat="42.42215" lon="2.74665">
        <ele>1119.4000244141</ele>
        <time>2023-07-13T10:04:02.000Z</time>
      </trkpt>
      <trkpt lat="42.42216" lon="2.74663">
        <ele>1119.8000488281</ele>
        <time>2023-07-13T10:04:05.000Z</time>
      </trkpt>
      <trkpt lat="42.42218" lon="2.74653">
        <ele>1120.5999755859</ele>
        <time>2023-07-13T10:04:12.000Z</time>
      </trkpt>
      <trkpt lat="42.4222" lon="2.74648">
        <ele>1121.4000244141</ele>
        <time>2023-07-13T10:04:17.000Z</time>
      </trkpt>
      <trkpt lat="42.42222" lon="2.74645">
        <ele>1121.5999755859</ele>
        <time>2023-07-13T10:04:19.000Z</time>
      </trkpt>
      <trkpt lat="42.42224" lon="2.7464">
        <ele>1122.1999511719</ele>
        <time>2023-07-13T10:04:23.000Z</time>
      </trkpt>
      <trkpt lat="42.42225" lon="2.74638">
        <ele>1122.8000488281</ele>
        <time>2023-07-13T10:04:26.000Z</time>
      </trkpt>
      <trkpt lat="42.42226" lon="2.74637">
        <ele>1123.4000244141</ele>
        <time>2023-07-13T10:04:33.000Z</time>
      </trkpt>
      <trkpt lat="42.42225" lon="2.74634">
        <ele>1123.8000488281</ele>
        <time>2023-07-13T10:04:36.000Z</time>
      </trkpt>
      <trkpt lat="42.42225" lon="2.74628">
        <ele>1125</ele>
        <time>2023-07-13T10:04:42.000Z</time>
      </trkpt>
      <trkpt lat="42.42225" lon="2.74625">
        <ele>1126</ele>
        <time>2023-07-13T10:04:48.000Z</time>
      </trkpt>
      <trkpt lat="42.42226" lon="2.74623">
        <ele>1126.8000488281</ele>
        <time>2023-07-13T10:04:51.000Z</time>
      </trkpt>
      <trkpt lat="42.42226" lon="2.74622">
        <ele>1127</ele>
        <time>2023-07-13T10:04:52.000Z</time>
      </trkpt>
      <trkpt lat="42.42232" lon="2.74616">
        <ele>1128.1999511719</ele>
        <time>2023-07-13T10:05:00.000Z</time>
      </trkpt>
      <trkpt lat="42.42235" lon="2.7461">
        <ele>1129.4000244141</ele>
        <time>2023-07-13T10:05:08.000Z</time>
      </trkpt>
      <trkpt lat="42.42237" lon="2.74606">
        <ele>1130.5999755859</ele>
        <time>2023-07-13T10:05:14.000Z</time>
      </trkpt>
      <trkpt lat="42.42238" lon="2.74603">
        <ele>1131.5999755859</ele>
        <time>2023-07-13T10:05:20.000Z</time>
      </trkpt>
      <trkpt lat="42.42238" lon="2.74602">
        <ele>1131.8000488281</ele>
        <time>2023-07-13T10:05:22.000Z</time>
      </trkpt>
      <trkpt lat="42.4224" lon="2.74598">
        <ele>1132.1999511719</ele>
        <time>2023-07-13T10:05:30.000Z</time>
      </trkpt>
      <trkpt lat="42.42241" lon="2.74595">
        <ele>1132.5999755859</ele>
        <time>2023-07-13T10:05:35.000Z</time>
      </trkpt>
      <trkpt lat="42.42242" lon="2.74593">
        <ele>1132.8000488281</ele>
        <time>2023-07-13T10:05:37.000Z</time>
      </trkpt>
      <trkpt lat="42.42244" lon="2.74586">
        <ele>1133.8000488281</ele>
        <time>2023-07-13T10:05:43.000Z</time>
      </trkpt>
      <trkpt lat="42.42245" lon="2.74583">
        <ele>1134.4000244141</ele>
        <time>2023-07-13T10:05:47.000Z</time>
      </trkpt>
      <trkpt lat="42.42246" lon="2.74582">
        <ele>1134.8000488281</ele>
        <time>2023-07-13T10:05:51.000Z</time>
      </trkpt>
      <trkpt lat="42.42248" lon="2.7458">
        <ele>1135.5999755859</ele>
        <time>2023-07-13T10:05:55.000Z</time>
      </trkpt>
      <trkpt lat="42.42248" lon="2.74579">
        <ele>1136</ele>
        <time>2023-07-13T10:05:56.000Z</time>
      </trkpt>
      <trkpt lat="42.4225" lon="2.74572">
        <ele>1136.8000488281</ele>
        <time>2023-07-13T10:06:04.000Z</time>
      </trkpt>
      <trkpt lat="42.42251" lon="2.74569">
        <ele>1137</ele>
        <time>2023-07-13T10:06:07.000Z</time>
      </trkpt>
      <trkpt lat="42.42251" lon="2.74567">
        <ele>1137.4000244141</ele>
        <time>2023-07-13T10:06:11.000Z</time>
      </trkpt>
      <trkpt lat="42.42253" lon="2.74564">
        <ele>1138</ele>
        <time>2023-07-13T10:06:15.000Z</time>
      </trkpt>
      <trkpt lat="42.42254" lon="2.7456">
        <ele>1138.8000488281</ele>
        <time>2023-07-13T10:06:20.000Z</time>
      </trkpt>
      <trkpt lat="42.42254" lon="2.74559">
        <ele>1139.1999511719</ele>
        <time>2023-07-13T10:06:23.000Z</time>
      </trkpt>
      <trkpt lat="42.42256" lon="2.74554">
        <ele>1140.4000244141</ele>
        <time>2023-07-13T10:06:30.000Z</time>
      </trkpt>
      <trkpt lat="42.42255" lon="2.7455">
        <ele>1140.4000244141</ele>
        <time>2023-07-13T10:06:38.000Z</time>
      </trkpt>
      <trkpt lat="42.42255" lon="2.7455">
        <ele>1140.5999755859</ele>
        <time>2023-07-13T10:06:47.000Z</time>
      </trkpt>
      <trkpt lat="42.42256" lon="2.74549">
        <ele>1141</ele>
        <time>2023-07-13T10:06:56.000Z</time>
      </trkpt>
      <trkpt lat="42.42258" lon="2.74546">
        <ele>1141.5999755859</ele>
        <time>2023-07-13T10:07:01.000Z</time>
      </trkpt>
      <trkpt lat="42.42259" lon="2.74543">
        <ele>1142.8000488281</ele>
        <time>2023-07-13T10:07:07.000Z</time>
      </trkpt>
      <trkpt lat="42.42259" lon="2.74543">
        <ele>1143</ele>
        <time>2023-07-13T10:07:08.000Z</time>
      </trkpt>
      <trkpt lat="42.42262" lon="2.74538">
        <ele>1144</ele>
        <time>2023-07-13T10:07:13.000Z</time>
      </trkpt>
      <trkpt lat="42.42263" lon="2.74534">
        <ele>1144.1999511719</ele>
        <time>2023-07-13T10:07:15.000Z</time>
      </trkpt>
      <trkpt lat="42.42264" lon="2.74529">
        <ele>1145</ele>
        <time>2023-07-13T10:07:19.000Z</time>
      </trkpt>
      <trkpt lat="42.42264" lon="2.74527">
        <ele>1145.1999511719</ele>
        <time>2023-07-13T10:07:20.000Z</time>
      </trkpt>
      <trkpt lat="42.42265" lon="2.74522">
        <ele>1146</ele>
        <time>2023-07-13T10:07:26.000Z</time>
      </trkpt>
      <trkpt lat="42.42266" lon="2.74519">
        <ele>1146.5999755859</ele>
        <time>2023-07-13T10:07:29.000Z</time>
      </trkpt>
      <trkpt lat="42.42267" lon="2.74517">
        <ele>1147.1999511719</ele>
        <time>2023-07-13T10:07:32.000Z</time>
      </trkpt>
      <trkpt lat="42.4227" lon="2.74516">
        <ele>1148.4000244141</ele>
        <time>2023-07-13T10:07:38.000Z</time>
      </trkpt>
      <trkpt lat="42.42272" lon="2.74515">
        <ele>1149.5999755859</ele>
        <time>2023-07-13T10:07:44.000Z</time>
      </trkpt>
      <trkpt lat="42.42275" lon="2.74513">
        <ele>1150</ele>
        <time>2023-07-13T10:07:47.000Z</time>
      </trkpt>
      <trkpt lat="42.42277" lon="2.7451">
        <ele>1150.5999755859</ele>
        <time>2023-07-13T10:07:51.000Z</time>
      </trkpt>
      <trkpt lat="42.42277" lon="2.74508">
        <ele>1151.1999511719</ele>
        <time>2023-07-13T10:07:55.000Z</time>
      </trkpt>
      <trkpt lat="42.42279" lon="2.74506">
        <ele>1151.8000488281</ele>
        <time>2023-07-13T10:07:58.000Z</time>
      </trkpt>
      <trkpt lat="42.4228" lon="2.74503">
        <ele>1152.8000488281</ele>
        <time>2023-07-13T10:08:03.000Z</time>
      </trkpt>
      <trkpt lat="42.4228" lon="2.74502">
        <ele>1153</ele>
        <time>2023-07-13T10:08:04.000Z</time>
      </trkpt>
      <trkpt lat="42.42283" lon="2.74499">
        <ele>1153.8000488281</ele>
        <time>2023-07-13T10:08:08.000Z</time>
      </trkpt>
      <trkpt lat="42.42284" lon="2.74497">
        <ele>1154.8000488281</ele>
        <time>2023-07-13T10:08:13.000Z</time>
      </trkpt>
      <trkpt lat="42.42283" lon="2.74497">
        <ele>1155</ele>
        <time>2023-07-13T10:08:14.000Z</time>
      </trkpt>
      <trkpt lat="42.42283" lon="2.74493">
        <ele>1156</ele>
        <time>2023-07-13T10:08:19.000Z</time>
      </trkpt>
      <trkpt lat="42.42284" lon="2.74492">
        <ele>1156.4000244141</ele>
        <time>2023-07-13T10:08:21.000Z</time>
      </trkpt>
      <trkpt lat="42.42286" lon="2.74489">
        <ele>1157.1999511719</ele>
        <time>2023-07-13T10:08:26.000Z</time>
      </trkpt>
      <trkpt lat="42.42287" lon="2.74485">
        <ele>1157.5999755859</ele>
        <time>2023-07-13T10:08:30.000Z</time>
      </trkpt>
      <trkpt lat="42.42289" lon="2.7448">
        <ele>1158.1999511719</ele>
        <time>2023-07-13T10:08:35.000Z</time>
      </trkpt>
      <trkpt lat="42.4229" lon="2.74478">
        <ele>1158.4000244141</ele>
        <time>2023-07-13T10:08:37.000Z</time>
      </trkpt>
      <trkpt lat="42.42292" lon="2.74474">
        <ele>1159.1999511719</ele>
        <time>2023-07-13T10:08:42.000Z</time>
      </trkpt>
      <trkpt lat="42.42293" lon="2.74471">
        <ele>1159.5999755859</ele>
        <time>2023-07-13T10:08:46.000Z</time>
      </trkpt>
      <trkpt lat="42.42293" lon="2.74468">
        <ele>1160.4000244141</ele>
        <time>2023-07-13T10:08:50.000Z</time>
      </trkpt>
      <trkpt lat="42.42294" lon="2.74466">
        <ele>1160.8000488281</ele>
        <time>2023-07-13T10:08:53.000Z</time>
      </trkpt>
      <trkpt lat="42.42295" lon="2.74464">
        <ele>1161.4000244141</ele>
        <time>2023-07-13T10:08:56.000Z</time>
      </trkpt>
      <trkpt lat="42.42298" lon="2.74461">
        <ele>1162</ele>
        <time>2023-07-13T10:09:00.000Z</time>
      </trkpt>
      <trkpt lat="42.42298" lon="2.7446">
        <ele>1162.5999755859</ele>
        <time>2023-07-13T10:09:03.000Z</time>
      </trkpt>
      <trkpt lat="42.42299" lon="2.74457">
        <ele>1163.5999755859</ele>
        <time>2023-07-13T10:09:07.000Z</time>
      </trkpt>
      <trkpt lat="42.42298" lon="2.74456">
        <ele>1164</ele>
        <time>2023-07-13T10:09:09.000Z</time>
      </trkpt>
      <trkpt lat="42.42299" lon="2.74452">
        <ele>1164.4000244141</ele>
        <time>2023-07-13T10:09:17.000Z</time>
      </trkpt>
      <trkpt lat="42.42299" lon="2.74453">
        <ele>1164.8000488281</ele>
        <time>2023-07-13T10:09:21.000Z</time>
      </trkpt>
      <trkpt lat="42.42299" lon="2.74452">
        <ele>1165.4000244141</ele>
        <time>2023-07-13T10:09:25.000Z</time>
      </trkpt>
      <trkpt lat="42.42299" lon="2.74452">
        <ele>1165.8000488281</ele>
        <time>2023-07-13T10:09:26.000Z</time>
      </trkpt>
      <trkpt lat="42.42298" lon="2.74449">
        <ele>1166.8000488281</ele>
        <time>2023-07-13T10:09:31.000Z</time>
      </trkpt>
      <trkpt lat="42.42298" lon="2.74448">
        <ele>1167</ele>
        <time>2023-07-13T10:09:33.000Z</time>
      </trkpt>
      <trkpt lat="42.42299" lon="2.74445">
        <ele>1167.8000488281</ele>
        <time>2023-07-13T10:09:37.000Z</time>
      </trkpt>
      <trkpt lat="42.42299" lon="2.74436">
        <ele>1168.8000488281</ele>
        <time>2023-07-13T10:09:42.000Z</time>
      </trkpt>
      <trkpt lat="42.42299" lon="2.74435">
        <ele>1169</ele>
        <time>2023-07-13T10:09:43.000Z</time>
      </trkpt>
      <trkpt lat="42.42299" lon="2.74429">
        <ele>1170.1999511719</ele>
        <time>2023-07-13T10:09:51.000Z</time>
      </trkpt>
      <trkpt lat="42.42301" lon="2.74422">
        <ele>1171.1999511719</ele>
        <time>2023-07-13T10:09:57.000Z</time>
      </trkpt>
      <trkpt lat="42.42301" lon="2.7442">
        <ele>1171.8000488281</ele>
        <time>2023-07-13T10:10:00.000Z</time>
      </trkpt>
      <trkpt lat="42.42299" lon="2.74414">
        <ele>1172.1999511719</ele>
        <time>2023-07-13T10:10:07.000Z</time>
      </trkpt>
      <trkpt lat="42.42298" lon="2.74403">
        <ele>1173.1999511719</ele>
        <time>2023-07-13T10:10:16.000Z</time>
      </trkpt>
      <trkpt lat="42.42298" lon="2.74402">
        <ele>1173.1999511719</ele>
        <time>2023-07-13T10:10:17.000Z</time>
      </trkpt>
      <trkpt lat="42.42298" lon="2.74396">
        <ele>1174.1999511719</ele>
        <time>2023-07-13T10:10:24.000Z</time>
      </trkpt>
      <trkpt lat="42.42298" lon="2.74396">
        <ele>1174.4000244141</ele>
        <time>2023-07-13T10:10:25.000Z</time>
      </trkpt>
      <trkpt lat="42.42297" lon="2.74388">
        <ele>1175.4000244141</ele>
        <time>2023-07-13T10:10:31.000Z</time>
      </trkpt>
      <trkpt lat="42.42297" lon="2.74386">
        <ele>1175.8000488281</ele>
        <time>2023-07-13T10:10:34.000Z</time>
      </trkpt>
      <trkpt lat="42.42297" lon="2.74383">
        <ele>1176.4000244141</ele>
        <time>2023-07-13T10:10:38.000Z</time>
      </trkpt>
      <trkpt lat="42.42297" lon="2.74377">
        <ele>1177.4000244141</ele>
        <time>2023-07-13T10:10:43.000Z</time>
      </trkpt>
      <trkpt lat="42.42298" lon="2.74376">
        <ele>1177.4000244141</ele>
        <time>2023-07-13T10:10:44.000Z</time>
      </trkpt>
      <trkpt lat="42.42298" lon="2.74372">
        <ele>1178.4000244141</ele>
        <time>2023-07-13T10:10:51.000Z</time>
      </trkpt>
      <trkpt lat="42.42299" lon="2.7437">
        <ele>1178.5999755859</ele>
        <time>2023-07-13T10:10:52.000Z</time>
      </trkpt>
      <trkpt lat="42.42299" lon="2.74363">
        <ele>1179.5999755859</ele>
        <time>2023-07-13T10:10:58.000Z</time>
      </trkpt>
      <trkpt lat="42.423" lon="2.74352">
        <ele>1180.5999755859</ele>
        <time>2023-07-13T10:11:07.000Z</time>
      </trkpt>
      <trkpt lat="42.423" lon="2.7435">
        <ele>1180.5999755859</ele>
        <time>2023-07-13T10:11:09.000Z</time>
      </trkpt>
      <trkpt lat="42.42299" lon="2.74344">
        <ele>1181.5999755859</ele>
        <time>2023-07-13T10:11:15.000Z</time>
      </trkpt>
      <trkpt lat="42.42299" lon="2.74341">
        <ele>1181.8000488281</ele>
        <time>2023-07-13T10:11:17.000Z</time>
      </trkpt>
      <trkpt lat="42.42298" lon="2.74334">
        <ele>1182.8000488281</ele>
        <time>2023-07-13T10:11:23.000Z</time>
      </trkpt>
      <trkpt lat="42.42298" lon="2.74334">
        <ele>1182.8000488281</ele>
        <time>2023-07-13T10:11:24.000Z</time>
      </trkpt>
      <trkpt lat="42.42299" lon="2.74325">
        <ele>1183.8000488281</ele>
        <time>2023-07-13T10:11:32.000Z</time>
      </trkpt>
      <trkpt lat="42.42299" lon="2.74316">
        <ele>1185</ele>
        <time>2023-07-13T10:11:38.000Z</time>
      </trkpt>
      <trkpt lat="42.42299" lon="2.74314">
        <ele>1185.1999511719</ele>
        <time>2023-07-13T10:11:40.000Z</time>
      </trkpt>
      <trkpt lat="42.42302" lon="2.74305">
        <ele>1186</ele>
        <time>2023-07-13T10:11:48.000Z</time>
      </trkpt>
      <trkpt lat="42.42302" lon="2.74305">
        <ele>1186.1999511719</ele>
        <time>2023-07-13T10:11:49.000Z</time>
      </trkpt>
      <trkpt lat="42.42301" lon="2.74303">
        <ele>1187.1999511719</ele>
        <time>2023-07-13T10:11:53.000Z</time>
      </trkpt>
      <trkpt lat="42.42301" lon="2.74301">
        <ele>1187.5999755859</ele>
        <time>2023-07-13T10:11:54.000Z</time>
      </trkpt>
      <trkpt lat="42.42302" lon="2.74297">
        <ele>1188.4000244141</ele>
        <time>2023-07-13T10:11:59.000Z</time>
      </trkpt>
      <trkpt lat="42.42302" lon="2.74297">
        <ele>1188.5999755859</ele>
        <time>2023-07-13T10:12:02.000Z</time>
      </trkpt>
      <trkpt lat="42.42301" lon="2.74295">
        <ele>1188.5999755859</ele>
        <time>2023-07-13T10:12:07.000Z</time>
      </trkpt>
      <trkpt lat="42.42303" lon="2.74296">
        <ele>1188.5999755859</ele>
        <time>2023-07-13T10:12:16.000Z</time>
      </trkpt>
      <trkpt lat="42.42305" lon="2.74292">
        <ele>1189</ele>
        <time>2023-07-13T10:12:24.000Z</time>
      </trkpt>
      <trkpt lat="42.42305" lon="2.74291">
        <ele>1189.4000244141</ele>
        <time>2023-07-13T10:12:27.000Z</time>
      </trkpt>
      <trkpt lat="42.42306" lon="2.74287">
        <ele>1190.4000244141</ele>
        <time>2023-07-13T10:12:33.000Z</time>
      </trkpt>
      <trkpt lat="42.42307" lon="2.74283">
        <ele>1191.5999755859</ele>
        <time>2023-07-13T10:12:39.000Z</time>
      </trkpt>
      <trkpt lat="42.42307" lon="2.74282">
        <ele>1191.5999755859</ele>
        <time>2023-07-13T10:12:40.000Z</time>
      </trkpt>
      <trkpt lat="42.42308" lon="2.74279">
        <ele>1192.5999755859</ele>
        <time>2023-07-13T10:12:46.000Z</time>
      </trkpt>
      <trkpt lat="42.42309" lon="2.74278">
        <ele>1193</ele>
        <time>2023-07-13T10:12:48.000Z</time>
      </trkpt>
      <trkpt lat="42.4231" lon="2.74276">
        <ele>1193.5999755859</ele>
        <time>2023-07-13T10:12:52.000Z</time>
      </trkpt>
      <trkpt lat="42.42311" lon="2.74271">
        <ele>1194.5999755859</ele>
        <time>2023-07-13T10:12:57.000Z</time>
      </trkpt>
      <trkpt lat="42.42311" lon="2.74271">
        <ele>1195</ele>
        <time>2023-07-13T10:12:58.000Z</time>
      </trkpt>
      <trkpt lat="42.42311" lon="2.74267">
        <ele>1196</ele>
        <time>2023-07-13T10:13:03.000Z</time>
      </trkpt>
      <trkpt lat="42.42312" lon="2.74267">
        <ele>1196.1999511719</ele>
        <time>2023-07-13T10:13:04.000Z</time>
      </trkpt>
      <trkpt lat="42.42312" lon="2.74264">
        <ele>1197.1999511719</ele>
        <time>2023-07-13T10:13:09.000Z</time>
      </trkpt>
      <trkpt lat="42.42312" lon="2.74262">
        <ele>1198</ele>
        <time>2023-07-13T10:13:13.000Z</time>
      </trkpt>
      <trkpt lat="42.42313" lon="2.7426">
        <ele>1198.1999511719</ele>
        <time>2023-07-13T10:13:14.000Z</time>
      </trkpt>
      <trkpt lat="42.42314" lon="2.74253">
        <ele>1199.1999511719</ele>
        <time>2023-07-13T10:13:21.000Z</time>
      </trkpt>
      <trkpt lat="42.42314" lon="2.74252">
        <ele>1199.4000244141</ele>
        <time>2023-07-13T10:13:22.000Z</time>
      </trkpt>
      <trkpt lat="42.42316" lon="2.74249">
        <ele>1200.4000244141</ele>
        <time>2023-07-13T10:13:28.000Z</time>
      </trkpt>
      <trkpt lat="42.42318" lon="2.74243">
        <ele>1201.4000244141</ele>
        <time>2023-07-13T10:13:33.000Z</time>
      </trkpt>
      <trkpt lat="42.42318" lon="2.74237">
        <ele>1202.4000244141</ele>
        <time>2023-07-13T10:13:42.000Z</time>
      </trkpt>
      <trkpt lat="42.42318" lon="2.74232">
        <ele>1203</ele>
        <time>2023-07-13T10:13:50.000Z</time>
      </trkpt>
      <trkpt lat="42.42318" lon="2.74227">
        <ele>1203.5999755859</ele>
        <time>2023-07-13T10:13:55.000Z</time>
      </trkpt>
      <trkpt lat="42.4232" lon="2.74222">
        <ele>1204.1999511719</ele>
        <time>2023-07-13T10:14:00.000Z</time>
      </trkpt>
      <trkpt lat="42.4232" lon="2.7422">
        <ele>1204.5999755859</ele>
        <time>2023-07-13T10:14:02.000Z</time>
      </trkpt>
      <trkpt lat="42.42323" lon="2.74211">
        <ele>1205.5999755859</ele>
        <time>2023-07-13T10:14:10.000Z</time>
      </trkpt>
      <trkpt lat="42.42325" lon="2.74206">
        <ele>1206.8000488281</ele>
        <time>2023-07-13T10:14:17.000Z</time>
      </trkpt>
      <trkpt lat="42.42327" lon="2.74204">
        <ele>1207.1999511719</ele>
        <time>2023-07-13T10:14:19.000Z</time>
      </trkpt>
      <trkpt lat="42.4233" lon="2.74198">
        <ele>1207.8000488281</ele>
        <time>2023-07-13T10:14:24.000Z</time>
      </trkpt>
      <trkpt lat="42.42332" lon="2.74192">
        <ele>1208.4000244141</ele>
        <time>2023-07-13T10:14:29.000Z</time>
      </trkpt>
      <trkpt lat="42.42332" lon="2.74189">
        <ele>1208.8000488281</ele>
        <time>2023-07-13T10:14:32.000Z</time>
      </trkpt>
      <trkpt lat="42.4233" lon="2.74186">
        <ele>1209.5999755859</ele>
        <time>2023-07-13T10:14:36.000Z</time>
      </trkpt>
      <trkpt lat="42.4233" lon="2.74185">
        <ele>1210</ele>
        <time>2023-07-13T10:14:38.000Z</time>
      </trkpt>
      <trkpt lat="42.42329" lon="2.74182">
        <ele>1210.5999755859</ele>
        <time>2023-07-13T10:14:44.000Z</time>
      </trkpt>
      <trkpt lat="42.4233" lon="2.7417">
        <ele>1210.8000488281</ele>
        <time>2023-07-13T10:14:52.000Z</time>
      </trkpt>
      <trkpt lat="42.4233" lon="2.74166">
        <ele>1211.1999511719</ele>
        <time>2023-07-13T10:14:55.000Z</time>
      </trkpt>
      <trkpt lat="42.42329" lon="2.74164">
        <ele>1212</ele>
        <time>2023-07-13T10:15:01.000Z</time>
      </trkpt>
      <trkpt lat="42.42329" lon="2.74163">
        <ele>1212.1999511719</ele>
        <time>2023-07-13T10:15:02.000Z</time>
      </trkpt>
      <trkpt lat="42.42328" lon="2.74155">
        <ele>1213.1999511719</ele>
        <time>2023-07-13T10:15:10.000Z</time>
      </trkpt>
      <trkpt lat="42.42327" lon="2.74155">
        <ele>1213.4000244141</ele>
        <time>2023-07-13T10:15:12.000Z</time>
      </trkpt>
      <trkpt lat="42.42328" lon="2.74148">
        <ele>1214</ele>
        <time>2023-07-13T10:15:18.000Z</time>
      </trkpt>
      <trkpt lat="42.42328" lon="2.74147">
        <ele>1214.5999755859</ele>
        <time>2023-07-13T10:15:20.000Z</time>
      </trkpt>
      <trkpt lat="42.42328" lon="2.74145">
        <ele>1215.5999755859</ele>
        <time>2023-07-13T10:15:24.000Z</time>
      </trkpt>
      <trkpt lat="42.42328" lon="2.74143">
        <ele>1216</ele>
        <time>2023-07-13T10:15:26.000Z</time>
      </trkpt>
      <trkpt lat="42.42331" lon="2.74142">
        <ele>1216.5999755859</ele>
        <time>2023-07-13T10:15:30.000Z</time>
      </trkpt>
      <trkpt lat="42.42335" lon="2.74141">
        <ele>1217.4000244141</ele>
        <time>2023-07-13T10:15:35.000Z</time>
      </trkpt>
      <trkpt lat="42.42336" lon="2.7414">
        <ele>1217.8000488281</ele>
        <time>2023-07-13T10:15:38.000Z</time>
      </trkpt>
      <trkpt lat="42.42336" lon="2.74139">
        <ele>1218.4000244141</ele>
        <time>2023-07-13T10:15:41.000Z</time>
      </trkpt>
      <trkpt lat="42.42337" lon="2.74138">
        <ele>1219</ele>
        <time>2023-07-13T10:15:44.000Z</time>
      </trkpt>
      <trkpt lat="42.42338" lon="2.74137">
        <ele>1219.8000488281</ele>
        <time>2023-07-13T10:15:49.000Z</time>
      </trkpt>
      <trkpt lat="42.42338" lon="2.74137">
        <ele>1220</ele>
        <time>2023-07-13T10:15:50.000Z</time>
      </trkpt>
      <trkpt lat="42.4234" lon="2.74134">
        <ele>1220.8000488281</ele>
        <time>2023-07-13T10:15:56.000Z</time>
      </trkpt>
      <trkpt lat="42.4234" lon="2.74133">
        <ele>1221</ele>
        <time>2023-07-13T10:15:57.000Z</time>
      </trkpt>
      <trkpt lat="42.42342" lon="2.74126">
        <ele>1222</ele>
        <time>2023-07-13T10:16:04.000Z</time>
      </trkpt>
      <trkpt lat="42.42342" lon="2.74125">
        <ele>1222</ele>
        <time>2023-07-13T10:16:05.000Z</time>
      </trkpt>
      <trkpt lat="42.42346" lon="2.74116">
        <ele>1222.8000488281</ele>
        <time>2023-07-13T10:16:13.000Z</time>
      </trkpt>
      <trkpt lat="42.42346" lon="2.74115">
        <ele>1223</ele>
        <time>2023-07-13T10:16:15.000Z</time>
      </trkpt>
      <trkpt lat="42.42347" lon="2.74113">
        <ele>1223.8000488281</ele>
        <time>2023-07-13T10:16:20.000Z</time>
      </trkpt>
      <trkpt lat="42.42347" lon="2.74109">
        <ele>1224.1999511719</ele>
        <time>2023-07-13T10:16:23.000Z</time>
      </trkpt>
      <trkpt lat="42.42348" lon="2.74102">
        <ele>1224.5999755859</ele>
        <time>2023-07-13T10:16:27.000Z</time>
      </trkpt>
      <trkpt lat="42.42349" lon="2.74095">
        <ele>1225.4000244141</ele>
        <time>2023-07-13T10:16:35.000Z</time>
      </trkpt>
      <trkpt lat="42.42349" lon="2.74095">
        <ele>1225.4000244141</ele>
        <time>2023-07-13T10:16:36.000Z</time>
      </trkpt>
      <trkpt lat="42.42351" lon="2.74092">
        <ele>1226.4000244141</ele>
        <time>2023-07-13T10:16:40.000Z</time>
      </trkpt>
      <trkpt lat="42.42351" lon="2.7409">
        <ele>1227</ele>
        <time>2023-07-13T10:16:43.000Z</time>
      </trkpt>
      <trkpt lat="42.4235" lon="2.74088">
        <ele>1227.4000244141</ele>
        <time>2023-07-13T10:16:45.000Z</time>
      </trkpt>
      <trkpt lat="42.42348" lon="2.74086">
        <ele>1227.8000488281</ele>
        <time>2023-07-13T10:16:50.000Z</time>
      </trkpt>
      <trkpt lat="42.42344" lon="2.74076">
        <ele>1227.5999755859</ele>
        <time>2023-07-13T10:16:59.000Z</time>
      </trkpt>
      <trkpt lat="42.42347" lon="2.74065">
        <ele>1228.4000244141</ele>
        <time>2023-07-13T10:17:07.000Z</time>
      </trkpt>
      <trkpt lat="42.4235" lon="2.74061">
        <ele>1229.5999755859</ele>
        <time>2023-07-13T10:17:13.000Z</time>
      </trkpt>
      <trkpt lat="42.42352" lon="2.74061">
        <ele>1230.8000488281</ele>
        <time>2023-07-13T10:17:19.000Z</time>
      </trkpt>
      <trkpt lat="42.42354" lon="2.74061">
        <ele>1231.4000244141</ele>
        <time>2023-07-13T10:17:22.000Z</time>
      </trkpt>
      <trkpt lat="42.42358" lon="2.74059">
        <ele>1232</ele>
        <time>2023-07-13T10:17:25.000Z</time>
      </trkpt>
      <trkpt lat="42.4236" lon="2.74057">
        <ele>1232.5999755859</ele>
        <time>2023-07-13T10:17:29.000Z</time>
      </trkpt>
      <trkpt lat="42.42361" lon="2.74056">
        <ele>1233</ele>
        <time>2023-07-13T10:17:31.000Z</time>
      </trkpt>
      <trkpt lat="42.42362" lon="2.74052">
        <ele>1233.5999755859</ele>
        <time>2023-07-13T10:17:35.000Z</time>
      </trkpt>
      <trkpt lat="42.42363" lon="2.7405">
        <ele>1234</ele>
        <time>2023-07-13T10:17:37.000Z</time>
      </trkpt>
      <trkpt lat="42.42365" lon="2.74045">
        <ele>1235</ele>
        <time>2023-07-13T10:17:43.000Z</time>
      </trkpt>
      <trkpt lat="42.42365" lon="2.74045">
        <ele>1235.1999511719</ele>
        <time>2023-07-13T10:17:44.000Z</time>
      </trkpt>
      <trkpt lat="42.42367" lon="2.74043">
        <ele>1236.1999511719</ele>
        <time>2023-07-13T10:17:49.000Z</time>
      </trkpt>
      <trkpt lat="42.42368" lon="2.7404">
        <ele>1237.1999511719</ele>
        <time>2023-07-13T10:17:55.000Z</time>
      </trkpt>
      <trkpt lat="42.42369" lon="2.74039">
        <ele>1237.1999511719</ele>
        <time>2023-07-13T10:17:56.000Z</time>
      </trkpt>
      <trkpt lat="42.42374" lon="2.74036">
        <ele>1238.1999511719</ele>
        <time>2023-07-13T10:18:03.000Z</time>
      </trkpt>
      <trkpt lat="42.42374" lon="2.74035">
        <ele>1238.4000244141</ele>
        <time>2023-07-13T10:18:04.000Z</time>
      </trkpt>
      <trkpt lat="42.42377" lon="2.7403">
        <ele>1239.1999511719</ele>
        <time>2023-07-13T10:18:10.000Z</time>
      </trkpt>
      <trkpt lat="42.42377" lon="2.74029">
        <ele>1239.4000244141</ele>
        <time>2023-07-13T10:18:11.000Z</time>
      </trkpt>
      <trkpt lat="42.42381" lon="2.74018">
        <ele>1240.1999511719</ele>
        <time>2023-07-13T10:18:22.000Z</time>
      </trkpt>
      <trkpt lat="42.42385" lon="2.74009">
        <ele>1241.1999511719</ele>
        <time>2023-07-13T10:18:32.000Z</time>
      </trkpt>
      <trkpt lat="42.42384" lon="2.74009">
        <ele>1241</ele>
        <time>2023-07-13T10:18:40.000Z</time>
      </trkpt>
      <trkpt lat="42.42385" lon="2.74008">
        <ele>1240.8000488281</ele>
        <time>2023-07-13T10:18:53.000Z</time>
      </trkpt>
      <trkpt lat="42.4239" lon="2.74011">
        <ele>1241</ele>
        <time>2023-07-13T10:19:01.000Z</time>
      </trkpt>
      <trkpt lat="42.42386" lon="2.74005">
        <ele>1241</ele>
        <time>2023-07-13T10:19:11.000Z</time>
      </trkpt>
      <trkpt lat="42.42384" lon="2.74008">
        <ele>1241</ele>
        <time>2023-07-13T10:19:21.000Z</time>
      </trkpt>
      <trkpt lat="42.42387" lon="2.74004">
        <ele>1241</ele>
        <time>2023-07-13T10:19:28.000Z</time>
      </trkpt>
      <trkpt lat="42.42395" lon="2.73995">
        <ele>1241</ele>
        <time>2023-07-13T10:19:35.000Z</time>
      </trkpt>
      <trkpt lat="42.42405" lon="2.73996">
        <ele>1240.8000488281</ele>
        <time>2023-07-13T10:19:42.000Z</time>
      </trkpt>
      <trkpt lat="42.4241" lon="2.73993">
        <ele>1240.5999755859</ele>
        <time>2023-07-13T10:19:48.000Z</time>
      </trkpt>
      <trkpt lat="42.42415" lon="2.73989">
        <ele>1240</ele>
        <time>2023-07-13T10:19:57.000Z</time>
      </trkpt>
      <trkpt lat="42.42411" lon="2.73982">
        <ele>1239.5999755859</ele>
        <time>2023-07-13T10:20:06.000Z</time>
      </trkpt>
      <trkpt lat="42.42409" lon="2.7398">
        <ele>1239.5999755859</ele>
        <time>2023-07-13T10:20:16.000Z</time>
      </trkpt>
      <trkpt lat="42.42404" lon="2.73976">
        <ele>1239.5999755859</ele>
        <time>2023-07-13T10:20:33.000Z</time>
      </trkpt>
      <trkpt lat="42.42407" lon="2.73983">
        <ele>1239.8000488281</ele>
        <time>2023-07-13T10:20:39.000Z</time>
      </trkpt>
      <trkpt lat="42.42403" lon="2.73991">
        <ele>1240.1999511719</ele>
        <time>2023-07-13T10:20:45.000Z</time>
      </trkpt>
      <trkpt lat="42.424" lon="2.73997">
        <ele>1240.5999755859</ele>
        <time>2023-07-13T10:20:52.000Z</time>
      </trkpt>
      <trkpt lat="42.42398" lon="2.74002">
        <ele>1240.8000488281</ele>
        <time>2023-07-13T10:20:58.000Z</time>
      </trkpt>
      <trkpt lat="42.42394" lon="2.74007">
        <ele>1240.8000488281</ele>
        <time>2023-07-13T10:21:04.000Z</time>
      </trkpt>
      <trkpt lat="42.42391" lon="2.74007">
        <ele>1241</ele>
        <time>2023-07-13T10:21:11.000Z</time>
      </trkpt>
      <trkpt lat="42.42386" lon="2.74001">
        <ele>1241.1999511719</ele>
        <time>2023-07-13T10:21:16.000Z</time>
      </trkpt>
      <trkpt lat="42.42385" lon="2.74001">
        <ele>1241.4000244141</ele>
        <time>2023-07-13T10:21:21.000Z</time>
      </trkpt>
      <trkpt lat="42.42385" lon="2.74001">
        <ele>1241.4000244141</ele>
        <time>2023-07-13T10:21:22.000Z</time>
      </trkpt>
      <trkpt lat="42.42384" lon="2.74001">
        <ele>1241.4000244141</ele>
        <time>2023-07-13T10:21:31.000Z</time>
      </trkpt>
      <trkpt lat="42.42381" lon="2.73996">
        <ele>1241.4000244141</ele>
        <time>2023-07-13T10:21:39.000Z</time>
      </trkpt>
      <trkpt lat="42.42377" lon="2.7399">
        <ele>1242.4000244141</ele>
        <time>2023-07-13T10:21:46.000Z</time>
      </trkpt>
      <trkpt lat="42.42377" lon="2.73989">
        <ele>1242.4000244141</ele>
        <time>2023-07-13T10:21:47.000Z</time>
      </trkpt>
      <trkpt lat="42.42371" lon="2.73986">
        <ele>1243.4000244141</ele>
        <time>2023-07-13T10:21:53.000Z</time>
      </trkpt>
      <trkpt lat="42.4237" lon="2.73986">
        <ele>1244</ele>
        <time>2023-07-13T10:21:56.000Z</time>
      </trkpt>
      <trkpt lat="42.42371" lon="2.73987">
        <ele>1244.1999511719</ele>
        <time>2023-07-13T10:21:58.000Z</time>
      </trkpt>
      <trkpt lat="42.42372" lon="2.73988">
        <ele>1244.1999511719</ele>
        <time>2023-07-13T10:22:02.000Z</time>
      </trkpt>
      <trkpt lat="42.42377" lon="2.73994">
        <ele>1243</ele>
        <time>2023-07-13T10:22:10.000Z</time>
      </trkpt>
      <trkpt lat="42.42379" lon="2.73996">
        <ele>1242.4000244141</ele>
        <time>2023-07-13T10:22:12.000Z</time>
      </trkpt>
      <trkpt lat="42.42385" lon="2.74002">
        <ele>1241.8000488281</ele>
        <time>2023-07-13T10:22:18.000Z</time>
      </trkpt>
      <trkpt lat="42.42387" lon="2.74005">
        <ele>1241.4000244141</ele>
        <time>2023-07-13T10:22:21.000Z</time>
      </trkpt>
      <trkpt lat="42.42392" lon="2.74009">
        <ele>1241</ele>
        <time>2023-07-13T10:22:26.000Z</time>
      </trkpt>
      <trkpt lat="42.42393" lon="2.74008">
        <ele>1241</ele>
        <time>2023-07-13T10:22:27.000Z</time>
      </trkpt>
      <trkpt lat="42.42397" lon="2.74002">
        <ele>1240.8000488281</ele>
        <time>2023-07-13T10:22:33.000Z</time>
      </trkpt>
      <trkpt lat="42.424" lon="2.73991">
        <ele>1240.5999755859</ele>
        <time>2023-07-13T10:22:41.000Z</time>
      </trkpt>
      <trkpt lat="42.42403" lon="2.73985">
        <ele>1240.1999511719</ele>
        <time>2023-07-13T10:22:46.000Z</time>
      </trkpt>
      <trkpt lat="42.42407" lon="2.7398">
        <ele>1240</ele>
        <time>2023-07-13T10:22:50.000Z</time>
      </trkpt>
      <trkpt lat="42.42415" lon="2.73969">
        <ele>1239.1999511719</ele>
        <time>2023-07-13T10:22:59.000Z</time>
      </trkpt>
      <trkpt lat="42.42418" lon="2.73964">
        <ele>1239.1999511719</ele>
        <time>2023-07-13T10:23:05.000Z</time>
      </trkpt>
      <trkpt lat="42.42419" lon="2.73962">
        <ele>1239.4000244141</ele>
        <time>2023-07-13T10:23:13.000Z</time>
      </trkpt>
      <trkpt lat="42.42413" lon="2.73959">
        <ele>1239.8000488281</ele>
        <time>2023-07-13T10:23:20.000Z</time>
      </trkpt>
      <trkpt lat="42.42413" lon="2.73956">
        <ele>1240.4000244141</ele>
        <time>2023-07-13T10:23:23.000Z</time>
      </trkpt>
      <trkpt lat="42.42413" lon="2.73954">
        <ele>1241.1999511719</ele>
        <time>2023-07-13T10:23:28.000Z</time>
      </trkpt>
      <trkpt lat="42.42413" lon="2.73953">
        <ele>1241.4000244141</ele>
        <time>2023-07-13T10:23:29.000Z</time>
      </trkpt>
      <trkpt lat="42.42413" lon="2.7395">
        <ele>1242.5999755859</ele>
        <time>2023-07-13T10:23:35.000Z</time>
      </trkpt>
      <trkpt lat="42.42412" lon="2.73947">
        <ele>1243.5999755859</ele>
        <time>2023-07-13T10:23:41.000Z</time>
      </trkpt>
      <trkpt lat="42.42412" lon="2.73946">
        <ele>1244.4000244141</ele>
        <time>2023-07-13T10:23:45.000Z</time>
      </trkpt>
      <trkpt lat="42.42411" lon="2.73945">
        <ele>1244.8000488281</ele>
        <time>2023-07-13T10:23:47.000Z</time>
      </trkpt>
      <trkpt lat="42.42411" lon="2.73935">
        <ele>1245.1999511719</ele>
        <time>2023-07-13T10:23:54.000Z</time>
      </trkpt>
      <trkpt lat="42.42415" lon="2.73932">
        <ele>1245.4000244141</ele>
        <time>2023-07-13T10:24:03.000Z</time>
      </trkpt>
      <trkpt lat="42.42416" lon="2.73932">
        <ele>1245.8000488281</ele>
        <time>2023-07-13T10:24:08.000Z</time>
      </trkpt>
      <trkpt lat="42.42417" lon="2.73931">
        <ele>1246.5999755859</ele>
        <time>2023-07-13T10:24:11.000Z</time>
      </trkpt>
      <trkpt lat="42.42418" lon="2.7393">
        <ele>1247</ele>
        <time>2023-07-13T10:24:13.000Z</time>
      </trkpt>
      <trkpt lat="42.42419" lon="2.73929">
        <ele>1248.1999511719</ele>
        <time>2023-07-13T10:24:19.000Z</time>
      </trkpt>
      <trkpt lat="42.42418" lon="2.73927">
        <ele>1249.1999511719</ele>
        <time>2023-07-13T10:24:25.000Z</time>
      </trkpt>
      <trkpt lat="42.42418" lon="2.73926">
        <ele>1249.4000244141</ele>
        <time>2023-07-13T10:24:26.000Z</time>
      </trkpt>
      <trkpt lat="42.42418" lon="2.73922">
        <ele>1250.1999511719</ele>
        <time>2023-07-13T10:24:31.000Z</time>
      </trkpt>
      <trkpt lat="42.42418" lon="2.73921">
        <ele>1250.8000488281</ele>
        <time>2023-07-13T10:24:34.000Z</time>
      </trkpt>
      <trkpt lat="42.42417" lon="2.7392">
        <ele>1251.4000244141</ele>
        <time>2023-07-13T10:24:37.000Z</time>
      </trkpt>
      <trkpt lat="42.42416" lon="2.73915">
        <ele>1252.5999755859</ele>
        <time>2023-07-13T10:24:42.000Z</time>
      </trkpt>
      <trkpt lat="42.42416" lon="2.73912">
        <ele>1253.5999755859</ele>
        <time>2023-07-13T10:24:47.000Z</time>
      </trkpt>
      <trkpt lat="42.42417" lon="2.73908">
        <ele>1254.4000244141</ele>
        <time>2023-07-13T10:24:51.000Z</time>
      </trkpt>
      <trkpt lat="42.42421" lon="2.73905">
        <ele>1254.5999755859</ele>
        <time>2023-07-13T10:24:58.000Z</time>
      </trkpt>
      <trkpt lat="42.42421" lon="2.73905">
        <ele>1254.5999755859</ele>
        <time>2023-07-13T10:25:04.000Z</time>
      </trkpt>
      <trkpt lat="42.42421" lon="2.73904">
        <ele>1254.5999755859</ele>
        <time>2023-07-13T10:25:07.000Z</time>
      </trkpt>
      <trkpt lat="42.42428" lon="2.73902">
        <ele>1255.5999755859</ele>
        <time>2023-07-13T10:25:16.000Z</time>
      </trkpt>
      <trkpt lat="42.42433" lon="2.73907">
        <ele>1255.5999755859</ele>
        <time>2023-07-13T10:25:33.000Z</time>
      </trkpt>
      <trkpt lat="42.4242" lon="2.73902">
        <ele>1256.1999511719</ele>
        <time>2023-07-13T10:25:52.000Z</time>
      </trkpt>
      <trkpt lat="42.42421" lon="2.73901">
        <ele>1256.5999755859</ele>
        <time>2023-07-13T10:25:55.000Z</time>
      </trkpt>
      <trkpt lat="42.42422" lon="2.73898">
        <ele>1257.5999755859</ele>
        <time>2023-07-13T10:25:59.000Z</time>
      </trkpt>
      <trkpt lat="42.42422" lon="2.73897">
        <ele>1257.8000488281</ele>
        <time>2023-07-13T10:26:00.000Z</time>
      </trkpt>
      <trkpt lat="42.42422" lon="2.73894">
        <ele>1259</ele>
        <time>2023-07-13T10:26:06.000Z</time>
      </trkpt>
      <trkpt lat="42.42423" lon="2.73893">
        <ele>1259.5999755859</ele>
        <time>2023-07-13T10:26:09.000Z</time>
      </trkpt>
      <trkpt lat="42.42423" lon="2.73892">
        <ele>1260</ele>
        <time>2023-07-13T10:26:11.000Z</time>
      </trkpt>
      <trkpt lat="42.42425" lon="2.7389">
        <ele>1261.1999511719</ele>
        <time>2023-07-13T10:26:17.000Z</time>
      </trkpt>
      <trkpt lat="42.42426" lon="2.73889">
        <ele>1261.4000244141</ele>
        <time>2023-07-13T10:26:18.000Z</time>
      </trkpt>
      <trkpt lat="42.42429" lon="2.73886">
        <ele>1262.1999511719</ele>
        <time>2023-07-13T10:26:23.000Z</time>
      </trkpt>
      <trkpt lat="42.4243" lon="2.73884">
        <ele>1262.8000488281</ele>
        <time>2023-07-13T10:26:26.000Z</time>
      </trkpt>
      <trkpt lat="42.42431" lon="2.73885">
        <ele>1263.4000244141</ele>
        <time>2023-07-13T10:26:29.000Z</time>
      </trkpt>
      <trkpt lat="42.4243" lon="2.73884">
        <ele>1264.5999755859</ele>
        <time>2023-07-13T10:26:35.000Z</time>
      </trkpt>
      <trkpt lat="42.42432" lon="2.7388">
        <ele>1265.8000488281</ele>
        <time>2023-07-13T10:26:41.000Z</time>
      </trkpt>
      <trkpt lat="42.42432" lon="2.73878">
        <ele>1266.4000244141</ele>
        <time>2023-07-13T10:26:46.000Z</time>
      </trkpt>
      <trkpt lat="42.42432" lon="2.73877">
        <ele>1266.8000488281</ele>
        <time>2023-07-13T10:26:48.000Z</time>
      </trkpt>
      <trkpt lat="42.42431" lon="2.73872">
        <ele>1267.5999755859</ele>
        <time>2023-07-13T10:26:54.000Z</time>
      </trkpt>
      <trkpt lat="42.42431" lon="2.7387">
        <ele>1267.8000488281</ele>
        <time>2023-07-13T10:26:56.000Z</time>
      </trkpt>
      <trkpt lat="42.42428" lon="2.73866">
        <ele>1268.8000488281</ele>
        <time>2023-07-13T10:27:02.000Z</time>
      </trkpt>
      <trkpt lat="42.42428" lon="2.73866">
        <ele>1269</ele>
        <time>2023-07-13T10:27:03.000Z</time>
      </trkpt>
      <trkpt lat="42.42429" lon="2.73865">
        <ele>1270</ele>
        <time>2023-07-13T10:27:09.000Z</time>
      </trkpt>
      <trkpt lat="42.42429" lon="2.73864">
        <ele>1270.4000244141</ele>
        <time>2023-07-13T10:27:10.000Z</time>
      </trkpt>
      <trkpt lat="42.42432" lon="2.73859">
        <ele>1271.1999511719</ele>
        <time>2023-07-13T10:27:16.000Z</time>
      </trkpt>
      <trkpt lat="42.42433" lon="2.73857">
        <ele>1271.4000244141</ele>
        <time>2023-07-13T10:27:18.000Z</time>
      </trkpt>
      <trkpt lat="42.42436" lon="2.73855">
        <ele>1272.1999511719</ele>
        <time>2023-07-13T10:27:22.000Z</time>
      </trkpt>
      <trkpt lat="42.4244" lon="2.7385">
        <ele>1273.5999755859</ele>
        <time>2023-07-13T10:27:32.000Z</time>
      </trkpt>
      <trkpt lat="42.42439" lon="2.73847">
        <ele>1274.1999511719</ele>
        <time>2023-07-13T10:27:36.000Z</time>
      </trkpt>
      <trkpt lat="42.42439" lon="2.73844">
        <ele>1274.8000488281</ele>
        <time>2023-07-13T10:27:39.000Z</time>
      </trkpt>
      <trkpt lat="42.42442" lon="2.73842">
        <ele>1275.4000244141</ele>
        <time>2023-07-13T10:27:44.000Z</time>
      </trkpt>
      <trkpt lat="42.42442" lon="2.73842">
        <ele>1275.8000488281</ele>
        <time>2023-07-13T10:27:47.000Z</time>
      </trkpt>
      <trkpt lat="42.42447" lon="2.73837">
        <ele>1277.5999755859</ele>
        <time>2023-07-13T10:27:58.000Z</time>
      </trkpt>
      <trkpt lat="42.42447" lon="2.73837">
        <ele>1277.8000488281</ele>
        <time>2023-07-13T10:27:59.000Z</time>
      </trkpt>
      <trkpt lat="42.42448" lon="2.73833">
        <ele>1278.5999755859</ele>
        <time>2023-07-13T10:28:04.000Z</time>
      </trkpt>
      <trkpt lat="42.42447" lon="2.73831">
        <ele>1279.1999511719</ele>
        <time>2023-07-13T10:28:07.000Z</time>
      </trkpt>
      <trkpt lat="42.42448" lon="2.73831">
        <ele>1279.8000488281</ele>
        <time>2023-07-13T10:28:11.000Z</time>
      </trkpt>
      <trkpt lat="42.42449" lon="2.73829">
        <ele>1280.1999511719</ele>
        <time>2023-07-13T10:28:15.000Z</time>
      </trkpt>
      <trkpt lat="42.42452" lon="2.73825">
        <ele>1280.8000488281</ele>
        <time>2023-07-13T10:28:21.000Z</time>
      </trkpt>
      <trkpt lat="42.42453" lon="2.73824">
        <ele>1281</ele>
        <time>2023-07-13T10:28:23.000Z</time>
      </trkpt>
      <trkpt lat="42.42452" lon="2.73821">
        <ele>1282</ele>
        <time>2023-07-13T10:28:29.000Z</time>
      </trkpt>
      <trkpt lat="42.42453" lon="2.73817">
        <ele>1283</ele>
        <time>2023-07-13T10:28:35.000Z</time>
      </trkpt>
      <trkpt lat="42.42454" lon="2.73817">
        <ele>1283.4000244141</ele>
        <time>2023-07-13T10:28:37.000Z</time>
      </trkpt>
      <trkpt lat="42.42456" lon="2.73815">
        <ele>1284.1999511719</ele>
        <time>2023-07-13T10:28:42.000Z</time>
      </trkpt>
      <trkpt lat="42.42467" lon="2.73808">
        <ele>1284.8000488281</ele>
        <time>2023-07-13T10:29:00.000Z</time>
      </trkpt>
      <trkpt lat="42.42466" lon="2.73807">
        <ele>1285.4000244141</ele>
        <time>2023-07-13T10:29:04.000Z</time>
      </trkpt>
      <trkpt lat="42.42466" lon="2.73807">
        <ele>1286.1999511719</ele>
        <time>2023-07-13T10:29:08.000Z</time>
      </trkpt>
      <trkpt lat="42.42466" lon="2.73806">
        <ele>1286.5999755859</ele>
        <time>2023-07-13T10:29:10.000Z</time>
      </trkpt>
      <trkpt lat="42.42469" lon="2.73804">
        <ele>1287.5999755859</ele>
        <time>2023-07-13T10:29:16.000Z</time>
      </trkpt>
      <trkpt lat="42.42469" lon="2.73803">
        <ele>1287.5999755859</ele>
        <time>2023-07-13T10:29:17.000Z</time>
      </trkpt>
      <trkpt lat="42.42473" lon="2.738">
        <ele>1288.5999755859</ele>
        <time>2023-07-13T10:29:22.000Z</time>
      </trkpt>
      <trkpt lat="42.42475" lon="2.73797">
        <ele>1289</ele>
        <time>2023-07-13T10:29:25.000Z</time>
      </trkpt>
      <trkpt lat="42.42474" lon="2.73789">
        <ele>1289.4000244141</ele>
        <time>2023-07-13T10:29:42.000Z</time>
      </trkpt>
      <trkpt lat="42.42477" lon="2.73789">
        <ele>1289.8000488281</ele>
        <time>2023-07-13T10:29:48.000Z</time>
      </trkpt>
      <trkpt lat="42.42478" lon="2.73788">
        <ele>1290</ele>
        <time>2023-07-13T10:29:50.000Z</time>
      </trkpt>
      <trkpt lat="42.4248" lon="2.73784">
        <ele>1290.8000488281</ele>
        <time>2023-07-13T10:29:55.000Z</time>
      </trkpt>
      <trkpt lat="42.42481" lon="2.7378">
        <ele>1291.5999755859</ele>
        <time>2023-07-13T10:29:59.000Z</time>
      </trkpt>
      <trkpt lat="42.42482" lon="2.73779">
        <ele>1292</ele>
        <time>2023-07-13T10:30:01.000Z</time>
      </trkpt>
      <trkpt lat="42.42483" lon="2.73776">
        <ele>1293</ele>
        <time>2023-07-13T10:30:07.000Z</time>
      </trkpt>
      <trkpt lat="42.42486" lon="2.73773">
        <ele>1294.1999511719</ele>
        <time>2023-07-13T10:30:13.000Z</time>
      </trkpt>
      <trkpt lat="42.42487" lon="2.73772">
        <ele>1294.8000488281</ele>
        <time>2023-07-13T10:30:17.000Z</time>
      </trkpt>
      <trkpt lat="42.4249" lon="2.7377">
        <ele>1295.1999511719</ele>
        <time>2023-07-13T10:30:20.000Z</time>
      </trkpt>
      <trkpt lat="42.42494" lon="2.73766">
        <ele>1295.8000488281</ele>
        <time>2023-07-13T10:30:25.000Z</time>
      </trkpt>
      <trkpt lat="42.42495" lon="2.73764">
        <ele>1296.4000244141</ele>
        <time>2023-07-13T10:30:28.000Z</time>
      </trkpt>
      <trkpt lat="42.42497" lon="2.73761">
        <ele>1296.8000488281</ele>
        <time>2023-07-13T10:30:31.000Z</time>
      </trkpt>
      <trkpt lat="42.42497" lon="2.73758">
        <ele>1297.4000244141</ele>
        <time>2023-07-13T10:30:34.000Z</time>
      </trkpt>
      <trkpt lat="42.425" lon="2.73751">
        <ele>1298.1999511719</ele>
        <time>2023-07-13T10:30:40.000Z</time>
      </trkpt>
      <trkpt lat="42.42502" lon="2.73749">
        <ele>1298.4000244141</ele>
        <time>2023-07-13T10:30:43.000Z</time>
      </trkpt>
      <trkpt lat="42.42505" lon="2.73747">
        <ele>1299.1999511719</ele>
        <time>2023-07-13T10:30:48.000Z</time>
      </trkpt>
      <trkpt lat="42.42507" lon="2.73745">
        <ele>1299.4000244141</ele>
        <time>2023-07-13T10:30:51.000Z</time>
      </trkpt>
      <trkpt lat="42.4251" lon="2.73742">
        <ele>1300.1999511719</ele>
        <time>2023-07-13T10:30:56.000Z</time>
      </trkpt>
      <trkpt lat="42.42512" lon="2.7374">
        <ele>1300.4000244141</ele>
        <time>2023-07-13T10:30:59.000Z</time>
      </trkpt>
      <trkpt lat="42.42516" lon="2.73737">
        <ele>1301.4000244141</ele>
        <time>2023-07-13T10:31:05.000Z</time>
      </trkpt>
      <trkpt lat="42.42517" lon="2.73737">
        <ele>1301.5999755859</ele>
        <time>2023-07-13T10:31:06.000Z</time>
      </trkpt>
      <trkpt lat="42.42522" lon="2.73732">
        <ele>1302.5999755859</ele>
        <time>2023-07-13T10:31:13.000Z</time>
      </trkpt>
      <trkpt lat="42.42523" lon="2.73731">
        <ele>1302.5999755859</ele>
        <time>2023-07-13T10:31:14.000Z</time>
      </trkpt>
      <trkpt lat="42.42525" lon="2.73725">
        <ele>1303.5999755859</ele>
        <time>2023-07-13T10:31:20.000Z</time>
      </trkpt>
      <trkpt lat="42.42525" lon="2.73725">
        <ele>1304</ele>
        <time>2023-07-13T10:31:22.000Z</time>
      </trkpt>
      <trkpt lat="42.42526" lon="2.73724">
        <ele>1304.8000488281</ele>
        <time>2023-07-13T10:31:26.000Z</time>
      </trkpt>
      <trkpt lat="42.42526" lon="2.73719">
        <ele>1305.4000244141</ele>
        <time>2023-07-13T10:31:31.000Z</time>
      </trkpt>
      <trkpt lat="42.42526" lon="2.73716">
        <ele>1305.8000488281</ele>
        <time>2023-07-13T10:31:34.000Z</time>
      </trkpt>
      <trkpt lat="42.42527" lon="2.73713">
        <ele>1306.4000244141</ele>
        <time>2023-07-13T10:31:39.000Z</time>
      </trkpt>
      <trkpt lat="42.42528" lon="2.7371">
        <ele>1307</ele>
        <time>2023-07-13T10:31:42.000Z</time>
      </trkpt>
      <trkpt lat="42.4253" lon="2.73706">
        <ele>1307.8000488281</ele>
        <time>2023-07-13T10:31:48.000Z</time>
      </trkpt>
      <trkpt lat="42.42531" lon="2.73706">
        <ele>1308</ele>
        <time>2023-07-13T10:31:49.000Z</time>
      </trkpt>
      <trkpt lat="42.42534" lon="2.73698">
        <ele>1308.4000244141</ele>
        <time>2023-07-13T10:31:55.000Z</time>
      </trkpt>
      <trkpt lat="42.42537" lon="2.73692">
        <ele>1308.8000488281</ele>
        <time>2023-07-13T10:32:04.000Z</time>
      </trkpt>
      <trkpt lat="42.42535" lon="2.73688">
        <ele>1309</ele>
        <time>2023-07-13T10:32:12.000Z</time>
      </trkpt>
      <trkpt lat="42.42535" lon="2.73686">
        <ele>1309</ele>
        <time>2023-07-13T10:32:13.000Z</time>
      </trkpt>
      <trkpt lat="42.42535" lon="2.73678">
        <ele>1309.1999511719</ele>
        <time>2023-07-13T10:32:20.000Z</time>
      </trkpt>
      <trkpt lat="42.42535" lon="2.73669">
        <ele>1310</ele>
        <time>2023-07-13T10:32:29.000Z</time>
      </trkpt>
      <trkpt lat="42.42534" lon="2.73656">
        <ele>1311</ele>
        <time>2023-07-13T10:32:38.000Z</time>
      </trkpt>
      <trkpt lat="42.42534" lon="2.73655">
        <ele>1311.1999511719</ele>
        <time>2023-07-13T10:32:39.000Z</time>
      </trkpt>
      <trkpt lat="42.42538" lon="2.73647">
        <ele>1312</ele>
        <time>2023-07-13T10:32:47.000Z</time>
      </trkpt>
      <trkpt lat="42.42539" lon="2.73647">
        <ele>1311.8000488281</ele>
        <time>2023-07-13T10:32:55.000Z</time>
      </trkpt>
      <trkpt lat="42.42544" lon="2.7364">
        <ele>1311.5999755859</ele>
        <time>2023-07-13T10:33:04.000Z</time>
      </trkpt>
      <trkpt lat="42.42551" lon="2.73634">
        <ele>1312</ele>
        <time>2023-07-13T10:33:11.000Z</time>
      </trkpt>
      <trkpt lat="42.42553" lon="2.73633">
        <ele>1312.1999511719</ele>
        <time>2023-07-13T10:33:13.000Z</time>
      </trkpt>
      <trkpt lat="42.42616" lon="2.73537">
        <ele>1328.1999511719</ele>
        <time>2023-07-13T10:35:48.000Z</time>
      </trkpt>
      <trkpt lat="42.42618" lon="2.73536">
        <ele>1328.5999755859</ele>
        <time>2023-07-13T10:35:50.000Z</time>
      </trkpt>
      <trkpt lat="42.42648" lon="2.73528">
        <ele>1337.5999755859</ele>
        <time>2023-07-13T10:36:39.000Z</time>
      </trkpt>
      <trkpt lat="42.42649" lon="2.73526">
        <ele>1338.5999755859</ele>
        <time>2023-07-13T10:36:46.000Z</time>
      </trkpt>
      <trkpt lat="42.42653" lon="2.73519">
        <ele>1339.4000244141</ele>
        <time>2023-07-13T10:36:54.000Z</time>
      </trkpt>
      <trkpt lat="42.42654" lon="2.73518">
        <ele>1339.4000244141</ele>
        <time>2023-07-13T10:36:55.000Z</time>
      </trkpt>
      <trkpt lat="42.42652" lon="2.73515">
        <ele>1340.5999755859</ele>
        <time>2023-07-13T10:37:00.000Z</time>
      </trkpt>
      <trkpt lat="42.42653" lon="2.73513">
        <ele>1341</ele>
        <time>2023-07-13T10:37:03.000Z</time>
      </trkpt>
      <trkpt lat="42.42654" lon="2.73509">
        <ele>1341.5999755859</ele>
        <time>2023-07-13T10:37:07.000Z</time>
      </trkpt>
      <trkpt lat="42.42656" lon="2.73506">
        <ele>1341.8000488281</ele>
        <time>2023-07-13T10:37:10.000Z</time>
      </trkpt>
      <trkpt lat="42.42661" lon="2.73498">
        <ele>1342.1999511719</ele>
        <time>2023-07-13T10:37:18.000Z</time>
      </trkpt>
      <trkpt lat="42.42666" lon="2.73491">
        <ele>1342.1999511719</ele>
        <time>2023-07-13T10:37:25.000Z</time>
      </trkpt>
      <trkpt lat="42.42667" lon="2.73491">
        <ele>1342</ele>
        <time>2023-07-13T10:37:34.000Z</time>
      </trkpt>
      <trkpt lat="42.4267" lon="2.73488">
        <ele>1342</ele>
        <time>2023-07-13T10:37:44.000Z</time>
      </trkpt>
      <trkpt lat="42.42675" lon="2.73485">
        <ele>1341.4000244141</ele>
        <time>2023-07-13T10:37:51.000Z</time>
      </trkpt>
      <trkpt lat="42.4268" lon="2.73483">
        <ele>1340.4000244141</ele>
        <time>2023-07-13T10:37:57.000Z</time>
      </trkpt>
      <trkpt lat="42.42682" lon="2.73482">
        <ele>1339.8000488281</ele>
        <time>2023-07-13T10:38:00.000Z</time>
      </trkpt>
      <trkpt lat="42.42692" lon="2.73477">
        <ele>1337.1999511719</ele>
        <time>2023-07-13T10:38:12.000Z</time>
      </trkpt>
      <trkpt lat="42.42697" lon="2.73471">
        <ele>1336.1999511719</ele>
        <time>2023-07-13T10:38:19.000Z</time>
      </trkpt>
      <trkpt lat="42.42698" lon="2.7347">
        <ele>1335.8000488281</ele>
        <time>2023-07-13T10:38:21.000Z</time>
      </trkpt>
      <trkpt lat="42.427" lon="2.73467">
        <ele>1334.8000488281</ele>
        <time>2023-07-13T10:38:25.000Z</time>
      </trkpt>
      <trkpt lat="42.42701" lon="2.73465">
        <ele>1334.1999511719</ele>
        <time>2023-07-13T10:38:28.000Z</time>
      </trkpt>
      <trkpt lat="42.42703" lon="2.73463">
        <ele>1333.8000488281</ele>
        <time>2023-07-13T10:38:31.000Z</time>
      </trkpt>
      <trkpt lat="42.42706" lon="2.73458">
        <ele>1332.8000488281</ele>
        <time>2023-07-13T10:38:36.000Z</time>
      </trkpt>
      <trkpt lat="42.42706" lon="2.73458">
        <ele>1332.5999755859</ele>
        <time>2023-07-13T10:38:37.000Z</time>
      </trkpt>
      <trkpt lat="42.42708" lon="2.73453">
        <ele>1331.8000488281</ele>
        <time>2023-07-13T10:38:41.000Z</time>
      </trkpt>
      <trkpt lat="42.42711" lon="2.73447">
        <ele>1331.1999511719</ele>
        <time>2023-07-13T10:38:45.000Z</time>
      </trkpt>
      <trkpt lat="42.42711" lon="2.73445">
        <ele>1330.8000488281</ele>
        <time>2023-07-13T10:38:47.000Z</time>
      </trkpt>
      <trkpt lat="42.4271" lon="2.73441">
        <ele>1330</ele>
        <time>2023-07-13T10:38:52.000Z</time>
      </trkpt>
      <trkpt lat="42.4271" lon="2.7344">
        <ele>1329.8000488281</ele>
        <time>2023-07-13T10:38:53.000Z</time>
      </trkpt>
      <trkpt lat="42.42708" lon="2.73435">
        <ele>1328.8000488281</ele>
        <time>2023-07-13T10:39:00.000Z</time>
      </trkpt>
      <trkpt lat="42.42708" lon="2.73433">
        <ele>1328.4000244141</ele>
        <time>2023-07-13T10:39:02.000Z</time>
      </trkpt>
      <trkpt lat="42.42708" lon="2.73429">
        <ele>1327.8000488281</ele>
        <time>2023-07-13T10:39:05.000Z</time>
      </trkpt>
      <trkpt lat="42.42707" lon="2.73424">
        <ele>1326.8000488281</ele>
        <time>2023-07-13T10:39:10.000Z</time>
      </trkpt>
      <trkpt lat="42.42707" lon="2.73423">
        <ele>1326.5999755859</ele>
        <time>2023-07-13T10:39:11.000Z</time>
      </trkpt>
      <trkpt lat="42.42706" lon="2.73416">
        <ele>1325.4000244141</ele>
        <time>2023-07-13T10:39:18.000Z</time>
      </trkpt>
      <trkpt lat="42.42706" lon="2.73415">
        <ele>1325.1999511719</ele>
        <time>2023-07-13T10:39:19.000Z</time>
      </trkpt>
      <trkpt lat="42.42708" lon="2.7341">
        <ele>1324.4000244141</ele>
        <time>2023-07-13T10:39:24.000Z</time>
      </trkpt>
      <trkpt lat="42.42708" lon="2.73404">
        <ele>1323.8000488281</ele>
        <time>2023-07-13T10:39:28.000Z</time>
      </trkpt>
      <trkpt lat="42.42706" lon="2.734">
        <ele>1323.1999511719</ele>
        <time>2023-07-13T10:39:31.000Z</time>
      </trkpt>
      <trkpt lat="42.42705" lon="2.73395">
        <ele>1322.4000244141</ele>
        <time>2023-07-13T10:39:36.000Z</time>
      </trkpt>
      <trkpt lat="42.42704" lon="2.73389">
        <ele>1322</ele>
        <time>2023-07-13T10:39:39.000Z</time>
      </trkpt>
      <trkpt lat="42.42706" lon="2.73379">
        <ele>1321.4000244141</ele>
        <time>2023-07-13T10:39:46.000Z</time>
      </trkpt>
      <trkpt lat="42.42706" lon="2.73374">
        <ele>1321</ele>
        <time>2023-07-13T10:39:49.000Z</time>
      </trkpt>
      <trkpt lat="42.42707" lon="2.73367">
        <ele>1320</ele>
        <time>2023-07-13T10:39:54.000Z</time>
      </trkpt>
      <trkpt lat="42.42707" lon="2.73365">
        <ele>1319.5999755859</ele>
        <time>2023-07-13T10:39:56.000Z</time>
      </trkpt>
      <trkpt lat="42.42704" lon="2.73356">
        <ele>1319</ele>
        <time>2023-07-13T10:40:01.000Z</time>
      </trkpt>
      <trkpt lat="42.42704" lon="2.7335">
        <ele>1318</ele>
        <time>2023-07-13T10:40:07.000Z</time>
      </trkpt>
      <trkpt lat="42.42704" lon="2.73347">
        <ele>1318</ele>
        <time>2023-07-13T10:40:09.000Z</time>
      </trkpt>
      <trkpt lat="42.42704" lon="2.73334">
        <ele>1317.4000244141</ele>
        <time>2023-07-13T10:40:16.000Z</time>
      </trkpt>
      <trkpt lat="42.42707" lon="2.73326">
        <ele>1316.8000488281</ele>
        <time>2023-07-13T10:40:22.000Z</time>
      </trkpt>
      <trkpt lat="42.42707" lon="2.73322">
        <ele>1316.5999755859</ele>
        <time>2023-07-13T10:40:24.000Z</time>
      </trkpt>
      <trkpt lat="42.42705" lon="2.73313">
        <ele>1316</ele>
        <time>2023-07-13T10:40:31.000Z</time>
      </trkpt>
      <trkpt lat="42.42705" lon="2.7331">
        <ele>1315.8000488281</ele>
        <time>2023-07-13T10:40:33.000Z</time>
      </trkpt>
      <trkpt lat="42.42703" lon="2.733">
        <ele>1315.8000488281</ele>
        <time>2023-07-13T10:40:39.000Z</time>
      </trkpt>
      <trkpt lat="42.42701" lon="2.73286">
        <ele>1316.5999755859</ele>
        <time>2023-07-13T10:40:47.000Z</time>
      </trkpt>
      <trkpt lat="42.427" lon="2.73284">
        <ele>1316.8000488281</ele>
        <time>2023-07-13T10:40:49.000Z</time>
      </trkpt>
      <trkpt lat="42.42699" lon="2.73277">
        <ele>1317.4000244141</ele>
        <time>2023-07-13T10:40:54.000Z</time>
      </trkpt>
      <trkpt lat="42.42702" lon="2.73272">
        <ele>1318</ele>
        <time>2023-07-13T10:40:59.000Z</time>
      </trkpt>
      <trkpt lat="42.42706" lon="2.73266">
        <ele>1319.1999511719</ele>
        <time>2023-07-13T10:41:05.000Z</time>
      </trkpt>
      <trkpt lat="42.42709" lon="2.73259">
        <ele>1320.1999511719</ele>
        <time>2023-07-13T10:41:12.000Z</time>
      </trkpt>
      <trkpt lat="42.42709" lon="2.73256">
        <ele>1320.5999755859</ele>
        <time>2023-07-13T10:41:15.000Z</time>
      </trkpt>
      <trkpt lat="42.4271" lon="2.7325">
        <ele>1321.4000244141</ele>
        <time>2023-07-13T10:41:20.000Z</time>
      </trkpt>
      <trkpt lat="42.4271" lon="2.73247">
        <ele>1321.8000488281</ele>
        <time>2023-07-13T10:41:23.000Z</time>
      </trkpt>
      <trkpt lat="42.42709" lon="2.73245">
        <ele>1322.4000244141</ele>
        <time>2023-07-13T10:41:25.000Z</time>
      </trkpt>
      <trkpt lat="42.42708" lon="2.73239">
        <ele>1323.1999511719</ele>
        <time>2023-07-13T10:41:32.000Z</time>
      </trkpt>
      <trkpt lat="42.42709" lon="2.73238">
        <ele>1323.4000244141</ele>
        <time>2023-07-13T10:41:33.000Z</time>
      </trkpt>
      <trkpt lat="42.42709" lon="2.73231">
        <ele>1324.4000244141</ele>
        <time>2023-07-13T10:41:39.000Z</time>
      </trkpt>
      <trkpt lat="42.4271" lon="2.7323">
        <ele>1324.5999755859</ele>
        <time>2023-07-13T10:41:40.000Z</time>
      </trkpt>
      <trkpt lat="42.4271" lon="2.73217">
        <ele>1324.8000488281</ele>
        <time>2023-07-13T10:41:49.000Z</time>
      </trkpt>
      <trkpt lat="42.42711" lon="2.73209">
        <ele>1325.4000244141</ele>
        <time>2023-07-13T10:41:56.000Z</time>
      </trkpt>
      <trkpt lat="42.42712" lon="2.73201">
        <ele>1325.1999511719</ele>
        <time>2023-07-13T10:42:04.000Z</time>
      </trkpt>
      <trkpt lat="42.42706" lon="2.73192">
        <ele>1324.5999755859</ele>
        <time>2023-07-13T10:42:11.000Z</time>
      </trkpt>
      <trkpt lat="42.42701" lon="2.73185">
        <ele>1324.4000244141</ele>
        <time>2023-07-13T10:42:21.000Z</time>
      </trkpt>
      <trkpt lat="42.42694" lon="2.73179">
        <ele>1323.1999511719</ele>
        <time>2023-07-13T10:42:28.000Z</time>
      </trkpt>
      <trkpt lat="42.42693" lon="2.73178">
        <ele>1323</ele>
        <time>2023-07-13T10:42:29.000Z</time>
      </trkpt>
      <trkpt lat="42.42673" lon="2.73162">
        <ele>1322.4000244141</ele>
        <time>2023-07-13T10:42:52.000Z</time>
      </trkpt>
      <trkpt lat="42.42672" lon="2.73161">
        <ele>1322.4000244141</ele>
        <time>2023-07-13T10:42:54.000Z</time>
      </trkpt>
      <trkpt lat="42.42663" lon="2.73163">
        <ele>1321</ele>
        <time>2023-07-13T10:43:05.000Z</time>
      </trkpt>
      <trkpt lat="42.42663" lon="2.73163">
        <ele>1321</ele>
        <time>2023-07-13T10:43:06.000Z</time>
      </trkpt>
      <trkpt lat="42.42662" lon="2.73164">
        <ele>1321</ele>
        <time>2023-07-13T10:43:14.000Z</time>
      </trkpt>
      <trkpt lat="42.42661" lon="2.73163">
        <ele>1320.8000488281</ele>
        <time>2023-07-13T10:43:24.000Z</time>
      </trkpt>
      <trkpt lat="42.4266" lon="2.73164">
        <ele>1320.1999511719</ele>
        <time>2023-07-13T10:43:30.000Z</time>
      </trkpt>
      <trkpt lat="42.4266" lon="2.73163">
        <ele>1320</ele>
        <time>2023-07-13T10:43:32.000Z</time>
      </trkpt>
      <trkpt lat="42.42658" lon="2.73161">
        <ele>1319.1999511719</ele>
        <time>2023-07-13T10:43:36.000Z</time>
      </trkpt>
      <trkpt lat="42.42657" lon="2.73161">
        <ele>1319</ele>
        <time>2023-07-13T10:43:37.000Z</time>
      </trkpt>
      <trkpt lat="42.4265" lon="2.73155">
        <ele>1316.8000488281</ele>
        <time>2023-07-13T10:43:51.000Z</time>
      </trkpt>
      <trkpt lat="42.42647" lon="2.73153">
        <ele>1316.4000244141</ele>
        <time>2023-07-13T10:43:54.000Z</time>
      </trkpt>
      <trkpt lat="42.42641" lon="2.73148">
        <ele>1315.8000488281</ele>
        <time>2023-07-13T10:44:01.000Z</time>
      </trkpt>
      <trkpt lat="42.42636" lon="2.73149">
        <ele>1316</ele>
        <time>2023-07-13T10:44:08.000Z</time>
      </trkpt>
      <trkpt lat="42.42629" lon="2.73151">
        <ele>1315.5999755859</ele>
        <time>2023-07-13T10:44:15.000Z</time>
      </trkpt>
      <trkpt lat="42.42615" lon="2.73132">
        <ele>1310.1999511719</ele>
        <time>2023-07-13T10:44:42.000Z</time>
      </trkpt>
      <trkpt lat="42.42615" lon="2.73129">
        <ele>1309.8000488281</ele>
        <time>2023-07-13T10:44:45.000Z</time>
      </trkpt>
      <trkpt lat="42.42615" lon="2.73127">
        <ele>1309</ele>
        <time>2023-07-13T10:44:49.000Z</time>
      </trkpt>
      <trkpt lat="42.42615" lon="2.73125">
        <ele>1309</ele>
        <time>2023-07-13T10:44:51.000Z</time>
      </trkpt>
      <trkpt lat="42.42612" lon="2.73125">
        <ele>1308</ele>
        <time>2023-07-13T10:44:58.000Z</time>
      </trkpt>
      <trkpt lat="42.4261" lon="2.73124">
        <ele>1307.4000244141</ele>
        <time>2023-07-13T10:45:01.000Z</time>
      </trkpt>
      <trkpt lat="42.42594" lon="2.73105">
        <ele>1306</ele>
        <time>2023-07-13T10:45:20.000Z</time>
      </trkpt>
      <trkpt lat="42.4257" lon="2.73101">
        <ele>1307.5999755859</ele>
        <time>2023-07-13T10:45:45.000Z</time>
      </trkpt>
      <trkpt lat="42.42566" lon="2.73103">
        <ele>1308.4000244141</ele>
        <time>2023-07-13T10:45:51.000Z</time>
      </trkpt>
      <trkpt lat="42.4256" lon="2.73107">
        <ele>1308.8000488281</ele>
        <time>2023-07-13T10:46:01.000Z</time>
      </trkpt>
      <trkpt lat="42.42559" lon="2.73108">
        <ele>1309</ele>
        <time>2023-07-13T10:46:02.000Z</time>
      </trkpt>
      <trkpt lat="42.4255" lon="2.73108">
        <ele>1309.8000488281</ele>
        <time>2023-07-13T10:46:12.000Z</time>
      </trkpt>
      <trkpt lat="42.42549" lon="2.73108">
        <ele>1310</ele>
        <time>2023-07-13T10:46:13.000Z</time>
      </trkpt>
      <trkpt lat="42.42541" lon="2.73106">
        <ele>1311.5999755859</ele>
        <time>2023-07-13T10:46:20.000Z</time>
      </trkpt>
      <trkpt lat="42.42539" lon="2.73102">
        <ele>1312</ele>
        <time>2023-07-13T10:46:22.000Z</time>
      </trkpt>
      <trkpt lat="42.42539" lon="2.73101">
        <ele>1312</ele>
        <time>2023-07-13T10:46:23.000Z</time>
      </trkpt>
      <trkpt lat="42.42539" lon="2.731">
        <ele>1312.1999511719</ele>
        <time>2023-07-13T10:46:24.000Z</time>
      </trkpt>
      <trkpt lat="42.42538" lon="2.731">
        <ele>1312.4000244141</ele>
        <time>2023-07-13T10:46:30.000Z</time>
      </trkpt>
      <trkpt lat="42.42517" lon="2.73088">
        <ele>1317.8000488281</ele>
        <time>2023-07-13T10:46:58.000Z</time>
      </trkpt>
      <trkpt lat="42.42514" lon="2.73085">
        <ele>1318.5999755859</ele>
        <time>2023-07-13T10:47:02.000Z</time>
      </trkpt>
      <trkpt lat="42.42513" lon="2.73086">
        <ele>1319.4000244141</ele>
        <time>2023-07-13T10:47:18.000Z</time>
      </trkpt>
      <trkpt lat="42.42513" lon="2.73077">
        <ele>1319.4000244141</ele>
        <time>2023-07-13T10:47:28.000Z</time>
      </trkpt>
      <trkpt lat="42.42514" lon="2.73079">
        <ele>1319.5999755859</ele>
        <time>2023-07-13T10:47:35.000Z</time>
      </trkpt>
      <trkpt lat="42.42507" lon="2.73073">
        <ele>1320</ele>
        <time>2023-07-13T10:47:43.000Z</time>
      </trkpt>
      <trkpt lat="42.42506" lon="2.73072">
        <ele>1320.1999511719</ele>
        <time>2023-07-13T10:47:44.000Z</time>
      </trkpt>
      <trkpt lat="42.42504" lon="2.73069">
        <ele>1321.1999511719</ele>
        <time>2023-07-13T10:47:48.000Z</time>
      </trkpt>
      <trkpt lat="42.42503" lon="2.73065">
        <ele>1322.4000244141</ele>
        <time>2023-07-13T10:47:53.000Z</time>
      </trkpt>
      <trkpt lat="42.42503" lon="2.73064">
        <ele>1322.5999755859</ele>
        <time>2023-07-13T10:47:54.000Z</time>
      </trkpt>
      <trkpt lat="42.42502" lon="2.73057">
        <ele>1323</ele>
        <time>2023-07-13T10:48:01.000Z</time>
      </trkpt>
      <trkpt lat="42.42501" lon="2.73056">
        <ele>1323.1999511719</ele>
        <time>2023-07-13T10:48:02.000Z</time>
      </trkpt>
      <trkpt lat="42.42501" lon="2.73054">
        <ele>1323.4000244141</ele>
        <time>2023-07-13T10:48:04.000Z</time>
      </trkpt>
      <trkpt lat="42.42501" lon="2.73047">
        <ele>1323.5999755859</ele>
        <time>2023-07-13T10:48:09.000Z</time>
      </trkpt>
      <trkpt lat="42.42497" lon="2.73036">
        <ele>1323.1999511719</ele>
        <time>2023-07-13T10:48:17.000Z</time>
      </trkpt>
      <trkpt lat="42.42493" lon="2.73025">
        <ele>1322.4000244141</ele>
        <time>2023-07-13T10:48:23.000Z</time>
      </trkpt>
      <trkpt lat="42.42492" lon="2.73021">
        <ele>1322.1999511719</ele>
        <time>2023-07-13T10:48:26.000Z</time>
      </trkpt>
      <trkpt lat="42.42487" lon="2.73008">
        <ele>1323</ele>
        <time>2023-07-13T10:48:35.000Z</time>
      </trkpt>
      <trkpt lat="42.42487" lon="2.73005">
        <ele>1323.4000244141</ele>
        <time>2023-07-13T10:48:38.000Z</time>
      </trkpt>
      <trkpt lat="42.42485" lon="2.73">
        <ele>1323.8000488281</ele>
        <time>2023-07-13T10:48:43.000Z</time>
      </trkpt>
      <trkpt lat="42.42485" lon="2.72997">
        <ele>1324.4000244141</ele>
        <time>2023-07-13T10:48:47.000Z</time>
      </trkpt>
      <trkpt lat="42.42485" lon="2.72995">
        <ele>1324.8000488281</ele>
        <time>2023-07-13T10:48:50.000Z</time>
      </trkpt>
      <trkpt lat="42.42483" lon="2.72992">
        <ele>1325.5999755859</ele>
        <time>2023-07-13T10:48:54.000Z</time>
      </trkpt>
      <trkpt lat="42.4248" lon="2.72984">
        <ele>1326</ele>
        <time>2023-07-13T10:48:59.000Z</time>
      </trkpt>
      <trkpt lat="42.42481" lon="2.72973">
        <ele>1325.5999755859</ele>
        <time>2023-07-13T10:49:07.000Z</time>
      </trkpt>
      <trkpt lat="42.42487" lon="2.72964">
        <ele>1326</ele>
        <time>2023-07-13T10:49:15.000Z</time>
      </trkpt>
      <trkpt lat="42.42488" lon="2.72959">
        <ele>1326.5999755859</ele>
        <time>2023-07-13T10:49:19.000Z</time>
      </trkpt>
      <trkpt lat="42.42493" lon="2.72948">
        <ele>1327.4000244141</ele>
        <time>2023-07-13T10:49:28.000Z</time>
      </trkpt>
      <trkpt lat="42.42495" lon="2.72944">
        <ele>1327.5999755859</ele>
        <time>2023-07-13T10:49:31.000Z</time>
      </trkpt>
      <trkpt lat="42.42498" lon="2.72936">
        <ele>1328.1999511719</ele>
        <time>2023-07-13T10:49:36.000Z</time>
      </trkpt>
      <trkpt lat="42.42499" lon="2.72932">
        <ele>1328.5999755859</ele>
        <time>2023-07-13T10:49:39.000Z</time>
      </trkpt>
      <trkpt lat="42.425" lon="2.72923">
        <ele>1329.8000488281</ele>
        <time>2023-07-13T10:49:47.000Z</time>
      </trkpt>
      <trkpt lat="42.42501" lon="2.7291">
        <ele>1330.5999755859</ele>
        <time>2023-07-13T10:49:55.000Z</time>
      </trkpt>
      <trkpt lat="42.42501" lon="2.72906">
        <ele>1330.8000488281</ele>
        <time>2023-07-13T10:49:58.000Z</time>
      </trkpt>
      <trkpt lat="42.425" lon="2.72901">
        <ele>1331.1999511719</ele>
        <time>2023-07-13T10:50:02.000Z</time>
      </trkpt>
      <trkpt lat="42.425" lon="2.72895">
        <ele>1331.8000488281</ele>
        <time>2023-07-13T10:50:06.000Z</time>
      </trkpt>
      <trkpt lat="42.425" lon="2.72887">
        <ele>1332.5999755859</ele>
        <time>2023-07-13T10:50:12.000Z</time>
      </trkpt>
      <trkpt lat="42.425" lon="2.72885">
        <ele>1332.8000488281</ele>
        <time>2023-07-13T10:50:14.000Z</time>
      </trkpt>
      <trkpt lat="42.42497" lon="2.72881">
        <ele>1333.1999511719</ele>
        <time>2023-07-13T10:50:19.000Z</time>
      </trkpt>
      <trkpt lat="42.42495" lon="2.72879">
        <ele>1333.8000488281</ele>
        <time>2023-07-13T10:50:24.000Z</time>
      </trkpt>
      <trkpt lat="42.42494" lon="2.72879">
        <ele>1334.1999511719</ele>
        <time>2023-07-13T10:50:26.000Z</time>
      </trkpt>
      <trkpt lat="42.42495" lon="2.7288">
        <ele>1335</ele>
        <time>2023-07-13T10:50:31.000Z</time>
      </trkpt>
      <trkpt lat="42.42497" lon="2.72887">
        <ele>1335.4000244141</ele>
        <time>2023-07-13T10:50:34.000Z</time>
      </trkpt>
      <trkpt lat="42.42502" lon="2.72888">
        <ele>1335.5999755859</ele>
        <time>2023-07-13T10:50:42.000Z</time>
      </trkpt>
      <trkpt lat="42.425" lon="2.72885">
        <ele>1335.5999755859</ele>
        <time>2023-07-13T10:50:52.000Z</time>
      </trkpt>
      <trkpt lat="42.425" lon="2.72889">
        <ele>1335.5999755859</ele>
        <time>2023-07-13T10:50:58.000Z</time>
      </trkpt>
      <trkpt lat="42.42499" lon="2.72892">
        <ele>1336.1999511719</ele>
        <time>2023-07-13T10:51:02.000Z</time>
      </trkpt>
      <trkpt lat="42.42497" lon="2.72896">
        <ele>1336.8000488281</ele>
        <time>2023-07-13T10:51:07.000Z</time>
      </trkpt>
      <trkpt lat="42.42495" lon="2.72897">
        <ele>1337.1999511719</ele>
        <time>2023-07-13T10:51:09.000Z</time>
      </trkpt>
      <trkpt lat="42.42493" lon="2.72895">
        <ele>1338.1999511719</ele>
        <time>2023-07-13T10:51:14.000Z</time>
      </trkpt>
      <trkpt lat="42.42488" lon="2.72893">
        <ele>1339.1999511719</ele>
        <time>2023-07-13T10:51:22.000Z</time>
      </trkpt>
      <trkpt lat="42.42476" lon="2.72883">
        <ele>1340.8000488281</ele>
        <time>2023-07-13T10:51:32.000Z</time>
      </trkpt>
      <trkpt lat="42.42474" lon="2.72876">
        <ele>1341.4000244141</ele>
        <time>2023-07-13T10:51:38.000Z</time>
      </trkpt>
      <trkpt lat="42.42473" lon="2.72874">
        <ele>1342</ele>
        <time>2023-07-13T10:51:42.000Z</time>
      </trkpt>
      <trkpt lat="42.42469" lon="2.72866">
        <ele>1342.4000244141</ele>
        <time>2023-07-13T10:51:49.000Z</time>
      </trkpt>
      <trkpt lat="42.42469" lon="2.72866">
        <ele>1342.4000244141</ele>
        <time>2023-07-13T10:51:50.000Z</time>
      </trkpt>
      <trkpt lat="42.4246" lon="2.72859">
        <ele>1344.1999511719</ele>
        <time>2023-07-13T10:52:02.000Z</time>
      </trkpt>
      <trkpt lat="42.42458" lon="2.72856">
        <ele>1344.8000488281</ele>
        <time>2023-07-13T10:52:05.000Z</time>
      </trkpt>
      <trkpt lat="42.42455" lon="2.72854">
        <ele>1345.4000244141</ele>
        <time>2023-07-13T10:52:10.000Z</time>
      </trkpt>
      <trkpt lat="42.42453" lon="2.72852">
        <ele>1345.8000488281</ele>
        <time>2023-07-13T10:52:13.000Z</time>
      </trkpt>
      <trkpt lat="42.42448" lon="2.72846">
        <ele>1346.5999755859</ele>
        <time>2023-07-13T10:52:20.000Z</time>
      </trkpt>
      <trkpt lat="42.42447" lon="2.72844">
        <ele>1347</ele>
        <time>2023-07-13T10:52:22.000Z</time>
      </trkpt>
      <trkpt lat="42.42444" lon="2.72837">
        <ele>1347.8000488281</ele>
        <time>2023-07-13T10:52:28.000Z</time>
      </trkpt>
      <trkpt lat="42.42444" lon="2.72836">
        <ele>1348</ele>
        <time>2023-07-13T10:52:29.000Z</time>
      </trkpt>
      <trkpt lat="42.42442" lon="2.72833">
        <ele>1349.1999511719</ele>
        <time>2023-07-13T10:52:35.000Z</time>
      </trkpt>
      <trkpt lat="42.42442" lon="2.72832">
        <ele>1349.1999511719</ele>
        <time>2023-07-13T10:52:36.000Z</time>
      </trkpt>
      <trkpt lat="42.42439" lon="2.72828">
        <ele>1350.1999511719</ele>
        <time>2023-07-13T10:52:42.000Z</time>
      </trkpt>
      <trkpt lat="42.42438" lon="2.72827">
        <ele>1350.5999755859</ele>
        <time>2023-07-13T10:52:44.000Z</time>
      </trkpt>
      <trkpt lat="42.42435" lon="2.72814">
        <ele>1351</ele>
        <time>2023-07-13T10:52:53.000Z</time>
      </trkpt>
      <trkpt lat="42.42434" lon="2.72811">
        <ele>1351.4000244141</ele>
        <time>2023-07-13T10:52:56.000Z</time>
      </trkpt>
      <trkpt lat="42.42433" lon="2.72806">
        <ele>1352.4000244141</ele>
        <time>2023-07-13T10:53:02.000Z</time>
      </trkpt>
      <trkpt lat="42.42426" lon="2.72797">
        <ele>1353</ele>
        <time>2023-07-13T10:53:08.000Z</time>
      </trkpt>
      <trkpt lat="42.42424" lon="2.72792">
        <ele>1353.5999755859</ele>
        <time>2023-07-13T10:53:13.000Z</time>
      </trkpt>
      <trkpt lat="42.42424" lon="2.72791">
        <ele>1353.5999755859</ele>
        <time>2023-07-13T10:53:14.000Z</time>
      </trkpt>
      <trkpt lat="42.42421" lon="2.7278">
        <ele>1354.4000244141</ele>
        <time>2023-07-13T10:53:22.000Z</time>
      </trkpt>
      <trkpt lat="42.42418" lon="2.72769">
        <ele>1354.5999755859</ele>
        <time>2023-07-13T10:53:29.000Z</time>
      </trkpt>
      <trkpt lat="42.42417" lon="2.72768">
        <ele>1354.5999755859</ele>
        <time>2023-07-13T10:53:30.000Z</time>
      </trkpt>
      <trkpt lat="42.42418" lon="2.72758">
        <ele>1354.8000488281</ele>
        <time>2023-07-13T10:53:38.000Z</time>
      </trkpt>
      <trkpt lat="42.42418" lon="2.72747">
        <ele>1355.4000244141</ele>
        <time>2023-07-13T10:53:47.000Z</time>
      </trkpt>
      <trkpt lat="42.42418" lon="2.72747">
        <ele>1355.5999755859</ele>
        <time>2023-07-13T10:53:48.000Z</time>
      </trkpt>
      <trkpt lat="42.42417" lon="2.72735">
        <ele>1355.8000488281</ele>
        <time>2023-07-13T10:53:55.000Z</time>
      </trkpt>
      <trkpt lat="42.42419" lon="2.72721">
        <ele>1355</ele>
        <time>2023-07-13T10:54:03.000Z</time>
      </trkpt>
      <trkpt lat="42.42419" lon="2.72712">
        <ele>1354.5999755859</ele>
        <time>2023-07-13T10:54:07.000Z</time>
      </trkpt>
      <trkpt lat="42.42418" lon="2.72705">
        <ele>1354</ele>
        <time>2023-07-13T10:54:11.000Z</time>
      </trkpt>
      <trkpt lat="42.4242" lon="2.72699">
        <ele>1353.4000244141</ele>
        <time>2023-07-13T10:54:15.000Z</time>
      </trkpt>
      <trkpt lat="42.42421" lon="2.72693">
        <ele>1353</ele>
        <time>2023-07-13T10:54:20.000Z</time>
      </trkpt>
      <trkpt lat="42.42422" lon="2.7268">
        <ele>1353.1999511719</ele>
        <time>2023-07-13T10:54:30.000Z</time>
      </trkpt>
      <trkpt lat="42.42424" lon="2.72667">
        <ele>1353.1999511719</ele>
        <time>2023-07-13T10:54:38.000Z</time>
      </trkpt>
      <trkpt lat="42.42424" lon="2.72662">
        <ele>1352.4000244141</ele>
        <time>2023-07-13T10:54:42.000Z</time>
      </trkpt>
      <trkpt lat="42.42421" lon="2.72659">
        <ele>1352</ele>
        <time>2023-07-13T10:54:44.000Z</time>
      </trkpt>
      <trkpt lat="42.42419" lon="2.72655">
        <ele>1351.8000488281</ele>
        <time>2023-07-13T10:54:46.000Z</time>
      </trkpt>
      <trkpt lat="42.42416" lon="2.72644">
        <ele>1351.5999755859</ele>
        <time>2023-07-13T10:54:53.000Z</time>
      </trkpt>
      <trkpt lat="42.42415" lon="2.7264">
        <ele>1351.4000244141</ele>
        <time>2023-07-13T10:54:57.000Z</time>
      </trkpt>
      <trkpt lat="42.42414" lon="2.72636">
        <ele>1350.5999755859</ele>
        <time>2023-07-13T10:55:01.000Z</time>
      </trkpt>
      <trkpt lat="42.42415" lon="2.72634">
        <ele>1350.4000244141</ele>
        <time>2023-07-13T10:55:02.000Z</time>
      </trkpt>
      <trkpt lat="42.42414" lon="2.72618">
        <ele>1349.4000244141</ele>
        <time>2023-07-13T10:55:11.000Z</time>
      </trkpt>
      <trkpt lat="42.42413" lon="2.72615">
        <ele>1349.4000244141</ele>
        <time>2023-07-13T10:55:12.000Z</time>
      </trkpt>
      <trkpt lat="42.4241" lon="2.72606">
        <ele>1349</ele>
        <time>2023-07-13T10:55:18.000Z</time>
      </trkpt>
      <trkpt lat="42.42409" lon="2.72598">
        <ele>1348.8000488281</ele>
        <time>2023-07-13T10:55:24.000Z</time>
      </trkpt>
      <trkpt lat="42.42406" lon="2.72589">
        <ele>1348.4000244141</ele>
        <time>2023-07-13T10:55:29.000Z</time>
      </trkpt>
      <trkpt lat="42.42406" lon="2.72584">
        <ele>1347.8000488281</ele>
        <time>2023-07-13T10:55:33.000Z</time>
      </trkpt>
      <trkpt lat="42.42406" lon="2.72573">
        <ele>1347.1999511719</ele>
        <time>2023-07-13T10:55:39.000Z</time>
      </trkpt>
      <trkpt lat="42.42406" lon="2.72568">
        <ele>1346.8000488281</ele>
        <time>2023-07-13T10:55:44.000Z</time>
      </trkpt>
      <trkpt lat="42.42406" lon="2.72556">
        <ele>1346.1999511719</ele>
        <time>2023-07-13T10:55:51.000Z</time>
      </trkpt>
      <trkpt lat="42.42407" lon="2.72554">
        <ele>1345.8000488281</ele>
        <time>2023-07-13T10:55:53.000Z</time>
      </trkpt>
      <trkpt lat="42.42407" lon="2.72541">
        <ele>1345.4000244141</ele>
        <time>2023-07-13T10:56:01.000Z</time>
      </trkpt>
      <trkpt lat="42.42408" lon="2.72534">
        <ele>1345</ele>
        <time>2023-07-13T10:56:06.000Z</time>
      </trkpt>
      <trkpt lat="42.42408" lon="2.7253">
        <ele>1344.8000488281</ele>
        <time>2023-07-13T10:56:09.000Z</time>
      </trkpt>
      <trkpt lat="42.42409" lon="2.72521">
        <ele>1344</ele>
        <time>2023-07-13T10:56:16.000Z</time>
      </trkpt>
      <trkpt lat="42.42411" lon="2.72511">
        <ele>1343.1999511719</ele>
        <time>2023-07-13T10:56:24.000Z</time>
      </trkpt>
      <trkpt lat="42.42414" lon="2.72502">
        <ele>1343.8000488281</ele>
        <time>2023-07-13T10:56:35.000Z</time>
      </trkpt>
      <trkpt lat="42.42416" lon="2.725">
        <ele>1343.8000488281</ele>
        <time>2023-07-13T10:56:43.000Z</time>
      </trkpt>
      <trkpt lat="42.42415" lon="2.72494">
        <ele>1343.4000244141</ele>
        <time>2023-07-13T10:56:51.000Z</time>
      </trkpt>
      <trkpt lat="42.42413" lon="2.72483">
        <ele>1342.8000488281</ele>
        <time>2023-07-13T10:56:57.000Z</time>
      </trkpt>
      <trkpt lat="42.42413" lon="2.72482">
        <ele>1342.5999755859</ele>
        <time>2023-07-13T10:56:58.000Z</time>
      </trkpt>
      <trkpt lat="42.42416" lon="2.72471">
        <ele>1341.8000488281</ele>
        <time>2023-07-13T10:57:05.000Z</time>
      </trkpt>
      <trkpt lat="42.42422" lon="2.7246">
        <ele>1341</ele>
        <time>2023-07-13T10:57:15.000Z</time>
      </trkpt>
      <trkpt lat="42.42423" lon="2.72459">
        <ele>1340.5999755859</ele>
        <time>2023-07-13T10:57:17.000Z</time>
      </trkpt>
      <trkpt lat="42.42426" lon="2.72456">
        <ele>1340.4000244141</ele>
        <time>2023-07-13T10:57:23.000Z</time>
      </trkpt>
      <trkpt lat="42.42426" lon="2.72456">
        <ele>1340.4000244141</ele>
        <time>2023-07-13T10:57:24.000Z</time>
      </trkpt>
      <trkpt lat="42.42428" lon="2.72453">
        <ele>1340.5999755859</ele>
        <time>2023-07-13T10:57:31.000Z</time>
      </trkpt>
      <trkpt lat="42.4243" lon="2.72448">
        <ele>1340.5999755859</ele>
        <time>2023-07-13T10:57:40.000Z</time>
      </trkpt>
      <trkpt lat="42.42439" lon="2.72446">
        <ele>1339.5999755859</ele>
        <time>2023-07-13T10:57:48.000Z</time>
      </trkpt>
      <trkpt lat="42.42441" lon="2.72446">
        <ele>1339.4000244141</ele>
        <time>2023-07-13T10:57:50.000Z</time>
      </trkpt>
      <trkpt lat="42.42447" lon="2.7244">
        <ele>1338.5999755859</ele>
        <time>2023-07-13T10:57:57.000Z</time>
      </trkpt>
      <trkpt lat="42.42449" lon="2.72439">
        <ele>1338.5999755859</ele>
        <time>2023-07-13T10:57:59.000Z</time>
      </trkpt>
      <trkpt lat="42.42457" lon="2.7243">
        <ele>1337.8000488281</ele>
        <time>2023-07-13T10:58:08.000Z</time>
      </trkpt>
      <trkpt lat="42.42462" lon="2.7242">
        <ele>1337.8000488281</ele>
        <time>2023-07-13T10:58:17.000Z</time>
      </trkpt>
      <trkpt lat="42.42466" lon="2.72409">
        <ele>1339.1999511719</ele>
        <time>2023-07-13T10:58:26.000Z</time>
      </trkpt>
      <trkpt lat="42.42469" lon="2.72405">
        <ele>1339.8000488281</ele>
        <time>2023-07-13T10:58:30.000Z</time>
      </trkpt>
      <trkpt lat="42.42473" lon="2.72401">
        <ele>1340.4000244141</ele>
        <time>2023-07-13T10:58:35.000Z</time>
      </trkpt>
      <trkpt lat="42.42483" lon="2.72396">
        <ele>1340.4000244141</ele>
        <time>2023-07-13T10:58:43.000Z</time>
      </trkpt>
      <trkpt lat="42.42491" lon="2.72392">
        <ele>1339.5999755859</ele>
        <time>2023-07-13T10:58:51.000Z</time>
      </trkpt>
      <trkpt lat="42.42495" lon="2.72388">
        <ele>1338.8000488281</ele>
        <time>2023-07-13T10:58:55.000Z</time>
      </trkpt>
      <trkpt lat="42.42497" lon="2.72387">
        <ele>1338.4000244141</ele>
        <time>2023-07-13T10:58:57.000Z</time>
      </trkpt>
      <trkpt lat="42.42501" lon="2.72385">
        <ele>1337.5999755859</ele>
        <time>2023-07-13T10:59:01.000Z</time>
      </trkpt>
      <trkpt lat="42.42504" lon="2.72382">
        <ele>1337</ele>
        <time>2023-07-13T10:59:04.000Z</time>
      </trkpt>
      <trkpt lat="42.42507" lon="2.72381">
        <ele>1336.5999755859</ele>
        <time>2023-07-13T10:59:06.000Z</time>
      </trkpt>
      <trkpt lat="42.4251" lon="2.72377">
        <ele>1336.1999511719</ele>
        <time>2023-07-13T10:59:10.000Z</time>
      </trkpt>
      <trkpt lat="42.42517" lon="2.72369">
        <ele>1336</ele>
        <time>2023-07-13T10:59:17.000Z</time>
      </trkpt>
      <trkpt lat="42.42519" lon="2.72367">
        <ele>1336.5999755859</ele>
        <time>2023-07-13T10:59:23.000Z</time>
      </trkpt>
      <trkpt lat="42.42519" lon="2.72368">
        <ele>1336.5999755859</ele>
        <time>2023-07-13T10:59:24.000Z</time>
      </trkpt>
      <trkpt lat="42.42519" lon="2.72372">
        <ele>1336.1999511719</ele>
        <time>2023-07-13T10:59:30.000Z</time>
      </trkpt>
      <trkpt lat="42.4252" lon="2.72372">
        <ele>1335.8000488281</ele>
        <time>2023-07-13T10:59:38.000Z</time>
      </trkpt>
      <trkpt lat="42.42521" lon="2.72372">
        <ele>1335.8000488281</ele>
        <time>2023-07-13T10:59:45.000Z</time>
      </trkpt>
      <trkpt lat="42.42522" lon="2.72372">
        <ele>1335.5999755859</ele>
        <time>2023-07-13T10:59:54.000Z</time>
      </trkpt>
      <trkpt lat="42.42522" lon="2.72372">
        <ele>1335.5999755859</ele>
        <time>2023-07-13T10:59:56.000Z</time>
      </trkpt>
      <trkpt lat="42.42525" lon="2.72362">
        <ele>1335.5999755859</ele>
        <time>2023-07-13T11:00:03.000Z</time>
      </trkpt>
      <trkpt lat="42.42522" lon="2.72358">
        <ele>1336.5999755859</ele>
        <time>2023-07-13T11:00:10.000Z</time>
      </trkpt>
      <trkpt lat="42.42518" lon="2.72358">
        <ele>1337.1999511719</ele>
        <time>2023-07-13T11:00:18.000Z</time>
      </trkpt>
      <trkpt lat="42.4252" lon="2.72358">
        <ele>1337.1999511719</ele>
        <time>2023-07-13T11:00:25.000Z</time>
      </trkpt>
      <trkpt lat="42.4252" lon="2.72357">
        <ele>1337</ele>
        <time>2023-07-13T11:00:33.000Z</time>
      </trkpt>
      <trkpt lat="42.42526" lon="2.72355">
        <ele>1336.1999511719</ele>
        <time>2023-07-13T11:00:42.000Z</time>
      </trkpt>
      <trkpt lat="42.42529" lon="2.72353">
        <ele>1336</ele>
        <time>2023-07-13T11:00:48.000Z</time>
      </trkpt>
      <trkpt lat="42.42524" lon="2.72352">
        <ele>1335.5999755859</ele>
        <time>2023-07-13T11:00:56.000Z</time>
      </trkpt>
      <trkpt lat="42.42521" lon="2.72358">
        <ele>1335.5999755859</ele>
        <time>2023-07-13T11:01:02.000Z</time>
      </trkpt>
      <trkpt lat="42.42521" lon="2.72359">
        <ele>1335.5999755859</ele>
        <time>2023-07-13T11:01:03.000Z</time>
      </trkpt>
      <trkpt lat="42.42524" lon="2.72361">
        <ele>1334.5999755859</ele>
        <time>2023-07-13T11:01:08.000Z</time>
      </trkpt>
      <trkpt lat="42.42525" lon="2.72362">
        <ele>1334</ele>
        <time>2023-07-13T11:01:11.000Z</time>
      </trkpt>
      <trkpt lat="42.42526" lon="2.72363">
        <ele>1333.5999755859</ele>
        <time>2023-07-13T11:01:19.000Z</time>
      </trkpt>
      <trkpt lat="42.42526" lon="2.72363">
        <ele>1333.5999755859</ele>
        <time>2023-07-13T11:01:20.000Z</time>
      </trkpt>
      <trkpt lat="42.42527" lon="2.72356">
        <ele>1332.8000488281</ele>
        <time>2023-07-13T11:01:31.000Z</time>
      </trkpt>
      <trkpt lat="42.42527" lon="2.72356">
        <ele>1332.4000244141</ele>
        <time>2023-07-13T11:01:32.000Z</time>
      </trkpt>
      <trkpt lat="42.42531" lon="2.72355">
        <ele>1331.4000244141</ele>
        <time>2023-07-13T11:01:36.000Z</time>
      </trkpt>
      <trkpt lat="42.42534" lon="2.72354">
        <ele>1330.8000488281</ele>
        <time>2023-07-13T11:01:39.000Z</time>
      </trkpt>
      <trkpt lat="42.42539" lon="2.72352">
        <ele>1330.1999511719</ele>
        <time>2023-07-13T11:01:43.000Z</time>
      </trkpt>
      <trkpt lat="42.42539" lon="2.72351">
        <ele>1329.5999755859</ele>
        <time>2023-07-13T11:01:46.000Z</time>
      </trkpt>
      <trkpt lat="42.42541" lon="2.72348">
        <ele>1329.4000244141</ele>
        <time>2023-07-13T11:01:57.000Z</time>
      </trkpt>
      <trkpt lat="42.42541" lon="2.72346">
        <ele>1329.1999511719</ele>
        <time>2023-07-13T11:02:03.000Z</time>
      </trkpt>
      <trkpt lat="42.42542" lon="2.72345">
        <ele>1329</ele>
        <time>2023-07-13T11:02:05.000Z</time>
      </trkpt>
      <trkpt lat="42.42546" lon="2.7234">
        <ele>1328.4000244141</ele>
        <time>2023-07-13T11:02:13.000Z</time>
      </trkpt>
      <trkpt lat="42.42548" lon="2.72334">
        <ele>1328.1999511719</ele>
        <time>2023-07-13T11:02:19.000Z</time>
      </trkpt>
      <trkpt lat="42.42547" lon="2.72333">
        <ele>1328</ele>
        <time>2023-07-13T11:02:21.000Z</time>
      </trkpt>
      <trkpt lat="42.42546" lon="2.72331">
        <ele>1327.8000488281</ele>
        <time>2023-07-13T11:02:31.000Z</time>
      </trkpt>
      <trkpt lat="42.42542" lon="2.72325">
        <ele>1327.5999755859</ele>
        <time>2023-07-13T11:02:41.000Z</time>
      </trkpt>
      <trkpt lat="42.42542" lon="2.72325">
        <ele>1327.4000244141</ele>
        <time>2023-07-13T11:02:49.000Z</time>
      </trkpt>
      <trkpt lat="42.42547" lon="2.72332">
        <ele>1327.4000244141</ele>
        <time>2023-07-13T11:02:57.000Z</time>
      </trkpt>
      <trkpt lat="42.42553" lon="2.7233">
        <ele>1327.1999511719</ele>
        <time>2023-07-13T11:03:06.000Z</time>
      </trkpt>
      <trkpt lat="42.4256" lon="2.72329">
        <ele>1327.8000488281</ele>
        <time>2023-07-13T11:03:15.000Z</time>
      </trkpt>
      <trkpt lat="42.4256" lon="2.72328">
        <ele>1327.8000488281</ele>
        <time>2023-07-13T11:03:25.000Z</time>
      </trkpt>
      <trkpt lat="42.42558" lon="2.72324">
        <ele>1327.8000488281</ele>
        <time>2023-07-13T11:03:34.000Z</time>
      </trkpt>
      <trkpt lat="42.42558" lon="2.72326">
        <ele>1327.5999755859</ele>
        <time>2023-07-13T11:03:43.000Z</time>
      </trkpt>
      <trkpt lat="42.42561" lon="2.72326">
        <ele>1327.4000244141</ele>
        <time>2023-07-13T11:03:51.000Z</time>
      </trkpt>
      <trkpt lat="42.42565" lon="2.72326">
        <ele>1327.1999511719</ele>
        <time>2023-07-13T11:03:55.000Z</time>
      </trkpt>
      <trkpt lat="42.42569" lon="2.72324">
        <ele>1326.4000244141</ele>
        <time>2023-07-13T11:04:00.000Z</time>
      </trkpt>
      <trkpt lat="42.42571" lon="2.72323">
        <ele>1326</ele>
        <time>2023-07-13T11:04:02.000Z</time>
      </trkpt>
      <trkpt lat="42.42574" lon="2.7232">
        <ele>1325</ele>
        <time>2023-07-13T11:04:08.000Z</time>
      </trkpt>
      <trkpt lat="42.42574" lon="2.7232">
        <ele>1324.8000488281</ele>
        <time>2023-07-13T11:04:09.000Z</time>
      </trkpt>
      <trkpt lat="42.42579" lon="2.72315">
        <ele>1324</ele>
        <time>2023-07-13T11:04:15.000Z</time>
      </trkpt>
      <trkpt lat="42.4258" lon="2.72315">
        <ele>1323.8000488281</ele>
        <time>2023-07-13T11:04:16.000Z</time>
      </trkpt>
      <trkpt lat="42.42589" lon="2.72308">
        <ele>1323</ele>
        <time>2023-07-13T11:04:23.000Z</time>
      </trkpt>
      <trkpt lat="42.42594" lon="2.72309">
        <ele>1322.8000488281</ele>
        <time>2023-07-13T11:04:30.000Z</time>
      </trkpt>
      <trkpt lat="42.426" lon="2.72307">
        <ele>1322.5999755859</ele>
        <time>2023-07-13T11:04:36.000Z</time>
      </trkpt>
      <trkpt lat="42.42602" lon="2.72306">
        <ele>1322</ele>
        <time>2023-07-13T11:04:39.000Z</time>
      </trkpt>
      <trkpt lat="42.42603" lon="2.72304">
        <ele>1321.5999755859</ele>
        <time>2023-07-13T11:04:42.000Z</time>
      </trkpt>
      <trkpt lat="42.42605" lon="2.72298">
        <ele>1320.5999755859</ele>
        <time>2023-07-13T11:04:47.000Z</time>
      </trkpt>
      <trkpt lat="42.42606" lon="2.72297">
        <ele>1320.4000244141</ele>
        <time>2023-07-13T11:04:48.000Z</time>
      </trkpt>
      <trkpt lat="42.42609" lon="2.72295">
        <ele>1319.4000244141</ele>
        <time>2023-07-13T11:04:54.000Z</time>
      </trkpt>
      <trkpt lat="42.42609" lon="2.72294">
        <ele>1319.1999511719</ele>
        <time>2023-07-13T11:04:55.000Z</time>
      </trkpt>
      <trkpt lat="42.42612" lon="2.72294">
        <ele>1318.1999511719</ele>
        <time>2023-07-13T11:04:59.000Z</time>
      </trkpt>
      <trkpt lat="42.42614" lon="2.72294">
        <ele>1317.4000244141</ele>
        <time>2023-07-13T11:05:04.000Z</time>
      </trkpt>
      <trkpt lat="42.42615" lon="2.72294">
        <ele>1317.1999511719</ele>
        <time>2023-07-13T11:05:05.000Z</time>
      </trkpt>
      <trkpt lat="42.42615" lon="2.72294">
        <ele>1317</ele>
        <time>2023-07-13T11:05:06.000Z</time>
      </trkpt>
      <trkpt lat="42.42618" lon="2.72292">
        <ele>1316</ele>
        <time>2023-07-13T11:05:12.000Z</time>
      </trkpt>
      <trkpt lat="42.42619" lon="2.72292">
        <ele>1315.8000488281</ele>
        <time>2023-07-13T11:05:13.000Z</time>
      </trkpt>
      <trkpt lat="42.42622" lon="2.72291">
        <ele>1314.5999755859</ele>
        <time>2023-07-13T11:05:18.000Z</time>
      </trkpt>
      <trkpt lat="42.42624" lon="2.7229">
        <ele>1314.1999511719</ele>
        <time>2023-07-13T11:05:20.000Z</time>
      </trkpt>
      <trkpt lat="42.42627" lon="2.72289">
        <ele>1313.5999755859</ele>
        <time>2023-07-13T11:05:23.000Z</time>
      </trkpt>
      <trkpt lat="42.4263" lon="2.72289">
        <ele>1312.8000488281</ele>
        <time>2023-07-13T11:05:27.000Z</time>
      </trkpt>
      <trkpt lat="42.42631" lon="2.72289">
        <ele>1312.4000244141</ele>
        <time>2023-07-13T11:05:29.000Z</time>
      </trkpt>
      <trkpt lat="42.42637" lon="2.72288">
        <ele>1312.1999511719</ele>
        <time>2023-07-13T11:05:38.000Z</time>
      </trkpt>
      <trkpt lat="42.42637" lon="2.72285">
        <ele>1312.1999511719</ele>
        <time>2023-07-13T11:05:44.000Z</time>
      </trkpt>
      <trkpt lat="42.42637" lon="2.72279">
        <ele>1311.5999755859</ele>
        <time>2023-07-13T11:05:53.000Z</time>
      </trkpt>
      <trkpt lat="42.42637" lon="2.72278">
        <ele>1311.4000244141</ele>
        <time>2023-07-13T11:05:54.000Z</time>
      </trkpt>
      <trkpt lat="42.4264" lon="2.72274">
        <ele>1310.4000244141</ele>
        <time>2023-07-13T11:06:00.000Z</time>
      </trkpt>
      <trkpt lat="42.42641" lon="2.72273">
        <ele>1310.4000244141</ele>
        <time>2023-07-13T11:06:01.000Z</time>
      </trkpt>
      <trkpt lat="42.42647" lon="2.72268">
        <ele>1309.5999755859</ele>
        <time>2023-07-13T11:06:09.000Z</time>
      </trkpt>
      <trkpt lat="42.4265" lon="2.72268">
        <ele>1309.4000244141</ele>
        <time>2023-07-13T11:06:11.000Z</time>
      </trkpt>
      <trkpt lat="42.42656" lon="2.72266">
        <ele>1308.8000488281</ele>
        <time>2023-07-13T11:06:18.000Z</time>
      </trkpt>
      <trkpt lat="42.42667" lon="2.72263">
        <ele>1308.4000244141</ele>
        <time>2023-07-13T11:06:27.000Z</time>
      </trkpt>
      <trkpt lat="42.42669" lon="2.72263">
        <ele>1308.1999511719</ele>
        <time>2023-07-13T11:06:29.000Z</time>
      </trkpt>
      <trkpt lat="42.42677" lon="2.72261">
        <ele>1307.5999755859</ele>
        <time>2023-07-13T11:06:36.000Z</time>
      </trkpt>
      <trkpt lat="42.42679" lon="2.72261">
        <ele>1307</ele>
        <time>2023-07-13T11:06:38.000Z</time>
      </trkpt>
      <trkpt lat="42.42683" lon="2.72258">
        <ele>1306</ele>
        <time>2023-07-13T11:06:43.000Z</time>
      </trkpt>
      <trkpt lat="42.42684" lon="2.72258">
        <ele>1305.8000488281</ele>
        <time>2023-07-13T11:06:44.000Z</time>
      </trkpt>
      <trkpt lat="42.42691" lon="2.72255">
        <ele>1305</ele>
        <time>2023-07-13T11:06:51.000Z</time>
      </trkpt>
      <trkpt lat="42.42695" lon="2.72255">
        <ele>1304.8000488281</ele>
        <time>2023-07-13T11:06:54.000Z</time>
      </trkpt>
      <trkpt lat="42.42703" lon="2.72253">
        <ele>1304.1999511719</ele>
        <time>2023-07-13T11:07:00.000Z</time>
      </trkpt>
      <trkpt lat="42.42706" lon="2.72252">
        <ele>1303.8000488281</ele>
        <time>2023-07-13T11:07:02.000Z</time>
      </trkpt>
      <trkpt lat="42.42711" lon="2.72244">
        <ele>1303</ele>
        <time>2023-07-13T11:07:08.000Z</time>
      </trkpt>
      <trkpt lat="42.42714" lon="2.72241">
        <ele>1302.8000488281</ele>
        <time>2023-07-13T11:07:10.000Z</time>
      </trkpt>
      <trkpt lat="42.42721" lon="2.72237">
        <ele>1301.8000488281</ele>
        <time>2023-07-13T11:07:16.000Z</time>
      </trkpt>
      <trkpt lat="42.42722" lon="2.72237">
        <ele>1301.5999755859</ele>
        <time>2023-07-13T11:07:17.000Z</time>
      </trkpt>
      <trkpt lat="42.42729" lon="2.72231">
        <ele>1301</ele>
        <time>2023-07-13T11:07:24.000Z</time>
      </trkpt>
      <trkpt lat="42.42731" lon="2.72229">
        <ele>1300.4000244141</ele>
        <time>2023-07-13T11:07:27.000Z</time>
      </trkpt>
      <trkpt lat="42.42737" lon="2.72228">
        <ele>1299.8000488281</ele>
        <time>2023-07-13T11:07:32.000Z</time>
      </trkpt>
      <trkpt lat="42.42739" lon="2.72227">
        <ele>1299.4000244141</ele>
        <time>2023-07-13T11:07:34.000Z</time>
      </trkpt>
      <trkpt lat="42.42744" lon="2.72223">
        <ele>1298.4000244141</ele>
        <time>2023-07-13T11:07:40.000Z</time>
      </trkpt>
      <trkpt lat="42.42745" lon="2.72223">
        <ele>1298.1999511719</ele>
        <time>2023-07-13T11:07:41.000Z</time>
      </trkpt>
      <trkpt lat="42.42749" lon="2.7222">
        <ele>1297.1999511719</ele>
        <time>2023-07-13T11:07:48.000Z</time>
      </trkpt>
      <trkpt lat="42.42759" lon="2.72215">
        <ele>1296.4000244141</ele>
        <time>2023-07-13T11:07:58.000Z</time>
      </trkpt>
      <trkpt lat="42.4276" lon="2.72214">
        <ele>1296.1999511719</ele>
        <time>2023-07-13T11:07:59.000Z</time>
      </trkpt>
      <trkpt lat="42.42766" lon="2.72214">
        <ele>1295.8000488281</ele>
        <time>2023-07-13T11:08:06.000Z</time>
      </trkpt>
      <trkpt lat="42.42776" lon="2.72214">
        <ele>1295.5999755859</ele>
        <time>2023-07-13T11:08:14.000Z</time>
      </trkpt>
      <trkpt lat="42.42785" lon="2.72211">
        <ele>1295.1999511719</ele>
        <time>2023-07-13T11:08:22.000Z</time>
      </trkpt>
      <trkpt lat="42.42786" lon="2.7221">
        <ele>1295</ele>
        <time>2023-07-13T11:08:23.000Z</time>
      </trkpt>
      <trkpt lat="42.42795" lon="2.72202">
        <ele>1294.1999511719</ele>
        <time>2023-07-13T11:08:33.000Z</time>
      </trkpt>
      <trkpt lat="42.42796" lon="2.72202">
        <ele>1294</ele>
        <time>2023-07-13T11:08:34.000Z</time>
      </trkpt>
      <trkpt lat="42.428" lon="2.72198">
        <ele>1293.1999511719</ele>
        <time>2023-07-13T11:08:40.000Z</time>
      </trkpt>
      <trkpt lat="42.42807" lon="2.722">
        <ele>1293</ele>
        <time>2023-07-13T11:08:46.000Z</time>
      </trkpt>
      <trkpt lat="42.42808" lon="2.72201">
        <ele>1292.8000488281</ele>
        <time>2023-07-13T11:08:47.000Z</time>
      </trkpt>
      <trkpt lat="42.42811" lon="2.72202">
        <ele>1292</ele>
        <time>2023-07-13T11:08:51.000Z</time>
      </trkpt>
      <trkpt lat="42.42813" lon="2.72203">
        <ele>1291</ele>
        <time>2023-07-13T11:08:55.000Z</time>
      </trkpt>
      <trkpt lat="42.42818" lon="2.72203">
        <ele>1289.8000488281</ele>
        <time>2023-07-13T11:08:59.000Z</time>
      </trkpt>
      <trkpt lat="42.42822" lon="2.72204">
        <ele>1288.5999755859</ele>
        <time>2023-07-13T11:09:03.000Z</time>
      </trkpt>
      <trkpt lat="42.42825" lon="2.72205">
        <ele>1287.4000244141</ele>
        <time>2023-07-13T11:09:07.000Z</time>
      </trkpt>
      <trkpt lat="42.42827" lon="2.72206">
        <ele>1286.4000244141</ele>
        <time>2023-07-13T11:09:11.000Z</time>
      </trkpt>
      <trkpt lat="42.42827" lon="2.72209">
        <ele>1285.1999511719</ele>
        <time>2023-07-13T11:09:15.000Z</time>
      </trkpt>
      <trkpt lat="42.42826" lon="2.72214">
        <ele>1284.1999511719</ele>
        <time>2023-07-13T11:09:19.000Z</time>
      </trkpt>
      <trkpt lat="42.42826" lon="2.72216">
        <ele>1284</ele>
        <time>2023-07-13T11:09:20.000Z</time>
      </trkpt>
      <trkpt lat="42.42828" lon="2.72223">
        <ele>1282.8000488281</ele>
        <time>2023-07-13T11:09:24.000Z</time>
      </trkpt>
      <trkpt lat="42.42829" lon="2.72225">
        <ele>1282.4000244141</ele>
        <time>2023-07-13T11:09:26.000Z</time>
      </trkpt>
      <trkpt lat="42.42831" lon="2.72224">
        <ele>1281.8000488281</ele>
        <time>2023-07-13T11:09:30.000Z</time>
      </trkpt>
      <trkpt lat="42.42832" lon="2.7222">
        <ele>1280.4000244141</ele>
        <time>2023-07-13T11:09:34.000Z</time>
      </trkpt>
      <trkpt lat="42.42835" lon="2.72217">
        <ele>1279.1999511719</ele>
        <time>2023-07-13T11:09:38.000Z</time>
      </trkpt>
      <trkpt lat="42.42838" lon="2.72213">
        <ele>1278</ele>
        <time>2023-07-13T11:09:42.000Z</time>
      </trkpt>
      <trkpt lat="42.42839" lon="2.72211">
        <ele>1277</ele>
        <time>2023-07-13T11:09:45.000Z</time>
      </trkpt>
      <trkpt lat="42.42841" lon="2.72209">
        <ele>1276</ele>
        <time>2023-07-13T11:09:49.000Z</time>
      </trkpt>
      <trkpt lat="42.42841" lon="2.72208">
        <ele>1275.8000488281</ele>
        <time>2023-07-13T11:09:50.000Z</time>
      </trkpt>
      <trkpt lat="42.42844" lon="2.72206">
        <ele>1275</ele>
        <time>2023-07-13T11:09:54.000Z</time>
      </trkpt>
      <trkpt lat="42.42847" lon="2.72204">
        <ele>1274</ele>
        <time>2023-07-13T11:09:58.000Z</time>
      </trkpt>
      <trkpt lat="42.42848" lon="2.72203">
        <ele>1273.8000488281</ele>
        <time>2023-07-13T11:09:59.000Z</time>
      </trkpt>
      <trkpt lat="42.4285" lon="2.72203">
        <ele>1272.4000244141</ele>
        <time>2023-07-13T11:10:04.000Z</time>
      </trkpt>
      <trkpt lat="42.42854" lon="2.72203">
        <ele>1271.5999755859</ele>
        <time>2023-07-13T11:10:07.000Z</time>
      </trkpt>
      <trkpt lat="42.42855" lon="2.72203">
        <ele>1271.4000244141</ele>
        <time>2023-07-13T11:10:08.000Z</time>
      </trkpt>
      <trkpt lat="42.42858" lon="2.72201">
        <ele>1270.4000244141</ele>
        <time>2023-07-13T11:10:13.000Z</time>
      </trkpt>
      <trkpt lat="42.42859" lon="2.722">
        <ele>1269.8000488281</ele>
        <time>2023-07-13T11:10:15.000Z</time>
      </trkpt>
      <trkpt lat="42.4286" lon="2.72199">
        <ele>1269.4000244141</ele>
        <time>2023-07-13T11:10:17.000Z</time>
      </trkpt>
      <trkpt lat="42.42863" lon="2.72196">
        <ele>1268.1999511719</ele>
        <time>2023-07-13T11:10:21.000Z</time>
      </trkpt>
      <trkpt lat="42.42863" lon="2.72195">
        <ele>1268.1999511719</ele>
        <time>2023-07-13T11:10:22.000Z</time>
      </trkpt>
      <trkpt lat="42.42866" lon="2.72192">
        <ele>1267.1999511719</ele>
        <time>2023-07-13T11:10:26.000Z</time>
      </trkpt>
      <trkpt lat="42.42867" lon="2.72189">
        <ele>1266.5999755859</ele>
        <time>2023-07-13T11:10:30.000Z</time>
      </trkpt>
      <trkpt lat="42.42868" lon="2.72188">
        <ele>1266</ele>
        <time>2023-07-13T11:10:32.000Z</time>
      </trkpt>
      <trkpt lat="42.42871" lon="2.72181">
        <ele>1266.1999511719</ele>
        <time>2023-07-13T11:10:39.000Z</time>
      </trkpt>
      <trkpt lat="42.42876" lon="2.72174">
        <ele>1266.1999511719</ele>
        <time>2023-07-13T11:10:47.000Z</time>
      </trkpt>
      <trkpt lat="42.42883" lon="2.72168">
        <ele>1265.8000488281</ele>
        <time>2023-07-13T11:10:55.000Z</time>
      </trkpt>
      <trkpt lat="42.42886" lon="2.72168">
        <ele>1265</ele>
        <time>2023-07-13T11:11:00.000Z</time>
      </trkpt>
      <trkpt lat="42.42888" lon="2.72165">
        <ele>1263.8000488281</ele>
        <time>2023-07-13T11:11:05.000Z</time>
      </trkpt>
      <trkpt lat="42.42888" lon="2.72165">
        <ele>1263.5999755859</ele>
        <time>2023-07-13T11:11:06.000Z</time>
      </trkpt>
      <trkpt lat="42.42888" lon="2.72164">
        <ele>1263.4000244141</ele>
        <time>2023-07-13T11:11:07.000Z</time>
      </trkpt>
      <trkpt lat="42.42889" lon="2.7216">
        <ele>1263.5999755859</ele>
        <time>2023-07-13T11:11:12.000Z</time>
      </trkpt>
      <trkpt lat="42.42891" lon="2.72156">
        <ele>1264</ele>
        <time>2023-07-13T11:11:18.000Z</time>
      </trkpt>
      <trkpt lat="42.42895" lon="2.72151">
        <ele>1264.1999511719</ele>
        <time>2023-07-13T11:11:25.000Z</time>
      </trkpt>
      <trkpt lat="42.429" lon="2.72145">
        <ele>1262.5999755859</ele>
        <time>2023-07-13T11:11:33.000Z</time>
      </trkpt>
      <trkpt lat="42.42903" lon="2.72141">
        <ele>1261.5999755859</ele>
        <time>2023-07-13T11:11:39.000Z</time>
      </trkpt>
      <trkpt lat="42.42904" lon="2.72139">
        <ele>1261</ele>
        <time>2023-07-13T11:11:42.000Z</time>
      </trkpt>
      <trkpt lat="42.42905" lon="2.72138">
        <ele>1260.4000244141</ele>
        <time>2023-07-13T11:11:45.000Z</time>
      </trkpt>
      <trkpt lat="42.42909" lon="2.72131">
        <ele>1259.5999755859</ele>
        <time>2023-07-13T11:11:51.000Z</time>
      </trkpt>
      <trkpt lat="42.42911" lon="2.72128">
        <ele>1259.4000244141</ele>
        <time>2023-07-13T11:11:54.000Z</time>
      </trkpt>
      <trkpt lat="42.42918" lon="2.72128">
        <ele>1258.5999755859</ele>
        <time>2023-07-13T11:11:59.000Z</time>
      </trkpt>
      <trkpt lat="42.42921" lon="2.7213">
        <ele>1258.4000244141</ele>
        <time>2023-07-13T11:12:01.000Z</time>
      </trkpt>
      <trkpt lat="42.42924" lon="2.72131">
        <ele>1257.5999755859</ele>
        <time>2023-07-13T11:12:04.000Z</time>
      </trkpt>
      <trkpt lat="42.42927" lon="2.7213">
        <ele>1257.4000244141</ele>
        <time>2023-07-13T11:12:10.000Z</time>
      </trkpt>
      <trkpt lat="42.42927" lon="2.7213">
        <ele>1257.4000244141</ele>
        <time>2023-07-13T11:12:11.000Z</time>
      </trkpt>
      <trkpt lat="42.42933" lon="2.72128">
        <ele>1257</ele>
        <time>2023-07-13T11:12:17.000Z</time>
      </trkpt>
      <trkpt lat="42.42938" lon="2.72126">
        <ele>1257</ele>
        <time>2023-07-13T11:12:24.000Z</time>
      </trkpt>
      <trkpt lat="42.42946" lon="2.72125">
        <ele>1257.4000244141</ele>
        <time>2023-07-13T11:12:31.000Z</time>
      </trkpt>
      <trkpt lat="42.42952" lon="2.72124">
        <ele>1258.4000244141</ele>
        <time>2023-07-13T11:12:38.000Z</time>
      </trkpt>
      <trkpt lat="42.42953" lon="2.72123">
        <ele>1258.4000244141</ele>
        <time>2023-07-13T11:12:39.000Z</time>
      </trkpt>
      <trkpt lat="42.42956" lon="2.72119">
        <ele>1259.4000244141</ele>
        <time>2023-07-13T11:12:45.000Z</time>
      </trkpt>
      <trkpt lat="42.42957" lon="2.72118">
        <ele>1259.5999755859</ele>
        <time>2023-07-13T11:12:46.000Z</time>
      </trkpt>
      <trkpt lat="42.4296" lon="2.72114">
        <ele>1260</ele>
        <time>2023-07-13T11:12:53.000Z</time>
      </trkpt>
      <trkpt lat="42.42961" lon="2.7211">
        <ele>1259</ele>
        <time>2023-07-13T11:12:59.000Z</time>
      </trkpt>
      <trkpt lat="42.42962" lon="2.72106">
        <ele>1258.4000244141</ele>
        <time>2023-07-13T11:13:03.000Z</time>
      </trkpt>
      <trkpt lat="42.42963" lon="2.72103">
        <ele>1257.4000244141</ele>
        <time>2023-07-13T11:13:08.000Z</time>
      </trkpt>
      <trkpt lat="42.42963" lon="2.72103">
        <ele>1257.1999511719</ele>
        <time>2023-07-13T11:13:09.000Z</time>
      </trkpt>
      <trkpt lat="42.42967" lon="2.72101">
        <ele>1256.5999755859</ele>
        <time>2023-07-13T11:13:14.000Z</time>
      </trkpt>
      <trkpt lat="42.4297" lon="2.721">
        <ele>1256</ele>
        <time>2023-07-13T11:13:18.000Z</time>
      </trkpt>
      <trkpt lat="42.42971" lon="2.72099">
        <ele>1255.8000488281</ele>
        <time>2023-07-13T11:13:20.000Z</time>
      </trkpt>
      <trkpt lat="42.42974" lon="2.72097">
        <ele>1255</ele>
        <time>2023-07-13T11:13:24.000Z</time>
      </trkpt>
      <trkpt lat="42.42976" lon="2.72095">
        <ele>1254.8000488281</ele>
        <time>2023-07-13T11:13:27.000Z</time>
      </trkpt>
      <trkpt lat="42.42977" lon="2.72091">
        <ele>1254.1999511719</ele>
        <time>2023-07-13T11:13:36.000Z</time>
      </trkpt>
      <trkpt lat="42.42977" lon="2.72091">
        <ele>1253.8000488281</ele>
        <time>2023-07-13T11:13:37.000Z</time>
      </trkpt>
      <trkpt lat="42.42978" lon="2.72088">
        <ele>1252.8000488281</ele>
        <time>2023-07-13T11:13:43.000Z</time>
      </trkpt>
      <trkpt lat="42.42981" lon="2.72086">
        <ele>1251.5999755859</ele>
        <time>2023-07-13T11:13:50.000Z</time>
      </trkpt>
      <trkpt lat="42.42981" lon="2.72085">
        <ele>1251.4000244141</ele>
        <time>2023-07-13T11:13:51.000Z</time>
      </trkpt>
      <trkpt lat="42.42986" lon="2.72083">
        <ele>1250.4000244141</ele>
        <time>2023-07-13T11:13:56.000Z</time>
      </trkpt>
      <trkpt lat="42.42986" lon="2.72082">
        <ele>1250.4000244141</ele>
        <time>2023-07-13T11:13:57.000Z</time>
      </trkpt>
      <trkpt lat="42.4299" lon="2.72078">
        <ele>1249.4000244141</ele>
        <time>2023-07-13T11:14:05.000Z</time>
      </trkpt>
      <trkpt lat="42.42993" lon="2.72077">
        <ele>1248.1999511719</ele>
        <time>2023-07-13T11:14:11.000Z</time>
      </trkpt>
      <trkpt lat="42.42993" lon="2.72076">
        <ele>1248</ele>
        <time>2023-07-13T11:14:12.000Z</time>
      </trkpt>
      <trkpt lat="42.42994" lon="2.72075">
        <ele>1247.1999511719</ele>
        <time>2023-07-13T11:14:19.000Z</time>
      </trkpt>
      <trkpt lat="42.42994" lon="2.72076">
        <ele>1247</ele>
        <time>2023-07-13T11:14:20.000Z</time>
      </trkpt>
      <trkpt lat="42.43" lon="2.72079">
        <ele>1246.5999755859</ele>
        <time>2023-07-13T11:14:28.000Z</time>
      </trkpt>
      <trkpt lat="42.43002" lon="2.72076">
        <ele>1246.4000244141</ele>
        <time>2023-07-13T11:14:34.000Z</time>
      </trkpt>
      <trkpt lat="42.43004" lon="2.72076">
        <ele>1246</ele>
        <time>2023-07-13T11:14:37.000Z</time>
      </trkpt>
      <trkpt lat="42.43011" lon="2.72077">
        <ele>1246.4000244141</ele>
        <time>2023-07-13T11:14:44.000Z</time>
      </trkpt>
      <trkpt lat="42.43016" lon="2.72075">
        <ele>1246.5999755859</ele>
        <time>2023-07-13T11:14:51.000Z</time>
      </trkpt>
      <trkpt lat="42.4302" lon="2.72071">
        <ele>1246.8000488281</ele>
        <time>2023-07-13T11:14:57.000Z</time>
      </trkpt>
      <trkpt lat="42.43024" lon="2.72068">
        <ele>1247</ele>
        <time>2023-07-13T11:15:03.000Z</time>
      </trkpt>
      <trkpt lat="42.43026" lon="2.72069">
        <ele>1247.4000244141</ele>
        <time>2023-07-13T11:15:06.000Z</time>
      </trkpt>
      <trkpt lat="42.43028" lon="2.72068">
        <ele>1248.1999511719</ele>
        <time>2023-07-13T11:15:11.000Z</time>
      </trkpt>
      <trkpt lat="42.43029" lon="2.72067">
        <ele>1248.4000244141</ele>
        <time>2023-07-13T11:15:13.000Z</time>
      </trkpt>
      <trkpt lat="42.43032" lon="2.72065">
        <ele>1247.8000488281</ele>
        <time>2023-07-13T11:15:21.000Z</time>
      </trkpt>
      <trkpt lat="42.43035" lon="2.72061">
        <ele>1247.1999511719</ele>
        <time>2023-07-13T11:15:27.000Z</time>
      </trkpt>
      <trkpt lat="42.43035" lon="2.7206">
        <ele>1246.8000488281</ele>
        <time>2023-07-13T11:15:29.000Z</time>
      </trkpt>
      <trkpt lat="42.43035" lon="2.72062">
        <ele>1246</ele>
        <time>2023-07-13T11:15:36.000Z</time>
      </trkpt>
      <trkpt lat="42.43035" lon="2.72062">
        <ele>1246</ele>
        <time>2023-07-13T11:15:37.000Z</time>
      </trkpt>
      <trkpt lat="42.4304" lon="2.72059">
        <ele>1245.8000488281</ele>
        <time>2023-07-13T11:15:45.000Z</time>
      </trkpt>
      <trkpt lat="42.43044" lon="2.72056">
        <ele>1245.5999755859</ele>
        <time>2023-07-13T11:15:52.000Z</time>
      </trkpt>
      <trkpt lat="42.43046" lon="2.72052">
        <ele>1245</ele>
        <time>2023-07-13T11:15:57.000Z</time>
      </trkpt>
      <trkpt lat="42.43047" lon="2.7205">
        <ele>1244.5999755859</ele>
        <time>2023-07-13T11:15:59.000Z</time>
      </trkpt>
      <trkpt lat="42.43051" lon="2.72047">
        <ele>1244</ele>
        <time>2023-07-13T11:16:04.000Z</time>
      </trkpt>
      <trkpt lat="42.43052" lon="2.72047">
        <ele>1243.8000488281</ele>
        <time>2023-07-13T11:16:06.000Z</time>
      </trkpt>
      <trkpt lat="42.43058" lon="2.72045">
        <ele>1243</ele>
        <time>2023-07-13T11:16:13.000Z</time>
      </trkpt>
      <trkpt lat="42.43058" lon="2.72045">
        <ele>1242.8000488281</ele>
        <time>2023-07-13T11:16:14.000Z</time>
      </trkpt>
      <trkpt lat="42.43062" lon="2.7204">
        <ele>1242.8000488281</ele>
        <time>2023-07-13T11:16:22.000Z</time>
      </trkpt>
      <trkpt lat="42.43065" lon="2.72035">
        <ele>1243</ele>
        <time>2023-07-13T11:16:30.000Z</time>
      </trkpt>
      <trkpt lat="42.43068" lon="2.72028">
        <ele>1243.4000244141</ele>
        <time>2023-07-13T11:16:37.000Z</time>
      </trkpt>
      <trkpt lat="42.43074" lon="2.72017">
        <ele>1243.8000488281</ele>
        <time>2023-07-13T11:16:48.000Z</time>
      </trkpt>
      <trkpt lat="42.43076" lon="2.72013">
        <ele>1244</ele>
        <time>2023-07-13T11:16:53.000Z</time>
      </trkpt>
      <trkpt lat="42.43077" lon="2.72011">
        <ele>1243.8000488281</ele>
        <time>2023-07-13T11:16:55.000Z</time>
      </trkpt>
      <trkpt lat="42.43077" lon="2.72007">
        <ele>1243.8000488281</ele>
        <time>2023-07-13T11:17:01.000Z</time>
      </trkpt>
      <trkpt lat="42.4308" lon="2.71999">
        <ele>1244.1999511719</ele>
        <time>2023-07-13T11:17:08.000Z</time>
      </trkpt>
      <trkpt lat="42.43086" lon="2.7199">
        <ele>1243.8000488281</ele>
        <time>2023-07-13T11:17:16.000Z</time>
      </trkpt>
      <trkpt lat="42.4309" lon="2.71985">
        <ele>1243.5999755859</ele>
        <time>2023-07-13T11:17:24.000Z</time>
      </trkpt>
      <trkpt lat="42.43092" lon="2.71983">
        <ele>1243.5999755859</ele>
        <time>2023-07-13T11:17:29.000Z</time>
      </trkpt>
      <trkpt lat="42.43094" lon="2.7198">
        <ele>1243.1999511719</ele>
        <time>2023-07-13T11:17:38.000Z</time>
      </trkpt>
      <trkpt lat="42.43096" lon="2.71978">
        <ele>1242.8000488281</ele>
        <time>2023-07-13T11:17:41.000Z</time>
      </trkpt>
      <trkpt lat="42.43099" lon="2.71974">
        <ele>1241.5999755859</ele>
        <time>2023-07-13T11:17:47.000Z</time>
      </trkpt>
      <trkpt lat="42.43103" lon="2.71972">
        <ele>1241</ele>
        <time>2023-07-13T11:17:56.000Z</time>
      </trkpt>
      <trkpt lat="42.43106" lon="2.71973">
        <ele>1240.5999755859</ele>
        <time>2023-07-13T11:18:03.000Z</time>
      </trkpt>
      <trkpt lat="42.43107" lon="2.71973">
        <ele>1240.1999511719</ele>
        <time>2023-07-13T11:18:05.000Z</time>
      </trkpt>
      <trkpt lat="42.43111" lon="2.71974">
        <ele>1239.4000244141</ele>
        <time>2023-07-13T11:18:10.000Z</time>
      </trkpt>
      <trkpt lat="42.43112" lon="2.71972">
        <ele>1239</ele>
        <time>2023-07-13T11:18:14.000Z</time>
      </trkpt>
      <trkpt lat="42.43112" lon="2.7197">
        <ele>1238.1999511719</ele>
        <time>2023-07-13T11:18:18.000Z</time>
      </trkpt>
      <trkpt lat="42.43115" lon="2.71965">
        <ele>1237.1999511719</ele>
        <time>2023-07-13T11:18:23.000Z</time>
      </trkpt>
      <trkpt lat="42.43116" lon="2.71964">
        <ele>1237</ele>
        <time>2023-07-13T11:18:24.000Z</time>
      </trkpt>
      <trkpt lat="42.43119" lon="2.7196">
        <ele>1236.4000244141</ele>
        <time>2023-07-13T11:18:30.000Z</time>
      </trkpt>
      <trkpt lat="42.4312" lon="2.71959">
        <ele>1236</ele>
        <time>2023-07-13T11:18:32.000Z</time>
      </trkpt>
      <trkpt lat="42.43121" lon="2.71956">
        <ele>1235.4000244141</ele>
        <time>2023-07-13T11:18:36.000Z</time>
      </trkpt>
      <trkpt lat="42.43123" lon="2.71953">
        <ele>1235</ele>
        <time>2023-07-13T11:18:39.000Z</time>
      </trkpt>
      <trkpt lat="42.43124" lon="2.71949">
        <ele>1234</ele>
        <time>2023-07-13T11:18:44.000Z</time>
      </trkpt>
      <trkpt lat="42.43124" lon="2.71946">
        <ele>1233.1999511719</ele>
        <time>2023-07-13T11:18:53.000Z</time>
      </trkpt>
      <trkpt lat="42.43124" lon="2.71945">
        <ele>1233</ele>
        <time>2023-07-13T11:18:54.000Z</time>
      </trkpt>
      <trkpt lat="42.43123" lon="2.71949">
        <ele>1233</ele>
        <time>2023-07-13T11:19:00.000Z</time>
      </trkpt>
      <trkpt lat="42.43122" lon="2.71948">
        <ele>1233</ele>
        <time>2023-07-13T11:19:08.000Z</time>
      </trkpt>
      <trkpt lat="42.43124" lon="2.71947">
        <ele>1233</ele>
        <time>2023-07-13T11:19:17.000Z</time>
      </trkpt>
      <trkpt lat="42.43124" lon="2.71947">
        <ele>1232.8000488281</ele>
        <time>2023-07-13T11:19:18.000Z</time>
      </trkpt>
      <trkpt lat="42.43128" lon="2.7195">
        <ele>1231.8000488281</ele>
        <time>2023-07-13T11:19:25.000Z</time>
      </trkpt>
      <trkpt lat="42.4313" lon="2.71948">
        <ele>1230.5999755859</ele>
        <time>2023-07-13T11:19:31.000Z</time>
      </trkpt>
      <trkpt lat="42.43129" lon="2.71948">
        <ele>1230.1999511719</ele>
        <time>2023-07-13T11:19:33.000Z</time>
      </trkpt>
      <trkpt lat="42.43131" lon="2.71949">
        <ele>1229.5999755859</ele>
        <time>2023-07-13T11:19:39.000Z</time>
      </trkpt>
      <trkpt lat="42.43132" lon="2.71948">
        <ele>1229.1999511719</ele>
        <time>2023-07-13T11:19:42.000Z</time>
      </trkpt>
      <trkpt lat="42.43131" lon="2.71946">
        <ele>1228.4000244141</ele>
        <time>2023-07-13T11:19:50.000Z</time>
      </trkpt>
      <trkpt lat="42.43131" lon="2.71946">
        <ele>1228.4000244141</ele>
        <time>2023-07-13T11:19:51.000Z</time>
      </trkpt>
      <trkpt lat="42.43132" lon="2.71944">
        <ele>1227.4000244141</ele>
        <time>2023-07-13T11:19:56.000Z</time>
      </trkpt>
      <trkpt lat="42.43134" lon="2.71942">
        <ele>1226.4000244141</ele>
        <time>2023-07-13T11:20:01.000Z</time>
      </trkpt>
      <trkpt lat="42.43134" lon="2.7194">
        <ele>1225.1999511719</ele>
        <time>2023-07-13T11:20:08.000Z</time>
      </trkpt>
      <trkpt lat="42.43134" lon="2.71939">
        <ele>1225.1999511719</ele>
        <time>2023-07-13T11:20:09.000Z</time>
      </trkpt>
      <trkpt lat="42.43137" lon="2.71936">
        <ele>1224.1999511719</ele>
        <time>2023-07-13T11:20:13.000Z</time>
      </trkpt>
      <trkpt lat="42.43139" lon="2.71935">
        <ele>1223.4000244141</ele>
        <time>2023-07-13T11:20:17.000Z</time>
      </trkpt>
      <trkpt lat="42.43139" lon="2.71935">
        <ele>1223.1999511719</ele>
        <time>2023-07-13T11:20:18.000Z</time>
      </trkpt>
      <trkpt lat="42.43138" lon="2.71934">
        <ele>1222</ele>
        <time>2023-07-13T11:20:22.000Z</time>
      </trkpt>
      <trkpt lat="42.43139" lon="2.71934">
        <ele>1221.8000488281</ele>
        <time>2023-07-13T11:20:23.000Z</time>
      </trkpt>
      <trkpt lat="42.4314" lon="2.71933">
        <ele>1221</ele>
        <time>2023-07-13T11:20:26.000Z</time>
      </trkpt>
      <trkpt lat="42.43141" lon="2.71935">
        <ele>1220</ele>
        <time>2023-07-13T11:20:32.000Z</time>
      </trkpt>
      <trkpt lat="42.43142" lon="2.71935">
        <ele>1220</ele>
        <time>2023-07-13T11:20:33.000Z</time>
      </trkpt>
      <trkpt lat="42.43145" lon="2.71932">
        <ele>1219</ele>
        <time>2023-07-13T11:20:38.000Z</time>
      </trkpt>
      <trkpt lat="42.43145" lon="2.71932">
        <ele>1218.8000488281</ele>
        <time>2023-07-13T11:20:39.000Z</time>
      </trkpt>
      <trkpt lat="42.43143" lon="2.71934">
        <ele>1218.5999755859</ele>
        <time>2023-07-13T11:20:47.000Z</time>
      </trkpt>
      <trkpt lat="42.43143" lon="2.71932">
        <ele>1218.5999755859</ele>
        <time>2023-07-13T11:20:57.000Z</time>
      </trkpt>
      <trkpt lat="42.43143" lon="2.71933">
        <ele>1218.8000488281</ele>
        <time>2023-07-13T11:21:06.000Z</time>
      </trkpt>
      <trkpt lat="42.43145" lon="2.71933">
        <ele>1218.5999755859</ele>
        <time>2023-07-13T11:21:13.000Z</time>
      </trkpt>
      <trkpt lat="42.43144" lon="2.71931">
        <ele>1217.5999755859</ele>
        <time>2023-07-13T11:21:17.000Z</time>
      </trkpt>
      <trkpt lat="42.43145" lon="2.7193">
        <ele>1217</ele>
        <time>2023-07-13T11:21:21.000Z</time>
      </trkpt>
      <trkpt lat="42.43146" lon="2.71929">
        <ele>1216.5999755859</ele>
        <time>2023-07-13T11:21:23.000Z</time>
      </trkpt>
      <trkpt lat="42.43148" lon="2.71929">
        <ele>1215.5999755859</ele>
        <time>2023-07-13T11:21:27.000Z</time>
      </trkpt>
      <trkpt lat="42.4315" lon="2.71927">
        <ele>1214.4000244141</ele>
        <time>2023-07-13T11:21:31.000Z</time>
      </trkpt>
      <trkpt lat="42.43152" lon="2.71926">
        <ele>1213.8000488281</ele>
        <time>2023-07-13T11:21:33.000Z</time>
      </trkpt>
      <trkpt lat="42.43153" lon="2.71926">
        <ele>1213.1999511719</ele>
        <time>2023-07-13T11:21:36.000Z</time>
      </trkpt>
      <trkpt lat="42.43154" lon="2.71924">
        <ele>1212.4000244141</ele>
        <time>2023-07-13T11:21:40.000Z</time>
      </trkpt>
      <trkpt lat="42.43154" lon="2.71925">
        <ele>1212.1999511719</ele>
        <time>2023-07-13T11:21:41.000Z</time>
      </trkpt>
      <trkpt lat="42.43154" lon="2.71923">
        <ele>1211.1999511719</ele>
        <time>2023-07-13T11:21:45.000Z</time>
      </trkpt>
      <trkpt lat="42.43154" lon="2.71922">
        <ele>1211.1999511719</ele>
        <time>2023-07-13T11:21:46.000Z</time>
      </trkpt>
      <trkpt lat="42.43155" lon="2.71919">
        <ele>1210.1999511719</ele>
        <time>2023-07-13T11:21:50.000Z</time>
      </trkpt>
      <trkpt lat="42.43156" lon="2.71918">
        <ele>1210</ele>
        <time>2023-07-13T11:21:52.000Z</time>
      </trkpt>
      <trkpt lat="42.43156" lon="2.71917">
        <ele>1208.8000488281</ele>
        <time>2023-07-13T11:21:58.000Z</time>
      </trkpt>
      <trkpt lat="42.4316" lon="2.71915">
        <ele>1208</ele>
        <time>2023-07-13T11:22:06.000Z</time>
      </trkpt>
      <trkpt lat="42.4316" lon="2.71914">
        <ele>1207.5999755859</ele>
        <time>2023-07-13T11:22:07.000Z</time>
      </trkpt>
      <trkpt lat="42.43161" lon="2.7191">
        <ele>1206.5999755859</ele>
        <time>2023-07-13T11:22:12.000Z</time>
      </trkpt>
      <trkpt lat="42.43162" lon="2.71909">
        <ele>1206.4000244141</ele>
        <time>2023-07-13T11:22:13.000Z</time>
      </trkpt>
      <trkpt lat="42.43163" lon="2.71905">
        <ele>1205.4000244141</ele>
        <time>2023-07-13T11:22:17.000Z</time>
      </trkpt>
      <trkpt lat="42.43164" lon="2.71899">
        <ele>1204.1999511719</ele>
        <time>2023-07-13T11:22:22.000Z</time>
      </trkpt>
      <trkpt lat="42.43165" lon="2.71897">
        <ele>1203.1999511719</ele>
        <time>2023-07-13T11:22:28.000Z</time>
      </trkpt>
      <trkpt lat="42.43165" lon="2.71897">
        <ele>1203.1999511719</ele>
        <time>2023-07-13T11:22:29.000Z</time>
      </trkpt>
      <trkpt lat="42.43164" lon="2.71897">
        <ele>1202.5999755859</ele>
        <time>2023-07-13T11:22:31.000Z</time>
      </trkpt>
      <trkpt lat="42.43164" lon="2.71896">
        <ele>1202.4000244141</ele>
        <time>2023-07-13T11:22:33.000Z</time>
      </trkpt>
      <trkpt lat="42.43164" lon="2.71896">
        <ele>1202</ele>
        <time>2023-07-13T11:22:35.000Z</time>
      </trkpt>
      <trkpt lat="42.43166" lon="2.71893">
        <ele>1201</ele>
        <time>2023-07-13T11:22:40.000Z</time>
      </trkpt>
      <trkpt lat="42.43167" lon="2.71893">
        <ele>1200.8000488281</ele>
        <time>2023-07-13T11:22:42.000Z</time>
      </trkpt>
      <trkpt lat="42.43169" lon="2.71891">
        <ele>1200</ele>
        <time>2023-07-13T11:22:46.000Z</time>
      </trkpt>
      <trkpt lat="42.43169" lon="2.71892">
        <ele>1199.8000488281</ele>
        <time>2023-07-13T11:22:48.000Z</time>
      </trkpt>
      <trkpt lat="42.43167" lon="2.7189">
        <ele>1199.1999511719</ele>
        <time>2023-07-13T11:22:56.000Z</time>
      </trkpt>
      <trkpt lat="42.43171" lon="2.7189">
        <ele>1199.1999511719</ele>
        <time>2023-07-13T11:23:07.000Z</time>
      </trkpt>
      <trkpt lat="42.4317" lon="2.71892">
        <ele>1199.1999511719</ele>
        <time>2023-07-13T11:23:14.000Z</time>
      </trkpt>
      <trkpt lat="42.4317" lon="2.71891">
        <ele>1198.8000488281</ele>
        <time>2023-07-13T11:23:18.000Z</time>
      </trkpt>
      <trkpt lat="42.4317" lon="2.7189">
        <ele>1198.4000244141</ele>
        <time>2023-07-13T11:23:23.000Z</time>
      </trkpt>
      <trkpt lat="42.43172" lon="2.71888">
        <ele>1197.8000488281</ele>
        <time>2023-07-13T11:23:29.000Z</time>
      </trkpt>
      <trkpt lat="42.43172" lon="2.71888">
        <ele>1197.1999511719</ele>
        <time>2023-07-13T11:23:32.000Z</time>
      </trkpt>
      <trkpt lat="42.43173" lon="2.71888">
        <ele>1196.5999755859</ele>
        <time>2023-07-13T11:23:34.000Z</time>
      </trkpt>
      <trkpt lat="42.43177" lon="2.71887">
        <ele>1195.5999755859</ele>
        <time>2023-07-13T11:23:39.000Z</time>
      </trkpt>
      <trkpt lat="42.43177" lon="2.71887">
        <ele>1195.5999755859</ele>
        <time>2023-07-13T11:23:40.000Z</time>
      </trkpt>
      <trkpt lat="42.4318" lon="2.71887">
        <ele>1194.5999755859</ele>
        <time>2023-07-13T11:23:48.000Z</time>
      </trkpt>
      <trkpt lat="42.43181" lon="2.71886">
        <ele>1194.5999755859</ele>
        <time>2023-07-13T11:23:49.000Z</time>
      </trkpt>
      <trkpt lat="42.43177" lon="2.71885">
        <ele>1193.8000488281</ele>
        <time>2023-07-13T11:23:56.000Z</time>
      </trkpt>
      <trkpt lat="42.43176" lon="2.71884">
        <ele>1193.4000244141</ele>
        <time>2023-07-13T11:23:59.000Z</time>
      </trkpt>
      <trkpt lat="42.43177" lon="2.71883">
        <ele>1192.4000244141</ele>
        <time>2023-07-13T11:24:04.000Z</time>
      </trkpt>
      <trkpt lat="42.43177" lon="2.71883">
        <ele>1192.1999511719</ele>
        <time>2023-07-13T11:24:05.000Z</time>
      </trkpt>
      <trkpt lat="42.43177" lon="2.71878">
        <ele>1191.1999511719</ele>
        <time>2023-07-13T11:24:12.000Z</time>
      </trkpt>
      <trkpt lat="42.43181" lon="2.71879">
        <ele>1190</ele>
        <time>2023-07-13T11:24:18.000Z</time>
      </trkpt>
      <trkpt lat="42.43182" lon="2.71879">
        <ele>1189.8000488281</ele>
        <time>2023-07-13T11:24:19.000Z</time>
      </trkpt>
      <trkpt lat="42.43188" lon="2.7188">
        <ele>1189</ele>
        <time>2023-07-13T11:24:24.000Z</time>
      </trkpt>
      <trkpt lat="42.43189" lon="2.71879">
        <ele>1188.5999755859</ele>
        <time>2023-07-13T11:24:26.000Z</time>
      </trkpt>
      <trkpt lat="42.43188" lon="2.71874">
        <ele>1188</ele>
        <time>2023-07-13T11:24:30.000Z</time>
      </trkpt>
      <trkpt lat="42.43188" lon="2.71872">
        <ele>1188</ele>
        <time>2023-07-13T11:24:33.000Z</time>
      </trkpt>
      <trkpt lat="42.43189" lon="2.7187">
        <ele>1186.8000488281</ele>
        <time>2023-07-13T11:24:42.000Z</time>
      </trkpt>
      <trkpt lat="42.43188" lon="2.71868">
        <ele>1185.8000488281</ele>
        <time>2023-07-13T11:24:49.000Z</time>
      </trkpt>
      <trkpt lat="42.43189" lon="2.71867">
        <ele>1185.1999511719</ele>
        <time>2023-07-13T11:24:51.000Z</time>
      </trkpt>
      <trkpt lat="42.4319" lon="2.71865">
        <ele>1184.5999755859</ele>
        <time>2023-07-13T11:24:53.000Z</time>
      </trkpt>
      <trkpt lat="42.43193" lon="2.71862">
        <ele>1183.8000488281</ele>
        <time>2023-07-13T11:24:57.000Z</time>
      </trkpt>
      <trkpt lat="42.43194" lon="2.71861">
        <ele>1183.5999755859</ele>
        <time>2023-07-13T11:24:59.000Z</time>
      </trkpt>
      <trkpt lat="42.43195" lon="2.71862">
        <ele>1183.1999511719</ele>
        <time>2023-07-13T11:25:01.000Z</time>
      </trkpt>
      <trkpt lat="42.43195" lon="2.71862">
        <ele>1183</ele>
        <time>2023-07-13T11:25:02.000Z</time>
      </trkpt>
      <trkpt lat="42.43197" lon="2.71857">
        <ele>1182.4000244141</ele>
        <time>2023-07-13T11:25:10.000Z</time>
      </trkpt>
      <trkpt lat="42.43201" lon="2.71853">
        <ele>1181.1999511719</ele>
        <time>2023-07-13T11:25:17.000Z</time>
      </trkpt>
      <trkpt lat="42.43201" lon="2.71854">
        <ele>1181.1999511719</ele>
        <time>2023-07-13T11:25:18.000Z</time>
      </trkpt>
      <trkpt lat="42.43207" lon="2.7185">
        <ele>1180.4000244141</ele>
        <time>2023-07-13T11:25:26.000Z</time>
      </trkpt>
      <trkpt lat="42.4321" lon="2.71845">
        <ele>1180.5999755859</ele>
        <time>2023-07-13T11:25:33.000Z</time>
      </trkpt>
      <trkpt lat="42.43214" lon="2.71837">
        <ele>1180.1999511719</ele>
        <time>2023-07-13T11:25:41.000Z</time>
      </trkpt>
      <trkpt lat="42.43218" lon="2.71826">
        <ele>1179</ele>
        <time>2023-07-13T11:25:50.000Z</time>
      </trkpt>
      <trkpt lat="42.43222" lon="2.71826">
        <ele>1178</ele>
        <time>2023-07-13T11:25:56.000Z</time>
      </trkpt>
      <trkpt lat="42.43223" lon="2.71827">
        <ele>1177.8000488281</ele>
        <time>2023-07-13T11:25:57.000Z</time>
      </trkpt>
      <trkpt lat="42.43227" lon="2.71829">
        <ele>1176.8000488281</ele>
        <time>2023-07-13T11:26:01.000Z</time>
      </trkpt>
      <trkpt lat="42.4323" lon="2.7183">
        <ele>1176.1999511719</ele>
        <time>2023-07-13T11:26:04.000Z</time>
      </trkpt>
      <trkpt lat="42.43231" lon="2.71831">
        <ele>1175.8000488281</ele>
        <time>2023-07-13T11:26:06.000Z</time>
      </trkpt>
      <trkpt lat="42.43233" lon="2.71831">
        <ele>1174.8000488281</ele>
        <time>2023-07-13T11:26:11.000Z</time>
      </trkpt>
      <trkpt lat="42.43233" lon="2.71831">
        <ele>1174.1999511719</ele>
        <time>2023-07-13T11:26:13.000Z</time>
      </trkpt>
      <trkpt lat="42.43235" lon="2.7183">
        <ele>1173.8000488281</ele>
        <time>2023-07-13T11:26:16.000Z</time>
      </trkpt>
      <trkpt lat="42.43234" lon="2.71827">
        <ele>1172.8000488281</ele>
        <time>2023-07-13T11:26:21.000Z</time>
      </trkpt>
      <trkpt lat="42.43234" lon="2.71825">
        <ele>1172.5999755859</ele>
        <time>2023-07-13T11:26:22.000Z</time>
      </trkpt>
      <trkpt lat="42.43236" lon="2.71821">
        <ele>1171.5999755859</ele>
        <time>2023-07-13T11:26:26.000Z</time>
      </trkpt>
      <trkpt lat="42.43237" lon="2.71822">
        <ele>1171</ele>
        <time>2023-07-13T11:26:28.000Z</time>
      </trkpt>
      <trkpt lat="42.43239" lon="2.71822">
        <ele>1170.4000244141</ele>
        <time>2023-07-13T11:26:31.000Z</time>
      </trkpt>
      <trkpt lat="42.43243" lon="2.71821">
        <ele>1169.8000488281</ele>
        <time>2023-07-13T11:26:35.000Z</time>
      </trkpt>
      <trkpt lat="42.43245" lon="2.71822">
        <ele>1169.4000244141</ele>
        <time>2023-07-13T11:26:37.000Z</time>
      </trkpt>
      <trkpt lat="42.43246" lon="2.71822">
        <ele>1168.1999511719</ele>
        <time>2023-07-13T11:26:42.000Z</time>
      </trkpt>
      <trkpt lat="42.4325" lon="2.71826">
        <ele>1167</ele>
        <time>2023-07-13T11:26:49.000Z</time>
      </trkpt>
      <trkpt lat="42.43249" lon="2.71826">
        <ele>1166.5999755859</ele>
        <time>2023-07-13T11:26:51.000Z</time>
      </trkpt>
      <trkpt lat="42.43249" lon="2.71828">
        <ele>1166</ele>
        <time>2023-07-13T11:26:55.000Z</time>
      </trkpt>
      <trkpt lat="42.43253" lon="2.71829">
        <ele>1165</ele>
        <time>2023-07-13T11:27:00.000Z</time>
      </trkpt>
      <trkpt lat="42.43253" lon="2.71829">
        <ele>1165</ele>
        <time>2023-07-13T11:27:01.000Z</time>
      </trkpt>
      <trkpt lat="42.43256" lon="2.71829">
        <ele>1164</ele>
        <time>2023-07-13T11:27:05.000Z</time>
      </trkpt>
      <trkpt lat="42.43258" lon="2.71829">
        <ele>1163.1999511719</ele>
        <time>2023-07-13T11:27:09.000Z</time>
      </trkpt>
      <trkpt lat="42.43259" lon="2.71829">
        <ele>1162.8000488281</ele>
        <time>2023-07-13T11:27:11.000Z</time>
      </trkpt>
      <trkpt lat="42.4326" lon="2.71826">
        <ele>1161.8000488281</ele>
        <time>2023-07-13T11:27:17.000Z</time>
      </trkpt>
      <trkpt lat="42.43258" lon="2.71825">
        <ele>1161.4000244141</ele>
        <time>2023-07-13T11:27:19.000Z</time>
      </trkpt>
      <trkpt lat="42.43258" lon="2.71823">
        <ele>1160.5999755859</ele>
        <time>2023-07-13T11:27:23.000Z</time>
      </trkpt>
      <trkpt lat="42.43258" lon="2.71819">
        <ele>1159.8000488281</ele>
        <time>2023-07-13T11:27:27.000Z</time>
      </trkpt>
      <trkpt lat="42.43259" lon="2.71818">
        <ele>1159.5999755859</ele>
        <time>2023-07-13T11:27:29.000Z</time>
      </trkpt>
      <trkpt lat="42.43263" lon="2.71813">
        <ele>1158.8000488281</ele>
        <time>2023-07-13T11:27:34.000Z</time>
      </trkpt>
      <trkpt lat="42.43265" lon="2.71811">
        <ele>1158.4000244141</ele>
        <time>2023-07-13T11:27:37.000Z</time>
      </trkpt>
      <trkpt lat="42.43266" lon="2.71812">
        <ele>1158</ele>
        <time>2023-07-13T11:27:40.000Z</time>
      </trkpt>
      <trkpt lat="42.43267" lon="2.71811">
        <ele>1157.8000488281</ele>
        <time>2023-07-13T11:27:42.000Z</time>
      </trkpt>
      <trkpt lat="42.43268" lon="2.71809">
        <ele>1157.1999511719</ele>
        <time>2023-07-13T11:27:45.000Z</time>
      </trkpt>
      <trkpt lat="42.43268" lon="2.71805">
        <ele>1156.5999755859</ele>
        <time>2023-07-13T11:27:48.000Z</time>
      </trkpt>
      <trkpt lat="42.43269" lon="2.71803">
        <ele>1156</ele>
        <time>2023-07-13T11:27:51.000Z</time>
      </trkpt>
      <trkpt lat="42.43272" lon="2.71797">
        <ele>1155</ele>
        <time>2023-07-13T11:27:56.000Z</time>
      </trkpt>
      <trkpt lat="42.43277" lon="2.71794">
        <ele>1154.5999755859</ele>
        <time>2023-07-13T11:28:05.000Z</time>
      </trkpt>
      <trkpt lat="42.4328" lon="2.71791">
        <ele>1154</ele>
        <time>2023-07-13T11:28:12.000Z</time>
      </trkpt>
      <trkpt lat="42.43281" lon="2.71791">
        <ele>1153.8000488281</ele>
        <time>2023-07-13T11:28:13.000Z</time>
      </trkpt>
      <trkpt lat="42.43284" lon="2.71789">
        <ele>1152.8000488281</ele>
        <time>2023-07-13T11:28:18.000Z</time>
      </trkpt>
      <trkpt lat="42.43286" lon="2.71787">
        <ele>1152.4000244141</ele>
        <time>2023-07-13T11:28:21.000Z</time>
      </trkpt>
      <trkpt lat="42.43291" lon="2.71782">
        <ele>1151.8000488281</ele>
        <time>2023-07-13T11:28:28.000Z</time>
      </trkpt>
      <trkpt lat="42.43292" lon="2.71782">
        <ele>1151.8000488281</ele>
        <time>2023-07-13T11:28:29.000Z</time>
      </trkpt>
      <trkpt lat="42.43292" lon="2.71783">
        <ele>1150.8000488281</ele>
        <time>2023-07-13T11:28:35.000Z</time>
      </trkpt>
      <trkpt lat="42.43293" lon="2.71783">
        <ele>1150.4000244141</ele>
        <time>2023-07-13T11:28:36.000Z</time>
      </trkpt>
      <trkpt lat="42.43293" lon="2.71783">
        <ele>1149.5999755859</ele>
        <time>2023-07-13T11:28:39.000Z</time>
      </trkpt>
      <trkpt lat="42.43294" lon="2.71783">
        <ele>1149.4000244141</ele>
        <time>2023-07-13T11:28:40.000Z</time>
      </trkpt>
      <trkpt lat="42.43295" lon="2.71781">
        <ele>1149</ele>
        <time>2023-07-13T11:28:43.000Z</time>
      </trkpt>
      <trkpt lat="42.43296" lon="2.7178">
        <ele>1149</ele>
        <time>2023-07-13T11:28:44.000Z</time>
      </trkpt>
      <trkpt lat="42.43301" lon="2.71771">
        <ele>1148.4000244141</ele>
        <time>2023-07-13T11:28:50.000Z</time>
      </trkpt>
      <trkpt lat="42.43302" lon="2.71769">
        <ele>1148</ele>
        <time>2023-07-13T11:28:52.000Z</time>
      </trkpt>
      <trkpt lat="42.43304" lon="2.71767">
        <ele>1147.4000244141</ele>
        <time>2023-07-13T11:28:55.000Z</time>
      </trkpt>
      <trkpt lat="42.43305" lon="2.71761">
        <ele>1146.4000244141</ele>
        <time>2023-07-13T11:29:01.000Z</time>
      </trkpt>
      <trkpt lat="42.43304" lon="2.7176">
        <ele>1146.1999511719</ele>
        <time>2023-07-13T11:29:02.000Z</time>
      </trkpt>
      <trkpt lat="42.43304" lon="2.71758">
        <ele>1145.8000488281</ele>
        <time>2023-07-13T11:29:06.000Z</time>
      </trkpt>
      <trkpt lat="42.43304" lon="2.71757">
        <ele>1145.1999511719</ele>
        <time>2023-07-13T11:29:08.000Z</time>
      </trkpt>
      <trkpt lat="42.43304" lon="2.71756">
        <ele>1144.5999755859</ele>
        <time>2023-07-13T11:29:10.000Z</time>
      </trkpt>
      <trkpt lat="42.43307" lon="2.71753">
        <ele>1144.4000244141</ele>
        <time>2023-07-13T11:29:15.000Z</time>
      </trkpt>
      <trkpt lat="42.43308" lon="2.71748">
        <ele>1144.5999755859</ele>
        <time>2023-07-13T11:29:20.000Z</time>
      </trkpt>
      <trkpt lat="42.43305" lon="2.71742">
        <ele>1144.4000244141</ele>
        <time>2023-07-13T11:29:30.000Z</time>
      </trkpt>
      <trkpt lat="42.43304" lon="2.71744">
        <ele>1144.1999511719</ele>
        <time>2023-07-13T11:29:34.000Z</time>
      </trkpt>
      <trkpt lat="42.43304" lon="2.71744">
        <ele>1143.8000488281</ele>
        <time>2023-07-13T11:29:36.000Z</time>
      </trkpt>
      <trkpt lat="42.43305" lon="2.71742">
        <ele>1143</ele>
        <time>2023-07-13T11:29:41.000Z</time>
      </trkpt>
      <trkpt lat="42.43307" lon="2.71736">
        <ele>1142</ele>
        <time>2023-07-13T11:29:46.000Z</time>
      </trkpt>
      <trkpt lat="42.43308" lon="2.71735">
        <ele>1141.8000488281</ele>
        <time>2023-07-13T11:29:47.000Z</time>
      </trkpt>
      <trkpt lat="42.43313" lon="2.71727">
        <ele>1141.4000244141</ele>
        <time>2023-07-13T11:29:55.000Z</time>
      </trkpt>
      <trkpt lat="42.43313" lon="2.71727">
        <ele>1141.1999511719</ele>
        <time>2023-07-13T11:29:56.000Z</time>
      </trkpt>
      <trkpt lat="42.43313" lon="2.71727">
        <ele>1140.8000488281</ele>
        <time>2023-07-13T11:29:57.000Z</time>
      </trkpt>
      <trkpt lat="42.43313" lon="2.71726">
        <ele>1140.1999511719</ele>
        <time>2023-07-13T11:30:02.000Z</time>
      </trkpt>
      <trkpt lat="42.43314" lon="2.71717">
        <ele>1140</ele>
        <time>2023-07-13T11:30:10.000Z</time>
      </trkpt>
      <trkpt lat="42.43314" lon="2.71713">
        <ele>1139.8000488281</ele>
        <time>2023-07-13T11:30:16.000Z</time>
      </trkpt>
      <trkpt lat="42.43313" lon="2.71711">
        <ele>1139.5999755859</ele>
        <time>2023-07-13T11:30:18.000Z</time>
      </trkpt>
      <trkpt lat="42.43314" lon="2.71707">
        <ele>1139.4000244141</ele>
        <time>2023-07-13T11:30:24.000Z</time>
      </trkpt>
      <trkpt lat="42.43312" lon="2.71706">
        <ele>1139.1999511719</ele>
        <time>2023-07-13T11:30:32.000Z</time>
      </trkpt>
      <trkpt lat="42.43312" lon="2.71707">
        <ele>1139.1999511719</ele>
        <time>2023-07-13T11:30:40.000Z</time>
      </trkpt>
      <trkpt lat="42.43311" lon="2.71704">
        <ele>1138.5999755859</ele>
        <time>2023-07-13T11:30:45.000Z</time>
      </trkpt>
      <trkpt lat="42.43312" lon="2.717">
        <ele>1138</ele>
        <time>2023-07-13T11:30:49.000Z</time>
      </trkpt>
      <trkpt lat="42.43313" lon="2.71697">
        <ele>1137.5999755859</ele>
        <time>2023-07-13T11:30:51.000Z</time>
      </trkpt>
      <trkpt lat="42.43315" lon="2.71688">
        <ele>1137</ele>
        <time>2023-07-13T11:30:57.000Z</time>
      </trkpt>
      <trkpt lat="42.43314" lon="2.71687">
        <ele>1136.5999755859</ele>
        <time>2023-07-13T11:31:04.000Z</time>
      </trkpt>
      <trkpt lat="42.43314" lon="2.71681">
        <ele>1135.4000244141</ele>
        <time>2023-07-13T11:31:10.000Z</time>
      </trkpt>
      <trkpt lat="42.43315" lon="2.71679">
        <ele>1135</ele>
        <time>2023-07-13T11:31:12.000Z</time>
      </trkpt>
      <trkpt lat="42.43317" lon="2.71675">
        <ele>1134.4000244141</ele>
        <time>2023-07-13T11:31:15.000Z</time>
      </trkpt>
      <trkpt lat="42.43318" lon="2.7167">
        <ele>1133.5999755859</ele>
        <time>2023-07-13T11:31:20.000Z</time>
      </trkpt>
      <trkpt lat="42.43318" lon="2.71667">
        <ele>1133.4000244141</ele>
        <time>2023-07-13T11:31:22.000Z</time>
      </trkpt>
      <trkpt lat="42.43319" lon="2.71662">
        <ele>1132.1999511719</ele>
        <time>2023-07-13T11:31:28.000Z</time>
      </trkpt>
      <trkpt lat="42.4332" lon="2.71659">
        <ele>1131.1999511719</ele>
        <time>2023-07-13T11:31:33.000Z</time>
      </trkpt>
      <trkpt lat="42.43321" lon="2.71656">
        <ele>1130.4000244141</ele>
        <time>2023-07-13T11:31:36.000Z</time>
      </trkpt>
      <trkpt lat="42.43321" lon="2.71655">
        <ele>1130.1999511719</ele>
        <time>2023-07-13T11:31:37.000Z</time>
      </trkpt>
      <trkpt lat="42.43323" lon="2.71651">
        <ele>1129</ele>
        <time>2023-07-13T11:31:42.000Z</time>
      </trkpt>
      <trkpt lat="42.43323" lon="2.7165">
        <ele>1128.8000488281</ele>
        <time>2023-07-13T11:31:43.000Z</time>
      </trkpt>
      <trkpt lat="42.43323" lon="2.71647">
        <ele>1128</ele>
        <time>2023-07-13T11:31:48.000Z</time>
      </trkpt>
      <trkpt lat="42.43324" lon="2.71645">
        <ele>1127.4000244141</ele>
        <time>2023-07-13T11:31:50.000Z</time>
      </trkpt>
      <trkpt lat="42.43325" lon="2.71642">
        <ele>1126.8000488281</ele>
        <time>2023-07-13T11:31:53.000Z</time>
      </trkpt>
      <trkpt lat="42.43325" lon="2.71637">
        <ele>1125.5999755859</ele>
        <time>2023-07-13T11:31:58.000Z</time>
      </trkpt>
      <trkpt lat="42.43325" lon="2.71636">
        <ele>1125.4000244141</ele>
        <time>2023-07-13T11:31:59.000Z</time>
      </trkpt>
      <trkpt lat="42.43325" lon="2.71632">
        <ele>1124.5999755859</ele>
        <time>2023-07-13T11:32:03.000Z</time>
      </trkpt>
      <trkpt lat="42.43326" lon="2.71628">
        <ele>1123.8000488281</ele>
        <time>2023-07-13T11:32:06.000Z</time>
      </trkpt>
      <trkpt lat="42.43327" lon="2.71627">
        <ele>1123.5999755859</ele>
        <time>2023-07-13T11:32:07.000Z</time>
      </trkpt>
      <trkpt lat="42.4333" lon="2.7162">
        <ele>1122.4000244141</ele>
        <time>2023-07-13T11:32:13.000Z</time>
      </trkpt>
      <trkpt lat="42.43331" lon="2.71618">
        <ele>1121.8000488281</ele>
        <time>2023-07-13T11:32:15.000Z</time>
      </trkpt>
      <trkpt lat="42.43332" lon="2.71614">
        <ele>1121.4000244141</ele>
        <time>2023-07-13T11:32:18.000Z</time>
      </trkpt>
      <trkpt lat="42.43333" lon="2.71612">
        <ele>1120.4000244141</ele>
        <time>2023-07-13T11:32:22.000Z</time>
      </trkpt>
      <trkpt lat="42.43333" lon="2.7161">
        <ele>1120.1999511719</ele>
        <time>2023-07-13T11:32:23.000Z</time>
      </trkpt>
      <trkpt lat="42.43336" lon="2.71606">
        <ele>1119.1999511719</ele>
        <time>2023-07-13T11:32:28.000Z</time>
      </trkpt>
      <trkpt lat="42.43339" lon="2.71603">
        <ele>1118.1999511719</ele>
        <time>2023-07-13T11:32:31.000Z</time>
      </trkpt>
      <trkpt lat="42.43339" lon="2.71603">
        <ele>1118</ele>
        <time>2023-07-13T11:32:32.000Z</time>
      </trkpt>
      <trkpt lat="42.43344" lon="2.716">
        <ele>1117</ele>
        <time>2023-07-13T11:32:38.000Z</time>
      </trkpt>
      <trkpt lat="42.43345" lon="2.716">
        <ele>1116.8000488281</ele>
        <time>2023-07-13T11:32:39.000Z</time>
      </trkpt>
      <trkpt lat="42.4335" lon="2.71601">
        <ele>1115.8000488281</ele>
        <time>2023-07-13T11:32:46.000Z</time>
      </trkpt>
      <trkpt lat="42.43357" lon="2.71601">
        <ele>1115</ele>
        <time>2023-07-13T11:32:54.000Z</time>
      </trkpt>
      <trkpt lat="42.43365" lon="2.71603">
        <ele>1115.5999755859</ele>
        <time>2023-07-13T11:33:03.000Z</time>
      </trkpt>
      <trkpt lat="42.43374" lon="2.71603">
        <ele>1115.5999755859</ele>
        <time>2023-07-13T11:33:11.000Z</time>
      </trkpt>
      <trkpt lat="42.43381" lon="2.71599">
        <ele>1114.5999755859</ele>
        <time>2023-07-13T11:33:20.000Z</time>
      </trkpt>
      <trkpt lat="42.43385" lon="2.71594">
        <ele>1113.4000244141</ele>
        <time>2023-07-13T11:33:25.000Z</time>
      </trkpt>
      <trkpt lat="42.43389" lon="2.71592">
        <ele>1113</ele>
        <time>2023-07-13T11:33:29.000Z</time>
      </trkpt>
      <trkpt lat="42.43391" lon="2.71593">
        <ele>1113.4000244141</ele>
        <time>2023-07-13T11:33:34.000Z</time>
      </trkpt>
      <trkpt lat="42.43394" lon="2.71595">
        <ele>1113.8000488281</ele>
        <time>2023-07-13T11:33:38.000Z</time>
      </trkpt>
      <trkpt lat="42.434" lon="2.71593">
        <ele>1112.4000244141</ele>
        <time>2023-07-13T11:33:47.000Z</time>
      </trkpt>
      <trkpt lat="42.434" lon="2.71593">
        <ele>1112.4000244141</ele>
        <time>2023-07-13T11:33:48.000Z</time>
      </trkpt>
      <trkpt lat="42.43404" lon="2.7159">
        <ele>1112.4000244141</ele>
        <time>2023-07-13T11:33:57.000Z</time>
      </trkpt>
      <trkpt lat="42.43406" lon="2.71586">
        <ele>1111.5999755859</ele>
        <time>2023-07-13T11:34:04.000Z</time>
      </trkpt>
      <trkpt lat="42.43406" lon="2.71586">
        <ele>1111.4000244141</ele>
        <time>2023-07-13T11:34:05.000Z</time>
      </trkpt>
      <trkpt lat="42.43407" lon="2.71583">
        <ele>1110.1999511719</ele>
        <time>2023-07-13T11:34:10.000Z</time>
      </trkpt>
      <trkpt lat="42.43408" lon="2.71582">
        <ele>1109.4000244141</ele>
        <time>2023-07-13T11:34:13.000Z</time>
      </trkpt>
      <trkpt lat="42.43408" lon="2.71581">
        <ele>1109</ele>
        <time>2023-07-13T11:34:14.000Z</time>
      </trkpt>
      <trkpt lat="42.43408" lon="2.71578">
        <ele>1108</ele>
        <time>2023-07-13T11:34:19.000Z</time>
      </trkpt>
      <trkpt lat="42.43409" lon="2.71578">
        <ele>1107.8000488281</ele>
        <time>2023-07-13T11:34:20.000Z</time>
      </trkpt>
      <trkpt lat="42.43411" lon="2.71572">
        <ele>1106.8000488281</ele>
        <time>2023-07-13T11:34:25.000Z</time>
      </trkpt>
      <trkpt lat="42.43413" lon="2.71569">
        <ele>1106.1999511719</ele>
        <time>2023-07-13T11:34:28.000Z</time>
      </trkpt>
      <trkpt lat="42.43414" lon="2.71566">
        <ele>1105.8000488281</ele>
        <time>2023-07-13T11:34:30.000Z</time>
      </trkpt>
      <trkpt lat="42.43417" lon="2.71561">
        <ele>1104.5999755859</ele>
        <time>2023-07-13T11:34:36.000Z</time>
      </trkpt>
      <trkpt lat="42.43418" lon="2.71559">
        <ele>1104.4000244141</ele>
        <time>2023-07-13T11:34:38.000Z</time>
      </trkpt>
      <trkpt lat="42.4342" lon="2.71556">
        <ele>1103.5999755859</ele>
        <time>2023-07-13T11:34:45.000Z</time>
      </trkpt>
      <trkpt lat="42.4342" lon="2.71555">
        <ele>1103.1999511719</ele>
        <time>2023-07-13T11:34:47.000Z</time>
      </trkpt>
      <trkpt lat="42.43421" lon="2.71553">
        <ele>1102.4000244141</ele>
        <time>2023-07-13T11:34:51.000Z</time>
      </trkpt>
      <trkpt lat="42.43421" lon="2.71553">
        <ele>1102.1999511719</ele>
        <time>2023-07-13T11:34:52.000Z</time>
      </trkpt>
      <trkpt lat="42.43425" lon="2.7155">
        <ele>1101.1999511719</ele>
        <time>2023-07-13T11:34:57.000Z</time>
      </trkpt>
      <trkpt lat="42.43428" lon="2.71548">
        <ele>1100.8000488281</ele>
        <time>2023-07-13T11:35:00.000Z</time>
      </trkpt>
      <trkpt lat="42.43433" lon="2.71546">
        <ele>1100.1999511719</ele>
        <time>2023-07-13T11:35:04.000Z</time>
      </trkpt>
      <trkpt lat="42.43439" lon="2.71543">
        <ele>1099.4000244141</ele>
        <time>2023-07-13T11:35:09.000Z</time>
      </trkpt>
      <trkpt lat="42.43443" lon="2.71539">
        <ele>1099.5999755859</ele>
        <time>2023-07-13T11:35:17.000Z</time>
      </trkpt>
      <trkpt lat="42.43445" lon="2.71536">
        <ele>1099.1999511719</ele>
        <time>2023-07-13T11:35:22.000Z</time>
      </trkpt>
      <trkpt lat="42.43446" lon="2.71534">
        <ele>1098.5999755859</ele>
        <time>2023-07-13T11:35:25.000Z</time>
      </trkpt>
      <trkpt lat="42.43447" lon="2.71533">
        <ele>1098</ele>
        <time>2023-07-13T11:35:27.000Z</time>
      </trkpt>
      <trkpt lat="42.43449" lon="2.71531">
        <ele>1096.8000488281</ele>
        <time>2023-07-13T11:35:33.000Z</time>
      </trkpt>
      <trkpt lat="42.43449" lon="2.71529">
        <ele>1095.8000488281</ele>
        <time>2023-07-13T11:35:38.000Z</time>
      </trkpt>
      <trkpt lat="42.4345" lon="2.71528">
        <ele>1095.1999511719</ele>
        <time>2023-07-13T11:35:41.000Z</time>
      </trkpt>
      <trkpt lat="42.43453" lon="2.71528">
        <ele>1094.8000488281</ele>
        <time>2023-07-13T11:35:46.000Z</time>
      </trkpt>
      <trkpt lat="42.43454" lon="2.71529">
        <ele>1094.1999511719</ele>
        <time>2023-07-13T11:35:50.000Z</time>
      </trkpt>
      <trkpt lat="42.43459" lon="2.71525">
        <ele>1092.5999755859</ele>
        <time>2023-07-13T11:35:57.000Z</time>
      </trkpt>
      <trkpt lat="42.43462" lon="2.71523">
        <ele>1092</ele>
        <time>2023-07-13T11:36:00.000Z</time>
      </trkpt>
      <trkpt lat="42.43462" lon="2.71522">
        <ele>1091.8000488281</ele>
        <time>2023-07-13T11:36:01.000Z</time>
      </trkpt>
      <trkpt lat="42.43463" lon="2.71521">
        <ele>1091.5999755859</ele>
        <time>2023-07-13T11:36:02.000Z</time>
      </trkpt>
      <trkpt lat="42.43465" lon="2.71517">
        <ele>1090.5999755859</ele>
        <time>2023-07-13T11:36:08.000Z</time>
      </trkpt>
      <trkpt lat="42.43465" lon="2.71517">
        <ele>1090.4000244141</ele>
        <time>2023-07-13T11:36:09.000Z</time>
      </trkpt>
      <trkpt lat="42.43463" lon="2.71516">
        <ele>1089.4000244141</ele>
        <time>2023-07-13T11:36:15.000Z</time>
      </trkpt>
      <trkpt lat="42.43464" lon="2.71514">
        <ele>1088.1999511719</ele>
        <time>2023-07-13T11:36:21.000Z</time>
      </trkpt>
      <trkpt lat="42.43465" lon="2.71513">
        <ele>1088</ele>
        <time>2023-07-13T11:36:23.000Z</time>
      </trkpt>
      <trkpt lat="42.43467" lon="2.7151">
        <ele>1087</ele>
        <time>2023-07-13T11:36:29.000Z</time>
      </trkpt>
      <trkpt lat="42.43467" lon="2.71506">
        <ele>1086.4000244141</ele>
        <time>2023-07-13T11:36:32.000Z</time>
      </trkpt>
      <trkpt lat="42.43467" lon="2.71504">
        <ele>1085.8000488281</ele>
        <time>2023-07-13T11:36:35.000Z</time>
      </trkpt>
      <trkpt lat="42.43468" lon="2.71503">
        <ele>1085.1999511719</ele>
        <time>2023-07-13T11:36:39.000Z</time>
      </trkpt>
      <trkpt lat="42.43469" lon="2.71502">
        <ele>1084.8000488281</ele>
        <time>2023-07-13T11:36:41.000Z</time>
      </trkpt>
      <trkpt lat="42.43473" lon="2.715">
        <ele>1083.5999755859</ele>
        <time>2023-07-13T11:36:46.000Z</time>
      </trkpt>
      <trkpt lat="42.43474" lon="2.715">
        <ele>1083.4000244141</ele>
        <time>2023-07-13T11:36:48.000Z</time>
      </trkpt>
      <trkpt lat="42.43476" lon="2.71499">
        <ele>1082.5999755859</ele>
        <time>2023-07-13T11:36:51.000Z</time>
      </trkpt>
      <trkpt lat="42.4348" lon="2.71498">
        <ele>1081.5999755859</ele>
        <time>2023-07-13T11:36:56.000Z</time>
      </trkpt>
      <trkpt lat="42.43482" lon="2.71498">
        <ele>1081.1999511719</ele>
        <time>2023-07-13T11:36:58.000Z</time>
      </trkpt>
      <trkpt lat="42.43482" lon="2.71496">
        <ele>1080.5999755859</ele>
        <time>2023-07-13T11:37:02.000Z</time>
      </trkpt>
      <trkpt lat="42.43483" lon="2.71495">
        <ele>1080.1999511719</ele>
        <time>2023-07-13T11:37:05.000Z</time>
      </trkpt>
      <trkpt lat="42.43483" lon="2.71496">
        <ele>1079.5999755859</ele>
        <time>2023-07-13T11:37:08.000Z</time>
      </trkpt>
      <trkpt lat="42.43485" lon="2.71499">
        <ele>1079.1999511719</ele>
        <time>2023-07-13T11:37:13.000Z</time>
      </trkpt>
      <trkpt lat="42.43486" lon="2.71496">
        <ele>1079.1999511719</ele>
        <time>2023-07-13T11:37:21.000Z</time>
      </trkpt>
      <trkpt lat="42.4349" lon="2.7149">
        <ele>1078.4000244141</ele>
        <time>2023-07-13T11:37:28.000Z</time>
      </trkpt>
      <trkpt lat="42.43491" lon="2.7149">
        <ele>1078</ele>
        <time>2023-07-13T11:37:29.000Z</time>
      </trkpt>
      <trkpt lat="42.43494" lon="2.71487">
        <ele>1077.1999511719</ele>
        <time>2023-07-13T11:37:34.000Z</time>
      </trkpt>
      <trkpt lat="42.43494" lon="2.71486">
        <ele>1076.5999755859</ele>
        <time>2023-07-13T11:37:36.000Z</time>
      </trkpt>
      <trkpt lat="42.43494" lon="2.71485">
        <ele>1076</ele>
        <time>2023-07-13T11:37:39.000Z</time>
      </trkpt>
      <trkpt lat="42.43497" lon="2.71484">
        <ele>1075</ele>
        <time>2023-07-13T11:37:43.000Z</time>
      </trkpt>
      <trkpt lat="42.43496" lon="2.71483">
        <ele>1075</ele>
        <time>2023-07-13T11:37:44.000Z</time>
      </trkpt>
      <trkpt lat="42.43498" lon="2.71481">
        <ele>1074.1999511719</ele>
        <time>2023-07-13T11:37:48.000Z</time>
      </trkpt>
      <trkpt lat="42.43498" lon="2.7148">
        <ele>1073.8000488281</ele>
        <time>2023-07-13T11:37:50.000Z</time>
      </trkpt>
      <trkpt lat="42.43502" lon="2.71478">
        <ele>1073</ele>
        <time>2023-07-13T11:37:54.000Z</time>
      </trkpt>
      <trkpt lat="42.43504" lon="2.71476">
        <ele>1072.5999755859</ele>
        <time>2023-07-13T11:37:56.000Z</time>
      </trkpt>
      <trkpt lat="42.43507" lon="2.71473">
        <ele>1071.4000244141</ele>
        <time>2023-07-13T11:38:01.000Z</time>
      </trkpt>
      <trkpt lat="42.43507" lon="2.71472">
        <ele>1071.4000244141</ele>
        <time>2023-07-13T11:38:02.000Z</time>
      </trkpt>
      <trkpt lat="42.4351" lon="2.71468">
        <ele>1070.4000244141</ele>
        <time>2023-07-13T11:38:07.000Z</time>
      </trkpt>
      <trkpt lat="42.4351" lon="2.71468">
        <ele>1070.1999511719</ele>
        <time>2023-07-13T11:38:08.000Z</time>
      </trkpt>
      <trkpt lat="42.43513" lon="2.71467">
        <ele>1069.1999511719</ele>
        <time>2023-07-13T11:38:12.000Z</time>
      </trkpt>
      <trkpt lat="42.43516" lon="2.71466">
        <ele>1068.4000244141</ele>
        <time>2023-07-13T11:38:16.000Z</time>
      </trkpt>
      <trkpt lat="42.43517" lon="2.71466">
        <ele>1068.1999511719</ele>
        <time>2023-07-13T11:38:17.000Z</time>
      </trkpt>
      <trkpt lat="42.43524" lon="2.71463">
        <ele>1067</ele>
        <time>2023-07-13T11:38:24.000Z</time>
      </trkpt>
      <trkpt lat="42.43525" lon="2.71462">
        <ele>1066.4000244141</ele>
        <time>2023-07-13T11:38:26.000Z</time>
      </trkpt>
      <trkpt lat="42.43527" lon="2.71461">
        <ele>1065.8000488281</ele>
        <time>2023-07-13T11:38:28.000Z</time>
      </trkpt>
      <trkpt lat="42.4353" lon="2.71462">
        <ele>1065</ele>
        <time>2023-07-13T11:38:34.000Z</time>
      </trkpt>
      <trkpt lat="42.43533" lon="2.71459">
        <ele>1062.5999755859</ele>
        <time>2023-07-13T11:38:44.000Z</time>
      </trkpt>
      <trkpt lat="42.43537" lon="2.71455">
        <ele>1062.1999511719</ele>
        <time>2023-07-13T11:38:49.000Z</time>
      </trkpt>
      <trkpt lat="42.43537" lon="2.71454">
        <ele>1061.5999755859</ele>
        <time>2023-07-13T11:38:53.000Z</time>
      </trkpt>
      <trkpt lat="42.43538" lon="2.71453">
        <ele>1060.8000488281</ele>
        <time>2023-07-13T11:38:56.000Z</time>
      </trkpt>
      <trkpt lat="42.43538" lon="2.71453">
        <ele>1060.4000244141</ele>
        <time>2023-07-13T11:38:57.000Z</time>
      </trkpt>
      <trkpt lat="42.43539" lon="2.71451">
        <ele>1059.4000244141</ele>
        <time>2023-07-13T11:39:01.000Z</time>
      </trkpt>
      <trkpt lat="42.43541" lon="2.7145">
        <ele>1059</ele>
        <time>2023-07-13T11:39:03.000Z</time>
      </trkpt>
      <trkpt lat="42.43544" lon="2.71449">
        <ele>1058.4000244141</ele>
        <time>2023-07-13T11:39:06.000Z</time>
      </trkpt>
      <trkpt lat="42.43548" lon="2.71451">
        <ele>1056.8000488281</ele>
        <time>2023-07-13T11:39:13.000Z</time>
      </trkpt>
      <trkpt lat="42.43549" lon="2.71451">
        <ele>1056.5999755859</ele>
        <time>2023-07-13T11:39:15.000Z</time>
      </trkpt>
      <trkpt lat="42.43555" lon="2.7145">
        <ele>1055</ele>
        <time>2023-07-13T11:39:23.000Z</time>
      </trkpt>
      <trkpt lat="42.43558" lon="2.7145">
        <ele>1054</ele>
        <time>2023-07-13T11:39:28.000Z</time>
      </trkpt>
      <trkpt lat="42.4356" lon="2.71448">
        <ele>1053.4000244141</ele>
        <time>2023-07-13T11:39:31.000Z</time>
      </trkpt>
      <trkpt lat="42.43561" lon="2.71448">
        <ele>1052.8000488281</ele>
        <time>2023-07-13T11:39:33.000Z</time>
      </trkpt>
      <trkpt lat="42.43563" lon="2.71447">
        <ele>1051.8000488281</ele>
        <time>2023-07-13T11:39:37.000Z</time>
      </trkpt>
      <trkpt lat="42.43568" lon="2.71448">
        <ele>1050.5999755859</ele>
        <time>2023-07-13T11:39:41.000Z</time>
      </trkpt>
      <trkpt lat="42.43571" lon="2.71448">
        <ele>1050</ele>
        <time>2023-07-13T11:39:44.000Z</time>
      </trkpt>
      <trkpt lat="42.43571" lon="2.71447">
        <ele>1049.4000244141</ele>
        <time>2023-07-13T11:39:46.000Z</time>
      </trkpt>
      <trkpt lat="42.43573" lon="2.71444">
        <ele>1048.4000244141</ele>
        <time>2023-07-13T11:39:51.000Z</time>
      </trkpt>
      <trkpt lat="42.43574" lon="2.71444">
        <ele>1048.1999511719</ele>
        <time>2023-07-13T11:39:52.000Z</time>
      </trkpt>
      <trkpt lat="42.43575" lon="2.71442">
        <ele>1047.4000244141</ele>
        <time>2023-07-13T11:39:56.000Z</time>
      </trkpt>
      <trkpt lat="42.43575" lon="2.7144">
        <ele>1047</ele>
        <time>2023-07-13T11:39:58.000Z</time>
      </trkpt>
      <trkpt lat="42.43575" lon="2.71438">
        <ele>1046.1999511719</ele>
        <time>2023-07-13T11:40:01.000Z</time>
      </trkpt>
      <trkpt lat="42.43577" lon="2.71435">
        <ele>1045</ele>
        <time>2023-07-13T11:40:04.000Z</time>
      </trkpt>
      <trkpt lat="42.43577" lon="2.71433">
        <ele>1044.8000488281</ele>
        <time>2023-07-13T11:40:05.000Z</time>
      </trkpt>
      <trkpt lat="42.43578" lon="2.71432">
        <ele>1043.8000488281</ele>
        <time>2023-07-13T11:40:08.000Z</time>
      </trkpt>
      <trkpt lat="42.43581" lon="2.7143">
        <ele>1042.8000488281</ele>
        <time>2023-07-13T11:40:12.000Z</time>
      </trkpt>
      <trkpt lat="42.43583" lon="2.71429">
        <ele>1042.4000244141</ele>
        <time>2023-07-13T11:40:14.000Z</time>
      </trkpt>
      <trkpt lat="42.43589" lon="2.71428">
        <ele>1041.5999755859</ele>
        <time>2023-07-13T11:40:21.000Z</time>
      </trkpt>
      <trkpt lat="42.4359" lon="2.71427">
        <ele>1041.4000244141</ele>
        <time>2023-07-13T11:40:22.000Z</time>
      </trkpt>
      <trkpt lat="42.43593" lon="2.71425">
        <ele>1040.5999755859</ele>
        <time>2023-07-13T11:40:26.000Z</time>
      </trkpt>
      <trkpt lat="42.43597" lon="2.71424">
        <ele>1039.8000488281</ele>
        <time>2023-07-13T11:40:30.000Z</time>
      </trkpt>
      <trkpt lat="42.43599" lon="2.71424">
        <ele>1039.5999755859</ele>
        <time>2023-07-13T11:40:35.000Z</time>
      </trkpt>
      <trkpt lat="42.43597" lon="2.71425">
        <ele>1039.1999511719</ele>
        <time>2023-07-13T11:40:38.000Z</time>
      </trkpt>
      <trkpt lat="42.43598" lon="2.71424">
        <ele>1038.4000244141</ele>
        <time>2023-07-13T11:40:44.000Z</time>
      </trkpt>
      <trkpt lat="42.43599" lon="2.71423">
        <ele>1038.1999511719</ele>
        <time>2023-07-13T11:40:46.000Z</time>
      </trkpt>
      <trkpt lat="42.43604" lon="2.71421">
        <ele>1037.1999511719</ele>
        <time>2023-07-13T11:40:51.000Z</time>
      </trkpt>
      <trkpt lat="42.43604" lon="2.7142">
        <ele>1037</ele>
        <time>2023-07-13T11:40:52.000Z</time>
      </trkpt>
      <trkpt lat="42.43608" lon="2.71418">
        <ele>1036.1999511719</ele>
        <time>2023-07-13T11:40:56.000Z</time>
      </trkpt>
      <trkpt lat="42.43609" lon="2.71418">
        <ele>1036</ele>
        <time>2023-07-13T11:40:57.000Z</time>
      </trkpt>
      <trkpt lat="42.43613" lon="2.71413">
        <ele>1035</ele>
        <time>2023-07-13T11:41:03.000Z</time>
      </trkpt>
      <trkpt lat="42.43616" lon="2.7141">
        <ele>1034.5999755859</ele>
        <time>2023-07-13T11:41:06.000Z</time>
      </trkpt>
      <trkpt lat="42.43621" lon="2.71406">
        <ele>1034</ele>
        <time>2023-07-13T11:41:10.000Z</time>
      </trkpt>
      <trkpt lat="42.43623" lon="2.71403">
        <ele>1033.1999511719</ele>
        <time>2023-07-13T11:41:13.000Z</time>
      </trkpt>
      <trkpt lat="42.43623" lon="2.71399">
        <ele>1033</ele>
        <time>2023-07-13T11:41:17.000Z</time>
      </trkpt>
      <trkpt lat="42.43623" lon="2.71396">
        <ele>1033</ele>
        <time>2023-07-13T11:41:19.000Z</time>
      </trkpt>
      <trkpt lat="42.43623" lon="2.71393">
        <ele>1032.8000488281</ele>
        <time>2023-07-13T11:41:20.000Z</time>
      </trkpt>
      <trkpt lat="42.43629" lon="2.71383">
        <ele>1031.8000488281</ele>
        <time>2023-07-13T11:41:28.000Z</time>
      </trkpt>
      <trkpt lat="42.43634" lon="2.71372">
        <ele>1031.4000244141</ele>
        <time>2023-07-13T11:41:38.000Z</time>
      </trkpt>
      <trkpt lat="42.43635" lon="2.71368">
        <ele>1030.8000488281</ele>
        <time>2023-07-13T11:41:41.000Z</time>
      </trkpt>
      <trkpt lat="42.43638" lon="2.71362">
        <ele>1029.8000488281</ele>
        <time>2023-07-13T11:41:46.000Z</time>
      </trkpt>
      <trkpt lat="42.43639" lon="2.71361">
        <ele>1029.5999755859</ele>
        <time>2023-07-13T11:41:47.000Z</time>
      </trkpt>
      <trkpt lat="42.43643" lon="2.71358">
        <ele>1029</ele>
        <time>2023-07-13T11:41:52.000Z</time>
      </trkpt>
      <trkpt lat="42.43643" lon="2.71358">
        <ele>1028.5999755859</ele>
        <time>2023-07-13T11:41:53.000Z</time>
      </trkpt>
      <trkpt lat="42.43647" lon="2.71353">
        <ele>1027.5999755859</ele>
        <time>2023-07-13T11:41:59.000Z</time>
      </trkpt>
      <trkpt lat="42.43647" lon="2.71352">
        <ele>1027.4000244141</ele>
        <time>2023-07-13T11:42:00.000Z</time>
      </trkpt>
      <trkpt lat="42.43648" lon="2.71348">
        <ele>1026.4000244141</ele>
        <time>2023-07-13T11:42:04.000Z</time>
      </trkpt>
      <trkpt lat="42.4365" lon="2.71343">
        <ele>1025.4000244141</ele>
        <time>2023-07-13T11:42:08.000Z</time>
      </trkpt>
      <trkpt lat="42.43651" lon="2.71339">
        <ele>1024.4000244141</ele>
        <time>2023-07-13T11:42:13.000Z</time>
      </trkpt>
      <trkpt lat="42.43653" lon="2.71334">
        <ele>1023.200012207</ele>
        <time>2023-07-13T11:42:18.000Z</time>
      </trkpt>
      <trkpt lat="42.43657" lon="2.7133">
        <ele>1022.200012207</ele>
        <time>2023-07-13T11:42:23.000Z</time>
      </trkpt>
      <trkpt lat="42.43662" lon="2.71327">
        <ele>1021.799987793</ele>
        <time>2023-07-13T11:42:28.000Z</time>
      </trkpt>
      <trkpt lat="42.43663" lon="2.71325">
        <ele>1021.200012207</ele>
        <time>2023-07-13T11:42:32.000Z</time>
      </trkpt>
      <trkpt lat="42.43667" lon="2.71322">
        <ele>1020.200012207</ele>
        <time>2023-07-13T11:42:37.000Z</time>
      </trkpt>
      <trkpt lat="42.4367" lon="2.7132">
        <ele>1020.200012207</ele>
        <time>2023-07-13T11:42:39.000Z</time>
      </trkpt>
      <trkpt lat="42.43678" lon="2.71312">
        <ele>1019</ele>
        <time>2023-07-13T11:42:45.000Z</time>
      </trkpt>
      <trkpt lat="42.43681" lon="2.71305">
        <ele>1017.799987793</ele>
        <time>2023-07-13T11:42:51.000Z</time>
      </trkpt>
      <trkpt lat="42.43682" lon="2.71303">
        <ele>1017.4000244141</ele>
        <time>2023-07-13T11:42:53.000Z</time>
      </trkpt>
      <trkpt lat="42.43684" lon="2.713">
        <ele>1016.799987793</ele>
        <time>2023-07-13T11:42:56.000Z</time>
      </trkpt>
      <trkpt lat="42.43686" lon="2.71294">
        <ele>1015.5999755859</ele>
        <time>2023-07-13T11:43:01.000Z</time>
      </trkpt>
      <trkpt lat="42.43686" lon="2.71293">
        <ele>1015.4000244141</ele>
        <time>2023-07-13T11:43:02.000Z</time>
      </trkpt>
      <trkpt lat="42.43687" lon="2.7129">
        <ele>1014.5999755859</ele>
        <time>2023-07-13T11:43:05.000Z</time>
      </trkpt>
      <trkpt lat="42.43687" lon="2.71289">
        <ele>1014</ele>
        <time>2023-07-13T11:43:09.000Z</time>
      </trkpt>
      <trkpt lat="42.43685" lon="2.71289">
        <ele>1013.5999755859</ele>
        <time>2023-07-13T11:43:19.000Z</time>
      </trkpt>
      <trkpt lat="42.43686" lon="2.7129">
        <ele>1013.5999755859</ele>
        <time>2023-07-13T11:43:20.000Z</time>
      </trkpt>
      <trkpt lat="42.43688" lon="2.71287">
        <ele>1013.4000244141</ele>
        <time>2023-07-13T11:43:26.000Z</time>
      </trkpt>
      <trkpt lat="42.43693" lon="2.71288">
        <ele>1012.5999755859</ele>
        <time>2023-07-13T11:43:30.000Z</time>
      </trkpt>
      <trkpt lat="42.43695" lon="2.71287">
        <ele>1012</ele>
        <time>2023-07-13T11:43:33.000Z</time>
      </trkpt>
      <trkpt lat="42.43697" lon="2.71285">
        <ele>1011.4000244141</ele>
        <time>2023-07-13T11:43:36.000Z</time>
      </trkpt>
      <trkpt lat="42.43703" lon="2.7128">
        <ele>1010.5999755859</ele>
        <time>2023-07-13T11:43:42.000Z</time>
      </trkpt>
      <trkpt lat="42.43703" lon="2.71279">
        <ele>1010.4000244141</ele>
        <time>2023-07-13T11:43:43.000Z</time>
      </trkpt>
      <trkpt lat="42.43707" lon="2.71274">
        <ele>1009.4000244141</ele>
        <time>2023-07-13T11:43:49.000Z</time>
      </trkpt>
      <trkpt lat="42.43708" lon="2.71273">
        <ele>1009.200012207</ele>
        <time>2023-07-13T11:43:50.000Z</time>
      </trkpt>
      <trkpt lat="42.43713" lon="2.7127">
        <ele>1008.4000244141</ele>
        <time>2023-07-13T11:43:54.000Z</time>
      </trkpt>
      <trkpt lat="42.43714" lon="2.71269">
        <ele>1008</ele>
        <time>2023-07-13T11:43:55.000Z</time>
      </trkpt>
      <trkpt lat="42.43715" lon="2.71269">
        <ele>1007</ele>
        <time>2023-07-13T11:43:59.000Z</time>
      </trkpt>
      <trkpt lat="42.43717" lon="2.71269">
        <ele>1006.200012207</ele>
        <time>2023-07-13T11:44:02.000Z</time>
      </trkpt>
      <trkpt lat="42.43718" lon="2.71269">
        <ele>1006</ele>
        <time>2023-07-13T11:44:03.000Z</time>
      </trkpt>
      <trkpt lat="42.43722" lon="2.71268">
        <ele>1004.799987793</ele>
        <time>2023-07-13T11:44:08.000Z</time>
      </trkpt>
      <trkpt lat="42.43722" lon="2.71268">
        <ele>1004.5999755859</ele>
        <time>2023-07-13T11:44:09.000Z</time>
      </trkpt>
      <trkpt lat="42.43726" lon="2.71265">
        <ele>1003.5999755859</ele>
        <time>2023-07-13T11:44:15.000Z</time>
      </trkpt>
      <trkpt lat="42.43728" lon="2.71263">
        <ele>1002.4000244141</ele>
        <time>2023-07-13T11:44:19.000Z</time>
      </trkpt>
      <trkpt lat="42.43731" lon="2.71259">
        <ele>1001.200012207</ele>
        <time>2023-07-13T11:44:24.000Z</time>
      </trkpt>
      <trkpt lat="42.43731" lon="2.71258">
        <ele>1000.799987793</ele>
        <time>2023-07-13T11:44:26.000Z</time>
      </trkpt>
      <trkpt lat="42.43732" lon="2.71255">
        <ele>1000.200012207</ele>
        <time>2023-07-13T11:44:29.000Z</time>
      </trkpt>
      <trkpt lat="42.43733" lon="2.71251">
        <ele>998.79998779297</ele>
        <time>2023-07-13T11:44:34.000Z</time>
      </trkpt>
      <trkpt lat="42.43735" lon="2.71251">
        <ele>997.79998779297</ele>
        <time>2023-07-13T11:44:38.000Z</time>
      </trkpt>
      <trkpt lat="42.43736" lon="2.71251">
        <ele>996.79998779297</ele>
        <time>2023-07-13T11:44:42.000Z</time>
      </trkpt>
      <trkpt lat="42.43737" lon="2.7125">
        <ele>996.79998779297</ele>
        <time>2023-07-13T11:44:43.000Z</time>
      </trkpt>
      <trkpt lat="42.43743" lon="2.71247">
        <ele>995.40002441406</ele>
        <time>2023-07-13T11:44:48.000Z</time>
      </trkpt>
      <trkpt lat="42.43744" lon="2.71247">
        <ele>995.20001220703</ele>
        <time>2023-07-13T11:44:49.000Z</time>
      </trkpt>
      <trkpt lat="42.43748" lon="2.71246">
        <ele>994.40002441406</ele>
        <time>2023-07-13T11:44:53.000Z</time>
      </trkpt>
      <trkpt lat="42.43749" lon="2.71245">
        <ele>993.59997558594</ele>
        <time>2023-07-13T11:44:57.000Z</time>
      </trkpt>
      <trkpt lat="42.43749" lon="2.71245">
        <ele>993.40002441406</ele>
        <time>2023-07-13T11:44:58.000Z</time>
      </trkpt>
      <trkpt lat="42.43751" lon="2.71242">
        <ele>992.40002441406</ele>
        <time>2023-07-13T11:45:02.000Z</time>
      </trkpt>
      <trkpt lat="42.43752" lon="2.71239">
        <ele>991.59997558594</ele>
        <time>2023-07-13T11:45:05.000Z</time>
      </trkpt>
      <trkpt lat="42.43752" lon="2.71238">
        <ele>991.20001220703</ele>
        <time>2023-07-13T11:45:07.000Z</time>
      </trkpt>
      <trkpt lat="42.43755" lon="2.71238">
        <ele>990</ele>
        <time>2023-07-13T11:45:13.000Z</time>
      </trkpt>
      <trkpt lat="42.43756" lon="2.71238">
        <ele>989.79998779297</ele>
        <time>2023-07-13T11:45:14.000Z</time>
      </trkpt>
      <trkpt lat="42.4376" lon="2.71237">
        <ele>988.79998779297</ele>
        <time>2023-07-13T11:45:18.000Z</time>
      </trkpt>
      <trkpt lat="42.43763" lon="2.71232">
        <ele>987.79998779297</ele>
        <time>2023-07-13T11:45:22.000Z</time>
      </trkpt>
      <trkpt lat="42.4377" lon="2.71221">
        <ele>986.79998779297</ele>
        <time>2023-07-13T11:45:29.000Z</time>
      </trkpt>
      <trkpt lat="42.43771" lon="2.71217">
        <ele>986.59997558594</ele>
        <time>2023-07-13T11:45:32.000Z</time>
      </trkpt>
      <trkpt lat="42.43776" lon="2.71214">
        <ele>985.79998779297</ele>
        <time>2023-07-13T11:45:38.000Z</time>
      </trkpt>
      <trkpt lat="42.43779" lon="2.71211">
        <ele>985.20001220703</ele>
        <time>2023-07-13T11:45:41.000Z</time>
      </trkpt>
      <trkpt lat="42.4378" lon="2.71206">
        <ele>984.59997558594</ele>
        <time>2023-07-13T11:45:44.000Z</time>
      </trkpt>
      <trkpt lat="42.43785" lon="2.71199">
        <ele>983.59997558594</ele>
        <time>2023-07-13T11:45:50.000Z</time>
      </trkpt>
      <trkpt lat="42.43785" lon="2.71199">
        <ele>983.40002441406</ele>
        <time>2023-07-13T11:45:51.000Z</time>
      </trkpt>
      <trkpt lat="42.43788" lon="2.71197">
        <ele>982.20001220703</ele>
        <time>2023-07-13T11:45:57.000Z</time>
      </trkpt>
      <trkpt lat="42.43791" lon="2.71191">
        <ele>981.20001220703</ele>
        <time>2023-07-13T11:46:03.000Z</time>
      </trkpt>
      <trkpt lat="42.43792" lon="2.71189">
        <ele>980.79998779297</ele>
        <time>2023-07-13T11:46:05.000Z</time>
      </trkpt>
      <trkpt lat="42.43792" lon="2.71185">
        <ele>980</ele>
        <time>2023-07-13T11:46:09.000Z</time>
      </trkpt>
      <trkpt lat="42.43793" lon="2.71179">
        <ele>979.40002441406</ele>
        <time>2023-07-13T11:46:13.000Z</time>
      </trkpt>
      <trkpt lat="42.43794" lon="2.71177">
        <ele>979</ele>
        <time>2023-07-13T11:46:15.000Z</time>
      </trkpt>
      <trkpt lat="42.43797" lon="2.7117">
        <ele>977.79998779297</ele>
        <time>2023-07-13T11:46:21.000Z</time>
      </trkpt>
      <trkpt lat="42.43799" lon="2.71163">
        <ele>976.79998779297</ele>
        <time>2023-07-13T11:46:26.000Z</time>
      </trkpt>
      <trkpt lat="42.43798" lon="2.71162">
        <ele>976.40002441406</ele>
        <time>2023-07-13T11:46:29.000Z</time>
      </trkpt>
      <trkpt lat="42.43793" lon="2.71161">
        <ele>975.59997558594</ele>
        <time>2023-07-13T11:46:37.000Z</time>
      </trkpt>
      <trkpt lat="42.43789" lon="2.71163">
        <ele>975.20001220703</ele>
        <time>2023-07-13T11:46:46.000Z</time>
      </trkpt>
      <trkpt lat="42.43787" lon="2.71162">
        <ele>975.40002441406</ele>
        <time>2023-07-13T11:46:54.000Z</time>
      </trkpt>
      <trkpt lat="42.43786" lon="2.7116">
        <ele>974.79998779297</ele>
        <time>2023-07-13T11:47:01.000Z</time>
      </trkpt>
      <trkpt lat="42.43787" lon="2.71161">
        <ele>974.79998779297</ele>
        <time>2023-07-13T11:47:08.000Z</time>
      </trkpt>
      <trkpt lat="42.43789" lon="2.71163">
        <ele>974.59997558594</ele>
        <time>2023-07-13T11:47:15.000Z</time>
      </trkpt>
      <trkpt lat="42.43788" lon="2.71162">
        <ele>974.59997558594</ele>
        <time>2023-07-13T11:47:16.000Z</time>
      </trkpt>
      <trkpt lat="42.4379" lon="2.7116">
        <ele>974.20001220703</ele>
        <time>2023-07-13T11:47:22.000Z</time>
      </trkpt>
      <trkpt lat="42.4379" lon="2.71159">
        <ele>973.79998779297</ele>
        <time>2023-07-13T11:47:33.000Z</time>
      </trkpt>
      <trkpt lat="42.43791" lon="2.71158">
        <ele>973.59997558594</ele>
        <time>2023-07-13T11:47:42.000Z</time>
      </trkpt>
      <trkpt lat="42.43788" lon="2.71159">
        <ele>973.59997558594</ele>
        <time>2023-07-13T11:47:50.000Z</time>
      </trkpt>
      <trkpt lat="42.43784" lon="2.71159">
        <ele>973.59997558594</ele>
        <time>2023-07-13T11:47:56.000Z</time>
      </trkpt>
      <trkpt lat="42.43785" lon="2.71159">
        <ele>973.59997558594</ele>
        <time>2023-07-13T11:47:59.000Z</time>
      </trkpt>
      <trkpt lat="42.43786" lon="2.71156">
        <ele>973.40002441406</ele>
        <time>2023-07-13T11:48:05.000Z</time>
      </trkpt>
      <trkpt lat="42.43788" lon="2.71154">
        <ele>973.20001220703</ele>
        <time>2023-07-13T11:48:15.000Z</time>
      </trkpt>
      <trkpt lat="42.4379" lon="2.71155">
        <ele>973.20001220703</ele>
        <time>2023-07-13T11:48:25.000Z</time>
      </trkpt>
      <trkpt lat="42.43788" lon="2.7116">
        <ele>973.40002441406</ele>
        <time>2023-07-13T11:48:29.000Z</time>
      </trkpt>
      <trkpt lat="42.43787" lon="2.71162">
        <ele>973.59997558594</ele>
        <time>2023-07-13T11:48:36.000Z</time>
      </trkpt>
      <trkpt lat="42.43787" lon="2.71158">
        <ele>973.79998779297</ele>
        <time>2023-07-13T11:48:45.000Z</time>
      </trkpt>
      <trkpt lat="42.43788" lon="2.71154">
        <ele>973.79998779297</ele>
        <time>2023-07-13T11:48:54.000Z</time>
      </trkpt>
      <trkpt lat="42.43791" lon="2.71157">
        <ele>973.40002441406</ele>
        <time>2023-07-13T11:49:01.000Z</time>
      </trkpt>
      <trkpt lat="42.43793" lon="2.7116">
        <ele>973.20001220703</ele>
        <time>2023-07-13T11:49:09.000Z</time>
      </trkpt>
      <trkpt lat="42.43793" lon="2.71159">
        <ele>973</ele>
        <time>2023-07-13T11:49:18.000Z</time>
      </trkpt>
      <trkpt lat="42.4379" lon="2.7116">
        <ele>973</ele>
        <time>2023-07-13T11:49:26.000Z</time>
      </trkpt>
      <trkpt lat="42.43786" lon="2.71161">
        <ele>972.79998779297</ele>
        <time>2023-07-13T11:49:32.000Z</time>
      </trkpt>
      <trkpt lat="42.43789" lon="2.71155">
        <ele>972.79998779297</ele>
        <time>2023-07-13T11:49:43.000Z</time>
      </trkpt>
      <trkpt lat="42.4379" lon="2.71157">
        <ele>972.79998779297</ele>
        <time>2023-07-13T11:49:49.000Z</time>
      </trkpt>
      <trkpt lat="42.43794" lon="2.71163">
        <ele>973.40002441406</ele>
        <time>2023-07-13T11:49:57.000Z</time>
      </trkpt>
      <trkpt lat="42.43797" lon="2.71167">
        <ele>974</ele>
        <time>2023-07-13T11:50:03.000Z</time>
      </trkpt>
      <trkpt lat="42.438" lon="2.71165">
        <ele>974</ele>
        <time>2023-07-13T11:50:10.000Z</time>
      </trkpt>
      <trkpt lat="42.43803" lon="2.71167">
        <ele>974</ele>
        <time>2023-07-13T11:50:14.000Z</time>
      </trkpt>
      <trkpt lat="42.43803" lon="2.71168">
        <ele>974</ele>
        <time>2023-07-13T11:50:15.000Z</time>
      </trkpt>
      <trkpt lat="42.43804" lon="2.71164">
        <ele>973.59997558594</ele>
        <time>2023-07-13T11:50:27.000Z</time>
      </trkpt>
      <trkpt lat="42.43801" lon="2.71163">
        <ele>973.40002441406</ele>
        <time>2023-07-13T11:50:35.000Z</time>
      </trkpt>
      <trkpt lat="42.43799" lon="2.71167">
        <ele>973.40002441406</ele>
        <time>2023-07-13T11:50:42.000Z</time>
      </trkpt>
      <trkpt lat="42.43797" lon="2.71168">
        <ele>973.20001220703</ele>
        <time>2023-07-13T11:50:55.000Z</time>
      </trkpt>
      <trkpt lat="42.43802" lon="2.7117">
        <ele>973.59997558594</ele>
        <time>2023-07-13T11:51:02.000Z</time>
      </trkpt>
      <trkpt lat="42.438" lon="2.71166">
        <ele>973.20001220703</ele>
        <time>2023-07-13T11:51:10.000Z</time>
      </trkpt>
      <trkpt lat="42.43792" lon="2.71163">
        <ele>973.20001220703</ele>
        <time>2023-07-13T11:51:18.000Z</time>
      </trkpt>
      <trkpt lat="42.43789" lon="2.71162">
        <ele>972.59997558594</ele>
        <time>2023-07-13T11:51:26.000Z</time>
      </trkpt>
      <trkpt lat="42.43796" lon="2.71162">
        <ele>973</ele>
        <time>2023-07-13T11:51:35.000Z</time>
      </trkpt>
      <trkpt lat="42.43798" lon="2.71163">
        <ele>973.40002441406</ele>
        <time>2023-07-13T11:51:42.000Z</time>
      </trkpt>
      <trkpt lat="42.43804" lon="2.71159">
        <ele>972.40002441406</ele>
        <time>2023-07-13T11:51:48.000Z</time>
      </trkpt>
      <trkpt lat="42.43805" lon="2.71157">
        <ele>972</ele>
        <time>2023-07-13T11:51:50.000Z</time>
      </trkpt>
      <trkpt lat="42.43808" lon="2.71154">
        <ele>971.20001220703</ele>
        <time>2023-07-13T11:51:54.000Z</time>
      </trkpt>
      <trkpt lat="42.4381" lon="2.71153">
        <ele>970.79998779297</ele>
        <time>2023-07-13T11:51:57.000Z</time>
      </trkpt>
      <trkpt lat="42.43811" lon="2.71153">
        <ele>970.20001220703</ele>
        <time>2023-07-13T11:51:59.000Z</time>
      </trkpt>
      <trkpt lat="42.43816" lon="2.7115">
        <ele>969.40002441406</ele>
        <time>2023-07-13T11:52:06.000Z</time>
      </trkpt>
      <trkpt lat="42.43819" lon="2.71148">
        <ele>969.20001220703</ele>
        <time>2023-07-13T11:52:09.000Z</time>
      </trkpt>
      <trkpt lat="42.43822" lon="2.71143">
        <ele>968</ele>
        <time>2023-07-13T11:52:14.000Z</time>
      </trkpt>
      <trkpt lat="42.43822" lon="2.71143">
        <ele>967.79998779297</ele>
        <time>2023-07-13T11:52:15.000Z</time>
      </trkpt>
      <trkpt lat="42.43824" lon="2.71139">
        <ele>967</ele>
        <time>2023-07-13T11:52:20.000Z</time>
      </trkpt>
      <trkpt lat="42.43826" lon="2.71137">
        <ele>966.20001220703</ele>
        <time>2023-07-13T11:52:24.000Z</time>
      </trkpt>
      <trkpt lat="42.43827" lon="2.71136">
        <ele>965.79998779297</ele>
        <time>2023-07-13T11:52:26.000Z</time>
      </trkpt>
      <trkpt lat="42.43831" lon="2.71133">
        <ele>965</ele>
        <time>2023-07-13T11:52:31.000Z</time>
      </trkpt>
      <trkpt lat="42.43831" lon="2.71132">
        <ele>964.59997558594</ele>
        <time>2023-07-13T11:52:32.000Z</time>
      </trkpt>
      <trkpt lat="42.43832" lon="2.71128">
        <ele>963.40002441406</ele>
        <time>2023-07-13T11:52:36.000Z</time>
      </trkpt>
      <trkpt lat="42.43832" lon="2.71123">
        <ele>962.40002441406</ele>
        <time>2023-07-13T11:52:41.000Z</time>
      </trkpt>
      <trkpt lat="42.43833" lon="2.71118">
        <ele>961.40002441406</ele>
        <time>2023-07-13T11:52:47.000Z</time>
      </trkpt>
      <trkpt lat="42.43834" lon="2.71116">
        <ele>960.79998779297</ele>
        <time>2023-07-13T11:52:49.000Z</time>
      </trkpt>
      <trkpt lat="42.43834" lon="2.71115">
        <ele>960.40002441406</ele>
        <time>2023-07-13T11:52:52.000Z</time>
      </trkpt>
      <trkpt lat="42.43837" lon="2.7111">
        <ele>959.59997558594</ele>
        <time>2023-07-13T11:52:57.000Z</time>
      </trkpt>
      <trkpt lat="42.43842" lon="2.71105">
        <ele>959.20001220703</ele>
        <time>2023-07-13T11:53:00.000Z</time>
      </trkpt>
      <trkpt lat="42.43847" lon="2.71099">
        <ele>959</ele>
        <time>2023-07-13T11:53:05.000Z</time>
      </trkpt>
      <trkpt lat="42.43844" lon="2.711">
        <ele>958.79998779297</ele>
        <time>2023-07-13T11:53:11.000Z</time>
      </trkpt>
      <trkpt lat="42.43847" lon="2.71095">
        <ele>958.79998779297</ele>
        <time>2023-07-13T11:53:21.000Z</time>
      </trkpt>
      <trkpt lat="42.43848" lon="2.71091">
        <ele>958.79998779297</ele>
        <time>2023-07-13T11:53:28.000Z</time>
      </trkpt>
      <trkpt lat="42.43846" lon="2.71095">
        <ele>958.59997558594</ele>
        <time>2023-07-13T11:53:37.000Z</time>
      </trkpt>
      <trkpt lat="42.43843" lon="2.71097">
        <ele>958.59997558594</ele>
        <time>2023-07-13T11:53:44.000Z</time>
      </trkpt>
      <trkpt lat="42.43843" lon="2.71093">
        <ele>958.20001220703</ele>
        <time>2023-07-13T11:53:50.000Z</time>
      </trkpt>
      <trkpt lat="42.43843" lon="2.71092">
        <ele>958</ele>
        <time>2023-07-13T11:53:51.000Z</time>
      </trkpt>
      <trkpt lat="42.43841" lon="2.71079">
        <ele>957.40002441406</ele>
        <time>2023-07-13T11:53:58.000Z</time>
      </trkpt>
      <trkpt lat="42.4384" lon="2.71069">
        <ele>957.59997558594</ele>
        <time>2023-07-13T11:54:07.000Z</time>
      </trkpt>
      <trkpt lat="42.4384" lon="2.71066">
        <ele>957.20001220703</ele>
        <time>2023-07-13T11:54:12.000Z</time>
      </trkpt>
      <trkpt lat="42.43839" lon="2.71063">
        <ele>957</ele>
        <time>2023-07-13T11:54:15.000Z</time>
      </trkpt>
      <trkpt lat="42.43839" lon="2.71057">
        <ele>956.59997558594</ele>
        <time>2023-07-13T11:54:23.000Z</time>
      </trkpt>
      <trkpt lat="42.43838" lon="2.71052">
        <ele>956.20001220703</ele>
        <time>2023-07-13T11:54:33.000Z</time>
      </trkpt>
      <trkpt lat="42.43837" lon="2.71052">
        <ele>956.40002441406</ele>
        <time>2023-07-13T11:54:43.000Z</time>
      </trkpt>
      <trkpt lat="42.43836" lon="2.71049">
        <ele>957</ele>
        <time>2023-07-13T11:54:53.000Z</time>
      </trkpt>
      <trkpt lat="42.43833" lon="2.71041">
        <ele>957</ele>
        <time>2023-07-13T11:55:00.000Z</time>
      </trkpt>
      <trkpt lat="42.4383" lon="2.71031">
        <ele>956.59997558594</ele>
        <time>2023-07-13T11:55:07.000Z</time>
      </trkpt>
      <trkpt lat="42.43827" lon="2.71018">
        <ele>956.20001220703</ele>
        <time>2023-07-13T11:55:14.000Z</time>
      </trkpt>
      <trkpt lat="42.43829" lon="2.71011">
        <ele>956.20001220703</ele>
        <time>2023-07-13T11:55:21.000Z</time>
      </trkpt>
      <trkpt lat="42.43827" lon="2.71012">
        <ele>956.20001220703</ele>
        <time>2023-07-13T11:55:29.000Z</time>
      </trkpt>
      <trkpt lat="42.43827" lon="2.71011">
        <ele>956</ele>
        <time>2023-07-13T11:55:30.000Z</time>
      </trkpt>
      <trkpt lat="42.43826" lon="2.71007">
        <ele>956</ele>
        <time>2023-07-13T11:55:37.000Z</time>
      </trkpt>
      <trkpt lat="42.43827" lon="2.70995">
        <ele>956.59997558594</ele>
        <time>2023-07-13T11:55:44.000Z</time>
      </trkpt>
      <trkpt lat="42.43827" lon="2.70986">
        <ele>957</ele>
        <time>2023-07-13T11:55:51.000Z</time>
      </trkpt>
      <trkpt lat="42.43827" lon="2.70986">
        <ele>957.20001220703</ele>
        <time>2023-07-13T11:55:52.000Z</time>
      </trkpt>
      <trkpt lat="42.43826" lon="2.70975">
        <ele>958.20001220703</ele>
        <time>2023-07-13T11:56:00.000Z</time>
      </trkpt>
      <trkpt lat="42.43822" lon="2.70964">
        <ele>958.79998779297</ele>
        <time>2023-07-13T11:56:09.000Z</time>
      </trkpt>
      <trkpt lat="42.43822" lon="2.70959">
        <ele>958.59997558594</ele>
        <time>2023-07-13T11:56:15.000Z</time>
      </trkpt>
      <trkpt lat="42.43822" lon="2.70955">
        <ele>959.40002441406</ele>
        <time>2023-07-13T11:56:21.000Z</time>
      </trkpt>
      <trkpt lat="42.43821" lon="2.70952">
        <ele>959.40002441406</ele>
        <time>2023-07-13T11:56:23.000Z</time>
      </trkpt>
      <trkpt lat="42.43816" lon="2.70937">
        <ele>958.79998779297</ele>
        <time>2023-07-13T11:56:32.000Z</time>
      </trkpt>
      <trkpt lat="42.43818" lon="2.70931">
        <ele>958.79998779297</ele>
        <time>2023-07-13T11:56:40.000Z</time>
      </trkpt>
      <trkpt lat="42.43818" lon="2.70922">
        <ele>958.40002441406</ele>
        <time>2023-07-13T11:56:48.000Z</time>
      </trkpt>
      <trkpt lat="42.4382" lon="2.70916">
        <ele>957.40002441406</ele>
        <time>2023-07-13T11:56:57.000Z</time>
      </trkpt>
      <trkpt lat="42.4382" lon="2.70915">
        <ele>957.20001220703</ele>
        <time>2023-07-13T11:56:58.000Z</time>
      </trkpt>
      <trkpt lat="42.4382" lon="2.70911">
        <ele>956.59997558594</ele>
        <time>2023-07-13T11:57:03.000Z</time>
      </trkpt>
      <trkpt lat="42.4382" lon="2.7091">
        <ele>956.20001220703</ele>
        <time>2023-07-13T11:57:04.000Z</time>
      </trkpt>
      <trkpt lat="42.43823" lon="2.70908">
        <ele>955.40002441406</ele>
        <time>2023-07-13T11:57:09.000Z</time>
      </trkpt>
      <trkpt lat="42.43823" lon="2.70908">
        <ele>955.20001220703</ele>
        <time>2023-07-13T11:57:10.000Z</time>
      </trkpt>
      <trkpt lat="42.43826" lon="2.70903">
        <ele>954.20001220703</ele>
        <time>2023-07-13T11:57:16.000Z</time>
      </trkpt>
      <trkpt lat="42.43827" lon="2.70901">
        <ele>954</ele>
        <time>2023-07-13T11:57:17.000Z</time>
      </trkpt>
      <trkpt lat="42.43827" lon="2.709">
        <ele>953.20001220703</ele>
        <time>2023-07-13T11:57:21.000Z</time>
      </trkpt>
      <trkpt lat="42.43828" lon="2.70899">
        <ele>952.40002441406</ele>
        <time>2023-07-13T11:57:25.000Z</time>
      </trkpt>
      <trkpt lat="42.43829" lon="2.70898">
        <ele>952</ele>
        <time>2023-07-13T11:57:27.000Z</time>
      </trkpt>
      <trkpt lat="42.43833" lon="2.70895">
        <ele>950.79998779297</ele>
        <time>2023-07-13T11:57:33.000Z</time>
      </trkpt>
      <trkpt lat="42.43833" lon="2.70894">
        <ele>950.59997558594</ele>
        <time>2023-07-13T11:57:34.000Z</time>
      </trkpt>
      <trkpt lat="42.43835" lon="2.70893">
        <ele>949.79998779297</ele>
        <time>2023-07-13T11:57:38.000Z</time>
      </trkpt>
      <trkpt lat="42.43837" lon="2.70892">
        <ele>949.20001220703</ele>
        <time>2023-07-13T11:57:41.000Z</time>
      </trkpt>
      <trkpt lat="42.4384" lon="2.70891">
        <ele>948.59997558594</ele>
        <time>2023-07-13T11:57:44.000Z</time>
      </trkpt>
      <trkpt lat="42.43845" lon="2.70888">
        <ele>947.59997558594</ele>
        <time>2023-07-13T11:57:50.000Z</time>
      </trkpt>
      <trkpt lat="42.43846" lon="2.70885">
        <ele>946.40002441406</ele>
        <time>2023-07-13T11:57:56.000Z</time>
      </trkpt>
      <trkpt lat="42.43847" lon="2.70884">
        <ele>946.20001220703</ele>
        <time>2023-07-13T11:57:57.000Z</time>
      </trkpt>
      <trkpt lat="42.43848" lon="2.7088">
        <ele>945.20001220703</ele>
        <time>2023-07-13T11:58:02.000Z</time>
      </trkpt>
      <trkpt lat="42.43849" lon="2.70877">
        <ele>944.59997558594</ele>
        <time>2023-07-13T11:58:04.000Z</time>
      </trkpt>
      <trkpt lat="42.43851" lon="2.70876">
        <ele>944</ele>
        <time>2023-07-13T11:58:07.000Z</time>
      </trkpt>
      <trkpt lat="42.43851" lon="2.70875">
        <ele>943.20001220703</ele>
        <time>2023-07-13T11:58:11.000Z</time>
      </trkpt>
      <trkpt lat="42.43855" lon="2.70878">
        <ele>941.79998779297</ele>
        <time>2023-07-13T11:58:17.000Z</time>
      </trkpt>
      <trkpt lat="42.43855" lon="2.70878">
        <ele>941.59997558594</ele>
        <time>2023-07-13T11:58:18.000Z</time>
      </trkpt>
      <trkpt lat="42.43855" lon="2.70876">
        <ele>941.40002441406</ele>
        <time>2023-07-13T11:58:19.000Z</time>
      </trkpt>
      <trkpt lat="42.43855" lon="2.70874">
        <ele>940.79998779297</ele>
        <time>2023-07-13T11:58:23.000Z</time>
      </trkpt>
      <trkpt lat="42.43855" lon="2.70873">
        <ele>940.40002441406</ele>
        <time>2023-07-13T11:58:24.000Z</time>
      </trkpt>
      <trkpt lat="42.43856" lon="2.70872">
        <ele>939.20001220703</ele>
        <time>2023-07-13T11:58:31.000Z</time>
      </trkpt>
      <trkpt lat="42.43859" lon="2.70868">
        <ele>938.20001220703</ele>
        <time>2023-07-13T11:58:37.000Z</time>
      </trkpt>
      <trkpt lat="42.43859" lon="2.70869">
        <ele>938</ele>
        <time>2023-07-13T11:58:38.000Z</time>
      </trkpt>
      <trkpt lat="42.43863" lon="2.70868">
        <ele>938.20001220703</ele>
        <time>2023-07-13T11:58:47.000Z</time>
      </trkpt>
      <trkpt lat="42.4385" lon="2.70865">
        <ele>938.20001220703</ele>
        <time>2023-07-13T11:59:20.000Z</time>
      </trkpt>
      <trkpt lat="42.43856" lon="2.70861">
        <ele>937.40002441406</ele>
        <time>2023-07-13T11:59:27.000Z</time>
      </trkpt>
      <trkpt lat="42.43857" lon="2.70861">
        <ele>937</ele>
        <time>2023-07-13T11:59:29.000Z</time>
      </trkpt>
      <trkpt lat="42.4386" lon="2.70863">
        <ele>936.79998779297</ele>
        <time>2023-07-13T11:59:33.000Z</time>
      </trkpt>
      <trkpt lat="42.43865" lon="2.7086">
        <ele>936.59997558594</ele>
        <time>2023-07-13T11:59:39.000Z</time>
      </trkpt>
      <trkpt lat="42.43866" lon="2.70858">
        <ele>936</ele>
        <time>2023-07-13T11:59:43.000Z</time>
      </trkpt>
      <trkpt lat="42.43868" lon="2.70857">
        <ele>935.20001220703</ele>
        <time>2023-07-13T11:59:47.000Z</time>
      </trkpt>
      <trkpt lat="42.43869" lon="2.70856">
        <ele>935</ele>
        <time>2023-07-13T11:59:48.000Z</time>
      </trkpt>
      <trkpt lat="42.43875" lon="2.70848">
        <ele>932</ele>
        <time>2023-07-13T12:00:04.000Z</time>
      </trkpt>
      <trkpt lat="42.43876" lon="2.70847">
        <ele>931.79998779297</ele>
        <time>2023-07-13T12:00:05.000Z</time>
      </trkpt>
      <trkpt lat="42.43882" lon="2.70837">
        <ele>930.79998779297</ele>
        <time>2023-07-13T12:00:14.000Z</time>
      </trkpt>
      <trkpt lat="42.43883" lon="2.70837">
        <ele>930.40002441406</ele>
        <time>2023-07-13T12:00:15.000Z</time>
      </trkpt>
      <trkpt lat="42.43886" lon="2.70835">
        <ele>929.59997558594</ele>
        <time>2023-07-13T12:00:19.000Z</time>
      </trkpt>
      <trkpt lat="42.43887" lon="2.70832">
        <ele>928.79998779297</ele>
        <time>2023-07-13T12:00:23.000Z</time>
      </trkpt>
      <trkpt lat="42.43887" lon="2.70829">
        <ele>928.59997558594</ele>
        <time>2023-07-13T12:00:26.000Z</time>
      </trkpt>
      <trkpt lat="42.4389" lon="2.70822">
        <ele>927.40002441406</ele>
        <time>2023-07-13T12:00:32.000Z</time>
      </trkpt>
      <trkpt lat="42.43894" lon="2.70817">
        <ele>926.40002441406</ele>
        <time>2023-07-13T12:00:38.000Z</time>
      </trkpt>
      <trkpt lat="42.43895" lon="2.70815">
        <ele>926.20001220703</ele>
        <time>2023-07-13T12:00:40.000Z</time>
      </trkpt>
      <trkpt lat="42.439" lon="2.70809">
        <ele>925.40002441406</ele>
        <time>2023-07-13T12:00:46.000Z</time>
      </trkpt>
      <trkpt lat="42.43903" lon="2.70806">
        <ele>924.79998779297</ele>
        <time>2023-07-13T12:00:49.000Z</time>
      </trkpt>
      <trkpt lat="42.43906" lon="2.70805">
        <ele>924.20001220703</ele>
        <time>2023-07-13T12:00:53.000Z</time>
      </trkpt>
      <trkpt lat="42.43908" lon="2.70804">
        <ele>924.20001220703</ele>
        <time>2023-07-13T12:00:57.000Z</time>
      </trkpt>
      <trkpt lat="42.4391" lon="2.70799">
        <ele>923.20001220703</ele>
        <time>2023-07-13T12:01:04.000Z</time>
      </trkpt>
      <trkpt lat="42.43911" lon="2.70798">
        <ele>922.20001220703</ele>
        <time>2023-07-13T12:01:09.000Z</time>
      </trkpt>
      <trkpt lat="42.43913" lon="2.70796">
        <ele>921.40002441406</ele>
        <time>2023-07-13T12:01:12.000Z</time>
      </trkpt>
      <trkpt lat="42.43915" lon="2.70794">
        <ele>921.20001220703</ele>
        <time>2023-07-13T12:01:14.000Z</time>
      </trkpt>
      <trkpt lat="42.43921" lon="2.70792">
        <ele>920.40002441406</ele>
        <time>2023-07-13T12:01:20.000Z</time>
      </trkpt>
      <trkpt lat="42.43929" lon="2.70787">
        <ele>921</ele>
        <time>2023-07-13T12:01:30.000Z</time>
      </trkpt>
      <trkpt lat="42.43931" lon="2.70782">
        <ele>920.59997558594</ele>
        <time>2023-07-13T12:01:38.000Z</time>
      </trkpt>
      <trkpt lat="42.43932" lon="2.7078">
        <ele>920</ele>
        <time>2023-07-13T12:01:40.000Z</time>
      </trkpt>
      <trkpt lat="42.43935" lon="2.70775">
        <ele>919</ele>
        <time>2023-07-13T12:01:46.000Z</time>
      </trkpt>
      <trkpt lat="42.43937" lon="2.70773">
        <ele>918.59997558594</ele>
        <time>2023-07-13T12:01:48.000Z</time>
      </trkpt>
      <trkpt lat="42.4394" lon="2.70766">
        <ele>918.20001220703</ele>
        <time>2023-07-13T12:01:55.000Z</time>
      </trkpt>
      <trkpt lat="42.43941" lon="2.70763">
        <ele>918</ele>
        <time>2023-07-13T12:01:58.000Z</time>
      </trkpt>
      <trkpt lat="42.43943" lon="2.70757">
        <ele>917.20001220703</ele>
        <time>2023-07-13T12:02:02.000Z</time>
      </trkpt>
      <trkpt lat="42.43945" lon="2.70752">
        <ele>916.79998779297</ele>
        <time>2023-07-13T12:02:05.000Z</time>
      </trkpt>
      <trkpt lat="42.43946" lon="2.70747">
        <ele>916.40002441406</ele>
        <time>2023-07-13T12:02:09.000Z</time>
      </trkpt>
      <trkpt lat="42.43948" lon="2.70741">
        <ele>915.79998779297</ele>
        <time>2023-07-13T12:02:16.000Z</time>
      </trkpt>
      <trkpt lat="42.43952" lon="2.70736">
        <ele>914.59997558594</ele>
        <time>2023-07-13T12:02:22.000Z</time>
      </trkpt>
      <trkpt lat="42.43953" lon="2.70735">
        <ele>914.40002441406</ele>
        <time>2023-07-13T12:02:23.000Z</time>
      </trkpt>
      <trkpt lat="42.43958" lon="2.70729">
        <ele>913.59997558594</ele>
        <time>2023-07-13T12:02:31.000Z</time>
      </trkpt>
      <trkpt lat="42.43966" lon="2.70718">
        <ele>912.79998779297</ele>
        <time>2023-07-13T12:02:42.000Z</time>
      </trkpt>
      <trkpt lat="42.43969" lon="2.70715">
        <ele>912.59997558594</ele>
        <time>2023-07-13T12:02:45.000Z</time>
      </trkpt>
      <trkpt lat="42.43973" lon="2.70709">
        <ele>912.40002441406</ele>
        <time>2023-07-13T12:02:50.000Z</time>
      </trkpt>
      <trkpt lat="42.43979" lon="2.70706">
        <ele>911.79998779297</ele>
        <time>2023-07-13T12:02:57.000Z</time>
      </trkpt>
      <trkpt lat="42.4398" lon="2.70705">
        <ele>911.59997558594</ele>
        <time>2023-07-13T12:02:58.000Z</time>
      </trkpt>
      <trkpt lat="42.43982" lon="2.70703">
        <ele>910.79998779297</ele>
        <time>2023-07-13T12:03:04.000Z</time>
      </trkpt>
      <trkpt lat="42.43986" lon="2.707">
        <ele>910.40002441406</ele>
        <time>2023-07-13T12:03:09.000Z</time>
      </trkpt>
      <trkpt lat="42.43988" lon="2.707">
        <ele>910</ele>
        <time>2023-07-13T12:03:12.000Z</time>
      </trkpt>
      <trkpt lat="42.43994" lon="2.70699">
        <ele>909.59997558594</ele>
        <time>2023-07-13T12:03:19.000Z</time>
      </trkpt>
      <trkpt lat="42.43994" lon="2.70698">
        <ele>909.40002441406</ele>
        <time>2023-07-13T12:03:20.000Z</time>
      </trkpt>
      <trkpt lat="42.43998" lon="2.70695">
        <ele>908.20001220703</ele>
        <time>2023-07-13T12:03:26.000Z</time>
      </trkpt>
      <trkpt lat="42.44" lon="2.70692">
        <ele>907</ele>
        <time>2023-07-13T12:03:32.000Z</time>
      </trkpt>
      <trkpt lat="42.44001" lon="2.7069">
        <ele>906.59997558594</ele>
        <time>2023-07-13T12:03:34.000Z</time>
      </trkpt>
      <trkpt lat="42.44004" lon="2.70684">
        <ele>906</ele>
        <time>2023-07-13T12:03:39.000Z</time>
      </trkpt>
      <trkpt lat="42.44004" lon="2.70682">
        <ele>905.59997558594</ele>
        <time>2023-07-13T12:03:41.000Z</time>
      </trkpt>
      <trkpt lat="42.44006" lon="2.70679">
        <ele>904.79998779297</ele>
        <time>2023-07-13T12:03:45.000Z</time>
      </trkpt>
      <trkpt lat="42.44008" lon="2.70675">
        <ele>904.20001220703</ele>
        <time>2023-07-13T12:03:49.000Z</time>
      </trkpt>
      <trkpt lat="42.44009" lon="2.70674">
        <ele>903.79998779297</ele>
        <time>2023-07-13T12:03:54.000Z</time>
      </trkpt>
      <trkpt lat="42.44009" lon="2.70675">
        <ele>903.79998779297</ele>
        <time>2023-07-13T12:03:58.000Z</time>
      </trkpt>
      <trkpt lat="42.4401" lon="2.70673">
        <ele>903.79998779297</ele>
        <time>2023-07-13T12:04:08.000Z</time>
      </trkpt>
      <trkpt lat="42.44015" lon="2.70671">
        <ele>903.79998779297</ele>
        <time>2023-07-13T12:04:15.000Z</time>
      </trkpt>
      <trkpt lat="42.44028" lon="2.70667">
        <ele>901.59997558594</ele>
        <time>2023-07-13T12:04:32.000Z</time>
      </trkpt>
      <trkpt lat="42.44029" lon="2.70666">
        <ele>901.40002441406</ele>
        <time>2023-07-13T12:04:33.000Z</time>
      </trkpt>
      <trkpt lat="42.44031" lon="2.70662">
        <ele>900.59997558594</ele>
        <time>2023-07-13T12:04:42.000Z</time>
      </trkpt>
      <trkpt lat="42.44031" lon="2.70661">
        <ele>900.40002441406</ele>
        <time>2023-07-13T12:04:43.000Z</time>
      </trkpt>
      <trkpt lat="42.44031" lon="2.70657">
        <ele>899.40002441406</ele>
        <time>2023-07-13T12:04:49.000Z</time>
      </trkpt>
      <trkpt lat="42.4403" lon="2.70656">
        <ele>899.40002441406</ele>
        <time>2023-07-13T12:04:50.000Z</time>
      </trkpt>
      <trkpt lat="42.44025" lon="2.70653">
        <ele>898.20001220703</ele>
        <time>2023-07-13T12:04:56.000Z</time>
      </trkpt>
      <trkpt lat="42.44024" lon="2.70651">
        <ele>897</ele>
        <time>2023-07-13T12:05:02.000Z</time>
      </trkpt>
      <trkpt lat="42.44027" lon="2.70647">
        <ele>897</ele>
        <time>2023-07-13T12:05:07.000Z</time>
      </trkpt>
      <trkpt lat="42.44033" lon="2.70637">
        <ele>896.79998779297</ele>
        <time>2023-07-13T12:05:15.000Z</time>
      </trkpt>
      <trkpt lat="42.44036" lon="2.70625">
        <ele>897.79998779297</ele>
        <time>2023-07-13T12:05:22.000Z</time>
      </trkpt>
      <trkpt lat="42.44036" lon="2.70623">
        <ele>898</ele>
        <time>2023-07-13T12:05:24.000Z</time>
      </trkpt>
      <trkpt lat="42.44035" lon="2.70617">
        <ele>897.79998779297</ele>
        <time>2023-07-13T12:05:30.000Z</time>
      </trkpt>
      <trkpt lat="42.44037" lon="2.70606">
        <ele>897.20001220703</ele>
        <time>2023-07-13T12:05:36.000Z</time>
      </trkpt>
      <trkpt lat="42.44039" lon="2.70599">
        <ele>897</ele>
        <time>2023-07-13T12:05:40.000Z</time>
      </trkpt>
      <trkpt lat="42.44041" lon="2.70594">
        <ele>896.59997558594</ele>
        <time>2023-07-13T12:05:43.000Z</time>
      </trkpt>
      <trkpt lat="42.44044" lon="2.70585">
        <ele>896</ele>
        <time>2023-07-13T12:05:48.000Z</time>
      </trkpt>
      <trkpt lat="42.44045" lon="2.70581">
        <ele>895.59997558594</ele>
        <time>2023-07-13T12:05:51.000Z</time>
      </trkpt>
      <trkpt lat="42.44049" lon="2.70569">
        <ele>895.40002441406</ele>
        <time>2023-07-13T12:05:59.000Z</time>
      </trkpt>
      <trkpt lat="42.44052" lon="2.70563">
        <ele>895.59997558594</ele>
        <time>2023-07-13T12:06:07.000Z</time>
      </trkpt>
      <trkpt lat="42.44055" lon="2.70556">
        <ele>894.79998779297</ele>
        <time>2023-07-13T12:06:13.000Z</time>
      </trkpt>
      <trkpt lat="42.44059" lon="2.70552">
        <ele>894.20001220703</ele>
        <time>2023-07-13T12:06:17.000Z</time>
      </trkpt>
      <trkpt lat="42.44068" lon="2.7055">
        <ele>894</ele>
        <time>2023-07-13T12:06:24.000Z</time>
      </trkpt>
      <trkpt lat="42.44071" lon="2.70549">
        <ele>893.79998779297</ele>
        <time>2023-07-13T12:06:27.000Z</time>
      </trkpt>
      <trkpt lat="42.44078" lon="2.70549">
        <ele>893</ele>
        <time>2023-07-13T12:06:33.000Z</time>
      </trkpt>
      <trkpt lat="42.4408" lon="2.70548">
        <ele>892.59997558594</ele>
        <time>2023-07-13T12:06:35.000Z</time>
      </trkpt>
      <trkpt lat="42.4409" lon="2.70545">
        <ele>891.79998779297</ele>
        <time>2023-07-13T12:06:42.000Z</time>
      </trkpt>
      <trkpt lat="42.44093" lon="2.70545">
        <ele>891.59997558594</ele>
        <time>2023-07-13T12:06:45.000Z</time>
      </trkpt>
      <trkpt lat="42.44096" lon="2.70544">
        <ele>891.59997558594</ele>
        <time>2023-07-13T12:06:49.000Z</time>
      </trkpt>
      <trkpt lat="42.44106" lon="2.7054">
        <ele>890.79998779297</ele>
        <time>2023-07-13T12:06:58.000Z</time>
      </trkpt>
      <trkpt lat="42.44109" lon="2.70539">
        <ele>890.59997558594</ele>
        <time>2023-07-13T12:07:01.000Z</time>
      </trkpt>
      <trkpt lat="42.44113" lon="2.70536">
        <ele>890.20001220703</ele>
        <time>2023-07-13T12:07:05.000Z</time>
      </trkpt>
      <trkpt lat="42.4412" lon="2.7053">
        <ele>889.79998779297</ele>
        <time>2023-07-13T12:07:15.000Z</time>
      </trkpt>
      <trkpt lat="42.44122" lon="2.70527">
        <ele>889.20001220703</ele>
        <time>2023-07-13T12:07:18.000Z</time>
      </trkpt>
      <trkpt lat="42.44125" lon="2.70523">
        <ele>888.59997558594</ele>
        <time>2023-07-13T12:07:21.000Z</time>
      </trkpt>
      <trkpt lat="42.44126" lon="2.70521">
        <ele>888.20001220703</ele>
        <time>2023-07-13T12:07:23.000Z</time>
      </trkpt>
      <trkpt lat="42.4413" lon="2.70517">
        <ele>887.20001220703</ele>
        <time>2023-07-13T12:07:27.000Z</time>
      </trkpt>
      <trkpt lat="42.44132" lon="2.70516">
        <ele>887</ele>
        <time>2023-07-13T12:07:29.000Z</time>
      </trkpt>
      <trkpt lat="42.44143" lon="2.7051">
        <ele>886.20001220703</ele>
        <time>2023-07-13T12:07:37.000Z</time>
      </trkpt>
      <trkpt lat="42.44146" lon="2.7051">
        <ele>886</ele>
        <time>2023-07-13T12:07:40.000Z</time>
      </trkpt>
      <trkpt lat="42.44154" lon="2.70511">
        <ele>885.79998779297</ele>
        <time>2023-07-13T12:07:45.000Z</time>
      </trkpt>
      <trkpt lat="42.44161" lon="2.7051">
        <ele>885.59997558594</ele>
        <time>2023-07-13T12:07:51.000Z</time>
      </trkpt>
      <trkpt lat="42.44161" lon="2.70501">
        <ele>885.20001220703</ele>
        <time>2023-07-13T12:07:58.000Z</time>
      </trkpt>
      <trkpt lat="42.44162" lon="2.70496">
        <ele>885</ele>
        <time>2023-07-13T12:08:01.000Z</time>
      </trkpt>
      <trkpt lat="42.44167" lon="2.70488">
        <ele>884.59997558594</ele>
        <time>2023-07-13T12:08:07.000Z</time>
      </trkpt>
      <trkpt lat="42.44173" lon="2.70477">
        <ele>884.59997558594</ele>
        <time>2023-07-13T12:08:16.000Z</time>
      </trkpt>
      <trkpt lat="42.44183" lon="2.70466">
        <ele>884</ele>
        <time>2023-07-13T12:08:26.000Z</time>
      </trkpt>
      <trkpt lat="42.44185" lon="2.70466">
        <ele>884</ele>
        <time>2023-07-13T12:08:28.000Z</time>
      </trkpt>
      <trkpt lat="42.44188" lon="2.70466">
        <ele>883.79998779297</ele>
        <time>2023-07-13T12:08:31.000Z</time>
      </trkpt>
      <trkpt lat="42.44191" lon="2.70466">
        <ele>883.79998779297</ele>
        <time>2023-07-13T12:08:34.000Z</time>
      </trkpt>
      <trkpt lat="42.44198" lon="2.70462">
        <ele>883.79998779297</ele>
        <time>2023-07-13T12:08:42.000Z</time>
      </trkpt>
      <trkpt lat="42.44205" lon="2.70459">
        <ele>884</ele>
        <time>2023-07-13T12:08:50.000Z</time>
      </trkpt>
      <trkpt lat="42.44215" lon="2.70456">
        <ele>883.20001220703</ele>
        <time>2023-07-13T12:08:58.000Z</time>
      </trkpt>
      <trkpt lat="42.44226" lon="2.70449">
        <ele>883.59997558594</ele>
        <time>2023-07-13T12:09:07.000Z</time>
      </trkpt>
      <trkpt lat="42.44229" lon="2.70447">
        <ele>884</ele>
        <time>2023-07-13T12:09:13.000Z</time>
      </trkpt>
      <trkpt lat="42.44234" lon="2.70446">
        <ele>882.79998779297</ele>
        <time>2023-07-13T12:09:18.000Z</time>
      </trkpt>
      <trkpt lat="42.44238" lon="2.70444">
        <ele>882.20001220703</ele>
        <time>2023-07-13T12:09:21.000Z</time>
      </trkpt>
      <trkpt lat="42.44241" lon="2.70443">
        <ele>881.40002441406</ele>
        <time>2023-07-13T12:09:23.000Z</time>
      </trkpt>
      <trkpt lat="42.44245" lon="2.70442">
        <ele>880.40002441406</ele>
        <time>2023-07-13T12:09:27.000Z</time>
      </trkpt>
      <trkpt lat="42.44247" lon="2.70442">
        <ele>879.79998779297</ele>
        <time>2023-07-13T12:09:30.000Z</time>
      </trkpt>
      <trkpt lat="42.44248" lon="2.70441">
        <ele>879.20001220703</ele>
        <time>2023-07-13T12:09:33.000Z</time>
      </trkpt>
      <trkpt lat="42.4425" lon="2.70441">
        <ele>879.20001220703</ele>
        <time>2023-07-13T12:09:37.000Z</time>
      </trkpt>
      <trkpt lat="42.44253" lon="2.70442">
        <ele>878.59997558594</ele>
        <time>2023-07-13T12:09:44.000Z</time>
      </trkpt>
      <trkpt lat="42.44255" lon="2.70442">
        <ele>878.20001220703</ele>
        <time>2023-07-13T12:09:47.000Z</time>
      </trkpt>
      <trkpt lat="42.44258" lon="2.70442">
        <ele>877.20001220703</ele>
        <time>2023-07-13T12:09:51.000Z</time>
      </trkpt>
      <trkpt lat="42.44259" lon="2.70442">
        <ele>877</ele>
        <time>2023-07-13T12:09:52.000Z</time>
      </trkpt>
      <trkpt lat="42.44265" lon="2.70438">
        <ele>876</ele>
        <time>2023-07-13T12:09:58.000Z</time>
      </trkpt>
      <trkpt lat="42.44266" lon="2.70438">
        <ele>875.79998779297</ele>
        <time>2023-07-13T12:09:59.000Z</time>
      </trkpt>
      <trkpt lat="42.44273" lon="2.70435">
        <ele>875</ele>
        <time>2023-07-13T12:10:08.000Z</time>
      </trkpt>
      <trkpt lat="42.44275" lon="2.70434">
        <ele>874.79998779297</ele>
        <time>2023-07-13T12:10:10.000Z</time>
      </trkpt>
      <trkpt lat="42.44281" lon="2.70435">
        <ele>874.79998779297</ele>
        <time>2023-07-13T12:10:17.000Z</time>
      </trkpt>
      <trkpt lat="42.44297" lon="2.70438">
        <ele>876</ele>
        <time>2023-07-13T12:10:29.000Z</time>
      </trkpt>
      <trkpt lat="42.44305" lon="2.70444">
        <ele>877</ele>
        <time>2023-07-13T12:10:37.000Z</time>
      </trkpt>
      <trkpt lat="42.44311" lon="2.70448">
        <ele>877.79998779297</ele>
        <time>2023-07-13T12:10:46.000Z</time>
      </trkpt>
      <trkpt lat="42.44314" lon="2.70448">
        <ele>877.59997558594</ele>
        <time>2023-07-13T12:10:48.000Z</time>
      </trkpt>
      <trkpt lat="42.4432" lon="2.70448">
        <ele>877.40002441406</ele>
        <time>2023-07-13T12:10:55.000Z</time>
      </trkpt>
      <trkpt lat="42.44324" lon="2.70448">
        <ele>876.79998779297</ele>
        <time>2023-07-13T12:11:02.000Z</time>
      </trkpt>
      <trkpt lat="42.44329" lon="2.70446">
        <ele>876</ele>
        <time>2023-07-13T12:11:09.000Z</time>
      </trkpt>
      <trkpt lat="42.4433" lon="2.70446">
        <ele>876</ele>
        <time>2023-07-13T12:11:10.000Z</time>
      </trkpt>
      <trkpt lat="42.44334" lon="2.70443">
        <ele>875</ele>
        <time>2023-07-13T12:11:16.000Z</time>
      </trkpt>
      <trkpt lat="42.44335" lon="2.70443">
        <ele>874.79998779297</ele>
        <time>2023-07-13T12:11:17.000Z</time>
      </trkpt>
      <trkpt lat="42.44339" lon="2.7044">
        <ele>873.79998779297</ele>
        <time>2023-07-13T12:11:24.000Z</time>
      </trkpt>
      <trkpt lat="42.4434" lon="2.7044">
        <ele>873.59997558594</ele>
        <time>2023-07-13T12:11:25.000Z</time>
      </trkpt>
      <trkpt lat="42.44347" lon="2.70435">
        <ele>872.79998779297</ele>
        <time>2023-07-13T12:11:32.000Z</time>
      </trkpt>
      <trkpt lat="42.44348" lon="2.70432">
        <ele>871.79998779297</ele>
        <time>2023-07-13T12:11:38.000Z</time>
      </trkpt>
      <trkpt lat="42.44351" lon="2.7043">
        <ele>871</ele>
        <time>2023-07-13T12:11:41.000Z</time>
      </trkpt>
      <trkpt lat="42.44353" lon="2.70429">
        <ele>870.59997558594</ele>
        <time>2023-07-13T12:11:44.000Z</time>
      </trkpt>
      <trkpt lat="42.44357" lon="2.70427">
        <ele>870</ele>
        <time>2023-07-13T12:11:48.000Z</time>
      </trkpt>
      <trkpt lat="42.44361" lon="2.70424">
        <ele>869.40002441406</ele>
        <time>2023-07-13T12:11:54.000Z</time>
      </trkpt>
      <trkpt lat="42.44362" lon="2.70423">
        <ele>869.40002441406</ele>
        <time>2023-07-13T12:11:55.000Z</time>
      </trkpt>
      <trkpt lat="42.44372" lon="2.70421">
        <ele>868.20001220703</ele>
        <time>2023-07-13T12:12:03.000Z</time>
      </trkpt>
      <trkpt lat="42.44374" lon="2.70421">
        <ele>868.20001220703</ele>
        <time>2023-07-13T12:12:04.000Z</time>
      </trkpt>
      <trkpt lat="42.44382" lon="2.70414">
        <ele>867.20001220703</ele>
        <time>2023-07-13T12:12:13.000Z</time>
      </trkpt>
      <trkpt lat="42.44386" lon="2.70404">
        <ele>867</ele>
        <time>2023-07-13T12:12:20.000Z</time>
      </trkpt>
      <trkpt lat="42.44392" lon="2.70397">
        <ele>866.59997558594</ele>
        <time>2023-07-13T12:12:27.000Z</time>
      </trkpt>
      <trkpt lat="42.44397" lon="2.7039">
        <ele>866</ele>
        <time>2023-07-13T12:12:34.000Z</time>
      </trkpt>
      <trkpt lat="42.44403" lon="2.70386">
        <ele>865</ele>
        <time>2023-07-13T12:12:40.000Z</time>
      </trkpt>
      <trkpt lat="42.44407" lon="2.70385">
        <ele>864</ele>
        <time>2023-07-13T12:12:47.000Z</time>
      </trkpt>
      <trkpt lat="42.44408" lon="2.70385">
        <ele>863.79998779297</ele>
        <time>2023-07-13T12:12:48.000Z</time>
      </trkpt>
      <trkpt lat="42.44412" lon="2.70381">
        <ele>862.79998779297</ele>
        <time>2023-07-13T12:12:53.000Z</time>
      </trkpt>
      <trkpt lat="42.44416" lon="2.70379">
        <ele>862</ele>
        <time>2023-07-13T12:12:57.000Z</time>
      </trkpt>
      <trkpt lat="42.44418" lon="2.70379">
        <ele>861.79998779297</ele>
        <time>2023-07-13T12:12:58.000Z</time>
      </trkpt>
      <trkpt lat="42.44424" lon="2.70376">
        <ele>860.79998779297</ele>
        <time>2023-07-13T12:13:06.000Z</time>
      </trkpt>
      <trkpt lat="42.44429" lon="2.70367">
        <ele>860</ele>
        <time>2023-07-13T12:13:13.000Z</time>
      </trkpt>
      <trkpt lat="42.4443" lon="2.70366">
        <ele>859.79998779297</ele>
        <time>2023-07-13T12:13:14.000Z</time>
      </trkpt>
      <trkpt lat="42.44434" lon="2.70357">
        <ele>859</ele>
        <time>2023-07-13T12:13:21.000Z</time>
      </trkpt>
      <trkpt lat="42.44435" lon="2.70353">
        <ele>858.79998779297</ele>
        <time>2023-07-13T12:13:23.000Z</time>
      </trkpt>
      <trkpt lat="42.44439" lon="2.70347">
        <ele>858.40002441406</ele>
        <time>2023-07-13T12:13:28.000Z</time>
      </trkpt>
      <trkpt lat="42.44448" lon="2.70339">
        <ele>858.20001220703</ele>
        <time>2023-07-13T12:13:37.000Z</time>
      </trkpt>
      <trkpt lat="42.44461" lon="2.7033">
        <ele>858.20001220703</ele>
        <time>2023-07-13T12:13:44.000Z</time>
      </trkpt>
      <trkpt lat="42.44465" lon="2.70323">
        <ele>857.79998779297</ele>
        <time>2023-07-13T12:13:50.000Z</time>
      </trkpt>
      <trkpt lat="42.44466" lon="2.70322">
        <ele>857.40002441406</ele>
        <time>2023-07-13T12:13:51.000Z</time>
      </trkpt>
      <trkpt lat="42.44469" lon="2.70315">
        <ele>856.59997558594</ele>
        <time>2023-07-13T12:13:57.000Z</time>
      </trkpt>
      <trkpt lat="42.4447" lon="2.70311">
        <ele>856.40002441406</ele>
        <time>2023-07-13T12:13:59.000Z</time>
      </trkpt>
      <trkpt lat="42.44471" lon="2.70305">
        <ele>856.20001220703</ele>
        <time>2023-07-13T12:14:05.000Z</time>
      </trkpt>
      <trkpt lat="42.44471" lon="2.70301">
        <ele>856.40002441406</ele>
        <time>2023-07-13T12:14:08.000Z</time>
      </trkpt>
      <trkpt lat="42.44469" lon="2.70293">
        <ele>857.20001220703</ele>
        <time>2023-07-13T12:14:15.000Z</time>
      </trkpt>
      <trkpt lat="42.44466" lon="2.70282">
        <ele>857.40002441406</ele>
        <time>2023-07-13T12:14:22.000Z</time>
      </trkpt>
      <trkpt lat="42.44463" lon="2.70274">
        <ele>857.59997558594</ele>
        <time>2023-07-13T12:14:30.000Z</time>
      </trkpt>
      <trkpt lat="42.44462" lon="2.70272">
        <ele>857.79998779297</ele>
        <time>2023-07-13T12:14:31.000Z</time>
      </trkpt>
      <trkpt lat="42.44456" lon="2.70264">
        <ele>858.59997558594</ele>
        <time>2023-07-13T12:14:38.000Z</time>
      </trkpt>
      <trkpt lat="42.44456" lon="2.70262">
        <ele>858.79998779297</ele>
        <time>2023-07-13T12:14:39.000Z</time>
      </trkpt>
      <trkpt lat="42.44456" lon="2.7026">
        <ele>859</ele>
        <time>2023-07-13T12:14:43.000Z</time>
      </trkpt>
      <trkpt lat="42.44453" lon="2.7025">
        <ele>858.79998779297</ele>
        <time>2023-07-13T12:14:49.000Z</time>
      </trkpt>
      <trkpt lat="42.4445" lon="2.70244">
        <ele>857.79998779297</ele>
        <time>2023-07-13T12:14:53.000Z</time>
      </trkpt>
      <trkpt lat="42.44449" lon="2.70241">
        <ele>857.20001220703</ele>
        <time>2023-07-13T12:14:56.000Z</time>
      </trkpt>
      <trkpt lat="42.44449" lon="2.70231">
        <ele>857.20001220703</ele>
        <time>2023-07-13T12:15:09.000Z</time>
      </trkpt>
      <trkpt lat="42.44449" lon="2.7023">
        <ele>857.59997558594</ele>
        <time>2023-07-13T12:15:17.000Z</time>
      </trkpt>
      <trkpt lat="42.44447" lon="2.70229">
        <ele>857.79998779297</ele>
        <time>2023-07-13T12:15:27.000Z</time>
      </trkpt>
      <trkpt lat="42.44446" lon="2.70228">
        <ele>858</ele>
        <time>2023-07-13T12:15:35.000Z</time>
      </trkpt>
      <trkpt lat="42.44443" lon="2.70223">
        <ele>858.59997558594</ele>
        <time>2023-07-13T12:15:44.000Z</time>
      </trkpt>
      <trkpt lat="42.44441" lon="2.7022">
        <ele>858.79998779297</ele>
        <time>2023-07-13T12:15:49.000Z</time>
      </trkpt>
      <trkpt lat="42.44439" lon="2.70212">
        <ele>859.40002441406</ele>
        <time>2023-07-13T12:15:54.000Z</time>
      </trkpt>
      <trkpt lat="42.44439" lon="2.70206">
        <ele>859.79998779297</ele>
        <time>2023-07-13T12:15:59.000Z</time>
      </trkpt>
      <trkpt lat="42.44438" lon="2.70201">
        <ele>860.40002441406</ele>
        <time>2023-07-13T12:16:03.000Z</time>
      </trkpt>
      <trkpt lat="42.44439" lon="2.70188">
        <ele>860.59997558594</ele>
        <time>2023-07-13T12:16:11.000Z</time>
      </trkpt>
      <trkpt lat="42.44439" lon="2.70174">
        <ele>859.20001220703</ele>
        <time>2023-07-13T12:16:20.000Z</time>
      </trkpt>
      <trkpt lat="42.4444" lon="2.70166">
        <ele>858.79998779297</ele>
        <time>2023-07-13T12:16:25.000Z</time>
      </trkpt>
      <trkpt lat="42.44441" lon="2.70163">
        <ele>858.40002441406</ele>
        <time>2023-07-13T12:16:28.000Z</time>
      </trkpt>
      <trkpt lat="42.44445" lon="2.70157">
        <ele>857.59997558594</ele>
        <time>2023-07-13T12:16:34.000Z</time>
      </trkpt>
      <trkpt lat="42.44451" lon="2.70148">
        <ele>856.79998779297</ele>
        <time>2023-07-13T12:16:42.000Z</time>
      </trkpt>
      <trkpt lat="42.44452" lon="2.70145">
        <ele>856.40002441406</ele>
        <time>2023-07-13T12:16:44.000Z</time>
      </trkpt>
      <trkpt lat="42.44458" lon="2.70141">
        <ele>855.20001220703</ele>
        <time>2023-07-13T12:16:50.000Z</time>
      </trkpt>
      <trkpt lat="42.4446" lon="2.70138">
        <ele>854.79998779297</ele>
        <time>2023-07-13T12:16:53.000Z</time>
      </trkpt>
      <trkpt lat="42.44464" lon="2.70135">
        <ele>854</ele>
        <time>2023-07-13T12:16:58.000Z</time>
      </trkpt>
      <trkpt lat="42.44468" lon="2.70134">
        <ele>853.59997558594</ele>
        <time>2023-07-13T12:17:01.000Z</time>
      </trkpt>
      <trkpt lat="42.44471" lon="2.70132">
        <ele>853</ele>
        <time>2023-07-13T12:17:04.000Z</time>
      </trkpt>
      <trkpt lat="42.44475" lon="2.70131">
        <ele>852.20001220703</ele>
        <time>2023-07-13T12:17:09.000Z</time>
      </trkpt>
      <trkpt lat="42.44476" lon="2.70131">
        <ele>852</ele>
        <time>2023-07-13T12:17:10.000Z</time>
      </trkpt>
      <trkpt lat="42.4448" lon="2.70128">
        <ele>851.40002441406</ele>
        <time>2023-07-13T12:17:17.000Z</time>
      </trkpt>
      <trkpt lat="42.44484" lon="2.70126">
        <ele>851.40002441406</ele>
        <time>2023-07-13T12:17:20.000Z</time>
      </trkpt>
      <trkpt lat="42.44495" lon="2.70121">
        <ele>851</ele>
        <time>2023-07-13T12:17:28.000Z</time>
      </trkpt>
      <trkpt lat="42.44496" lon="2.7012">
        <ele>850.79998779297</ele>
        <time>2023-07-13T12:17:29.000Z</time>
      </trkpt>
      <trkpt lat="42.44505" lon="2.70108">
        <ele>850.59997558594</ele>
        <time>2023-07-13T12:17:37.000Z</time>
      </trkpt>
      <trkpt lat="42.44505" lon="2.70095">
        <ele>851.59997558594</ele>
        <time>2023-07-13T12:17:45.000Z</time>
      </trkpt>
      <trkpt lat="42.44506" lon="2.70088">
        <ele>852.20001220703</ele>
        <time>2023-07-13T12:17:50.000Z</time>
      </trkpt>
      <trkpt lat="42.44509" lon="2.70079">
        <ele>852.40002441406</ele>
        <time>2023-07-13T12:17:55.000Z</time>
      </trkpt>
      <trkpt lat="42.44513" lon="2.70077">
        <ele>851.59997558594</ele>
        <time>2023-07-13T12:18:02.000Z</time>
      </trkpt>
      <trkpt lat="42.44516" lon="2.7008">
        <ele>851</ele>
        <time>2023-07-13T12:18:06.000Z</time>
      </trkpt>
      <trkpt lat="42.4452" lon="2.70083">
        <ele>850.40002441406</ele>
        <time>2023-07-13T12:18:09.000Z</time>
      </trkpt>
      <trkpt lat="42.44523" lon="2.70086">
        <ele>850</ele>
        <time>2023-07-13T12:18:12.000Z</time>
      </trkpt>
      <trkpt lat="42.44531" lon="2.7009">
        <ele>848.79998779297</ele>
        <time>2023-07-13T12:18:20.000Z</time>
      </trkpt>
      <trkpt lat="42.44537" lon="2.70092">
        <ele>849</ele>
        <time>2023-07-13T12:18:27.000Z</time>
      </trkpt>
      <trkpt lat="42.44547" lon="2.70092">
        <ele>849.20001220703</ele>
        <time>2023-07-13T12:18:35.000Z</time>
      </trkpt>
      <trkpt lat="42.4456" lon="2.7009">
        <ele>847.79998779297</ele>
        <time>2023-07-13T12:18:47.000Z</time>
      </trkpt>
      <trkpt lat="42.44562" lon="2.70091">
        <ele>846.59997558594</ele>
        <time>2023-07-13T12:18:52.000Z</time>
      </trkpt>
      <trkpt lat="42.44565" lon="2.70092">
        <ele>845.79998779297</ele>
        <time>2023-07-13T12:18:56.000Z</time>
      </trkpt>
      <trkpt lat="42.44565" lon="2.70092">
        <ele>845.59997558594</ele>
        <time>2023-07-13T12:18:57.000Z</time>
      </trkpt>
      <trkpt lat="42.4457" lon="2.70095">
        <ele>844.40002441406</ele>
        <time>2023-07-13T12:19:04.000Z</time>
      </trkpt>
      <trkpt lat="42.44572" lon="2.70095">
        <ele>844.20001220703</ele>
        <time>2023-07-13T12:19:06.000Z</time>
      </trkpt>
      <trkpt lat="42.44577" lon="2.70091">
        <ele>843.40002441406</ele>
        <time>2023-07-13T12:19:14.000Z</time>
      </trkpt>
      <trkpt lat="42.44578" lon="2.70089">
        <ele>843.40002441406</ele>
        <time>2023-07-13T12:19:15.000Z</time>
      </trkpt>
      <trkpt lat="42.44584" lon="2.70077">
        <ele>842.59997558594</ele>
        <time>2023-07-13T12:19:23.000Z</time>
      </trkpt>
      <trkpt lat="42.4459" lon="2.70072">
        <ele>843</ele>
        <time>2023-07-13T12:19:30.000Z</time>
      </trkpt>
      <trkpt lat="42.44599" lon="2.70077">
        <ele>843.20001220703</ele>
        <time>2023-07-13T12:19:37.000Z</time>
      </trkpt>
      <trkpt lat="42.44604" lon="2.70086">
        <ele>842.20001220703</ele>
        <time>2023-07-13T12:19:45.000Z</time>
      </trkpt>
      <trkpt lat="42.44608" lon="2.70091">
        <ele>841.20001220703</ele>
        <time>2023-07-13T12:19:51.000Z</time>
      </trkpt>
      <trkpt lat="42.44609" lon="2.70092">
        <ele>840.79998779297</ele>
        <time>2023-07-13T12:19:53.000Z</time>
      </trkpt>
      <trkpt lat="42.44615" lon="2.70097">
        <ele>840</ele>
        <time>2023-07-13T12:19:58.000Z</time>
      </trkpt>
      <trkpt lat="42.44618" lon="2.70099">
        <ele>839.79998779297</ele>
        <time>2023-07-13T12:20:01.000Z</time>
      </trkpt>
      <trkpt lat="42.44619" lon="2.70099">
        <ele>839</ele>
        <time>2023-07-13T12:20:07.000Z</time>
      </trkpt>
      <trkpt lat="42.4462" lon="2.70098">
        <ele>839</ele>
        <time>2023-07-13T12:20:08.000Z</time>
      </trkpt>
      <trkpt lat="42.44626" lon="2.70091">
        <ele>839.59997558594</ele>
        <time>2023-07-13T12:20:15.000Z</time>
      </trkpt>
      <trkpt lat="42.44629" lon="2.7009">
        <ele>840.20001220703</ele>
        <time>2023-07-13T12:20:18.000Z</time>
      </trkpt>
      <trkpt lat="42.44632" lon="2.70089">
        <ele>840.59997558594</ele>
        <time>2023-07-13T12:20:21.000Z</time>
      </trkpt>
      <trkpt lat="42.44642" lon="2.70087">
        <ele>840.59997558594</ele>
        <time>2023-07-13T12:20:29.000Z</time>
      </trkpt>
      <trkpt lat="42.44649" lon="2.70085">
        <ele>841</ele>
        <time>2023-07-13T12:20:39.000Z</time>
      </trkpt>
      <trkpt lat="42.44651" lon="2.70082">
        <ele>841.20001220703</ele>
        <time>2023-07-13T12:20:42.000Z</time>
      </trkpt>
      <trkpt lat="42.44654" lon="2.70079">
        <ele>841.40002441406</ele>
        <time>2023-07-13T12:20:46.000Z</time>
      </trkpt>
      <trkpt lat="42.44658" lon="2.70071">
        <ele>840.59997558594</ele>
        <time>2023-07-13T12:20:54.000Z</time>
      </trkpt>
      <trkpt lat="42.4466" lon="2.70059">
        <ele>840.79998779297</ele>
        <time>2023-07-13T12:21:02.000Z</time>
      </trkpt>
      <trkpt lat="42.44663" lon="2.7005">
        <ele>840.40002441406</ele>
        <time>2023-07-13T12:21:10.000Z</time>
      </trkpt>
      <trkpt lat="42.44664" lon="2.70047">
        <ele>840.20001220703</ele>
        <time>2023-07-13T12:21:12.000Z</time>
      </trkpt>
      <trkpt lat="42.44663" lon="2.70041">
        <ele>839</ele>
        <time>2023-07-13T12:21:19.000Z</time>
      </trkpt>
      <trkpt lat="42.44665" lon="2.70036">
        <ele>838</ele>
        <time>2023-07-13T12:21:26.000Z</time>
      </trkpt>
      <trkpt lat="42.44665" lon="2.70035">
        <ele>837.79998779297</ele>
        <time>2023-07-13T12:21:27.000Z</time>
      </trkpt>
      <trkpt lat="42.44668" lon="2.70029">
        <ele>836.79998779297</ele>
        <time>2023-07-13T12:21:32.000Z</time>
      </trkpt>
      <trkpt lat="42.44669" lon="2.70028">
        <ele>836.59997558594</ele>
        <time>2023-07-13T12:21:34.000Z</time>
      </trkpt>
      <trkpt lat="42.44671" lon="2.70024">
        <ele>835.79998779297</ele>
        <time>2023-07-13T12:21:40.000Z</time>
      </trkpt>
      <trkpt lat="42.44672" lon="2.70021">
        <ele>835.20001220703</ele>
        <time>2023-07-13T12:21:43.000Z</time>
      </trkpt>
      <trkpt lat="42.44674" lon="2.70018">
        <ele>834.59997558594</ele>
        <time>2023-07-13T12:21:46.000Z</time>
      </trkpt>
      <trkpt lat="42.44676" lon="2.70018">
        <ele>834.20001220703</ele>
        <time>2023-07-13T12:21:49.000Z</time>
      </trkpt>
      <trkpt lat="42.44677" lon="2.70018">
        <ele>834</ele>
        <time>2023-07-13T12:21:51.000Z</time>
      </trkpt>
      <trkpt lat="42.4468" lon="2.70016">
        <ele>833.59997558594</ele>
        <time>2023-07-13T12:21:54.000Z</time>
      </trkpt>
      <trkpt lat="42.44682" lon="2.70014">
        <ele>833.20001220703</ele>
        <time>2023-07-13T12:21:57.000Z</time>
      </trkpt>
      <trkpt lat="42.44683" lon="2.70011">
        <ele>832.40002441406</ele>
        <time>2023-07-13T12:22:01.000Z</time>
      </trkpt>
      <trkpt lat="42.44684" lon="2.70005">
        <ele>831.59997558594</ele>
        <time>2023-07-13T12:22:05.000Z</time>
      </trkpt>
      <trkpt lat="42.44685" lon="2.70002">
        <ele>831.40002441406</ele>
        <time>2023-07-13T12:22:07.000Z</time>
      </trkpt>
      <trkpt lat="42.44688" lon="2.69992">
        <ele>830.40002441406</ele>
        <time>2023-07-13T12:22:14.000Z</time>
      </trkpt>
      <trkpt lat="42.44691" lon="2.69991">
        <ele>829.79998779297</ele>
        <time>2023-07-13T12:22:21.000Z</time>
      </trkpt>
      <trkpt lat="42.44695" lon="2.69989">
        <ele>829.40002441406</ele>
        <time>2023-07-13T12:22:25.000Z</time>
      </trkpt>
      <trkpt lat="42.44698" lon="2.69984">
        <ele>828.40002441406</ele>
        <time>2023-07-13T12:22:30.000Z</time>
      </trkpt>
      <trkpt lat="42.44701" lon="2.69987">
        <ele>828.20001220703</ele>
        <time>2023-07-13T12:22:31.000Z</time>
      </trkpt>
      <trkpt lat="42.44701" lon="2.69973">
        <ele>827.40002441406</ele>
        <time>2023-07-13T12:22:42.000Z</time>
      </trkpt>
      <trkpt lat="42.44701" lon="2.6997">
        <ele>827</ele>
        <time>2023-07-13T12:22:44.000Z</time>
      </trkpt>
      <trkpt lat="42.44701" lon="2.69966">
        <ele>826.20001220703</ele>
        <time>2023-07-13T12:22:50.000Z</time>
      </trkpt>
      <trkpt lat="42.44701" lon="2.69966">
        <ele>826</ele>
        <time>2023-07-13T12:22:52.000Z</time>
      </trkpt>
      <trkpt lat="42.447" lon="2.69962">
        <ele>824.79998779297</ele>
        <time>2023-07-13T12:22:59.000Z</time>
      </trkpt>
      <trkpt lat="42.44701" lon="2.69954">
        <ele>823.59997558594</ele>
        <time>2023-07-13T12:23:06.000Z</time>
      </trkpt>
      <trkpt lat="42.44702" lon="2.69952">
        <ele>823.20001220703</ele>
        <time>2023-07-13T12:23:09.000Z</time>
      </trkpt>
      <trkpt lat="42.44701" lon="2.69949">
        <ele>822.59997558594</ele>
        <time>2023-07-13T12:23:12.000Z</time>
      </trkpt>
      <trkpt lat="42.44701" lon="2.69944">
        <ele>821.79998779297</ele>
        <time>2023-07-13T12:23:18.000Z</time>
      </trkpt>
      <trkpt lat="42.44701" lon="2.69944">
        <ele>821.59997558594</ele>
        <time>2023-07-13T12:23:19.000Z</time>
      </trkpt>
      <trkpt lat="42.447" lon="2.69941">
        <ele>820.40002441406</ele>
        <time>2023-07-13T12:23:24.000Z</time>
      </trkpt>
      <trkpt lat="42.447" lon="2.6994">
        <ele>820</ele>
        <time>2023-07-13T12:23:25.000Z</time>
      </trkpt>
      <trkpt lat="42.44701" lon="2.69936">
        <ele>819.20001220703</ele>
        <time>2023-07-13T12:23:30.000Z</time>
      </trkpt>
      <trkpt lat="42.44701" lon="2.69932">
        <ele>818.59997558594</ele>
        <time>2023-07-13T12:23:34.000Z</time>
      </trkpt>
      <trkpt lat="42.44701" lon="2.6993">
        <ele>818</ele>
        <time>2023-07-13T12:23:36.000Z</time>
      </trkpt>
      <trkpt lat="42.44701" lon="2.69925">
        <ele>817.20001220703</ele>
        <time>2023-07-13T12:23:41.000Z</time>
      </trkpt>
      <trkpt lat="42.44701" lon="2.69924">
        <ele>817</ele>
        <time>2023-07-13T12:23:42.000Z</time>
      </trkpt>
      <trkpt lat="42.44701" lon="2.6992">
        <ele>816</ele>
        <time>2023-07-13T12:23:50.000Z</time>
      </trkpt>
      <trkpt lat="42.44702" lon="2.69911">
        <ele>814.79998779297</ele>
        <time>2023-07-13T12:23:57.000Z</time>
      </trkpt>
      <trkpt lat="42.44704" lon="2.699">
        <ele>814.20001220703</ele>
        <time>2023-07-13T12:24:06.000Z</time>
      </trkpt>
      <trkpt lat="42.44705" lon="2.69896">
        <ele>813.79998779297</ele>
        <time>2023-07-13T12:24:08.000Z</time>
      </trkpt>
      <trkpt lat="42.44706" lon="2.69886">
        <ele>813.20001220703</ele>
        <time>2023-07-13T12:24:14.000Z</time>
      </trkpt>
      <trkpt lat="42.44707" lon="2.69882">
        <ele>812.79998779297</ele>
        <time>2023-07-13T12:24:16.000Z</time>
      </trkpt>
      <trkpt lat="42.44708" lon="2.69876">
        <ele>812.20001220703</ele>
        <time>2023-07-13T12:24:21.000Z</time>
      </trkpt>
      <trkpt lat="42.44709" lon="2.69873">
        <ele>811.79998779297</ele>
        <time>2023-07-13T12:24:25.000Z</time>
      </trkpt>
      <trkpt lat="42.44709" lon="2.69871">
        <ele>811.59997558594</ele>
        <time>2023-07-13T12:24:28.000Z</time>
      </trkpt>
      <trkpt lat="42.44709" lon="2.69869">
        <ele>811.79998779297</ele>
        <time>2023-07-13T12:24:37.000Z</time>
      </trkpt>
      <trkpt lat="42.44715" lon="2.69864">
        <ele>811.40002441406</ele>
        <time>2023-07-13T12:25:02.000Z</time>
      </trkpt>
      <trkpt lat="42.44714" lon="2.69862">
        <ele>811.59997558594</ele>
        <time>2023-07-13T12:25:08.000Z</time>
      </trkpt>
      <trkpt lat="42.44713" lon="2.6986">
        <ele>811.40002441406</ele>
        <time>2023-07-13T12:25:14.000Z</time>
      </trkpt>
      <trkpt lat="42.4471" lon="2.69862">
        <ele>811.59997558594</ele>
        <time>2023-07-13T12:25:24.000Z</time>
      </trkpt>
      <trkpt lat="42.44708" lon="2.69863">
        <ele>811.40002441406</ele>
        <time>2023-07-13T12:25:31.000Z</time>
      </trkpt>
      <trkpt lat="42.44707" lon="2.69862">
        <ele>811.40002441406</ele>
        <time>2023-07-13T12:25:38.000Z</time>
      </trkpt>
      <trkpt lat="42.44712" lon="2.69852">
        <ele>810.79998779297</ele>
        <time>2023-07-13T12:25:46.000Z</time>
      </trkpt>
      <trkpt lat="42.44712" lon="2.69851">
        <ele>810.79998779297</ele>
        <time>2023-07-13T12:25:47.000Z</time>
      </trkpt>
      <trkpt lat="42.44713" lon="2.69846">
        <ele>809.59997558594</ele>
        <time>2023-07-13T12:25:53.000Z</time>
      </trkpt>
      <trkpt lat="42.44714" lon="2.69844">
        <ele>808.79998779297</ele>
        <time>2023-07-13T12:25:59.000Z</time>
      </trkpt>
      <trkpt lat="42.44715" lon="2.69841">
        <ele>808.40002441406</ele>
        <time>2023-07-13T12:26:01.000Z</time>
      </trkpt>
      <trkpt lat="42.44715" lon="2.69834">
        <ele>807.40002441406</ele>
        <time>2023-07-13T12:26:06.000Z</time>
      </trkpt>
      <trkpt lat="42.44717" lon="2.69828">
        <ele>806.40002441406</ele>
        <time>2023-07-13T12:26:11.000Z</time>
      </trkpt>
      <trkpt lat="42.44719" lon="2.69823">
        <ele>805.79998779297</ele>
        <time>2023-07-13T12:26:16.000Z</time>
      </trkpt>
      <trkpt lat="42.44719" lon="2.6982">
        <ele>805.40002441406</ele>
        <time>2023-07-13T12:26:19.000Z</time>
      </trkpt>
      <trkpt lat="42.44716" lon="2.69814">
        <ele>804.79998779297</ele>
        <time>2023-07-13T12:26:25.000Z</time>
      </trkpt>
      <trkpt lat="42.44712" lon="2.69813">
        <ele>804.59997558594</ele>
        <time>2023-07-13T12:26:34.000Z</time>
      </trkpt>
      <trkpt lat="42.44706" lon="2.69814">
        <ele>804.59997558594</ele>
        <time>2023-07-13T12:26:45.000Z</time>
      </trkpt>
      <trkpt lat="42.44706" lon="2.69806">
        <ele>802.59997558594</ele>
        <time>2023-07-13T12:27:13.000Z</time>
      </trkpt>
      <trkpt lat="42.44702" lon="2.69801">
        <ele>802</ele>
        <time>2023-07-13T12:27:17.000Z</time>
      </trkpt>
      <trkpt lat="42.44701" lon="2.69801">
        <ele>801.79998779297</ele>
        <time>2023-07-13T12:27:18.000Z</time>
      </trkpt>
      <trkpt lat="42.44699" lon="2.698">
        <ele>801</ele>
        <time>2023-07-13T12:27:25.000Z</time>
      </trkpt>
      <trkpt lat="42.44699" lon="2.698">
        <ele>801</ele>
        <time>2023-07-13T12:27:26.000Z</time>
      </trkpt>
      <trkpt lat="42.44696" lon="2.69802">
        <ele>800.79998779297</ele>
        <time>2023-07-13T12:27:46.000Z</time>
      </trkpt>
      <trkpt lat="42.447" lon="2.69803">
        <ele>800.40002441406</ele>
        <time>2023-07-13T12:27:51.000Z</time>
      </trkpt>
      <trkpt lat="42.44696" lon="2.698">
        <ele>799.79998779297</ele>
        <time>2023-07-13T12:27:56.000Z</time>
      </trkpt>
      <trkpt lat="42.44696" lon="2.698">
        <ele>799.79998779297</ele>
        <time>2023-07-13T12:27:57.000Z</time>
      </trkpt>
      <trkpt lat="42.44694" lon="2.69799">
        <ele>798.79998779297</ele>
        <time>2023-07-13T12:28:04.000Z</time>
      </trkpt>
      <trkpt lat="42.44686" lon="2.69795">
        <ele>797.59997558594</ele>
        <time>2023-07-13T12:28:12.000Z</time>
      </trkpt>
      <trkpt lat="42.44685" lon="2.69794">
        <ele>797.59997558594</ele>
        <time>2023-07-13T12:28:13.000Z</time>
      </trkpt>
      <trkpt lat="42.44679" lon="2.69791">
        <ele>796.59997558594</ele>
        <time>2023-07-13T12:28:20.000Z</time>
      </trkpt>
      <trkpt lat="42.44675" lon="2.69787">
        <ele>795.40002441406</ele>
        <time>2023-07-13T12:28:26.000Z</time>
      </trkpt>
      <trkpt lat="42.44671" lon="2.69784">
        <ele>794.59997558594</ele>
        <time>2023-07-13T12:28:33.000Z</time>
      </trkpt>
      <trkpt lat="42.44668" lon="2.69779">
        <ele>794.59997558594</ele>
        <time>2023-07-13T12:28:41.000Z</time>
      </trkpt>
      <trkpt lat="42.44669" lon="2.69778">
        <ele>794.40002441406</ele>
        <time>2023-07-13T12:28:45.000Z</time>
      </trkpt>
      <trkpt lat="42.44669" lon="2.69778">
        <ele>794.40002441406</ele>
        <time>2023-07-13T12:28:46.000Z</time>
      </trkpt>
      <trkpt lat="42.44668" lon="2.69774">
        <ele>793.40002441406</ele>
        <time>2023-07-13T12:28:54.000Z</time>
      </trkpt>
      <trkpt lat="42.44669" lon="2.69768">
        <ele>793</ele>
        <time>2023-07-13T12:29:00.000Z</time>
      </trkpt>
      <trkpt lat="42.44671" lon="2.69759">
        <ele>793</ele>
        <time>2023-07-13T12:29:08.000Z</time>
      </trkpt>
      <trkpt lat="42.44672" lon="2.69746">
        <ele>793.20001220703</ele>
        <time>2023-07-13T12:29:16.000Z</time>
      </trkpt>
      <trkpt lat="42.44669" lon="2.69739">
        <ele>794.40002441406</ele>
        <time>2023-07-13T12:29:24.000Z</time>
      </trkpt>
      <trkpt lat="42.44669" lon="2.69737">
        <ele>794.59997558594</ele>
        <time>2023-07-13T12:29:25.000Z</time>
      </trkpt>
      <trkpt lat="42.44667" lon="2.69728">
        <ele>795.40002441406</ele>
        <time>2023-07-13T12:29:32.000Z</time>
      </trkpt>
      <trkpt lat="42.44665" lon="2.69727">
        <ele>795.59997558594</ele>
        <time>2023-07-13T12:29:33.000Z</time>
      </trkpt>
      <trkpt lat="42.44663" lon="2.69721">
        <ele>795.59997558594</ele>
        <time>2023-07-13T12:29:40.000Z</time>
      </trkpt>
      <trkpt lat="42.4466" lon="2.69718">
        <ele>795.79998779297</ele>
        <time>2023-07-13T12:29:50.000Z</time>
      </trkpt>
      <trkpt lat="42.44653" lon="2.69716">
        <ele>795.59997558594</ele>
        <time>2023-07-13T12:29:59.000Z</time>
      </trkpt>
      <trkpt lat="42.44653" lon="2.69707">
        <ele>795.59997558594</ele>
        <time>2023-07-13T12:30:05.000Z</time>
      </trkpt>
      <trkpt lat="42.44652" lon="2.69696">
        <ele>795.20001220703</ele>
        <time>2023-07-13T12:30:14.000Z</time>
      </trkpt>
      <trkpt lat="42.44651" lon="2.69686">
        <ele>794.59997558594</ele>
        <time>2023-07-13T12:30:23.000Z</time>
      </trkpt>
      <trkpt lat="42.44651" lon="2.69683">
        <ele>794.40002441406</ele>
        <time>2023-07-13T12:30:25.000Z</time>
      </trkpt>
      <trkpt lat="42.44652" lon="2.69673">
        <ele>793.59997558594</ele>
        <time>2023-07-13T12:30:32.000Z</time>
      </trkpt>
      <trkpt lat="42.44651" lon="2.69671">
        <ele>793.20001220703</ele>
        <time>2023-07-13T12:30:34.000Z</time>
      </trkpt>
      <trkpt lat="42.44649" lon="2.69671">
        <ele>793</ele>
        <time>2023-07-13T12:30:37.000Z</time>
      </trkpt>
      <trkpt lat="42.44644" lon="2.69669">
        <ele>792.40002441406</ele>
        <time>2023-07-13T12:30:41.000Z</time>
      </trkpt>
      <trkpt lat="42.44643" lon="2.6967">
        <ele>792.20001220703</ele>
        <time>2023-07-13T12:30:42.000Z</time>
      </trkpt>
      <trkpt lat="42.44642" lon="2.69671">
        <ele>791.79998779297</ele>
        <time>2023-07-13T12:30:45.000Z</time>
      </trkpt>
      <trkpt lat="42.44642" lon="2.69669">
        <ele>791.40002441406</ele>
        <time>2023-07-13T12:30:47.000Z</time>
      </trkpt>
      <trkpt lat="42.44644" lon="2.69668">
        <ele>791.20001220703</ele>
        <time>2023-07-13T12:30:48.000Z</time>
      </trkpt>
      <trkpt lat="42.44648" lon="2.69659">
        <ele>790.59997558594</ele>
        <time>2023-07-13T12:30:53.000Z</time>
      </trkpt>
      <trkpt lat="42.44648" lon="2.69655">
        <ele>790.40002441406</ele>
        <time>2023-07-13T12:30:55.000Z</time>
      </trkpt>
      <trkpt lat="42.44651" lon="2.69645">
        <ele>789.40002441406</ele>
        <time>2023-07-13T12:31:02.000Z</time>
      </trkpt>
      <trkpt lat="42.44651" lon="2.69644">
        <ele>789.20001220703</ele>
        <time>2023-07-13T12:31:03.000Z</time>
      </trkpt>
      <trkpt lat="42.44653" lon="2.69637">
        <ele>788.20001220703</ele>
        <time>2023-07-13T12:31:10.000Z</time>
      </trkpt>
      <trkpt lat="42.44653" lon="2.69637">
        <ele>788.20001220703</ele>
        <time>2023-07-13T12:31:12.000Z</time>
      </trkpt>
      <trkpt lat="42.44652" lon="2.69636">
        <ele>788</ele>
        <time>2023-07-13T12:31:17.000Z</time>
      </trkpt>
      <trkpt lat="42.44652" lon="2.69629">
        <ele>787.59997558594</ele>
        <time>2023-07-13T12:31:21.000Z</time>
      </trkpt>
      <trkpt lat="42.44654" lon="2.69622">
        <ele>787.20001220703</ele>
        <time>2023-07-13T12:31:26.000Z</time>
      </trkpt>
      <trkpt lat="42.44654" lon="2.69619">
        <ele>787.20001220703</ele>
        <time>2023-07-13T12:31:28.000Z</time>
      </trkpt>
      <trkpt lat="42.44655" lon="2.6961">
        <ele>786</ele>
        <time>2023-07-13T12:31:35.000Z</time>
      </trkpt>
      <trkpt lat="42.44657" lon="2.696">
        <ele>785</ele>
        <time>2023-07-13T12:31:41.000Z</time>
      </trkpt>
      <trkpt lat="42.44659" lon="2.69596">
        <ele>784.40002441406</ele>
        <time>2023-07-13T12:31:44.000Z</time>
      </trkpt>
      <trkpt lat="42.44659" lon="2.69594">
        <ele>783.79998779297</ele>
        <time>2023-07-13T12:31:46.000Z</time>
      </trkpt>
      <trkpt lat="42.44661" lon="2.69587">
        <ele>782.79998779297</ele>
        <time>2023-07-13T12:31:53.000Z</time>
      </trkpt>
      <trkpt lat="42.44661" lon="2.69585">
        <ele>782.59997558594</ele>
        <time>2023-07-13T12:31:54.000Z</time>
      </trkpt>
      <trkpt lat="42.44659" lon="2.69574">
        <ele>782.20001220703</ele>
        <time>2023-07-13T12:32:03.000Z</time>
      </trkpt>
      <trkpt lat="42.4466" lon="2.69569">
        <ele>781.79998779297</ele>
        <time>2023-07-13T12:32:08.000Z</time>
      </trkpt>
      <trkpt lat="42.44651" lon="2.69547">
        <ele>781.20001220703</ele>
        <time>2023-07-13T12:32:24.000Z</time>
      </trkpt>
      <trkpt lat="42.4465" lon="2.69545">
        <ele>781.20001220703</ele>
        <time>2023-07-13T12:32:25.000Z</time>
      </trkpt>
      <trkpt lat="42.44646" lon="2.69528">
        <ele>781.59997558594</ele>
        <time>2023-07-13T12:32:33.000Z</time>
      </trkpt>
      <trkpt lat="42.44645" lon="2.69511">
        <ele>782</ele>
        <time>2023-07-13T12:32:42.000Z</time>
      </trkpt>
      <trkpt lat="42.44648" lon="2.69501">
        <ele>782.79998779297</ele>
        <time>2023-07-13T12:32:51.000Z</time>
      </trkpt>
      <trkpt lat="42.44649" lon="2.695">
        <ele>783</ele>
        <time>2023-07-13T12:32:52.000Z</time>
      </trkpt>
      <trkpt lat="42.44652" lon="2.69493">
        <ele>783.40002441406</ele>
        <time>2023-07-13T12:32:57.000Z</time>
      </trkpt>
      <trkpt lat="42.44656" lon="2.69484">
        <ele>783.79998779297</ele>
        <time>2023-07-13T12:33:04.000Z</time>
      </trkpt>
      <trkpt lat="42.44658" lon="2.69481">
        <ele>784</ele>
        <time>2023-07-13T12:33:07.000Z</time>
      </trkpt>
      <trkpt lat="42.44663" lon="2.69477">
        <ele>784.59997558594</ele>
        <time>2023-07-13T12:33:12.000Z</time>
      </trkpt>
      <trkpt lat="42.44669" lon="2.69471">
        <ele>784.79998779297</ele>
        <time>2023-07-13T12:33:20.000Z</time>
      </trkpt>
      <trkpt lat="42.44673" lon="2.69465">
        <ele>784.79998779297</ele>
        <time>2023-07-13T12:33:27.000Z</time>
      </trkpt>
      <trkpt lat="42.44672" lon="2.69462">
        <ele>784.79998779297</ele>
        <time>2023-07-13T12:33:35.000Z</time>
      </trkpt>
      <trkpt lat="42.44673" lon="2.69464">
        <ele>784.59997558594</ele>
        <time>2023-07-13T12:33:40.000Z</time>
      </trkpt>
      <trkpt lat="42.44673" lon="2.69464">
        <ele>784.59997558594</ele>
        <time>2023-07-13T12:33:42.000Z</time>
      </trkpt>
      <trkpt lat="42.44673" lon="2.69463">
        <ele>784.40002441406</ele>
        <time>2023-07-13T12:33:52.000Z</time>
      </trkpt>
      <trkpt lat="42.44674" lon="2.69464">
        <ele>784.20001220703</ele>
        <time>2023-07-13T12:33:59.000Z</time>
      </trkpt>
      <trkpt lat="42.44681" lon="2.69464">
        <ele>784</ele>
        <time>2023-07-13T12:34:06.000Z</time>
      </trkpt>
      <trkpt lat="42.44683" lon="2.69456">
        <ele>783.79998779297</ele>
        <time>2023-07-13T12:34:14.000Z</time>
      </trkpt>
      <trkpt lat="42.44682" lon="2.69451">
        <ele>783</ele>
        <time>2023-07-13T12:34:20.000Z</time>
      </trkpt>
      <trkpt lat="42.44682" lon="2.6945">
        <ele>782.40002441406</ele>
        <time>2023-07-13T12:34:22.000Z</time>
      </trkpt>
      <trkpt lat="42.44681" lon="2.69447">
        <ele>782</ele>
        <time>2023-07-13T12:34:34.000Z</time>
      </trkpt>
      <trkpt lat="42.4468" lon="2.69445">
        <ele>782</ele>
        <time>2023-07-13T12:34:38.000Z</time>
      </trkpt>
      <trkpt lat="42.44682" lon="2.69442">
        <ele>781.59997558594</ele>
        <time>2023-07-13T12:34:42.000Z</time>
      </trkpt>
      <trkpt lat="42.44685" lon="2.69435">
        <ele>780.79998779297</ele>
        <time>2023-07-13T12:34:47.000Z</time>
      </trkpt>
      <trkpt lat="42.44687" lon="2.69431">
        <ele>780.40002441406</ele>
        <time>2023-07-13T12:34:50.000Z</time>
      </trkpt>
      <trkpt lat="42.44689" lon="2.69426">
        <ele>780.20001220703</ele>
        <time>2023-07-13T12:34:56.000Z</time>
      </trkpt>
      <trkpt lat="42.44692" lon="2.69417">
        <ele>780.20001220703</ele>
        <time>2023-07-13T12:35:03.000Z</time>
      </trkpt>
      <trkpt lat="42.44692" lon="2.69409">
        <ele>780</ele>
        <time>2023-07-13T12:35:09.000Z</time>
      </trkpt>
      <trkpt lat="42.44693" lon="2.69404">
        <ele>779.59997558594</ele>
        <time>2023-07-13T12:35:12.000Z</time>
      </trkpt>
      <trkpt lat="42.44694" lon="2.69401">
        <ele>779.40002441406</ele>
        <time>2023-07-13T12:35:16.000Z</time>
      </trkpt>
      <trkpt lat="42.44698" lon="2.694">
        <ele>779.79998779297</ele>
        <time>2023-07-13T12:35:24.000Z</time>
      </trkpt>
      <trkpt lat="42.44699" lon="2.69398">
        <ele>780.40002441406</ele>
        <time>2023-07-13T12:35:31.000Z</time>
      </trkpt>
      <trkpt lat="42.44698" lon="2.69398">
        <ele>780.20001220703</ele>
        <time>2023-07-13T12:35:41.000Z</time>
      </trkpt>
      <trkpt lat="42.44696" lon="2.69403">
        <ele>779</ele>
        <time>2023-07-13T12:35:49.000Z</time>
      </trkpt>
      <trkpt lat="42.44696" lon="2.69406">
        <ele>778.59997558594</ele>
        <time>2023-07-13T12:35:52.000Z</time>
      </trkpt>
      <trkpt lat="42.44695" lon="2.69413">
        <ele>778.59997558594</ele>
        <time>2023-07-13T12:35:56.000Z</time>
      </trkpt>
      <trkpt lat="42.44692" lon="2.69425">
        <ele>779.20001220703</ele>
        <time>2023-07-13T12:36:05.000Z</time>
      </trkpt>
      <trkpt lat="42.4469" lon="2.69435">
        <ele>779</ele>
        <time>2023-07-13T12:36:14.000Z</time>
      </trkpt>
      <trkpt lat="42.44687" lon="2.6945">
        <ele>778.79998779297</ele>
        <time>2023-07-13T12:36:24.000Z</time>
      </trkpt>
      <trkpt lat="42.44682" lon="2.69455">
        <ele>779.40002441406</ele>
        <time>2023-07-13T12:36:31.000Z</time>
      </trkpt>
      <trkpt lat="42.44681" lon="2.69454">
        <ele>779.59997558594</ele>
        <time>2023-07-13T12:36:33.000Z</time>
      </trkpt>
      <trkpt lat="42.4468" lon="2.69451">
        <ele>780.40002441406</ele>
        <time>2023-07-13T12:36:39.000Z</time>
      </trkpt>
      <trkpt lat="42.4468" lon="2.69446">
        <ele>780.40002441406</ele>
        <time>2023-07-13T12:36:49.000Z</time>
      </trkpt>
      <trkpt lat="42.44683" lon="2.69451">
        <ele>780.40002441406</ele>
        <time>2023-07-13T12:36:56.000Z</time>
      </trkpt>
      <trkpt lat="42.44682" lon="2.69458">
        <ele>780.59997558594</ele>
        <time>2023-07-13T12:37:02.000Z</time>
      </trkpt>
      <trkpt lat="42.44679" lon="2.6946">
        <ele>781.20001220703</ele>
        <time>2023-07-13T12:37:05.000Z</time>
      </trkpt>
      <trkpt lat="42.44679" lon="2.69464">
        <ele>781.59997558594</ele>
        <time>2023-07-13T12:37:15.000Z</time>
      </trkpt>
      <trkpt lat="42.44679" lon="2.69466">
        <ele>781.79998779297</ele>
        <time>2023-07-13T12:37:17.000Z</time>
      </trkpt>
      <trkpt lat="42.44679" lon="2.69466">
        <ele>781.79998779297</ele>
        <time>2023-07-13T12:37:22.000Z</time>
      </trkpt>
      <trkpt lat="42.44679" lon="2.69461">
        <ele>782</ele>
        <time>2023-07-13T12:37:31.000Z</time>
      </trkpt>
      <trkpt lat="42.44679" lon="2.69462">
        <ele>782</ele>
        <time>2023-07-13T12:37:39.000Z</time>
      </trkpt>
      <trkpt lat="42.44678" lon="2.69463">
        <ele>781.79998779297</ele>
        <time>2023-07-13T12:37:49.000Z</time>
      </trkpt>
      <trkpt lat="42.44675" lon="2.69466">
        <ele>782</ele>
        <time>2023-07-13T12:37:55.000Z</time>
      </trkpt>
      <trkpt lat="42.44669" lon="2.69474">
        <ele>781.59997558594</ele>
        <time>2023-07-13T12:38:01.000Z</time>
      </trkpt>
      <trkpt lat="42.44665" lon="2.69481">
        <ele>781.40002441406</ele>
        <time>2023-07-13T12:38:08.000Z</time>
      </trkpt>
      <trkpt lat="42.4466" lon="2.69486">
        <ele>780.79998779297</ele>
        <time>2023-07-13T12:38:15.000Z</time>
      </trkpt>
      <trkpt lat="42.4466" lon="2.69485">
        <ele>780.79998779297</ele>
        <time>2023-07-13T12:38:16.000Z</time>
      </trkpt>
      <trkpt lat="42.44657" lon="2.69481">
        <ele>780.40002441406</ele>
        <time>2023-07-13T12:38:21.000Z</time>
      </trkpt>
      <trkpt lat="42.44657" lon="2.69478">
        <ele>780.20001220703</ele>
        <time>2023-07-13T12:38:27.000Z</time>
      </trkpt>
      <trkpt lat="42.44661" lon="2.69478">
        <ele>780</ele>
        <time>2023-07-13T12:38:34.000Z</time>
      </trkpt>
      <trkpt lat="42.44668" lon="2.69475">
        <ele>780.40002441406</ele>
        <time>2023-07-13T12:38:42.000Z</time>
      </trkpt>
      <trkpt lat="42.44672" lon="2.69476">
        <ele>780.59997558594</ele>
        <time>2023-07-13T12:38:52.000Z</time>
      </trkpt>
      <trkpt lat="42.44672" lon="2.69476">
        <ele>779.79998779297</ele>
        <time>2023-07-13T12:39:01.000Z</time>
      </trkpt>
      <trkpt lat="42.44672" lon="2.69476">
        <ele>779.59997558594</ele>
        <time>2023-07-13T12:39:02.000Z</time>
      </trkpt>
      <trkpt lat="42.44669" lon="2.69477">
        <ele>779.40002441406</ele>
        <time>2023-07-13T12:39:10.000Z</time>
      </trkpt>
      <trkpt lat="42.44669" lon="2.69475">
        <ele>779.20001220703</ele>
        <time>2023-07-13T12:39:17.000Z</time>
      </trkpt>
      <trkpt lat="42.44672" lon="2.69476">
        <ele>779.40002441406</ele>
        <time>2023-07-13T12:39:23.000Z</time>
      </trkpt>
      <trkpt lat="42.44666" lon="2.69475">
        <ele>780.20001220703</ele>
        <time>2023-07-13T12:39:29.000Z</time>
      </trkpt>
      <trkpt lat="42.44659" lon="2.69483">
        <ele>780</ele>
        <time>2023-07-13T12:39:37.000Z</time>
      </trkpt>
      <trkpt lat="42.44654" lon="2.69492">
        <ele>779.20001220703</ele>
        <time>2023-07-13T12:39:45.000Z</time>
      </trkpt>
      <trkpt lat="42.44652" lon="2.69493">
        <ele>778.59997558594</ele>
        <time>2023-07-13T12:39:49.000Z</time>
      </trkpt>
      <trkpt lat="42.44651" lon="2.69497">
        <ele>778.40002441406</ele>
        <time>2023-07-13T12:39:53.000Z</time>
      </trkpt>
      <trkpt lat="42.44648" lon="2.69502">
        <ele>777.59997558594</ele>
        <time>2023-07-13T12:39:59.000Z</time>
      </trkpt>
      <trkpt lat="42.44647" lon="2.69503">
        <ele>777.40002441406</ele>
        <time>2023-07-13T12:40:01.000Z</time>
      </trkpt>
      <trkpt lat="42.44647" lon="2.69506">
        <ele>777.20001220703</ele>
        <time>2023-07-13T12:40:04.000Z</time>
      </trkpt>
      <trkpt lat="42.44646" lon="2.69507">
        <ele>777.20001220703</ele>
        <time>2023-07-13T12:40:06.000Z</time>
      </trkpt>
      <trkpt lat="42.44645" lon="2.69507">
        <ele>777.20001220703</ele>
        <time>2023-07-13T12:40:07.000Z</time>
      </trkpt>
      <trkpt lat="42.44644" lon="2.69505">
        <ele>777</ele>
        <time>2023-07-13T12:40:16.000Z</time>
      </trkpt>
      <trkpt lat="42.4464" lon="2.69504">
        <ele>776.79998779297</ele>
        <time>2023-07-13T12:40:27.000Z</time>
      </trkpt>
      <trkpt lat="42.44638" lon="2.69504">
        <ele>776.59997558594</ele>
        <time>2023-07-13T12:40:36.000Z</time>
      </trkpt>
      <trkpt lat="42.44641" lon="2.69507">
        <ele>777</ele>
        <time>2023-07-13T12:40:45.000Z</time>
      </trkpt>
      <trkpt lat="42.44646" lon="2.69506">
        <ele>776.40002441406</ele>
        <time>2023-07-13T12:40:53.000Z</time>
      </trkpt>
      <trkpt lat="42.44646" lon="2.69506">
        <ele>776.40002441406</ele>
        <time>2023-07-13T12:40:54.000Z</time>
      </trkpt>
      <trkpt lat="42.44646" lon="2.69503">
        <ele>776.59997558594</ele>
        <time>2023-07-13T12:41:04.000Z</time>
      </trkpt>
      <trkpt lat="42.44645" lon="2.69503">
        <ele>776.59997558594</ele>
        <time>2023-07-13T12:41:12.000Z</time>
      </trkpt>
      <trkpt lat="42.44645" lon="2.69504">
        <ele>776.79998779297</ele>
        <time>2023-07-13T12:41:21.000Z</time>
      </trkpt>
      <trkpt lat="42.44644" lon="2.69505">
        <ele>776.79998779297</ele>
        <time>2023-07-13T12:41:28.000Z</time>
      </trkpt>
      <trkpt lat="42.44645" lon="2.69508">
        <ele>777</ele>
        <time>2023-07-13T12:41:35.000Z</time>
      </trkpt>
      <trkpt lat="42.44645" lon="2.69508">
        <ele>777</ele>
        <time>2023-07-13T12:41:42.000Z</time>
      </trkpt>
      <trkpt lat="42.44645" lon="2.69506">
        <ele>777</ele>
        <time>2023-07-13T12:41:50.000Z</time>
      </trkpt>
      <trkpt lat="42.44645" lon="2.69508">
        <ele>776.79998779297</ele>
        <time>2023-07-13T12:41:57.000Z</time>
      </trkpt>
      <trkpt lat="42.44646" lon="2.6951">
        <ele>776.59997558594</ele>
        <time>2023-07-13T12:42:07.000Z</time>
      </trkpt>
      <trkpt lat="42.44646" lon="2.69508">
        <ele>776.59997558594</ele>
        <time>2023-07-13T12:42:14.000Z</time>
      </trkpt>
      <trkpt lat="42.44647" lon="2.69504">
        <ele>776.40002441406</ele>
        <time>2023-07-13T12:42:24.000Z</time>
      </trkpt>
      <trkpt lat="42.44645" lon="2.69504">
        <ele>776.40002441406</ele>
        <time>2023-07-13T12:42:34.000Z</time>
      </trkpt>
      <trkpt lat="42.4465" lon="2.69497">
        <ele>776.59997558594</ele>
        <time>2023-07-13T12:42:44.000Z</time>
      </trkpt>
      <trkpt lat="42.44654" lon="2.69489">
        <ele>777.20001220703</ele>
        <time>2023-07-13T12:42:52.000Z</time>
      </trkpt>
      <trkpt lat="42.44658" lon="2.69484">
        <ele>777.59997558594</ele>
        <time>2023-07-13T12:42:57.000Z</time>
      </trkpt>
      <trkpt lat="42.44661" lon="2.6948">
        <ele>778</ele>
        <time>2023-07-13T12:43:01.000Z</time>
      </trkpt>
      <trkpt lat="42.44664" lon="2.69473">
        <ele>778.59997558594</ele>
        <time>2023-07-13T12:43:08.000Z</time>
      </trkpt>
      <trkpt lat="42.44663" lon="2.69473">
        <ele>778.59997558594</ele>
        <time>2023-07-13T12:43:15.000Z</time>
      </trkpt>
      <trkpt lat="42.44662" lon="2.69471">
        <ele>778.40002441406</ele>
        <time>2023-07-13T12:43:22.000Z</time>
      </trkpt>
      <trkpt lat="42.44666" lon="2.69471">
        <ele>778.40002441406</ele>
        <time>2023-07-13T12:43:30.000Z</time>
      </trkpt>
      <trkpt lat="42.44672" lon="2.69468">
        <ele>778.40002441406</ele>
        <time>2023-07-13T12:43:38.000Z</time>
      </trkpt>
      <trkpt lat="42.44672" lon="2.69463">
        <ele>778.20001220703</ele>
        <time>2023-07-13T12:43:47.000Z</time>
      </trkpt>
      <trkpt lat="42.44677" lon="2.69464">
        <ele>778</ele>
        <time>2023-07-13T12:43:56.000Z</time>
      </trkpt>
      <trkpt lat="42.44677" lon="2.69465">
        <ele>777.79998779297</ele>
        <time>2023-07-13T12:44:03.000Z</time>
      </trkpt>
      <trkpt lat="42.44679" lon="2.69461">
        <ele>778</ele>
        <time>2023-07-13T12:44:11.000Z</time>
      </trkpt>
      <trkpt lat="42.44679" lon="2.69455">
        <ele>777.59997558594</ele>
        <time>2023-07-13T12:44:20.000Z</time>
      </trkpt>
      <trkpt lat="42.4468" lon="2.69453">
        <ele>777.59997558594</ele>
        <time>2023-07-13T12:44:28.000Z</time>
      </trkpt>
      <trkpt lat="42.4468" lon="2.69454">
        <ele>777.59997558594</ele>
        <time>2023-07-13T12:44:30.000Z</time>
      </trkpt>
      <trkpt lat="42.44682" lon="2.69453">
        <ele>777.40002441406</ele>
        <time>2023-07-13T12:44:40.000Z</time>
      </trkpt>
      <trkpt lat="42.44677" lon="2.69452">
        <ele>777.20001220703</ele>
        <time>2023-07-13T12:44:48.000Z</time>
      </trkpt>
      <trkpt lat="42.44677" lon="2.69452">
        <ele>777</ele>
        <time>2023-07-13T12:44:57.000Z</time>
      </trkpt>
      <trkpt lat="42.4468" lon="2.69451">
        <ele>777</ele>
        <time>2023-07-13T12:45:05.000Z</time>
      </trkpt>
      <trkpt lat="42.44682" lon="2.69452">
        <ele>776.59997558594</ele>
        <time>2023-07-13T12:45:12.000Z</time>
      </trkpt>
      <trkpt lat="42.44682" lon="2.69452">
        <ele>776.59997558594</ele>
        <time>2023-07-13T12:45:13.000Z</time>
      </trkpt>
      <trkpt lat="42.44683" lon="2.69454">
        <ele>776.59997558594</ele>
        <time>2023-07-13T12:45:23.000Z</time>
      </trkpt>
      <trkpt lat="42.44684" lon="2.69449">
        <ele>775.59997558594</ele>
        <time>2023-07-13T12:45:30.000Z</time>
      </trkpt>
      <trkpt lat="42.44688" lon="2.6944">
        <ele>775</ele>
        <time>2023-07-13T12:45:37.000Z</time>
      </trkpt>
      <trkpt lat="42.44689" lon="2.69432">
        <ele>775</ele>
        <time>2023-07-13T12:45:45.000Z</time>
      </trkpt>
      <trkpt lat="42.4469" lon="2.69424">
        <ele>775.20001220703</ele>
        <time>2023-07-13T12:45:53.000Z</time>
      </trkpt>
      <trkpt lat="42.44693" lon="2.69411">
        <ele>775.20001220703</ele>
        <time>2023-07-13T12:46:02.000Z</time>
      </trkpt>
      <trkpt lat="42.44693" lon="2.69402">
        <ele>774.79998779297</ele>
        <time>2023-07-13T12:46:11.000Z</time>
      </trkpt>
      <trkpt lat="42.44691" lon="2.69408">
        <ele>775.20001220703</ele>
        <time>2023-07-13T12:46:19.000Z</time>
      </trkpt>
      <trkpt lat="42.44692" lon="2.69409">
        <ele>775.40002441406</ele>
        <time>2023-07-13T12:46:28.000Z</time>
      </trkpt>
      <trkpt lat="42.44691" lon="2.69409">
        <ele>775.79998779297</ele>
        <time>2023-07-13T12:46:38.000Z</time>
      </trkpt>
      <trkpt lat="42.44693" lon="2.69408">
        <ele>776.20001220703</ele>
        <time>2023-07-13T12:46:45.000Z</time>
      </trkpt>
      <trkpt lat="42.44694" lon="2.69408">
        <ele>776.59997558594</ele>
        <time>2023-07-13T12:46:48.000Z</time>
      </trkpt>
      <trkpt lat="42.44699" lon="2.69407">
        <ele>777.59997558594</ele>
        <time>2023-07-13T12:46:53.000Z</time>
      </trkpt>
      <trkpt lat="42.44702" lon="2.69406">
        <ele>778.20001220703</ele>
        <time>2023-07-13T12:46:56.000Z</time>
      </trkpt>
      <trkpt lat="42.44704" lon="2.69407">
        <ele>778.79998779297</ele>
        <time>2023-07-13T12:47:00.000Z</time>
      </trkpt>
      <trkpt lat="42.44704" lon="2.69408">
        <ele>779</ele>
        <time>2023-07-13T12:47:03.000Z</time>
      </trkpt>
      <trkpt lat="42.44704" lon="2.69408">
        <ele>778.79998779297</ele>
        <time>2023-07-13T12:47:12.000Z</time>
      </trkpt>
      <trkpt lat="42.44703" lon="2.69405">
        <ele>778.20001220703</ele>
        <time>2023-07-13T12:47:24.000Z</time>
      </trkpt>
      <trkpt lat="42.44703" lon="2.69403">
        <ele>778</ele>
        <time>2023-07-13T12:47:36.000Z</time>
      </trkpt>
      <trkpt lat="42.44703" lon="2.69404">
        <ele>778.40002441406</ele>
        <time>2023-07-13T12:47:44.000Z</time>
      </trkpt>
      <trkpt lat="42.44702" lon="2.69403">
        <ele>778.59997558594</ele>
        <time>2023-07-13T12:47:53.000Z</time>
      </trkpt>
      <trkpt lat="42.44705" lon="2.69403">
        <ele>778.59997558594</ele>
        <time>2023-07-13T12:48:03.000Z</time>
      </trkpt>
      <trkpt lat="42.44708" lon="2.69403">
        <ele>778.79998779297</ele>
        <time>2023-07-13T12:48:13.000Z</time>
      </trkpt>
      <trkpt lat="42.44705" lon="2.69404">
        <ele>778.79998779297</ele>
        <time>2023-07-13T12:48:21.000Z</time>
      </trkpt>
      <trkpt lat="42.44705" lon="2.69407">
        <ele>778.79998779297</ele>
        <time>2023-07-13T12:48:29.000Z</time>
      </trkpt>
      <trkpt lat="42.44706" lon="2.69404">
        <ele>778.59997558594</ele>
        <time>2023-07-13T12:48:38.000Z</time>
      </trkpt>
      <trkpt lat="42.44705" lon="2.69407">
        <ele>778.79998779297</ele>
        <time>2023-07-13T12:48:45.000Z</time>
      </trkpt>
      <trkpt lat="42.44707" lon="2.69407">
        <ele>779.20001220703</ele>
        <time>2023-07-13T12:48:52.000Z</time>
      </trkpt>
      <trkpt lat="42.44703" lon="2.69401">
        <ele>779.59997558594</ele>
        <time>2023-07-13T12:49:02.000Z</time>
      </trkpt>
      <trkpt lat="42.44703" lon="2.69399">
        <ele>779.79998779297</ele>
        <time>2023-07-13T12:49:12.000Z</time>
      </trkpt>
      <trkpt lat="42.44706" lon="2.69407">
        <ele>780.40002441406</ele>
        <time>2023-07-13T12:49:19.000Z</time>
      </trkpt>
      <trkpt lat="42.44711" lon="2.69421">
        <ele>781</ele>
        <time>2023-07-13T12:49:25.000Z</time>
      </trkpt>
      <trkpt lat="42.44711" lon="2.69422">
        <ele>781</ele>
        <time>2023-07-13T12:49:26.000Z</time>
      </trkpt>
      <trkpt lat="42.44717" lon="2.69427">
        <ele>782</ele>
        <time>2023-07-13T12:49:32.000Z</time>
      </trkpt>
      <trkpt lat="42.44719" lon="2.69432">
        <ele>782.40002441406</ele>
        <time>2023-07-13T12:49:36.000Z</time>
      </trkpt>
      <trkpt lat="42.44722" lon="2.69438">
        <ele>783</ele>
        <time>2023-07-13T12:49:40.000Z</time>
      </trkpt>
      <trkpt lat="42.44728" lon="2.69451">
        <ele>784.79998779297</ele>
        <time>2023-07-13T12:49:58.000Z</time>
      </trkpt>
      <trkpt lat="42.44731" lon="2.69455">
        <ele>785.20001220703</ele>
        <time>2023-07-13T12:50:05.000Z</time>
      </trkpt>
      <trkpt lat="42.4473" lon="2.69459">
        <ele>785.20001220703</ele>
        <time>2023-07-13T12:50:10.000Z</time>
      </trkpt>
      <trkpt lat="42.44733" lon="2.69458">
        <ele>785</ele>
        <time>2023-07-13T12:50:18.000Z</time>
      </trkpt>
      <trkpt lat="42.4473" lon="2.6945">
        <ele>784.59997558594</ele>
        <time>2023-07-13T12:50:43.000Z</time>
      </trkpt>
      <trkpt lat="42.4473" lon="2.69452">
        <ele>785</ele>
        <time>2023-07-13T12:50:56.000Z</time>
      </trkpt>
      <trkpt lat="42.44723" lon="2.69448">
        <ele>783.79998779297</ele>
        <time>2023-07-13T12:51:14.000Z</time>
      </trkpt>
      <trkpt lat="42.4472" lon="2.6944">
        <ele>783.40002441406</ele>
        <time>2023-07-13T12:51:20.000Z</time>
      </trkpt>
      <trkpt lat="42.44724" lon="2.69435">
        <ele>783.20001220703</ele>
        <time>2023-07-13T12:51:26.000Z</time>
      </trkpt>
      <trkpt lat="42.44728" lon="2.69433">
        <ele>783.59997558594</ele>
        <time>2023-07-13T12:51:34.000Z</time>
      </trkpt>
      <trkpt lat="42.44754" lon="2.69457">
        <ele>780.20001220703</ele>
        <time>2023-07-13T12:52:20.000Z</time>
      </trkpt>
      <trkpt lat="42.44757" lon="2.69463">
        <ele>779.59997558594</ele>
        <time>2023-07-13T12:52:24.000Z</time>
      </trkpt>
      <trkpt lat="42.44759" lon="2.69467">
        <ele>779.20001220703</ele>
        <time>2023-07-13T12:52:28.000Z</time>
      </trkpt>
      <trkpt lat="42.44762" lon="2.69468">
        <ele>779</ele>
        <time>2023-07-13T12:52:31.000Z</time>
      </trkpt>
      <trkpt lat="42.44763" lon="2.69467">
        <ele>778.79998779297</ele>
        <time>2023-07-13T12:52:34.000Z</time>
      </trkpt>
      <trkpt lat="42.44763" lon="2.69469">
        <ele>778.79998779297</ele>
        <time>2023-07-13T12:52:35.000Z</time>
      </trkpt>
      <trkpt lat="42.44767" lon="2.69469">
        <ele>778.79998779297</ele>
        <time>2023-07-13T12:52:38.000Z</time>
      </trkpt>
      <trkpt lat="42.44774" lon="2.6947">
        <ele>778.79998779297</ele>
        <time>2023-07-13T12:52:43.000Z</time>
      </trkpt>
      <trkpt lat="42.44786" lon="2.69474">
        <ele>778.79998779297</ele>
        <time>2023-07-13T12:52:47.000Z</time>
      </trkpt>
      <trkpt lat="42.44796" lon="2.69473">
        <ele>778.79998779297</ele>
        <time>2023-07-13T12:52:54.000Z</time>
      </trkpt>
      <trkpt lat="42.44797" lon="2.69473">
        <ele>778.59997558594</ele>
        <time>2023-07-13T12:52:57.000Z</time>
      </trkpt>
      <trkpt lat="42.44801" lon="2.69471">
        <ele>778.40002441406</ele>
        <time>2023-07-13T12:53:01.000Z</time>
      </trkpt>
      <trkpt lat="42.44812" lon="2.69468">
        <ele>779</ele>
        <time>2023-07-13T12:53:09.000Z</time>
      </trkpt>
      <trkpt lat="42.44817" lon="2.69466">
        <ele>779.20001220703</ele>
        <time>2023-07-13T12:53:12.000Z</time>
      </trkpt>
      <trkpt lat="42.44821" lon="2.69463">
        <ele>779.59997558594</ele>
        <time>2023-07-13T12:53:15.000Z</time>
      </trkpt>
      <trkpt lat="42.44833" lon="2.69458">
        <ele>780.59997558594</ele>
        <time>2023-07-13T12:53:23.000Z</time>
      </trkpt>
      <trkpt lat="42.44835" lon="2.69457">
        <ele>780.59997558594</ele>
        <time>2023-07-13T12:53:25.000Z</time>
      </trkpt>
      <trkpt lat="42.4484" lon="2.69454">
        <ele>781.20001220703</ele>
        <time>2023-07-13T12:53:31.000Z</time>
      </trkpt>
      <trkpt lat="42.44843" lon="2.69453">
        <ele>781.79998779297</ele>
        <time>2023-07-13T12:53:35.000Z</time>
      </trkpt>
      <trkpt lat="42.4485" lon="2.69454">
        <ele>782</ele>
        <time>2023-07-13T12:53:39.000Z</time>
      </trkpt>
      <trkpt lat="42.44861" lon="2.69454">
        <ele>781.59997558594</ele>
        <time>2023-07-13T12:53:46.000Z</time>
      </trkpt>
      <trkpt lat="42.44866" lon="2.6945">
        <ele>782</ele>
        <time>2023-07-13T12:53:54.000Z</time>
      </trkpt>
      <trkpt lat="42.44866" lon="2.69446">
        <ele>782.40002441406</ele>
        <time>2023-07-13T12:54:04.000Z</time>
      </trkpt>
      <trkpt lat="42.44868" lon="2.69445">
        <ele>782.59997558594</ele>
        <time>2023-07-13T12:54:12.000Z</time>
      </trkpt>
      <trkpt lat="42.44869" lon="2.69437">
        <ele>782.59997558594</ele>
        <time>2023-07-13T12:54:19.000Z</time>
      </trkpt>
      <trkpt lat="42.44871" lon="2.69433">
        <ele>782.79998779297</ele>
        <time>2023-07-13T12:54:22.000Z</time>
      </trkpt>
      <trkpt lat="42.44872" lon="2.6943">
        <ele>783.79998779297</ele>
        <time>2023-07-13T12:54:27.000Z</time>
      </trkpt>
      <trkpt lat="42.44873" lon="2.69429">
        <ele>784</ele>
        <time>2023-07-13T12:54:28.000Z</time>
      </trkpt>
      <trkpt lat="42.44873" lon="2.69427">
        <ele>785</ele>
        <time>2023-07-13T12:54:31.000Z</time>
      </trkpt>
      <trkpt lat="42.44874" lon="2.69423">
        <ele>785.79998779297</ele>
        <time>2023-07-13T12:54:35.000Z</time>
      </trkpt>
      <trkpt lat="42.44875" lon="2.69421">
        <ele>786.20001220703</ele>
        <time>2023-07-13T12:54:37.000Z</time>
      </trkpt>
      <trkpt lat="42.4488" lon="2.69417">
        <ele>787</ele>
        <time>2023-07-13T12:54:43.000Z</time>
      </trkpt>
      <trkpt lat="42.44881" lon="2.69417">
        <ele>787.20001220703</ele>
        <time>2023-07-13T12:54:44.000Z</time>
      </trkpt>
      <trkpt lat="42.44887" lon="2.6941">
        <ele>787.79998779297</ele>
        <time>2023-07-13T12:54:52.000Z</time>
      </trkpt>
      <trkpt lat="42.4489" lon="2.69399">
        <ele>787.40002441406</ele>
        <time>2023-07-13T12:55:00.000Z</time>
      </trkpt>
      <trkpt lat="42.44895" lon="2.69385">
        <ele>786.59997558594</ele>
        <time>2023-07-13T12:55:09.000Z</time>
      </trkpt>
      <trkpt lat="42.44898" lon="2.6938">
        <ele>786</ele>
        <time>2023-07-13T12:55:13.000Z</time>
      </trkpt>
      <trkpt lat="42.44901" lon="2.69377">
        <ele>785.40002441406</ele>
        <time>2023-07-13T12:55:18.000Z</time>
      </trkpt>
      <trkpt lat="42.44903" lon="2.69374">
        <ele>785</ele>
        <time>2023-07-13T12:55:21.000Z</time>
      </trkpt>
      <trkpt lat="42.44909" lon="2.6937">
        <ele>784</ele>
        <time>2023-07-13T12:55:26.000Z</time>
      </trkpt>
      <trkpt lat="42.4491" lon="2.69369">
        <ele>783.79998779297</ele>
        <time>2023-07-13T12:55:27.000Z</time>
      </trkpt>
      <trkpt lat="42.44916" lon="2.69363">
        <ele>783</ele>
        <time>2023-07-13T12:55:34.000Z</time>
      </trkpt>
      <trkpt lat="42.44918" lon="2.69358">
        <ele>782.79998779297</ele>
        <time>2023-07-13T12:55:38.000Z</time>
      </trkpt>
      <trkpt lat="42.44922" lon="2.6935">
        <ele>782</ele>
        <time>2023-07-13T12:55:44.000Z</time>
      </trkpt>
      <trkpt lat="42.44923" lon="2.69346">
        <ele>781.59997558594</ele>
        <time>2023-07-13T12:55:46.000Z</time>
      </trkpt>
      <trkpt lat="42.44926" lon="2.69347">
        <ele>781.20001220703</ele>
        <time>2023-07-13T12:55:50.000Z</time>
      </trkpt>
      <trkpt lat="42.44928" lon="2.69346">
        <ele>781.20001220703</ele>
        <time>2023-07-13T12:55:51.000Z</time>
      </trkpt>
      <trkpt lat="42.44928" lon="2.69344">
        <ele>781.20001220703</ele>
        <time>2023-07-13T12:55:59.000Z</time>
      </trkpt>
      <trkpt lat="42.44932" lon="2.69341">
        <ele>781.20001220703</ele>
        <time>2023-07-13T12:56:04.000Z</time>
      </trkpt>
      <trkpt lat="42.44938" lon="2.69332">
        <ele>781</ele>
        <time>2023-07-13T12:56:10.000Z</time>
      </trkpt>
      <trkpt lat="42.4494" lon="2.69321">
        <ele>780.59997558594</ele>
        <time>2023-07-13T12:56:18.000Z</time>
      </trkpt>
      <trkpt lat="42.4494" lon="2.6932">
        <ele>780.59997558594</ele>
        <time>2023-07-13T12:56:19.000Z</time>
      </trkpt>
      <trkpt lat="42.44941" lon="2.69312">
        <ele>780.59997558594</ele>
        <time>2023-07-13T12:56:27.000Z</time>
      </trkpt>
      <trkpt lat="42.44947" lon="2.69305">
        <ele>781.20001220703</ele>
        <time>2023-07-13T12:56:34.000Z</time>
      </trkpt>
      <trkpt lat="42.44949" lon="2.69302">
        <ele>781.79998779297</ele>
        <time>2023-07-13T12:56:38.000Z</time>
      </trkpt>
      <trkpt lat="42.4495" lon="2.69299">
        <ele>782</ele>
        <time>2023-07-13T12:56:41.000Z</time>
      </trkpt>
      <trkpt lat="42.44951" lon="2.69293">
        <ele>781.40002441406</ele>
        <time>2023-07-13T12:56:47.000Z</time>
      </trkpt>
      <trkpt lat="42.44951" lon="2.6929">
        <ele>780.40002441406</ele>
        <time>2023-07-13T12:56:50.000Z</time>
      </trkpt>
      <trkpt lat="42.44956" lon="2.69283">
        <ele>779.40002441406</ele>
        <time>2023-07-13T12:56:54.000Z</time>
      </trkpt>
      <trkpt lat="42.44957" lon="2.69282">
        <ele>779.40002441406</ele>
        <time>2023-07-13T12:56:55.000Z</time>
      </trkpt>
      <trkpt lat="42.44965" lon="2.69276">
        <ele>778.59997558594</ele>
        <time>2023-07-13T12:57:02.000Z</time>
      </trkpt>
      <trkpt lat="42.44969" lon="2.69274">
        <ele>778.20001220703</ele>
        <time>2023-07-13T12:57:06.000Z</time>
      </trkpt>
      <trkpt lat="42.44974" lon="2.69271">
        <ele>777.59997558594</ele>
        <time>2023-07-13T12:57:11.000Z</time>
      </trkpt>
      <trkpt lat="42.44985" lon="2.69271">
        <ele>777.59997558594</ele>
        <time>2023-07-13T12:57:21.000Z</time>
      </trkpt>
      <trkpt lat="42.44991" lon="2.69275">
        <ele>778.59997558594</ele>
        <time>2023-07-13T12:57:28.000Z</time>
      </trkpt>
      <trkpt lat="42.44995" lon="2.69277">
        <ele>778.40002441406</ele>
        <time>2023-07-13T12:57:32.000Z</time>
      </trkpt>
      <trkpt lat="42.45004" lon="2.69277">
        <ele>778.20001220703</ele>
        <time>2023-07-13T12:57:40.000Z</time>
      </trkpt>
      <trkpt lat="42.45019" lon="2.69277">
        <ele>778.59997558594</ele>
        <time>2023-07-13T12:57:50.000Z</time>
      </trkpt>
      <trkpt lat="42.45028" lon="2.69274">
        <ele>779</ele>
        <time>2023-07-13T12:57:58.000Z</time>
      </trkpt>
      <trkpt lat="42.45033" lon="2.6927">
        <ele>779.20001220703</ele>
        <time>2023-07-13T12:58:02.000Z</time>
      </trkpt>
      <trkpt lat="42.45037" lon="2.69268">
        <ele>779.59997558594</ele>
        <time>2023-07-13T12:58:06.000Z</time>
      </trkpt>
      <trkpt lat="42.45043" lon="2.69271">
        <ele>779.79998779297</ele>
        <time>2023-07-13T12:58:15.000Z</time>
      </trkpt>
      <trkpt lat="42.45047" lon="2.69273">
        <ele>778.40002441406</ele>
        <time>2023-07-13T12:58:23.000Z</time>
      </trkpt>
      <trkpt lat="42.45049" lon="2.69271">
        <ele>778.20001220703</ele>
        <time>2023-07-13T12:58:26.000Z</time>
      </trkpt>
      <trkpt lat="42.45049" lon="2.69267">
        <ele>777.79998779297</ele>
        <time>2023-07-13T12:58:30.000Z</time>
      </trkpt>
      <trkpt lat="42.45049" lon="2.69265">
        <ele>778</ele>
        <time>2023-07-13T12:58:31.000Z</time>
      </trkpt>
      <trkpt lat="42.45051" lon="2.69255">
        <ele>778</ele>
        <time>2023-07-13T12:58:38.000Z</time>
      </trkpt>
      <trkpt lat="42.45057" lon="2.69249">
        <ele>777.59997558594</ele>
        <time>2023-07-13T12:58:46.000Z</time>
      </trkpt>
      <trkpt lat="42.45056" lon="2.69249">
        <ele>777.79998779297</ele>
        <time>2023-07-13T12:58:50.000Z</time>
      </trkpt>
      <trkpt lat="42.4505" lon="2.69247">
        <ele>778.40002441406</ele>
        <time>2023-07-13T12:58:57.000Z</time>
      </trkpt>
      <trkpt lat="42.45049" lon="2.69246">
        <ele>779.40002441406</ele>
        <time>2023-07-13T12:59:02.000Z</time>
      </trkpt>
      <trkpt lat="42.45048" lon="2.69244">
        <ele>779.79998779297</ele>
        <time>2023-07-13T12:59:04.000Z</time>
      </trkpt>
      <trkpt lat="42.45047" lon="2.69241">
        <ele>780.59997558594</ele>
        <time>2023-07-13T12:59:08.000Z</time>
      </trkpt>
      <trkpt lat="42.45047" lon="2.69235">
        <ele>781.20001220703</ele>
        <time>2023-07-13T12:59:13.000Z</time>
      </trkpt>
      <trkpt lat="42.45047" lon="2.69233">
        <ele>781.59997558594</ele>
        <time>2023-07-13T12:59:15.000Z</time>
      </trkpt>
      <trkpt lat="42.45046" lon="2.69228">
        <ele>782.59997558594</ele>
        <time>2023-07-13T12:59:20.000Z</time>
      </trkpt>
      <trkpt lat="42.45047" lon="2.69215">
        <ele>783.59997558594</ele>
        <time>2023-07-13T12:59:29.000Z</time>
      </trkpt>
      <trkpt lat="42.45046" lon="2.6921">
        <ele>783.59997558594</ele>
        <time>2023-07-13T12:59:32.000Z</time>
      </trkpt>
      <trkpt lat="42.45047" lon="2.69203">
        <ele>783.59997558594</ele>
        <time>2023-07-13T12:59:36.000Z</time>
      </trkpt>
      <trkpt lat="42.45048" lon="2.69202">
        <ele>783.59997558594</ele>
        <time>2023-07-13T12:59:38.000Z</time>
      </trkpt>
      <trkpt lat="42.45047" lon="2.69201">
        <ele>783.59997558594</ele>
        <time>2023-07-13T12:59:40.000Z</time>
      </trkpt>
      <trkpt lat="42.45045" lon="2.69204">
        <ele>783.79998779297</ele>
        <time>2023-07-13T12:59:45.000Z</time>
      </trkpt>
      <trkpt lat="42.45045" lon="2.69202">
        <ele>783.79998779297</ele>
        <time>2023-07-13T12:59:52.000Z</time>
      </trkpt>
      <trkpt lat="42.45044" lon="2.69191">
        <ele>783.59997558594</ele>
        <time>2023-07-13T12:59:58.000Z</time>
      </trkpt>
      <trkpt lat="42.45044" lon="2.69176">
        <ele>783.59997558594</ele>
        <time>2023-07-13T13:00:05.000Z</time>
      </trkpt>
      <trkpt lat="42.45043" lon="2.69166">
        <ele>783.59997558594</ele>
        <time>2023-07-13T13:00:12.000Z</time>
      </trkpt>
      <trkpt lat="42.4504" lon="2.69155">
        <ele>783.79998779297</ele>
        <time>2023-07-13T13:00:20.000Z</time>
      </trkpt>
      <trkpt lat="42.45034" lon="2.69141">
        <ele>783.59997558594</ele>
        <time>2023-07-13T13:00:32.000Z</time>
      </trkpt>
      <trkpt lat="42.45033" lon="2.69133">
        <ele>783</ele>
        <time>2023-07-13T13:00:39.000Z</time>
      </trkpt>
      <trkpt lat="42.45033" lon="2.69119">
        <ele>782.79998779297</ele>
        <time>2023-07-13T13:00:45.000Z</time>
      </trkpt>
      <trkpt lat="42.45034" lon="2.69105">
        <ele>783.20001220703</ele>
        <time>2023-07-13T13:00:52.000Z</time>
      </trkpt>
      <trkpt lat="42.45034" lon="2.69097">
        <ele>783.40002441406</ele>
        <time>2023-07-13T13:00:59.000Z</time>
      </trkpt>
      <trkpt lat="42.45033" lon="2.69083">
        <ele>783.79998779297</ele>
        <time>2023-07-13T13:01:07.000Z</time>
      </trkpt>
      <trkpt lat="42.45025" lon="2.69028">
        <ele>786.79998779297</ele>
        <time>2023-07-13T13:01:42.000Z</time>
      </trkpt>
      <trkpt lat="42.45025" lon="2.69027">
        <ele>787</ele>
        <time>2023-07-13T13:01:43.000Z</time>
      </trkpt>
      <trkpt lat="42.45023" lon="2.69021">
        <ele>788</ele>
        <time>2023-07-13T13:01:49.000Z</time>
      </trkpt>
      <trkpt lat="42.45022" lon="2.69019">
        <ele>788.20001220703</ele>
        <time>2023-07-13T13:01:50.000Z</time>
      </trkpt>
      <trkpt lat="42.45018" lon="2.69012">
        <ele>789.20001220703</ele>
        <time>2023-07-13T13:01:55.000Z</time>
      </trkpt>
      <trkpt lat="42.45017" lon="2.6901">
        <ele>789.79998779297</ele>
        <time>2023-07-13T13:01:58.000Z</time>
      </trkpt>
      <trkpt lat="42.45017" lon="2.69008">
        <ele>790.20001220703</ele>
        <time>2023-07-13T13:02:01.000Z</time>
      </trkpt>
      <trkpt lat="42.45013" lon="2.68998">
        <ele>791.40002441406</ele>
        <time>2023-07-13T13:02:08.000Z</time>
      </trkpt>
      <trkpt lat="42.4501" lon="2.68989">
        <ele>792.20001220703</ele>
        <time>2023-07-13T13:02:16.000Z</time>
      </trkpt>
      <trkpt lat="42.45009" lon="2.68987">
        <ele>792.40002441406</ele>
        <time>2023-07-13T13:02:17.000Z</time>
      </trkpt>
      <trkpt lat="42.45008" lon="2.68974">
        <ele>792.59997558594</ele>
        <time>2023-07-13T13:02:25.000Z</time>
      </trkpt>
      <trkpt lat="42.45012" lon="2.68969">
        <ele>792.79998779297</ele>
        <time>2023-07-13T13:02:33.000Z</time>
      </trkpt>
      <trkpt lat="42.45016" lon="2.68963">
        <ele>793.59997558594</ele>
        <time>2023-07-13T13:02:38.000Z</time>
      </trkpt>
      <trkpt lat="42.45019" lon="2.6896">
        <ele>794</ele>
        <time>2023-07-13T13:02:42.000Z</time>
      </trkpt>
      <trkpt lat="42.45022" lon="2.68958">
        <ele>794.59997558594</ele>
        <time>2023-07-13T13:02:46.000Z</time>
      </trkpt>
      <trkpt lat="42.45024" lon="2.68956">
        <ele>795.40002441406</ele>
        <time>2023-07-13T13:02:51.000Z</time>
      </trkpt>
      <trkpt lat="42.45026" lon="2.68955">
        <ele>795.79998779297</ele>
        <time>2023-07-13T13:02:54.000Z</time>
      </trkpt>
      <trkpt lat="42.45032" lon="2.68952">
        <ele>796.20001220703</ele>
        <time>2023-07-13T13:03:00.000Z</time>
      </trkpt>
      <trkpt lat="42.45037" lon="2.68949">
        <ele>796.20001220703</ele>
        <time>2023-07-13T13:03:08.000Z</time>
      </trkpt>
      <trkpt lat="42.4504" lon="2.68947">
        <ele>797</ele>
        <time>2023-07-13T13:03:13.000Z</time>
      </trkpt>
      <trkpt lat="42.45043" lon="2.68945">
        <ele>797.20001220703</ele>
        <time>2023-07-13T13:03:16.000Z</time>
      </trkpt>
      <trkpt lat="42.45049" lon="2.68938">
        <ele>796.79998779297</ele>
        <time>2023-07-13T13:03:25.000Z</time>
      </trkpt>
      <trkpt lat="42.45053" lon="2.68936">
        <ele>797.40002441406</ele>
        <time>2023-07-13T13:03:31.000Z</time>
      </trkpt>
      <trkpt lat="42.45059" lon="2.68934">
        <ele>797.59997558594</ele>
        <time>2023-07-13T13:03:37.000Z</time>
      </trkpt>
      <trkpt lat="42.45065" lon="2.6893">
        <ele>797.59997558594</ele>
        <time>2023-07-13T13:03:44.000Z</time>
      </trkpt>
      <trkpt lat="42.45073" lon="2.68924">
        <ele>797.79998779297</ele>
        <time>2023-07-13T13:03:51.000Z</time>
      </trkpt>
      <trkpt lat="42.45079" lon="2.68917">
        <ele>797.59997558594</ele>
        <time>2023-07-13T13:03:58.000Z</time>
      </trkpt>
      <trkpt lat="42.45088" lon="2.68912">
        <ele>797</ele>
        <time>2023-07-13T13:04:05.000Z</time>
      </trkpt>
      <trkpt lat="42.45093" lon="2.68907">
        <ele>796.79998779297</ele>
        <time>2023-07-13T13:04:11.000Z</time>
      </trkpt>
      <trkpt lat="42.45103" lon="2.68901">
        <ele>796</ele>
        <time>2023-07-13T13:04:20.000Z</time>
      </trkpt>
      <trkpt lat="42.45105" lon="2.68899">
        <ele>795.79998779297</ele>
        <time>2023-07-13T13:04:22.000Z</time>
      </trkpt>
      <trkpt lat="42.45107" lon="2.68894">
        <ele>795.79998779297</ele>
        <time>2023-07-13T13:04:26.000Z</time>
      </trkpt>
      <trkpt lat="42.45113" lon="2.68887">
        <ele>795.79998779297</ele>
        <time>2023-07-13T13:04:33.000Z</time>
      </trkpt>
      <trkpt lat="42.45122" lon="2.68883">
        <ele>796.20001220703</ele>
        <time>2023-07-13T13:04:40.000Z</time>
      </trkpt>
      <trkpt lat="42.45126" lon="2.68884">
        <ele>796.40002441406</ele>
        <time>2023-07-13T13:04:43.000Z</time>
      </trkpt>
      <trkpt lat="42.45128" lon="2.68883">
        <ele>796.40002441406</ele>
        <time>2023-07-13T13:04:45.000Z</time>
      </trkpt>
      <trkpt lat="42.45138" lon="2.68878">
        <ele>797</ele>
        <time>2023-07-13T13:04:51.000Z</time>
      </trkpt>
      <trkpt lat="42.45142" lon="2.68875">
        <ele>797.20001220703</ele>
        <time>2023-07-13T13:04:54.000Z</time>
      </trkpt>
      <trkpt lat="42.45148" lon="2.68869">
        <ele>797.40002441406</ele>
        <time>2023-07-13T13:05:01.000Z</time>
      </trkpt>
      <trkpt lat="42.45153" lon="2.68864">
        <ele>797.40002441406</ele>
        <time>2023-07-13T13:05:10.000Z</time>
      </trkpt>
      <trkpt lat="42.45158" lon="2.68861">
        <ele>797.20001220703</ele>
        <time>2023-07-13T13:05:14.000Z</time>
      </trkpt>
      <trkpt lat="42.45159" lon="2.68861">
        <ele>797</ele>
        <time>2023-07-13T13:05:16.000Z</time>
      </trkpt>
      <trkpt lat="42.4517" lon="2.68851">
        <ele>796.79998779297</ele>
        <time>2023-07-13T13:05:23.000Z</time>
      </trkpt>
      <trkpt lat="42.45179" lon="2.68843">
        <ele>796.59997558594</ele>
        <time>2023-07-13T13:05:31.000Z</time>
      </trkpt>
      <trkpt lat="42.45183" lon="2.68834">
        <ele>795.79998779297</ele>
        <time>2023-07-13T13:05:38.000Z</time>
      </trkpt>
      <trkpt lat="42.45186" lon="2.68829">
        <ele>795.40002441406</ele>
        <time>2023-07-13T13:05:42.000Z</time>
      </trkpt>
      <trkpt lat="42.45191" lon="2.68824">
        <ele>794.59997558594</ele>
        <time>2023-07-13T13:05:47.000Z</time>
      </trkpt>
      <trkpt lat="42.45192" lon="2.68824">
        <ele>794.40002441406</ele>
        <time>2023-07-13T13:05:48.000Z</time>
      </trkpt>
      <trkpt lat="42.45196" lon="2.68824">
        <ele>793.79998779297</ele>
        <time>2023-07-13T13:05:54.000Z</time>
      </trkpt>
      <trkpt lat="42.45197" lon="2.68826">
        <ele>793.59997558594</ele>
        <time>2023-07-13T13:05:56.000Z</time>
      </trkpt>
      <trkpt lat="42.45201" lon="2.68826">
        <ele>793.59997558594</ele>
        <time>2023-07-13T13:05:59.000Z</time>
      </trkpt>
      <trkpt lat="42.45207" lon="2.68828">
        <ele>793.40002441406</ele>
        <time>2023-07-13T13:06:02.000Z</time>
      </trkpt>
      <trkpt lat="42.45217" lon="2.68834">
        <ele>793</ele>
        <time>2023-07-13T13:06:08.000Z</time>
      </trkpt>
      <trkpt lat="42.45224" lon="2.68837">
        <ele>792.59997558594</ele>
        <time>2023-07-13T13:06:14.000Z</time>
      </trkpt>
      <trkpt lat="42.45234" lon="2.68837">
        <ele>792</ele>
        <time>2023-07-13T13:06:22.000Z</time>
      </trkpt>
      <trkpt lat="42.45241" lon="2.68837">
        <ele>791.40002441406</ele>
        <time>2023-07-13T13:06:27.000Z</time>
      </trkpt>
      <trkpt lat="42.45242" lon="2.68836">
        <ele>791.40002441406</ele>
        <time>2023-07-13T13:06:28.000Z</time>
      </trkpt>
      <trkpt lat="42.45252" lon="2.68836">
        <ele>790.40002441406</ele>
        <time>2023-07-13T13:06:36.000Z</time>
      </trkpt>
      <trkpt lat="42.4526" lon="2.68835">
        <ele>789.59997558594</ele>
        <time>2023-07-13T13:06:43.000Z</time>
      </trkpt>
      <trkpt lat="42.4527" lon="2.68832">
        <ele>789.40002441406</ele>
        <time>2023-07-13T13:06:51.000Z</time>
      </trkpt>
      <trkpt lat="42.45271" lon="2.68831">
        <ele>789.20001220703</ele>
        <time>2023-07-13T13:06:52.000Z</time>
      </trkpt>
      <trkpt lat="42.45275" lon="2.68825">
        <ele>789</ele>
        <time>2023-07-13T13:06:59.000Z</time>
      </trkpt>
      <trkpt lat="42.45283" lon="2.6882">
        <ele>788.79998779297</ele>
        <time>2023-07-13T13:07:05.000Z</time>
      </trkpt>
      <trkpt lat="42.45292" lon="2.68818">
        <ele>788.59997558594</ele>
        <time>2023-07-13T13:07:12.000Z</time>
      </trkpt>
      <trkpt lat="42.453" lon="2.68815">
        <ele>788.40002441406</ele>
        <time>2023-07-13T13:07:19.000Z</time>
      </trkpt>
      <trkpt lat="42.45304" lon="2.68813">
        <ele>788.20001220703</ele>
        <time>2023-07-13T13:07:23.000Z</time>
      </trkpt>
      <trkpt lat="42.45309" lon="2.68813">
        <ele>788.20001220703</ele>
        <time>2023-07-13T13:07:26.000Z</time>
      </trkpt>
      <trkpt lat="42.45319" lon="2.68813">
        <ele>788.20001220703</ele>
        <time>2023-07-13T13:07:35.000Z</time>
      </trkpt>
      <trkpt lat="42.4533" lon="2.68812">
        <ele>788.40002441406</ele>
        <time>2023-07-13T13:07:43.000Z</time>
      </trkpt>
      <trkpt lat="42.45335" lon="2.68806">
        <ele>787.20001220703</ele>
        <time>2023-07-13T13:07:51.000Z</time>
      </trkpt>
      <trkpt lat="42.45335" lon="2.68806">
        <ele>787.20001220703</ele>
        <time>2023-07-13T13:07:52.000Z</time>
      </trkpt>
      <trkpt lat="42.45341" lon="2.68802">
        <ele>786.20001220703</ele>
        <time>2023-07-13T13:07:59.000Z</time>
      </trkpt>
      <trkpt lat="42.45342" lon="2.68802">
        <ele>786</ele>
        <time>2023-07-13T13:08:00.000Z</time>
      </trkpt>
      <trkpt lat="42.45351" lon="2.688">
        <ele>785.20001220703</ele>
        <time>2023-07-13T13:08:07.000Z</time>
      </trkpt>
      <trkpt lat="42.45354" lon="2.68801">
        <ele>785</ele>
        <time>2023-07-13T13:08:10.000Z</time>
      </trkpt>
      <trkpt lat="42.45359" lon="2.68803">
        <ele>784.79998779297</ele>
        <time>2023-07-13T13:08:14.000Z</time>
      </trkpt>
      <trkpt lat="42.45374" lon="2.6881">
        <ele>784</ele>
        <time>2023-07-13T13:08:30.000Z</time>
      </trkpt>
      <trkpt lat="42.45375" lon="2.6881">
        <ele>784</ele>
        <time>2023-07-13T13:08:31.000Z</time>
      </trkpt>
      <trkpt lat="42.45394" lon="2.68815">
        <ele>783.20001220703</ele>
        <time>2023-07-13T13:08:43.000Z</time>
      </trkpt>
      <trkpt lat="42.45397" lon="2.68815">
        <ele>783.20001220703</ele>
        <time>2023-07-13T13:08:45.000Z</time>
      </trkpt>
      <trkpt lat="42.45406" lon="2.68818">
        <ele>783</ele>
        <time>2023-07-13T13:08:54.000Z</time>
      </trkpt>
      <trkpt lat="42.45408" lon="2.68818">
        <ele>782.79998779297</ele>
        <time>2023-07-13T13:08:57.000Z</time>
      </trkpt>
      <trkpt lat="42.45414" lon="2.68821">
        <ele>782.40002441406</ele>
        <time>2023-07-13T13:09:04.000Z</time>
      </trkpt>
      <trkpt lat="42.45419" lon="2.68823">
        <ele>781.79998779297</ele>
        <time>2023-07-13T13:09:08.000Z</time>
      </trkpt>
      <trkpt lat="42.45429" lon="2.68825">
        <ele>781</ele>
        <time>2023-07-13T13:09:18.000Z</time>
      </trkpt>
      <trkpt lat="42.45431" lon="2.68825">
        <ele>780.79998779297</ele>
        <time>2023-07-13T13:09:20.000Z</time>
      </trkpt>
      <trkpt lat="42.4543" lon="2.68823">
        <ele>780.79998779297</ele>
        <time>2023-07-13T13:09:21.000Z</time>
      </trkpt>
      <trkpt lat="42.45431" lon="2.68822">
        <ele>780.79998779297</ele>
        <time>2023-07-13T13:09:23.000Z</time>
      </trkpt>
      <trkpt lat="42.45437" lon="2.68815">
        <ele>781</ele>
        <time>2023-07-13T13:09:29.000Z</time>
      </trkpt>
      <trkpt lat="42.45439" lon="2.68803">
        <ele>781.20001220703</ele>
        <time>2023-07-13T13:09:36.000Z</time>
      </trkpt>
      <trkpt lat="42.45443" lon="2.68792">
        <ele>781.40002441406</ele>
        <time>2023-07-13T13:09:44.000Z</time>
      </trkpt>
      <trkpt lat="42.45448" lon="2.68787">
        <ele>781</ele>
        <time>2023-07-13T13:09:51.000Z</time>
      </trkpt>
      <trkpt lat="42.45457" lon="2.68782">
        <ele>781.20001220703</ele>
        <time>2023-07-13T13:09:59.000Z</time>
      </trkpt>
      <trkpt lat="42.45459" lon="2.68783">
        <ele>781.20001220703</ele>
        <time>2023-07-13T13:10:00.000Z</time>
      </trkpt>
      <trkpt lat="42.45469" lon="2.68784">
        <ele>781.20001220703</ele>
        <time>2023-07-13T13:10:04.000Z</time>
      </trkpt>
      <trkpt lat="42.45483" lon="2.68782">
        <ele>782</ele>
        <time>2023-07-13T13:10:15.000Z</time>
      </trkpt>
      <trkpt lat="42.45494" lon="2.68775">
        <ele>782.40002441406</ele>
        <time>2023-07-13T13:10:25.000Z</time>
      </trkpt>
      <trkpt lat="42.455" lon="2.68769">
        <ele>781</ele>
        <time>2023-07-13T13:10:33.000Z</time>
      </trkpt>
      <trkpt lat="42.45501" lon="2.68769">
        <ele>781</ele>
        <time>2023-07-13T13:10:34.000Z</time>
      </trkpt>
      <trkpt lat="42.4551" lon="2.68766">
        <ele>780.59997558594</ele>
        <time>2023-07-13T13:10:42.000Z</time>
      </trkpt>
      <trkpt lat="42.45516" lon="2.68765">
        <ele>779.79998779297</ele>
        <time>2023-07-13T13:10:46.000Z</time>
      </trkpt>
      <trkpt lat="42.45523" lon="2.68763">
        <ele>779.59997558594</ele>
        <time>2023-07-13T13:10:51.000Z</time>
      </trkpt>
      <trkpt lat="42.45531" lon="2.68761">
        <ele>778.79998779297</ele>
        <time>2023-07-13T13:10:58.000Z</time>
      </trkpt>
      <trkpt lat="42.45534" lon="2.68761">
        <ele>778.79998779297</ele>
        <time>2023-07-13T13:11:00.000Z</time>
      </trkpt>
      <trkpt lat="42.45544" lon="2.68751">
        <ele>778.20001220703</ele>
        <time>2023-07-13T13:11:11.000Z</time>
      </trkpt>
      <trkpt lat="42.45552" lon="2.68744">
        <ele>778.20001220703</ele>
        <time>2023-07-13T13:11:18.000Z</time>
      </trkpt>
      <trkpt lat="42.45558" lon="2.6874">
        <ele>778.20001220703</ele>
        <time>2023-07-13T13:11:23.000Z</time>
      </trkpt>
      <trkpt lat="42.45557" lon="2.68729">
        <ele>778.40002441406</ele>
        <time>2023-07-13T13:11:28.000Z</time>
      </trkpt>
      <trkpt lat="42.45557" lon="2.68723">
        <ele>778.40002441406</ele>
        <time>2023-07-13T13:11:30.000Z</time>
      </trkpt>
      <trkpt lat="42.4556" lon="2.68702">
        <ele>778.20001220703</ele>
        <time>2023-07-13T13:11:39.000Z</time>
      </trkpt>
      <trkpt lat="42.45559" lon="2.68695">
        <ele>778</ele>
        <time>2023-07-13T13:11:44.000Z</time>
      </trkpt>
      <trkpt lat="42.45558" lon="2.68692">
        <ele>777.79998779297</ele>
        <time>2023-07-13T13:11:46.000Z</time>
      </trkpt>
      <trkpt lat="42.45558" lon="2.68679">
        <ele>778</ele>
        <time>2023-07-13T13:11:53.000Z</time>
      </trkpt>
      <trkpt lat="42.4556" lon="2.68667">
        <ele>778.79998779297</ele>
        <time>2023-07-13T13:12:00.000Z</time>
      </trkpt>
      <trkpt lat="42.4556" lon="2.68666">
        <ele>778.79998779297</ele>
        <time>2023-07-13T13:12:01.000Z</time>
      </trkpt>
      <trkpt lat="42.45565" lon="2.68654">
        <ele>778.59997558594</ele>
        <time>2023-07-13T13:12:08.000Z</time>
      </trkpt>
      <trkpt lat="42.45571" lon="2.68636">
        <ele>777.79998779297</ele>
        <time>2023-07-13T13:12:17.000Z</time>
      </trkpt>
      <trkpt lat="42.45571" lon="2.68633">
        <ele>777.79998779297</ele>
        <time>2023-07-13T13:12:19.000Z</time>
      </trkpt>
      <trkpt lat="42.45569" lon="2.68626">
        <ele>777.59997558594</ele>
        <time>2023-07-13T13:12:26.000Z</time>
      </trkpt>
      <trkpt lat="42.45569" lon="2.68617">
        <ele>776.59997558594</ele>
        <time>2023-07-13T13:12:33.000Z</time>
      </trkpt>
      <trkpt lat="42.45569" lon="2.68615">
        <ele>776.40002441406</ele>
        <time>2023-07-13T13:12:35.000Z</time>
      </trkpt>
      <trkpt lat="42.45568" lon="2.68599">
        <ele>775.40002441406</ele>
        <time>2023-07-13T13:12:43.000Z</time>
      </trkpt>
      <trkpt lat="42.45568" lon="2.68586">
        <ele>774.40002441406</ele>
        <time>2023-07-13T13:12:49.000Z</time>
      </trkpt>
      <trkpt lat="42.45568" lon="2.68583">
        <ele>774.20001220703</ele>
        <time>2023-07-13T13:12:51.000Z</time>
      </trkpt>
      <trkpt lat="42.45567" lon="2.68571">
        <ele>773.40002441406</ele>
        <time>2023-07-13T13:12:59.000Z</time>
      </trkpt>
      <trkpt lat="42.45567" lon="2.68569">
        <ele>773.20001220703</ele>
        <time>2023-07-13T13:13:00.000Z</time>
      </trkpt>
      <trkpt lat="42.45566" lon="2.68556">
        <ele>772.20001220703</ele>
        <time>2023-07-13T13:13:07.000Z</time>
      </trkpt>
      <trkpt lat="42.45566" lon="2.6855">
        <ele>771.59997558594</ele>
        <time>2023-07-13T13:13:10.000Z</time>
      </trkpt>
      <trkpt lat="42.45568" lon="2.68538">
        <ele>771</ele>
        <time>2023-07-13T13:13:16.000Z</time>
      </trkpt>
      <trkpt lat="42.45571" lon="2.6853">
        <ele>770.40002441406</ele>
        <time>2023-07-13T13:13:20.000Z</time>
      </trkpt>
      <trkpt lat="42.45577" lon="2.68516">
        <ele>770</ele>
        <time>2023-07-13T13:13:28.000Z</time>
      </trkpt>
      <trkpt lat="42.45576" lon="2.68507">
        <ele>770</ele>
        <time>2023-07-13T13:13:34.000Z</time>
      </trkpt>
      <trkpt lat="42.45577" lon="2.68497">
        <ele>770.20001220703</ele>
        <time>2023-07-13T13:13:40.000Z</time>
      </trkpt>
      <trkpt lat="42.45579" lon="2.68487">
        <ele>770.59997558594</ele>
        <time>2023-07-13T13:13:47.000Z</time>
      </trkpt>
      <trkpt lat="42.45583" lon="2.68479">
        <ele>769.40002441406</ele>
        <time>2023-07-13T13:13:54.000Z</time>
      </trkpt>
      <trkpt lat="42.45583" lon="2.68476">
        <ele>769</ele>
        <time>2023-07-13T13:13:56.000Z</time>
      </trkpt>
      <trkpt lat="42.45587" lon="2.68471">
        <ele>768</ele>
        <time>2023-07-13T13:14:01.000Z</time>
      </trkpt>
      <trkpt lat="42.45587" lon="2.6847">
        <ele>767.79998779297</ele>
        <time>2023-07-13T13:14:02.000Z</time>
      </trkpt>
      <trkpt lat="42.45591" lon="2.68468">
        <ele>766.59997558594</ele>
        <time>2023-07-13T13:14:08.000Z</time>
      </trkpt>
      <trkpt lat="42.45592" lon="2.68468">
        <ele>766.40002441406</ele>
        <time>2023-07-13T13:14:09.000Z</time>
      </trkpt>
      <trkpt lat="42.45596" lon="2.68464">
        <ele>765.79998779297</ele>
        <time>2023-07-13T13:14:16.000Z</time>
      </trkpt>
      <trkpt lat="42.45597" lon="2.68464">
        <ele>765.59997558594</ele>
        <time>2023-07-13T13:14:17.000Z</time>
      </trkpt>
      <trkpt lat="42.45602" lon="2.68459">
        <ele>765</ele>
        <time>2023-07-13T13:14:24.000Z</time>
      </trkpt>
      <trkpt lat="42.45604" lon="2.68458">
        <ele>764.59997558594</ele>
        <time>2023-07-13T13:14:27.000Z</time>
      </trkpt>
      <trkpt lat="42.45606" lon="2.6846">
        <ele>764</ele>
        <time>2023-07-13T13:14:30.000Z</time>
      </trkpt>
      <trkpt lat="42.45608" lon="2.68461">
        <ele>763.79998779297</ele>
        <time>2023-07-13T13:14:31.000Z</time>
      </trkpt>
      <trkpt lat="42.4561" lon="2.68461">
        <ele>763.40002441406</ele>
        <time>2023-07-13T13:14:33.000Z</time>
      </trkpt>
      <trkpt lat="42.45615" lon="2.6846">
        <ele>762.20001220703</ele>
        <time>2023-07-13T13:14:38.000Z</time>
      </trkpt>
      <trkpt lat="42.4562" lon="2.68459">
        <ele>761</ele>
        <time>2023-07-13T13:14:43.000Z</time>
      </trkpt>
      <trkpt lat="42.45622" lon="2.68459">
        <ele>760.59997558594</ele>
        <time>2023-07-13T13:14:45.000Z</time>
      </trkpt>
      <trkpt lat="42.45624" lon="2.68458">
        <ele>760</ele>
        <time>2023-07-13T13:14:48.000Z</time>
      </trkpt>
      <trkpt lat="42.45626" lon="2.68457">
        <ele>759.20001220703</ele>
        <time>2023-07-13T13:14:52.000Z</time>
      </trkpt>
      <trkpt lat="42.45631" lon="2.68457">
        <ele>758.79998779297</ele>
        <time>2023-07-13T13:14:55.000Z</time>
      </trkpt>
      <trkpt lat="42.45633" lon="2.68455">
        <ele>758.20001220703</ele>
        <time>2023-07-13T13:14:58.000Z</time>
      </trkpt>
      <trkpt lat="42.45638" lon="2.68455">
        <ele>757.59997558594</ele>
        <time>2023-07-13T13:15:03.000Z</time>
      </trkpt>
      <trkpt lat="42.45641" lon="2.68454">
        <ele>757</ele>
        <time>2023-07-13T13:15:07.000Z</time>
      </trkpt>
      <trkpt lat="42.45646" lon="2.68452">
        <ele>756.40002441406</ele>
        <time>2023-07-13T13:15:11.000Z</time>
      </trkpt>
      <trkpt lat="42.45649" lon="2.68452">
        <ele>756.20001220703</ele>
        <time>2023-07-13T13:15:13.000Z</time>
      </trkpt>
      <trkpt lat="42.45655" lon="2.68452">
        <ele>755.40002441406</ele>
        <time>2023-07-13T13:15:19.000Z</time>
      </trkpt>
      <trkpt lat="42.45657" lon="2.68452">
        <ele>755</ele>
        <time>2023-07-13T13:15:21.000Z</time>
      </trkpt>
      <trkpt lat="42.4566" lon="2.6845">
        <ele>754.20001220703</ele>
        <time>2023-07-13T13:15:25.000Z</time>
      </trkpt>
      <trkpt lat="42.45663" lon="2.6845">
        <ele>753.59997558594</ele>
        <time>2023-07-13T13:15:29.000Z</time>
      </trkpt>
      <trkpt lat="42.45667" lon="2.68448">
        <ele>753.20001220703</ele>
        <time>2023-07-13T13:15:32.000Z</time>
      </trkpt>
      <trkpt lat="42.45671" lon="2.68445">
        <ele>752.79998779297</ele>
        <time>2023-07-13T13:15:35.000Z</time>
      </trkpt>
      <trkpt lat="42.45674" lon="2.68443">
        <ele>752.20001220703</ele>
        <time>2023-07-13T13:15:41.000Z</time>
      </trkpt>
      <trkpt lat="42.4568" lon="2.68442">
        <ele>751.20001220703</ele>
        <time>2023-07-13T13:15:47.000Z</time>
      </trkpt>
      <trkpt lat="42.45683" lon="2.68439">
        <ele>749.79998779297</ele>
        <time>2023-07-13T13:15:54.000Z</time>
      </trkpt>
      <trkpt lat="42.45686" lon="2.6844">
        <ele>748.79998779297</ele>
        <time>2023-07-13T13:16:01.000Z</time>
      </trkpt>
      <trkpt lat="42.45686" lon="2.6844">
        <ele>748.79998779297</ele>
        <time>2023-07-13T13:16:02.000Z</time>
      </trkpt>
      <trkpt lat="42.45692" lon="2.68441">
        <ele>748</ele>
        <time>2023-07-13T13:16:09.000Z</time>
      </trkpt>
      <trkpt lat="42.45692" lon="2.68442">
        <ele>747.79998779297</ele>
        <time>2023-07-13T13:16:11.000Z</time>
      </trkpt>
      <trkpt lat="42.45696" lon="2.68443">
        <ele>747</ele>
        <time>2023-07-13T13:16:15.000Z</time>
      </trkpt>
      <trkpt lat="42.457" lon="2.68443">
        <ele>746.79998779297</ele>
        <time>2023-07-13T13:16:19.000Z</time>
      </trkpt>
      <trkpt lat="42.45702" lon="2.68444">
        <ele>746.40002441406</ele>
        <time>2023-07-13T13:16:22.000Z</time>
      </trkpt>
      <trkpt lat="42.45705" lon="2.68443">
        <ele>745.59997558594</ele>
        <time>2023-07-13T13:16:27.000Z</time>
      </trkpt>
      <trkpt lat="42.45706" lon="2.68442">
        <ele>745.40002441406</ele>
        <time>2023-07-13T13:16:29.000Z</time>
      </trkpt>
      <trkpt lat="42.45709" lon="2.68441">
        <ele>744.59997558594</ele>
        <time>2023-07-13T13:16:33.000Z</time>
      </trkpt>
      <trkpt lat="42.45713" lon="2.6844">
        <ele>744.20001220703</ele>
        <time>2023-07-13T13:16:37.000Z</time>
      </trkpt>
      <trkpt lat="42.4572" lon="2.68439">
        <ele>743.59997558594</ele>
        <time>2023-07-13T13:16:42.000Z</time>
      </trkpt>
      <trkpt lat="42.45723" lon="2.68438">
        <ele>743.40002441406</ele>
        <time>2023-07-13T13:16:44.000Z</time>
      </trkpt>
      <trkpt lat="42.45729" lon="2.68436">
        <ele>742.59997558594</ele>
        <time>2023-07-13T13:16:52.000Z</time>
      </trkpt>
      <trkpt lat="42.45734" lon="2.68435">
        <ele>741.79998779297</ele>
        <time>2023-07-13T13:16:58.000Z</time>
      </trkpt>
      <trkpt lat="42.45737" lon="2.68435">
        <ele>741.40002441406</ele>
        <time>2023-07-13T13:17:01.000Z</time>
      </trkpt>
      <trkpt lat="42.45744" lon="2.68436">
        <ele>741</ele>
        <time>2023-07-13T13:17:06.000Z</time>
      </trkpt>
      <trkpt lat="42.45747" lon="2.68439">
        <ele>740.59997558594</ele>
        <time>2023-07-13T13:17:11.000Z</time>
      </trkpt>
      <trkpt lat="42.45745" lon="2.68436">
        <ele>740.59997558594</ele>
        <time>2023-07-13T13:17:15.000Z</time>
      </trkpt>
      <trkpt lat="42.45741" lon="2.68428">
        <ele>740.59997558594</ele>
        <time>2023-07-13T13:17:21.000Z</time>
      </trkpt>
      <trkpt lat="42.45742" lon="2.68427">
        <ele>740.59997558594</ele>
        <time>2023-07-13T13:17:25.000Z</time>
      </trkpt>
      <trkpt lat="42.45742" lon="2.68425">
        <ele>740.79998779297</ele>
        <time>2023-07-13T13:17:29.000Z</time>
      </trkpt>
      <trkpt lat="42.45748" lon="2.68423">
        <ele>740.40002441406</ele>
        <time>2023-07-13T13:17:37.000Z</time>
      </trkpt>
      <trkpt lat="42.45749" lon="2.68423">
        <ele>740.20001220703</ele>
        <time>2023-07-13T13:17:38.000Z</time>
      </trkpt>
      <trkpt lat="42.45755" lon="2.6842">
        <ele>739.59997558594</ele>
        <time>2023-07-13T13:17:46.000Z</time>
      </trkpt>
      <trkpt lat="42.45757" lon="2.6842">
        <ele>739.40002441406</ele>
        <time>2023-07-13T13:17:49.000Z</time>
      </trkpt>
      <trkpt lat="42.45761" lon="2.6842">
        <ele>738.79998779297</ele>
        <time>2023-07-13T13:17:54.000Z</time>
      </trkpt>
      <trkpt lat="42.45769" lon="2.6842">
        <ele>738.40002441406</ele>
        <time>2023-07-13T13:18:01.000Z</time>
      </trkpt>
      <trkpt lat="42.45772" lon="2.68419">
        <ele>738.20001220703</ele>
        <time>2023-07-13T13:18:04.000Z</time>
      </trkpt>
      <trkpt lat="42.45775" lon="2.68408">
        <ele>737.59997558594</ele>
        <time>2023-07-13T13:18:14.000Z</time>
      </trkpt>
      <trkpt lat="42.45776" lon="2.68406">
        <ele>737.40002441406</ele>
        <time>2023-07-13T13:18:16.000Z</time>
      </trkpt>
      <trkpt lat="42.4578" lon="2.68399">
        <ele>736.20001220703</ele>
        <time>2023-07-13T13:18:22.000Z</time>
      </trkpt>
      <trkpt lat="42.45782" lon="2.68392">
        <ele>735</ele>
        <time>2023-07-13T13:18:27.000Z</time>
      </trkpt>
      <trkpt lat="42.45782" lon="2.68386">
        <ele>734.40002441406</ele>
        <time>2023-07-13T13:18:31.000Z</time>
      </trkpt>
      <trkpt lat="42.45785" lon="2.68376">
        <ele>732.79998779297</ele>
        <time>2023-07-13T13:18:40.000Z</time>
      </trkpt>
      <trkpt lat="42.45786" lon="2.68365">
        <ele>731.79998779297</ele>
        <time>2023-07-13T13:18:48.000Z</time>
      </trkpt>
      <trkpt lat="42.45788" lon="2.68356">
        <ele>730.79998779297</ele>
        <time>2023-07-13T13:18:54.000Z</time>
      </trkpt>
      <trkpt lat="42.4579" lon="2.68351">
        <ele>729.79998779297</ele>
        <time>2023-07-13T13:18:58.000Z</time>
      </trkpt>
      <trkpt lat="42.45791" lon="2.6835">
        <ele>729.59997558594</ele>
        <time>2023-07-13T13:18:59.000Z</time>
      </trkpt>
      <trkpt lat="42.45793" lon="2.6834">
        <ele>728.79998779297</ele>
        <time>2023-07-13T13:19:06.000Z</time>
      </trkpt>
      <trkpt lat="42.45793" lon="2.68338">
        <ele>728.59997558594</ele>
        <time>2023-07-13T13:19:07.000Z</time>
      </trkpt>
      <trkpt lat="42.45792" lon="2.68326">
        <ele>728</ele>
        <time>2023-07-13T13:19:13.000Z</time>
      </trkpt>
      <trkpt lat="42.45792" lon="2.68322">
        <ele>727.59997558594</ele>
        <time>2023-07-13T13:19:16.000Z</time>
      </trkpt>
      <trkpt lat="42.45793" lon="2.68318">
        <ele>726.79998779297</ele>
        <time>2023-07-13T13:19:22.000Z</time>
      </trkpt>
      <trkpt lat="42.45795" lon="2.68303">
        <ele>725.79998779297</ele>
        <time>2023-07-13T13:19:32.000Z</time>
      </trkpt>
      <trkpt lat="42.45796" lon="2.683">
        <ele>725.40002441406</ele>
        <time>2023-07-13T13:19:34.000Z</time>
      </trkpt>
      <trkpt lat="42.45799" lon="2.6829">
        <ele>724.79998779297</ele>
        <time>2023-07-13T13:19:42.000Z</time>
      </trkpt>
      <trkpt lat="42.458" lon="2.68287">
        <ele>724.40002441406</ele>
        <time>2023-07-13T13:19:44.000Z</time>
      </trkpt>
      <trkpt lat="42.45803" lon="2.6828">
        <ele>723.79998779297</ele>
        <time>2023-07-13T13:19:50.000Z</time>
      </trkpt>
      <trkpt lat="42.45805" lon="2.68275">
        <ele>723.20001220703</ele>
        <time>2023-07-13T13:19:53.000Z</time>
      </trkpt>
      <trkpt lat="42.45807" lon="2.68271">
        <ele>722.79998779297</ele>
        <time>2023-07-13T13:19:56.000Z</time>
      </trkpt>
      <trkpt lat="42.45808" lon="2.68264">
        <ele>722.20001220703</ele>
        <time>2023-07-13T13:20:00.000Z</time>
      </trkpt>
      <trkpt lat="42.45809" lon="2.68257">
        <ele>721.79998779297</ele>
        <time>2023-07-13T13:20:03.000Z</time>
      </trkpt>
      <trkpt lat="42.45811" lon="2.6825">
        <ele>721.20001220703</ele>
        <time>2023-07-13T13:20:06.000Z</time>
      </trkpt>
      <trkpt lat="42.45812" lon="2.68241">
        <ele>720.79998779297</ele>
        <time>2023-07-13T13:20:11.000Z</time>
      </trkpt>
      <trkpt lat="42.45815" lon="2.68235">
        <ele>720</ele>
        <time>2023-07-13T13:20:17.000Z</time>
      </trkpt>
      <trkpt lat="42.45815" lon="2.68232">
        <ele>719.59997558594</ele>
        <time>2023-07-13T13:20:20.000Z</time>
      </trkpt>
      <trkpt lat="42.45816" lon="2.68227">
        <ele>719</ele>
        <time>2023-07-13T13:20:24.000Z</time>
      </trkpt>
      <trkpt lat="42.45817" lon="2.68223">
        <ele>717.79998779297</ele>
        <time>2023-07-13T13:20:29.000Z</time>
      </trkpt>
      <trkpt lat="42.45822" lon="2.68216">
        <ele>716.59997558594</ele>
        <time>2023-07-13T13:20:34.000Z</time>
      </trkpt>
      <trkpt lat="42.45824" lon="2.68213">
        <ele>716.20001220703</ele>
        <time>2023-07-13T13:20:37.000Z</time>
      </trkpt>
      <trkpt lat="42.45829" lon="2.68208">
        <ele>715.59997558594</ele>
        <time>2023-07-13T13:20:42.000Z</time>
      </trkpt>
      <trkpt lat="42.45831" lon="2.68207">
        <ele>715.20001220703</ele>
        <time>2023-07-13T13:20:45.000Z</time>
      </trkpt>
      <trkpt lat="42.45832" lon="2.68203">
        <ele>714.40002441406</ele>
        <time>2023-07-13T13:20:48.000Z</time>
      </trkpt>
      <trkpt lat="42.45838" lon="2.68198">
        <ele>713.40002441406</ele>
        <time>2023-07-13T13:20:53.000Z</time>
      </trkpt>
      <trkpt lat="42.45839" lon="2.68198">
        <ele>713.40002441406</ele>
        <time>2023-07-13T13:20:54.000Z</time>
      </trkpt>
      <trkpt lat="42.45849" lon="2.68197">
        <ele>712.79998779297</ele>
        <time>2023-07-13T13:21:01.000Z</time>
      </trkpt>
      <trkpt lat="42.45857" lon="2.68196">
        <ele>712.40002441406</ele>
        <time>2023-07-13T13:21:07.000Z</time>
      </trkpt>
      <trkpt lat="42.45859" lon="2.68196">
        <ele>712</ele>
        <time>2023-07-13T13:21:09.000Z</time>
      </trkpt>
      <trkpt lat="42.45861" lon="2.68191">
        <ele>711.20001220703</ele>
        <time>2023-07-13T13:21:15.000Z</time>
      </trkpt>
      <trkpt lat="42.45861" lon="2.6819">
        <ele>711</ele>
        <time>2023-07-13T13:21:16.000Z</time>
      </trkpt>
      <trkpt lat="42.45866" lon="2.68185">
        <ele>710.20001220703</ele>
        <time>2023-07-13T13:21:22.000Z</time>
      </trkpt>
      <trkpt lat="42.45867" lon="2.68182">
        <ele>709.59997558594</ele>
        <time>2023-07-13T13:21:26.000Z</time>
      </trkpt>
      <trkpt lat="42.45874" lon="2.68177">
        <ele>709.20001220703</ele>
        <time>2023-07-13T13:21:32.000Z</time>
      </trkpt>
      <trkpt lat="42.45875" lon="2.68176">
        <ele>709.20001220703</ele>
        <time>2023-07-13T13:21:33.000Z</time>
      </trkpt>
      <trkpt lat="42.45877" lon="2.68168">
        <ele>708.79998779297</ele>
        <time>2023-07-13T13:21:39.000Z</time>
      </trkpt>
      <trkpt lat="42.45879" lon="2.68163">
        <ele>708</ele>
        <time>2023-07-13T13:21:45.000Z</time>
      </trkpt>
      <trkpt lat="42.45879" lon="2.68161">
        <ele>707.59997558594</ele>
        <time>2023-07-13T13:21:48.000Z</time>
      </trkpt>
      <trkpt lat="42.45882" lon="2.6816">
        <ele>707</ele>
        <time>2023-07-13T13:21:51.000Z</time>
      </trkpt>
      <trkpt lat="42.45887" lon="2.6816">
        <ele>706.20001220703</ele>
        <time>2023-07-13T13:21:55.000Z</time>
      </trkpt>
      <trkpt lat="42.45888" lon="2.6816">
        <ele>705.79998779297</ele>
        <time>2023-07-13T13:21:57.000Z</time>
      </trkpt>
      <trkpt lat="42.45892" lon="2.68162">
        <ele>704.79998779297</ele>
        <time>2023-07-13T13:22:01.000Z</time>
      </trkpt>
      <trkpt lat="42.45901" lon="2.68167">
        <ele>704.20001220703</ele>
        <time>2023-07-13T13:22:08.000Z</time>
      </trkpt>
      <trkpt lat="42.45904" lon="2.68167">
        <ele>703.79998779297</ele>
        <time>2023-07-13T13:22:11.000Z</time>
      </trkpt>
      <trkpt lat="42.45913" lon="2.68169">
        <ele>700.59997558594</ele>
        <time>2023-07-13T13:22:25.000Z</time>
      </trkpt>
      <trkpt lat="42.45913" lon="2.6817">
        <ele>700.20001220703</ele>
        <time>2023-07-13T13:22:26.000Z</time>
      </trkpt>
      <trkpt lat="42.45921" lon="2.68166">
        <ele>697.79998779297</ele>
        <time>2023-07-13T13:22:35.000Z</time>
      </trkpt>
      <trkpt lat="42.45923" lon="2.68161">
        <ele>696.79998779297</ele>
        <time>2023-07-13T13:22:40.000Z</time>
      </trkpt>
      <trkpt lat="42.45925" lon="2.68152">
        <ele>695.79998779297</ele>
        <time>2023-07-13T13:22:45.000Z</time>
      </trkpt>
      <trkpt lat="42.45927" lon="2.68151">
        <ele>695.79998779297</ele>
        <time>2023-07-13T13:22:46.000Z</time>
      </trkpt>
      <trkpt lat="42.45932" lon="2.6815">
        <ele>694.79998779297</ele>
        <time>2023-07-13T13:22:52.000Z</time>
      </trkpt>
      <trkpt lat="42.45933" lon="2.6815">
        <ele>694.59997558594</ele>
        <time>2023-07-13T13:22:53.000Z</time>
      </trkpt>
      <trkpt lat="42.45938" lon="2.68151">
        <ele>693.40002441406</ele>
        <time>2023-07-13T13:23:00.000Z</time>
      </trkpt>
      <trkpt lat="42.45939" lon="2.68151">
        <ele>693</ele>
        <time>2023-07-13T13:23:01.000Z</time>
      </trkpt>
      <trkpt lat="42.45941" lon="2.68151">
        <ele>692.40002441406</ele>
        <time>2023-07-13T13:23:04.000Z</time>
      </trkpt>
      <trkpt lat="42.45949" lon="2.68153">
        <ele>691.40002441406</ele>
        <time>2023-07-13T13:23:10.000Z</time>
      </trkpt>
      <trkpt lat="42.45952" lon="2.68155">
        <ele>690.20001220703</ele>
        <time>2023-07-13T13:23:17.000Z</time>
      </trkpt>
      <trkpt lat="42.45953" lon="2.68156">
        <ele>690</ele>
        <time>2023-07-13T13:23:18.000Z</time>
      </trkpt>
      <trkpt lat="42.45955" lon="2.68157">
        <ele>689</ele>
        <time>2023-07-13T13:23:24.000Z</time>
      </trkpt>
      <trkpt lat="42.45957" lon="2.68157">
        <ele>688.40002441406</ele>
        <time>2023-07-13T13:23:27.000Z</time>
      </trkpt>
      <trkpt lat="42.45958" lon="2.68157">
        <ele>688</ele>
        <time>2023-07-13T13:23:29.000Z</time>
      </trkpt>
      <trkpt lat="42.45959" lon="2.68158">
        <ele>686.79998779297</ele>
        <time>2023-07-13T13:23:34.000Z</time>
      </trkpt>
      <trkpt lat="42.4596" lon="2.68159">
        <ele>686.20001220703</ele>
        <time>2023-07-13T13:23:36.000Z</time>
      </trkpt>
      <trkpt lat="42.45962" lon="2.6816">
        <ele>685.59997558594</ele>
        <time>2023-07-13T13:23:38.000Z</time>
      </trkpt>
      <trkpt lat="42.45968" lon="2.68166">
        <ele>685</ele>
        <time>2023-07-13T13:23:46.000Z</time>
      </trkpt>
      <trkpt lat="42.45969" lon="2.68163">
        <ele>684.40002441406</ele>
        <time>2023-07-13T13:23:50.000Z</time>
      </trkpt>
      <trkpt lat="42.45971" lon="2.68165">
        <ele>683.79998779297</ele>
        <time>2023-07-13T13:23:54.000Z</time>
      </trkpt>
      <trkpt lat="42.45974" lon="2.68166">
        <ele>683.59997558594</ele>
        <time>2023-07-13T13:24:03.000Z</time>
      </trkpt>
      <trkpt lat="42.45974" lon="2.6816">
        <ele>683.40002441406</ele>
        <time>2023-07-13T13:24:10.000Z</time>
      </trkpt>
      <trkpt lat="42.45974" lon="2.68163">
        <ele>683.59997558594</ele>
        <time>2023-07-13T13:24:21.000Z</time>
      </trkpt>
      <trkpt lat="42.45966" lon="2.68163">
        <ele>684</ele>
        <time>2023-07-13T13:24:42.000Z</time>
      </trkpt>
      <trkpt lat="42.45966" lon="2.68164">
        <ele>684.59997558594</ele>
        <time>2023-07-13T13:24:44.000Z</time>
      </trkpt>
      <trkpt lat="42.45967" lon="2.68166">
        <ele>684.59997558594</ele>
        <time>2023-07-13T13:24:48.000Z</time>
      </trkpt>
      <trkpt lat="42.45995" lon="2.68187">
        <ele>682</ele>
        <time>2023-07-13T13:25:16.000Z</time>
      </trkpt>
      <trkpt lat="42.45997" lon="2.68188">
        <ele>681.79998779297</ele>
        <time>2023-07-13T13:25:17.000Z</time>
      </trkpt>
      <trkpt lat="42.46002" lon="2.68189">
        <ele>681.20001220703</ele>
        <time>2023-07-13T13:25:21.000Z</time>
      </trkpt>
      <trkpt lat="42.46019" lon="2.6819">
        <ele>680.79998779297</ele>
        <time>2023-07-13T13:25:37.000Z</time>
      </trkpt>
      <trkpt lat="42.46022" lon="2.68195">
        <ele>680</ele>
        <time>2023-07-13T13:25:46.000Z</time>
      </trkpt>
      <trkpt lat="42.46035" lon="2.68203">
        <ele>677.40002441406</ele>
        <time>2023-07-13T13:26:00.000Z</time>
      </trkpt>
      <trkpt lat="42.46036" lon="2.68203">
        <ele>676.79998779297</ele>
        <time>2023-07-13T13:26:03.000Z</time>
      </trkpt>
      <trkpt lat="42.46038" lon="2.68203">
        <ele>676</ele>
        <time>2023-07-13T13:26:06.000Z</time>
      </trkpt>
      <trkpt lat="42.4605" lon="2.68205">
        <ele>674.20001220703</ele>
        <time>2023-07-13T13:26:22.000Z</time>
      </trkpt>
      <trkpt lat="42.46054" lon="2.68206">
        <ele>673.59997558594</ele>
        <time>2023-07-13T13:26:26.000Z</time>
      </trkpt>
      <trkpt lat="42.4607" lon="2.68209">
        <ele>674.20001220703</ele>
        <time>2023-07-13T13:26:38.000Z</time>
      </trkpt>
      <trkpt lat="42.46097" lon="2.68213">
        <ele>677</ele>
        <time>2023-07-13T13:27:12.000Z</time>
      </trkpt>
      <trkpt lat="42.461" lon="2.68213">
        <ele>677.40002441406</ele>
        <time>2023-07-13T13:27:15.000Z</time>
      </trkpt>
      <trkpt lat="42.4611" lon="2.68211">
        <ele>677.59997558594</ele>
        <time>2023-07-13T13:27:23.000Z</time>
      </trkpt>
      <trkpt lat="42.46115" lon="2.68209">
        <ele>678</ele>
        <time>2023-07-13T13:27:31.000Z</time>
      </trkpt>
      <trkpt lat="42.46116" lon="2.68209">
        <ele>678.20001220703</ele>
        <time>2023-07-13T13:27:32.000Z</time>
      </trkpt>
      <trkpt lat="42.46124" lon="2.68208">
        <ele>679</ele>
        <time>2023-07-13T13:27:38.000Z</time>
      </trkpt>
      <trkpt lat="42.46133" lon="2.68209">
        <ele>678.20001220703</ele>
        <time>2023-07-13T13:27:45.000Z</time>
      </trkpt>
      <trkpt lat="42.46142" lon="2.68211">
        <ele>677.20001220703</ele>
        <time>2023-07-13T13:27:52.000Z</time>
      </trkpt>
      <trkpt lat="42.46146" lon="2.68212">
        <ele>677.20001220703</ele>
        <time>2023-07-13T13:28:01.000Z</time>
      </trkpt>
      <trkpt lat="42.46147" lon="2.68211">
        <ele>676.79998779297</ele>
        <time>2023-07-13T13:28:03.000Z</time>
      </trkpt>
      <trkpt lat="42.46152" lon="2.68211">
        <ele>675.59997558594</ele>
        <time>2023-07-13T13:28:09.000Z</time>
      </trkpt>
      <trkpt lat="42.46153" lon="2.68211">
        <ele>675.59997558594</ele>
        <time>2023-07-13T13:28:10.000Z</time>
      </trkpt>
      <trkpt lat="42.4616" lon="2.68211">
        <ele>674.59997558594</ele>
        <time>2023-07-13T13:28:16.000Z</time>
      </trkpt>
      <trkpt lat="42.46168" lon="2.68212">
        <ele>673.59997558594</ele>
        <time>2023-07-13T13:28:25.000Z</time>
      </trkpt>
      <trkpt lat="42.46174" lon="2.68213">
        <ele>672.59997558594</ele>
        <time>2023-07-13T13:28:31.000Z</time>
      </trkpt>
      <trkpt lat="42.46175" lon="2.68214">
        <ele>672.40002441406</ele>
        <time>2023-07-13T13:28:32.000Z</time>
      </trkpt>
      <trkpt lat="42.46177" lon="2.68214">
        <ele>671.40002441406</ele>
        <time>2023-07-13T13:28:37.000Z</time>
      </trkpt>
      <trkpt lat="42.4618" lon="2.68213">
        <ele>670.79998779297</ele>
        <time>2023-07-13T13:28:41.000Z</time>
      </trkpt>
      <trkpt lat="42.46185" lon="2.68215">
        <ele>670.40002441406</ele>
        <time>2023-07-13T13:28:44.000Z</time>
      </trkpt>
      <trkpt lat="42.46189" lon="2.68216">
        <ele>669.79998779297</ele>
        <time>2023-07-13T13:28:48.000Z</time>
      </trkpt>
      <trkpt lat="42.46191" lon="2.68214">
        <ele>669.40002441406</ele>
        <time>2023-07-13T13:28:57.000Z</time>
      </trkpt>
      <trkpt lat="42.46192" lon="2.68214">
        <ele>669.40002441406</ele>
        <time>2023-07-13T13:28:58.000Z</time>
      </trkpt>
      <trkpt lat="42.46195" lon="2.68213">
        <ele>669.40002441406</ele>
        <time>2023-07-13T13:29:03.000Z</time>
      </trkpt>
      <trkpt lat="42.46199" lon="2.68215">
        <ele>668.40002441406</ele>
        <time>2023-07-13T13:29:09.000Z</time>
      </trkpt>
      <trkpt lat="42.462" lon="2.68215">
        <ele>668.20001220703</ele>
        <time>2023-07-13T13:29:11.000Z</time>
      </trkpt>
      <trkpt lat="42.46204" lon="2.68217">
        <ele>667.20001220703</ele>
        <time>2023-07-13T13:29:15.000Z</time>
      </trkpt>
      <trkpt lat="42.46205" lon="2.68218">
        <ele>666.79998779297</ele>
        <time>2023-07-13T13:29:17.000Z</time>
      </trkpt>
      <trkpt lat="42.46208" lon="2.68219">
        <ele>666</ele>
        <time>2023-07-13T13:29:21.000Z</time>
      </trkpt>
      <trkpt lat="42.4621" lon="2.6822">
        <ele>665.79998779297</ele>
        <time>2023-07-13T13:29:23.000Z</time>
      </trkpt>
      <trkpt lat="42.46212" lon="2.6822">
        <ele>665</ele>
        <time>2023-07-13T13:29:27.000Z</time>
      </trkpt>
      <trkpt lat="42.46212" lon="2.68219">
        <ele>664.79998779297</ele>
        <time>2023-07-13T13:29:29.000Z</time>
      </trkpt>
      <trkpt lat="42.46211" lon="2.6821">
        <ele>664.40002441406</ele>
        <time>2023-07-13T13:29:37.000Z</time>
      </trkpt>
      <trkpt lat="42.46211" lon="2.68208">
        <ele>664</ele>
        <time>2023-07-13T13:29:40.000Z</time>
      </trkpt>
      <trkpt lat="42.46213" lon="2.68203">
        <ele>662.79998779297</ele>
        <time>2023-07-13T13:29:46.000Z</time>
      </trkpt>
      <trkpt lat="42.46216" lon="2.68201">
        <ele>661.79998779297</ele>
        <time>2023-07-13T13:29:51.000Z</time>
      </trkpt>
      <trkpt lat="42.46218" lon="2.68201">
        <ele>661.59997558594</ele>
        <time>2023-07-13T13:29:53.000Z</time>
      </trkpt>
      <trkpt lat="42.46221" lon="2.68203">
        <ele>660.59997558594</ele>
        <time>2023-07-13T13:29:58.000Z</time>
      </trkpt>
      <trkpt lat="42.46232" lon="2.6821">
        <ele>658</ele>
        <time>2023-07-13T13:30:15.000Z</time>
      </trkpt>
      <trkpt lat="42.46234" lon="2.68212">
        <ele>657.20001220703</ele>
        <time>2023-07-13T13:30:17.000Z</time>
      </trkpt>
      <trkpt lat="42.46234" lon="2.68214">
        <ele>656.40002441406</ele>
        <time>2023-07-13T13:30:34.000Z</time>
      </trkpt>
      <trkpt lat="42.46242" lon="2.68214">
        <ele>656</ele>
        <time>2023-07-13T13:30:43.000Z</time>
      </trkpt>
      <trkpt lat="42.4625" lon="2.68217">
        <ele>655.20001220703</ele>
        <time>2023-07-13T13:30:51.000Z</time>
      </trkpt>
      <trkpt lat="42.46253" lon="2.68218">
        <ele>654.79998779297</ele>
        <time>2023-07-13T13:30:52.000Z</time>
      </trkpt>
      <trkpt lat="42.46255" lon="2.6822">
        <ele>653</ele>
        <time>2023-07-13T13:31:02.000Z</time>
      </trkpt>
      <trkpt lat="42.46255" lon="2.68219">
        <ele>652.59997558594</ele>
        <time>2023-07-13T13:31:05.000Z</time>
      </trkpt>
      <trkpt lat="42.46258" lon="2.68217">
        <ele>652</ele>
        <time>2023-07-13T13:31:10.000Z</time>
      </trkpt>
      <trkpt lat="42.46259" lon="2.68216">
        <ele>651.40002441406</ele>
        <time>2023-07-13T13:31:14.000Z</time>
      </trkpt>
      <trkpt lat="42.46263" lon="2.68214">
        <ele>649.59997558594</ele>
        <time>2023-07-13T13:31:22.000Z</time>
      </trkpt>
      <trkpt lat="42.46264" lon="2.68213">
        <ele>649.20001220703</ele>
        <time>2023-07-13T13:31:23.000Z</time>
      </trkpt>
      <trkpt lat="42.46279" lon="2.68216">
        <ele>646</ele>
        <time>2023-07-13T13:31:37.000Z</time>
      </trkpt>
      <trkpt lat="42.46281" lon="2.68211">
        <ele>646</ele>
        <time>2023-07-13T13:31:41.000Z</time>
      </trkpt>
      <trkpt lat="42.46285" lon="2.68205">
        <ele>645.40002441406</ele>
        <time>2023-07-13T13:31:45.000Z</time>
      </trkpt>
      <trkpt lat="42.4629" lon="2.68196">
        <ele>645</ele>
        <time>2023-07-13T13:31:51.000Z</time>
      </trkpt>
      <trkpt lat="42.46293" lon="2.682">
        <ele>644.79998779297</ele>
        <time>2023-07-13T13:31:58.000Z</time>
      </trkpt>
      <trkpt lat="42.46291" lon="2.68197">
        <ele>644.79998779297</ele>
        <time>2023-07-13T13:32:00.000Z</time>
      </trkpt>
      <trkpt lat="42.46291" lon="2.68196">
        <ele>644.40002441406</ele>
        <time>2023-07-13T13:32:08.000Z</time>
      </trkpt>
      <trkpt lat="42.46289" lon="2.68194">
        <ele>644.40002441406</ele>
        <time>2023-07-13T13:32:10.000Z</time>
      </trkpt>
      <trkpt lat="42.46289" lon="2.68189">
        <ele>643.79998779297</ele>
        <time>2023-07-13T13:32:16.000Z</time>
      </trkpt>
      <trkpt lat="42.46288" lon="2.68188">
        <ele>643.40002441406</ele>
        <time>2023-07-13T13:32:18.000Z</time>
      </trkpt>
      <trkpt lat="42.46286" lon="2.68186">
        <ele>643</ele>
        <time>2023-07-13T13:32:21.000Z</time>
      </trkpt>
      <trkpt lat="42.46281" lon="2.68184">
        <ele>642.20001220703</ele>
        <time>2023-07-13T13:32:25.000Z</time>
      </trkpt>
      <trkpt lat="42.46278" lon="2.68183">
        <ele>641.59997558594</ele>
        <time>2023-07-13T13:32:28.000Z</time>
      </trkpt>
      <trkpt lat="42.46275" lon="2.68181">
        <ele>641.20001220703</ele>
        <time>2023-07-13T13:32:31.000Z</time>
      </trkpt>
      <trkpt lat="42.46271" lon="2.68179">
        <ele>640.40002441406</ele>
        <time>2023-07-13T13:32:35.000Z</time>
      </trkpt>
      <trkpt lat="42.46269" lon="2.68178">
        <ele>640.20001220703</ele>
        <time>2023-07-13T13:32:38.000Z</time>
      </trkpt>
      <trkpt lat="42.46269" lon="2.68177">
        <ele>640</ele>
        <time>2023-07-13T13:32:39.000Z</time>
      </trkpt>
      <trkpt lat="42.46269" lon="2.68176">
        <ele>639.59997558594</ele>
        <time>2023-07-13T13:32:41.000Z</time>
      </trkpt>
      <trkpt lat="42.46271" lon="2.68173">
        <ele>638.79998779297</ele>
        <time>2023-07-13T13:32:44.000Z</time>
      </trkpt>
      <trkpt lat="42.46274" lon="2.68169">
        <ele>637.79998779297</ele>
        <time>2023-07-13T13:32:48.000Z</time>
      </trkpt>
      <trkpt lat="42.46277" lon="2.68166">
        <ele>636.59997558594</ele>
        <time>2023-07-13T13:32:53.000Z</time>
      </trkpt>
      <trkpt lat="42.46279" lon="2.68162">
        <ele>636</ele>
        <time>2023-07-13T13:32:56.000Z</time>
      </trkpt>
      <trkpt lat="42.46281" lon="2.6816">
        <ele>635.59997558594</ele>
        <time>2023-07-13T13:32:59.000Z</time>
      </trkpt>
      <trkpt lat="42.4628" lon="2.6816">
        <ele>635.40002441406</ele>
        <time>2023-07-13T13:33:01.000Z</time>
      </trkpt>
      <trkpt lat="42.46281" lon="2.6816">
        <ele>635</ele>
        <time>2023-07-13T13:33:12.000Z</time>
      </trkpt>
      <trkpt lat="42.46285" lon="2.68154">
        <ele>634.79998779297</ele>
        <time>2023-07-13T13:33:19.000Z</time>
      </trkpt>
      <trkpt lat="42.46288" lon="2.68151">
        <ele>634.40002441406</ele>
        <time>2023-07-13T13:33:22.000Z</time>
      </trkpt>
      <trkpt lat="42.46293" lon="2.68148">
        <ele>633.79998779297</ele>
        <time>2023-07-13T13:33:26.000Z</time>
      </trkpt>
      <trkpt lat="42.46295" lon="2.68145">
        <ele>633.40002441406</ele>
        <time>2023-07-13T13:33:30.000Z</time>
      </trkpt>
      <trkpt lat="42.46297" lon="2.68142">
        <ele>633.20001220703</ele>
        <time>2023-07-13T13:33:33.000Z</time>
      </trkpt>
      <trkpt lat="42.46302" lon="2.68137">
        <ele>632.40002441406</ele>
        <time>2023-07-13T13:33:38.000Z</time>
      </trkpt>
      <trkpt lat="42.46304" lon="2.68134">
        <ele>631.79998779297</ele>
        <time>2023-07-13T13:33:41.000Z</time>
      </trkpt>
      <trkpt lat="42.46305" lon="2.68132">
        <ele>631.20001220703</ele>
        <time>2023-07-13T13:33:44.000Z</time>
      </trkpt>
      <trkpt lat="42.46308" lon="2.68127">
        <ele>630.40002441406</ele>
        <time>2023-07-13T13:33:48.000Z</time>
      </trkpt>
      <trkpt lat="42.4631" lon="2.68124">
        <ele>630</ele>
        <time>2023-07-13T13:33:50.000Z</time>
      </trkpt>
      <trkpt lat="42.46316" lon="2.6812">
        <ele>629</ele>
        <time>2023-07-13T13:33:55.000Z</time>
      </trkpt>
      <trkpt lat="42.46318" lon="2.68117">
        <ele>628.59997558594</ele>
        <time>2023-07-13T13:33:57.000Z</time>
      </trkpt>
      <trkpt lat="42.46321" lon="2.68113">
        <ele>627.79998779297</ele>
        <time>2023-07-13T13:34:01.000Z</time>
      </trkpt>
      <trkpt lat="42.46322" lon="2.68109">
        <ele>627.40002441406</ele>
        <time>2023-07-13T13:34:04.000Z</time>
      </trkpt>
      <trkpt lat="42.46323" lon="2.68108">
        <ele>626.59997558594</ele>
        <time>2023-07-13T13:34:07.000Z</time>
      </trkpt>
      <trkpt lat="42.46325" lon="2.68102">
        <ele>626.20001220703</ele>
        <time>2023-07-13T13:34:11.000Z</time>
      </trkpt>
      <trkpt lat="42.46323" lon="2.68096">
        <ele>625.59997558594</ele>
        <time>2023-07-13T13:34:15.000Z</time>
      </trkpt>
      <trkpt lat="42.46323" lon="2.68087">
        <ele>625</ele>
        <time>2023-07-13T13:34:18.000Z</time>
      </trkpt>
      <trkpt lat="42.46323" lon="2.68082">
        <ele>624.40002441406</ele>
        <time>2023-07-13T13:34:21.000Z</time>
      </trkpt>
      <trkpt lat="42.46326" lon="2.68076">
        <ele>623.79998779297</ele>
        <time>2023-07-13T13:34:24.000Z</time>
      </trkpt>
      <trkpt lat="42.46328" lon="2.68073">
        <ele>623.20001220703</ele>
        <time>2023-07-13T13:34:27.000Z</time>
      </trkpt>
      <trkpt lat="42.46326" lon="2.68066">
        <ele>622.40002441406</ele>
        <time>2023-07-13T13:34:31.000Z</time>
      </trkpt>
      <trkpt lat="42.46327" lon="2.68063">
        <ele>622.20001220703</ele>
        <time>2023-07-13T13:34:34.000Z</time>
      </trkpt>
      <trkpt lat="42.46329" lon="2.68058">
        <ele>621.40002441406</ele>
        <time>2023-07-13T13:34:38.000Z</time>
      </trkpt>
      <trkpt lat="42.46331" lon="2.68054">
        <ele>621</ele>
        <time>2023-07-13T13:34:41.000Z</time>
      </trkpt>
      <trkpt lat="42.46334" lon="2.68045">
        <ele>619.79998779297</ele>
        <time>2023-07-13T13:34:48.000Z</time>
      </trkpt>
      <trkpt lat="42.46335" lon="2.68045">
        <ele>619.79998779297</ele>
        <time>2023-07-13T13:34:49.000Z</time>
      </trkpt>
      <trkpt lat="42.46336" lon="2.68031">
        <ele>619</ele>
        <time>2023-07-13T13:34:58.000Z</time>
      </trkpt>
      <trkpt lat="42.46338" lon="2.68027">
        <ele>618.79998779297</ele>
        <time>2023-07-13T13:35:00.000Z</time>
      </trkpt>
      <trkpt lat="42.46341" lon="2.6802">
        <ele>618.40002441406</ele>
        <time>2023-07-13T13:35:04.000Z</time>
      </trkpt>
      <trkpt lat="42.46344" lon="2.68014">
        <ele>617.79998779297</ele>
        <time>2023-07-13T13:35:08.000Z</time>
      </trkpt>
      <trkpt lat="42.46346" lon="2.68011">
        <ele>617.59997558594</ele>
        <time>2023-07-13T13:35:10.000Z</time>
      </trkpt>
      <trkpt lat="42.46349" lon="2.68006">
        <ele>617</ele>
        <time>2023-07-13T13:35:16.000Z</time>
      </trkpt>
      <trkpt lat="42.46349" lon="2.68003">
        <ele>616.79998779297</ele>
        <time>2023-07-13T13:35:18.000Z</time>
      </trkpt>
      <trkpt lat="42.46351" lon="2.67997">
        <ele>616</ele>
        <time>2023-07-13T13:35:23.000Z</time>
      </trkpt>
      <trkpt lat="42.46352" lon="2.67995">
        <ele>615.59997558594</ele>
        <time>2023-07-13T13:35:25.000Z</time>
      </trkpt>
      <trkpt lat="42.46355" lon="2.67991">
        <ele>614.40002441406</ele>
        <time>2023-07-13T13:35:30.000Z</time>
      </trkpt>
      <trkpt lat="42.4636" lon="2.67987">
        <ele>613.20001220703</ele>
        <time>2023-07-13T13:35:35.000Z</time>
      </trkpt>
      <trkpt lat="42.46361" lon="2.67983">
        <ele>613</ele>
        <time>2023-07-13T13:35:37.000Z</time>
      </trkpt>
      <trkpt lat="42.46365" lon="2.67979">
        <ele>612.20001220703</ele>
        <time>2023-07-13T13:35:41.000Z</time>
      </trkpt>
      <trkpt lat="42.46368" lon="2.67975">
        <ele>611.20001220703</ele>
        <time>2023-07-13T13:35:46.000Z</time>
      </trkpt>
      <trkpt lat="42.46369" lon="2.67973">
        <ele>611.20001220703</ele>
        <time>2023-07-13T13:35:47.000Z</time>
      </trkpt>
      <trkpt lat="42.46372" lon="2.67966">
        <ele>610</ele>
        <time>2023-07-13T13:35:52.000Z</time>
      </trkpt>
      <trkpt lat="42.46373" lon="2.67965">
        <ele>609.79998779297</ele>
        <time>2023-07-13T13:35:54.000Z</time>
      </trkpt>
      <trkpt lat="42.46374" lon="2.67964">
        <ele>608.79998779297</ele>
        <time>2023-07-13T13:35:58.000Z</time>
      </trkpt>
      <trkpt lat="42.46373" lon="2.67959">
        <ele>608.59997558594</ele>
        <time>2023-07-13T13:36:03.000Z</time>
      </trkpt>
      <trkpt lat="42.46375" lon="2.67955">
        <ele>608.20001220703</ele>
        <time>2023-07-13T13:36:13.000Z</time>
      </trkpt>
      <trkpt lat="42.4638" lon="2.67955">
        <ele>607.20001220703</ele>
        <time>2023-07-13T13:36:24.000Z</time>
      </trkpt>
      <trkpt lat="42.46382" lon="2.67954">
        <ele>606.79998779297</ele>
        <time>2023-07-13T13:36:27.000Z</time>
      </trkpt>
      <trkpt lat="42.46387" lon="2.67956">
        <ele>606</ele>
        <time>2023-07-13T13:36:30.000Z</time>
      </trkpt>
      <trkpt lat="42.46389" lon="2.67956">
        <ele>605.40002441406</ele>
        <time>2023-07-13T13:36:32.000Z</time>
      </trkpt>
      <trkpt lat="42.46392" lon="2.67955">
        <ele>604.40002441406</ele>
        <time>2023-07-13T13:36:35.000Z</time>
      </trkpt>
      <trkpt lat="42.46396" lon="2.67954">
        <ele>603.40002441406</ele>
        <time>2023-07-13T13:36:39.000Z</time>
      </trkpt>
      <trkpt lat="42.46398" lon="2.67954">
        <ele>603</ele>
        <time>2023-07-13T13:36:40.000Z</time>
      </trkpt>
      <trkpt lat="42.46402" lon="2.67951">
        <ele>602</ele>
        <time>2023-07-13T13:36:44.000Z</time>
      </trkpt>
      <trkpt lat="42.46408" lon="2.67955">
        <ele>600.59997558594</ele>
        <time>2023-07-13T13:36:50.000Z</time>
      </trkpt>
      <trkpt lat="42.46411" lon="2.67956">
        <ele>599.79998779297</ele>
        <time>2023-07-13T13:36:53.000Z</time>
      </trkpt>
      <trkpt lat="42.46411" lon="2.67957">
        <ele>599.40002441406</ele>
        <time>2023-07-13T13:36:54.000Z</time>
      </trkpt>
      <trkpt lat="42.46413" lon="2.67958">
        <ele>598.20001220703</ele>
        <time>2023-07-13T13:36:57.000Z</time>
      </trkpt>
      <trkpt lat="42.46415" lon="2.67961">
        <ele>597.20001220703</ele>
        <time>2023-07-13T13:37:01.000Z</time>
      </trkpt>
      <trkpt lat="42.46416" lon="2.67963">
        <ele>596</ele>
        <time>2023-07-13T13:37:04.000Z</time>
      </trkpt>
      <trkpt lat="42.46418" lon="2.67968">
        <ele>594.79998779297</ele>
        <time>2023-07-13T13:37:08.000Z</time>
      </trkpt>
      <trkpt lat="42.46421" lon="2.67975">
        <ele>593.59997558594</ele>
        <time>2023-07-13T13:37:14.000Z</time>
      </trkpt>
      <trkpt lat="42.46424" lon="2.6798">
        <ele>592.59997558594</ele>
        <time>2023-07-13T13:37:18.000Z</time>
      </trkpt>
      <trkpt lat="42.46424" lon="2.67981">
        <ele>592.20001220703</ele>
        <time>2023-07-13T13:37:19.000Z</time>
      </trkpt>
      <trkpt lat="42.46427" lon="2.67985">
        <ele>591.40002441406</ele>
        <time>2023-07-13T13:37:22.000Z</time>
      </trkpt>
      <trkpt lat="42.46428" lon="2.6799">
        <ele>590.20001220703</ele>
        <time>2023-07-13T13:37:26.000Z</time>
      </trkpt>
      <trkpt lat="42.46431" lon="2.67991">
        <ele>587.40002441406</ele>
        <time>2023-07-13T13:37:39.000Z</time>
      </trkpt>
      <trkpt lat="42.46432" lon="2.6799">
        <ele>587</ele>
        <time>2023-07-13T13:37:40.000Z</time>
      </trkpt>
      <trkpt lat="42.46432" lon="2.67988">
        <ele>586.59997558594</ele>
        <time>2023-07-13T13:37:41.000Z</time>
      </trkpt>
      <trkpt lat="42.46434" lon="2.67983">
        <ele>585.79998779297</ele>
        <time>2023-07-13T13:37:47.000Z</time>
      </trkpt>
      <trkpt lat="42.46436" lon="2.67981">
        <ele>585.40002441406</ele>
        <time>2023-07-13T13:37:50.000Z</time>
      </trkpt>
      <trkpt lat="42.46437" lon="2.6798">
        <ele>584.79998779297</ele>
        <time>2023-07-13T13:37:53.000Z</time>
      </trkpt>
      <trkpt lat="42.4644" lon="2.67978">
        <ele>584.40002441406</ele>
        <time>2023-07-13T13:37:56.000Z</time>
      </trkpt>
      <trkpt lat="42.4644" lon="2.67975">
        <ele>584</ele>
        <time>2023-07-13T13:37:58.000Z</time>
      </trkpt>
      <trkpt lat="42.46442" lon="2.67969">
        <ele>583.40002441406</ele>
        <time>2023-07-13T13:38:02.000Z</time>
      </trkpt>
      <trkpt lat="42.46443" lon="2.67966">
        <ele>583</ele>
        <time>2023-07-13T13:38:04.000Z</time>
      </trkpt>
      <trkpt lat="42.46445" lon="2.67965">
        <ele>582.20001220703</ele>
        <time>2023-07-13T13:38:09.000Z</time>
      </trkpt>
      <trkpt lat="42.46446" lon="2.67963">
        <ele>581.79998779297</ele>
        <time>2023-07-13T13:38:11.000Z</time>
      </trkpt>
      <trkpt lat="42.4645" lon="2.67956">
        <ele>581</ele>
        <time>2023-07-13T13:38:17.000Z</time>
      </trkpt>
      <trkpt lat="42.46452" lon="2.67955">
        <ele>580.59997558594</ele>
        <time>2023-07-13T13:38:19.000Z</time>
      </trkpt>
      <trkpt lat="42.46455" lon="2.67953">
        <ele>580</ele>
        <time>2023-07-13T13:38:21.000Z</time>
      </trkpt>
      <trkpt lat="42.46459" lon="2.67949">
        <ele>578.79998779297</ele>
        <time>2023-07-13T13:38:26.000Z</time>
      </trkpt>
      <trkpt lat="42.4646" lon="2.67949">
        <ele>578.59997558594</ele>
        <time>2023-07-13T13:38:27.000Z</time>
      </trkpt>
      <trkpt lat="42.46461" lon="2.67949">
        <ele>577.59997558594</ele>
        <time>2023-07-13T13:38:31.000Z</time>
      </trkpt>
      <trkpt lat="42.46462" lon="2.67948">
        <ele>576.79998779297</ele>
        <time>2023-07-13T13:38:39.000Z</time>
      </trkpt>
      <trkpt lat="42.46462" lon="2.67948">
        <ele>576.79998779297</ele>
        <time>2023-07-13T13:38:41.000Z</time>
      </trkpt>
      <trkpt lat="42.46475" lon="2.67945">
        <ele>575.59997558594</ele>
        <time>2023-07-13T13:39:09.000Z</time>
      </trkpt>
      <trkpt lat="42.46477" lon="2.67946">
        <ele>575.40002441406</ele>
        <time>2023-07-13T13:39:10.000Z</time>
      </trkpt>
      <trkpt lat="42.46485" lon="2.67945">
        <ele>572.20001220703</ele>
        <time>2023-07-13T13:39:22.000Z</time>
      </trkpt>
      <trkpt lat="42.46486" lon="2.67946">
        <ele>572</ele>
        <time>2023-07-13T13:39:24.000Z</time>
      </trkpt>
      <trkpt lat="42.46487" lon="2.67947">
        <ele>571.79998779297</ele>
        <time>2023-07-13T13:39:25.000Z</time>
      </trkpt>
      <trkpt lat="42.46486" lon="2.67949">
        <ele>570.79998779297</ele>
        <time>2023-07-13T13:39:31.000Z</time>
      </trkpt>
      <trkpt lat="42.46486" lon="2.6795">
        <ele>570.40002441406</ele>
        <time>2023-07-13T13:39:33.000Z</time>
      </trkpt>
      <trkpt lat="42.46483" lon="2.67954">
        <ele>569.79998779297</ele>
        <time>2023-07-13T13:39:37.000Z</time>
      </trkpt>
      <trkpt lat="42.46482" lon="2.67957">
        <ele>568.79998779297</ele>
        <time>2023-07-13T13:39:41.000Z</time>
      </trkpt>
      <trkpt lat="42.46482" lon="2.67958">
        <ele>568.59997558594</ele>
        <time>2023-07-13T13:39:42.000Z</time>
      </trkpt>
      <trkpt lat="42.46482" lon="2.67958">
        <ele>568.59997558594</ele>
        <time>2023-07-13T13:39:43.000Z</time>
      </trkpt>
      <trkpt lat="42.46482" lon="2.67957">
        <ele>567.79998779297</ele>
        <time>2023-07-13T13:39:46.000Z</time>
      </trkpt>
      <trkpt lat="42.46482" lon="2.67956">
        <ele>567.40002441406</ele>
        <time>2023-07-13T13:39:48.000Z</time>
      </trkpt>
      <trkpt lat="42.46483" lon="2.67956">
        <ele>567.20001220703</ele>
        <time>2023-07-13T13:39:49.000Z</time>
      </trkpt>
      <trkpt lat="42.46485" lon="2.67955">
        <ele>566.40002441406</ele>
        <time>2023-07-13T13:39:53.000Z</time>
      </trkpt>
      <trkpt lat="42.46486" lon="2.67955">
        <ele>566</ele>
        <time>2023-07-13T13:39:54.000Z</time>
      </trkpt>
      <trkpt lat="42.46488" lon="2.67955">
        <ele>565.59997558594</ele>
        <time>2023-07-13T13:39:56.000Z</time>
      </trkpt>
      <trkpt lat="42.46488" lon="2.67955">
        <ele>565.20001220703</ele>
        <time>2023-07-13T13:39:58.000Z</time>
      </trkpt>
      <trkpt lat="42.46504" lon="2.67952">
        <ele>563</ele>
        <time>2023-07-13T13:40:10.000Z</time>
      </trkpt>
      <trkpt lat="42.46508" lon="2.67949">
        <ele>562.59997558594</ele>
        <time>2023-07-13T13:40:13.000Z</time>
      </trkpt>
      <trkpt lat="42.46512" lon="2.67947">
        <ele>562</ele>
        <time>2023-07-13T13:40:17.000Z</time>
      </trkpt>
      <trkpt lat="42.46514" lon="2.67944">
        <ele>561.40002441406</ele>
        <time>2023-07-13T13:40:21.000Z</time>
      </trkpt>
      <trkpt lat="42.46517" lon="2.67942">
        <ele>560.79998779297</ele>
        <time>2023-07-13T13:40:26.000Z</time>
      </trkpt>
      <trkpt lat="42.46518" lon="2.67941">
        <ele>560.40002441406</ele>
        <time>2023-07-13T13:40:28.000Z</time>
      </trkpt>
      <trkpt lat="42.46523" lon="2.67937">
        <ele>559.79998779297</ele>
        <time>2023-07-13T13:40:32.000Z</time>
      </trkpt>
      <trkpt lat="42.46529" lon="2.67935">
        <ele>558.79998779297</ele>
        <time>2023-07-13T13:40:37.000Z</time>
      </trkpt>
      <trkpt lat="42.4653" lon="2.67935">
        <ele>558.59997558594</ele>
        <time>2023-07-13T13:40:39.000Z</time>
      </trkpt>
      <trkpt lat="42.46533" lon="2.67934">
        <ele>557.59997558594</ele>
        <time>2023-07-13T13:40:43.000Z</time>
      </trkpt>
      <trkpt lat="42.46534" lon="2.67934">
        <ele>557.40002441406</ele>
        <time>2023-07-13T13:40:44.000Z</time>
      </trkpt>
      <trkpt lat="42.46537" lon="2.67931">
        <ele>556.59997558594</ele>
        <time>2023-07-13T13:40:49.000Z</time>
      </trkpt>
      <trkpt lat="42.46539" lon="2.6793">
        <ele>556.40002441406</ele>
        <time>2023-07-13T13:40:50.000Z</time>
      </trkpt>
      <trkpt lat="42.46541" lon="2.67926">
        <ele>555.79998779297</ele>
        <time>2023-07-13T13:40:53.000Z</time>
      </trkpt>
      <trkpt lat="42.46545" lon="2.67922">
        <ele>555.20001220703</ele>
        <time>2023-07-13T13:40:56.000Z</time>
      </trkpt>
      <trkpt lat="42.4655" lon="2.67915">
        <ele>554.20001220703</ele>
        <time>2023-07-13T13:41:03.000Z</time>
      </trkpt>
      <trkpt lat="42.46554" lon="2.67907">
        <ele>553</ele>
        <time>2023-07-13T13:41:09.000Z</time>
      </trkpt>
      <trkpt lat="42.46555" lon="2.67905">
        <ele>552.59997558594</ele>
        <time>2023-07-13T13:41:11.000Z</time>
      </trkpt>
      <trkpt lat="42.46558" lon="2.67899">
        <ele>552</ele>
        <time>2023-07-13T13:41:15.000Z</time>
      </trkpt>
      <trkpt lat="42.46559" lon="2.67894">
        <ele>551.59997558594</ele>
        <time>2023-07-13T13:41:20.000Z</time>
      </trkpt>
      <trkpt lat="42.46558" lon="2.67888">
        <ele>551</ele>
        <time>2023-07-13T13:41:24.000Z</time>
      </trkpt>
      <trkpt lat="42.46557" lon="2.67884">
        <ele>550.59997558594</ele>
        <time>2023-07-13T13:41:27.000Z</time>
      </trkpt>
      <trkpt lat="42.46554" lon="2.67877">
        <ele>550</ele>
        <time>2023-07-13T13:41:32.000Z</time>
      </trkpt>
      <trkpt lat="42.46556" lon="2.6787">
        <ele>549</ele>
        <time>2023-07-13T13:41:36.000Z</time>
      </trkpt>
      <trkpt lat="42.46556" lon="2.67869">
        <ele>549</ele>
        <time>2023-07-13T13:41:37.000Z</time>
      </trkpt>
      <trkpt lat="42.46558" lon="2.67866">
        <ele>548</ele>
        <time>2023-07-13T13:41:42.000Z</time>
      </trkpt>
      <trkpt lat="42.46559" lon="2.67867">
        <ele>547.79998779297</ele>
        <time>2023-07-13T13:41:43.000Z</time>
      </trkpt>
      <trkpt lat="42.46563" lon="2.67865">
        <ele>546.59997558594</ele>
        <time>2023-07-13T13:41:49.000Z</time>
      </trkpt>
      <trkpt lat="42.46564" lon="2.67864">
        <ele>546.59997558594</ele>
        <time>2023-07-13T13:41:50.000Z</time>
      </trkpt>
      <trkpt lat="42.46565" lon="2.6786">
        <ele>545.59997558594</ele>
        <time>2023-07-13T13:41:55.000Z</time>
      </trkpt>
      <trkpt lat="42.46565" lon="2.67859">
        <ele>545.59997558594</ele>
        <time>2023-07-13T13:41:56.000Z</time>
      </trkpt>
      <trkpt lat="42.46568" lon="2.67854">
        <ele>544.40002441406</ele>
        <time>2023-07-13T13:42:02.000Z</time>
      </trkpt>
      <trkpt lat="42.46568" lon="2.67852">
        <ele>543.79998779297</ele>
        <time>2023-07-13T13:42:05.000Z</time>
      </trkpt>
      <trkpt lat="42.46569" lon="2.6785">
        <ele>543.40002441406</ele>
        <time>2023-07-13T13:42:07.000Z</time>
      </trkpt>
      <trkpt lat="42.4657" lon="2.67846">
        <ele>542.20001220703</ele>
        <time>2023-07-13T13:42:12.000Z</time>
      </trkpt>
      <trkpt lat="42.4657" lon="2.67846">
        <ele>542.20001220703</ele>
        <time>2023-07-13T13:42:13.000Z</time>
      </trkpt>
      <trkpt lat="42.46575" lon="2.67846">
        <ele>541.40002441406</ele>
        <time>2023-07-13T13:42:20.000Z</time>
      </trkpt>
      <trkpt lat="42.46576" lon="2.67846">
        <ele>541.20001220703</ele>
        <time>2023-07-13T13:42:21.000Z</time>
      </trkpt>
      <trkpt lat="42.46581" lon="2.67846">
        <ele>540</ele>
        <time>2023-07-13T13:42:27.000Z</time>
      </trkpt>
      <trkpt lat="42.46583" lon="2.67845">
        <ele>539.59997558594</ele>
        <time>2023-07-13T13:42:29.000Z</time>
      </trkpt>
      <trkpt lat="42.46586" lon="2.67841">
        <ele>539</ele>
        <time>2023-07-13T13:42:33.000Z</time>
      </trkpt>
      <trkpt lat="42.46585" lon="2.67839">
        <ele>538.59997558594</ele>
        <time>2023-07-13T13:42:35.000Z</time>
      </trkpt>
      <trkpt lat="42.46584" lon="2.67833">
        <ele>538.20001220703</ele>
        <time>2023-07-13T13:42:40.000Z</time>
      </trkpt>
      <trkpt lat="42.46584" lon="2.67833">
        <ele>538.20001220703</ele>
        <time>2023-07-13T13:42:42.000Z</time>
      </trkpt>
      <trkpt lat="42.46584" lon="2.67833">
        <ele>538.20001220703</ele>
        <time>2023-07-13T13:42:43.000Z</time>
      </trkpt>
      <trkpt lat="42.4658" lon="2.67828">
        <ele>538.20001220703</ele>
        <time>2023-07-13T13:42:48.000Z</time>
      </trkpt>
      <trkpt lat="42.4658" lon="2.67822">
        <ele>537.79998779297</ele>
        <time>2023-07-13T13:42:53.000Z</time>
      </trkpt>
      <trkpt lat="42.46584" lon="2.67818">
        <ele>537</ele>
        <time>2023-07-13T13:42:59.000Z</time>
      </trkpt>
      <trkpt lat="42.46585" lon="2.67817">
        <ele>536.79998779297</ele>
        <time>2023-07-13T13:43:00.000Z</time>
      </trkpt>
      <trkpt lat="42.46586" lon="2.6781">
        <ele>536.40002441406</ele>
        <time>2023-07-13T13:43:05.000Z</time>
      </trkpt>
      <trkpt lat="42.46587" lon="2.67806">
        <ele>535.40002441406</ele>
        <time>2023-07-13T13:43:09.000Z</time>
      </trkpt>
      <trkpt lat="42.46591" lon="2.67804">
        <ele>534.59997558594</ele>
        <time>2023-07-13T13:43:13.000Z</time>
      </trkpt>
      <trkpt lat="42.46591" lon="2.67803">
        <ele>534.40002441406</ele>
        <time>2023-07-13T13:43:14.000Z</time>
      </trkpt>
      <trkpt lat="42.46596" lon="2.67803">
        <ele>533.79998779297</ele>
        <time>2023-07-13T13:43:18.000Z</time>
      </trkpt>
      <trkpt lat="42.46597" lon="2.67802">
        <ele>533.79998779297</ele>
        <time>2023-07-13T13:43:19.000Z</time>
      </trkpt>
      <trkpt lat="42.466" lon="2.67801">
        <ele>533.40002441406</ele>
        <time>2023-07-13T13:43:21.000Z</time>
      </trkpt>
      <trkpt lat="42.46603" lon="2.67799">
        <ele>532.59997558594</ele>
        <time>2023-07-13T13:43:25.000Z</time>
      </trkpt>
      <trkpt lat="42.46604" lon="2.67799">
        <ele>532.40002441406</ele>
        <time>2023-07-13T13:43:27.000Z</time>
      </trkpt>
      <trkpt lat="42.46606" lon="2.67795">
        <ele>531.20001220703</ele>
        <time>2023-07-13T13:43:32.000Z</time>
      </trkpt>
      <trkpt lat="42.46608" lon="2.67792">
        <ele>530.20001220703</ele>
        <time>2023-07-13T13:43:37.000Z</time>
      </trkpt>
      <trkpt lat="42.46609" lon="2.67792">
        <ele>530</ele>
        <time>2023-07-13T13:43:39.000Z</time>
      </trkpt>
      <trkpt lat="42.46614" lon="2.67789">
        <ele>529</ele>
        <time>2023-07-13T13:43:44.000Z</time>
      </trkpt>
      <trkpt lat="42.46623" lon="2.67781">
        <ele>528</ele>
        <time>2023-07-13T13:43:52.000Z</time>
      </trkpt>
      <trkpt lat="42.46624" lon="2.67781">
        <ele>527.79998779297</ele>
        <time>2023-07-13T13:43:53.000Z</time>
      </trkpt>
      <trkpt lat="42.46633" lon="2.67775">
        <ele>527.40002441406</ele>
        <time>2023-07-13T13:44:00.000Z</time>
      </trkpt>
      <trkpt lat="42.46639" lon="2.67771">
        <ele>527</ele>
        <time>2023-07-13T13:44:05.000Z</time>
      </trkpt>
      <trkpt lat="42.46643" lon="2.67769">
        <ele>526.79998779297</ele>
        <time>2023-07-13T13:44:08.000Z</time>
      </trkpt>
      <trkpt lat="42.46656" lon="2.67762">
        <ele>526</ele>
        <time>2023-07-13T13:44:17.000Z</time>
      </trkpt>
      <trkpt lat="42.46658" lon="2.6776">
        <ele>525.79998779297</ele>
        <time>2023-07-13T13:44:18.000Z</time>
      </trkpt>
      <trkpt lat="42.46663" lon="2.67753">
        <ele>525.20001220703</ele>
        <time>2023-07-13T13:44:25.000Z</time>
      </trkpt>
      <trkpt lat="42.46665" lon="2.67751">
        <ele>524.79998779297</ele>
        <time>2023-07-13T13:44:27.000Z</time>
      </trkpt>
      <trkpt lat="42.46669" lon="2.67748">
        <ele>524</ele>
        <time>2023-07-13T13:44:31.000Z</time>
      </trkpt>
      <trkpt lat="42.46671" lon="2.67747">
        <ele>523.59997558594</ele>
        <time>2023-07-13T13:44:33.000Z</time>
      </trkpt>
      <trkpt lat="42.46675" lon="2.67741">
        <ele>522.59997558594</ele>
        <time>2023-07-13T13:44:38.000Z</time>
      </trkpt>
      <trkpt lat="42.46676" lon="2.6774">
        <ele>522.40002441406</ele>
        <time>2023-07-13T13:44:39.000Z</time>
      </trkpt>
      <trkpt lat="42.46683" lon="2.67727">
        <ele>521.20001220703</ele>
        <time>2023-07-13T13:44:49.000Z</time>
      </trkpt>
      <trkpt lat="42.46688" lon="2.6772">
        <ele>520.40002441406</ele>
        <time>2023-07-13T13:44:56.000Z</time>
      </trkpt>
      <trkpt lat="42.46692" lon="2.67716">
        <ele>519.79998779297</ele>
        <time>2023-07-13T13:45:01.000Z</time>
      </trkpt>
      <trkpt lat="42.46697" lon="2.67708">
        <ele>519.40002441406</ele>
        <time>2023-07-13T13:45:07.000Z</time>
      </trkpt>
      <trkpt lat="42.46703" lon="2.67705">
        <ele>518.40002441406</ele>
        <time>2023-07-13T13:45:14.000Z</time>
      </trkpt>
      <trkpt lat="42.46705" lon="2.67705">
        <ele>518.20001220703</ele>
        <time>2023-07-13T13:45:15.000Z</time>
      </trkpt>
      <trkpt lat="42.46714" lon="2.67698">
        <ele>516.20001220703</ele>
        <time>2023-07-13T13:45:25.000Z</time>
      </trkpt>
      <trkpt lat="42.46714" lon="2.67691">
        <ele>514.20001220703</ele>
        <time>2023-07-13T13:45:33.000Z</time>
      </trkpt>
      <trkpt lat="42.46718" lon="2.6767">
        <ele>511.79998779297</ele>
        <time>2023-07-13T13:45:49.000Z</time>
      </trkpt>
      <trkpt lat="42.4672" lon="2.67667">
        <ele>510.79998779297</ele>
        <time>2023-07-13T13:45:54.000Z</time>
      </trkpt>
      <trkpt lat="42.46723" lon="2.67664">
        <ele>510.20001220703</ele>
        <time>2023-07-13T13:45:57.000Z</time>
      </trkpt>
      <trkpt lat="42.46724" lon="2.67663">
        <ele>509.60000610352</ele>
        <time>2023-07-13T13:46:00.000Z</time>
      </trkpt>
      <trkpt lat="42.46725" lon="2.67658">
        <ele>509</ele>
        <time>2023-07-13T13:46:03.000Z</time>
      </trkpt>
      <trkpt lat="42.46725" lon="2.67653">
        <ele>508.39999389648</ele>
        <time>2023-07-13T13:46:06.000Z</time>
      </trkpt>
      <trkpt lat="42.46726" lon="2.67639">
        <ele>507.20001220703</ele>
        <time>2023-07-13T13:46:11.000Z</time>
      </trkpt>
      <trkpt lat="42.46725" lon="2.67636">
        <ele>506.60000610352</ele>
        <time>2023-07-13T13:46:13.000Z</time>
      </trkpt>
      <trkpt lat="42.46724" lon="2.67633">
        <ele>506.20001220703</ele>
        <time>2023-07-13T13:46:16.000Z</time>
      </trkpt>
      <trkpt lat="42.46724" lon="2.67632">
        <ele>505.60000610352</ele>
        <time>2023-07-13T13:46:19.000Z</time>
      </trkpt>
      <trkpt lat="42.46722" lon="2.67631">
        <ele>505</ele>
        <time>2023-07-13T13:46:22.000Z</time>
      </trkpt>
      <trkpt lat="42.4672" lon="2.67623">
        <ele>503.79998779297</ele>
        <time>2023-07-13T13:46:27.000Z</time>
      </trkpt>
      <trkpt lat="42.46719" lon="2.67623">
        <ele>503.60000610352</ele>
        <time>2023-07-13T13:46:28.000Z</time>
      </trkpt>
      <trkpt lat="42.46719" lon="2.67619">
        <ele>502.79998779297</ele>
        <time>2023-07-13T13:46:33.000Z</time>
      </trkpt>
      <trkpt lat="42.46718" lon="2.67615">
        <ele>502.20001220703</ele>
        <time>2023-07-13T13:46:36.000Z</time>
      </trkpt>
      <trkpt lat="42.46717" lon="2.67612">
        <ele>501.39999389648</ele>
        <time>2023-07-13T13:46:39.000Z</time>
      </trkpt>
      <trkpt lat="42.46716" lon="2.67611">
        <ele>501.20001220703</ele>
        <time>2023-07-13T13:46:41.000Z</time>
      </trkpt>
      <trkpt lat="42.46717" lon="2.67607">
        <ele>500.39999389648</ele>
        <time>2023-07-13T13:46:46.000Z</time>
      </trkpt>
      <trkpt lat="42.46718" lon="2.67605">
        <ele>500</ele>
        <time>2023-07-13T13:46:48.000Z</time>
      </trkpt>
      <trkpt lat="42.46718" lon="2.67601">
        <ele>499.39999389648</ele>
        <time>2023-07-13T13:46:51.000Z</time>
      </trkpt>
      <trkpt lat="42.46717" lon="2.67597">
        <ele>498.60000610352</ele>
        <time>2023-07-13T13:46:55.000Z</time>
      </trkpt>
      <trkpt lat="42.46717" lon="2.67595">
        <ele>498.20001220703</ele>
        <time>2023-07-13T13:46:56.000Z</time>
      </trkpt>
      <trkpt lat="42.46718" lon="2.67589">
        <ele>497.39999389648</ele>
        <time>2023-07-13T13:47:02.000Z</time>
      </trkpt>
      <trkpt lat="42.46718" lon="2.67588">
        <ele>497.20001220703</ele>
        <time>2023-07-13T13:47:03.000Z</time>
      </trkpt>
      <trkpt lat="42.46715" lon="2.67583">
        <ele>496</ele>
        <time>2023-07-13T13:47:10.000Z</time>
      </trkpt>
      <trkpt lat="42.46714" lon="2.67583">
        <ele>495.79998779297</ele>
        <time>2023-07-13T13:47:11.000Z</time>
      </trkpt>
      <trkpt lat="42.46712" lon="2.67582">
        <ele>494.79998779297</ele>
        <time>2023-07-13T13:47:15.000Z</time>
      </trkpt>
      <trkpt lat="42.4671" lon="2.67582">
        <ele>494.20001220703</ele>
        <time>2023-07-13T13:47:18.000Z</time>
      </trkpt>
      <trkpt lat="42.46705" lon="2.6758">
        <ele>493.60000610352</ele>
        <time>2023-07-13T13:47:21.000Z</time>
      </trkpt>
      <trkpt lat="42.46702" lon="2.6758">
        <ele>493.39999389648</ele>
        <time>2023-07-13T13:47:23.000Z</time>
      </trkpt>
      <trkpt lat="42.46698" lon="2.6758">
        <ele>492.60000610352</ele>
        <time>2023-07-13T13:47:27.000Z</time>
      </trkpt>
      <trkpt lat="42.46696" lon="2.67578">
        <ele>492.20001220703</ele>
        <time>2023-07-13T13:47:29.000Z</time>
      </trkpt>
      <trkpt lat="42.46696" lon="2.67578">
        <ele>492.20001220703</ele>
        <time>2023-07-13T13:47:30.000Z</time>
      </trkpt>
      <trkpt lat="42.46696" lon="2.67575">
        <ele>491.39999389648</ele>
        <time>2023-07-13T13:47:34.000Z</time>
      </trkpt>
      <trkpt lat="42.467" lon="2.67571">
        <ele>490.60000610352</ele>
        <time>2023-07-13T13:47:39.000Z</time>
      </trkpt>
      <trkpt lat="42.46701" lon="2.6757">
        <ele>490.39999389648</ele>
        <time>2023-07-13T13:47:40.000Z</time>
      </trkpt>
      <trkpt lat="42.46705" lon="2.67566">
        <ele>489.60000610352</ele>
        <time>2023-07-13T13:47:46.000Z</time>
      </trkpt>
      <trkpt lat="42.46706" lon="2.67564">
        <ele>489.39999389648</ele>
        <time>2023-07-13T13:47:48.000Z</time>
      </trkpt>
      <trkpt lat="42.46712" lon="2.6756">
        <ele>488.79998779297</ele>
        <time>2023-07-13T13:47:54.000Z</time>
      </trkpt>
      <trkpt lat="42.46717" lon="2.67562">
        <ele>488.39999389648</ele>
        <time>2023-07-13T13:47:58.000Z</time>
      </trkpt>
      <trkpt lat="42.46722" lon="2.67565">
        <ele>487.39999389648</ele>
        <time>2023-07-13T13:48:03.000Z</time>
      </trkpt>
      <trkpt lat="42.46725" lon="2.67567">
        <ele>486.60000610352</ele>
        <time>2023-07-13T13:48:07.000Z</time>
      </trkpt>
      <trkpt lat="42.46727" lon="2.67568">
        <ele>486.20001220703</ele>
        <time>2023-07-13T13:48:09.000Z</time>
      </trkpt>
      <trkpt lat="42.4673" lon="2.67569">
        <ele>485</ele>
        <time>2023-07-13T13:48:14.000Z</time>
      </trkpt>
      <trkpt lat="42.46731" lon="2.67569">
        <ele>484</ele>
        <time>2023-07-13T13:48:18.000Z</time>
      </trkpt>
      <trkpt lat="42.46732" lon="2.67569">
        <ele>483.79998779297</ele>
        <time>2023-07-13T13:48:19.000Z</time>
      </trkpt>
      <trkpt lat="42.46734" lon="2.67566">
        <ele>482.60000610352</ele>
        <time>2023-07-13T13:48:25.000Z</time>
      </trkpt>
      <trkpt lat="42.46734" lon="2.67565">
        <ele>482.60000610352</ele>
        <time>2023-07-13T13:48:26.000Z</time>
      </trkpt>
      <trkpt lat="42.46737" lon="2.67558">
        <ele>481.60000610352</ele>
        <time>2023-07-13T13:48:32.000Z</time>
      </trkpt>
      <trkpt lat="42.46736" lon="2.67554">
        <ele>481.20001220703</ele>
        <time>2023-07-13T13:48:35.000Z</time>
      </trkpt>
      <trkpt lat="42.46735" lon="2.6755">
        <ele>480.60000610352</ele>
        <time>2023-07-13T13:48:39.000Z</time>
      </trkpt>
      <trkpt lat="42.46735" lon="2.67548">
        <ele>480.20001220703</ele>
        <time>2023-07-13T13:48:41.000Z</time>
      </trkpt>
      <trkpt lat="42.46735" lon="2.67546">
        <ele>479.39999389648</ele>
        <time>2023-07-13T13:48:45.000Z</time>
      </trkpt>
      <trkpt lat="42.46733" lon="2.6754">
        <ele>478.39999389648</ele>
        <time>2023-07-13T13:48:51.000Z</time>
      </trkpt>
      <trkpt lat="42.46735" lon="2.67535">
        <ele>477.20001220703</ele>
        <time>2023-07-13T13:48:56.000Z</time>
      </trkpt>
      <trkpt lat="42.46733" lon="2.67533">
        <ele>476.79998779297</ele>
        <time>2023-07-13T13:48:58.000Z</time>
      </trkpt>
      <trkpt lat="42.46733" lon="2.67532">
        <ele>476.60000610352</ele>
        <time>2023-07-13T13:48:59.000Z</time>
      </trkpt>
      <trkpt lat="42.46735" lon="2.6753">
        <ele>476</ele>
        <time>2023-07-13T13:49:02.000Z</time>
      </trkpt>
      <trkpt lat="42.46738" lon="2.67529">
        <ele>475.20001220703</ele>
        <time>2023-07-13T13:49:06.000Z</time>
      </trkpt>
      <trkpt lat="42.46737" lon="2.67529">
        <ele>475</ele>
        <time>2023-07-13T13:49:07.000Z</time>
      </trkpt>
      <trkpt lat="42.46735" lon="2.67526">
        <ele>474.39999389648</ele>
        <time>2023-07-13T13:49:10.000Z</time>
      </trkpt>
      <trkpt lat="42.46735" lon="2.67525">
        <ele>473.79998779297</ele>
        <time>2023-07-13T13:49:13.000Z</time>
      </trkpt>
      <trkpt lat="42.46737" lon="2.67515">
        <ele>471.79998779297</ele>
        <time>2023-07-13T13:49:23.000Z</time>
      </trkpt>
      <trkpt lat="42.46738" lon="2.67513">
        <ele>471.39999389648</ele>
        <time>2023-07-13T13:49:24.000Z</time>
      </trkpt>
      <trkpt lat="42.46741" lon="2.67511">
        <ele>470.60000610352</ele>
        <time>2023-07-13T13:49:28.000Z</time>
      </trkpt>
      <trkpt lat="42.4674" lon="2.67508">
        <ele>470</ele>
        <time>2023-07-13T13:49:30.000Z</time>
      </trkpt>
      <trkpt lat="42.46741" lon="2.67505">
        <ele>469.39999389648</ele>
        <time>2023-07-13T13:49:33.000Z</time>
      </trkpt>
      <trkpt lat="42.4674" lon="2.675">
        <ele>468.60000610352</ele>
        <time>2023-07-13T13:49:37.000Z</time>
      </trkpt>
      <trkpt lat="42.46741" lon="2.67498">
        <ele>468.39999389648</ele>
        <time>2023-07-13T13:49:39.000Z</time>
      </trkpt>
      <trkpt lat="42.46743" lon="2.67492">
        <ele>467.39999389648</ele>
        <time>2023-07-13T13:49:44.000Z</time>
      </trkpt>
      <trkpt lat="42.46744" lon="2.67491">
        <ele>467.20001220703</ele>
        <time>2023-07-13T13:49:45.000Z</time>
      </trkpt>
      <trkpt lat="42.46748" lon="2.67483">
        <ele>466.20001220703</ele>
        <time>2023-07-13T13:49:50.000Z</time>
      </trkpt>
      <trkpt lat="42.4675" lon="2.6748">
        <ele>465.60000610352</ele>
        <time>2023-07-13T13:49:53.000Z</time>
      </trkpt>
      <trkpt lat="42.46749" lon="2.67477">
        <ele>465.20001220703</ele>
        <time>2023-07-13T13:49:56.000Z</time>
      </trkpt>
      <trkpt lat="42.4675" lon="2.67474">
        <ele>464.60000610352</ele>
        <time>2023-07-13T13:49:59.000Z</time>
      </trkpt>
      <trkpt lat="42.46751" lon="2.67472">
        <ele>464</ele>
        <time>2023-07-13T13:50:01.000Z</time>
      </trkpt>
      <trkpt lat="42.46751" lon="2.67471">
        <ele>463.39999389648</ele>
        <time>2023-07-13T13:50:04.000Z</time>
      </trkpt>
      <trkpt lat="42.46754" lon="2.67469">
        <ele>463</ele>
        <time>2023-07-13T13:50:07.000Z</time>
      </trkpt>
      <trkpt lat="42.46756" lon="2.67464">
        <ele>462</ele>
        <time>2023-07-13T13:50:12.000Z</time>
      </trkpt>
      <trkpt lat="42.46756" lon="2.67459">
        <ele>460.79998779297</ele>
        <time>2023-07-13T13:50:17.000Z</time>
      </trkpt>
      <trkpt lat="42.46756" lon="2.67458">
        <ele>460.60000610352</ele>
        <time>2023-07-13T13:50:18.000Z</time>
      </trkpt>
      <trkpt lat="42.46758" lon="2.67454">
        <ele>459.79998779297</ele>
        <time>2023-07-13T13:50:21.000Z</time>
      </trkpt>
      <trkpt lat="42.46759" lon="2.6745">
        <ele>459.20001220703</ele>
        <time>2023-07-13T13:50:24.000Z</time>
      </trkpt>
      <trkpt lat="42.4676" lon="2.67447">
        <ele>458.79998779297</ele>
        <time>2023-07-13T13:50:26.000Z</time>
      </trkpt>
      <trkpt lat="42.46762" lon="2.67442">
        <ele>457.79998779297</ele>
        <time>2023-07-13T13:50:31.000Z</time>
      </trkpt>
      <trkpt lat="42.46765" lon="2.67434">
        <ele>456.60000610352</ele>
        <time>2023-07-13T13:50:37.000Z</time>
      </trkpt>
      <trkpt lat="42.46766" lon="2.67432">
        <ele>456.20001220703</ele>
        <time>2023-07-13T13:50:39.000Z</time>
      </trkpt>
      <trkpt lat="42.4677" lon="2.67431">
        <ele>455.39999389648</ele>
        <time>2023-07-13T13:50:42.000Z</time>
      </trkpt>
      <trkpt lat="42.46773" lon="2.67426">
        <ele>454.20001220703</ele>
        <time>2023-07-13T13:50:49.000Z</time>
      </trkpt>
      <trkpt lat="42.46773" lon="2.67421">
        <ele>453.39999389648</ele>
        <time>2023-07-13T13:50:52.000Z</time>
      </trkpt>
      <trkpt lat="42.46772" lon="2.67414">
        <ele>453</ele>
        <time>2023-07-13T13:50:55.000Z</time>
      </trkpt>
      <trkpt lat="42.46774" lon="2.6741">
        <ele>452.39999389648</ele>
        <time>2023-07-13T13:50:58.000Z</time>
      </trkpt>
      <trkpt lat="42.46775" lon="2.67407">
        <ele>451.79998779297</ele>
        <time>2023-07-13T13:51:01.000Z</time>
      </trkpt>
      <trkpt lat="42.46772" lon="2.67402">
        <ele>451.39999389648</ele>
        <time>2023-07-13T13:51:04.000Z</time>
      </trkpt>
      <trkpt lat="42.46773" lon="2.67399">
        <ele>451.20001220703</ele>
        <time>2023-07-13T13:51:05.000Z</time>
      </trkpt>
      <trkpt lat="42.46768" lon="2.67389">
        <ele>450.79998779297</ele>
        <time>2023-07-13T13:51:11.000Z</time>
      </trkpt>
      <trkpt lat="42.46768" lon="2.67386">
        <ele>450.79998779297</ele>
        <time>2023-07-13T13:51:12.000Z</time>
      </trkpt>
      <trkpt lat="42.46765" lon="2.67378">
        <ele>449.79998779297</ele>
        <time>2023-07-13T13:51:19.000Z</time>
      </trkpt>
      <trkpt lat="42.46762" lon="2.67373">
        <ele>449</ele>
        <time>2023-07-13T13:51:24.000Z</time>
      </trkpt>
      <trkpt lat="42.46762" lon="2.67373">
        <ele>448.79998779297</ele>
        <time>2023-07-13T13:51:25.000Z</time>
      </trkpt>
      <trkpt lat="42.46759" lon="2.67368">
        <ele>447.60000610352</ele>
        <time>2023-07-13T13:51:31.000Z</time>
      </trkpt>
      <trkpt lat="42.46759" lon="2.67367">
        <ele>447.60000610352</ele>
        <time>2023-07-13T13:51:32.000Z</time>
      </trkpt>
      <trkpt lat="42.46758" lon="2.67362">
        <ele>446.60000610352</ele>
        <time>2023-07-13T13:51:37.000Z</time>
      </trkpt>
      <trkpt lat="42.46758" lon="2.67361">
        <ele>446.20001220703</ele>
        <time>2023-07-13T13:51:40.000Z</time>
      </trkpt>
      <trkpt lat="42.46759" lon="2.67359">
        <ele>445.60000610352</ele>
        <time>2023-07-13T13:51:43.000Z</time>
      </trkpt>
      <trkpt lat="42.46762" lon="2.67357">
        <ele>445</ele>
        <time>2023-07-13T13:51:48.000Z</time>
      </trkpt>
      <trkpt lat="42.46762" lon="2.67356">
        <ele>444.39999389648</ele>
        <time>2023-07-13T13:51:51.000Z</time>
      </trkpt>
      <trkpt lat="42.46762" lon="2.67356">
        <ele>443.79998779297</ele>
        <time>2023-07-13T13:51:56.000Z</time>
      </trkpt>
      <trkpt lat="42.46765" lon="2.67356">
        <ele>443.39999389648</ele>
        <time>2023-07-13T13:52:01.000Z</time>
      </trkpt>
      <trkpt lat="42.46765" lon="2.67356">
        <ele>443.20001220703</ele>
        <time>2023-07-13T13:52:02.000Z</time>
      </trkpt>
      <trkpt lat="42.46769" lon="2.67359">
        <ele>442.20001220703</ele>
        <time>2023-07-13T13:52:07.000Z</time>
      </trkpt>
      <trkpt lat="42.46773" lon="2.6736">
        <ele>441.39999389648</ele>
        <time>2023-07-13T13:52:11.000Z</time>
      </trkpt>
      <trkpt lat="42.46774" lon="2.67361">
        <ele>441.20001220703</ele>
        <time>2023-07-13T13:52:12.000Z</time>
      </trkpt>
      <trkpt lat="42.46777" lon="2.67363">
        <ele>440</ele>
        <time>2023-07-13T13:52:18.000Z</time>
      </trkpt>
      <trkpt lat="42.46778" lon="2.67362">
        <ele>439.79998779297</ele>
        <time>2023-07-13T13:52:32.000Z</time>
      </trkpt>
      <trkpt lat="42.46785" lon="2.67366">
        <ele>439.39999389648</ele>
        <time>2023-07-13T13:52:40.000Z</time>
      </trkpt>
      <trkpt lat="42.46787" lon="2.67367">
        <ele>439</ele>
        <time>2023-07-13T13:52:42.000Z</time>
      </trkpt>
      <trkpt lat="42.46794" lon="2.67369">
        <ele>438.39999389648</ele>
        <time>2023-07-13T13:52:48.000Z</time>
      </trkpt>
      <trkpt lat="42.46797" lon="2.67369">
        <ele>437.79998779297</ele>
        <time>2023-07-13T13:52:50.000Z</time>
      </trkpt>
      <trkpt lat="42.468" lon="2.67369">
        <ele>437.39999389648</ele>
        <time>2023-07-13T13:52:53.000Z</time>
      </trkpt>
      <trkpt lat="42.468" lon="2.67368">
        <ele>437.20001220703</ele>
        <time>2023-07-13T13:53:01.000Z</time>
      </trkpt>
      <trkpt lat="42.46798" lon="2.67366">
        <ele>437.20001220703</ele>
        <time>2023-07-13T13:53:10.000Z</time>
      </trkpt>
      <trkpt lat="42.46798" lon="2.67364">
        <ele>437.20001220703</ele>
        <time>2023-07-13T13:53:21.000Z</time>
      </trkpt>
      <trkpt lat="42.46796" lon="2.67364">
        <ele>437</ele>
        <time>2023-07-13T13:53:30.000Z</time>
      </trkpt>
      <trkpt lat="42.46795" lon="2.67367">
        <ele>437</ele>
        <time>2023-07-13T13:53:37.000Z</time>
      </trkpt>
      <trkpt lat="42.46797" lon="2.67373">
        <ele>436.79998779297</ele>
        <time>2023-07-13T13:53:41.000Z</time>
      </trkpt>
      <trkpt lat="42.46797" lon="2.67374">
        <ele>436.79998779297</ele>
        <time>2023-07-13T13:53:43.000Z</time>
      </trkpt>
      <trkpt lat="42.46795" lon="2.67379">
        <ele>436.20001220703</ele>
        <time>2023-07-13T13:53:50.000Z</time>
      </trkpt>
      <trkpt lat="42.46795" lon="2.6738">
        <ele>435.79998779297</ele>
        <time>2023-07-13T13:53:52.000Z</time>
      </trkpt>
      <trkpt lat="42.46795" lon="2.67382">
        <ele>434.60000610352</ele>
        <time>2023-07-13T13:53:58.000Z</time>
      </trkpt>
      <trkpt lat="42.46794" lon="2.67383">
        <ele>434.39999389648</ele>
        <time>2023-07-13T13:53:59.000Z</time>
      </trkpt>
      <trkpt lat="42.46793" lon="2.67385">
        <ele>433.60000610352</ele>
        <time>2023-07-13T13:54:05.000Z</time>
      </trkpt>
      <trkpt lat="42.46794" lon="2.67387">
        <ele>433.39999389648</ele>
        <time>2023-07-13T13:54:07.000Z</time>
      </trkpt>
      <trkpt lat="42.46794" lon="2.67403">
        <ele>431.60000610352</ele>
        <time>2023-07-13T13:54:23.000Z</time>
      </trkpt>
      <trkpt lat="42.46793" lon="2.67404">
        <ele>431.39999389648</ele>
        <time>2023-07-13T13:54:24.000Z</time>
      </trkpt>
      <trkpt lat="42.46779" lon="2.67405">
        <ele>430.39999389648</ele>
        <time>2023-07-13T13:54:36.000Z</time>
      </trkpt>
      <trkpt lat="42.46785" lon="2.67469">
        <ele>422.39999389648</ele>
        <time>2023-07-13T13:55:19.000Z</time>
      </trkpt>
      <trkpt lat="42.46799" lon="2.67484">
        <ele>422</ele>
        <time>2023-07-13T13:55:21.000Z</time>
      </trkpt>
      <trkpt lat="42.46789" lon="2.67479">
        <ele>421.39999389648</ele>
        <time>2023-07-13T13:55:25.000Z</time>
      </trkpt>
      <trkpt lat="42.46782" lon="2.67475">
        <ele>421</ele>
        <time>2023-07-13T13:55:27.000Z</time>
      </trkpt>
      <trkpt lat="42.46767" lon="2.67463">
        <ele>420.20001220703</ele>
        <time>2023-07-13T13:55:32.000Z</time>
      </trkpt>
      <trkpt lat="42.46784" lon="2.6748">
        <ele>420.20001220703</ele>
        <time>2023-07-13T13:55:33.000Z</time>
      </trkpt>
      <trkpt lat="42.46792" lon="2.67486">
        <ele>419.79998779297</ele>
        <time>2023-07-13T13:55:36.000Z</time>
      </trkpt>
      <trkpt lat="42.46792" lon="2.67486">
        <ele>419.79998779297</ele>
        <time>2023-07-13T13:55:37.000Z</time>
      </trkpt>
      <trkpt lat="42.46826" lon="2.67531">
        <ele>411.60000610352</ele>
        <time>2023-07-13T13:56:15.000Z</time>
      </trkpt>
      <trkpt lat="42.46823" lon="2.67528">
        <ele>411.60000610352</ele>
        <time>2023-07-13T13:56:16.000Z</time>
      </trkpt>
      <trkpt lat="42.46828" lon="2.67531">
        <ele>411.39999389648</ele>
        <time>2023-07-13T13:56:18.000Z</time>
      </trkpt>
      <trkpt lat="42.46827" lon="2.67526">
        <ele>410.60000610352</ele>
        <time>2023-07-13T13:56:25.000Z</time>
      </trkpt>
      <trkpt lat="42.46827" lon="2.67526">
        <ele>410.39999389648</ele>
        <time>2023-07-13T13:56:26.000Z</time>
      </trkpt>
      <trkpt lat="42.46827" lon="2.67521">
        <ele>409.60000610352</ele>
        <time>2023-07-13T13:56:32.000Z</time>
      </trkpt>
      <trkpt lat="42.46827" lon="2.67519">
        <ele>409.39999389648</ele>
        <time>2023-07-13T13:56:33.000Z</time>
      </trkpt>
      <trkpt lat="42.46828" lon="2.67516">
        <ele>408.20001220703</ele>
        <time>2023-07-13T13:56:38.000Z</time>
      </trkpt>
      <trkpt lat="42.46828" lon="2.67515">
        <ele>407.79998779297</ele>
        <time>2023-07-13T13:56:40.000Z</time>
      </trkpt>
      <trkpt lat="42.4683" lon="2.67512">
        <ele>407.20001220703</ele>
        <time>2023-07-13T13:56:44.000Z</time>
      </trkpt>
      <trkpt lat="42.46831" lon="2.67507">
        <ele>406</ele>
        <time>2023-07-13T13:56:49.000Z</time>
      </trkpt>
      <trkpt lat="42.46832" lon="2.67506">
        <ele>405.79998779297</ele>
        <time>2023-07-13T13:56:50.000Z</time>
      </trkpt>
      <trkpt lat="42.46836" lon="2.67502">
        <ele>405</ele>
        <time>2023-07-13T13:56:55.000Z</time>
      </trkpt>
      <trkpt lat="42.46839" lon="2.67502">
        <ele>404.39999389648</ele>
        <time>2023-07-13T13:56:59.000Z</time>
      </trkpt>
      <trkpt lat="42.46841" lon="2.67501">
        <ele>403.79998779297</ele>
        <time>2023-07-13T13:57:02.000Z</time>
      </trkpt>
      <trkpt lat="42.46844" lon="2.67497">
        <ele>403.20001220703</ele>
        <time>2023-07-13T13:57:06.000Z</time>
      </trkpt>
      <trkpt lat="42.46846" lon="2.67495">
        <ele>402.60000610352</ele>
        <time>2023-07-13T13:57:08.000Z</time>
      </trkpt>
      <trkpt lat="42.46847" lon="2.67488">
        <ele>401.60000610352</ele>
        <time>2023-07-13T13:57:14.000Z</time>
      </trkpt>
      <trkpt lat="42.46847" lon="2.67487">
        <ele>401.39999389648</ele>
        <time>2023-07-13T13:57:15.000Z</time>
      </trkpt>
      <trkpt lat="42.46846" lon="2.67479">
        <ele>400.39999389648</ele>
        <time>2023-07-13T13:57:21.000Z</time>
      </trkpt>
      <trkpt lat="42.46848" lon="2.67477">
        <ele>400.20001220703</ele>
        <time>2023-07-13T13:57:23.000Z</time>
      </trkpt>
      <trkpt lat="42.46853" lon="2.67474">
        <ele>399.39999389648</ele>
        <time>2023-07-13T13:57:30.000Z</time>
      </trkpt>
      <trkpt lat="42.46855" lon="2.67472">
        <ele>399.20001220703</ele>
        <time>2023-07-13T13:57:32.000Z</time>
      </trkpt>
      <trkpt lat="42.46859" lon="2.67469">
        <ele>398.60000610352</ele>
        <time>2023-07-13T13:57:36.000Z</time>
      </trkpt>
      <trkpt lat="42.46861" lon="2.67466">
        <ele>398</ele>
        <time>2023-07-13T13:57:40.000Z</time>
      </trkpt>
      <trkpt lat="42.46863" lon="2.67463">
        <ele>397.20001220703</ele>
        <time>2023-07-13T13:57:44.000Z</time>
      </trkpt>
      <trkpt lat="42.46863" lon="2.67462">
        <ele>397</ele>
        <time>2023-07-13T13:57:45.000Z</time>
      </trkpt>
      <trkpt lat="42.46864" lon="2.67455">
        <ele>396.39999389648</ele>
        <time>2023-07-13T13:57:52.000Z</time>
      </trkpt>
      <trkpt lat="42.46864" lon="2.67454">
        <ele>395.79998779297</ele>
        <time>2023-07-13T13:57:55.000Z</time>
      </trkpt>
      <trkpt lat="42.46863" lon="2.67451">
        <ele>395</ele>
        <time>2023-07-13T13:58:00.000Z</time>
      </trkpt>
      <trkpt lat="42.46864" lon="2.67449">
        <ele>394.79998779297</ele>
        <time>2023-07-13T13:58:02.000Z</time>
      </trkpt>
      <trkpt lat="42.46864" lon="2.67448">
        <ele>394.39999389648</ele>
        <time>2023-07-13T13:58:04.000Z</time>
      </trkpt>
      <trkpt lat="42.46864" lon="2.67443">
        <ele>393.60000610352</ele>
        <time>2023-07-13T13:58:09.000Z</time>
      </trkpt>
      <trkpt lat="42.46865" lon="2.67442">
        <ele>393.60000610352</ele>
        <time>2023-07-13T13:58:11.000Z</time>
      </trkpt>
      <trkpt lat="42.46866" lon="2.67439">
        <ele>392.60000610352</ele>
        <time>2023-07-13T13:58:16.000Z</time>
      </trkpt>
      <trkpt lat="42.46867" lon="2.67436">
        <ele>391.79998779297</ele>
        <time>2023-07-13T13:58:20.000Z</time>
      </trkpt>
      <trkpt lat="42.46867" lon="2.67434">
        <ele>391.39999389648</ele>
        <time>2023-07-13T13:58:22.000Z</time>
      </trkpt>
      <trkpt lat="42.46868" lon="2.67426">
        <ele>390.20001220703</ele>
        <time>2023-07-13T13:58:29.000Z</time>
      </trkpt>
      <trkpt lat="42.46869" lon="2.67422">
        <ele>389.20001220703</ele>
        <time>2023-07-13T13:58:34.000Z</time>
      </trkpt>
      <trkpt lat="42.46869" lon="2.67419">
        <ele>388.60000610352</ele>
        <time>2023-07-13T13:58:37.000Z</time>
      </trkpt>
      <trkpt lat="42.46869" lon="2.67418">
        <ele>388</ele>
        <time>2023-07-13T13:58:40.000Z</time>
      </trkpt>
      <trkpt lat="42.46869" lon="2.67414">
        <ele>386.79998779297</ele>
        <time>2023-07-13T13:58:46.000Z</time>
      </trkpt>
      <trkpt lat="42.46868" lon="2.67412">
        <ele>386.60000610352</ele>
        <time>2023-07-13T13:58:47.000Z</time>
      </trkpt>
      <trkpt lat="42.46869" lon="2.67404">
        <ele>385.60000610352</ele>
        <time>2023-07-13T13:58:53.000Z</time>
      </trkpt>
      <trkpt lat="42.46869" lon="2.67404">
        <ele>385.39999389648</ele>
        <time>2023-07-13T13:58:54.000Z</time>
      </trkpt>
      <trkpt lat="42.46871" lon="2.67403">
        <ele>384.60000610352</ele>
        <time>2023-07-13T13:58:58.000Z</time>
      </trkpt>
      <trkpt lat="42.46872" lon="2.67405">
        <ele>384.39999389648</ele>
        <time>2023-07-13T13:58:59.000Z</time>
      </trkpt>
      <trkpt lat="42.46873" lon="2.67407">
        <ele>384.39999389648</ele>
        <time>2023-07-13T13:59:01.000Z</time>
      </trkpt>
      <trkpt lat="42.46877" lon="2.67415">
        <ele>383.39999389648</ele>
        <time>2023-07-13T13:59:08.000Z</time>
      </trkpt>
      <trkpt lat="42.46878" lon="2.67421">
        <ele>382.79998779297</ele>
        <time>2023-07-13T13:59:13.000Z</time>
      </trkpt>
      <trkpt lat="42.46879" lon="2.67423">
        <ele>382.20001220703</ele>
        <time>2023-07-13T13:59:16.000Z</time>
      </trkpt>
      <trkpt lat="42.46881" lon="2.67428">
        <ele>381</ele>
        <time>2023-07-13T13:59:23.000Z</time>
      </trkpt>
      <trkpt lat="42.46882" lon="2.6743">
        <ele>380</ele>
        <time>2023-07-13T13:59:27.000Z</time>
      </trkpt>
      <trkpt lat="42.46883" lon="2.67431">
        <ele>379.79998779297</ele>
        <time>2023-07-13T13:59:30.000Z</time>
      </trkpt>
      <trkpt lat="42.46884" lon="2.67436">
        <ele>378.79998779297</ele>
        <time>2023-07-13T13:59:35.000Z</time>
      </trkpt>
      <trkpt lat="42.46886" lon="2.67439">
        <ele>378.39999389648</ele>
        <time>2023-07-13T13:59:39.000Z</time>
      </trkpt>
      <trkpt lat="42.46888" lon="2.67442">
        <ele>377.60000610352</ele>
        <time>2023-07-13T13:59:43.000Z</time>
      </trkpt>
      <trkpt lat="42.4689" lon="2.67445">
        <ele>377.20001220703</ele>
        <time>2023-07-13T13:59:46.000Z</time>
      </trkpt>
      <trkpt lat="42.4689" lon="2.67452">
        <ele>376.60000610352</ele>
        <time>2023-07-13T13:59:50.000Z</time>
      </trkpt>
      <trkpt lat="42.46891" lon="2.67454">
        <ele>376</ele>
        <time>2023-07-13T13:59:53.000Z</time>
      </trkpt>
      <trkpt lat="42.46892" lon="2.67455">
        <ele>375.60000610352</ele>
        <time>2023-07-13T13:59:56.000Z</time>
      </trkpt>
      <trkpt lat="42.46892" lon="2.67462">
        <ele>375</ele>
        <time>2023-07-13T14:00:01.000Z</time>
      </trkpt>
      <trkpt lat="42.46892" lon="2.67467">
        <ele>374.60000610352</ele>
        <time>2023-07-13T14:00:05.000Z</time>
      </trkpt>
      <trkpt lat="42.46893" lon="2.67473">
        <ele>373.79998779297</ele>
        <time>2023-07-13T14:00:10.000Z</time>
      </trkpt>
      <trkpt lat="42.46892" lon="2.67476">
        <ele>373.39999389648</ele>
        <time>2023-07-13T14:00:13.000Z</time>
      </trkpt>
      <trkpt lat="42.46894" lon="2.67476">
        <ele>372.39999389648</ele>
        <time>2023-07-13T14:00:17.000Z</time>
      </trkpt>
      <trkpt lat="42.46894" lon="2.67476">
        <ele>372.20001220703</ele>
        <time>2023-07-13T14:00:18.000Z</time>
      </trkpt>
      <trkpt lat="42.46895" lon="2.67475">
        <ele>372</ele>
        <time>2023-07-13T14:00:19.000Z</time>
      </trkpt>
      <trkpt lat="42.46899" lon="2.67475">
        <ele>371.20001220703</ele>
        <time>2023-07-13T14:00:24.000Z</time>
      </trkpt>
      <trkpt lat="42.469" lon="2.67474">
        <ele>371</ele>
        <time>2023-07-13T14:00:25.000Z</time>
      </trkpt>
      <trkpt lat="42.46904" lon="2.67467">
        <ele>369.79998779297</ele>
        <time>2023-07-13T14:00:32.000Z</time>
      </trkpt>
      <trkpt lat="42.46905" lon="2.67466">
        <ele>369.60000610352</ele>
        <time>2023-07-13T14:00:33.000Z</time>
      </trkpt>
      <trkpt lat="42.46907" lon="2.67462">
        <ele>369</ele>
        <time>2023-07-13T14:00:38.000Z</time>
      </trkpt>
      <trkpt lat="42.46908" lon="2.67461">
        <ele>368.79998779297</ele>
        <time>2023-07-13T14:00:40.000Z</time>
      </trkpt>
      <trkpt lat="42.46909" lon="2.67458">
        <ele>368</ele>
        <time>2023-07-13T14:00:44.000Z</time>
      </trkpt>
      <trkpt lat="42.4691" lon="2.67457">
        <ele>367.60000610352</ele>
        <time>2023-07-13T14:00:46.000Z</time>
      </trkpt>
      <trkpt lat="42.4691" lon="2.67451">
        <ele>366.60000610352</ele>
        <time>2023-07-13T14:00:52.000Z</time>
      </trkpt>
      <trkpt lat="42.4691" lon="2.6745">
        <ele>366.39999389648</ele>
        <time>2023-07-13T14:00:53.000Z</time>
      </trkpt>
      <trkpt lat="42.46909" lon="2.67446">
        <ele>365.60000610352</ele>
        <time>2023-07-13T14:00:59.000Z</time>
      </trkpt>
      <trkpt lat="42.46909" lon="2.67445">
        <ele>365.39999389648</ele>
        <time>2023-07-13T14:01:00.000Z</time>
      </trkpt>
      <trkpt lat="42.4691" lon="2.6744">
        <ele>364.60000610352</ele>
        <time>2023-07-13T14:01:04.000Z</time>
      </trkpt>
      <trkpt lat="42.46911" lon="2.67437">
        <ele>364</ele>
        <time>2023-07-13T14:01:08.000Z</time>
      </trkpt>
      <trkpt lat="42.46911" lon="2.67435">
        <ele>363.60000610352</ele>
        <time>2023-07-13T14:01:10.000Z</time>
      </trkpt>
      <trkpt lat="42.46913" lon="2.67432">
        <ele>362.79998779297</ele>
        <time>2023-07-13T14:01:14.000Z</time>
      </trkpt>
      <trkpt lat="42.46913" lon="2.6743">
        <ele>362.39999389648</ele>
        <time>2023-07-13T14:01:16.000Z</time>
      </trkpt>
      <trkpt lat="42.46916" lon="2.67426">
        <ele>361.20001220703</ele>
        <time>2023-07-13T14:01:22.000Z</time>
      </trkpt>
      <trkpt lat="42.46916" lon="2.67425">
        <ele>361</ele>
        <time>2023-07-13T14:01:24.000Z</time>
      </trkpt>
      <trkpt lat="42.46914" lon="2.67421">
        <ele>360.20001220703</ele>
        <time>2023-07-13T14:01:29.000Z</time>
      </trkpt>
      <trkpt lat="42.46913" lon="2.67416">
        <ele>359.79998779297</ele>
        <time>2023-07-13T14:01:32.000Z</time>
      </trkpt>
      <trkpt lat="42.46912" lon="2.67408">
        <ele>359.20001220703</ele>
        <time>2023-07-13T14:01:37.000Z</time>
      </trkpt>
      <trkpt lat="42.46912" lon="2.67404">
        <ele>358.60000610352</ele>
        <time>2023-07-13T14:01:41.000Z</time>
      </trkpt>
      <trkpt lat="42.46913" lon="2.67401">
        <ele>358</ele>
        <time>2023-07-13T14:01:45.000Z</time>
      </trkpt>
      <trkpt lat="42.46914" lon="2.67398">
        <ele>357.39999389648</ele>
        <time>2023-07-13T14:01:49.000Z</time>
      </trkpt>
      <trkpt lat="42.46915" lon="2.67394">
        <ele>357</ele>
        <time>2023-07-13T14:01:52.000Z</time>
      </trkpt>
      <trkpt lat="42.46915" lon="2.67384">
        <ele>356.60000610352</ele>
        <time>2023-07-13T14:01:56.000Z</time>
      </trkpt>
      <trkpt lat="42.46917" lon="2.67378">
        <ele>355.79998779297</ele>
        <time>2023-07-13T14:02:01.000Z</time>
      </trkpt>
      <trkpt lat="42.46917" lon="2.67377">
        <ele>355.79998779297</ele>
        <time>2023-07-13T14:02:03.000Z</time>
      </trkpt>
      <trkpt lat="42.46916" lon="2.67371">
        <ele>354.79998779297</ele>
        <time>2023-07-13T14:02:08.000Z</time>
      </trkpt>
      <trkpt lat="42.46916" lon="2.67365">
        <ele>354.39999389648</ele>
        <time>2023-07-13T14:02:12.000Z</time>
      </trkpt>
      <trkpt lat="42.46916" lon="2.67354">
        <ele>353.60000610352</ele>
        <time>2023-07-13T14:02:18.000Z</time>
      </trkpt>
      <trkpt lat="42.46916" lon="2.67352">
        <ele>353.60000610352</ele>
        <time>2023-07-13T14:02:19.000Z</time>
      </trkpt>
      <trkpt lat="42.46918" lon="2.67344">
        <ele>352.60000610352</ele>
        <time>2023-07-13T14:02:26.000Z</time>
      </trkpt>
      <trkpt lat="42.46918" lon="2.67342">
        <ele>352.39999389648</ele>
        <time>2023-07-13T14:02:27.000Z</time>
      </trkpt>
      <trkpt lat="42.4692" lon="2.67336">
        <ele>351.60000610352</ele>
        <time>2023-07-13T14:02:34.000Z</time>
      </trkpt>
      <trkpt lat="42.46921" lon="2.67331">
        <ele>350.60000610352</ele>
        <time>2023-07-13T14:02:40.000Z</time>
      </trkpt>
      <trkpt lat="42.46922" lon="2.67329">
        <ele>350.20001220703</ele>
        <time>2023-07-13T14:02:42.000Z</time>
      </trkpt>
      <trkpt lat="42.46923" lon="2.67323">
        <ele>349.39999389648</ele>
        <time>2023-07-13T14:02:47.000Z</time>
      </trkpt>
      <trkpt lat="42.46922" lon="2.67322">
        <ele>349.20001220703</ele>
        <time>2023-07-13T14:02:49.000Z</time>
      </trkpt>
      <trkpt lat="42.46922" lon="2.67322">
        <ele>348.39999389648</ele>
        <time>2023-07-13T14:02:54.000Z</time>
      </trkpt>
      <trkpt lat="42.46922" lon="2.67319">
        <ele>347.79998779297</ele>
        <time>2023-07-13T14:02:57.000Z</time>
      </trkpt>
      <trkpt lat="42.46921" lon="2.67314">
        <ele>347.20001220703</ele>
        <time>2023-07-13T14:03:01.000Z</time>
      </trkpt>
      <trkpt lat="42.46922" lon="2.67309">
        <ele>346.60000610352</ele>
        <time>2023-07-13T14:03:04.000Z</time>
      </trkpt>
      <trkpt lat="42.46922" lon="2.67306">
        <ele>346.20001220703</ele>
        <time>2023-07-13T14:03:06.000Z</time>
      </trkpt>
      <trkpt lat="42.46924" lon="2.67303">
        <ele>345.20001220703</ele>
        <time>2023-07-13T14:03:12.000Z</time>
      </trkpt>
      <trkpt lat="42.46924" lon="2.67303">
        <ele>345</ele>
        <time>2023-07-13T14:03:13.000Z</time>
      </trkpt>
      <trkpt lat="42.46925" lon="2.67303">
        <ele>344.20001220703</ele>
        <time>2023-07-13T14:03:18.000Z</time>
      </trkpt>
      <trkpt lat="42.46925" lon="2.67302">
        <ele>344</ele>
        <time>2023-07-13T14:03:19.000Z</time>
      </trkpt>
      <trkpt lat="42.46925" lon="2.67301">
        <ele>343.60000610352</ele>
        <time>2023-07-13T14:03:21.000Z</time>
      </trkpt>
      <trkpt lat="42.46926" lon="2.67301">
        <ele>343</ele>
        <time>2023-07-13T14:03:25.000Z</time>
      </trkpt>
      <trkpt lat="42.46927" lon="2.67304">
        <ele>342.60000610352</ele>
        <time>2023-07-13T14:03:27.000Z</time>
      </trkpt>
      <trkpt lat="42.46929" lon="2.67311">
        <ele>341.79998779297</ele>
        <time>2023-07-13T14:03:31.000Z</time>
      </trkpt>
      <trkpt lat="42.46932" lon="2.67315">
        <ele>341.39999389648</ele>
        <time>2023-07-13T14:03:35.000Z</time>
      </trkpt>
      <trkpt lat="42.46933" lon="2.67317">
        <ele>341</ele>
        <time>2023-07-13T14:03:40.000Z</time>
      </trkpt>
      <trkpt lat="42.46933" lon="2.67317">
        <ele>340.79998779297</ele>
        <time>2023-07-13T14:03:42.000Z</time>
      </trkpt>
      <trkpt lat="42.46942" lon="2.67324">
        <ele>337.60000610352</ele>
        <time>2023-07-13T14:03:58.000Z</time>
      </trkpt>
      <trkpt lat="42.46943" lon="2.67324">
        <ele>337.60000610352</ele>
        <time>2023-07-13T14:03:59.000Z</time>
      </trkpt>
      <trkpt lat="42.46943" lon="2.67323">
        <ele>337.39999389648</ele>
        <time>2023-07-13T14:04:01.000Z</time>
      </trkpt>
      <trkpt lat="42.46944" lon="2.6732">
        <ele>336.79998779297</ele>
        <time>2023-07-13T14:04:06.000Z</time>
      </trkpt>
      <trkpt lat="42.46945" lon="2.67318">
        <ele>336.20001220703</ele>
        <time>2023-07-13T14:04:09.000Z</time>
      </trkpt>
      <trkpt lat="42.46947" lon="2.67316">
        <ele>335.39999389648</ele>
        <time>2023-07-13T14:04:14.000Z</time>
      </trkpt>
      <trkpt lat="42.46947" lon="2.67315">
        <ele>335.20001220703</ele>
        <time>2023-07-13T14:04:15.000Z</time>
      </trkpt>
      <trkpt lat="42.46948" lon="2.67312">
        <ele>334</ele>
        <time>2023-07-13T14:04:20.000Z</time>
      </trkpt>
      <trkpt lat="42.46948" lon="2.6731">
        <ele>333.60000610352</ele>
        <time>2023-07-13T14:04:23.000Z</time>
      </trkpt>
      <trkpt lat="42.46949" lon="2.67306">
        <ele>333</ele>
        <time>2023-07-13T14:04:27.000Z</time>
      </trkpt>
      <trkpt lat="42.4695" lon="2.673">
        <ele>332.39999389648</ele>
        <time>2023-07-13T14:04:31.000Z</time>
      </trkpt>
      <trkpt lat="42.4695" lon="2.67296">
        <ele>331.79998779297</ele>
        <time>2023-07-13T14:04:34.000Z</time>
      </trkpt>
      <trkpt lat="42.46951" lon="2.67289">
        <ele>330.79998779297</ele>
        <time>2023-07-13T14:04:40.000Z</time>
      </trkpt>
      <trkpt lat="42.46951" lon="2.67276">
        <ele>329.79998779297</ele>
        <time>2023-07-13T14:04:49.000Z</time>
      </trkpt>
      <trkpt lat="42.46951" lon="2.67266">
        <ele>328.60000610352</ele>
        <time>2023-07-13T14:04:58.000Z</time>
      </trkpt>
      <trkpt lat="42.46951" lon="2.67264">
        <ele>328.20001220703</ele>
        <time>2023-07-13T14:05:00.000Z</time>
      </trkpt>
      <trkpt lat="42.46952" lon="2.67258">
        <ele>327.60000610352</ele>
        <time>2023-07-13T14:05:06.000Z</time>
      </trkpt>
      <trkpt lat="42.46952" lon="2.67257">
        <ele>327.39999389648</ele>
        <time>2023-07-13T14:05:07.000Z</time>
      </trkpt>
      <trkpt lat="42.46953" lon="2.6725">
        <ele>326.39999389648</ele>
        <time>2023-07-13T14:05:13.000Z</time>
      </trkpt>
      <trkpt lat="42.46953" lon="2.67247">
        <ele>325.79998779297</ele>
        <time>2023-07-13T14:05:17.000Z</time>
      </trkpt>
      <trkpt lat="42.46953" lon="2.67244">
        <ele>325.39999389648</ele>
        <time>2023-07-13T14:05:19.000Z</time>
      </trkpt>
      <trkpt lat="42.46956" lon="2.67239">
        <ele>324.39999389648</ele>
        <time>2023-07-13T14:05:24.000Z</time>
      </trkpt>
      <trkpt lat="42.46955" lon="2.67237">
        <ele>324.20001220703</ele>
        <time>2023-07-13T14:05:25.000Z</time>
      </trkpt>
      <trkpt lat="42.46957" lon="2.67232">
        <ele>323.20001220703</ele>
        <time>2023-07-13T14:05:30.000Z</time>
      </trkpt>
      <trkpt lat="42.46958" lon="2.67229">
        <ele>322.60000610352</ele>
        <time>2023-07-13T14:05:33.000Z</time>
      </trkpt>
      <trkpt lat="42.46959" lon="2.67228">
        <ele>322</ele>
        <time>2023-07-13T14:05:36.000Z</time>
      </trkpt>
      <trkpt lat="42.46959" lon="2.67229">
        <ele>321.39999389648</ele>
        <time>2023-07-13T14:05:40.000Z</time>
      </trkpt>
      <trkpt lat="42.4696" lon="2.67228">
        <ele>321</ele>
        <time>2023-07-13T14:05:42.000Z</time>
      </trkpt>
      <trkpt lat="42.46962" lon="2.67228">
        <ele>320.20001220703</ele>
        <time>2023-07-13T14:05:46.000Z</time>
      </trkpt>
      <trkpt lat="42.46961" lon="2.67228">
        <ele>320</ele>
        <time>2023-07-13T14:05:47.000Z</time>
      </trkpt>
      <trkpt lat="42.46962" lon="2.6723">
        <ele>318.79998779297</ele>
        <time>2023-07-13T14:05:53.000Z</time>
      </trkpt>
      <trkpt lat="42.46964" lon="2.6723">
        <ele>318.39999389648</ele>
        <time>2023-07-13T14:05:56.000Z</time>
      </trkpt>
      <trkpt lat="42.46965" lon="2.67229">
        <ele>318.20001220703</ele>
        <time>2023-07-13T14:05:57.000Z</time>
      </trkpt>
      <trkpt lat="42.46966" lon="2.67227">
        <ele>317.79998779297</ele>
        <time>2023-07-13T14:06:00.000Z</time>
      </trkpt>
      <trkpt lat="42.46966" lon="2.67227">
        <ele>317.39999389648</ele>
        <time>2023-07-13T14:06:02.000Z</time>
      </trkpt>
      <trkpt lat="42.46965" lon="2.67223">
        <ele>316.60000610352</ele>
        <time>2023-07-13T14:06:06.000Z</time>
      </trkpt>
      <trkpt lat="42.46967" lon="2.67219">
        <ele>316</ele>
        <time>2023-07-13T14:06:09.000Z</time>
      </trkpt>
      <trkpt lat="42.46968" lon="2.67217">
        <ele>315.60000610352</ele>
        <time>2023-07-13T14:06:11.000Z</time>
      </trkpt>
      <trkpt lat="42.46968" lon="2.67212">
        <ele>314.60000610352</ele>
        <time>2023-07-13T14:06:16.000Z</time>
      </trkpt>
      <trkpt lat="42.46968" lon="2.67211">
        <ele>314.39999389648</ele>
        <time>2023-07-13T14:06:17.000Z</time>
      </trkpt>
      <trkpt lat="42.46973" lon="2.67206">
        <ele>313.39999389648</ele>
        <time>2023-07-13T14:06:22.000Z</time>
      </trkpt>
      <trkpt lat="42.46974" lon="2.67206">
        <ele>313</ele>
        <time>2023-07-13T14:06:24.000Z</time>
      </trkpt>
      <trkpt lat="42.46974" lon="2.67206">
        <ele>312.79998779297</ele>
        <time>2023-07-13T14:06:25.000Z</time>
      </trkpt>
      <trkpt lat="42.46974" lon="2.67208">
        <ele>312.20001220703</ele>
        <time>2023-07-13T14:06:29.000Z</time>
      </trkpt>
      <trkpt lat="42.46975" lon="2.67211">
        <ele>311.79998779297</ele>
        <time>2023-07-13T14:06:31.000Z</time>
      </trkpt>
      <trkpt lat="42.46976" lon="2.67212">
        <ele>311.20001220703</ele>
        <time>2023-07-13T14:06:35.000Z</time>
      </trkpt>
      <trkpt lat="42.46978" lon="2.67211">
        <ele>310.20001220703</ele>
        <time>2023-07-13T14:06:39.000Z</time>
      </trkpt>
      <trkpt lat="42.46979" lon="2.67211">
        <ele>310</ele>
        <time>2023-07-13T14:06:40.000Z</time>
      </trkpt>
      <trkpt lat="42.46982" lon="2.67214">
        <ele>309</ele>
        <time>2023-07-13T14:06:45.000Z</time>
      </trkpt>
      <trkpt lat="42.46983" lon="2.67215">
        <ele>309</ele>
        <time>2023-07-13T14:06:46.000Z</time>
      </trkpt>
      <trkpt lat="42.46988" lon="2.67219">
        <ele>308.39999389648</ele>
        <time>2023-07-13T14:06:52.000Z</time>
      </trkpt>
      <trkpt lat="42.4699" lon="2.67222">
        <ele>307.79998779297</ele>
        <time>2023-07-13T14:06:55.000Z</time>
      </trkpt>
      <trkpt lat="42.46991" lon="2.67222">
        <ele>307</ele>
        <time>2023-07-13T14:07:00.000Z</time>
      </trkpt>
      <trkpt lat="42.46992" lon="2.67223">
        <ele>306.60000610352</ele>
        <time>2023-07-13T14:07:01.000Z</time>
      </trkpt>
      <trkpt lat="42.46995" lon="2.67228">
        <ele>305.79998779297</ele>
        <time>2023-07-13T14:07:07.000Z</time>
      </trkpt>
      <trkpt lat="42.46995" lon="2.67229">
        <ele>305.60000610352</ele>
        <time>2023-07-13T14:07:08.000Z</time>
      </trkpt>
      <trkpt lat="42.46998" lon="2.67231">
        <ele>304.60000610352</ele>
        <time>2023-07-13T14:07:15.000Z</time>
      </trkpt>
      <trkpt lat="42.46999" lon="2.67233">
        <ele>304.20001220703</ele>
        <time>2023-07-13T14:07:17.000Z</time>
      </trkpt>
      <trkpt lat="42.47002" lon="2.67239">
        <ele>303.39999389648</ele>
        <time>2023-07-13T14:07:22.000Z</time>
      </trkpt>
      <trkpt lat="42.47005" lon="2.6724">
        <ele>302.79998779297</ele>
        <time>2023-07-13T14:07:26.000Z</time>
      </trkpt>
      <trkpt lat="42.47008" lon="2.6724">
        <ele>302.39999389648</ele>
        <time>2023-07-13T14:07:29.000Z</time>
      </trkpt>
      <trkpt lat="42.47012" lon="2.67244">
        <ele>301.39999389648</ele>
        <time>2023-07-13T14:07:35.000Z</time>
      </trkpt>
      <trkpt lat="42.47012" lon="2.67244">
        <ele>301.20001220703</ele>
        <time>2023-07-13T14:07:36.000Z</time>
      </trkpt>
      <trkpt lat="42.47015" lon="2.67242">
        <ele>300.39999389648</ele>
        <time>2023-07-13T14:07:41.000Z</time>
      </trkpt>
      <trkpt lat="42.47015" lon="2.67239">
        <ele>300.20001220703</ele>
        <time>2023-07-13T14:07:43.000Z</time>
      </trkpt>
      <trkpt lat="42.47016" lon="2.67236">
        <ele>299.39999389648</ele>
        <time>2023-07-13T14:07:47.000Z</time>
      </trkpt>
      <trkpt lat="42.47016" lon="2.67234">
        <ele>298.79998779297</ele>
        <time>2023-07-13T14:07:50.000Z</time>
      </trkpt>
      <trkpt lat="42.47016" lon="2.67231">
        <ele>298.39999389648</ele>
        <time>2023-07-13T14:07:53.000Z</time>
      </trkpt>
      <trkpt lat="42.47017" lon="2.67229">
        <ele>297.79998779297</ele>
        <time>2023-07-13T14:07:56.000Z</time>
      </trkpt>
      <trkpt lat="42.4702" lon="2.67226">
        <ele>297</ele>
        <time>2023-07-13T14:08:02.000Z</time>
      </trkpt>
      <trkpt lat="42.47021" lon="2.67224">
        <ele>296.60000610352</ele>
        <time>2023-07-13T14:08:05.000Z</time>
      </trkpt>
      <trkpt lat="42.47023" lon="2.67223">
        <ele>296.20001220703</ele>
        <time>2023-07-13T14:08:08.000Z</time>
      </trkpt>
      <trkpt lat="42.47025" lon="2.67217">
        <ele>295.60000610352</ele>
        <time>2023-07-13T14:08:13.000Z</time>
      </trkpt>
      <trkpt lat="42.47026" lon="2.67214">
        <ele>295.39999389648</ele>
        <time>2023-07-13T14:08:15.000Z</time>
      </trkpt>
      <trkpt lat="42.47026" lon="2.67211">
        <ele>294.60000610352</ele>
        <time>2023-07-13T14:08:20.000Z</time>
      </trkpt>
      <trkpt lat="42.47026" lon="2.6721">
        <ele>294.39999389648</ele>
        <time>2023-07-13T14:08:21.000Z</time>
      </trkpt>
      <trkpt lat="42.47025" lon="2.67204">
        <ele>293.60000610352</ele>
        <time>2023-07-13T14:08:26.000Z</time>
      </trkpt>
      <trkpt lat="42.47025" lon="2.67202">
        <ele>293.20001220703</ele>
        <time>2023-07-13T14:08:28.000Z</time>
      </trkpt>
      <trkpt lat="42.47026" lon="2.67198">
        <ele>292.39999389648</ele>
        <time>2023-07-13T14:08:34.000Z</time>
      </trkpt>
      <trkpt lat="42.47027" lon="2.67196">
        <ele>292.20001220703</ele>
        <time>2023-07-13T14:08:37.000Z</time>
      </trkpt>
      <trkpt lat="42.47026" lon="2.67192">
        <ele>291.20001220703</ele>
        <time>2023-07-13T14:08:41.000Z</time>
      </trkpt>
      <trkpt lat="42.47025" lon="2.67187">
        <ele>290.79998779297</ele>
        <time>2023-07-13T14:08:45.000Z</time>
      </trkpt>
      <trkpt lat="42.47025" lon="2.67183">
        <ele>290.39999389648</ele>
        <time>2023-07-13T14:08:50.000Z</time>
      </trkpt>
      <trkpt lat="42.47025" lon="2.67182">
        <ele>290.20001220703</ele>
        <time>2023-07-13T14:08:52.000Z</time>
      </trkpt>
      <trkpt lat="42.47026" lon="2.6718">
        <ele>289.79998779297</ele>
        <time>2023-07-13T14:08:58.000Z</time>
      </trkpt>
      <trkpt lat="42.47028" lon="2.67178">
        <ele>289.60000610352</ele>
        <time>2023-07-13T14:09:04.000Z</time>
      </trkpt>
      <trkpt lat="42.47028" lon="2.67174">
        <ele>289.20001220703</ele>
        <time>2023-07-13T14:09:08.000Z</time>
      </trkpt>
      <trkpt lat="42.47027" lon="2.67173">
        <ele>289</ele>
        <time>2023-07-13T14:09:10.000Z</time>
      </trkpt>
      <trkpt lat="42.47026" lon="2.67168">
        <ele>288.79998779297</ele>
        <time>2023-07-13T14:09:17.000Z</time>
      </trkpt>
      <trkpt lat="42.47026" lon="2.6717">
        <ele>288.60000610352</ele>
        <time>2023-07-13T14:09:23.000Z</time>
      </trkpt>
      <trkpt lat="42.47024" lon="2.67169">
        <ele>288.39999389648</ele>
        <time>2023-07-13T14:09:30.000Z</time>
      </trkpt>
      <trkpt lat="42.47026" lon="2.67166">
        <ele>288.60000610352</ele>
        <time>2023-07-13T14:09:38.000Z</time>
      </trkpt>
      <trkpt lat="42.47026" lon="2.67168">
        <ele>288.79998779297</ele>
        <time>2023-07-13T14:09:45.000Z</time>
      </trkpt>
      <trkpt lat="42.47025" lon="2.67173">
        <ele>289.60000610352</ele>
        <time>2023-07-13T14:09:53.000Z</time>
      </trkpt>
      <trkpt lat="42.47026" lon="2.67175">
        <ele>289.39999389648</ele>
        <time>2023-07-13T14:10:01.000Z</time>
      </trkpt>
      <trkpt lat="42.47028" lon="2.67177">
        <ele>288.39999389648</ele>
        <time>2023-07-13T14:10:07.000Z</time>
      </trkpt>
      <trkpt lat="42.47029" lon="2.67178">
        <ele>288.20001220703</ele>
        <time>2023-07-13T14:10:09.000Z</time>
      </trkpt>
      <trkpt lat="42.47032" lon="2.67179">
        <ele>287.79998779297</ele>
        <time>2023-07-13T14:10:13.000Z</time>
      </trkpt>
      <trkpt lat="42.47036" lon="2.6718">
        <ele>287</ele>
        <time>2023-07-13T14:10:18.000Z</time>
      </trkpt>
      <trkpt lat="42.47037" lon="2.67181">
        <ele>286.79998779297</ele>
        <time>2023-07-13T14:10:19.000Z</time>
      </trkpt>
      <trkpt lat="42.47042" lon="2.67182">
        <ele>286</ele>
        <time>2023-07-13T14:10:24.000Z</time>
      </trkpt>
      <trkpt lat="42.47044" lon="2.67182">
        <ele>285.60000610352</ele>
        <time>2023-07-13T14:10:27.000Z</time>
      </trkpt>
      <trkpt lat="42.47046" lon="2.67182">
        <ele>284.79998779297</ele>
        <time>2023-07-13T14:10:31.000Z</time>
      </trkpt>
      <trkpt lat="42.47048" lon="2.67183">
        <ele>284.39999389648</ele>
        <time>2023-07-13T14:10:34.000Z</time>
      </trkpt>
      <trkpt lat="42.4705" lon="2.67183">
        <ele>283.79998779297</ele>
        <time>2023-07-13T14:10:38.000Z</time>
      </trkpt>
      <trkpt lat="42.47051" lon="2.67183">
        <ele>283.39999389648</ele>
        <time>2023-07-13T14:10:40.000Z</time>
      </trkpt>
      <trkpt lat="42.47056" lon="2.67185">
        <ele>282.79998779297</ele>
        <time>2023-07-13T14:10:48.000Z</time>
      </trkpt>
      <trkpt lat="42.47058" lon="2.67185">
        <ele>282.60000610352</ele>
        <time>2023-07-13T14:10:58.000Z</time>
      </trkpt>
      <trkpt lat="42.4706" lon="2.67182">
        <ele>281.60000610352</ele>
        <time>2023-07-13T14:11:07.000Z</time>
      </trkpt>
      <trkpt lat="42.47065" lon="2.67182">
        <ele>280.60000610352</ele>
        <time>2023-07-13T14:11:14.000Z</time>
      </trkpt>
      <trkpt lat="42.47072" lon="2.67188">
        <ele>279.39999389648</ele>
        <time>2023-07-13T14:11:22.000Z</time>
      </trkpt>
      <trkpt lat="42.47077" lon="2.67194">
        <ele>278.20001220703</ele>
        <time>2023-07-13T14:11:28.000Z</time>
      </trkpt>
      <trkpt lat="42.47078" lon="2.67194">
        <ele>278</ele>
        <time>2023-07-13T14:11:29.000Z</time>
      </trkpt>
      <trkpt lat="42.47082" lon="2.67199">
        <ele>277.20001220703</ele>
        <time>2023-07-13T14:11:36.000Z</time>
      </trkpt>
      <trkpt lat="42.47086" lon="2.67205">
        <ele>276</ele>
        <time>2023-07-13T14:11:42.000Z</time>
      </trkpt>
      <trkpt lat="42.47087" lon="2.67205">
        <ele>276</ele>
        <time>2023-07-13T14:11:43.000Z</time>
      </trkpt>
      <trkpt lat="42.47091" lon="2.67207">
        <ele>275</ele>
        <time>2023-07-13T14:11:50.000Z</time>
      </trkpt>
      <trkpt lat="42.47094" lon="2.67213">
        <ele>274.60000610352</ele>
        <time>2023-07-13T14:11:57.000Z</time>
      </trkpt>
      <trkpt lat="42.47097" lon="2.67216">
        <ele>274</ele>
        <time>2023-07-13T14:12:03.000Z</time>
      </trkpt>
      <trkpt lat="42.47098" lon="2.6722">
        <ele>273.39999389648</ele>
        <time>2023-07-13T14:12:06.000Z</time>
      </trkpt>
      <trkpt lat="42.47099" lon="2.67223">
        <ele>272.79998779297</ele>
        <time>2023-07-13T14:12:11.000Z</time>
      </trkpt>
      <trkpt lat="42.47099" lon="2.67226">
        <ele>272.39999389648</ele>
        <time>2023-07-13T14:12:14.000Z</time>
      </trkpt>
      <trkpt lat="42.471" lon="2.6723">
        <ele>271.79998779297</ele>
        <time>2023-07-13T14:12:21.000Z</time>
      </trkpt>
      <trkpt lat="42.47102" lon="2.67231">
        <ele>271.20001220703</ele>
        <time>2023-07-13T14:12:25.000Z</time>
      </trkpt>
      <trkpt lat="42.47105" lon="2.67236">
        <ele>270.79998779297</ele>
        <time>2023-07-13T14:12:28.000Z</time>
      </trkpt>
      <trkpt lat="42.47111" lon="2.6724">
        <ele>269.79998779297</ele>
        <time>2023-07-13T14:12:34.000Z</time>
      </trkpt>
      <trkpt lat="42.47112" lon="2.67241">
        <ele>269.79998779297</ele>
        <time>2023-07-13T14:12:35.000Z</time>
      </trkpt>
      <trkpt lat="42.47115" lon="2.67244">
        <ele>269.60000610352</ele>
        <time>2023-07-13T14:12:40.000Z</time>
      </trkpt>
      <trkpt lat="42.47114" lon="2.67246">
        <ele>269.79998779297</ele>
        <time>2023-07-13T14:12:47.000Z</time>
      </trkpt>
      <trkpt lat="42.47116" lon="2.67253">
        <ele>268.79998779297</ele>
        <time>2023-07-13T14:13:03.000Z</time>
      </trkpt>
      <trkpt lat="42.47118" lon="2.67257">
        <ele>268.60000610352</ele>
        <time>2023-07-13T14:13:06.000Z</time>
      </trkpt>
      <trkpt lat="42.4712" lon="2.67259">
        <ele>268.20001220703</ele>
        <time>2023-07-13T14:13:12.000Z</time>
      </trkpt>
      <trkpt lat="42.47126" lon="2.6727">
        <ele>267.79998779297</ele>
        <time>2023-07-13T14:13:20.000Z</time>
      </trkpt>
      <trkpt lat="42.47129" lon="2.67274">
        <ele>267.60000610352</ele>
        <time>2023-07-13T14:13:23.000Z</time>
      </trkpt>
      <trkpt lat="42.47138" lon="2.67283">
        <ele>266.79998779297</ele>
        <time>2023-07-13T14:13:31.000Z</time>
      </trkpt>
      <trkpt lat="42.47142" lon="2.67288">
        <ele>266.60000610352</ele>
        <time>2023-07-13T14:13:36.000Z</time>
      </trkpt>
      <trkpt lat="42.47143" lon="2.67289">
        <ele>266.20001220703</ele>
        <time>2023-07-13T14:13:38.000Z</time>
      </trkpt>
      <trkpt lat="42.47149" lon="2.67295">
        <ele>265.79998779297</ele>
        <time>2023-07-13T14:13:46.000Z</time>
      </trkpt>
      <trkpt lat="42.47151" lon="2.67298">
        <ele>265.39999389648</ele>
        <time>2023-07-13T14:13:49.000Z</time>
      </trkpt>
      <trkpt lat="42.47153" lon="2.67301">
        <ele>264.79998779297</ele>
        <time>2023-07-13T14:13:55.000Z</time>
      </trkpt>
      <trkpt lat="42.47157" lon="2.67306">
        <ele>264.39999389648</ele>
        <time>2023-07-13T14:14:00.000Z</time>
      </trkpt>
      <trkpt lat="42.47158" lon="2.67306">
        <ele>264.20001220703</ele>
        <time>2023-07-13T14:14:01.000Z</time>
      </trkpt>
      <trkpt lat="42.47162" lon="2.67312">
        <ele>263.20001220703</ele>
        <time>2023-07-13T14:14:08.000Z</time>
      </trkpt>
      <trkpt lat="42.47163" lon="2.67317">
        <ele>262</ele>
        <time>2023-07-13T14:14:15.000Z</time>
      </trkpt>
      <trkpt lat="42.4716" lon="2.6732">
        <ele>261.60000610352</ele>
        <time>2023-07-13T14:14:20.000Z</time>
      </trkpt>
      <trkpt lat="42.47162" lon="2.67323">
        <ele>261.60000610352</ele>
        <time>2023-07-13T14:14:23.000Z</time>
      </trkpt>
      <trkpt lat="42.47163" lon="2.67328">
        <ele>261.20001220703</ele>
        <time>2023-07-13T14:14:26.000Z</time>
      </trkpt>
      <trkpt lat="42.47165" lon="2.6733">
        <ele>261.20001220703</ele>
        <time>2023-07-13T14:14:28.000Z</time>
      </trkpt>
      <trkpt lat="42.47166" lon="2.67333">
        <ele>261</ele>
        <time>2023-07-13T14:14:29.000Z</time>
      </trkpt>
      <trkpt lat="42.47169" lon="2.67336">
        <ele>260.79998779297</ele>
        <time>2023-07-13T14:14:31.000Z</time>
      </trkpt>
      <trkpt lat="42.47179" lon="2.67346">
        <ele>260.39999389648</ele>
        <time>2023-07-13T14:14:39.000Z</time>
      </trkpt>
      <trkpt lat="42.47181" lon="2.67348">
        <ele>259.79998779297</ele>
        <time>2023-07-13T14:14:41.000Z</time>
      </trkpt>
      <trkpt lat="42.4719" lon="2.67354">
        <ele>258.79998779297</ele>
        <time>2023-07-13T14:14:48.000Z</time>
      </trkpt>
      <trkpt lat="42.47191" lon="2.67355">
        <ele>258.60000610352</ele>
        <time>2023-07-13T14:14:49.000Z</time>
      </trkpt>
      <trkpt lat="42.47198" lon="2.67364">
        <ele>257.60000610352</ele>
        <time>2023-07-13T14:14:56.000Z</time>
      </trkpt>
      <trkpt lat="42.47198" lon="2.67366">
        <ele>257.39999389648</ele>
        <time>2023-07-13T14:14:58.000Z</time>
      </trkpt>
      <trkpt lat="42.47199" lon="2.6737">
        <ele>257.20001220703</ele>
        <time>2023-07-13T14:15:00.000Z</time>
      </trkpt>
      <trkpt lat="42.472" lon="2.67381">
        <ele>256.60000610352</ele>
        <time>2023-07-13T14:15:04.000Z</time>
      </trkpt>
      <trkpt lat="42.472" lon="2.67382">
        <ele>256</ele>
        <time>2023-07-13T14:15:09.000Z</time>
      </trkpt>
      <trkpt lat="42.47202" lon="2.67383">
        <ele>255.60000610352</ele>
        <time>2023-07-13T14:15:13.000Z</time>
      </trkpt>
      <trkpt lat="42.47205" lon="2.6738">
        <ele>255</ele>
        <time>2023-07-13T14:15:17.000Z</time>
      </trkpt>
      <trkpt lat="42.47207" lon="2.67379">
        <ele>254.39999389648</ele>
        <time>2023-07-13T14:15:20.000Z</time>
      </trkpt>
      <trkpt lat="42.47211" lon="2.67376">
        <ele>253.39999389648</ele>
        <time>2023-07-13T14:15:27.000Z</time>
      </trkpt>
      <trkpt lat="42.47214" lon="2.67376">
        <ele>252.39999389648</ele>
        <time>2023-07-13T14:15:32.000Z</time>
      </trkpt>
      <trkpt lat="42.47216" lon="2.67372">
        <ele>251.19999694824</ele>
        <time>2023-07-13T14:15:37.000Z</time>
      </trkpt>
      <trkpt lat="42.47219" lon="2.67371">
        <ele>250.60000610352</ele>
        <time>2023-07-13T14:15:40.000Z</time>
      </trkpt>
      <trkpt lat="42.4722" lon="2.67371">
        <ele>250.39999389648</ele>
        <time>2023-07-13T14:15:41.000Z</time>
      </trkpt>
      <trkpt lat="42.47222" lon="2.67371">
        <ele>250</ele>
        <time>2023-07-13T14:15:43.000Z</time>
      </trkpt>
      <trkpt lat="42.47224" lon="2.67371">
        <ele>249.39999389648</ele>
        <time>2023-07-13T14:15:45.000Z</time>
      </trkpt>
      <trkpt lat="42.47228" lon="2.67371">
        <ele>248.80000305176</ele>
        <time>2023-07-13T14:15:48.000Z</time>
      </trkpt>
      <trkpt lat="42.47233" lon="2.67373">
        <ele>248</ele>
        <time>2023-07-13T14:15:53.000Z</time>
      </trkpt>
      <trkpt lat="42.47233" lon="2.67373">
        <ele>247.80000305176</ele>
        <time>2023-07-13T14:15:54.000Z</time>
      </trkpt>
      <trkpt lat="42.47232" lon="2.67374">
        <ele>247.60000610352</ele>
        <time>2023-07-13T14:15:55.000Z</time>
      </trkpt>
      <trkpt lat="42.47231" lon="2.67377">
        <ele>246.60000610352</ele>
        <time>2023-07-13T14:16:01.000Z</time>
      </trkpt>
      <trkpt lat="42.4723" lon="2.67379">
        <ele>246.39999389648</ele>
        <time>2023-07-13T14:16:03.000Z</time>
      </trkpt>
      <trkpt lat="42.47224" lon="2.67383">
        <ele>245.60000610352</ele>
        <time>2023-07-13T14:16:10.000Z</time>
      </trkpt>
      <trkpt lat="42.47221" lon="2.67384">
        <ele>245.39999389648</ele>
        <time>2023-07-13T14:16:12.000Z</time>
      </trkpt>
      <trkpt lat="42.47217" lon="2.67386">
        <ele>244.60000610352</ele>
        <time>2023-07-13T14:16:18.000Z</time>
      </trkpt>
      <trkpt lat="42.47213" lon="2.67386">
        <ele>244</ele>
        <time>2023-07-13T14:16:21.000Z</time>
      </trkpt>
      <trkpt lat="42.47207" lon="2.67386">
        <ele>243.60000610352</ele>
        <time>2023-07-13T14:16:25.000Z</time>
      </trkpt>
      <trkpt lat="42.47204" lon="2.67389">
        <ele>242.19999694824</ele>
        <time>2023-07-13T14:16:34.000Z</time>
      </trkpt>
      <trkpt lat="42.47219" lon="2.67399">
        <ele>241.80000305176</ele>
        <time>2023-07-13T14:16:59.000Z</time>
      </trkpt>
      <trkpt lat="42.47219" lon="2.67402">
        <ele>241.80000305176</ele>
        <time>2023-07-13T14:17:08.000Z</time>
      </trkpt>
      <trkpt lat="42.4722" lon="2.67403">
        <ele>242</ele>
        <time>2023-07-13T14:17:15.000Z</time>
      </trkpt>
      <trkpt lat="42.47221" lon="2.67402">
        <ele>242.19999694824</ele>
        <time>2023-07-13T14:17:25.000Z</time>
      </trkpt>
      <trkpt lat="42.47223" lon="2.67401">
        <ele>242.39999389648</ele>
        <time>2023-07-13T14:17:33.000Z</time>
      </trkpt>
      <trkpt lat="42.47225" lon="2.67398">
        <ele>242.60000610352</ele>
        <time>2023-07-13T14:17:39.000Z</time>
      </trkpt>
      <trkpt lat="42.47225" lon="2.67399">
        <ele>242.60000610352</ele>
        <time>2023-07-13T14:17:41.000Z</time>
      </trkpt>
      <trkpt lat="42.4723" lon="2.674">
        <ele>241.39999389648</ele>
        <time>2023-07-13T14:17:49.000Z</time>
      </trkpt>
      <trkpt lat="42.4723" lon="2.674">
        <ele>241.39999389648</ele>
        <time>2023-07-13T14:17:50.000Z</time>
      </trkpt>
      <trkpt lat="42.47225" lon="2.67403">
        <ele>241.39999389648</ele>
        <time>2023-07-13T14:17:59.000Z</time>
      </trkpt>
      <trkpt lat="42.47226" lon="2.67404">
        <ele>240.80000305176</ele>
        <time>2023-07-13T14:18:09.000Z</time>
      </trkpt>
      <trkpt lat="42.47228" lon="2.67404">
        <ele>240.60000610352</ele>
        <time>2023-07-13T14:18:11.000Z</time>
      </trkpt>
      <trkpt lat="42.47231" lon="2.67403">
        <ele>240.19999694824</ele>
        <time>2023-07-13T14:18:13.000Z</time>
      </trkpt>
      <trkpt lat="42.47235" lon="2.67403">
        <ele>239</ele>
        <time>2023-07-13T14:18:17.000Z</time>
      </trkpt>
      <trkpt lat="42.47237" lon="2.67403">
        <ele>238.80000305176</ele>
        <time>2023-07-13T14:18:18.000Z</time>
      </trkpt>
      <trkpt lat="42.47244" lon="2.67403">
        <ele>237.80000305176</ele>
        <time>2023-07-13T14:18:22.000Z</time>
      </trkpt>
      <trkpt lat="42.47251" lon="2.67403">
        <ele>236.80000305176</ele>
        <time>2023-07-13T14:18:26.000Z</time>
      </trkpt>
      <trkpt lat="42.47257" lon="2.67403">
        <ele>235.80000305176</ele>
        <time>2023-07-13T14:18:30.000Z</time>
      </trkpt>
      <trkpt lat="42.47258" lon="2.67403">
        <ele>235.60000610352</ele>
        <time>2023-07-13T14:18:31.000Z</time>
      </trkpt>
      <trkpt lat="42.47265" lon="2.67403">
        <ele>234.60000610352</ele>
        <time>2023-07-13T14:18:36.000Z</time>
      </trkpt>
      <trkpt lat="42.47273" lon="2.67404">
        <ele>233.39999389648</ele>
        <time>2023-07-13T14:18:41.000Z</time>
      </trkpt>
      <trkpt lat="42.47279" lon="2.67403">
        <ele>232.80000305176</ele>
        <time>2023-07-13T14:18:45.000Z</time>
      </trkpt>
      <trkpt lat="42.47283" lon="2.67402">
        <ele>232.39999389648</ele>
        <time>2023-07-13T14:18:48.000Z</time>
      </trkpt>
      <trkpt lat="42.47289" lon="2.67397">
        <ele>231.19999694824</ele>
        <time>2023-07-13T14:18:54.000Z</time>
      </trkpt>
      <trkpt lat="42.47292" lon="2.67395">
        <ele>230.39999389648</ele>
        <time>2023-07-13T14:18:58.000Z</time>
      </trkpt>
      <trkpt lat="42.47293" lon="2.67393">
        <ele>230.39999389648</ele>
        <time>2023-07-13T14:19:01.000Z</time>
      </trkpt>
      <trkpt lat="42.47291" lon="2.67389">
        <ele>230.39999389648</ele>
        <time>2023-07-13T14:19:05.000Z</time>
      </trkpt>
      <trkpt lat="42.47292" lon="2.67385">
        <ele>230.19999694824</ele>
        <time>2023-07-13T14:19:11.000Z</time>
      </trkpt>
      <trkpt lat="42.47292" lon="2.67384">
        <ele>230</ele>
        <time>2023-07-13T14:19:12.000Z</time>
      </trkpt>
      <trkpt lat="42.47299" lon="2.67378">
        <ele>229.19999694824</ele>
        <time>2023-07-13T14:19:17.000Z</time>
      </trkpt>
      <trkpt lat="42.47301" lon="2.67376">
        <ele>229</ele>
        <time>2023-07-13T14:19:19.000Z</time>
      </trkpt>
      <trkpt lat="42.47303" lon="2.67374">
        <ele>228.19999694824</ele>
        <time>2023-07-13T14:19:23.000Z</time>
      </trkpt>
      <trkpt lat="42.47302" lon="2.67374">
        <ele>228</ele>
        <time>2023-07-13T14:19:26.000Z</time>
      </trkpt>
      <trkpt lat="42.47299" lon="2.67372">
        <ele>227.80000305176</ele>
        <time>2023-07-13T14:19:35.000Z</time>
      </trkpt>
      <trkpt lat="42.47303" lon="2.67367">
        <ele>227.60000610352</ele>
        <time>2023-07-13T14:19:42.000Z</time>
      </trkpt>
      <trkpt lat="42.47307" lon="2.67358">
        <ele>227</ele>
        <time>2023-07-13T14:19:48.000Z</time>
      </trkpt>
      <trkpt lat="42.47306" lon="2.67356">
        <ele>227</ele>
        <time>2023-07-13T14:19:49.000Z</time>
      </trkpt>
      <trkpt lat="42.47301" lon="2.67344">
        <ele>227</ele>
        <time>2023-07-13T14:19:56.000Z</time>
      </trkpt>
      <trkpt lat="42.47301" lon="2.67328">
        <ele>226.80000305176</ele>
        <time>2023-07-13T14:20:05.000Z</time>
      </trkpt>
      <trkpt lat="42.47301" lon="2.67315">
        <ele>227.19999694824</ele>
        <time>2023-07-13T14:20:13.000Z</time>
      </trkpt>
      <trkpt lat="42.47302" lon="2.67308">
        <ele>227.19999694824</ele>
        <time>2023-07-13T14:20:19.000Z</time>
      </trkpt>
      <trkpt lat="42.47303" lon="2.67297">
        <ele>227.39999389648</ele>
        <time>2023-07-13T14:20:27.000Z</time>
      </trkpt>
      <trkpt lat="42.47303" lon="2.67287">
        <ele>227.39999389648</ele>
        <time>2023-07-13T14:20:34.000Z</time>
      </trkpt>
      <trkpt lat="42.473" lon="2.67275">
        <ele>227.39999389648</ele>
        <time>2023-07-13T14:20:41.000Z</time>
      </trkpt>
      <trkpt lat="42.47296" lon="2.67263">
        <ele>227.39999389648</ele>
        <time>2023-07-13T14:20:48.000Z</time>
      </trkpt>
      <trkpt lat="42.4729" lon="2.67252">
        <ele>227.60000610352</ele>
        <time>2023-07-13T14:20:54.000Z</time>
      </trkpt>
      <trkpt lat="42.47285" lon="2.67235">
        <ele>227.60000610352</ele>
        <time>2023-07-13T14:21:02.000Z</time>
      </trkpt>
      <trkpt lat="42.47287" lon="2.67219">
        <ele>227.80000305176</ele>
        <time>2023-07-13T14:21:09.000Z</time>
      </trkpt>
      <trkpt lat="42.47288" lon="2.6721">
        <ele>227.80000305176</ele>
        <time>2023-07-13T14:21:13.000Z</time>
      </trkpt>
      <trkpt lat="42.47287" lon="2.67206">
        <ele>228</ele>
        <time>2023-07-13T14:21:15.000Z</time>
      </trkpt>
      <trkpt lat="42.47285" lon="2.67191">
        <ele>228</ele>
        <time>2023-07-13T14:21:22.000Z</time>
      </trkpt>
      <trkpt lat="42.47286" lon="2.67186">
        <ele>228.19999694824</ele>
        <time>2023-07-13T14:21:25.000Z</time>
      </trkpt>
      <trkpt lat="42.47283" lon="2.67175">
        <ele>228.19999694824</ele>
        <time>2023-07-13T14:21:31.000Z</time>
      </trkpt>
      <trkpt lat="42.4728" lon="2.67161">
        <ele>228.39999389648</ele>
        <time>2023-07-13T14:21:38.000Z</time>
      </trkpt>
      <trkpt lat="42.47281" lon="2.67152">
        <ele>228.39999389648</ele>
        <time>2023-07-13T14:21:45.000Z</time>
      </trkpt>
      <trkpt lat="42.47276" lon="2.6714">
        <ele>228.80000305176</ele>
        <time>2023-07-13T14:21:54.000Z</time>
      </trkpt>
      <trkpt lat="42.47265" lon="2.67123">
        <ele>228.80000305176</ele>
        <time>2023-07-13T14:21:59.000Z</time>
      </trkpt>
      <trkpt lat="42.47265" lon="2.6712">
        <ele>228.80000305176</ele>
        <time>2023-07-13T14:22:00.000Z</time>
      </trkpt>
      <trkpt lat="42.47259" lon="2.671">
        <ele>229</ele>
        <time>2023-07-13T14:22:06.000Z</time>
      </trkpt>
      <trkpt lat="42.47263" lon="2.67091">
        <ele>229.19999694824</ele>
        <time>2023-07-13T14:22:12.000Z</time>
      </trkpt>
      <trkpt lat="42.47268" lon="2.67087">
        <ele>229.19999694824</ele>
        <time>2023-07-13T14:22:15.000Z</time>
      </trkpt>
      <trkpt lat="42.47278" lon="2.67075">
        <ele>229.19999694824</ele>
        <time>2023-07-13T14:22:24.000Z</time>
      </trkpt>
      <trkpt lat="42.47284" lon="2.67064">
        <ele>229.19999694824</ele>
        <time>2023-07-13T14:22:30.000Z</time>
      </trkpt>
      <trkpt lat="42.47287" lon="2.67056">
        <ele>229.19999694824</ele>
        <time>2023-07-13T14:22:37.000Z</time>
      </trkpt>
      <trkpt lat="42.47293" lon="2.67054">
        <ele>229.19999694824</ele>
        <time>2023-07-13T14:22:42.000Z</time>
      </trkpt>
      <trkpt lat="42.47302" lon="2.67048">
        <ele>229.19999694824</ele>
        <time>2023-07-13T14:22:49.000Z</time>
      </trkpt>
      <trkpt lat="42.47314" lon="2.67037">
        <ele>229</ele>
        <time>2023-07-13T14:22:58.000Z</time>
      </trkpt>
      <trkpt lat="42.47317" lon="2.67018">
        <ele>229.60000610352</ele>
        <time>2023-07-13T14:23:07.000Z</time>
      </trkpt>
      <trkpt lat="42.47315" lon="2.67007">
        <ele>229.80000305176</ele>
        <time>2023-07-13T14:23:13.000Z</time>
      </trkpt>
      <trkpt lat="42.47315" lon="2.66995">
        <ele>230</ele>
        <time>2023-07-13T14:23:18.000Z</time>
      </trkpt>
      <trkpt lat="42.47314" lon="2.66989">
        <ele>230.19999694824</ele>
        <time>2023-07-13T14:23:22.000Z</time>
      </trkpt>
      <trkpt lat="42.47316" lon="2.66986">
        <ele>230.39999389648</ele>
        <time>2023-07-13T14:23:26.000Z</time>
      </trkpt>
      <trkpt lat="42.47319" lon="2.66979">
        <ele>230</ele>
        <time>2023-07-13T14:23:33.000Z</time>
      </trkpt>
      <trkpt lat="42.47321" lon="2.66967">
        <ele>230.60000610352</ele>
        <time>2023-07-13T14:23:41.000Z</time>
      </trkpt>
      <trkpt lat="42.47322" lon="2.66954">
        <ele>230.80000305176</ele>
        <time>2023-07-13T14:23:49.000Z</time>
      </trkpt>
      <trkpt lat="42.47323" lon="2.66955">
        <ele>230.60000610352</ele>
        <time>2023-07-13T14:23:52.000Z</time>
      </trkpt>
      <trkpt lat="42.47321" lon="2.66957">
        <ele>230.80000305176</ele>
        <time>2023-07-13T14:23:55.000Z</time>
      </trkpt>
    </trkseg>
  </trk>
</gpx>